<?xml version="1.0" encoding="UTF-8" standalone="no" ?>
<gpx xmlns="http://www.topografix.com/GPX/1/1" xmlns:xsi="http://www.w3.org/2001/XMLSchema-instance" xsi:schemaLocation="http://www.topografix.com/GPX/1/1 http://www.topografix.com/GPX/1/1/gpx.xsd" version="1.1" creator="VisuGPX - https://www.visugpx.com">
  <metadata>
    <name>Balade ASV VTT 2016-10-30</name>
    <desc><![CDATA[Balade de quelques guerriers non vacanciers !]]></desc>
  </metadata>
  <trk>
    <name><![CDATA[Balade ASV VTT 2016-10-30_1]]></name>
    <trkseg>
      <trkpt lat="47.80219" lon="2.13689">
        <ele>97</ele>
        <time>2016-10-30T07:33:59.000Z</time>
      </trkpt>
      <trkpt lat="47.80219" lon="2.13689">
        <ele>97</ele>
        <time>2016-10-30T07:34:00.000Z</time>
      </trkpt>
      <trkpt lat="47.80219" lon="2.13689">
        <ele>98</ele>
        <time>2016-10-30T07:34:01.000Z</time>
      </trkpt>
      <trkpt lat="47.80219" lon="2.1369">
        <ele>98</ele>
        <time>2016-10-30T07:34:02.000Z</time>
      </trkpt>
      <trkpt lat="47.80219" lon="2.1369">
        <ele>98</ele>
        <time>2016-10-30T07:34:03.000Z</time>
      </trkpt>
      <trkpt lat="47.80219" lon="2.13691">
        <ele>98</ele>
        <time>2016-10-30T07:34:04.000Z</time>
      </trkpt>
      <trkpt lat="47.80219" lon="2.13693">
        <ele>98</ele>
        <time>2016-10-30T07:34:05.000Z</time>
      </trkpt>
      <trkpt lat="47.80219" lon="2.13696">
        <ele>98</ele>
        <time>2016-10-30T07:34:06.000Z</time>
      </trkpt>
      <trkpt lat="47.8022" lon="2.137">
        <ele>98</ele>
        <time>2016-10-30T07:34:07.000Z</time>
      </trkpt>
      <trkpt lat="47.8022" lon="2.13704">
        <ele>99</ele>
        <time>2016-10-30T07:34:08.000Z</time>
      </trkpt>
      <trkpt lat="47.80219" lon="2.1371">
        <ele>99</ele>
        <time>2016-10-30T07:34:09.000Z</time>
      </trkpt>
      <trkpt lat="47.80219" lon="2.13717">
        <ele>100</ele>
        <time>2016-10-30T07:34:10.000Z</time>
      </trkpt>
      <trkpt lat="47.80219" lon="2.13724">
        <ele>100</ele>
        <time>2016-10-30T07:34:11.000Z</time>
      </trkpt>
      <trkpt lat="47.80219" lon="2.13732">
        <ele>100</ele>
        <time>2016-10-30T07:34:12.000Z</time>
      </trkpt>
      <trkpt lat="47.80218" lon="2.1374">
        <ele>100</ele>
        <time>2016-10-30T07:34:13.000Z</time>
      </trkpt>
      <trkpt lat="47.80217" lon="2.13749">
        <ele>99</ele>
        <time>2016-10-30T07:34:14.000Z</time>
      </trkpt>
      <trkpt lat="47.80217" lon="2.13758">
        <ele>99</ele>
        <time>2016-10-30T07:34:15.000Z</time>
      </trkpt>
      <trkpt lat="47.80217" lon="2.13766">
        <ele>99</ele>
        <time>2016-10-30T07:34:16.000Z</time>
      </trkpt>
      <trkpt lat="47.80216" lon="2.13775">
        <ele>99</ele>
        <time>2016-10-30T07:34:17.000Z</time>
      </trkpt>
      <trkpt lat="47.80216" lon="2.13783">
        <ele>99</ele>
        <time>2016-10-30T07:34:18.000Z</time>
      </trkpt>
      <trkpt lat="47.80216" lon="2.13791">
        <ele>99</ele>
        <time>2016-10-30T07:34:19.000Z</time>
      </trkpt>
      <trkpt lat="47.80215" lon="2.13799">
        <ele>99</ele>
        <time>2016-10-30T07:34:20.000Z</time>
      </trkpt>
      <trkpt lat="47.80215" lon="2.13806">
        <ele>98</ele>
        <time>2016-10-30T07:34:21.000Z</time>
      </trkpt>
      <trkpt lat="47.80214" lon="2.13814">
        <ele>98</ele>
        <time>2016-10-30T07:34:22.000Z</time>
      </trkpt>
      <trkpt lat="47.80213" lon="2.13821">
        <ele>98</ele>
        <time>2016-10-30T07:34:23.000Z</time>
      </trkpt>
      <trkpt lat="47.80213" lon="2.13828">
        <ele>97</ele>
        <time>2016-10-30T07:34:24.000Z</time>
      </trkpt>
      <trkpt lat="47.80212" lon="2.13835">
        <ele>98</ele>
        <time>2016-10-30T07:34:25.000Z</time>
      </trkpt>
      <trkpt lat="47.80211" lon="2.13841">
        <ele>97</ele>
        <time>2016-10-30T07:34:26.000Z</time>
      </trkpt>
      <trkpt lat="47.8021" lon="2.13848">
        <ele>97</ele>
        <time>2016-10-30T07:34:27.000Z</time>
      </trkpt>
      <trkpt lat="47.80209" lon="2.13854">
        <ele>97</ele>
        <time>2016-10-30T07:34:28.000Z</time>
      </trkpt>
      <trkpt lat="47.80208" lon="2.13861">
        <ele>97</ele>
        <time>2016-10-30T07:34:29.000Z</time>
      </trkpt>
      <trkpt lat="47.80206" lon="2.13867">
        <ele>97</ele>
        <time>2016-10-30T07:34:30.000Z</time>
      </trkpt>
      <trkpt lat="47.80204" lon="2.13874">
        <ele>97</ele>
        <time>2016-10-30T07:34:31.000Z</time>
      </trkpt>
      <trkpt lat="47.80202" lon="2.13881">
        <ele>98</ele>
        <time>2016-10-30T07:34:32.000Z</time>
      </trkpt>
      <trkpt lat="47.802" lon="2.13887">
        <ele>97</ele>
        <time>2016-10-30T07:34:33.000Z</time>
      </trkpt>
      <trkpt lat="47.80199" lon="2.13894">
        <ele>98</ele>
        <time>2016-10-30T07:34:34.000Z</time>
      </trkpt>
      <trkpt lat="47.80197" lon="2.13901">
        <ele>98</ele>
        <time>2016-10-30T07:34:35.000Z</time>
      </trkpt>
      <trkpt lat="47.80195" lon="2.13908">
        <ele>98</ele>
        <time>2016-10-30T07:34:36.000Z</time>
      </trkpt>
      <trkpt lat="47.80193" lon="2.13915">
        <ele>98</ele>
        <time>2016-10-30T07:34:37.000Z</time>
      </trkpt>
      <trkpt lat="47.80191" lon="2.13921">
        <ele>98</ele>
        <time>2016-10-30T07:34:38.000Z</time>
      </trkpt>
      <trkpt lat="47.8019" lon="2.13928">
        <ele>98</ele>
        <time>2016-10-30T07:34:39.000Z</time>
      </trkpt>
      <trkpt lat="47.80188" lon="2.13934">
        <ele>98</ele>
        <time>2016-10-30T07:34:40.000Z</time>
      </trkpt>
      <trkpt lat="47.80186" lon="2.1394">
        <ele>98</ele>
        <time>2016-10-30T07:34:41.000Z</time>
      </trkpt>
      <trkpt lat="47.80184" lon="2.13947">
        <ele>98</ele>
        <time>2016-10-30T07:34:42.000Z</time>
      </trkpt>
      <trkpt lat="47.80182" lon="2.13954">
        <ele>98</ele>
        <time>2016-10-30T07:34:43.000Z</time>
      </trkpt>
      <trkpt lat="47.80181" lon="2.13961">
        <ele>99</ele>
        <time>2016-10-30T07:34:44.000Z</time>
      </trkpt>
      <trkpt lat="47.80179" lon="2.13968">
        <ele>99</ele>
        <time>2016-10-30T07:34:45.000Z</time>
      </trkpt>
      <trkpt lat="47.80177" lon="2.13975">
        <ele>99</ele>
        <time>2016-10-30T07:34:46.000Z</time>
      </trkpt>
      <trkpt lat="47.80175" lon="2.13981">
        <ele>98</ele>
        <time>2016-10-30T07:34:47.000Z</time>
      </trkpt>
      <trkpt lat="47.80174" lon="2.13987">
        <ele>98</ele>
        <time>2016-10-30T07:34:48.000Z</time>
      </trkpt>
      <trkpt lat="47.80175" lon="2.13993">
        <ele>98</ele>
        <time>2016-10-30T07:34:49.000Z</time>
      </trkpt>
      <trkpt lat="47.80177" lon="2.13999">
        <ele>99</ele>
        <time>2016-10-30T07:34:50.000Z</time>
      </trkpt>
      <trkpt lat="47.8018" lon="2.14004">
        <ele>99</ele>
        <time>2016-10-30T07:34:51.000Z</time>
      </trkpt>
      <trkpt lat="47.80183" lon="2.14008">
        <ele>100</ele>
        <time>2016-10-30T07:34:52.000Z</time>
      </trkpt>
      <trkpt lat="47.80187" lon="2.14011">
        <ele>100</ele>
        <time>2016-10-30T07:34:53.000Z</time>
      </trkpt>
      <trkpt lat="47.80192" lon="2.14014">
        <ele>100</ele>
        <time>2016-10-30T07:34:54.000Z</time>
      </trkpt>
      <trkpt lat="47.80197" lon="2.14018">
        <ele>100</ele>
        <time>2016-10-30T07:34:55.000Z</time>
      </trkpt>
      <trkpt lat="47.80202" lon="2.14022">
        <ele>101</ele>
        <time>2016-10-30T07:34:56.000Z</time>
      </trkpt>
      <trkpt lat="47.80207" lon="2.14025">
        <ele>101</ele>
        <time>2016-10-30T07:34:57.000Z</time>
      </trkpt>
      <trkpt lat="47.80212" lon="2.14029">
        <ele>102</ele>
        <time>2016-10-30T07:34:58.000Z</time>
      </trkpt>
      <trkpt lat="47.80217" lon="2.14033">
        <ele>102</ele>
        <time>2016-10-30T07:34:59.000Z</time>
      </trkpt>
      <trkpt lat="47.80223" lon="2.14037">
        <ele>102</ele>
        <time>2016-10-30T07:35:00.000Z</time>
      </trkpt>
      <trkpt lat="47.80228" lon="2.14041">
        <ele>102</ele>
        <time>2016-10-30T07:35:01.000Z</time>
      </trkpt>
      <trkpt lat="47.80234" lon="2.14045">
        <ele>102</ele>
        <time>2016-10-30T07:35:02.000Z</time>
      </trkpt>
      <trkpt lat="47.80239" lon="2.14049">
        <ele>102</ele>
        <time>2016-10-30T07:35:03.000Z</time>
      </trkpt>
      <trkpt lat="47.80245" lon="2.14052">
        <ele>102</ele>
        <time>2016-10-30T07:35:04.000Z</time>
      </trkpt>
      <trkpt lat="47.80251" lon="2.14056">
        <ele>102</ele>
        <time>2016-10-30T07:35:05.000Z</time>
      </trkpt>
      <trkpt lat="47.80256" lon="2.1406">
        <ele>102</ele>
        <time>2016-10-30T07:35:06.000Z</time>
      </trkpt>
      <trkpt lat="47.80262" lon="2.14064">
        <ele>102</ele>
        <time>2016-10-30T07:35:07.000Z</time>
      </trkpt>
      <trkpt lat="47.80268" lon="2.14068">
        <ele>101</ele>
        <time>2016-10-30T07:35:08.000Z</time>
      </trkpt>
      <trkpt lat="47.80273" lon="2.14072">
        <ele>102</ele>
        <time>2016-10-30T07:35:09.000Z</time>
      </trkpt>
      <trkpt lat="47.80279" lon="2.14076">
        <ele>101</ele>
        <time>2016-10-30T07:35:10.000Z</time>
      </trkpt>
      <trkpt lat="47.80284" lon="2.1408">
        <ele>101</ele>
        <time>2016-10-30T07:35:11.000Z</time>
      </trkpt>
      <trkpt lat="47.8029" lon="2.14083">
        <ele>102</ele>
        <time>2016-10-30T07:35:12.000Z</time>
      </trkpt>
      <trkpt lat="47.80296" lon="2.14087">
        <ele>101</ele>
        <time>2016-10-30T07:35:13.000Z</time>
      </trkpt>
      <trkpt lat="47.80301" lon="2.14091">
        <ele>101</ele>
        <time>2016-10-30T07:35:14.000Z</time>
      </trkpt>
      <trkpt lat="47.80307" lon="2.14095">
        <ele>101</ele>
        <time>2016-10-30T07:35:15.000Z</time>
      </trkpt>
      <trkpt lat="47.80312" lon="2.14099">
        <ele>101</ele>
        <time>2016-10-30T07:35:16.000Z</time>
      </trkpt>
      <trkpt lat="47.80318" lon="2.14102">
        <ele>101</ele>
        <time>2016-10-30T07:35:17.000Z</time>
      </trkpt>
      <trkpt lat="47.80324" lon="2.14106">
        <ele>101</ele>
        <time>2016-10-30T07:35:18.000Z</time>
      </trkpt>
      <trkpt lat="47.80329" lon="2.14109">
        <ele>100</ele>
        <time>2016-10-30T07:35:19.000Z</time>
      </trkpt>
      <trkpt lat="47.80335" lon="2.14113">
        <ele>100</ele>
        <time>2016-10-30T07:35:20.000Z</time>
      </trkpt>
      <trkpt lat="47.8034" lon="2.14116">
        <ele>100</ele>
        <time>2016-10-30T07:35:21.000Z</time>
      </trkpt>
      <trkpt lat="47.80346" lon="2.1412">
        <ele>100</ele>
        <time>2016-10-30T07:35:22.000Z</time>
      </trkpt>
      <trkpt lat="47.80352" lon="2.14123">
        <ele>100</ele>
        <time>2016-10-30T07:35:23.000Z</time>
      </trkpt>
      <trkpt lat="47.80357" lon="2.14127">
        <ele>100</ele>
        <time>2016-10-30T07:35:24.000Z</time>
      </trkpt>
      <trkpt lat="47.80363" lon="2.1413">
        <ele>100</ele>
        <time>2016-10-30T07:35:25.000Z</time>
      </trkpt>
      <trkpt lat="47.80368" lon="2.14134">
        <ele>100</ele>
        <time>2016-10-30T07:35:26.000Z</time>
      </trkpt>
      <trkpt lat="47.80374" lon="2.14138">
        <ele>100</ele>
        <time>2016-10-30T07:35:27.000Z</time>
      </trkpt>
      <trkpt lat="47.80379" lon="2.14142">
        <ele>100</ele>
        <time>2016-10-30T07:35:28.000Z</time>
      </trkpt>
      <trkpt lat="47.80385" lon="2.14147">
        <ele>100</ele>
        <time>2016-10-30T07:35:29.000Z</time>
      </trkpt>
      <trkpt lat="47.80391" lon="2.14152">
        <ele>99</ele>
        <time>2016-10-30T07:35:30.000Z</time>
      </trkpt>
      <trkpt lat="47.80397" lon="2.14157">
        <ele>99</ele>
        <time>2016-10-30T07:35:31.000Z</time>
      </trkpt>
      <trkpt lat="47.80403" lon="2.14163">
        <ele>98</ele>
        <time>2016-10-30T07:35:32.000Z</time>
      </trkpt>
      <trkpt lat="47.80409" lon="2.14169">
        <ele>97</ele>
        <time>2016-10-30T07:35:33.000Z</time>
      </trkpt>
      <trkpt lat="47.80414" lon="2.14174">
        <ele>97</ele>
        <time>2016-10-30T07:35:34.000Z</time>
      </trkpt>
      <trkpt lat="47.8042" lon="2.14179">
        <ele>97</ele>
        <time>2016-10-30T07:35:35.000Z</time>
      </trkpt>
      <trkpt lat="47.80426" lon="2.14185">
        <ele>95</ele>
        <time>2016-10-30T07:35:36.000Z</time>
      </trkpt>
      <trkpt lat="47.80431" lon="2.1419">
        <ele>94</ele>
        <time>2016-10-30T07:35:37.000Z</time>
      </trkpt>
      <trkpt lat="47.80437" lon="2.14196">
        <ele>93</ele>
        <time>2016-10-30T07:35:38.000Z</time>
      </trkpt>
      <trkpt lat="47.80442" lon="2.14201">
        <ele>92</ele>
        <time>2016-10-30T07:35:39.000Z</time>
      </trkpt>
      <trkpt lat="47.80448" lon="2.14207">
        <ele>91</ele>
        <time>2016-10-30T07:35:40.000Z</time>
      </trkpt>
      <trkpt lat="47.80453" lon="2.14213">
        <ele>91</ele>
        <time>2016-10-30T07:35:41.000Z</time>
      </trkpt>
      <trkpt lat="47.80459" lon="2.14219">
        <ele>90</ele>
        <time>2016-10-30T07:35:42.000Z</time>
      </trkpt>
      <trkpt lat="47.80465" lon="2.14226">
        <ele>90</ele>
        <time>2016-10-30T07:35:43.000Z</time>
      </trkpt>
      <trkpt lat="47.80471" lon="2.14232">
        <ele>89</ele>
        <time>2016-10-30T07:35:44.000Z</time>
      </trkpt>
      <trkpt lat="47.80477" lon="2.14238">
        <ele>89</ele>
        <time>2016-10-30T07:35:45.000Z</time>
      </trkpt>
      <trkpt lat="47.80483" lon="2.14244">
        <ele>88</ele>
        <time>2016-10-30T07:35:46.000Z</time>
      </trkpt>
      <trkpt lat="47.80489" lon="2.14251">
        <ele>88</ele>
        <time>2016-10-30T07:35:47.000Z</time>
      </trkpt>
      <trkpt lat="47.80495" lon="2.14257">
        <ele>88</ele>
        <time>2016-10-30T07:35:48.000Z</time>
      </trkpt>
      <trkpt lat="47.80502" lon="2.14263">
        <ele>88</ele>
        <time>2016-10-30T07:35:49.000Z</time>
      </trkpt>
      <trkpt lat="47.80508" lon="2.14269">
        <ele>88</ele>
        <time>2016-10-30T07:35:50.000Z</time>
      </trkpt>
      <trkpt lat="47.80514" lon="2.14275">
        <ele>90</ele>
        <time>2016-10-30T07:35:51.000Z</time>
      </trkpt>
      <trkpt lat="47.80521" lon="2.1428">
        <ele>90</ele>
        <time>2016-10-30T07:35:52.000Z</time>
      </trkpt>
      <trkpt lat="47.80527" lon="2.14286">
        <ele>90</ele>
        <time>2016-10-30T07:35:53.000Z</time>
      </trkpt>
      <trkpt lat="47.80533" lon="2.14292">
        <ele>90</ele>
        <time>2016-10-30T07:35:54.000Z</time>
      </trkpt>
      <trkpt lat="47.80539" lon="2.14297">
        <ele>90</ele>
        <time>2016-10-30T07:35:55.000Z</time>
      </trkpt>
      <trkpt lat="47.80545" lon="2.14303">
        <ele>90</ele>
        <time>2016-10-30T07:35:56.000Z</time>
      </trkpt>
      <trkpt lat="47.80551" lon="2.14308">
        <ele>90</ele>
        <time>2016-10-30T07:35:57.000Z</time>
      </trkpt>
      <trkpt lat="47.80556" lon="2.14314">
        <ele>91</ele>
        <time>2016-10-30T07:35:58.000Z</time>
      </trkpt>
      <trkpt lat="47.80562" lon="2.14319">
        <ele>91</ele>
        <time>2016-10-30T07:35:59.000Z</time>
      </trkpt>
      <trkpt lat="47.80568" lon="2.14325">
        <ele>91</ele>
        <time>2016-10-30T07:36:00.000Z</time>
      </trkpt>
      <trkpt lat="47.80574" lon="2.1433">
        <ele>91</ele>
        <time>2016-10-30T07:36:01.000Z</time>
      </trkpt>
      <trkpt lat="47.80579" lon="2.14336">
        <ele>91</ele>
        <time>2016-10-30T07:36:02.000Z</time>
      </trkpt>
      <trkpt lat="47.80585" lon="2.14341">
        <ele>91</ele>
        <time>2016-10-30T07:36:03.000Z</time>
      </trkpt>
      <trkpt lat="47.80591" lon="2.14347">
        <ele>91</ele>
        <time>2016-10-30T07:36:04.000Z</time>
      </trkpt>
      <trkpt lat="47.80596" lon="2.14352">
        <ele>91</ele>
        <time>2016-10-30T07:36:05.000Z</time>
      </trkpt>
      <trkpt lat="47.80602" lon="2.14358">
        <ele>91</ele>
        <time>2016-10-30T07:36:06.000Z</time>
      </trkpt>
      <trkpt lat="47.80607" lon="2.14363">
        <ele>91</ele>
        <time>2016-10-30T07:36:07.000Z</time>
      </trkpt>
      <trkpt lat="47.80613" lon="2.14369">
        <ele>91</ele>
        <time>2016-10-30T07:36:08.000Z</time>
      </trkpt>
      <trkpt lat="47.80618" lon="2.14374">
        <ele>91</ele>
        <time>2016-10-30T07:36:09.000Z</time>
      </trkpt>
      <trkpt lat="47.80624" lon="2.1438">
        <ele>92</ele>
        <time>2016-10-30T07:36:10.000Z</time>
      </trkpt>
      <trkpt lat="47.80629" lon="2.14386">
        <ele>92</ele>
        <time>2016-10-30T07:36:11.000Z</time>
      </trkpt>
      <trkpt lat="47.80634" lon="2.14392">
        <ele>92</ele>
        <time>2016-10-30T07:36:12.000Z</time>
      </trkpt>
      <trkpt lat="47.80639" lon="2.14398">
        <ele>92</ele>
        <time>2016-10-30T07:36:13.000Z</time>
      </trkpt>
      <trkpt lat="47.80644" lon="2.14404">
        <ele>92</ele>
        <time>2016-10-30T07:36:14.000Z</time>
      </trkpt>
      <trkpt lat="47.80649" lon="2.14411">
        <ele>92</ele>
        <time>2016-10-30T07:36:15.000Z</time>
      </trkpt>
      <trkpt lat="47.80654" lon="2.14418">
        <ele>92</ele>
        <time>2016-10-30T07:36:16.000Z</time>
      </trkpt>
      <trkpt lat="47.80658" lon="2.14424">
        <ele>92</ele>
        <time>2016-10-30T07:36:17.000Z</time>
      </trkpt>
      <trkpt lat="47.80663" lon="2.14431">
        <ele>93</ele>
        <time>2016-10-30T07:36:18.000Z</time>
      </trkpt>
      <trkpt lat="47.80668" lon="2.14437">
        <ele>93</ele>
        <time>2016-10-30T07:36:19.000Z</time>
      </trkpt>
      <trkpt lat="47.80672" lon="2.14443">
        <ele>93</ele>
        <time>2016-10-30T07:36:20.000Z</time>
      </trkpt>
      <trkpt lat="47.80677" lon="2.1445">
        <ele>93</ele>
        <time>2016-10-30T07:36:21.000Z</time>
      </trkpt>
      <trkpt lat="47.80681" lon="2.14456">
        <ele>93</ele>
        <time>2016-10-30T07:36:22.000Z</time>
      </trkpt>
      <trkpt lat="47.80686" lon="2.14463">
        <ele>94</ele>
        <time>2016-10-30T07:36:23.000Z</time>
      </trkpt>
      <trkpt lat="47.80691" lon="2.1447">
        <ele>94</ele>
        <time>2016-10-30T07:36:24.000Z</time>
      </trkpt>
      <trkpt lat="47.80695" lon="2.14476">
        <ele>94</ele>
        <time>2016-10-30T07:36:25.000Z</time>
      </trkpt>
      <trkpt lat="47.807" lon="2.14482">
        <ele>94</ele>
        <time>2016-10-30T07:36:26.000Z</time>
      </trkpt>
      <trkpt lat="47.80705" lon="2.14488">
        <ele>94</ele>
        <time>2016-10-30T07:36:27.000Z</time>
      </trkpt>
      <trkpt lat="47.8071" lon="2.14494">
        <ele>94</ele>
        <time>2016-10-30T07:36:28.000Z</time>
      </trkpt>
      <trkpt lat="47.80716" lon="2.145">
        <ele>94</ele>
        <time>2016-10-30T07:36:29.000Z</time>
      </trkpt>
      <trkpt lat="47.80721" lon="2.14506">
        <ele>94</ele>
        <time>2016-10-30T07:36:30.000Z</time>
      </trkpt>
      <trkpt lat="47.80726" lon="2.14512">
        <ele>94</ele>
        <time>2016-10-30T07:36:31.000Z</time>
      </trkpt>
      <trkpt lat="47.80731" lon="2.14517">
        <ele>94</ele>
        <time>2016-10-30T07:36:32.000Z</time>
      </trkpt>
      <trkpt lat="47.80737" lon="2.14522">
        <ele>94</ele>
        <time>2016-10-30T07:36:33.000Z</time>
      </trkpt>
      <trkpt lat="47.80742" lon="2.14526">
        <ele>94</ele>
        <time>2016-10-30T07:36:34.000Z</time>
      </trkpt>
      <trkpt lat="47.80748" lon="2.1453">
        <ele>94</ele>
        <time>2016-10-30T07:36:35.000Z</time>
      </trkpt>
      <trkpt lat="47.80753" lon="2.14534">
        <ele>93</ele>
        <time>2016-10-30T07:36:36.000Z</time>
      </trkpt>
      <trkpt lat="47.80759" lon="2.14537">
        <ele>93</ele>
        <time>2016-10-30T07:36:37.000Z</time>
      </trkpt>
      <trkpt lat="47.80765" lon="2.14541">
        <ele>94</ele>
        <time>2016-10-30T07:36:38.000Z</time>
      </trkpt>
      <trkpt lat="47.80771" lon="2.14544">
        <ele>94</ele>
        <time>2016-10-30T07:36:39.000Z</time>
      </trkpt>
      <trkpt lat="47.80777" lon="2.14547">
        <ele>94</ele>
        <time>2016-10-30T07:36:40.000Z</time>
      </trkpt>
      <trkpt lat="47.80783" lon="2.1455">
        <ele>94</ele>
        <time>2016-10-30T07:36:41.000Z</time>
      </trkpt>
      <trkpt lat="47.80789" lon="2.14553">
        <ele>94</ele>
        <time>2016-10-30T07:36:42.000Z</time>
      </trkpt>
      <trkpt lat="47.80795" lon="2.14556">
        <ele>94</ele>
        <time>2016-10-30T07:36:43.000Z</time>
      </trkpt>
      <trkpt lat="47.80801" lon="2.14559">
        <ele>94</ele>
        <time>2016-10-30T07:36:44.000Z</time>
      </trkpt>
      <trkpt lat="47.80806" lon="2.14561">
        <ele>94</ele>
        <time>2016-10-30T07:36:45.000Z</time>
      </trkpt>
      <trkpt lat="47.80812" lon="2.14564">
        <ele>95</ele>
        <time>2016-10-30T07:36:46.000Z</time>
      </trkpt>
      <trkpt lat="47.80818" lon="2.14567">
        <ele>95</ele>
        <time>2016-10-30T07:36:47.000Z</time>
      </trkpt>
      <trkpt lat="47.80824" lon="2.1457">
        <ele>95</ele>
        <time>2016-10-30T07:36:48.000Z</time>
      </trkpt>
      <trkpt lat="47.8083" lon="2.14573">
        <ele>95</ele>
        <time>2016-10-30T07:36:49.000Z</time>
      </trkpt>
      <trkpt lat="47.80836" lon="2.14575">
        <ele>95</ele>
        <time>2016-10-30T07:36:50.000Z</time>
      </trkpt>
      <trkpt lat="47.80842" lon="2.14578">
        <ele>96</ele>
        <time>2016-10-30T07:36:51.000Z</time>
      </trkpt>
      <trkpt lat="47.80848" lon="2.14581">
        <ele>96</ele>
        <time>2016-10-30T07:36:52.000Z</time>
      </trkpt>
      <trkpt lat="47.80853" lon="2.14583">
        <ele>96</ele>
        <time>2016-10-30T07:36:53.000Z</time>
      </trkpt>
      <trkpt lat="47.80859" lon="2.14586">
        <ele>96</ele>
        <time>2016-10-30T07:36:54.000Z</time>
      </trkpt>
      <trkpt lat="47.80865" lon="2.14589">
        <ele>97</ele>
        <time>2016-10-30T07:36:55.000Z</time>
      </trkpt>
      <trkpt lat="47.80871" lon="2.14591">
        <ele>97</ele>
        <time>2016-10-30T07:36:56.000Z</time>
      </trkpt>
      <trkpt lat="47.80877" lon="2.14594">
        <ele>97</ele>
        <time>2016-10-30T07:36:57.000Z</time>
      </trkpt>
      <trkpt lat="47.80883" lon="2.14597">
        <ele>97</ele>
        <time>2016-10-30T07:36:58.000Z</time>
      </trkpt>
      <trkpt lat="47.8089" lon="2.14599">
        <ele>97</ele>
        <time>2016-10-30T07:36:59.000Z</time>
      </trkpt>
      <trkpt lat="47.80896" lon="2.14602">
        <ele>97</ele>
        <time>2016-10-30T07:37:00.000Z</time>
      </trkpt>
      <trkpt lat="47.80902" lon="2.14605">
        <ele>97</ele>
        <time>2016-10-30T07:37:01.000Z</time>
      </trkpt>
      <trkpt lat="47.80908" lon="2.14608">
        <ele>97</ele>
        <time>2016-10-30T07:37:02.000Z</time>
      </trkpt>
      <trkpt lat="47.80914" lon="2.1461">
        <ele>97</ele>
        <time>2016-10-30T07:37:03.000Z</time>
      </trkpt>
      <trkpt lat="47.80921" lon="2.14613">
        <ele>97</ele>
        <time>2016-10-30T07:37:04.000Z</time>
      </trkpt>
      <trkpt lat="47.80927" lon="2.14616">
        <ele>97</ele>
        <time>2016-10-30T07:37:05.000Z</time>
      </trkpt>
      <trkpt lat="47.80933" lon="2.14619">
        <ele>97</ele>
        <time>2016-10-30T07:37:06.000Z</time>
      </trkpt>
      <trkpt lat="47.80939" lon="2.14621">
        <ele>97</ele>
        <time>2016-10-30T07:37:07.000Z</time>
      </trkpt>
      <trkpt lat="47.80945" lon="2.14624">
        <ele>97</ele>
        <time>2016-10-30T07:37:08.000Z</time>
      </trkpt>
      <trkpt lat="47.80951" lon="2.14627">
        <ele>97</ele>
        <time>2016-10-30T07:37:09.000Z</time>
      </trkpt>
      <trkpt lat="47.80957" lon="2.14629">
        <ele>97</ele>
        <time>2016-10-30T07:37:10.000Z</time>
      </trkpt>
      <trkpt lat="47.80962" lon="2.14632">
        <ele>98</ele>
        <time>2016-10-30T07:37:11.000Z</time>
      </trkpt>
      <trkpt lat="47.80968" lon="2.14634">
        <ele>98</ele>
        <time>2016-10-30T07:37:12.000Z</time>
      </trkpt>
      <trkpt lat="47.80974" lon="2.14636">
        <ele>98</ele>
        <time>2016-10-30T07:37:13.000Z</time>
      </trkpt>
      <trkpt lat="47.8098" lon="2.14639">
        <ele>98</ele>
        <time>2016-10-30T07:37:14.000Z</time>
      </trkpt>
      <trkpt lat="47.80985" lon="2.14641">
        <ele>98</ele>
        <time>2016-10-30T07:37:15.000Z</time>
      </trkpt>
      <trkpt lat="47.80991" lon="2.14644">
        <ele>98</ele>
        <time>2016-10-30T07:37:16.000Z</time>
      </trkpt>
      <trkpt lat="47.80997" lon="2.14646">
        <ele>98</ele>
        <time>2016-10-30T07:37:17.000Z</time>
      </trkpt>
      <trkpt lat="47.81003" lon="2.14649">
        <ele>98</ele>
        <time>2016-10-30T07:37:18.000Z</time>
      </trkpt>
      <trkpt lat="47.81008" lon="2.14651">
        <ele>98</ele>
        <time>2016-10-30T07:37:19.000Z</time>
      </trkpt>
      <trkpt lat="47.81014" lon="2.14653">
        <ele>98</ele>
        <time>2016-10-30T07:37:20.000Z</time>
      </trkpt>
      <trkpt lat="47.81019" lon="2.14656">
        <ele>98</ele>
        <time>2016-10-30T07:37:21.000Z</time>
      </trkpt>
      <trkpt lat="47.81025" lon="2.14658">
        <ele>98</ele>
        <time>2016-10-30T07:37:22.000Z</time>
      </trkpt>
      <trkpt lat="47.81031" lon="2.1466">
        <ele>98</ele>
        <time>2016-10-30T07:37:23.000Z</time>
      </trkpt>
      <trkpt lat="47.81037" lon="2.14663">
        <ele>98</ele>
        <time>2016-10-30T07:37:24.000Z</time>
      </trkpt>
      <trkpt lat="47.81042" lon="2.14665">
        <ele>98</ele>
        <time>2016-10-30T07:37:25.000Z</time>
      </trkpt>
      <trkpt lat="47.81048" lon="2.14668">
        <ele>98</ele>
        <time>2016-10-30T07:37:26.000Z</time>
      </trkpt>
      <trkpt lat="47.81053" lon="2.1467">
        <ele>98</ele>
        <time>2016-10-30T07:37:27.000Z</time>
      </trkpt>
      <trkpt lat="47.81059" lon="2.14673">
        <ele>99</ele>
        <time>2016-10-30T07:37:28.000Z</time>
      </trkpt>
      <trkpt lat="47.81064" lon="2.14675">
        <ele>99</ele>
        <time>2016-10-30T07:37:29.000Z</time>
      </trkpt>
      <trkpt lat="47.8107" lon="2.14678">
        <ele>99</ele>
        <time>2016-10-30T07:37:30.000Z</time>
      </trkpt>
      <trkpt lat="47.81076" lon="2.1468">
        <ele>99</ele>
        <time>2016-10-30T07:37:31.000Z</time>
      </trkpt>
      <trkpt lat="47.81082" lon="2.14683">
        <ele>99</ele>
        <time>2016-10-30T07:37:32.000Z</time>
      </trkpt>
      <trkpt lat="47.81088" lon="2.14685">
        <ele>99</ele>
        <time>2016-10-30T07:37:33.000Z</time>
      </trkpt>
      <trkpt lat="47.81093" lon="2.14688">
        <ele>99</ele>
        <time>2016-10-30T07:37:34.000Z</time>
      </trkpt>
      <trkpt lat="47.81099" lon="2.1469">
        <ele>99</ele>
        <time>2016-10-30T07:37:35.000Z</time>
      </trkpt>
      <trkpt lat="47.81105" lon="2.14693">
        <ele>99</ele>
        <time>2016-10-30T07:37:36.000Z</time>
      </trkpt>
      <trkpt lat="47.81111" lon="2.14695">
        <ele>99</ele>
        <time>2016-10-30T07:37:37.000Z</time>
      </trkpt>
      <trkpt lat="47.81116" lon="2.14698">
        <ele>99</ele>
        <time>2016-10-30T07:37:38.000Z</time>
      </trkpt>
      <trkpt lat="47.81122" lon="2.147">
        <ele>99</ele>
        <time>2016-10-30T07:37:39.000Z</time>
      </trkpt>
      <trkpt lat="47.81128" lon="2.14703">
        <ele>99</ele>
        <time>2016-10-30T07:37:40.000Z</time>
      </trkpt>
      <trkpt lat="47.81133" lon="2.14705">
        <ele>98</ele>
        <time>2016-10-30T07:37:41.000Z</time>
      </trkpt>
      <trkpt lat="47.81139" lon="2.14707">
        <ele>98</ele>
        <time>2016-10-30T07:37:42.000Z</time>
      </trkpt>
      <trkpt lat="47.81144" lon="2.1471">
        <ele>98</ele>
        <time>2016-10-30T07:37:43.000Z</time>
      </trkpt>
      <trkpt lat="47.81149" lon="2.14712">
        <ele>98</ele>
        <time>2016-10-30T07:37:44.000Z</time>
      </trkpt>
      <trkpt lat="47.81154" lon="2.14714">
        <ele>98</ele>
        <time>2016-10-30T07:37:45.000Z</time>
      </trkpt>
      <trkpt lat="47.81158" lon="2.14716">
        <ele>98</ele>
        <time>2016-10-30T07:37:46.000Z</time>
      </trkpt>
      <trkpt lat="47.81163" lon="2.14718">
        <ele>98</ele>
        <time>2016-10-30T07:37:47.000Z</time>
      </trkpt>
      <trkpt lat="47.81167" lon="2.1472">
        <ele>98</ele>
        <time>2016-10-30T07:37:48.000Z</time>
      </trkpt>
      <trkpt lat="47.81171" lon="2.14722">
        <ele>98</ele>
        <time>2016-10-30T07:37:49.000Z</time>
      </trkpt>
      <trkpt lat="47.81175" lon="2.14723">
        <ele>98</ele>
        <time>2016-10-30T07:37:50.000Z</time>
      </trkpt>
      <trkpt lat="47.81179" lon="2.14722">
        <ele>99</ele>
        <time>2016-10-30T07:37:51.000Z</time>
      </trkpt>
      <trkpt lat="47.81183" lon="2.1472">
        <ele>100</ele>
        <time>2016-10-30T07:37:52.000Z</time>
      </trkpt>
      <trkpt lat="47.81186" lon="2.14716">
        <ele>99</ele>
        <time>2016-10-30T07:37:53.000Z</time>
      </trkpt>
      <trkpt lat="47.81188" lon="2.14711">
        <ele>98</ele>
        <time>2016-10-30T07:37:54.000Z</time>
      </trkpt>
      <trkpt lat="47.8119" lon="2.14704">
        <ele>98</ele>
        <time>2016-10-30T07:37:55.000Z</time>
      </trkpt>
      <trkpt lat="47.81191" lon="2.14697">
        <ele>98</ele>
        <time>2016-10-30T07:37:56.000Z</time>
      </trkpt>
      <trkpt lat="47.81193" lon="2.14689">
        <ele>97</ele>
        <time>2016-10-30T07:37:57.000Z</time>
      </trkpt>
      <trkpt lat="47.81195" lon="2.14682">
        <ele>97</ele>
        <time>2016-10-30T07:37:58.000Z</time>
      </trkpt>
      <trkpt lat="47.81197" lon="2.14674">
        <ele>97</ele>
        <time>2016-10-30T07:37:59.000Z</time>
      </trkpt>
      <trkpt lat="47.81199" lon="2.14666">
        <ele>97</ele>
        <time>2016-10-30T07:38:00.000Z</time>
      </trkpt>
      <trkpt lat="47.81201" lon="2.14658">
        <ele>96</ele>
        <time>2016-10-30T07:38:01.000Z</time>
      </trkpt>
      <trkpt lat="47.81203" lon="2.1465">
        <ele>96</ele>
        <time>2016-10-30T07:38:02.000Z</time>
      </trkpt>
      <trkpt lat="47.81205" lon="2.14642">
        <ele>96</ele>
        <time>2016-10-30T07:38:03.000Z</time>
      </trkpt>
      <trkpt lat="47.81207" lon="2.14633">
        <ele>95</ele>
        <time>2016-10-30T07:38:04.000Z</time>
      </trkpt>
      <trkpt lat="47.8121" lon="2.14625">
        <ele>95</ele>
        <time>2016-10-30T07:38:05.000Z</time>
      </trkpt>
      <trkpt lat="47.81212" lon="2.14617">
        <ele>95</ele>
        <time>2016-10-30T07:38:06.000Z</time>
      </trkpt>
      <trkpt lat="47.81214" lon="2.14608">
        <ele>95</ele>
        <time>2016-10-30T07:38:07.000Z</time>
      </trkpt>
      <trkpt lat="47.81216" lon="2.146">
        <ele>95</ele>
        <time>2016-10-30T07:38:08.000Z</time>
      </trkpt>
      <trkpt lat="47.81218" lon="2.14591">
        <ele>95</ele>
        <time>2016-10-30T07:38:09.000Z</time>
      </trkpt>
      <trkpt lat="47.8122" lon="2.14583">
        <ele>95</ele>
        <time>2016-10-30T07:38:10.000Z</time>
      </trkpt>
      <trkpt lat="47.81222" lon="2.14574">
        <ele>95</ele>
        <time>2016-10-30T07:38:11.000Z</time>
      </trkpt>
      <trkpt lat="47.81224" lon="2.14566">
        <ele>95</ele>
        <time>2016-10-30T07:38:12.000Z</time>
      </trkpt>
      <trkpt lat="47.81226" lon="2.14557">
        <ele>94</ele>
        <time>2016-10-30T07:38:13.000Z</time>
      </trkpt>
      <trkpt lat="47.81228" lon="2.14549">
        <ele>94</ele>
        <time>2016-10-30T07:38:14.000Z</time>
      </trkpt>
      <trkpt lat="47.81231" lon="2.1454">
        <ele>94</ele>
        <time>2016-10-30T07:38:15.000Z</time>
      </trkpt>
      <trkpt lat="47.81233" lon="2.14532">
        <ele>94</ele>
        <time>2016-10-30T07:38:16.000Z</time>
      </trkpt>
      <trkpt lat="47.81235" lon="2.14524">
        <ele>94</ele>
        <time>2016-10-30T07:38:17.000Z</time>
      </trkpt>
      <trkpt lat="47.81237" lon="2.14515">
        <ele>94</ele>
        <time>2016-10-30T07:38:18.000Z</time>
      </trkpt>
      <trkpt lat="47.81239" lon="2.14507">
        <ele>94</ele>
        <time>2016-10-30T07:38:19.000Z</time>
      </trkpt>
      <trkpt lat="47.81241" lon="2.14499">
        <ele>94</ele>
        <time>2016-10-30T07:38:20.000Z</time>
      </trkpt>
      <trkpt lat="47.81243" lon="2.1449">
        <ele>94</ele>
        <time>2016-10-30T07:38:21.000Z</time>
      </trkpt>
      <trkpt lat="47.81246" lon="2.14482">
        <ele>94</ele>
        <time>2016-10-30T07:38:22.000Z</time>
      </trkpt>
      <trkpt lat="47.81248" lon="2.14474">
        <ele>94</ele>
        <time>2016-10-30T07:38:23.000Z</time>
      </trkpt>
      <trkpt lat="47.8125" lon="2.14466">
        <ele>94</ele>
        <time>2016-10-30T07:38:24.000Z</time>
      </trkpt>
      <trkpt lat="47.81252" lon="2.14457">
        <ele>94</ele>
        <time>2016-10-30T07:38:25.000Z</time>
      </trkpt>
      <trkpt lat="47.81254" lon="2.14449">
        <ele>94</ele>
        <time>2016-10-30T07:38:26.000Z</time>
      </trkpt>
      <trkpt lat="47.81256" lon="2.1444">
        <ele>94</ele>
        <time>2016-10-30T07:38:27.000Z</time>
      </trkpt>
      <trkpt lat="47.81258" lon="2.14432">
        <ele>94</ele>
        <time>2016-10-30T07:38:28.000Z</time>
      </trkpt>
      <trkpt lat="47.8126" lon="2.14424">
        <ele>94</ele>
        <time>2016-10-30T07:38:29.000Z</time>
      </trkpt>
      <trkpt lat="47.81262" lon="2.14415">
        <ele>94</ele>
        <time>2016-10-30T07:38:30.000Z</time>
      </trkpt>
      <trkpt lat="47.81264" lon="2.14407">
        <ele>94</ele>
        <time>2016-10-30T07:38:31.000Z</time>
      </trkpt>
      <trkpt lat="47.81266" lon="2.14399">
        <ele>94</ele>
        <time>2016-10-30T07:38:32.000Z</time>
      </trkpt>
      <trkpt lat="47.81268" lon="2.1439">
        <ele>94</ele>
        <time>2016-10-30T07:38:33.000Z</time>
      </trkpt>
      <trkpt lat="47.8127" lon="2.14382">
        <ele>94</ele>
        <time>2016-10-30T07:38:34.000Z</time>
      </trkpt>
      <trkpt lat="47.81272" lon="2.14374">
        <ele>94</ele>
        <time>2016-10-30T07:38:35.000Z</time>
      </trkpt>
      <trkpt lat="47.81274" lon="2.14366">
        <ele>94</ele>
        <time>2016-10-30T07:38:36.000Z</time>
      </trkpt>
      <trkpt lat="47.81277" lon="2.14357">
        <ele>94</ele>
        <time>2016-10-30T07:38:37.000Z</time>
      </trkpt>
      <trkpt lat="47.81279" lon="2.14349">
        <ele>94</ele>
        <time>2016-10-30T07:38:38.000Z</time>
      </trkpt>
      <trkpt lat="47.81281" lon="2.1434">
        <ele>94</ele>
        <time>2016-10-30T07:38:39.000Z</time>
      </trkpt>
      <trkpt lat="47.81283" lon="2.14332">
        <ele>94</ele>
        <time>2016-10-30T07:38:40.000Z</time>
      </trkpt>
      <trkpt lat="47.81285" lon="2.14323">
        <ele>94</ele>
        <time>2016-10-30T07:38:41.000Z</time>
      </trkpt>
      <trkpt lat="47.81287" lon="2.14315">
        <ele>94</ele>
        <time>2016-10-30T07:38:42.000Z</time>
      </trkpt>
      <trkpt lat="47.81289" lon="2.14306">
        <ele>94</ele>
        <time>2016-10-30T07:38:43.000Z</time>
      </trkpt>
      <trkpt lat="47.81291" lon="2.14298">
        <ele>94</ele>
        <time>2016-10-30T07:38:44.000Z</time>
      </trkpt>
      <trkpt lat="47.81293" lon="2.14289">
        <ele>94</ele>
        <time>2016-10-30T07:38:45.000Z</time>
      </trkpt>
      <trkpt lat="47.81295" lon="2.14281">
        <ele>94</ele>
        <time>2016-10-30T07:38:46.000Z</time>
      </trkpt>
      <trkpt lat="47.81297" lon="2.14273">
        <ele>94</ele>
        <time>2016-10-30T07:38:47.000Z</time>
      </trkpt>
      <trkpt lat="47.81299" lon="2.14265">
        <ele>95</ele>
        <time>2016-10-30T07:38:48.000Z</time>
      </trkpt>
      <trkpt lat="47.81302" lon="2.14257">
        <ele>95</ele>
        <time>2016-10-30T07:38:49.000Z</time>
      </trkpt>
      <trkpt lat="47.81304" lon="2.14249">
        <ele>95</ele>
        <time>2016-10-30T07:38:50.000Z</time>
      </trkpt>
      <trkpt lat="47.81306" lon="2.14241">
        <ele>95</ele>
        <time>2016-10-30T07:38:51.000Z</time>
      </trkpt>
      <trkpt lat="47.81308" lon="2.14233">
        <ele>95</ele>
        <time>2016-10-30T07:38:52.000Z</time>
      </trkpt>
      <trkpt lat="47.8131" lon="2.14224">
        <ele>95</ele>
        <time>2016-10-30T07:38:53.000Z</time>
      </trkpt>
      <trkpt lat="47.81312" lon="2.14216">
        <ele>95</ele>
        <time>2016-10-30T07:38:54.000Z</time>
      </trkpt>
      <trkpt lat="47.81314" lon="2.14208">
        <ele>95</ele>
        <time>2016-10-30T07:38:55.000Z</time>
      </trkpt>
      <trkpt lat="47.81316" lon="2.142">
        <ele>95</ele>
        <time>2016-10-30T07:38:56.000Z</time>
      </trkpt>
      <trkpt lat="47.81318" lon="2.14192">
        <ele>95</ele>
        <time>2016-10-30T07:38:57.000Z</time>
      </trkpt>
      <trkpt lat="47.8132" lon="2.14184">
        <ele>95</ele>
        <time>2016-10-30T07:38:58.000Z</time>
      </trkpt>
      <trkpt lat="47.81322" lon="2.14176">
        <ele>95</ele>
        <time>2016-10-30T07:38:59.000Z</time>
      </trkpt>
      <trkpt lat="47.81324" lon="2.14168">
        <ele>96</ele>
        <time>2016-10-30T07:39:00.000Z</time>
      </trkpt>
      <trkpt lat="47.81326" lon="2.1416">
        <ele>96</ele>
        <time>2016-10-30T07:39:01.000Z</time>
      </trkpt>
      <trkpt lat="47.81328" lon="2.14152">
        <ele>96</ele>
        <time>2016-10-30T07:39:02.000Z</time>
      </trkpt>
      <trkpt lat="47.8133" lon="2.14144">
        <ele>96</ele>
        <time>2016-10-30T07:39:03.000Z</time>
      </trkpt>
      <trkpt lat="47.81332" lon="2.14136">
        <ele>96</ele>
        <time>2016-10-30T07:39:04.000Z</time>
      </trkpt>
      <trkpt lat="47.81334" lon="2.14128">
        <ele>97</ele>
        <time>2016-10-30T07:39:05.000Z</time>
      </trkpt>
      <trkpt lat="47.81336" lon="2.1412">
        <ele>97</ele>
        <time>2016-10-30T07:39:06.000Z</time>
      </trkpt>
      <trkpt lat="47.81339" lon="2.14112">
        <ele>97</ele>
        <time>2016-10-30T07:39:07.000Z</time>
      </trkpt>
      <trkpt lat="47.81341" lon="2.14104">
        <ele>97</ele>
        <time>2016-10-30T07:39:08.000Z</time>
      </trkpt>
      <trkpt lat="47.81343" lon="2.14096">
        <ele>97</ele>
        <time>2016-10-30T07:39:09.000Z</time>
      </trkpt>
      <trkpt lat="47.81345" lon="2.14089">
        <ele>97</ele>
        <time>2016-10-30T07:39:10.000Z</time>
      </trkpt>
      <trkpt lat="47.81346" lon="2.14081">
        <ele>97</ele>
        <time>2016-10-30T07:39:11.000Z</time>
      </trkpt>
      <trkpt lat="47.81348" lon="2.14073">
        <ele>97</ele>
        <time>2016-10-30T07:39:12.000Z</time>
      </trkpt>
      <trkpt lat="47.8135" lon="2.14066">
        <ele>97</ele>
        <time>2016-10-30T07:39:13.000Z</time>
      </trkpt>
      <trkpt lat="47.81352" lon="2.14058">
        <ele>97</ele>
        <time>2016-10-30T07:39:14.000Z</time>
      </trkpt>
      <trkpt lat="47.81354" lon="2.14051">
        <ele>98</ele>
        <time>2016-10-30T07:39:15.000Z</time>
      </trkpt>
      <trkpt lat="47.81356" lon="2.14043">
        <ele>98</ele>
        <time>2016-10-30T07:39:16.000Z</time>
      </trkpt>
      <trkpt lat="47.81357" lon="2.14036">
        <ele>98</ele>
        <time>2016-10-30T07:39:17.000Z</time>
      </trkpt>
      <trkpt lat="47.81359" lon="2.14028">
        <ele>98</ele>
        <time>2016-10-30T07:39:18.000Z</time>
      </trkpt>
      <trkpt lat="47.81361" lon="2.14021">
        <ele>98</ele>
        <time>2016-10-30T07:39:19.000Z</time>
      </trkpt>
      <trkpt lat="47.81363" lon="2.14014">
        <ele>98</ele>
        <time>2016-10-30T07:39:20.000Z</time>
      </trkpt>
      <trkpt lat="47.81365" lon="2.14007">
        <ele>98</ele>
        <time>2016-10-30T07:39:21.000Z</time>
      </trkpt>
      <trkpt lat="47.81366" lon="2.14">
        <ele>98</ele>
        <time>2016-10-30T07:39:22.000Z</time>
      </trkpt>
      <trkpt lat="47.81368" lon="2.13994">
        <ele>98</ele>
        <time>2016-10-30T07:39:23.000Z</time>
      </trkpt>
      <trkpt lat="47.8137" lon="2.13987">
        <ele>98</ele>
        <time>2016-10-30T07:39:24.000Z</time>
      </trkpt>
      <trkpt lat="47.81372" lon="2.1398">
        <ele>98</ele>
        <time>2016-10-30T07:39:25.000Z</time>
      </trkpt>
      <trkpt lat="47.81373" lon="2.13974">
        <ele>98</ele>
        <time>2016-10-30T07:39:26.000Z</time>
      </trkpt>
      <trkpt lat="47.81375" lon="2.13967">
        <ele>98</ele>
        <time>2016-10-30T07:39:27.000Z</time>
      </trkpt>
      <trkpt lat="47.81377" lon="2.13961">
        <ele>98</ele>
        <time>2016-10-30T07:39:28.000Z</time>
      </trkpt>
      <trkpt lat="47.81378" lon="2.13954">
        <ele>98</ele>
        <time>2016-10-30T07:39:29.000Z</time>
      </trkpt>
      <trkpt lat="47.8138" lon="2.13948">
        <ele>98</ele>
        <time>2016-10-30T07:39:30.000Z</time>
      </trkpt>
      <trkpt lat="47.81382" lon="2.13941">
        <ele>98</ele>
        <time>2016-10-30T07:39:31.000Z</time>
      </trkpt>
      <trkpt lat="47.81383" lon="2.13933">
        <ele>98</ele>
        <time>2016-10-30T07:39:32.000Z</time>
      </trkpt>
      <trkpt lat="47.81385" lon="2.13926">
        <ele>98</ele>
        <time>2016-10-30T07:39:33.000Z</time>
      </trkpt>
      <trkpt lat="47.81387" lon="2.13919">
        <ele>98</ele>
        <time>2016-10-30T07:39:34.000Z</time>
      </trkpt>
      <trkpt lat="47.81389" lon="2.13911">
        <ele>98</ele>
        <time>2016-10-30T07:39:35.000Z</time>
      </trkpt>
      <trkpt lat="47.81391" lon="2.13904">
        <ele>98</ele>
        <time>2016-10-30T07:39:36.000Z</time>
      </trkpt>
      <trkpt lat="47.81393" lon="2.13896">
        <ele>98</ele>
        <time>2016-10-30T07:39:37.000Z</time>
      </trkpt>
      <trkpt lat="47.81395" lon="2.13888">
        <ele>98</ele>
        <time>2016-10-30T07:39:38.000Z</time>
      </trkpt>
      <trkpt lat="47.81397" lon="2.13881">
        <ele>98</ele>
        <time>2016-10-30T07:39:39.000Z</time>
      </trkpt>
      <trkpt lat="47.81399" lon="2.13873">
        <ele>99</ele>
        <time>2016-10-30T07:39:40.000Z</time>
      </trkpt>
      <trkpt lat="47.81401" lon="2.13865">
        <ele>99</ele>
        <time>2016-10-30T07:39:41.000Z</time>
      </trkpt>
      <trkpt lat="47.81403" lon="2.13857">
        <ele>98</ele>
        <time>2016-10-30T07:39:42.000Z</time>
      </trkpt>
      <trkpt lat="47.81404" lon="2.1385">
        <ele>99</ele>
        <time>2016-10-30T07:39:43.000Z</time>
      </trkpt>
      <trkpt lat="47.81406" lon="2.13842">
        <ele>99</ele>
        <time>2016-10-30T07:39:44.000Z</time>
      </trkpt>
      <trkpt lat="47.81408" lon="2.13835">
        <ele>99</ele>
        <time>2016-10-30T07:39:45.000Z</time>
      </trkpt>
      <trkpt lat="47.81409" lon="2.13828">
        <ele>99</ele>
        <time>2016-10-30T07:39:46.000Z</time>
      </trkpt>
      <trkpt lat="47.81411" lon="2.13821">
        <ele>99</ele>
        <time>2016-10-30T07:39:47.000Z</time>
      </trkpt>
      <trkpt lat="47.81412" lon="2.13815">
        <ele>99</ele>
        <time>2016-10-30T07:39:48.000Z</time>
      </trkpt>
      <trkpt lat="47.81414" lon="2.13808">
        <ele>99</ele>
        <time>2016-10-30T07:39:49.000Z</time>
      </trkpt>
      <trkpt lat="47.81416" lon="2.13803">
        <ele>99</ele>
        <time>2016-10-30T07:39:50.000Z</time>
      </trkpt>
      <trkpt lat="47.81418" lon="2.13799">
        <ele>99</ele>
        <time>2016-10-30T07:39:51.000Z</time>
      </trkpt>
      <trkpt lat="47.81421" lon="2.13796">
        <ele>99</ele>
        <time>2016-10-30T07:39:52.000Z</time>
      </trkpt>
      <trkpt lat="47.81424" lon="2.13796">
        <ele>99</ele>
        <time>2016-10-30T07:39:53.000Z</time>
      </trkpt>
      <trkpt lat="47.81428" lon="2.13798">
        <ele>99</ele>
        <time>2016-10-30T07:39:54.000Z</time>
      </trkpt>
      <trkpt lat="47.81432" lon="2.13801">
        <ele>99</ele>
        <time>2016-10-30T07:39:55.000Z</time>
      </trkpt>
      <trkpt lat="47.81436" lon="2.13803">
        <ele>99</ele>
        <time>2016-10-30T07:39:56.000Z</time>
      </trkpt>
      <trkpt lat="47.8144" lon="2.13806">
        <ele>99</ele>
        <time>2016-10-30T07:39:57.000Z</time>
      </trkpt>
      <trkpt lat="47.81445" lon="2.13809">
        <ele>99</ele>
        <time>2016-10-30T07:39:58.000Z</time>
      </trkpt>
      <trkpt lat="47.81449" lon="2.13812">
        <ele>99</ele>
        <time>2016-10-30T07:39:59.000Z</time>
      </trkpt>
      <trkpt lat="47.81454" lon="2.13815">
        <ele>99</ele>
        <time>2016-10-30T07:40:00.000Z</time>
      </trkpt>
      <trkpt lat="47.81459" lon="2.13818">
        <ele>99</ele>
        <time>2016-10-30T07:40:01.000Z</time>
      </trkpt>
      <trkpt lat="47.81464" lon="2.13821">
        <ele>99</ele>
        <time>2016-10-30T07:40:02.000Z</time>
      </trkpt>
      <trkpt lat="47.81468" lon="2.13824">
        <ele>99</ele>
        <time>2016-10-30T07:40:03.000Z</time>
      </trkpt>
      <trkpt lat="47.81473" lon="2.13827">
        <ele>99</ele>
        <time>2016-10-30T07:40:04.000Z</time>
      </trkpt>
      <trkpt lat="47.81478" lon="2.1383">
        <ele>99</ele>
        <time>2016-10-30T07:40:05.000Z</time>
      </trkpt>
      <trkpt lat="47.81483" lon="2.13833">
        <ele>99</ele>
        <time>2016-10-30T07:40:06.000Z</time>
      </trkpt>
      <trkpt lat="47.81488" lon="2.13837">
        <ele>99</ele>
        <time>2016-10-30T07:40:07.000Z</time>
      </trkpt>
      <trkpt lat="47.81494" lon="2.1384">
        <ele>99</ele>
        <time>2016-10-30T07:40:08.000Z</time>
      </trkpt>
      <trkpt lat="47.81499" lon="2.13843">
        <ele>99</ele>
        <time>2016-10-30T07:40:09.000Z</time>
      </trkpt>
      <trkpt lat="47.81504" lon="2.13846">
        <ele>99</ele>
        <time>2016-10-30T07:40:10.000Z</time>
      </trkpt>
      <trkpt lat="47.81509" lon="2.1385">
        <ele>99</ele>
        <time>2016-10-30T07:40:11.000Z</time>
      </trkpt>
      <trkpt lat="47.81514" lon="2.13853">
        <ele>99</ele>
        <time>2016-10-30T07:40:12.000Z</time>
      </trkpt>
      <trkpt lat="47.81519" lon="2.13856">
        <ele>99</ele>
        <time>2016-10-30T07:40:13.000Z</time>
      </trkpt>
      <trkpt lat="47.81524" lon="2.1386">
        <ele>99</ele>
        <time>2016-10-30T07:40:14.000Z</time>
      </trkpt>
      <trkpt lat="47.81529" lon="2.13863">
        <ele>99</ele>
        <time>2016-10-30T07:40:15.000Z</time>
      </trkpt>
      <trkpt lat="47.81534" lon="2.13866">
        <ele>99</ele>
        <time>2016-10-30T07:40:16.000Z</time>
      </trkpt>
      <trkpt lat="47.8154" lon="2.13869">
        <ele>100</ele>
        <time>2016-10-30T07:40:17.000Z</time>
      </trkpt>
      <trkpt lat="47.81545" lon="2.13873">
        <ele>99</ele>
        <time>2016-10-30T07:40:18.000Z</time>
      </trkpt>
      <trkpt lat="47.8155" lon="2.13876">
        <ele>99</ele>
        <time>2016-10-30T07:40:19.000Z</time>
      </trkpt>
      <trkpt lat="47.81555" lon="2.13879">
        <ele>99</ele>
        <time>2016-10-30T07:40:20.000Z</time>
      </trkpt>
      <trkpt lat="47.8156" lon="2.13882">
        <ele>99</ele>
        <time>2016-10-30T07:40:21.000Z</time>
      </trkpt>
      <trkpt lat="47.81565" lon="2.13886">
        <ele>100</ele>
        <time>2016-10-30T07:40:22.000Z</time>
      </trkpt>
      <trkpt lat="47.81571" lon="2.13889">
        <ele>99</ele>
        <time>2016-10-30T07:40:23.000Z</time>
      </trkpt>
      <trkpt lat="47.81576" lon="2.13892">
        <ele>99</ele>
        <time>2016-10-30T07:40:24.000Z</time>
      </trkpt>
      <trkpt lat="47.81581" lon="2.13896">
        <ele>99</ele>
        <time>2016-10-30T07:40:25.000Z</time>
      </trkpt>
      <trkpt lat="47.81586" lon="2.139">
        <ele>99</ele>
        <time>2016-10-30T07:40:26.000Z</time>
      </trkpt>
      <trkpt lat="47.81591" lon="2.13903">
        <ele>99</ele>
        <time>2016-10-30T07:40:27.000Z</time>
      </trkpt>
      <trkpt lat="47.81596" lon="2.13907">
        <ele>99</ele>
        <time>2016-10-30T07:40:28.000Z</time>
      </trkpt>
      <trkpt lat="47.81601" lon="2.1391">
        <ele>99</ele>
        <time>2016-10-30T07:40:29.000Z</time>
      </trkpt>
      <trkpt lat="47.81606" lon="2.13913">
        <ele>99</ele>
        <time>2016-10-30T07:40:30.000Z</time>
      </trkpt>
      <trkpt lat="47.81611" lon="2.13916">
        <ele>99</ele>
        <time>2016-10-30T07:40:31.000Z</time>
      </trkpt>
      <trkpt lat="47.81616" lon="2.1392">
        <ele>99</ele>
        <time>2016-10-30T07:40:32.000Z</time>
      </trkpt>
      <trkpt lat="47.81621" lon="2.13923">
        <ele>99</ele>
        <time>2016-10-30T07:40:33.000Z</time>
      </trkpt>
      <trkpt lat="47.81626" lon="2.13926">
        <ele>99</ele>
        <time>2016-10-30T07:40:34.000Z</time>
      </trkpt>
      <trkpt lat="47.8163" lon="2.1393">
        <ele>99</ele>
        <time>2016-10-30T07:40:35.000Z</time>
      </trkpt>
      <trkpt lat="47.81635" lon="2.13933">
        <ele>98</ele>
        <time>2016-10-30T07:40:36.000Z</time>
      </trkpt>
      <trkpt lat="47.8164" lon="2.13936">
        <ele>99</ele>
        <time>2016-10-30T07:40:37.000Z</time>
      </trkpt>
      <trkpt lat="47.81645" lon="2.13939">
        <ele>99</ele>
        <time>2016-10-30T07:40:38.000Z</time>
      </trkpt>
      <trkpt lat="47.81649" lon="2.13942">
        <ele>99</ele>
        <time>2016-10-30T07:40:39.000Z</time>
      </trkpt>
      <trkpt lat="47.81654" lon="2.13945">
        <ele>99</ele>
        <time>2016-10-30T07:40:40.000Z</time>
      </trkpt>
      <trkpt lat="47.81659" lon="2.13947">
        <ele>99</ele>
        <time>2016-10-30T07:40:41.000Z</time>
      </trkpt>
      <trkpt lat="47.81664" lon="2.1395">
        <ele>99</ele>
        <time>2016-10-30T07:40:42.000Z</time>
      </trkpt>
      <trkpt lat="47.81668" lon="2.13954">
        <ele>99</ele>
        <time>2016-10-30T07:40:43.000Z</time>
      </trkpt>
      <trkpt lat="47.81673" lon="2.13957">
        <ele>99</ele>
        <time>2016-10-30T07:40:44.000Z</time>
      </trkpt>
      <trkpt lat="47.81678" lon="2.1396">
        <ele>99</ele>
        <time>2016-10-30T07:40:45.000Z</time>
      </trkpt>
      <trkpt lat="47.81683" lon="2.13963">
        <ele>99</ele>
        <time>2016-10-30T07:40:46.000Z</time>
      </trkpt>
      <trkpt lat="47.81688" lon="2.13966">
        <ele>99</ele>
        <time>2016-10-30T07:40:47.000Z</time>
      </trkpt>
      <trkpt lat="47.81693" lon="2.1397">
        <ele>99</ele>
        <time>2016-10-30T07:40:48.000Z</time>
      </trkpt>
      <trkpt lat="47.81698" lon="2.13973">
        <ele>99</ele>
        <time>2016-10-30T07:40:49.000Z</time>
      </trkpt>
      <trkpt lat="47.81703" lon="2.13976">
        <ele>99</ele>
        <time>2016-10-30T07:40:50.000Z</time>
      </trkpt>
      <trkpt lat="47.81709" lon="2.13979">
        <ele>99</ele>
        <time>2016-10-30T07:40:51.000Z</time>
      </trkpt>
      <trkpt lat="47.81714" lon="2.13983">
        <ele>99</ele>
        <time>2016-10-30T07:40:52.000Z</time>
      </trkpt>
      <trkpt lat="47.81719" lon="2.13986">
        <ele>99</ele>
        <time>2016-10-30T07:40:53.000Z</time>
      </trkpt>
      <trkpt lat="47.81724" lon="2.1399">
        <ele>99</ele>
        <time>2016-10-30T07:40:54.000Z</time>
      </trkpt>
      <trkpt lat="47.8173" lon="2.13993">
        <ele>99</ele>
        <time>2016-10-30T07:40:55.000Z</time>
      </trkpt>
      <trkpt lat="47.81735" lon="2.13996">
        <ele>99</ele>
        <time>2016-10-30T07:40:56.000Z</time>
      </trkpt>
      <trkpt lat="47.8174" lon="2.13999">
        <ele>100</ele>
        <time>2016-10-30T07:40:57.000Z</time>
      </trkpt>
      <trkpt lat="47.81745" lon="2.14003">
        <ele>99</ele>
        <time>2016-10-30T07:40:58.000Z</time>
      </trkpt>
      <trkpt lat="47.8175" lon="2.14006">
        <ele>99</ele>
        <time>2016-10-30T07:40:59.000Z</time>
      </trkpt>
      <trkpt lat="47.81755" lon="2.14009">
        <ele>99</ele>
        <time>2016-10-30T07:41:00.000Z</time>
      </trkpt>
      <trkpt lat="47.81759" lon="2.14012">
        <ele>99</ele>
        <time>2016-10-30T07:41:01.000Z</time>
      </trkpt>
      <trkpt lat="47.81764" lon="2.14015">
        <ele>99</ele>
        <time>2016-10-30T07:41:02.000Z</time>
      </trkpt>
      <trkpt lat="47.81769" lon="2.14018">
        <ele>99</ele>
        <time>2016-10-30T07:41:03.000Z</time>
      </trkpt>
      <trkpt lat="47.81774" lon="2.14021">
        <ele>99</ele>
        <time>2016-10-30T07:41:04.000Z</time>
      </trkpt>
      <trkpt lat="47.81779" lon="2.14025">
        <ele>99</ele>
        <time>2016-10-30T07:41:05.000Z</time>
      </trkpt>
      <trkpt lat="47.81784" lon="2.14028">
        <ele>98</ele>
        <time>2016-10-30T07:41:06.000Z</time>
      </trkpt>
      <trkpt lat="47.81788" lon="2.14031">
        <ele>98</ele>
        <time>2016-10-30T07:41:07.000Z</time>
      </trkpt>
      <trkpt lat="47.81793" lon="2.14034">
        <ele>98</ele>
        <time>2016-10-30T07:41:08.000Z</time>
      </trkpt>
      <trkpt lat="47.81798" lon="2.14037">
        <ele>98</ele>
        <time>2016-10-30T07:41:09.000Z</time>
      </trkpt>
      <trkpt lat="47.81803" lon="2.14041">
        <ele>98</ele>
        <time>2016-10-30T07:41:10.000Z</time>
      </trkpt>
      <trkpt lat="47.81808" lon="2.14044">
        <ele>98</ele>
        <time>2016-10-30T07:41:11.000Z</time>
      </trkpt>
      <trkpt lat="47.81813" lon="2.14047">
        <ele>98</ele>
        <time>2016-10-30T07:41:12.000Z</time>
      </trkpt>
      <trkpt lat="47.81818" lon="2.1405">
        <ele>98</ele>
        <time>2016-10-30T07:41:13.000Z</time>
      </trkpt>
      <trkpt lat="47.81824" lon="2.14054">
        <ele>99</ele>
        <time>2016-10-30T07:41:14.000Z</time>
      </trkpt>
      <trkpt lat="47.81829" lon="2.14057">
        <ele>99</ele>
        <time>2016-10-30T07:41:15.000Z</time>
      </trkpt>
      <trkpt lat="47.81835" lon="2.1406">
        <ele>99</ele>
        <time>2016-10-30T07:41:16.000Z</time>
      </trkpt>
      <trkpt lat="47.8184" lon="2.14064">
        <ele>99</ele>
        <time>2016-10-30T07:41:17.000Z</time>
      </trkpt>
      <trkpt lat="47.81845" lon="2.14067">
        <ele>99</ele>
        <time>2016-10-30T07:41:18.000Z</time>
      </trkpt>
      <trkpt lat="47.8185" lon="2.14071">
        <ele>99</ele>
        <time>2016-10-30T07:41:19.000Z</time>
      </trkpt>
      <trkpt lat="47.81855" lon="2.14074">
        <ele>99</ele>
        <time>2016-10-30T07:41:20.000Z</time>
      </trkpt>
      <trkpt lat="47.8186" lon="2.14078">
        <ele>99</ele>
        <time>2016-10-30T07:41:21.000Z</time>
      </trkpt>
      <trkpt lat="47.81865" lon="2.14081">
        <ele>99</ele>
        <time>2016-10-30T07:41:22.000Z</time>
      </trkpt>
      <trkpt lat="47.8187" lon="2.14084">
        <ele>99</ele>
        <time>2016-10-30T07:41:23.000Z</time>
      </trkpt>
      <trkpt lat="47.81876" lon="2.14087">
        <ele>99</ele>
        <time>2016-10-30T07:41:24.000Z</time>
      </trkpt>
      <trkpt lat="47.8188" lon="2.1409">
        <ele>99</ele>
        <time>2016-10-30T07:41:25.000Z</time>
      </trkpt>
      <trkpt lat="47.81885" lon="2.14093">
        <ele>99</ele>
        <time>2016-10-30T07:41:26.000Z</time>
      </trkpt>
      <trkpt lat="47.8189" lon="2.14096">
        <ele>99</ele>
        <time>2016-10-30T07:41:27.000Z</time>
      </trkpt>
      <trkpt lat="47.81895" lon="2.14099">
        <ele>99</ele>
        <time>2016-10-30T07:41:28.000Z</time>
      </trkpt>
      <trkpt lat="47.819" lon="2.14102">
        <ele>99</ele>
        <time>2016-10-30T07:41:29.000Z</time>
      </trkpt>
      <trkpt lat="47.81905" lon="2.14104">
        <ele>99</ele>
        <time>2016-10-30T07:41:30.000Z</time>
      </trkpt>
      <trkpt lat="47.8191" lon="2.14107">
        <ele>99</ele>
        <time>2016-10-30T07:41:31.000Z</time>
      </trkpt>
      <trkpt lat="47.81915" lon="2.1411">
        <ele>99</ele>
        <time>2016-10-30T07:41:32.000Z</time>
      </trkpt>
      <trkpt lat="47.81919" lon="2.14113">
        <ele>99</ele>
        <time>2016-10-30T07:41:33.000Z</time>
      </trkpt>
      <trkpt lat="47.81924" lon="2.14116">
        <ele>99</ele>
        <time>2016-10-30T07:41:34.000Z</time>
      </trkpt>
      <trkpt lat="47.81929" lon="2.14119">
        <ele>99</ele>
        <time>2016-10-30T07:41:35.000Z</time>
      </trkpt>
      <trkpt lat="47.81933" lon="2.14123">
        <ele>99</ele>
        <time>2016-10-30T07:41:36.000Z</time>
      </trkpt>
      <trkpt lat="47.81938" lon="2.14126">
        <ele>98</ele>
        <time>2016-10-30T07:41:37.000Z</time>
      </trkpt>
      <trkpt lat="47.81942" lon="2.1413">
        <ele>98</ele>
        <time>2016-10-30T07:41:38.000Z</time>
      </trkpt>
      <trkpt lat="47.81947" lon="2.14133">
        <ele>98</ele>
        <time>2016-10-30T07:41:39.000Z</time>
      </trkpt>
      <trkpt lat="47.81952" lon="2.14137">
        <ele>98</ele>
        <time>2016-10-30T07:41:40.000Z</time>
      </trkpt>
      <trkpt lat="47.81956" lon="2.14141">
        <ele>98</ele>
        <time>2016-10-30T07:41:41.000Z</time>
      </trkpt>
      <trkpt lat="47.81961" lon="2.14144">
        <ele>98</ele>
        <time>2016-10-30T07:41:42.000Z</time>
      </trkpt>
      <trkpt lat="47.81966" lon="2.14148">
        <ele>98</ele>
        <time>2016-10-30T07:41:43.000Z</time>
      </trkpt>
      <trkpt lat="47.8197" lon="2.14152">
        <ele>98</ele>
        <time>2016-10-30T07:41:44.000Z</time>
      </trkpt>
      <trkpt lat="47.81975" lon="2.14156">
        <ele>98</ele>
        <time>2016-10-30T07:41:45.000Z</time>
      </trkpt>
      <trkpt lat="47.81979" lon="2.1416">
        <ele>98</ele>
        <time>2016-10-30T07:41:46.000Z</time>
      </trkpt>
      <trkpt lat="47.81984" lon="2.14164">
        <ele>98</ele>
        <time>2016-10-30T07:41:47.000Z</time>
      </trkpt>
      <trkpt lat="47.81988" lon="2.14168">
        <ele>98</ele>
        <time>2016-10-30T07:41:48.000Z</time>
      </trkpt>
      <trkpt lat="47.81993" lon="2.14172">
        <ele>99</ele>
        <time>2016-10-30T07:41:49.000Z</time>
      </trkpt>
      <trkpt lat="47.81997" lon="2.14176">
        <ele>99</ele>
        <time>2016-10-30T07:41:50.000Z</time>
      </trkpt>
      <trkpt lat="47.82002" lon="2.14181">
        <ele>99</ele>
        <time>2016-10-30T07:41:51.000Z</time>
      </trkpt>
      <trkpt lat="47.82006" lon="2.14185">
        <ele>99</ele>
        <time>2016-10-30T07:41:52.000Z</time>
      </trkpt>
      <trkpt lat="47.82011" lon="2.14189">
        <ele>99</ele>
        <time>2016-10-30T07:41:53.000Z</time>
      </trkpt>
      <trkpt lat="47.82015" lon="2.14193">
        <ele>99</ele>
        <time>2016-10-30T07:41:54.000Z</time>
      </trkpt>
      <trkpt lat="47.82019" lon="2.14197">
        <ele>99</ele>
        <time>2016-10-30T07:41:55.000Z</time>
      </trkpt>
      <trkpt lat="47.82024" lon="2.14202">
        <ele>99</ele>
        <time>2016-10-30T07:41:56.000Z</time>
      </trkpt>
      <trkpt lat="47.82028" lon="2.14206">
        <ele>99</ele>
        <time>2016-10-30T07:41:57.000Z</time>
      </trkpt>
      <trkpt lat="47.82032" lon="2.1421">
        <ele>99</ele>
        <time>2016-10-30T07:41:58.000Z</time>
      </trkpt>
      <trkpt lat="47.82036" lon="2.14214">
        <ele>99</ele>
        <time>2016-10-30T07:41:59.000Z</time>
      </trkpt>
      <trkpt lat="47.82041" lon="2.14218">
        <ele>99</ele>
        <time>2016-10-30T07:42:00.000Z</time>
      </trkpt>
      <trkpt lat="47.82045" lon="2.14222">
        <ele>99</ele>
        <time>2016-10-30T07:42:01.000Z</time>
      </trkpt>
      <trkpt lat="47.82049" lon="2.14226">
        <ele>99</ele>
        <time>2016-10-30T07:42:02.000Z</time>
      </trkpt>
      <trkpt lat="47.82054" lon="2.1423">
        <ele>99</ele>
        <time>2016-10-30T07:42:03.000Z</time>
      </trkpt>
      <trkpt lat="47.82058" lon="2.14234">
        <ele>99</ele>
        <time>2016-10-30T07:42:04.000Z</time>
      </trkpt>
      <trkpt lat="47.82063" lon="2.14238">
        <ele>99</ele>
        <time>2016-10-30T07:42:05.000Z</time>
      </trkpt>
      <trkpt lat="47.82068" lon="2.14242">
        <ele>99</ele>
        <time>2016-10-30T07:42:06.000Z</time>
      </trkpt>
      <trkpt lat="47.82072" lon="2.14246">
        <ele>99</ele>
        <time>2016-10-30T07:42:07.000Z</time>
      </trkpt>
      <trkpt lat="47.82076" lon="2.1425">
        <ele>99</ele>
        <time>2016-10-30T07:42:08.000Z</time>
      </trkpt>
      <trkpt lat="47.82081" lon="2.14253">
        <ele>99</ele>
        <time>2016-10-30T07:42:09.000Z</time>
      </trkpt>
      <trkpt lat="47.82085" lon="2.14257">
        <ele>99</ele>
        <time>2016-10-30T07:42:10.000Z</time>
      </trkpt>
      <trkpt lat="47.8209" lon="2.14261">
        <ele>99</ele>
        <time>2016-10-30T07:42:11.000Z</time>
      </trkpt>
      <trkpt lat="47.82095" lon="2.14265">
        <ele>99</ele>
        <time>2016-10-30T07:42:12.000Z</time>
      </trkpt>
      <trkpt lat="47.821" lon="2.14269">
        <ele>99</ele>
        <time>2016-10-30T07:42:13.000Z</time>
      </trkpt>
      <trkpt lat="47.82104" lon="2.14273">
        <ele>99</ele>
        <time>2016-10-30T07:42:14.000Z</time>
      </trkpt>
      <trkpt lat="47.82109" lon="2.14277">
        <ele>99</ele>
        <time>2016-10-30T07:42:15.000Z</time>
      </trkpt>
      <trkpt lat="47.82114" lon="2.14281">
        <ele>99</ele>
        <time>2016-10-30T07:42:16.000Z</time>
      </trkpt>
      <trkpt lat="47.82118" lon="2.14285">
        <ele>99</ele>
        <time>2016-10-30T07:42:17.000Z</time>
      </trkpt>
      <trkpt lat="47.82123" lon="2.14289">
        <ele>99</ele>
        <time>2016-10-30T07:42:18.000Z</time>
      </trkpt>
      <trkpt lat="47.82127" lon="2.14293">
        <ele>99</ele>
        <time>2016-10-30T07:42:19.000Z</time>
      </trkpt>
      <trkpt lat="47.82132" lon="2.14297">
        <ele>99</ele>
        <time>2016-10-30T07:42:20.000Z</time>
      </trkpt>
      <trkpt lat="47.82136" lon="2.143">
        <ele>99</ele>
        <time>2016-10-30T07:42:21.000Z</time>
      </trkpt>
      <trkpt lat="47.82141" lon="2.14304">
        <ele>99</ele>
        <time>2016-10-30T07:42:22.000Z</time>
      </trkpt>
      <trkpt lat="47.82145" lon="2.14308">
        <ele>99</ele>
        <time>2016-10-30T07:42:23.000Z</time>
      </trkpt>
      <trkpt lat="47.82149" lon="2.14313">
        <ele>99</ele>
        <time>2016-10-30T07:42:24.000Z</time>
      </trkpt>
      <trkpt lat="47.82153" lon="2.14317">
        <ele>99</ele>
        <time>2016-10-30T07:42:25.000Z</time>
      </trkpt>
      <trkpt lat="47.82157" lon="2.14322">
        <ele>99</ele>
        <time>2016-10-30T07:42:26.000Z</time>
      </trkpt>
      <trkpt lat="47.82161" lon="2.14327">
        <ele>99</ele>
        <time>2016-10-30T07:42:27.000Z</time>
      </trkpt>
      <trkpt lat="47.82165" lon="2.14333">
        <ele>99</ele>
        <time>2016-10-30T07:42:28.000Z</time>
      </trkpt>
      <trkpt lat="47.82169" lon="2.14338">
        <ele>99</ele>
        <time>2016-10-30T07:42:29.000Z</time>
      </trkpt>
      <trkpt lat="47.82172" lon="2.14344">
        <ele>99</ele>
        <time>2016-10-30T07:42:30.000Z</time>
      </trkpt>
      <trkpt lat="47.82176" lon="2.1435">
        <ele>99</ele>
        <time>2016-10-30T07:42:31.000Z</time>
      </trkpt>
      <trkpt lat="47.82179" lon="2.14356">
        <ele>99</ele>
        <time>2016-10-30T07:42:32.000Z</time>
      </trkpt>
      <trkpt lat="47.82183" lon="2.14363">
        <ele>99</ele>
        <time>2016-10-30T07:42:33.000Z</time>
      </trkpt>
      <trkpt lat="47.82186" lon="2.14369">
        <ele>99</ele>
        <time>2016-10-30T07:42:34.000Z</time>
      </trkpt>
      <trkpt lat="47.8219" lon="2.14375">
        <ele>99</ele>
        <time>2016-10-30T07:42:35.000Z</time>
      </trkpt>
      <trkpt lat="47.82193" lon="2.14381">
        <ele>99</ele>
        <time>2016-10-30T07:42:36.000Z</time>
      </trkpt>
      <trkpt lat="47.82197" lon="2.14386">
        <ele>99</ele>
        <time>2016-10-30T07:42:37.000Z</time>
      </trkpt>
      <trkpt lat="47.822" lon="2.14392">
        <ele>100</ele>
        <time>2016-10-30T07:42:38.000Z</time>
      </trkpt>
      <trkpt lat="47.82204" lon="2.14397">
        <ele>100</ele>
        <time>2016-10-30T07:42:39.000Z</time>
      </trkpt>
      <trkpt lat="47.82208" lon="2.14402">
        <ele>100</ele>
        <time>2016-10-30T07:42:40.000Z</time>
      </trkpt>
      <trkpt lat="47.82212" lon="2.14407">
        <ele>100</ele>
        <time>2016-10-30T07:42:41.000Z</time>
      </trkpt>
      <trkpt lat="47.82216" lon="2.14412">
        <ele>100</ele>
        <time>2016-10-30T07:42:42.000Z</time>
      </trkpt>
      <trkpt lat="47.8222" lon="2.14417">
        <ele>100</ele>
        <time>2016-10-30T07:42:43.000Z</time>
      </trkpt>
      <trkpt lat="47.82224" lon="2.14422">
        <ele>100</ele>
        <time>2016-10-30T07:42:44.000Z</time>
      </trkpt>
      <trkpt lat="47.82228" lon="2.14426">
        <ele>100</ele>
        <time>2016-10-30T07:42:45.000Z</time>
      </trkpt>
      <trkpt lat="47.82233" lon="2.1443">
        <ele>100</ele>
        <time>2016-10-30T07:42:46.000Z</time>
      </trkpt>
      <trkpt lat="47.82237" lon="2.14434">
        <ele>100</ele>
        <time>2016-10-30T07:42:47.000Z</time>
      </trkpt>
      <trkpt lat="47.82241" lon="2.14439">
        <ele>100</ele>
        <time>2016-10-30T07:42:48.000Z</time>
      </trkpt>
      <trkpt lat="47.82245" lon="2.14443">
        <ele>100</ele>
        <time>2016-10-30T07:42:49.000Z</time>
      </trkpt>
      <trkpt lat="47.8225" lon="2.14448">
        <ele>100</ele>
        <time>2016-10-30T07:42:50.000Z</time>
      </trkpt>
      <trkpt lat="47.82254" lon="2.14453">
        <ele>100</ele>
        <time>2016-10-30T07:42:51.000Z</time>
      </trkpt>
      <trkpt lat="47.82258" lon="2.14457">
        <ele>100</ele>
        <time>2016-10-30T07:42:52.000Z</time>
      </trkpt>
      <trkpt lat="47.82262" lon="2.14462">
        <ele>100</ele>
        <time>2016-10-30T07:42:53.000Z</time>
      </trkpt>
      <trkpt lat="47.82266" lon="2.14467">
        <ele>100</ele>
        <time>2016-10-30T07:42:54.000Z</time>
      </trkpt>
      <trkpt lat="47.8227" lon="2.14472">
        <ele>100</ele>
        <time>2016-10-30T07:42:55.000Z</time>
      </trkpt>
      <trkpt lat="47.82274" lon="2.14477">
        <ele>100</ele>
        <time>2016-10-30T07:42:56.000Z</time>
      </trkpt>
      <trkpt lat="47.82278" lon="2.14482">
        <ele>100</ele>
        <time>2016-10-30T07:42:57.000Z</time>
      </trkpt>
      <trkpt lat="47.82281" lon="2.14487">
        <ele>100</ele>
        <time>2016-10-30T07:42:58.000Z</time>
      </trkpt>
      <trkpt lat="47.82285" lon="2.14492">
        <ele>100</ele>
        <time>2016-10-30T07:42:59.000Z</time>
      </trkpt>
      <trkpt lat="47.82289" lon="2.14497">
        <ele>100</ele>
        <time>2016-10-30T07:43:00.000Z</time>
      </trkpt>
      <trkpt lat="47.82292" lon="2.14503">
        <ele>100</ele>
        <time>2016-10-30T07:43:01.000Z</time>
      </trkpt>
      <trkpt lat="47.82296" lon="2.14508">
        <ele>100</ele>
        <time>2016-10-30T07:43:02.000Z</time>
      </trkpt>
      <trkpt lat="47.82299" lon="2.14514">
        <ele>100</ele>
        <time>2016-10-30T07:43:03.000Z</time>
      </trkpt>
      <trkpt lat="47.82302" lon="2.14519">
        <ele>100</ele>
        <time>2016-10-30T07:43:04.000Z</time>
      </trkpt>
      <trkpt lat="47.82305" lon="2.14525">
        <ele>100</ele>
        <time>2016-10-30T07:43:05.000Z</time>
      </trkpt>
      <trkpt lat="47.82308" lon="2.14531">
        <ele>100</ele>
        <time>2016-10-30T07:43:06.000Z</time>
      </trkpt>
      <trkpt lat="47.82311" lon="2.14537">
        <ele>100</ele>
        <time>2016-10-30T07:43:07.000Z</time>
      </trkpt>
      <trkpt lat="47.82314" lon="2.14543">
        <ele>100</ele>
        <time>2016-10-30T07:43:08.000Z</time>
      </trkpt>
      <trkpt lat="47.82317" lon="2.14549">
        <ele>100</ele>
        <time>2016-10-30T07:43:09.000Z</time>
      </trkpt>
      <trkpt lat="47.8232" lon="2.14556">
        <ele>100</ele>
        <time>2016-10-30T07:43:10.000Z</time>
      </trkpt>
      <trkpt lat="47.82323" lon="2.14562">
        <ele>100</ele>
        <time>2016-10-30T07:43:11.000Z</time>
      </trkpt>
      <trkpt lat="47.82327" lon="2.14568">
        <ele>99</ele>
        <time>2016-10-30T07:43:12.000Z</time>
      </trkpt>
      <trkpt lat="47.8233" lon="2.14574">
        <ele>99</ele>
        <time>2016-10-30T07:43:13.000Z</time>
      </trkpt>
      <trkpt lat="47.82334" lon="2.1458">
        <ele>99</ele>
        <time>2016-10-30T07:43:14.000Z</time>
      </trkpt>
      <trkpt lat="47.82338" lon="2.14585">
        <ele>99</ele>
        <time>2016-10-30T07:43:15.000Z</time>
      </trkpt>
      <trkpt lat="47.82343" lon="2.1459">
        <ele>99</ele>
        <time>2016-10-30T07:43:16.000Z</time>
      </trkpt>
      <trkpt lat="47.82347" lon="2.14595">
        <ele>99</ele>
        <time>2016-10-30T07:43:17.000Z</time>
      </trkpt>
      <trkpt lat="47.82351" lon="2.146">
        <ele>99</ele>
        <time>2016-10-30T07:43:18.000Z</time>
      </trkpt>
      <trkpt lat="47.82355" lon="2.14604">
        <ele>99</ele>
        <time>2016-10-30T07:43:19.000Z</time>
      </trkpt>
      <trkpt lat="47.8236" lon="2.14609">
        <ele>99</ele>
        <time>2016-10-30T07:43:20.000Z</time>
      </trkpt>
      <trkpt lat="47.82364" lon="2.14613">
        <ele>99</ele>
        <time>2016-10-30T07:43:21.000Z</time>
      </trkpt>
      <trkpt lat="47.82368" lon="2.14617">
        <ele>98</ele>
        <time>2016-10-30T07:43:22.000Z</time>
      </trkpt>
      <trkpt lat="47.82373" lon="2.14622">
        <ele>98</ele>
        <time>2016-10-30T07:43:23.000Z</time>
      </trkpt>
      <trkpt lat="47.82377" lon="2.14626">
        <ele>98</ele>
        <time>2016-10-30T07:43:24.000Z</time>
      </trkpt>
      <trkpt lat="47.82382" lon="2.14631">
        <ele>98</ele>
        <time>2016-10-30T07:43:25.000Z</time>
      </trkpt>
      <trkpt lat="47.82386" lon="2.14635">
        <ele>98</ele>
        <time>2016-10-30T07:43:26.000Z</time>
      </trkpt>
      <trkpt lat="47.82391" lon="2.14639">
        <ele>98</ele>
        <time>2016-10-30T07:43:27.000Z</time>
      </trkpt>
      <trkpt lat="47.82395" lon="2.14644">
        <ele>98</ele>
        <time>2016-10-30T07:43:28.000Z</time>
      </trkpt>
      <trkpt lat="47.82399" lon="2.14648">
        <ele>98</ele>
        <time>2016-10-30T07:43:29.000Z</time>
      </trkpt>
      <trkpt lat="47.82403" lon="2.14653">
        <ele>98</ele>
        <time>2016-10-30T07:43:30.000Z</time>
      </trkpt>
      <trkpt lat="47.82407" lon="2.14657">
        <ele>98</ele>
        <time>2016-10-30T07:43:31.000Z</time>
      </trkpt>
      <trkpt lat="47.82412" lon="2.14662">
        <ele>98</ele>
        <time>2016-10-30T07:43:32.000Z</time>
      </trkpt>
      <trkpt lat="47.82416" lon="2.14666">
        <ele>98</ele>
        <time>2016-10-30T07:43:33.000Z</time>
      </trkpt>
      <trkpt lat="47.8242" lon="2.14671">
        <ele>98</ele>
        <time>2016-10-30T07:43:34.000Z</time>
      </trkpt>
      <trkpt lat="47.82424" lon="2.14675">
        <ele>98</ele>
        <time>2016-10-30T07:43:35.000Z</time>
      </trkpt>
      <trkpt lat="47.82428" lon="2.1468">
        <ele>98</ele>
        <time>2016-10-30T07:43:36.000Z</time>
      </trkpt>
      <trkpt lat="47.82432" lon="2.14684">
        <ele>98</ele>
        <time>2016-10-30T07:43:37.000Z</time>
      </trkpt>
      <trkpt lat="47.82436" lon="2.14689">
        <ele>98</ele>
        <time>2016-10-30T07:43:38.000Z</time>
      </trkpt>
      <trkpt lat="47.8244" lon="2.14693">
        <ele>98</ele>
        <time>2016-10-30T07:43:39.000Z</time>
      </trkpt>
      <trkpt lat="47.82445" lon="2.14697">
        <ele>98</ele>
        <time>2016-10-30T07:43:40.000Z</time>
      </trkpt>
      <trkpt lat="47.82449" lon="2.14701">
        <ele>98</ele>
        <time>2016-10-30T07:43:41.000Z</time>
      </trkpt>
      <trkpt lat="47.82453" lon="2.14705">
        <ele>98</ele>
        <time>2016-10-30T07:43:42.000Z</time>
      </trkpt>
      <trkpt lat="47.82458" lon="2.14708">
        <ele>98</ele>
        <time>2016-10-30T07:43:43.000Z</time>
      </trkpt>
      <trkpt lat="47.82462" lon="2.14712">
        <ele>98</ele>
        <time>2016-10-30T07:43:44.000Z</time>
      </trkpt>
      <trkpt lat="47.82467" lon="2.14715">
        <ele>98</ele>
        <time>2016-10-30T07:43:45.000Z</time>
      </trkpt>
      <trkpt lat="47.82471" lon="2.14719">
        <ele>98</ele>
        <time>2016-10-30T07:43:46.000Z</time>
      </trkpt>
      <trkpt lat="47.82475" lon="2.14722">
        <ele>98</ele>
        <time>2016-10-30T07:43:47.000Z</time>
      </trkpt>
      <trkpt lat="47.8248" lon="2.14725">
        <ele>98</ele>
        <time>2016-10-30T07:43:48.000Z</time>
      </trkpt>
      <trkpt lat="47.82484" lon="2.14729">
        <ele>98</ele>
        <time>2016-10-30T07:43:49.000Z</time>
      </trkpt>
      <trkpt lat="47.82488" lon="2.14732">
        <ele>98</ele>
        <time>2016-10-30T07:43:50.000Z</time>
      </trkpt>
      <trkpt lat="47.82493" lon="2.14736">
        <ele>98</ele>
        <time>2016-10-30T07:43:51.000Z</time>
      </trkpt>
      <trkpt lat="47.82497" lon="2.14739">
        <ele>98</ele>
        <time>2016-10-30T07:43:52.000Z</time>
      </trkpt>
      <trkpt lat="47.825" lon="2.14743">
        <ele>98</ele>
        <time>2016-10-30T07:43:53.000Z</time>
      </trkpt>
      <trkpt lat="47.82504" lon="2.14747">
        <ele>98</ele>
        <time>2016-10-30T07:43:54.000Z</time>
      </trkpt>
      <trkpt lat="47.82508" lon="2.14751">
        <ele>98</ele>
        <time>2016-10-30T07:43:55.000Z</time>
      </trkpt>
      <trkpt lat="47.82512" lon="2.14755">
        <ele>98</ele>
        <time>2016-10-30T07:43:56.000Z</time>
      </trkpt>
      <trkpt lat="47.82515" lon="2.14759">
        <ele>99</ele>
        <time>2016-10-30T07:43:57.000Z</time>
      </trkpt>
      <trkpt lat="47.82519" lon="2.14763">
        <ele>99</ele>
        <time>2016-10-30T07:43:58.000Z</time>
      </trkpt>
      <trkpt lat="47.82523" lon="2.14768">
        <ele>99</ele>
        <time>2016-10-30T07:43:59.000Z</time>
      </trkpt>
      <trkpt lat="47.82526" lon="2.14772">
        <ele>99</ele>
        <time>2016-10-30T07:44:00.000Z</time>
      </trkpt>
      <trkpt lat="47.8253" lon="2.14776">
        <ele>99</ele>
        <time>2016-10-30T07:44:01.000Z</time>
      </trkpt>
      <trkpt lat="47.82533" lon="2.14781">
        <ele>99</ele>
        <time>2016-10-30T07:44:02.000Z</time>
      </trkpt>
      <trkpt lat="47.82537" lon="2.14786">
        <ele>98</ele>
        <time>2016-10-30T07:44:03.000Z</time>
      </trkpt>
      <trkpt lat="47.8254" lon="2.14791">
        <ele>98</ele>
        <time>2016-10-30T07:44:04.000Z</time>
      </trkpt>
      <trkpt lat="47.82544" lon="2.14796">
        <ele>98</ele>
        <time>2016-10-30T07:44:05.000Z</time>
      </trkpt>
      <trkpt lat="47.82548" lon="2.14802">
        <ele>98</ele>
        <time>2016-10-30T07:44:06.000Z</time>
      </trkpt>
      <trkpt lat="47.82551" lon="2.14807">
        <ele>98</ele>
        <time>2016-10-30T07:44:07.000Z</time>
      </trkpt>
      <trkpt lat="47.82555" lon="2.14813">
        <ele>99</ele>
        <time>2016-10-30T07:44:08.000Z</time>
      </trkpt>
      <trkpt lat="47.82558" lon="2.14819">
        <ele>99</ele>
        <time>2016-10-30T07:44:09.000Z</time>
      </trkpt>
      <trkpt lat="47.82561" lon="2.14825">
        <ele>98</ele>
        <time>2016-10-30T07:44:10.000Z</time>
      </trkpt>
      <trkpt lat="47.82563" lon="2.14831">
        <ele>99</ele>
        <time>2016-10-30T07:44:11.000Z</time>
      </trkpt>
      <trkpt lat="47.82566" lon="2.14837">
        <ele>99</ele>
        <time>2016-10-30T07:44:12.000Z</time>
      </trkpt>
      <trkpt lat="47.82567" lon="2.14844">
        <ele>99</ele>
        <time>2016-10-30T07:44:13.000Z</time>
      </trkpt>
      <trkpt lat="47.82568" lon="2.14851">
        <ele>98</ele>
        <time>2016-10-30T07:44:14.000Z</time>
      </trkpt>
      <trkpt lat="47.82569" lon="2.14858">
        <ele>98</ele>
        <time>2016-10-30T07:44:15.000Z</time>
      </trkpt>
      <trkpt lat="47.82569" lon="2.14865">
        <ele>98</ele>
        <time>2016-10-30T07:44:16.000Z</time>
      </trkpt>
      <trkpt lat="47.82568" lon="2.14873">
        <ele>98</ele>
        <time>2016-10-30T07:44:17.000Z</time>
      </trkpt>
      <trkpt lat="47.82567" lon="2.1488">
        <ele>98</ele>
        <time>2016-10-30T07:44:18.000Z</time>
      </trkpt>
      <trkpt lat="47.82566" lon="2.14887">
        <ele>98</ele>
        <time>2016-10-30T07:44:19.000Z</time>
      </trkpt>
      <trkpt lat="47.82565" lon="2.14895">
        <ele>98</ele>
        <time>2016-10-30T07:44:20.000Z</time>
      </trkpt>
      <trkpt lat="47.82563" lon="2.14902">
        <ele>98</ele>
        <time>2016-10-30T07:44:21.000Z</time>
      </trkpt>
      <trkpt lat="47.82562" lon="2.1491">
        <ele>98</ele>
        <time>2016-10-30T07:44:22.000Z</time>
      </trkpt>
      <trkpt lat="47.8256" lon="2.14917">
        <ele>98</ele>
        <time>2016-10-30T07:44:23.000Z</time>
      </trkpt>
      <trkpt lat="47.82559" lon="2.14925">
        <ele>98</ele>
        <time>2016-10-30T07:44:24.000Z</time>
      </trkpt>
      <trkpt lat="47.82558" lon="2.14933">
        <ele>98</ele>
        <time>2016-10-30T07:44:25.000Z</time>
      </trkpt>
      <trkpt lat="47.82557" lon="2.1494">
        <ele>98</ele>
        <time>2016-10-30T07:44:26.000Z</time>
      </trkpt>
      <trkpt lat="47.82556" lon="2.14947">
        <ele>98</ele>
        <time>2016-10-30T07:44:27.000Z</time>
      </trkpt>
      <trkpt lat="47.82556" lon="2.14954">
        <ele>98</ele>
        <time>2016-10-30T07:44:28.000Z</time>
      </trkpt>
      <trkpt lat="47.82556" lon="2.1496">
        <ele>99</ele>
        <time>2016-10-30T07:44:29.000Z</time>
      </trkpt>
      <trkpt lat="47.82556" lon="2.14966">
        <ele>99</ele>
        <time>2016-10-30T07:44:30.000Z</time>
      </trkpt>
      <trkpt lat="47.82558" lon="2.1497">
        <ele>99</ele>
        <time>2016-10-30T07:44:31.000Z</time>
      </trkpt>
      <trkpt lat="47.8256" lon="2.14974">
        <ele>99</ele>
        <time>2016-10-30T07:44:32.000Z</time>
      </trkpt>
      <trkpt lat="47.82562" lon="2.14975">
        <ele>99</ele>
        <time>2016-10-30T07:44:33.000Z</time>
      </trkpt>
      <trkpt lat="47.82565" lon="2.14974">
        <ele>100</ele>
        <time>2016-10-30T07:44:34.000Z</time>
      </trkpt>
      <trkpt lat="47.82568" lon="2.14972">
        <ele>99</ele>
        <time>2016-10-30T07:44:35.000Z</time>
      </trkpt>
      <trkpt lat="47.82571" lon="2.1497">
        <ele>99</ele>
        <time>2016-10-30T07:44:36.000Z</time>
      </trkpt>
      <trkpt lat="47.82575" lon="2.14968">
        <ele>99</ele>
        <time>2016-10-30T07:44:37.000Z</time>
      </trkpt>
      <trkpt lat="47.82579" lon="2.14966">
        <ele>100</ele>
        <time>2016-10-30T07:44:38.000Z</time>
      </trkpt>
      <trkpt lat="47.82583" lon="2.14967">
        <ele>100</ele>
        <time>2016-10-30T07:44:39.000Z</time>
      </trkpt>
      <trkpt lat="47.82588" lon="2.14969">
        <ele>100</ele>
        <time>2016-10-30T07:44:40.000Z</time>
      </trkpt>
      <trkpt lat="47.82592" lon="2.14972">
        <ele>100</ele>
        <time>2016-10-30T07:44:41.000Z</time>
      </trkpt>
      <trkpt lat="47.82595" lon="2.14977">
        <ele>100</ele>
        <time>2016-10-30T07:44:42.000Z</time>
      </trkpt>
      <trkpt lat="47.82598" lon="2.14982">
        <ele>100</ele>
        <time>2016-10-30T07:44:43.000Z</time>
      </trkpt>
      <trkpt lat="47.82601" lon="2.14988">
        <ele>100</ele>
        <time>2016-10-30T07:44:44.000Z</time>
      </trkpt>
      <trkpt lat="47.82604" lon="2.14994">
        <ele>100</ele>
        <time>2016-10-30T07:44:45.000Z</time>
      </trkpt>
      <trkpt lat="47.82608" lon="2.14999">
        <ele>100</ele>
        <time>2016-10-30T07:44:46.000Z</time>
      </trkpt>
      <trkpt lat="47.82611" lon="2.15004">
        <ele>100</ele>
        <time>2016-10-30T07:44:47.000Z</time>
      </trkpt>
      <trkpt lat="47.82615" lon="2.15009">
        <ele>100</ele>
        <time>2016-10-30T07:44:48.000Z</time>
      </trkpt>
      <trkpt lat="47.82619" lon="2.15014">
        <ele>100</ele>
        <time>2016-10-30T07:44:49.000Z</time>
      </trkpt>
      <trkpt lat="47.82623" lon="2.15018">
        <ele>100</ele>
        <time>2016-10-30T07:44:50.000Z</time>
      </trkpt>
      <trkpt lat="47.82628" lon="2.15021">
        <ele>100</ele>
        <time>2016-10-30T07:44:51.000Z</time>
      </trkpt>
      <trkpt lat="47.82632" lon="2.15024">
        <ele>100</ele>
        <time>2016-10-30T07:44:52.000Z</time>
      </trkpt>
      <trkpt lat="47.82636" lon="2.15027">
        <ele>100</ele>
        <time>2016-10-30T07:44:53.000Z</time>
      </trkpt>
      <trkpt lat="47.82641" lon="2.15029">
        <ele>100</ele>
        <time>2016-10-30T07:44:54.000Z</time>
      </trkpt>
      <trkpt lat="47.82646" lon="2.15031">
        <ele>100</ele>
        <time>2016-10-30T07:44:55.000Z</time>
      </trkpt>
      <trkpt lat="47.82651" lon="2.15033">
        <ele>100</ele>
        <time>2016-10-30T07:44:56.000Z</time>
      </trkpt>
      <trkpt lat="47.82656" lon="2.15035">
        <ele>100</ele>
        <time>2016-10-30T07:44:57.000Z</time>
      </trkpt>
      <trkpt lat="47.82661" lon="2.15037">
        <ele>100</ele>
        <time>2016-10-30T07:44:58.000Z</time>
      </trkpt>
      <trkpt lat="47.82666" lon="2.15039">
        <ele>100</ele>
        <time>2016-10-30T07:44:59.000Z</time>
      </trkpt>
      <trkpt lat="47.82671" lon="2.15041">
        <ele>100</ele>
        <time>2016-10-30T07:45:00.000Z</time>
      </trkpt>
      <trkpt lat="47.82677" lon="2.15043">
        <ele>100</ele>
        <time>2016-10-30T07:45:01.000Z</time>
      </trkpt>
      <trkpt lat="47.82682" lon="2.15044">
        <ele>100</ele>
        <time>2016-10-30T07:45:02.000Z</time>
      </trkpt>
      <trkpt lat="47.82687" lon="2.15046">
        <ele>100</ele>
        <time>2016-10-30T07:45:03.000Z</time>
      </trkpt>
      <trkpt lat="47.82692" lon="2.15048">
        <ele>100</ele>
        <time>2016-10-30T07:45:04.000Z</time>
      </trkpt>
      <trkpt lat="47.82697" lon="2.1505">
        <ele>100</ele>
        <time>2016-10-30T07:45:05.000Z</time>
      </trkpt>
      <trkpt lat="47.82702" lon="2.15052">
        <ele>100</ele>
        <time>2016-10-30T07:45:06.000Z</time>
      </trkpt>
      <trkpt lat="47.82707" lon="2.15053">
        <ele>100</ele>
        <time>2016-10-30T07:45:07.000Z</time>
      </trkpt>
      <trkpt lat="47.82712" lon="2.15055">
        <ele>100</ele>
        <time>2016-10-30T07:45:08.000Z</time>
      </trkpt>
      <trkpt lat="47.82717" lon="2.15057">
        <ele>100</ele>
        <time>2016-10-30T07:45:09.000Z</time>
      </trkpt>
      <trkpt lat="47.82722" lon="2.15059">
        <ele>100</ele>
        <time>2016-10-30T07:45:10.000Z</time>
      </trkpt>
      <trkpt lat="47.82727" lon="2.15061">
        <ele>100</ele>
        <time>2016-10-30T07:45:11.000Z</time>
      </trkpt>
      <trkpt lat="47.82732" lon="2.15063">
        <ele>100</ele>
        <time>2016-10-30T07:45:12.000Z</time>
      </trkpt>
      <trkpt lat="47.82738" lon="2.15064">
        <ele>100</ele>
        <time>2016-10-30T07:45:13.000Z</time>
      </trkpt>
      <trkpt lat="47.82743" lon="2.15066">
        <ele>100</ele>
        <time>2016-10-30T07:45:14.000Z</time>
      </trkpt>
      <trkpt lat="47.82748" lon="2.15068">
        <ele>100</ele>
        <time>2016-10-30T07:45:15.000Z</time>
      </trkpt>
      <trkpt lat="47.82753" lon="2.1507">
        <ele>100</ele>
        <time>2016-10-30T07:45:16.000Z</time>
      </trkpt>
      <trkpt lat="47.82759" lon="2.15072">
        <ele>100</ele>
        <time>2016-10-30T07:45:17.000Z</time>
      </trkpt>
      <trkpt lat="47.82764" lon="2.15074">
        <ele>100</ele>
        <time>2016-10-30T07:45:18.000Z</time>
      </trkpt>
      <trkpt lat="47.82769" lon="2.15076">
        <ele>100</ele>
        <time>2016-10-30T07:45:19.000Z</time>
      </trkpt>
      <trkpt lat="47.82775" lon="2.15077">
        <ele>100</ele>
        <time>2016-10-30T07:45:20.000Z</time>
      </trkpt>
      <trkpt lat="47.8278" lon="2.15079">
        <ele>101</ele>
        <time>2016-10-30T07:45:21.000Z</time>
      </trkpt>
      <trkpt lat="47.82785" lon="2.15081">
        <ele>101</ele>
        <time>2016-10-30T07:45:22.000Z</time>
      </trkpt>
      <trkpt lat="47.8279" lon="2.15083">
        <ele>101</ele>
        <time>2016-10-30T07:45:23.000Z</time>
      </trkpt>
      <trkpt lat="47.82795" lon="2.15085">
        <ele>101</ele>
        <time>2016-10-30T07:45:24.000Z</time>
      </trkpt>
      <trkpt lat="47.828" lon="2.15088">
        <ele>101</ele>
        <time>2016-10-30T07:45:25.000Z</time>
      </trkpt>
      <trkpt lat="47.82805" lon="2.15092">
        <ele>101</ele>
        <time>2016-10-30T07:45:26.000Z</time>
      </trkpt>
      <trkpt lat="47.82808" lon="2.15097">
        <ele>100</ele>
        <time>2016-10-30T07:45:27.000Z</time>
      </trkpt>
      <trkpt lat="47.82811" lon="2.15103">
        <ele>100</ele>
        <time>2016-10-30T07:45:28.000Z</time>
      </trkpt>
      <trkpt lat="47.82813" lon="2.1511">
        <ele>100</ele>
        <time>2016-10-30T07:45:29.000Z</time>
      </trkpt>
      <trkpt lat="47.82814" lon="2.15117">
        <ele>99</ele>
        <time>2016-10-30T07:45:30.000Z</time>
      </trkpt>
      <trkpt lat="47.82815" lon="2.15124">
        <ele>99</ele>
        <time>2016-10-30T07:45:31.000Z</time>
      </trkpt>
      <trkpt lat="47.82815" lon="2.15131">
        <ele>100</ele>
        <time>2016-10-30T07:45:32.000Z</time>
      </trkpt>
      <trkpt lat="47.82814" lon="2.15138">
        <ele>100</ele>
        <time>2016-10-30T07:45:33.000Z</time>
      </trkpt>
      <trkpt lat="47.82813" lon="2.15146">
        <ele>100</ele>
        <time>2016-10-30T07:45:34.000Z</time>
      </trkpt>
      <trkpt lat="47.82813" lon="2.15152">
        <ele>100</ele>
        <time>2016-10-30T07:45:35.000Z</time>
      </trkpt>
      <trkpt lat="47.82812" lon="2.15159">
        <ele>100</ele>
        <time>2016-10-30T07:45:36.000Z</time>
      </trkpt>
      <trkpt lat="47.82813" lon="2.15165">
        <ele>100</ele>
        <time>2016-10-30T07:45:37.000Z</time>
      </trkpt>
      <trkpt lat="47.82814" lon="2.15171">
        <ele>101</ele>
        <time>2016-10-30T07:45:38.000Z</time>
      </trkpt>
      <trkpt lat="47.82816" lon="2.15177">
        <ele>103</ele>
        <time>2016-10-30T07:45:39.000Z</time>
      </trkpt>
      <trkpt lat="47.82819" lon="2.15182">
        <ele>103</ele>
        <time>2016-10-30T07:45:40.000Z</time>
      </trkpt>
      <trkpt lat="47.82823" lon="2.15186">
        <ele>102</ele>
        <time>2016-10-30T07:45:41.000Z</time>
      </trkpt>
      <trkpt lat="47.82828" lon="2.1519">
        <ele>102</ele>
        <time>2016-10-30T07:45:42.000Z</time>
      </trkpt>
      <trkpt lat="47.82833" lon="2.15193">
        <ele>102</ele>
        <time>2016-10-30T07:45:43.000Z</time>
      </trkpt>
      <trkpt lat="47.82837" lon="2.15196">
        <ele>101</ele>
        <time>2016-10-30T07:45:44.000Z</time>
      </trkpt>
      <trkpt lat="47.82842" lon="2.15199">
        <ele>101</ele>
        <time>2016-10-30T07:45:45.000Z</time>
      </trkpt>
      <trkpt lat="47.82847" lon="2.15202">
        <ele>101</ele>
        <time>2016-10-30T07:45:46.000Z</time>
      </trkpt>
      <trkpt lat="47.82852" lon="2.15205">
        <ele>101</ele>
        <time>2016-10-30T07:45:47.000Z</time>
      </trkpt>
      <trkpt lat="47.82857" lon="2.15208">
        <ele>100</ele>
        <time>2016-10-30T07:45:48.000Z</time>
      </trkpt>
      <trkpt lat="47.82862" lon="2.15211">
        <ele>99</ele>
        <time>2016-10-30T07:45:49.000Z</time>
      </trkpt>
      <trkpt lat="47.82867" lon="2.15214">
        <ele>99</ele>
        <time>2016-10-30T07:45:50.000Z</time>
      </trkpt>
      <trkpt lat="47.82872" lon="2.15217">
        <ele>99</ele>
        <time>2016-10-30T07:45:51.000Z</time>
      </trkpt>
      <trkpt lat="47.82877" lon="2.15221">
        <ele>99</ele>
        <time>2016-10-30T07:45:52.000Z</time>
      </trkpt>
      <trkpt lat="47.82882" lon="2.15224">
        <ele>98</ele>
        <time>2016-10-30T07:45:53.000Z</time>
      </trkpt>
      <trkpt lat="47.82887" lon="2.15227">
        <ele>98</ele>
        <time>2016-10-30T07:45:54.000Z</time>
      </trkpt>
      <trkpt lat="47.82893" lon="2.1523">
        <ele>98</ele>
        <time>2016-10-30T07:45:55.000Z</time>
      </trkpt>
      <trkpt lat="47.82898" lon="2.15233">
        <ele>98</ele>
        <time>2016-10-30T07:45:56.000Z</time>
      </trkpt>
      <trkpt lat="47.82903" lon="2.15236">
        <ele>98</ele>
        <time>2016-10-30T07:45:57.000Z</time>
      </trkpt>
      <trkpt lat="47.82909" lon="2.15239">
        <ele>98</ele>
        <time>2016-10-30T07:45:58.000Z</time>
      </trkpt>
      <trkpt lat="47.82914" lon="2.15243">
        <ele>98</ele>
        <time>2016-10-30T07:45:59.000Z</time>
      </trkpt>
      <trkpt lat="47.8292" lon="2.15246">
        <ele>99</ele>
        <time>2016-10-30T07:46:00.000Z</time>
      </trkpt>
      <trkpt lat="47.82925" lon="2.15249">
        <ele>99</ele>
        <time>2016-10-30T07:46:01.000Z</time>
      </trkpt>
      <trkpt lat="47.8293" lon="2.15252">
        <ele>99</ele>
        <time>2016-10-30T07:46:02.000Z</time>
      </trkpt>
      <trkpt lat="47.82935" lon="2.15255">
        <ele>99</ele>
        <time>2016-10-30T07:46:03.000Z</time>
      </trkpt>
      <trkpt lat="47.8294" lon="2.15258">
        <ele>99</ele>
        <time>2016-10-30T07:46:04.000Z</time>
      </trkpt>
      <trkpt lat="47.82945" lon="2.15261">
        <ele>99</ele>
        <time>2016-10-30T07:46:05.000Z</time>
      </trkpt>
      <trkpt lat="47.82949" lon="2.15264">
        <ele>99</ele>
        <time>2016-10-30T07:46:06.000Z</time>
      </trkpt>
      <trkpt lat="47.82953" lon="2.15267">
        <ele>99</ele>
        <time>2016-10-30T07:46:07.000Z</time>
      </trkpt>
      <trkpt lat="47.82957" lon="2.1527">
        <ele>98</ele>
        <time>2016-10-30T07:46:08.000Z</time>
      </trkpt>
      <trkpt lat="47.82959" lon="2.15275">
        <ele>98</ele>
        <time>2016-10-30T07:46:09.000Z</time>
      </trkpt>
      <trkpt lat="47.8296" lon="2.15281">
        <ele>98</ele>
        <time>2016-10-30T07:46:10.000Z</time>
      </trkpt>
      <trkpt lat="47.8296" lon="2.15288">
        <ele>99</ele>
        <time>2016-10-30T07:46:11.000Z</time>
      </trkpt>
      <trkpt lat="47.82959" lon="2.15296">
        <ele>99</ele>
        <time>2016-10-30T07:46:12.000Z</time>
      </trkpt>
      <trkpt lat="47.82958" lon="2.15304">
        <ele>99</ele>
        <time>2016-10-30T07:46:13.000Z</time>
      </trkpt>
      <trkpt lat="47.82957" lon="2.15312">
        <ele>99</ele>
        <time>2016-10-30T07:46:14.000Z</time>
      </trkpt>
      <trkpt lat="47.82955" lon="2.1532">
        <ele>99</ele>
        <time>2016-10-30T07:46:15.000Z</time>
      </trkpt>
      <trkpt lat="47.82954" lon="2.15327">
        <ele>99</ele>
        <time>2016-10-30T07:46:16.000Z</time>
      </trkpt>
      <trkpt lat="47.82952" lon="2.15335">
        <ele>99</ele>
        <time>2016-10-30T07:46:17.000Z</time>
      </trkpt>
      <trkpt lat="47.8295" lon="2.15343">
        <ele>99</ele>
        <time>2016-10-30T07:46:18.000Z</time>
      </trkpt>
      <trkpt lat="47.82948" lon="2.1535">
        <ele>99</ele>
        <time>2016-10-30T07:46:19.000Z</time>
      </trkpt>
      <trkpt lat="47.82946" lon="2.15357">
        <ele>99</ele>
        <time>2016-10-30T07:46:20.000Z</time>
      </trkpt>
      <trkpt lat="47.82945" lon="2.15365">
        <ele>99</ele>
        <time>2016-10-30T07:46:21.000Z</time>
      </trkpt>
      <trkpt lat="47.82943" lon="2.15372">
        <ele>99</ele>
        <time>2016-10-30T07:46:22.000Z</time>
      </trkpt>
      <trkpt lat="47.82941" lon="2.1538">
        <ele>99</ele>
        <time>2016-10-30T07:46:23.000Z</time>
      </trkpt>
      <trkpt lat="47.82939" lon="2.15387">
        <ele>100</ele>
        <time>2016-10-30T07:46:24.000Z</time>
      </trkpt>
      <trkpt lat="47.82938" lon="2.15395">
        <ele>100</ele>
        <time>2016-10-30T07:46:25.000Z</time>
      </trkpt>
      <trkpt lat="47.82936" lon="2.15402">
        <ele>100</ele>
        <time>2016-10-30T07:46:26.000Z</time>
      </trkpt>
      <trkpt lat="47.82935" lon="2.1541">
        <ele>100</ele>
        <time>2016-10-30T07:46:27.000Z</time>
      </trkpt>
      <trkpt lat="47.82933" lon="2.15417">
        <ele>100</ele>
        <time>2016-10-30T07:46:28.000Z</time>
      </trkpt>
      <trkpt lat="47.82931" lon="2.15424">
        <ele>100</ele>
        <time>2016-10-30T07:46:29.000Z</time>
      </trkpt>
      <trkpt lat="47.82929" lon="2.15432">
        <ele>100</ele>
        <time>2016-10-30T07:46:30.000Z</time>
      </trkpt>
      <trkpt lat="47.82928" lon="2.15439">
        <ele>100</ele>
        <time>2016-10-30T07:46:31.000Z</time>
      </trkpt>
      <trkpt lat="47.82926" lon="2.15446">
        <ele>100</ele>
        <time>2016-10-30T07:46:32.000Z</time>
      </trkpt>
      <trkpt lat="47.82924" lon="2.15453">
        <ele>100</ele>
        <time>2016-10-30T07:46:33.000Z</time>
      </trkpt>
      <trkpt lat="47.82923" lon="2.1546">
        <ele>100</ele>
        <time>2016-10-30T07:46:34.000Z</time>
      </trkpt>
      <trkpt lat="47.82921" lon="2.15466">
        <ele>100</ele>
        <time>2016-10-30T07:46:35.000Z</time>
      </trkpt>
      <trkpt lat="47.82919" lon="2.15473">
        <ele>100</ele>
        <time>2016-10-30T07:46:36.000Z</time>
      </trkpt>
      <trkpt lat="47.82918" lon="2.1548">
        <ele>100</ele>
        <time>2016-10-30T07:46:37.000Z</time>
      </trkpt>
      <trkpt lat="47.82916" lon="2.15487">
        <ele>99</ele>
        <time>2016-10-30T07:46:38.000Z</time>
      </trkpt>
      <trkpt lat="47.82914" lon="2.15494">
        <ele>100</ele>
        <time>2016-10-30T07:46:39.000Z</time>
      </trkpt>
      <trkpt lat="47.82913" lon="2.15501">
        <ele>100</ele>
        <time>2016-10-30T07:46:40.000Z</time>
      </trkpt>
      <trkpt lat="47.82912" lon="2.15508">
        <ele>100</ele>
        <time>2016-10-30T07:46:41.000Z</time>
      </trkpt>
      <trkpt lat="47.82912" lon="2.15515">
        <ele>100</ele>
        <time>2016-10-30T07:46:42.000Z</time>
      </trkpt>
      <trkpt lat="47.82911" lon="2.15522">
        <ele>99</ele>
        <time>2016-10-30T07:46:43.000Z</time>
      </trkpt>
      <trkpt lat="47.82912" lon="2.15529">
        <ele>99</ele>
        <time>2016-10-30T07:46:44.000Z</time>
      </trkpt>
      <trkpt lat="47.82912" lon="2.15536">
        <ele>100</ele>
        <time>2016-10-30T07:46:45.000Z</time>
      </trkpt>
      <trkpt lat="47.82913" lon="2.15543">
        <ele>99</ele>
        <time>2016-10-30T07:46:46.000Z</time>
      </trkpt>
      <trkpt lat="47.82913" lon="2.1555">
        <ele>100</ele>
        <time>2016-10-30T07:46:47.000Z</time>
      </trkpt>
      <trkpt lat="47.82914" lon="2.15557">
        <ele>100</ele>
        <time>2016-10-30T07:46:48.000Z</time>
      </trkpt>
      <trkpt lat="47.82914" lon="2.15564">
        <ele>100</ele>
        <time>2016-10-30T07:46:49.000Z</time>
      </trkpt>
      <trkpt lat="47.82915" lon="2.15572">
        <ele>100</ele>
        <time>2016-10-30T07:46:50.000Z</time>
      </trkpt>
      <trkpt lat="47.82915" lon="2.15579">
        <ele>100</ele>
        <time>2016-10-30T07:46:51.000Z</time>
      </trkpt>
      <trkpt lat="47.82915" lon="2.15587">
        <ele>100</ele>
        <time>2016-10-30T07:46:52.000Z</time>
      </trkpt>
      <trkpt lat="47.82916" lon="2.15594">
        <ele>100</ele>
        <time>2016-10-30T07:46:53.000Z</time>
      </trkpt>
      <trkpt lat="47.82916" lon="2.15601">
        <ele>100</ele>
        <time>2016-10-30T07:46:54.000Z</time>
      </trkpt>
      <trkpt lat="47.82917" lon="2.15608">
        <ele>100</ele>
        <time>2016-10-30T07:46:55.000Z</time>
      </trkpt>
      <trkpt lat="47.82917" lon="2.15616">
        <ele>100</ele>
        <time>2016-10-30T07:46:56.000Z</time>
      </trkpt>
      <trkpt lat="47.82918" lon="2.15623">
        <ele>100</ele>
        <time>2016-10-30T07:46:57.000Z</time>
      </trkpt>
      <trkpt lat="47.82918" lon="2.1563">
        <ele>100</ele>
        <time>2016-10-30T07:46:58.000Z</time>
      </trkpt>
      <trkpt lat="47.82918" lon="2.15637">
        <ele>100</ele>
        <time>2016-10-30T07:46:59.000Z</time>
      </trkpt>
      <trkpt lat="47.82919" lon="2.15644">
        <ele>99</ele>
        <time>2016-10-30T07:47:00.000Z</time>
      </trkpt>
      <trkpt lat="47.82919" lon="2.15651">
        <ele>99</ele>
        <time>2016-10-30T07:47:01.000Z</time>
      </trkpt>
      <trkpt lat="47.82919" lon="2.15658">
        <ele>99</ele>
        <time>2016-10-30T07:47:02.000Z</time>
      </trkpt>
      <trkpt lat="47.8292" lon="2.15665">
        <ele>99</ele>
        <time>2016-10-30T07:47:03.000Z</time>
      </trkpt>
      <trkpt lat="47.8292" lon="2.15672">
        <ele>99</ele>
        <time>2016-10-30T07:47:04.000Z</time>
      </trkpt>
      <trkpt lat="47.8292" lon="2.15679">
        <ele>100</ele>
        <time>2016-10-30T07:47:05.000Z</time>
      </trkpt>
      <trkpt lat="47.8292" lon="2.15686">
        <ele>99</ele>
        <time>2016-10-30T07:47:06.000Z</time>
      </trkpt>
      <trkpt lat="47.82919" lon="2.15693">
        <ele>99</ele>
        <time>2016-10-30T07:47:07.000Z</time>
      </trkpt>
      <trkpt lat="47.82918" lon="2.15699">
        <ele>99</ele>
        <time>2016-10-30T07:47:08.000Z</time>
      </trkpt>
      <trkpt lat="47.82917" lon="2.15706">
        <ele>100</ele>
        <time>2016-10-30T07:47:09.000Z</time>
      </trkpt>
      <trkpt lat="47.82916" lon="2.15712">
        <ele>100</ele>
        <time>2016-10-30T07:47:10.000Z</time>
      </trkpt>
      <trkpt lat="47.82914" lon="2.15719">
        <ele>100</ele>
        <time>2016-10-30T07:47:11.000Z</time>
      </trkpt>
      <trkpt lat="47.82912" lon="2.15725">
        <ele>100</ele>
        <time>2016-10-30T07:47:12.000Z</time>
      </trkpt>
      <trkpt lat="47.82909" lon="2.15731">
        <ele>100</ele>
        <time>2016-10-30T07:47:13.000Z</time>
      </trkpt>
      <trkpt lat="47.82906" lon="2.15737">
        <ele>100</ele>
        <time>2016-10-30T07:47:14.000Z</time>
      </trkpt>
      <trkpt lat="47.82903" lon="2.15742">
        <ele>100</ele>
        <time>2016-10-30T07:47:15.000Z</time>
      </trkpt>
      <trkpt lat="47.829" lon="2.15748">
        <ele>100</ele>
        <time>2016-10-30T07:47:16.000Z</time>
      </trkpt>
      <trkpt lat="47.82897" lon="2.15753">
        <ele>100</ele>
        <time>2016-10-30T07:47:17.000Z</time>
      </trkpt>
      <trkpt lat="47.82894" lon="2.15758">
        <ele>100</ele>
        <time>2016-10-30T07:47:18.000Z</time>
      </trkpt>
      <trkpt lat="47.82891" lon="2.15764">
        <ele>100</ele>
        <time>2016-10-30T07:47:19.000Z</time>
      </trkpt>
      <trkpt lat="47.82888" lon="2.15769">
        <ele>100</ele>
        <time>2016-10-30T07:47:20.000Z</time>
      </trkpt>
      <trkpt lat="47.82885" lon="2.15775">
        <ele>100</ele>
        <time>2016-10-30T07:47:21.000Z</time>
      </trkpt>
      <trkpt lat="47.82883" lon="2.15781">
        <ele>100</ele>
        <time>2016-10-30T07:47:22.000Z</time>
      </trkpt>
      <trkpt lat="47.82881" lon="2.15788">
        <ele>100</ele>
        <time>2016-10-30T07:47:23.000Z</time>
      </trkpt>
      <trkpt lat="47.8288" lon="2.15795">
        <ele>100</ele>
        <time>2016-10-30T07:47:24.000Z</time>
      </trkpt>
      <trkpt lat="47.8288" lon="2.15801">
        <ele>100</ele>
        <time>2016-10-30T07:47:25.000Z</time>
      </trkpt>
      <trkpt lat="47.8288" lon="2.15808">
        <ele>100</ele>
        <time>2016-10-30T07:47:26.000Z</time>
      </trkpt>
      <trkpt lat="47.8288" lon="2.15815">
        <ele>100</ele>
        <time>2016-10-30T07:47:27.000Z</time>
      </trkpt>
      <trkpt lat="47.82881" lon="2.15821">
        <ele>100</ele>
        <time>2016-10-30T07:47:28.000Z</time>
      </trkpt>
      <trkpt lat="47.82882" lon="2.15827">
        <ele>100</ele>
        <time>2016-10-30T07:47:29.000Z</time>
      </trkpt>
      <trkpt lat="47.82883" lon="2.15833">
        <ele>100</ele>
        <time>2016-10-30T07:47:30.000Z</time>
      </trkpt>
      <trkpt lat="47.82884" lon="2.1584">
        <ele>100</ele>
        <time>2016-10-30T07:47:31.000Z</time>
      </trkpt>
      <trkpt lat="47.82886" lon="2.15846">
        <ele>100</ele>
        <time>2016-10-30T07:47:32.000Z</time>
      </trkpt>
      <trkpt lat="47.82887" lon="2.15852">
        <ele>100</ele>
        <time>2016-10-30T07:47:33.000Z</time>
      </trkpt>
      <trkpt lat="47.82889" lon="2.15859">
        <ele>100</ele>
        <time>2016-10-30T07:47:34.000Z</time>
      </trkpt>
      <trkpt lat="47.8289" lon="2.15865">
        <ele>100</ele>
        <time>2016-10-30T07:47:35.000Z</time>
      </trkpt>
      <trkpt lat="47.82892" lon="2.15872">
        <ele>100</ele>
        <time>2016-10-30T07:47:36.000Z</time>
      </trkpt>
      <trkpt lat="47.82893" lon="2.15878">
        <ele>100</ele>
        <time>2016-10-30T07:47:37.000Z</time>
      </trkpt>
      <trkpt lat="47.82894" lon="2.15885">
        <ele>100</ele>
        <time>2016-10-30T07:47:38.000Z</time>
      </trkpt>
      <trkpt lat="47.82896" lon="2.15891">
        <ele>100</ele>
        <time>2016-10-30T07:47:39.000Z</time>
      </trkpt>
      <trkpt lat="47.82897" lon="2.15898">
        <ele>100</ele>
        <time>2016-10-30T07:47:40.000Z</time>
      </trkpt>
      <trkpt lat="47.82899" lon="2.15905">
        <ele>100</ele>
        <time>2016-10-30T07:47:41.000Z</time>
      </trkpt>
      <trkpt lat="47.829" lon="2.15912">
        <ele>100</ele>
        <time>2016-10-30T07:47:42.000Z</time>
      </trkpt>
      <trkpt lat="47.82902" lon="2.15918">
        <ele>100</ele>
        <time>2016-10-30T07:47:43.000Z</time>
      </trkpt>
      <trkpt lat="47.82903" lon="2.15925">
        <ele>100</ele>
        <time>2016-10-30T07:47:44.000Z</time>
      </trkpt>
      <trkpt lat="47.82905" lon="2.15932">
        <ele>100</ele>
        <time>2016-10-30T07:47:45.000Z</time>
      </trkpt>
      <trkpt lat="47.82907" lon="2.15939">
        <ele>100</ele>
        <time>2016-10-30T07:47:46.000Z</time>
      </trkpt>
      <trkpt lat="47.82908" lon="2.15946">
        <ele>100</ele>
        <time>2016-10-30T07:47:47.000Z</time>
      </trkpt>
      <trkpt lat="47.8291" lon="2.15953">
        <ele>100</ele>
        <time>2016-10-30T07:47:48.000Z</time>
      </trkpt>
      <trkpt lat="47.82912" lon="2.1596">
        <ele>100</ele>
        <time>2016-10-30T07:47:49.000Z</time>
      </trkpt>
      <trkpt lat="47.82914" lon="2.15967">
        <ele>100</ele>
        <time>2016-10-30T07:47:50.000Z</time>
      </trkpt>
      <trkpt lat="47.82916" lon="2.15974">
        <ele>101</ele>
        <time>2016-10-30T07:47:51.000Z</time>
      </trkpt>
      <trkpt lat="47.82918" lon="2.15981">
        <ele>101</ele>
        <time>2016-10-30T07:47:52.000Z</time>
      </trkpt>
      <trkpt lat="47.8292" lon="2.15988">
        <ele>101</ele>
        <time>2016-10-30T07:47:53.000Z</time>
      </trkpt>
      <trkpt lat="47.82922" lon="2.15995">
        <ele>101</ele>
        <time>2016-10-30T07:47:54.000Z</time>
      </trkpt>
      <trkpt lat="47.82924" lon="2.16001">
        <ele>101</ele>
        <time>2016-10-30T07:47:55.000Z</time>
      </trkpt>
      <trkpt lat="47.82926" lon="2.16008">
        <ele>101</ele>
        <time>2016-10-30T07:47:56.000Z</time>
      </trkpt>
      <trkpt lat="47.82929" lon="2.16015">
        <ele>101</ele>
        <time>2016-10-30T07:47:57.000Z</time>
      </trkpt>
      <trkpt lat="47.82931" lon="2.16022">
        <ele>101</ele>
        <time>2016-10-30T07:47:58.000Z</time>
      </trkpt>
      <trkpt lat="47.82933" lon="2.16028">
        <ele>101</ele>
        <time>2016-10-30T07:47:59.000Z</time>
      </trkpt>
      <trkpt lat="47.82935" lon="2.16035">
        <ele>101</ele>
        <time>2016-10-30T07:48:00.000Z</time>
      </trkpt>
      <trkpt lat="47.82937" lon="2.16042">
        <ele>101</ele>
        <time>2016-10-30T07:48:01.000Z</time>
      </trkpt>
      <trkpt lat="47.82939" lon="2.16049">
        <ele>101</ele>
        <time>2016-10-30T07:48:02.000Z</time>
      </trkpt>
      <trkpt lat="47.82941" lon="2.16055">
        <ele>101</ele>
        <time>2016-10-30T07:48:03.000Z</time>
      </trkpt>
      <trkpt lat="47.82943" lon="2.16062">
        <ele>101</ele>
        <time>2016-10-30T07:48:04.000Z</time>
      </trkpt>
      <trkpt lat="47.82946" lon="2.16069">
        <ele>101</ele>
        <time>2016-10-30T07:48:05.000Z</time>
      </trkpt>
      <trkpt lat="47.82948" lon="2.16075">
        <ele>101</ele>
        <time>2016-10-30T07:48:06.000Z</time>
      </trkpt>
      <trkpt lat="47.8295" lon="2.16082">
        <ele>101</ele>
        <time>2016-10-30T07:48:07.000Z</time>
      </trkpt>
      <trkpt lat="47.82952" lon="2.16088">
        <ele>101</ele>
        <time>2016-10-30T07:48:08.000Z</time>
      </trkpt>
      <trkpt lat="47.82954" lon="2.16095">
        <ele>101</ele>
        <time>2016-10-30T07:48:09.000Z</time>
      </trkpt>
      <trkpt lat="47.82956" lon="2.16101">
        <ele>101</ele>
        <time>2016-10-30T07:48:10.000Z</time>
      </trkpt>
      <trkpt lat="47.82958" lon="2.16108">
        <ele>101</ele>
        <time>2016-10-30T07:48:11.000Z</time>
      </trkpt>
      <trkpt lat="47.8296" lon="2.16115">
        <ele>101</ele>
        <time>2016-10-30T07:48:12.000Z</time>
      </trkpt>
      <trkpt lat="47.82962" lon="2.16121">
        <ele>101</ele>
        <time>2016-10-30T07:48:13.000Z</time>
      </trkpt>
      <trkpt lat="47.82964" lon="2.16128">
        <ele>101</ele>
        <time>2016-10-30T07:48:14.000Z</time>
      </trkpt>
      <trkpt lat="47.82966" lon="2.16135">
        <ele>100</ele>
        <time>2016-10-30T07:48:15.000Z</time>
      </trkpt>
      <trkpt lat="47.82969" lon="2.16142">
        <ele>100</ele>
        <time>2016-10-30T07:48:16.000Z</time>
      </trkpt>
      <trkpt lat="47.82971" lon="2.16148">
        <ele>100</ele>
        <time>2016-10-30T07:48:17.000Z</time>
      </trkpt>
      <trkpt lat="47.82973" lon="2.16155">
        <ele>101</ele>
        <time>2016-10-30T07:48:18.000Z</time>
      </trkpt>
      <trkpt lat="47.82975" lon="2.16162">
        <ele>100</ele>
        <time>2016-10-30T07:48:19.000Z</time>
      </trkpt>
      <trkpt lat="47.82977" lon="2.1617">
        <ele>100</ele>
        <time>2016-10-30T07:48:20.000Z</time>
      </trkpt>
      <trkpt lat="47.8298" lon="2.16177">
        <ele>100</ele>
        <time>2016-10-30T07:48:21.000Z</time>
      </trkpt>
      <trkpt lat="47.82982" lon="2.16184">
        <ele>100</ele>
        <time>2016-10-30T07:48:22.000Z</time>
      </trkpt>
      <trkpt lat="47.82984" lon="2.16191">
        <ele>101</ele>
        <time>2016-10-30T07:48:23.000Z</time>
      </trkpt>
      <trkpt lat="47.82986" lon="2.16199">
        <ele>101</ele>
        <time>2016-10-30T07:48:24.000Z</time>
      </trkpt>
      <trkpt lat="47.82988" lon="2.16206">
        <ele>101</ele>
        <time>2016-10-30T07:48:25.000Z</time>
      </trkpt>
      <trkpt lat="47.8299" lon="2.16213">
        <ele>101</ele>
        <time>2016-10-30T07:48:26.000Z</time>
      </trkpt>
      <trkpt lat="47.82991" lon="2.16221">
        <ele>100</ele>
        <time>2016-10-30T07:48:27.000Z</time>
      </trkpt>
      <trkpt lat="47.82993" lon="2.16228">
        <ele>100</ele>
        <time>2016-10-30T07:48:28.000Z</time>
      </trkpt>
      <trkpt lat="47.82995" lon="2.16235">
        <ele>100</ele>
        <time>2016-10-30T07:48:29.000Z</time>
      </trkpt>
      <trkpt lat="47.82997" lon="2.16242">
        <ele>101</ele>
        <time>2016-10-30T07:48:30.000Z</time>
      </trkpt>
      <trkpt lat="47.82998" lon="2.16249">
        <ele>100</ele>
        <time>2016-10-30T07:48:31.000Z</time>
      </trkpt>
      <trkpt lat="47.83" lon="2.16257">
        <ele>100</ele>
        <time>2016-10-30T07:48:32.000Z</time>
      </trkpt>
      <trkpt lat="47.83001" lon="2.16264">
        <ele>100</ele>
        <time>2016-10-30T07:48:33.000Z</time>
      </trkpt>
      <trkpt lat="47.83003" lon="2.16272">
        <ele>100</ele>
        <time>2016-10-30T07:48:34.000Z</time>
      </trkpt>
      <trkpt lat="47.83004" lon="2.16279">
        <ele>100</ele>
        <time>2016-10-30T07:48:35.000Z</time>
      </trkpt>
      <trkpt lat="47.83005" lon="2.16287">
        <ele>100</ele>
        <time>2016-10-30T07:48:36.000Z</time>
      </trkpt>
      <trkpt lat="47.83007" lon="2.16294">
        <ele>100</ele>
        <time>2016-10-30T07:48:37.000Z</time>
      </trkpt>
      <trkpt lat="47.83008" lon="2.16301">
        <ele>100</ele>
        <time>2016-10-30T07:48:38.000Z</time>
      </trkpt>
      <trkpt lat="47.8301" lon="2.16308">
        <ele>100</ele>
        <time>2016-10-30T07:48:39.000Z</time>
      </trkpt>
      <trkpt lat="47.83011" lon="2.16315">
        <ele>100</ele>
        <time>2016-10-30T07:48:40.000Z</time>
      </trkpt>
      <trkpt lat="47.83013" lon="2.16322">
        <ele>100</ele>
        <time>2016-10-30T07:48:41.000Z</time>
      </trkpt>
      <trkpt lat="47.83016" lon="2.16328">
        <ele>100</ele>
        <time>2016-10-30T07:48:42.000Z</time>
      </trkpt>
      <trkpt lat="47.83018" lon="2.16335">
        <ele>100</ele>
        <time>2016-10-30T07:48:43.000Z</time>
      </trkpt>
      <trkpt lat="47.8302" lon="2.16341">
        <ele>100</ele>
        <time>2016-10-30T07:48:44.000Z</time>
      </trkpt>
      <trkpt lat="47.83023" lon="2.16348">
        <ele>100</ele>
        <time>2016-10-30T07:48:45.000Z</time>
      </trkpt>
      <trkpt lat="47.83026" lon="2.16354">
        <ele>100</ele>
        <time>2016-10-30T07:48:46.000Z</time>
      </trkpt>
      <trkpt lat="47.83028" lon="2.16361">
        <ele>100</ele>
        <time>2016-10-30T07:48:47.000Z</time>
      </trkpt>
      <trkpt lat="47.83031" lon="2.16367">
        <ele>100</ele>
        <time>2016-10-30T07:48:48.000Z</time>
      </trkpt>
      <trkpt lat="47.83033" lon="2.16374">
        <ele>100</ele>
        <time>2016-10-30T07:48:49.000Z</time>
      </trkpt>
      <trkpt lat="47.83036" lon="2.16381">
        <ele>100</ele>
        <time>2016-10-30T07:48:50.000Z</time>
      </trkpt>
      <trkpt lat="47.83038" lon="2.16387">
        <ele>100</ele>
        <time>2016-10-30T07:48:51.000Z</time>
      </trkpt>
      <trkpt lat="47.83041" lon="2.16394">
        <ele>100</ele>
        <time>2016-10-30T07:48:52.000Z</time>
      </trkpt>
      <trkpt lat="47.83043" lon="2.16401">
        <ele>100</ele>
        <time>2016-10-30T07:48:53.000Z</time>
      </trkpt>
      <trkpt lat="47.83044" lon="2.16408">
        <ele>100</ele>
        <time>2016-10-30T07:48:54.000Z</time>
      </trkpt>
      <trkpt lat="47.83046" lon="2.16415">
        <ele>100</ele>
        <time>2016-10-30T07:48:55.000Z</time>
      </trkpt>
      <trkpt lat="47.83048" lon="2.16422">
        <ele>100</ele>
        <time>2016-10-30T07:48:56.000Z</time>
      </trkpt>
      <trkpt lat="47.83049" lon="2.16429">
        <ele>100</ele>
        <time>2016-10-30T07:48:57.000Z</time>
      </trkpt>
      <trkpt lat="47.8305" lon="2.16436">
        <ele>100</ele>
        <time>2016-10-30T07:48:58.000Z</time>
      </trkpt>
      <trkpt lat="47.83051" lon="2.16444">
        <ele>100</ele>
        <time>2016-10-30T07:48:59.000Z</time>
      </trkpt>
      <trkpt lat="47.83052" lon="2.16452">
        <ele>99</ele>
        <time>2016-10-30T07:49:00.000Z</time>
      </trkpt>
      <trkpt lat="47.83053" lon="2.16459">
        <ele>99</ele>
        <time>2016-10-30T07:49:01.000Z</time>
      </trkpt>
      <trkpt lat="47.83053" lon="2.16467">
        <ele>99</ele>
        <time>2016-10-30T07:49:02.000Z</time>
      </trkpt>
      <trkpt lat="47.83054" lon="2.16475">
        <ele>99</ele>
        <time>2016-10-30T07:49:03.000Z</time>
      </trkpt>
      <trkpt lat="47.83055" lon="2.16483">
        <ele>99</ele>
        <time>2016-10-30T07:49:04.000Z</time>
      </trkpt>
      <trkpt lat="47.83055" lon="2.16491">
        <ele>99</ele>
        <time>2016-10-30T07:49:05.000Z</time>
      </trkpt>
      <trkpt lat="47.83056" lon="2.16498">
        <ele>99</ele>
        <time>2016-10-30T07:49:06.000Z</time>
      </trkpt>
      <trkpt lat="47.83056" lon="2.16506">
        <ele>99</ele>
        <time>2016-10-30T07:49:07.000Z</time>
      </trkpt>
      <trkpt lat="47.83057" lon="2.16513">
        <ele>99</ele>
        <time>2016-10-30T07:49:08.000Z</time>
      </trkpt>
      <trkpt lat="47.83057" lon="2.16521">
        <ele>99</ele>
        <time>2016-10-30T07:49:09.000Z</time>
      </trkpt>
      <trkpt lat="47.83057" lon="2.16529">
        <ele>99</ele>
        <time>2016-10-30T07:49:10.000Z</time>
      </trkpt>
      <trkpt lat="47.83057" lon="2.16537">
        <ele>99</ele>
        <time>2016-10-30T07:49:11.000Z</time>
      </trkpt>
      <trkpt lat="47.83057" lon="2.16544">
        <ele>99</ele>
        <time>2016-10-30T07:49:12.000Z</time>
      </trkpt>
      <trkpt lat="47.83056" lon="2.16552">
        <ele>99</ele>
        <time>2016-10-30T07:49:13.000Z</time>
      </trkpt>
      <trkpt lat="47.83056" lon="2.1656">
        <ele>99</ele>
        <time>2016-10-30T07:49:14.000Z</time>
      </trkpt>
      <trkpt lat="47.83055" lon="2.16567">
        <ele>99</ele>
        <time>2016-10-30T07:49:15.000Z</time>
      </trkpt>
      <trkpt lat="47.83054" lon="2.16574">
        <ele>99</ele>
        <time>2016-10-30T07:49:16.000Z</time>
      </trkpt>
      <trkpt lat="47.83052" lon="2.16582">
        <ele>99</ele>
        <time>2016-10-30T07:49:17.000Z</time>
      </trkpt>
      <trkpt lat="47.83051" lon="2.16589">
        <ele>99</ele>
        <time>2016-10-30T07:49:18.000Z</time>
      </trkpt>
      <trkpt lat="47.8305" lon="2.16597">
        <ele>99</ele>
        <time>2016-10-30T07:49:19.000Z</time>
      </trkpt>
      <trkpt lat="47.83049" lon="2.16604">
        <ele>99</ele>
        <time>2016-10-30T07:49:20.000Z</time>
      </trkpt>
      <trkpt lat="47.83048" lon="2.16611">
        <ele>99</ele>
        <time>2016-10-30T07:49:21.000Z</time>
      </trkpt>
      <trkpt lat="47.83048" lon="2.16619">
        <ele>99</ele>
        <time>2016-10-30T07:49:22.000Z</time>
      </trkpt>
      <trkpt lat="47.83048" lon="2.16626">
        <ele>99</ele>
        <time>2016-10-30T07:49:23.000Z</time>
      </trkpt>
      <trkpt lat="47.83048" lon="2.16633">
        <ele>100</ele>
        <time>2016-10-30T07:49:24.000Z</time>
      </trkpt>
      <trkpt lat="47.83049" lon="2.16641">
        <ele>100</ele>
        <time>2016-10-30T07:49:25.000Z</time>
      </trkpt>
      <trkpt lat="47.83051" lon="2.16648">
        <ele>100</ele>
        <time>2016-10-30T07:49:26.000Z</time>
      </trkpt>
      <trkpt lat="47.83052" lon="2.16655">
        <ele>100</ele>
        <time>2016-10-30T07:49:27.000Z</time>
      </trkpt>
      <trkpt lat="47.83054" lon="2.16662">
        <ele>100</ele>
        <time>2016-10-30T07:49:28.000Z</time>
      </trkpt>
      <trkpt lat="47.83055" lon="2.16669">
        <ele>100</ele>
        <time>2016-10-30T07:49:29.000Z</time>
      </trkpt>
      <trkpt lat="47.83057" lon="2.16676">
        <ele>100</ele>
        <time>2016-10-30T07:49:30.000Z</time>
      </trkpt>
      <trkpt lat="47.83058" lon="2.16683">
        <ele>100</ele>
        <time>2016-10-30T07:49:31.000Z</time>
      </trkpt>
      <trkpt lat="47.83059" lon="2.1669">
        <ele>100</ele>
        <time>2016-10-30T07:49:32.000Z</time>
      </trkpt>
      <trkpt lat="47.83061" lon="2.16697">
        <ele>101</ele>
        <time>2016-10-30T07:49:33.000Z</time>
      </trkpt>
      <trkpt lat="47.83062" lon="2.16704">
        <ele>101</ele>
        <time>2016-10-30T07:49:34.000Z</time>
      </trkpt>
      <trkpt lat="47.83063" lon="2.16711">
        <ele>101</ele>
        <time>2016-10-30T07:49:35.000Z</time>
      </trkpt>
      <trkpt lat="47.83064" lon="2.16719">
        <ele>101</ele>
        <time>2016-10-30T07:49:36.000Z</time>
      </trkpt>
      <trkpt lat="47.83065" lon="2.16726">
        <ele>101</ele>
        <time>2016-10-30T07:49:37.000Z</time>
      </trkpt>
      <trkpt lat="47.83066" lon="2.16733">
        <ele>101</ele>
        <time>2016-10-30T07:49:38.000Z</time>
      </trkpt>
      <trkpt lat="47.83067" lon="2.1674">
        <ele>101</ele>
        <time>2016-10-30T07:49:39.000Z</time>
      </trkpt>
      <trkpt lat="47.83068" lon="2.16747">
        <ele>101</ele>
        <time>2016-10-30T07:49:40.000Z</time>
      </trkpt>
      <trkpt lat="47.8307" lon="2.16754">
        <ele>101</ele>
        <time>2016-10-30T07:49:41.000Z</time>
      </trkpt>
      <trkpt lat="47.83071" lon="2.16762">
        <ele>101</ele>
        <time>2016-10-30T07:49:42.000Z</time>
      </trkpt>
      <trkpt lat="47.83072" lon="2.16769">
        <ele>101</ele>
        <time>2016-10-30T07:49:43.000Z</time>
      </trkpt>
      <trkpt lat="47.83073" lon="2.16776">
        <ele>101</ele>
        <time>2016-10-30T07:49:44.000Z</time>
      </trkpt>
      <trkpt lat="47.83075" lon="2.16784">
        <ele>101</ele>
        <time>2016-10-30T07:49:45.000Z</time>
      </trkpt>
      <trkpt lat="47.83076" lon="2.16791">
        <ele>101</ele>
        <time>2016-10-30T07:49:46.000Z</time>
      </trkpt>
      <trkpt lat="47.83077" lon="2.16798">
        <ele>101</ele>
        <time>2016-10-30T07:49:47.000Z</time>
      </trkpt>
      <trkpt lat="47.83078" lon="2.16806">
        <ele>101</ele>
        <time>2016-10-30T07:49:48.000Z</time>
      </trkpt>
      <trkpt lat="47.83079" lon="2.16813">
        <ele>101</ele>
        <time>2016-10-30T07:49:49.000Z</time>
      </trkpt>
      <trkpt lat="47.8308" lon="2.16821">
        <ele>101</ele>
        <time>2016-10-30T07:49:50.000Z</time>
      </trkpt>
      <trkpt lat="47.83081" lon="2.16828">
        <ele>101</ele>
        <time>2016-10-30T07:49:51.000Z</time>
      </trkpt>
      <trkpt lat="47.83082" lon="2.16836">
        <ele>101</ele>
        <time>2016-10-30T07:49:52.000Z</time>
      </trkpt>
      <trkpt lat="47.83083" lon="2.16844">
        <ele>101</ele>
        <time>2016-10-30T07:49:53.000Z</time>
      </trkpt>
      <trkpt lat="47.83084" lon="2.16851">
        <ele>101</ele>
        <time>2016-10-30T07:49:54.000Z</time>
      </trkpt>
      <trkpt lat="47.83086" lon="2.16859">
        <ele>101</ele>
        <time>2016-10-30T07:49:55.000Z</time>
      </trkpt>
      <trkpt lat="47.83087" lon="2.16867">
        <ele>101</ele>
        <time>2016-10-30T07:49:56.000Z</time>
      </trkpt>
      <trkpt lat="47.83088" lon="2.16874">
        <ele>101</ele>
        <time>2016-10-30T07:49:57.000Z</time>
      </trkpt>
      <trkpt lat="47.83089" lon="2.16882">
        <ele>102</ele>
        <time>2016-10-30T07:49:58.000Z</time>
      </trkpt>
      <trkpt lat="47.83091" lon="2.1689">
        <ele>101</ele>
        <time>2016-10-30T07:49:59.000Z</time>
      </trkpt>
      <trkpt lat="47.83092" lon="2.16897">
        <ele>101</ele>
        <time>2016-10-30T07:50:00.000Z</time>
      </trkpt>
      <trkpt lat="47.83093" lon="2.16905">
        <ele>100</ele>
        <time>2016-10-30T07:50:01.000Z</time>
      </trkpt>
      <trkpt lat="47.83094" lon="2.16912">
        <ele>100</ele>
        <time>2016-10-30T07:50:02.000Z</time>
      </trkpt>
      <trkpt lat="47.83094" lon="2.1692">
        <ele>100</ele>
        <time>2016-10-30T07:50:03.000Z</time>
      </trkpt>
      <trkpt lat="47.83095" lon="2.16927">
        <ele>100</ele>
        <time>2016-10-30T07:50:04.000Z</time>
      </trkpt>
      <trkpt lat="47.83095" lon="2.16935">
        <ele>99</ele>
        <time>2016-10-30T07:50:05.000Z</time>
      </trkpt>
      <trkpt lat="47.83096" lon="2.16942">
        <ele>99</ele>
        <time>2016-10-30T07:50:06.000Z</time>
      </trkpt>
      <trkpt lat="47.83096" lon="2.16949">
        <ele>99</ele>
        <time>2016-10-30T07:50:07.000Z</time>
      </trkpt>
      <trkpt lat="47.83096" lon="2.16958">
        <ele>99</ele>
        <time>2016-10-30T07:50:08.000Z</time>
      </trkpt>
      <trkpt lat="47.83097" lon="2.16966">
        <ele>99</ele>
        <time>2016-10-30T07:50:09.000Z</time>
      </trkpt>
      <trkpt lat="47.83097" lon="2.16975">
        <ele>99</ele>
        <time>2016-10-30T07:50:10.000Z</time>
      </trkpt>
      <trkpt lat="47.83098" lon="2.16983">
        <ele>100</ele>
        <time>2016-10-30T07:50:11.000Z</time>
      </trkpt>
      <trkpt lat="47.83099" lon="2.16991">
        <ele>100</ele>
        <time>2016-10-30T07:50:12.000Z</time>
      </trkpt>
      <trkpt lat="47.83099" lon="2.17">
        <ele>100</ele>
        <time>2016-10-30T07:50:13.000Z</time>
      </trkpt>
      <trkpt lat="47.831" lon="2.17008">
        <ele>100</ele>
        <time>2016-10-30T07:50:14.000Z</time>
      </trkpt>
      <trkpt lat="47.83101" lon="2.17016">
        <ele>100</ele>
        <time>2016-10-30T07:50:15.000Z</time>
      </trkpt>
      <trkpt lat="47.83102" lon="2.17025">
        <ele>100</ele>
        <time>2016-10-30T07:50:16.000Z</time>
      </trkpt>
      <trkpt lat="47.83102" lon="2.17033">
        <ele>101</ele>
        <time>2016-10-30T07:50:17.000Z</time>
      </trkpt>
      <trkpt lat="47.83103" lon="2.17041">
        <ele>101</ele>
        <time>2016-10-30T07:50:18.000Z</time>
      </trkpt>
      <trkpt lat="47.83104" lon="2.17048">
        <ele>101</ele>
        <time>2016-10-30T07:50:19.000Z</time>
      </trkpt>
      <trkpt lat="47.83105" lon="2.17055">
        <ele>101</ele>
        <time>2016-10-30T07:50:20.000Z</time>
      </trkpt>
      <trkpt lat="47.83106" lon="2.17062">
        <ele>101</ele>
        <time>2016-10-30T07:50:21.000Z</time>
      </trkpt>
      <trkpt lat="47.83107" lon="2.17069">
        <ele>101</ele>
        <time>2016-10-30T07:50:22.000Z</time>
      </trkpt>
      <trkpt lat="47.83108" lon="2.17077">
        <ele>101</ele>
        <time>2016-10-30T07:50:23.000Z</time>
      </trkpt>
      <trkpt lat="47.83109" lon="2.17085">
        <ele>101</ele>
        <time>2016-10-30T07:50:24.000Z</time>
      </trkpt>
      <trkpt lat="47.8311" lon="2.17093">
        <ele>101</ele>
        <time>2016-10-30T07:50:25.000Z</time>
      </trkpt>
      <trkpt lat="47.8311" lon="2.171">
        <ele>101</ele>
        <time>2016-10-30T07:50:26.000Z</time>
      </trkpt>
      <trkpt lat="47.83111" lon="2.17108">
        <ele>101</ele>
        <time>2016-10-30T07:50:27.000Z</time>
      </trkpt>
      <trkpt lat="47.83112" lon="2.17116">
        <ele>101</ele>
        <time>2016-10-30T07:50:28.000Z</time>
      </trkpt>
      <trkpt lat="47.83113" lon="2.17123">
        <ele>101</ele>
        <time>2016-10-30T07:50:29.000Z</time>
      </trkpt>
      <trkpt lat="47.83114" lon="2.1713">
        <ele>100</ele>
        <time>2016-10-30T07:50:30.000Z</time>
      </trkpt>
      <trkpt lat="47.83115" lon="2.17137">
        <ele>100</ele>
        <time>2016-10-30T07:50:31.000Z</time>
      </trkpt>
      <trkpt lat="47.83116" lon="2.17143">
        <ele>100</ele>
        <time>2016-10-30T07:50:32.000Z</time>
      </trkpt>
      <trkpt lat="47.83117" lon="2.17149">
        <ele>100</ele>
        <time>2016-10-30T07:50:33.000Z</time>
      </trkpt>
      <trkpt lat="47.83118" lon="2.17155">
        <ele>101</ele>
        <time>2016-10-30T07:50:34.000Z</time>
      </trkpt>
      <trkpt lat="47.83118" lon="2.17161">
        <ele>101</ele>
        <time>2016-10-30T07:50:35.000Z</time>
      </trkpt>
      <trkpt lat="47.83119" lon="2.17168">
        <ele>101</ele>
        <time>2016-10-30T07:50:36.000Z</time>
      </trkpt>
      <trkpt lat="47.8312" lon="2.17174">
        <ele>101</ele>
        <time>2016-10-30T07:50:37.000Z</time>
      </trkpt>
      <trkpt lat="47.83121" lon="2.17181">
        <ele>101</ele>
        <time>2016-10-30T07:50:38.000Z</time>
      </trkpt>
      <trkpt lat="47.83121" lon="2.17188">
        <ele>101</ele>
        <time>2016-10-30T07:50:39.000Z</time>
      </trkpt>
      <trkpt lat="47.83122" lon="2.17196">
        <ele>101</ele>
        <time>2016-10-30T07:50:40.000Z</time>
      </trkpt>
      <trkpt lat="47.83123" lon="2.17203">
        <ele>101</ele>
        <time>2016-10-30T07:50:41.000Z</time>
      </trkpt>
      <trkpt lat="47.83124" lon="2.1721">
        <ele>101</ele>
        <time>2016-10-30T07:50:42.000Z</time>
      </trkpt>
      <trkpt lat="47.83125" lon="2.17218">
        <ele>101</ele>
        <time>2016-10-30T07:50:43.000Z</time>
      </trkpt>
      <trkpt lat="47.83126" lon="2.17226">
        <ele>101</ele>
        <time>2016-10-30T07:50:44.000Z</time>
      </trkpt>
      <trkpt lat="47.83127" lon="2.17234">
        <ele>101</ele>
        <time>2016-10-30T07:50:45.000Z</time>
      </trkpt>
      <trkpt lat="47.83128" lon="2.17242">
        <ele>101</ele>
        <time>2016-10-30T07:50:46.000Z</time>
      </trkpt>
      <trkpt lat="47.83129" lon="2.1725">
        <ele>101</ele>
        <time>2016-10-30T07:50:47.000Z</time>
      </trkpt>
      <trkpt lat="47.8313" lon="2.17258">
        <ele>101</ele>
        <time>2016-10-30T07:50:48.000Z</time>
      </trkpt>
      <trkpt lat="47.83131" lon="2.17266">
        <ele>101</ele>
        <time>2016-10-30T07:50:49.000Z</time>
      </trkpt>
      <trkpt lat="47.83132" lon="2.17274">
        <ele>101</ele>
        <time>2016-10-30T07:50:50.000Z</time>
      </trkpt>
      <trkpt lat="47.83133" lon="2.17282">
        <ele>101</ele>
        <time>2016-10-30T07:50:51.000Z</time>
      </trkpt>
      <trkpt lat="47.83134" lon="2.1729">
        <ele>101</ele>
        <time>2016-10-30T07:50:52.000Z</time>
      </trkpt>
      <trkpt lat="47.83135" lon="2.17298">
        <ele>101</ele>
        <time>2016-10-30T07:50:53.000Z</time>
      </trkpt>
      <trkpt lat="47.83136" lon="2.17307">
        <ele>100</ele>
        <time>2016-10-30T07:50:54.000Z</time>
      </trkpt>
      <trkpt lat="47.83137" lon="2.17315">
        <ele>100</ele>
        <time>2016-10-30T07:50:55.000Z</time>
      </trkpt>
      <trkpt lat="47.83138" lon="2.17323">
        <ele>100</ele>
        <time>2016-10-30T07:50:56.000Z</time>
      </trkpt>
      <trkpt lat="47.83139" lon="2.17331">
        <ele>100</ele>
        <time>2016-10-30T07:50:57.000Z</time>
      </trkpt>
      <trkpt lat="47.8314" lon="2.17338">
        <ele>100</ele>
        <time>2016-10-30T07:50:58.000Z</time>
      </trkpt>
      <trkpt lat="47.83141" lon="2.17346">
        <ele>100</ele>
        <time>2016-10-30T07:50:59.000Z</time>
      </trkpt>
      <trkpt lat="47.83141" lon="2.17354">
        <ele>100</ele>
        <time>2016-10-30T07:51:00.000Z</time>
      </trkpt>
      <trkpt lat="47.83142" lon="2.17362">
        <ele>101</ele>
        <time>2016-10-30T07:51:01.000Z</time>
      </trkpt>
      <trkpt lat="47.83143" lon="2.1737">
        <ele>101</ele>
        <time>2016-10-30T07:51:02.000Z</time>
      </trkpt>
      <trkpt lat="47.83144" lon="2.17377">
        <ele>101</ele>
        <time>2016-10-30T07:51:03.000Z</time>
      </trkpt>
      <trkpt lat="47.83145" lon="2.17385">
        <ele>101</ele>
        <time>2016-10-30T07:51:04.000Z</time>
      </trkpt>
      <trkpt lat="47.83146" lon="2.17393">
        <ele>101</ele>
        <time>2016-10-30T07:51:05.000Z</time>
      </trkpt>
      <trkpt lat="47.83148" lon="2.17401">
        <ele>101</ele>
        <time>2016-10-30T07:51:06.000Z</time>
      </trkpt>
      <trkpt lat="47.83149" lon="2.17409">
        <ele>101</ele>
        <time>2016-10-30T07:51:07.000Z</time>
      </trkpt>
      <trkpt lat="47.8315" lon="2.17416">
        <ele>101</ele>
        <time>2016-10-30T07:51:08.000Z</time>
      </trkpt>
      <trkpt lat="47.83151" lon="2.17424">
        <ele>101</ele>
        <time>2016-10-30T07:51:09.000Z</time>
      </trkpt>
      <trkpt lat="47.83152" lon="2.17431">
        <ele>101</ele>
        <time>2016-10-30T07:51:10.000Z</time>
      </trkpt>
      <trkpt lat="47.83153" lon="2.17439">
        <ele>101</ele>
        <time>2016-10-30T07:51:11.000Z</time>
      </trkpt>
      <trkpt lat="47.83154" lon="2.17446">
        <ele>101</ele>
        <time>2016-10-30T07:51:12.000Z</time>
      </trkpt>
      <trkpt lat="47.83155" lon="2.17454">
        <ele>101</ele>
        <time>2016-10-30T07:51:13.000Z</time>
      </trkpt>
      <trkpt lat="47.83156" lon="2.17461">
        <ele>101</ele>
        <time>2016-10-30T07:51:14.000Z</time>
      </trkpt>
      <trkpt lat="47.83156" lon="2.17469">
        <ele>101</ele>
        <time>2016-10-30T07:51:15.000Z</time>
      </trkpt>
      <trkpt lat="47.83157" lon="2.17477">
        <ele>101</ele>
        <time>2016-10-30T07:51:16.000Z</time>
      </trkpt>
      <trkpt lat="47.83158" lon="2.17484">
        <ele>101</ele>
        <time>2016-10-30T07:51:17.000Z</time>
      </trkpt>
      <trkpt lat="47.83159" lon="2.17492">
        <ele>101</ele>
        <time>2016-10-30T07:51:18.000Z</time>
      </trkpt>
      <trkpt lat="47.8316" lon="2.17499">
        <ele>101</ele>
        <time>2016-10-30T07:51:19.000Z</time>
      </trkpt>
      <trkpt lat="47.83162" lon="2.17507">
        <ele>101</ele>
        <time>2016-10-30T07:51:20.000Z</time>
      </trkpt>
      <trkpt lat="47.83163" lon="2.17515">
        <ele>101</ele>
        <time>2016-10-30T07:51:21.000Z</time>
      </trkpt>
      <trkpt lat="47.83163" lon="2.17522">
        <ele>101</ele>
        <time>2016-10-30T07:51:22.000Z</time>
      </trkpt>
      <trkpt lat="47.83164" lon="2.1753">
        <ele>101</ele>
        <time>2016-10-30T07:51:23.000Z</time>
      </trkpt>
      <trkpt lat="47.83165" lon="2.17538">
        <ele>101</ele>
        <time>2016-10-30T07:51:24.000Z</time>
      </trkpt>
      <trkpt lat="47.83166" lon="2.17545">
        <ele>101</ele>
        <time>2016-10-30T07:51:25.000Z</time>
      </trkpt>
      <trkpt lat="47.83167" lon="2.17553">
        <ele>101</ele>
        <time>2016-10-30T07:51:26.000Z</time>
      </trkpt>
      <trkpt lat="47.83167" lon="2.17561">
        <ele>102</ele>
        <time>2016-10-30T07:51:27.000Z</time>
      </trkpt>
      <trkpt lat="47.83168" lon="2.17569">
        <ele>102</ele>
        <time>2016-10-30T07:51:28.000Z</time>
      </trkpt>
      <trkpt lat="47.83169" lon="2.17577">
        <ele>101</ele>
        <time>2016-10-30T07:51:29.000Z</time>
      </trkpt>
      <trkpt lat="47.83169" lon="2.17584">
        <ele>101</ele>
        <time>2016-10-30T07:51:30.000Z</time>
      </trkpt>
      <trkpt lat="47.8317" lon="2.17592">
        <ele>101</ele>
        <time>2016-10-30T07:51:31.000Z</time>
      </trkpt>
      <trkpt lat="47.83171" lon="2.17599">
        <ele>101</ele>
        <time>2016-10-30T07:51:32.000Z</time>
      </trkpt>
      <trkpt lat="47.83172" lon="2.17607">
        <ele>101</ele>
        <time>2016-10-30T07:51:33.000Z</time>
      </trkpt>
      <trkpt lat="47.83173" lon="2.17615">
        <ele>101</ele>
        <time>2016-10-30T07:51:34.000Z</time>
      </trkpt>
      <trkpt lat="47.83174" lon="2.17622">
        <ele>101</ele>
        <time>2016-10-30T07:51:35.000Z</time>
      </trkpt>
      <trkpt lat="47.83175" lon="2.1763">
        <ele>101</ele>
        <time>2016-10-30T07:51:36.000Z</time>
      </trkpt>
      <trkpt lat="47.83176" lon="2.17637">
        <ele>102</ele>
        <time>2016-10-30T07:51:37.000Z</time>
      </trkpt>
      <trkpt lat="47.83177" lon="2.17645">
        <ele>101</ele>
        <time>2016-10-30T07:51:38.000Z</time>
      </trkpt>
      <trkpt lat="47.83178" lon="2.17652">
        <ele>101</ele>
        <time>2016-10-30T07:51:39.000Z</time>
      </trkpt>
      <trkpt lat="47.83179" lon="2.1766">
        <ele>101</ele>
        <time>2016-10-30T07:51:40.000Z</time>
      </trkpt>
      <trkpt lat="47.8318" lon="2.17667">
        <ele>101</ele>
        <time>2016-10-30T07:51:41.000Z</time>
      </trkpt>
      <trkpt lat="47.83182" lon="2.17675">
        <ele>101</ele>
        <time>2016-10-30T07:51:42.000Z</time>
      </trkpt>
      <trkpt lat="47.83183" lon="2.17682">
        <ele>101</ele>
        <time>2016-10-30T07:51:43.000Z</time>
      </trkpt>
      <trkpt lat="47.83185" lon="2.17689">
        <ele>101</ele>
        <time>2016-10-30T07:51:44.000Z</time>
      </trkpt>
      <trkpt lat="47.83187" lon="2.17696">
        <ele>102</ele>
        <time>2016-10-30T07:51:45.000Z</time>
      </trkpt>
      <trkpt lat="47.83189" lon="2.17703">
        <ele>102</ele>
        <time>2016-10-30T07:51:46.000Z</time>
      </trkpt>
      <trkpt lat="47.83191" lon="2.1771">
        <ele>102</ele>
        <time>2016-10-30T07:51:47.000Z</time>
      </trkpt>
      <trkpt lat="47.83193" lon="2.17717">
        <ele>102</ele>
        <time>2016-10-30T07:51:48.000Z</time>
      </trkpt>
      <trkpt lat="47.83195" lon="2.17724">
        <ele>102</ele>
        <time>2016-10-30T07:51:49.000Z</time>
      </trkpt>
      <trkpt lat="47.83197" lon="2.17731">
        <ele>102</ele>
        <time>2016-10-30T07:51:50.000Z</time>
      </trkpt>
      <trkpt lat="47.83199" lon="2.17738">
        <ele>102</ele>
        <time>2016-10-30T07:51:51.000Z</time>
      </trkpt>
      <trkpt lat="47.83201" lon="2.17744">
        <ele>102</ele>
        <time>2016-10-30T07:51:52.000Z</time>
      </trkpt>
      <trkpt lat="47.83203" lon="2.17751">
        <ele>102</ele>
        <time>2016-10-30T07:51:53.000Z</time>
      </trkpt>
      <trkpt lat="47.83204" lon="2.17757">
        <ele>102</ele>
        <time>2016-10-30T07:51:54.000Z</time>
      </trkpt>
      <trkpt lat="47.83206" lon="2.17763">
        <ele>102</ele>
        <time>2016-10-30T07:51:55.000Z</time>
      </trkpt>
      <trkpt lat="47.83207" lon="2.17769">
        <ele>102</ele>
        <time>2016-10-30T07:51:56.000Z</time>
      </trkpt>
      <trkpt lat="47.83208" lon="2.17775">
        <ele>102</ele>
        <time>2016-10-30T07:51:57.000Z</time>
      </trkpt>
      <trkpt lat="47.83209" lon="2.1778">
        <ele>103</ele>
        <time>2016-10-30T07:51:58.000Z</time>
      </trkpt>
      <trkpt lat="47.83209" lon="2.17785">
        <ele>103</ele>
        <time>2016-10-30T07:51:59.000Z</time>
      </trkpt>
      <trkpt lat="47.8321" lon="2.1779">
        <ele>102</ele>
        <time>2016-10-30T07:52:00.000Z</time>
      </trkpt>
      <trkpt lat="47.8321" lon="2.17796">
        <ele>102</ele>
        <time>2016-10-30T07:52:01.000Z</time>
      </trkpt>
      <trkpt lat="47.8321" lon="2.17801">
        <ele>102</ele>
        <time>2016-10-30T07:52:02.000Z</time>
      </trkpt>
      <trkpt lat="47.83211" lon="2.17806">
        <ele>103</ele>
        <time>2016-10-30T07:52:03.000Z</time>
      </trkpt>
      <trkpt lat="47.83211" lon="2.1781">
        <ele>103</ele>
        <time>2016-10-30T07:52:04.000Z</time>
      </trkpt>
      <trkpt lat="47.83211" lon="2.17814">
        <ele>105</ele>
        <time>2016-10-30T07:52:05.000Z</time>
      </trkpt>
      <trkpt lat="47.83211" lon="2.17818">
        <ele>107</ele>
        <time>2016-10-30T07:52:06.000Z</time>
      </trkpt>
      <trkpt lat="47.83211" lon="2.17822">
        <ele>107</ele>
        <time>2016-10-30T07:52:07.000Z</time>
      </trkpt>
      <trkpt lat="47.8321" lon="2.17826">
        <ele>107</ele>
        <time>2016-10-30T07:52:08.000Z</time>
      </trkpt>
      <trkpt lat="47.8321" lon="2.1783">
        <ele>106</ele>
        <time>2016-10-30T07:52:09.000Z</time>
      </trkpt>
      <trkpt lat="47.83209" lon="2.17833">
        <ele>106</ele>
        <time>2016-10-30T07:52:10.000Z</time>
      </trkpt>
      <trkpt lat="47.83209" lon="2.17836">
        <ele>106</ele>
        <time>2016-10-30T07:52:11.000Z</time>
      </trkpt>
      <trkpt lat="47.83209" lon="2.17838">
        <ele>105</ele>
        <time>2016-10-30T07:52:12.000Z</time>
      </trkpt>
      <trkpt lat="47.83211" lon="2.1784">
        <ele>105</ele>
        <time>2016-10-30T07:52:13.000Z</time>
      </trkpt>
      <trkpt lat="47.83212" lon="2.17843">
        <ele>105</ele>
        <time>2016-10-30T07:52:14.000Z</time>
      </trkpt>
      <trkpt lat="47.83213" lon="2.17845">
        <ele>105</ele>
        <time>2016-10-30T07:52:15.000Z</time>
      </trkpt>
      <trkpt lat="47.83215" lon="2.17848">
        <ele>105</ele>
        <time>2016-10-30T07:52:16.000Z</time>
      </trkpt>
      <trkpt lat="47.83216" lon="2.17851">
        <ele>106</ele>
        <time>2016-10-30T07:52:17.000Z</time>
      </trkpt>
      <trkpt lat="47.83218" lon="2.17853">
        <ele>106</ele>
        <time>2016-10-30T07:52:18.000Z</time>
      </trkpt>
      <trkpt lat="47.83221" lon="2.17856">
        <ele>106</ele>
        <time>2016-10-30T07:52:19.000Z</time>
      </trkpt>
      <trkpt lat="47.83223" lon="2.17858">
        <ele>105</ele>
        <time>2016-10-30T07:52:20.000Z</time>
      </trkpt>
      <trkpt lat="47.83225" lon="2.1786">
        <ele>105</ele>
        <time>2016-10-30T07:52:21.000Z</time>
      </trkpt>
      <trkpt lat="47.83228" lon="2.17862">
        <ele>105</ele>
        <time>2016-10-30T07:52:22.000Z</time>
      </trkpt>
      <trkpt lat="47.8323" lon="2.17864">
        <ele>105</ele>
        <time>2016-10-30T07:52:23.000Z</time>
      </trkpt>
      <trkpt lat="47.83231" lon="2.17865">
        <ele>106</ele>
        <time>2016-10-30T07:52:24.000Z</time>
      </trkpt>
      <trkpt lat="47.83232" lon="2.17866">
        <ele>107</ele>
        <time>2016-10-30T07:52:25.000Z</time>
      </trkpt>
      <trkpt lat="47.83232" lon="2.17867">
        <ele>107</ele>
        <time>2016-10-30T07:52:26.000Z</time>
      </trkpt>
      <trkpt lat="47.83232" lon="2.17867">
        <ele>108</ele>
        <time>2016-10-30T07:52:27.000Z</time>
      </trkpt>
      <trkpt lat="47.83232" lon="2.17867">
        <ele>108</ele>
        <time>2016-10-30T07:52:28.000Z</time>
      </trkpt>
      <trkpt lat="47.83232" lon="2.17867">
        <ele>108</ele>
        <time>2016-10-30T07:52:29.000Z</time>
      </trkpt>
      <trkpt lat="47.83232" lon="2.17867">
        <ele>108</ele>
        <time>2016-10-30T07:52:30.000Z</time>
      </trkpt>
      <trkpt lat="47.83232" lon="2.17867">
        <ele>108</ele>
        <time>2016-10-30T07:52:31.000Z</time>
      </trkpt>
      <trkpt lat="47.83232" lon="2.17867">
        <ele>108</ele>
        <time>2016-10-30T07:52:32.000Z</time>
      </trkpt>
      <trkpt lat="47.83232" lon="2.17867">
        <ele>108</ele>
        <time>2016-10-30T07:52:33.000Z</time>
      </trkpt>
      <trkpt lat="47.83232" lon="2.17867">
        <ele>108</ele>
        <time>2016-10-30T07:52:34.000Z</time>
      </trkpt>
      <trkpt lat="47.83231" lon="2.17867">
        <ele>108</ele>
        <time>2016-10-30T07:52:35.000Z</time>
      </trkpt>
      <trkpt lat="47.83231" lon="2.17868">
        <ele>108</ele>
        <time>2016-10-30T07:52:36.000Z</time>
      </trkpt>
      <trkpt lat="47.83231" lon="2.17868">
        <ele>108</ele>
        <time>2016-10-30T07:52:37.000Z</time>
      </trkpt>
      <trkpt lat="47.83231" lon="2.17868">
        <ele>108</ele>
        <time>2016-10-30T07:52:38.000Z</time>
      </trkpt>
      <trkpt lat="47.83232" lon="2.17868">
        <ele>107</ele>
        <time>2016-10-30T07:52:39.000Z</time>
      </trkpt>
      <trkpt lat="47.83232" lon="2.17869">
        <ele>108</ele>
        <time>2016-10-30T07:52:40.000Z</time>
      </trkpt>
      <trkpt lat="47.83233" lon="2.1787">
        <ele>108</ele>
        <time>2016-10-30T07:52:41.000Z</time>
      </trkpt>
      <trkpt lat="47.83234" lon="2.17871">
        <ele>108</ele>
        <time>2016-10-30T07:52:42.000Z</time>
      </trkpt>
      <trkpt lat="47.83235" lon="2.17872">
        <ele>108</ele>
        <time>2016-10-30T07:52:43.000Z</time>
      </trkpt>
      <trkpt lat="47.83237" lon="2.17873">
        <ele>108</ele>
        <time>2016-10-30T07:52:44.000Z</time>
      </trkpt>
      <trkpt lat="47.83239" lon="2.17874">
        <ele>108</ele>
        <time>2016-10-30T07:52:45.000Z</time>
      </trkpt>
      <trkpt lat="47.83241" lon="2.17875">
        <ele>108</ele>
        <time>2016-10-30T07:52:46.000Z</time>
      </trkpt>
      <trkpt lat="47.83244" lon="2.17876">
        <ele>108</ele>
        <time>2016-10-30T07:52:47.000Z</time>
      </trkpt>
      <trkpt lat="47.83246" lon="2.17877">
        <ele>108</ele>
        <time>2016-10-30T07:52:48.000Z</time>
      </trkpt>
      <trkpt lat="47.83248" lon="2.17878">
        <ele>107</ele>
        <time>2016-10-30T07:52:49.000Z</time>
      </trkpt>
      <trkpt lat="47.8325" lon="2.17879">
        <ele>107</ele>
        <time>2016-10-30T07:52:50.000Z</time>
      </trkpt>
      <trkpt lat="47.83252" lon="2.1788">
        <ele>107</ele>
        <time>2016-10-30T07:52:51.000Z</time>
      </trkpt>
      <trkpt lat="47.83254" lon="2.17881">
        <ele>107</ele>
        <time>2016-10-30T07:52:52.000Z</time>
      </trkpt>
      <trkpt lat="47.83257" lon="2.17881">
        <ele>106</ele>
        <time>2016-10-30T07:52:53.000Z</time>
      </trkpt>
      <trkpt lat="47.83259" lon="2.17882">
        <ele>106</ele>
        <time>2016-10-30T07:52:54.000Z</time>
      </trkpt>
      <trkpt lat="47.83261" lon="2.17882">
        <ele>106</ele>
        <time>2016-10-30T07:52:55.000Z</time>
      </trkpt>
      <trkpt lat="47.83263" lon="2.17882">
        <ele>106</ele>
        <time>2016-10-30T07:52:56.000Z</time>
      </trkpt>
      <trkpt lat="47.83265" lon="2.17881">
        <ele>106</ele>
        <time>2016-10-30T07:52:57.000Z</time>
      </trkpt>
      <trkpt lat="47.83268" lon="2.17881">
        <ele>106</ele>
        <time>2016-10-30T07:52:58.000Z</time>
      </trkpt>
      <trkpt lat="47.8327" lon="2.17879">
        <ele>106</ele>
        <time>2016-10-30T07:52:59.000Z</time>
      </trkpt>
      <trkpt lat="47.83272" lon="2.17878">
        <ele>106</ele>
        <time>2016-10-30T07:53:00.000Z</time>
      </trkpt>
      <trkpt lat="47.83275" lon="2.17878">
        <ele>106</ele>
        <time>2016-10-30T07:53:01.000Z</time>
      </trkpt>
      <trkpt lat="47.83277" lon="2.17878">
        <ele>105</ele>
        <time>2016-10-30T07:53:02.000Z</time>
      </trkpt>
      <trkpt lat="47.83279" lon="2.17878">
        <ele>105</ele>
        <time>2016-10-30T07:53:03.000Z</time>
      </trkpt>
      <trkpt lat="47.83281" lon="2.17879">
        <ele>105</ele>
        <time>2016-10-30T07:53:04.000Z</time>
      </trkpt>
      <trkpt lat="47.83283" lon="2.17878">
        <ele>105</ele>
        <time>2016-10-30T07:53:05.000Z</time>
      </trkpt>
      <trkpt lat="47.83284" lon="2.17877">
        <ele>103</ele>
        <time>2016-10-30T07:53:06.000Z</time>
      </trkpt>
      <trkpt lat="47.83284" lon="2.17875">
        <ele>103</ele>
        <time>2016-10-30T07:53:07.000Z</time>
      </trkpt>
      <trkpt lat="47.83283" lon="2.17874">
        <ele>103</ele>
        <time>2016-10-30T07:53:08.000Z</time>
      </trkpt>
      <trkpt lat="47.83282" lon="2.17873">
        <ele>103</ele>
        <time>2016-10-30T07:53:09.000Z</time>
      </trkpt>
      <trkpt lat="47.83281" lon="2.17873">
        <ele>103</ele>
        <time>2016-10-30T07:53:10.000Z</time>
      </trkpt>
      <trkpt lat="47.8328" lon="2.17873">
        <ele>103</ele>
        <time>2016-10-30T07:53:11.000Z</time>
      </trkpt>
      <trkpt lat="47.83278" lon="2.17874">
        <ele>103</ele>
        <time>2016-10-30T07:53:12.000Z</time>
      </trkpt>
      <trkpt lat="47.83277" lon="2.17875">
        <ele>103</ele>
        <time>2016-10-30T07:53:13.000Z</time>
      </trkpt>
      <trkpt lat="47.83276" lon="2.17877">
        <ele>103</ele>
        <time>2016-10-30T07:53:14.000Z</time>
      </trkpt>
      <trkpt lat="47.83274" lon="2.17878">
        <ele>102</ele>
        <time>2016-10-30T07:53:15.000Z</time>
      </trkpt>
      <trkpt lat="47.83273" lon="2.1788">
        <ele>103</ele>
        <time>2016-10-30T07:53:16.000Z</time>
      </trkpt>
      <trkpt lat="47.83272" lon="2.17882">
        <ele>103</ele>
        <time>2016-10-30T07:53:17.000Z</time>
      </trkpt>
      <trkpt lat="47.8327" lon="2.17885">
        <ele>102</ele>
        <time>2016-10-30T07:53:18.000Z</time>
      </trkpt>
      <trkpt lat="47.83269" lon="2.17887">
        <ele>103</ele>
        <time>2016-10-30T07:53:19.000Z</time>
      </trkpt>
      <trkpt lat="47.83267" lon="2.17889">
        <ele>102</ele>
        <time>2016-10-30T07:53:20.000Z</time>
      </trkpt>
      <trkpt lat="47.83265" lon="2.17891">
        <ele>102</ele>
        <time>2016-10-30T07:53:21.000Z</time>
      </trkpt>
      <trkpt lat="47.83263" lon="2.17892">
        <ele>100</ele>
        <time>2016-10-30T07:53:22.000Z</time>
      </trkpt>
      <trkpt lat="47.83262" lon="2.17892">
        <ele>100</ele>
        <time>2016-10-30T07:53:23.000Z</time>
      </trkpt>
      <trkpt lat="47.8326" lon="2.17891">
        <ele>100</ele>
        <time>2016-10-30T07:53:24.000Z</time>
      </trkpt>
      <trkpt lat="47.83259" lon="2.1789">
        <ele>100</ele>
        <time>2016-10-30T07:53:25.000Z</time>
      </trkpt>
      <trkpt lat="47.83259" lon="2.17887">
        <ele>101</ele>
        <time>2016-10-30T07:53:26.000Z</time>
      </trkpt>
      <trkpt lat="47.83259" lon="2.17885">
        <ele>101</ele>
        <time>2016-10-30T07:53:27.000Z</time>
      </trkpt>
      <trkpt lat="47.83261" lon="2.17884">
        <ele>101</ele>
        <time>2016-10-30T07:53:28.000Z</time>
      </trkpt>
      <trkpt lat="47.83263" lon="2.17883">
        <ele>101</ele>
        <time>2016-10-30T07:53:29.000Z</time>
      </trkpt>
      <trkpt lat="47.83265" lon="2.17881">
        <ele>102</ele>
        <time>2016-10-30T07:53:30.000Z</time>
      </trkpt>
      <trkpt lat="47.83267" lon="2.17879">
        <ele>102</ele>
        <time>2016-10-30T07:53:31.000Z</time>
      </trkpt>
      <trkpt lat="47.83268" lon="2.17877">
        <ele>102</ele>
        <time>2016-10-30T07:53:32.000Z</time>
      </trkpt>
      <trkpt lat="47.8327" lon="2.17876">
        <ele>102</ele>
        <time>2016-10-30T07:53:33.000Z</time>
      </trkpt>
      <trkpt lat="47.83272" lon="2.17874">
        <ele>102</ele>
        <time>2016-10-30T07:53:34.000Z</time>
      </trkpt>
      <trkpt lat="47.83274" lon="2.17872">
        <ele>102</ele>
        <time>2016-10-30T07:53:35.000Z</time>
      </trkpt>
      <trkpt lat="47.83276" lon="2.17871">
        <ele>102</ele>
        <time>2016-10-30T07:53:36.000Z</time>
      </trkpt>
      <trkpt lat="47.83279" lon="2.17869">
        <ele>102</ele>
        <time>2016-10-30T07:53:37.000Z</time>
      </trkpt>
      <trkpt lat="47.83282" lon="2.17869">
        <ele>102</ele>
        <time>2016-10-30T07:53:38.000Z</time>
      </trkpt>
      <trkpt lat="47.83284" lon="2.17869">
        <ele>102</ele>
        <time>2016-10-30T07:53:39.000Z</time>
      </trkpt>
      <trkpt lat="47.83287" lon="2.1787">
        <ele>101</ele>
        <time>2016-10-30T07:53:40.000Z</time>
      </trkpt>
      <trkpt lat="47.8329" lon="2.17872">
        <ele>102</ele>
        <time>2016-10-30T07:53:41.000Z</time>
      </trkpt>
      <trkpt lat="47.83292" lon="2.17875">
        <ele>102</ele>
        <time>2016-10-30T07:53:42.000Z</time>
      </trkpt>
      <trkpt lat="47.83294" lon="2.17879">
        <ele>101</ele>
        <time>2016-10-30T07:53:43.000Z</time>
      </trkpt>
      <trkpt lat="47.83296" lon="2.17883">
        <ele>101</ele>
        <time>2016-10-30T07:53:44.000Z</time>
      </trkpt>
      <trkpt lat="47.83298" lon="2.17887">
        <ele>101</ele>
        <time>2016-10-30T07:53:45.000Z</time>
      </trkpt>
      <trkpt lat="47.83299" lon="2.17891">
        <ele>101</ele>
        <time>2016-10-30T07:53:46.000Z</time>
      </trkpt>
      <trkpt lat="47.83301" lon="2.17895">
        <ele>101</ele>
        <time>2016-10-30T07:53:47.000Z</time>
      </trkpt>
      <trkpt lat="47.83302" lon="2.179">
        <ele>101</ele>
        <time>2016-10-30T07:53:48.000Z</time>
      </trkpt>
      <trkpt lat="47.83304" lon="2.17904">
        <ele>101</ele>
        <time>2016-10-30T07:53:49.000Z</time>
      </trkpt>
      <trkpt lat="47.83305" lon="2.17908">
        <ele>101</ele>
        <time>2016-10-30T07:53:50.000Z</time>
      </trkpt>
      <trkpt lat="47.83307" lon="2.17912">
        <ele>101</ele>
        <time>2016-10-30T07:53:51.000Z</time>
      </trkpt>
      <trkpt lat="47.83309" lon="2.17916">
        <ele>101</ele>
        <time>2016-10-30T07:53:52.000Z</time>
      </trkpt>
      <trkpt lat="47.83311" lon="2.17919">
        <ele>101</ele>
        <time>2016-10-30T07:53:53.000Z</time>
      </trkpt>
      <trkpt lat="47.83313" lon="2.17919">
        <ele>101</ele>
        <time>2016-10-30T07:53:54.000Z</time>
      </trkpt>
      <trkpt lat="47.83315" lon="2.17917">
        <ele>101</ele>
        <time>2016-10-30T07:53:55.000Z</time>
      </trkpt>
      <trkpt lat="47.83315" lon="2.17913">
        <ele>100</ele>
        <time>2016-10-30T07:53:56.000Z</time>
      </trkpt>
      <trkpt lat="47.83314" lon="2.1791">
        <ele>100</ele>
        <time>2016-10-30T07:53:57.000Z</time>
      </trkpt>
      <trkpt lat="47.83313" lon="2.17908">
        <ele>100</ele>
        <time>2016-10-30T07:53:58.000Z</time>
      </trkpt>
      <trkpt lat="47.83311" lon="2.17907">
        <ele>101</ele>
        <time>2016-10-30T07:53:59.000Z</time>
      </trkpt>
      <trkpt lat="47.83309" lon="2.17906">
        <ele>101</ele>
        <time>2016-10-30T07:54:00.000Z</time>
      </trkpt>
      <trkpt lat="47.83308" lon="2.17904">
        <ele>101</ele>
        <time>2016-10-30T07:54:01.000Z</time>
      </trkpt>
      <trkpt lat="47.83307" lon="2.17901">
        <ele>101</ele>
        <time>2016-10-30T07:54:02.000Z</time>
      </trkpt>
      <trkpt lat="47.83306" lon="2.17898">
        <ele>101</ele>
        <time>2016-10-30T07:54:03.000Z</time>
      </trkpt>
      <trkpt lat="47.83305" lon="2.17895">
        <ele>101</ele>
        <time>2016-10-30T07:54:04.000Z</time>
      </trkpt>
      <trkpt lat="47.83304" lon="2.17892">
        <ele>101</ele>
        <time>2016-10-30T07:54:05.000Z</time>
      </trkpt>
      <trkpt lat="47.83303" lon="2.17888">
        <ele>101</ele>
        <time>2016-10-30T07:54:06.000Z</time>
      </trkpt>
      <trkpt lat="47.83301" lon="2.17885">
        <ele>101</ele>
        <time>2016-10-30T07:54:07.000Z</time>
      </trkpt>
      <trkpt lat="47.833" lon="2.17882">
        <ele>101</ele>
        <time>2016-10-30T07:54:08.000Z</time>
      </trkpt>
      <trkpt lat="47.83299" lon="2.17879">
        <ele>101</ele>
        <time>2016-10-30T07:54:09.000Z</time>
      </trkpt>
      <trkpt lat="47.83298" lon="2.17875">
        <ele>101</ele>
        <time>2016-10-30T07:54:10.000Z</time>
      </trkpt>
      <trkpt lat="47.83297" lon="2.17872">
        <ele>101</ele>
        <time>2016-10-30T07:54:11.000Z</time>
      </trkpt>
      <trkpt lat="47.83296" lon="2.17869">
        <ele>101</ele>
        <time>2016-10-30T07:54:12.000Z</time>
      </trkpt>
      <trkpt lat="47.83294" lon="2.17867">
        <ele>101</ele>
        <time>2016-10-30T07:54:13.000Z</time>
      </trkpt>
      <trkpt lat="47.83293" lon="2.17865">
        <ele>101</ele>
        <time>2016-10-30T07:54:14.000Z</time>
      </trkpt>
      <trkpt lat="47.83291" lon="2.17864">
        <ele>101</ele>
        <time>2016-10-30T07:54:15.000Z</time>
      </trkpt>
      <trkpt lat="47.83289" lon="2.17863">
        <ele>101</ele>
        <time>2016-10-30T07:54:16.000Z</time>
      </trkpt>
      <trkpt lat="47.83288" lon="2.17861">
        <ele>101</ele>
        <time>2016-10-30T07:54:17.000Z</time>
      </trkpt>
      <trkpt lat="47.83287" lon="2.1786">
        <ele>101</ele>
        <time>2016-10-30T07:54:18.000Z</time>
      </trkpt>
      <trkpt lat="47.83285" lon="2.17859">
        <ele>101</ele>
        <time>2016-10-30T07:54:19.000Z</time>
      </trkpt>
      <trkpt lat="47.83283" lon="2.17858">
        <ele>101</ele>
        <time>2016-10-30T07:54:20.000Z</time>
      </trkpt>
      <trkpt lat="47.83282" lon="2.17858">
        <ele>101</ele>
        <time>2016-10-30T07:54:21.000Z</time>
      </trkpt>
      <trkpt lat="47.83281" lon="2.17858">
        <ele>101</ele>
        <time>2016-10-30T07:54:22.000Z</time>
      </trkpt>
      <trkpt lat="47.8328" lon="2.17859">
        <ele>101</ele>
        <time>2016-10-30T07:54:23.000Z</time>
      </trkpt>
      <trkpt lat="47.8328" lon="2.17861">
        <ele>101</ele>
        <time>2016-10-30T07:54:24.000Z</time>
      </trkpt>
      <trkpt lat="47.8328" lon="2.17862">
        <ele>100</ele>
        <time>2016-10-30T07:54:25.000Z</time>
      </trkpt>
      <trkpt lat="47.83282" lon="2.17863">
        <ele>99</ele>
        <time>2016-10-30T07:54:26.000Z</time>
      </trkpt>
      <trkpt lat="47.83283" lon="2.17863">
        <ele>99</ele>
        <time>2016-10-30T07:54:27.000Z</time>
      </trkpt>
      <trkpt lat="47.83284" lon="2.17863">
        <ele>99</ele>
        <time>2016-10-30T07:54:28.000Z</time>
      </trkpt>
      <trkpt lat="47.83286" lon="2.17864">
        <ele>99</ele>
        <time>2016-10-30T07:54:29.000Z</time>
      </trkpt>
      <trkpt lat="47.83288" lon="2.17866">
        <ele>100</ele>
        <time>2016-10-30T07:54:30.000Z</time>
      </trkpt>
      <trkpt lat="47.83291" lon="2.17868">
        <ele>100</ele>
        <time>2016-10-30T07:54:31.000Z</time>
      </trkpt>
      <trkpt lat="47.83293" lon="2.17871">
        <ele>100</ele>
        <time>2016-10-30T07:54:32.000Z</time>
      </trkpt>
      <trkpt lat="47.83295" lon="2.17875">
        <ele>100</ele>
        <time>2016-10-30T07:54:33.000Z</time>
      </trkpt>
      <trkpt lat="47.83297" lon="2.17879">
        <ele>100</ele>
        <time>2016-10-30T07:54:34.000Z</time>
      </trkpt>
      <trkpt lat="47.83298" lon="2.17883">
        <ele>100</ele>
        <time>2016-10-30T07:54:35.000Z</time>
      </trkpt>
      <trkpt lat="47.83299" lon="2.17888">
        <ele>100</ele>
        <time>2016-10-30T07:54:36.000Z</time>
      </trkpt>
      <trkpt lat="47.83301" lon="2.17892">
        <ele>101</ele>
        <time>2016-10-30T07:54:37.000Z</time>
      </trkpt>
      <trkpt lat="47.83302" lon="2.17897">
        <ele>102</ele>
        <time>2016-10-30T07:54:38.000Z</time>
      </trkpt>
      <trkpt lat="47.83303" lon="2.17902">
        <ele>102</ele>
        <time>2016-10-30T07:54:39.000Z</time>
      </trkpt>
      <trkpt lat="47.83305" lon="2.17907">
        <ele>102</ele>
        <time>2016-10-30T07:54:40.000Z</time>
      </trkpt>
      <trkpt lat="47.83307" lon="2.17912">
        <ele>102</ele>
        <time>2016-10-30T07:54:41.000Z</time>
      </trkpt>
      <trkpt lat="47.8331" lon="2.17917">
        <ele>102</ele>
        <time>2016-10-30T07:54:42.000Z</time>
      </trkpt>
      <trkpt lat="47.83312" lon="2.17922">
        <ele>102</ele>
        <time>2016-10-30T07:54:43.000Z</time>
      </trkpt>
      <trkpt lat="47.83315" lon="2.17926">
        <ele>101</ele>
        <time>2016-10-30T07:54:44.000Z</time>
      </trkpt>
      <trkpt lat="47.83319" lon="2.1793">
        <ele>101</ele>
        <time>2016-10-30T07:54:45.000Z</time>
      </trkpt>
      <trkpt lat="47.83322" lon="2.17934">
        <ele>101</ele>
        <time>2016-10-30T07:54:46.000Z</time>
      </trkpt>
      <trkpt lat="47.83326" lon="2.17937">
        <ele>101</ele>
        <time>2016-10-30T07:54:47.000Z</time>
      </trkpt>
      <trkpt lat="47.8333" lon="2.17939">
        <ele>101</ele>
        <time>2016-10-30T07:54:48.000Z</time>
      </trkpt>
      <trkpt lat="47.83334" lon="2.17941">
        <ele>100</ele>
        <time>2016-10-30T07:54:49.000Z</time>
      </trkpt>
      <trkpt lat="47.83338" lon="2.17943">
        <ele>100</ele>
        <time>2016-10-30T07:54:50.000Z</time>
      </trkpt>
      <trkpt lat="47.83343" lon="2.17944">
        <ele>100</ele>
        <time>2016-10-30T07:54:51.000Z</time>
      </trkpt>
      <trkpt lat="47.83347" lon="2.17945">
        <ele>99</ele>
        <time>2016-10-30T07:54:52.000Z</time>
      </trkpt>
      <trkpt lat="47.83351" lon="2.17946">
        <ele>99</ele>
        <time>2016-10-30T07:54:53.000Z</time>
      </trkpt>
      <trkpt lat="47.83355" lon="2.17946">
        <ele>99</ele>
        <time>2016-10-30T07:54:54.000Z</time>
      </trkpt>
      <trkpt lat="47.8336" lon="2.17947">
        <ele>98</ele>
        <time>2016-10-30T07:54:55.000Z</time>
      </trkpt>
      <trkpt lat="47.83364" lon="2.17947">
        <ele>98</ele>
        <time>2016-10-30T07:54:56.000Z</time>
      </trkpt>
      <trkpt lat="47.83369" lon="2.17948">
        <ele>98</ele>
        <time>2016-10-30T07:54:57.000Z</time>
      </trkpt>
      <trkpt lat="47.83373" lon="2.17948">
        <ele>98</ele>
        <time>2016-10-30T07:54:58.000Z</time>
      </trkpt>
      <trkpt lat="47.83378" lon="2.17948">
        <ele>98</ele>
        <time>2016-10-30T07:54:59.000Z</time>
      </trkpt>
      <trkpt lat="47.83383" lon="2.17949">
        <ele>97</ele>
        <time>2016-10-30T07:55:00.000Z</time>
      </trkpt>
      <trkpt lat="47.83388" lon="2.17949">
        <ele>96</ele>
        <time>2016-10-30T07:55:01.000Z</time>
      </trkpt>
      <trkpt lat="47.83393" lon="2.1795">
        <ele>96</ele>
        <time>2016-10-30T07:55:02.000Z</time>
      </trkpt>
      <trkpt lat="47.83397" lon="2.17951">
        <ele>96</ele>
        <time>2016-10-30T07:55:03.000Z</time>
      </trkpt>
      <trkpt lat="47.83402" lon="2.17952">
        <ele>97</ele>
        <time>2016-10-30T07:55:04.000Z</time>
      </trkpt>
      <trkpt lat="47.83407" lon="2.17952">
        <ele>97</ele>
        <time>2016-10-30T07:55:05.000Z</time>
      </trkpt>
      <trkpt lat="47.83412" lon="2.17953">
        <ele>98</ele>
        <time>2016-10-30T07:55:06.000Z</time>
      </trkpt>
      <trkpt lat="47.83417" lon="2.17955">
        <ele>98</ele>
        <time>2016-10-30T07:55:07.000Z</time>
      </trkpt>
      <trkpt lat="47.83422" lon="2.17957">
        <ele>98</ele>
        <time>2016-10-30T07:55:08.000Z</time>
      </trkpt>
      <trkpt lat="47.83427" lon="2.17959">
        <ele>99</ele>
        <time>2016-10-30T07:55:09.000Z</time>
      </trkpt>
      <trkpt lat="47.83432" lon="2.17961">
        <ele>99</ele>
        <time>2016-10-30T07:55:10.000Z</time>
      </trkpt>
      <trkpt lat="47.83437" lon="2.17964">
        <ele>100</ele>
        <time>2016-10-30T07:55:11.000Z</time>
      </trkpt>
      <trkpt lat="47.83442" lon="2.17966">
        <ele>100</ele>
        <time>2016-10-30T07:55:12.000Z</time>
      </trkpt>
      <trkpt lat="47.83446" lon="2.17969">
        <ele>100</ele>
        <time>2016-10-30T07:55:13.000Z</time>
      </trkpt>
      <trkpt lat="47.83451" lon="2.17971">
        <ele>100</ele>
        <time>2016-10-30T07:55:14.000Z</time>
      </trkpt>
      <trkpt lat="47.83456" lon="2.17974">
        <ele>100</ele>
        <time>2016-10-30T07:55:15.000Z</time>
      </trkpt>
      <trkpt lat="47.8346" lon="2.17975">
        <ele>101</ele>
        <time>2016-10-30T07:55:16.000Z</time>
      </trkpt>
      <trkpt lat="47.83465" lon="2.17977">
        <ele>101</ele>
        <time>2016-10-30T07:55:17.000Z</time>
      </trkpt>
      <trkpt lat="47.8347" lon="2.17978">
        <ele>102</ele>
        <time>2016-10-30T07:55:18.000Z</time>
      </trkpt>
      <trkpt lat="47.83474" lon="2.1798">
        <ele>102</ele>
        <time>2016-10-30T07:55:19.000Z</time>
      </trkpt>
      <trkpt lat="47.83479" lon="2.17981">
        <ele>102</ele>
        <time>2016-10-30T07:55:20.000Z</time>
      </trkpt>
      <trkpt lat="47.83484" lon="2.17981">
        <ele>101</ele>
        <time>2016-10-30T07:55:21.000Z</time>
      </trkpt>
      <trkpt lat="47.83488" lon="2.17982">
        <ele>102</ele>
        <time>2016-10-30T07:55:22.000Z</time>
      </trkpt>
      <trkpt lat="47.83493" lon="2.17983">
        <ele>102</ele>
        <time>2016-10-30T07:55:23.000Z</time>
      </trkpt>
      <trkpt lat="47.83499" lon="2.17985">
        <ele>102</ele>
        <time>2016-10-30T07:55:24.000Z</time>
      </trkpt>
      <trkpt lat="47.83504" lon="2.17986">
        <ele>102</ele>
        <time>2016-10-30T07:55:25.000Z</time>
      </trkpt>
      <trkpt lat="47.8351" lon="2.17988">
        <ele>102</ele>
        <time>2016-10-30T07:55:26.000Z</time>
      </trkpt>
      <trkpt lat="47.83515" lon="2.17991">
        <ele>103</ele>
        <time>2016-10-30T07:55:27.000Z</time>
      </trkpt>
      <trkpt lat="47.8352" lon="2.17994">
        <ele>103</ele>
        <time>2016-10-30T07:55:28.000Z</time>
      </trkpt>
      <trkpt lat="47.83525" lon="2.17996">
        <ele>102</ele>
        <time>2016-10-30T07:55:29.000Z</time>
      </trkpt>
      <trkpt lat="47.8353" lon="2.17999">
        <ele>102</ele>
        <time>2016-10-30T07:55:30.000Z</time>
      </trkpt>
      <trkpt lat="47.83536" lon="2.18002">
        <ele>102</ele>
        <time>2016-10-30T07:55:31.000Z</time>
      </trkpt>
      <trkpt lat="47.83541" lon="2.18004">
        <ele>102</ele>
        <time>2016-10-30T07:55:32.000Z</time>
      </trkpt>
      <trkpt lat="47.83545" lon="2.18007">
        <ele>102</ele>
        <time>2016-10-30T07:55:33.000Z</time>
      </trkpt>
      <trkpt lat="47.8355" lon="2.1801">
        <ele>102</ele>
        <time>2016-10-30T07:55:34.000Z</time>
      </trkpt>
      <trkpt lat="47.83555" lon="2.18013">
        <ele>102</ele>
        <time>2016-10-30T07:55:35.000Z</time>
      </trkpt>
      <trkpt lat="47.8356" lon="2.18015">
        <ele>102</ele>
        <time>2016-10-30T07:55:36.000Z</time>
      </trkpt>
      <trkpt lat="47.83564" lon="2.18018">
        <ele>102</ele>
        <time>2016-10-30T07:55:37.000Z</time>
      </trkpt>
      <trkpt lat="47.83569" lon="2.1802">
        <ele>102</ele>
        <time>2016-10-30T07:55:38.000Z</time>
      </trkpt>
      <trkpt lat="47.83574" lon="2.18022">
        <ele>102</ele>
        <time>2016-10-30T07:55:39.000Z</time>
      </trkpt>
      <trkpt lat="47.83579" lon="2.18024">
        <ele>102</ele>
        <time>2016-10-30T07:55:40.000Z</time>
      </trkpt>
      <trkpt lat="47.83584" lon="2.18026">
        <ele>102</ele>
        <time>2016-10-30T07:55:41.000Z</time>
      </trkpt>
      <trkpt lat="47.83588" lon="2.18027">
        <ele>102</ele>
        <time>2016-10-30T07:55:42.000Z</time>
      </trkpt>
      <trkpt lat="47.83593" lon="2.18029">
        <ele>102</ele>
        <time>2016-10-30T07:55:43.000Z</time>
      </trkpt>
      <trkpt lat="47.83598" lon="2.1803">
        <ele>102</ele>
        <time>2016-10-30T07:55:44.000Z</time>
      </trkpt>
      <trkpt lat="47.83603" lon="2.18032">
        <ele>102</ele>
        <time>2016-10-30T07:55:45.000Z</time>
      </trkpt>
      <trkpt lat="47.83608" lon="2.18034">
        <ele>102</ele>
        <time>2016-10-30T07:55:46.000Z</time>
      </trkpt>
      <trkpt lat="47.83613" lon="2.18035">
        <ele>102</ele>
        <time>2016-10-30T07:55:47.000Z</time>
      </trkpt>
      <trkpt lat="47.83618" lon="2.18036">
        <ele>102</ele>
        <time>2016-10-30T07:55:48.000Z</time>
      </trkpt>
      <trkpt lat="47.83623" lon="2.18038">
        <ele>102</ele>
        <time>2016-10-30T07:55:49.000Z</time>
      </trkpt>
      <trkpt lat="47.83628" lon="2.18039">
        <ele>102</ele>
        <time>2016-10-30T07:55:50.000Z</time>
      </trkpt>
      <trkpt lat="47.83633" lon="2.18041">
        <ele>102</ele>
        <time>2016-10-30T07:55:51.000Z</time>
      </trkpt>
      <trkpt lat="47.83638" lon="2.18042">
        <ele>102</ele>
        <time>2016-10-30T07:55:52.000Z</time>
      </trkpt>
      <trkpt lat="47.83643" lon="2.18044">
        <ele>102</ele>
        <time>2016-10-30T07:55:53.000Z</time>
      </trkpt>
      <trkpt lat="47.83648" lon="2.18045">
        <ele>103</ele>
        <time>2016-10-30T07:55:54.000Z</time>
      </trkpt>
      <trkpt lat="47.83653" lon="2.18047">
        <ele>102</ele>
        <time>2016-10-30T07:55:55.000Z</time>
      </trkpt>
      <trkpt lat="47.83658" lon="2.18048">
        <ele>102</ele>
        <time>2016-10-30T07:55:56.000Z</time>
      </trkpt>
      <trkpt lat="47.83663" lon="2.1805">
        <ele>102</ele>
        <time>2016-10-30T07:55:57.000Z</time>
      </trkpt>
      <trkpt lat="47.83668" lon="2.18051">
        <ele>102</ele>
        <time>2016-10-30T07:55:58.000Z</time>
      </trkpt>
      <trkpt lat="47.83672" lon="2.18052">
        <ele>102</ele>
        <time>2016-10-30T07:55:59.000Z</time>
      </trkpt>
      <trkpt lat="47.83677" lon="2.18054">
        <ele>102</ele>
        <time>2016-10-30T07:56:00.000Z</time>
      </trkpt>
      <trkpt lat="47.83682" lon="2.18055">
        <ele>102</ele>
        <time>2016-10-30T07:56:01.000Z</time>
      </trkpt>
      <trkpt lat="47.83687" lon="2.18057">
        <ele>102</ele>
        <time>2016-10-30T07:56:02.000Z</time>
      </trkpt>
      <trkpt lat="47.83692" lon="2.18058">
        <ele>102</ele>
        <time>2016-10-30T07:56:03.000Z</time>
      </trkpt>
      <trkpt lat="47.83697" lon="2.1806">
        <ele>102</ele>
        <time>2016-10-30T07:56:04.000Z</time>
      </trkpt>
      <trkpt lat="47.83702" lon="2.18061">
        <ele>102</ele>
        <time>2016-10-30T07:56:05.000Z</time>
      </trkpt>
      <trkpt lat="47.83706" lon="2.18062">
        <ele>102</ele>
        <time>2016-10-30T07:56:06.000Z</time>
      </trkpt>
      <trkpt lat="47.83711" lon="2.18064">
        <ele>102</ele>
        <time>2016-10-30T07:56:07.000Z</time>
      </trkpt>
      <trkpt lat="47.83716" lon="2.18065">
        <ele>102</ele>
        <time>2016-10-30T07:56:08.000Z</time>
      </trkpt>
      <trkpt lat="47.83721" lon="2.18067">
        <ele>103</ele>
        <time>2016-10-30T07:56:09.000Z</time>
      </trkpt>
      <trkpt lat="47.83726" lon="2.18068">
        <ele>103</ele>
        <time>2016-10-30T07:56:10.000Z</time>
      </trkpt>
      <trkpt lat="47.83731" lon="2.1807">
        <ele>103</ele>
        <time>2016-10-30T07:56:11.000Z</time>
      </trkpt>
      <trkpt lat="47.83736" lon="2.18071">
        <ele>103</ele>
        <time>2016-10-30T07:56:12.000Z</time>
      </trkpt>
      <trkpt lat="47.83741" lon="2.18073">
        <ele>103</ele>
        <time>2016-10-30T07:56:13.000Z</time>
      </trkpt>
      <trkpt lat="47.83745" lon="2.18075">
        <ele>103</ele>
        <time>2016-10-30T07:56:14.000Z</time>
      </trkpt>
      <trkpt lat="47.8375" lon="2.18076">
        <ele>103</ele>
        <time>2016-10-30T07:56:15.000Z</time>
      </trkpt>
      <trkpt lat="47.83755" lon="2.18077">
        <ele>103</ele>
        <time>2016-10-30T07:56:16.000Z</time>
      </trkpt>
      <trkpt lat="47.8376" lon="2.18079">
        <ele>103</ele>
        <time>2016-10-30T07:56:17.000Z</time>
      </trkpt>
      <trkpt lat="47.83764" lon="2.1808">
        <ele>103</ele>
        <time>2016-10-30T07:56:18.000Z</time>
      </trkpt>
      <trkpt lat="47.83769" lon="2.18082">
        <ele>102</ele>
        <time>2016-10-30T07:56:19.000Z</time>
      </trkpt>
      <trkpt lat="47.83773" lon="2.18083">
        <ele>102</ele>
        <time>2016-10-30T07:56:20.000Z</time>
      </trkpt>
      <trkpt lat="47.83778" lon="2.18085">
        <ele>102</ele>
        <time>2016-10-30T07:56:21.000Z</time>
      </trkpt>
      <trkpt lat="47.83783" lon="2.18086">
        <ele>102</ele>
        <time>2016-10-30T07:56:22.000Z</time>
      </trkpt>
      <trkpt lat="47.83787" lon="2.18087">
        <ele>102</ele>
        <time>2016-10-30T07:56:23.000Z</time>
      </trkpt>
      <trkpt lat="47.83792" lon="2.18089">
        <ele>102</ele>
        <time>2016-10-30T07:56:24.000Z</time>
      </trkpt>
      <trkpt lat="47.83797" lon="2.1809">
        <ele>102</ele>
        <time>2016-10-30T07:56:25.000Z</time>
      </trkpt>
      <trkpt lat="47.83802" lon="2.18092">
        <ele>102</ele>
        <time>2016-10-30T07:56:26.000Z</time>
      </trkpt>
      <trkpt lat="47.83807" lon="2.18093">
        <ele>101</ele>
        <time>2016-10-30T07:56:27.000Z</time>
      </trkpt>
      <trkpt lat="47.83811" lon="2.18095">
        <ele>101</ele>
        <time>2016-10-30T07:56:28.000Z</time>
      </trkpt>
      <trkpt lat="47.83816" lon="2.18096">
        <ele>101</ele>
        <time>2016-10-30T07:56:29.000Z</time>
      </trkpt>
      <trkpt lat="47.83821" lon="2.18097">
        <ele>102</ele>
        <time>2016-10-30T07:56:30.000Z</time>
      </trkpt>
      <trkpt lat="47.83826" lon="2.18099">
        <ele>102</ele>
        <time>2016-10-30T07:56:31.000Z</time>
      </trkpt>
      <trkpt lat="47.83831" lon="2.181">
        <ele>102</ele>
        <time>2016-10-30T07:56:32.000Z</time>
      </trkpt>
      <trkpt lat="47.83836" lon="2.18101">
        <ele>102</ele>
        <time>2016-10-30T07:56:33.000Z</time>
      </trkpt>
      <trkpt lat="47.83841" lon="2.18102">
        <ele>102</ele>
        <time>2016-10-30T07:56:34.000Z</time>
      </trkpt>
      <trkpt lat="47.83846" lon="2.18103">
        <ele>102</ele>
        <time>2016-10-30T07:56:35.000Z</time>
      </trkpt>
      <trkpt lat="47.83851" lon="2.18104">
        <ele>102</ele>
        <time>2016-10-30T07:56:36.000Z</time>
      </trkpt>
      <trkpt lat="47.83856" lon="2.18105">
        <ele>102</ele>
        <time>2016-10-30T07:56:37.000Z</time>
      </trkpt>
      <trkpt lat="47.83861" lon="2.18106">
        <ele>102</ele>
        <time>2016-10-30T07:56:38.000Z</time>
      </trkpt>
      <trkpt lat="47.83866" lon="2.18107">
        <ele>102</ele>
        <time>2016-10-30T07:56:39.000Z</time>
      </trkpt>
      <trkpt lat="47.83871" lon="2.18108">
        <ele>102</ele>
        <time>2016-10-30T07:56:40.000Z</time>
      </trkpt>
      <trkpt lat="47.83876" lon="2.18109">
        <ele>102</ele>
        <time>2016-10-30T07:56:41.000Z</time>
      </trkpt>
      <trkpt lat="47.83881" lon="2.1811">
        <ele>101</ele>
        <time>2016-10-30T07:56:42.000Z</time>
      </trkpt>
      <trkpt lat="47.83886" lon="2.18111">
        <ele>102</ele>
        <time>2016-10-30T07:56:43.000Z</time>
      </trkpt>
      <trkpt lat="47.83891" lon="2.18111">
        <ele>101</ele>
        <time>2016-10-30T07:56:44.000Z</time>
      </trkpt>
      <trkpt lat="47.83896" lon="2.18112">
        <ele>101</ele>
        <time>2016-10-30T07:56:45.000Z</time>
      </trkpt>
      <trkpt lat="47.83901" lon="2.18113">
        <ele>102</ele>
        <time>2016-10-30T07:56:46.000Z</time>
      </trkpt>
      <trkpt lat="47.83906" lon="2.18114">
        <ele>102</ele>
        <time>2016-10-30T07:56:47.000Z</time>
      </trkpt>
      <trkpt lat="47.83911" lon="2.18115">
        <ele>101</ele>
        <time>2016-10-30T07:56:48.000Z</time>
      </trkpt>
      <trkpt lat="47.83916" lon="2.18116">
        <ele>101</ele>
        <time>2016-10-30T07:56:49.000Z</time>
      </trkpt>
      <trkpt lat="47.83921" lon="2.18117">
        <ele>101</ele>
        <time>2016-10-30T07:56:50.000Z</time>
      </trkpt>
      <trkpt lat="47.83926" lon="2.18118">
        <ele>101</ele>
        <time>2016-10-30T07:56:51.000Z</time>
      </trkpt>
      <trkpt lat="47.83931" lon="2.18119">
        <ele>101</ele>
        <time>2016-10-30T07:56:52.000Z</time>
      </trkpt>
      <trkpt lat="47.83936" lon="2.1812">
        <ele>101</ele>
        <time>2016-10-30T07:56:53.000Z</time>
      </trkpt>
      <trkpt lat="47.83941" lon="2.1812">
        <ele>101</ele>
        <time>2016-10-30T07:56:54.000Z</time>
      </trkpt>
      <trkpt lat="47.83946" lon="2.18121">
        <ele>102</ele>
        <time>2016-10-30T07:56:55.000Z</time>
      </trkpt>
      <trkpt lat="47.83951" lon="2.18122">
        <ele>101</ele>
        <time>2016-10-30T07:56:56.000Z</time>
      </trkpt>
      <trkpt lat="47.83956" lon="2.18123">
        <ele>101</ele>
        <time>2016-10-30T07:56:57.000Z</time>
      </trkpt>
      <trkpt lat="47.83961" lon="2.18123">
        <ele>101</ele>
        <time>2016-10-30T07:56:58.000Z</time>
      </trkpt>
      <trkpt lat="47.83966" lon="2.18124">
        <ele>102</ele>
        <time>2016-10-30T07:56:59.000Z</time>
      </trkpt>
      <trkpt lat="47.83971" lon="2.18125">
        <ele>101</ele>
        <time>2016-10-30T07:57:00.000Z</time>
      </trkpt>
      <trkpt lat="47.83976" lon="2.18126">
        <ele>102</ele>
        <time>2016-10-30T07:57:01.000Z</time>
      </trkpt>
      <trkpt lat="47.83981" lon="2.18127">
        <ele>102</ele>
        <time>2016-10-30T07:57:02.000Z</time>
      </trkpt>
      <trkpt lat="47.83986" lon="2.18127">
        <ele>102</ele>
        <time>2016-10-30T07:57:03.000Z</time>
      </trkpt>
      <trkpt lat="47.83991" lon="2.18128">
        <ele>101</ele>
        <time>2016-10-30T07:57:04.000Z</time>
      </trkpt>
      <trkpt lat="47.83996" lon="2.18129">
        <ele>101</ele>
        <time>2016-10-30T07:57:05.000Z</time>
      </trkpt>
      <trkpt lat="47.84001" lon="2.1813">
        <ele>101</ele>
        <time>2016-10-30T07:57:06.000Z</time>
      </trkpt>
      <trkpt lat="47.84006" lon="2.1813">
        <ele>101</ele>
        <time>2016-10-30T07:57:07.000Z</time>
      </trkpt>
      <trkpt lat="47.8401" lon="2.18131">
        <ele>101</ele>
        <time>2016-10-30T07:57:08.000Z</time>
      </trkpt>
      <trkpt lat="47.84015" lon="2.18132">
        <ele>101</ele>
        <time>2016-10-30T07:57:09.000Z</time>
      </trkpt>
      <trkpt lat="47.8402" lon="2.18132">
        <ele>101</ele>
        <time>2016-10-30T07:57:10.000Z</time>
      </trkpt>
      <trkpt lat="47.84024" lon="2.18133">
        <ele>101</ele>
        <time>2016-10-30T07:57:11.000Z</time>
      </trkpt>
      <trkpt lat="47.84029" lon="2.18133">
        <ele>101</ele>
        <time>2016-10-30T07:57:12.000Z</time>
      </trkpt>
      <trkpt lat="47.84035" lon="2.18132">
        <ele>102</ele>
        <time>2016-10-30T07:57:13.000Z</time>
      </trkpt>
      <trkpt lat="47.8404" lon="2.18132">
        <ele>102</ele>
        <time>2016-10-30T07:57:14.000Z</time>
      </trkpt>
      <trkpt lat="47.84044" lon="2.18131">
        <ele>102</ele>
        <time>2016-10-30T07:57:15.000Z</time>
      </trkpt>
      <trkpt lat="47.84049" lon="2.18129">
        <ele>101</ele>
        <time>2016-10-30T07:57:16.000Z</time>
      </trkpt>
      <trkpt lat="47.84054" lon="2.18128">
        <ele>101</ele>
        <time>2016-10-30T07:57:17.000Z</time>
      </trkpt>
      <trkpt lat="47.84059" lon="2.18126">
        <ele>101</ele>
        <time>2016-10-30T07:57:18.000Z</time>
      </trkpt>
      <trkpt lat="47.84064" lon="2.18124">
        <ele>101</ele>
        <time>2016-10-30T07:57:19.000Z</time>
      </trkpt>
      <trkpt lat="47.84069" lon="2.18123">
        <ele>101</ele>
        <time>2016-10-30T07:57:20.000Z</time>
      </trkpt>
      <trkpt lat="47.84073" lon="2.18121">
        <ele>101</ele>
        <time>2016-10-30T07:57:21.000Z</time>
      </trkpt>
      <trkpt lat="47.84078" lon="2.1812">
        <ele>101</ele>
        <time>2016-10-30T07:57:22.000Z</time>
      </trkpt>
      <trkpt lat="47.84083" lon="2.18118">
        <ele>101</ele>
        <time>2016-10-30T07:57:23.000Z</time>
      </trkpt>
      <trkpt lat="47.84088" lon="2.18117">
        <ele>101</ele>
        <time>2016-10-30T07:57:24.000Z</time>
      </trkpt>
      <trkpt lat="47.84093" lon="2.18115">
        <ele>101</ele>
        <time>2016-10-30T07:57:25.000Z</time>
      </trkpt>
      <trkpt lat="47.84098" lon="2.18114">
        <ele>101</ele>
        <time>2016-10-30T07:57:26.000Z</time>
      </trkpt>
      <trkpt lat="47.84102" lon="2.18113">
        <ele>101</ele>
        <time>2016-10-30T07:57:27.000Z</time>
      </trkpt>
      <trkpt lat="47.84107" lon="2.18112">
        <ele>101</ele>
        <time>2016-10-30T07:57:28.000Z</time>
      </trkpt>
      <trkpt lat="47.84112" lon="2.18111">
        <ele>100</ele>
        <time>2016-10-30T07:57:29.000Z</time>
      </trkpt>
      <trkpt lat="47.84117" lon="2.1811">
        <ele>100</ele>
        <time>2016-10-30T07:57:30.000Z</time>
      </trkpt>
      <trkpt lat="47.84122" lon="2.18109">
        <ele>100</ele>
        <time>2016-10-30T07:57:31.000Z</time>
      </trkpt>
      <trkpt lat="47.84127" lon="2.18109">
        <ele>100</ele>
        <time>2016-10-30T07:57:32.000Z</time>
      </trkpt>
      <trkpt lat="47.84132" lon="2.18109">
        <ele>100</ele>
        <time>2016-10-30T07:57:33.000Z</time>
      </trkpt>
      <trkpt lat="47.84137" lon="2.1811">
        <ele>100</ele>
        <time>2016-10-30T07:57:34.000Z</time>
      </trkpt>
      <trkpt lat="47.84141" lon="2.18112">
        <ele>100</ele>
        <time>2016-10-30T07:57:35.000Z</time>
      </trkpt>
      <trkpt lat="47.84146" lon="2.18114">
        <ele>101</ele>
        <time>2016-10-30T07:57:36.000Z</time>
      </trkpt>
      <trkpt lat="47.8415" lon="2.18117">
        <ele>100</ele>
        <time>2016-10-30T07:57:37.000Z</time>
      </trkpt>
      <trkpt lat="47.84154" lon="2.18121">
        <ele>101</ele>
        <time>2016-10-30T07:57:38.000Z</time>
      </trkpt>
      <trkpt lat="47.84157" lon="2.18127">
        <ele>101</ele>
        <time>2016-10-30T07:57:39.000Z</time>
      </trkpt>
      <trkpt lat="47.84159" lon="2.18132">
        <ele>101</ele>
        <time>2016-10-30T07:57:40.000Z</time>
      </trkpt>
      <trkpt lat="47.84162" lon="2.18139">
        <ele>102</ele>
        <time>2016-10-30T07:57:41.000Z</time>
      </trkpt>
      <trkpt lat="47.84164" lon="2.18145">
        <ele>102</ele>
        <time>2016-10-30T07:57:42.000Z</time>
      </trkpt>
      <trkpt lat="47.84166" lon="2.18152">
        <ele>102</ele>
        <time>2016-10-30T07:57:43.000Z</time>
      </trkpt>
      <trkpt lat="47.84168" lon="2.18159">
        <ele>102</ele>
        <time>2016-10-30T07:57:44.000Z</time>
      </trkpt>
      <trkpt lat="47.8417" lon="2.18165">
        <ele>102</ele>
        <time>2016-10-30T07:57:45.000Z</time>
      </trkpt>
      <trkpt lat="47.84172" lon="2.18172">
        <ele>102</ele>
        <time>2016-10-30T07:57:46.000Z</time>
      </trkpt>
      <trkpt lat="47.84174" lon="2.18178">
        <ele>102</ele>
        <time>2016-10-30T07:57:47.000Z</time>
      </trkpt>
      <trkpt lat="47.84176" lon="2.18185">
        <ele>102</ele>
        <time>2016-10-30T07:57:48.000Z</time>
      </trkpt>
      <trkpt lat="47.84178" lon="2.18191">
        <ele>103</ele>
        <time>2016-10-30T07:57:49.000Z</time>
      </trkpt>
      <trkpt lat="47.8418" lon="2.18198">
        <ele>104</ele>
        <time>2016-10-30T07:57:50.000Z</time>
      </trkpt>
      <trkpt lat="47.84182" lon="2.18204">
        <ele>104</ele>
        <time>2016-10-30T07:57:51.000Z</time>
      </trkpt>
      <trkpt lat="47.84184" lon="2.1821">
        <ele>104</ele>
        <time>2016-10-30T07:57:52.000Z</time>
      </trkpt>
      <trkpt lat="47.84186" lon="2.18217">
        <ele>104</ele>
        <time>2016-10-30T07:57:53.000Z</time>
      </trkpt>
      <trkpt lat="47.84188" lon="2.18224">
        <ele>104</ele>
        <time>2016-10-30T07:57:54.000Z</time>
      </trkpt>
      <trkpt lat="47.84189" lon="2.1823">
        <ele>104</ele>
        <time>2016-10-30T07:57:55.000Z</time>
      </trkpt>
      <trkpt lat="47.84191" lon="2.18237">
        <ele>104</ele>
        <time>2016-10-30T07:57:56.000Z</time>
      </trkpt>
      <trkpt lat="47.84193" lon="2.18244">
        <ele>104</ele>
        <time>2016-10-30T07:57:57.000Z</time>
      </trkpt>
      <trkpt lat="47.84195" lon="2.1825">
        <ele>104</ele>
        <time>2016-10-30T07:57:58.000Z</time>
      </trkpt>
      <trkpt lat="47.84196" lon="2.18257">
        <ele>105</ele>
        <time>2016-10-30T07:57:59.000Z</time>
      </trkpt>
      <trkpt lat="47.84198" lon="2.18263">
        <ele>105</ele>
        <time>2016-10-30T07:58:00.000Z</time>
      </trkpt>
      <trkpt lat="47.842" lon="2.1827">
        <ele>105</ele>
        <time>2016-10-30T07:58:01.000Z</time>
      </trkpt>
      <trkpt lat="47.84201" lon="2.18276">
        <ele>105</ele>
        <time>2016-10-30T07:58:02.000Z</time>
      </trkpt>
      <trkpt lat="47.84203" lon="2.18283">
        <ele>105</ele>
        <time>2016-10-30T07:58:03.000Z</time>
      </trkpt>
      <trkpt lat="47.84204" lon="2.1829">
        <ele>105</ele>
        <time>2016-10-30T07:58:04.000Z</time>
      </trkpt>
      <trkpt lat="47.84206" lon="2.18296">
        <ele>106</ele>
        <time>2016-10-30T07:58:05.000Z</time>
      </trkpt>
      <trkpt lat="47.84207" lon="2.18303">
        <ele>106</ele>
        <time>2016-10-30T07:58:06.000Z</time>
      </trkpt>
      <trkpt lat="47.84208" lon="2.18309">
        <ele>106</ele>
        <time>2016-10-30T07:58:07.000Z</time>
      </trkpt>
      <trkpt lat="47.84209" lon="2.18316">
        <ele>106</ele>
        <time>2016-10-30T07:58:08.000Z</time>
      </trkpt>
      <trkpt lat="47.8421" lon="2.18322">
        <ele>106</ele>
        <time>2016-10-30T07:58:09.000Z</time>
      </trkpt>
      <trkpt lat="47.84211" lon="2.18328">
        <ele>106</ele>
        <time>2016-10-30T07:58:10.000Z</time>
      </trkpt>
      <trkpt lat="47.84212" lon="2.18334">
        <ele>106</ele>
        <time>2016-10-30T07:58:11.000Z</time>
      </trkpt>
      <trkpt lat="47.84215" lon="2.18339">
        <ele>106</ele>
        <time>2016-10-30T07:58:12.000Z</time>
      </trkpt>
      <trkpt lat="47.84218" lon="2.18343">
        <ele>105</ele>
        <time>2016-10-30T07:58:13.000Z</time>
      </trkpt>
      <trkpt lat="47.84221" lon="2.18345">
        <ele>105</ele>
        <time>2016-10-30T07:58:14.000Z</time>
      </trkpt>
      <trkpt lat="47.84224" lon="2.18346">
        <ele>105</ele>
        <time>2016-10-30T07:58:15.000Z</time>
      </trkpt>
      <trkpt lat="47.84228" lon="2.18347">
        <ele>105</ele>
        <time>2016-10-30T07:58:16.000Z</time>
      </trkpt>
      <trkpt lat="47.84232" lon="2.18347">
        <ele>105</ele>
        <time>2016-10-30T07:58:17.000Z</time>
      </trkpt>
      <trkpt lat="47.84235" lon="2.18347">
        <ele>104</ele>
        <time>2016-10-30T07:58:18.000Z</time>
      </trkpt>
      <trkpt lat="47.8424" lon="2.18348">
        <ele>104</ele>
        <time>2016-10-30T07:58:19.000Z</time>
      </trkpt>
      <trkpt lat="47.84244" lon="2.18349">
        <ele>104</ele>
        <time>2016-10-30T07:58:20.000Z</time>
      </trkpt>
      <trkpt lat="47.84248" lon="2.18349">
        <ele>105</ele>
        <time>2016-10-30T07:58:21.000Z</time>
      </trkpt>
      <trkpt lat="47.84252" lon="2.1835">
        <ele>104</ele>
        <time>2016-10-30T07:58:22.000Z</time>
      </trkpt>
      <trkpt lat="47.84257" lon="2.18351">
        <ele>103</ele>
        <time>2016-10-30T07:58:23.000Z</time>
      </trkpt>
      <trkpt lat="47.84262" lon="2.18352">
        <ele>102</ele>
        <time>2016-10-30T07:58:24.000Z</time>
      </trkpt>
      <trkpt lat="47.84266" lon="2.18352">
        <ele>102</ele>
        <time>2016-10-30T07:58:25.000Z</time>
      </trkpt>
      <trkpt lat="47.84271" lon="2.18353">
        <ele>102</ele>
        <time>2016-10-30T07:58:26.000Z</time>
      </trkpt>
      <trkpt lat="47.84276" lon="2.18354">
        <ele>102</ele>
        <time>2016-10-30T07:58:27.000Z</time>
      </trkpt>
      <trkpt lat="47.8428" lon="2.18354">
        <ele>102</ele>
        <time>2016-10-30T07:58:28.000Z</time>
      </trkpt>
      <trkpt lat="47.84285" lon="2.18355">
        <ele>101</ele>
        <time>2016-10-30T07:58:29.000Z</time>
      </trkpt>
      <trkpt lat="47.84289" lon="2.18355">
        <ele>101</ele>
        <time>2016-10-30T07:58:30.000Z</time>
      </trkpt>
      <trkpt lat="47.84294" lon="2.18356">
        <ele>101</ele>
        <time>2016-10-30T07:58:31.000Z</time>
      </trkpt>
      <trkpt lat="47.84299" lon="2.18357">
        <ele>101</ele>
        <time>2016-10-30T07:58:32.000Z</time>
      </trkpt>
      <trkpt lat="47.84303" lon="2.18357">
        <ele>101</ele>
        <time>2016-10-30T07:58:33.000Z</time>
      </trkpt>
      <trkpt lat="47.84308" lon="2.18358">
        <ele>101</ele>
        <time>2016-10-30T07:58:34.000Z</time>
      </trkpt>
      <trkpt lat="47.84313" lon="2.18359">
        <ele>101</ele>
        <time>2016-10-30T07:58:35.000Z</time>
      </trkpt>
      <trkpt lat="47.84318" lon="2.18359">
        <ele>101</ele>
        <time>2016-10-30T07:58:36.000Z</time>
      </trkpt>
      <trkpt lat="47.84323" lon="2.1836">
        <ele>101</ele>
        <time>2016-10-30T07:58:37.000Z</time>
      </trkpt>
      <trkpt lat="47.84328" lon="2.1836">
        <ele>101</ele>
        <time>2016-10-30T07:58:38.000Z</time>
      </trkpt>
      <trkpt lat="47.84334" lon="2.18361">
        <ele>102</ele>
        <time>2016-10-30T07:58:39.000Z</time>
      </trkpt>
      <trkpt lat="47.84339" lon="2.18362">
        <ele>102</ele>
        <time>2016-10-30T07:58:40.000Z</time>
      </trkpt>
      <trkpt lat="47.84344" lon="2.18363">
        <ele>102</ele>
        <time>2016-10-30T07:58:41.000Z</time>
      </trkpt>
      <trkpt lat="47.84349" lon="2.18363">
        <ele>102</ele>
        <time>2016-10-30T07:58:42.000Z</time>
      </trkpt>
      <trkpt lat="47.84354" lon="2.18364">
        <ele>101</ele>
        <time>2016-10-30T07:58:43.000Z</time>
      </trkpt>
      <trkpt lat="47.84359" lon="2.18365">
        <ele>101</ele>
        <time>2016-10-30T07:58:44.000Z</time>
      </trkpt>
      <trkpt lat="47.84364" lon="2.18365">
        <ele>101</ele>
        <time>2016-10-30T07:58:45.000Z</time>
      </trkpt>
      <trkpt lat="47.84369" lon="2.18366">
        <ele>101</ele>
        <time>2016-10-30T07:58:46.000Z</time>
      </trkpt>
      <trkpt lat="47.84374" lon="2.18366">
        <ele>101</ele>
        <time>2016-10-30T07:58:47.000Z</time>
      </trkpt>
      <trkpt lat="47.84379" lon="2.18367">
        <ele>101</ele>
        <time>2016-10-30T07:58:48.000Z</time>
      </trkpt>
      <trkpt lat="47.84384" lon="2.18367">
        <ele>101</ele>
        <time>2016-10-30T07:58:49.000Z</time>
      </trkpt>
      <trkpt lat="47.84389" lon="2.18368">
        <ele>101</ele>
        <time>2016-10-30T07:58:50.000Z</time>
      </trkpt>
      <trkpt lat="47.84394" lon="2.18368">
        <ele>101</ele>
        <time>2016-10-30T07:58:51.000Z</time>
      </trkpt>
      <trkpt lat="47.84399" lon="2.18369">
        <ele>101</ele>
        <time>2016-10-30T07:58:52.000Z</time>
      </trkpt>
      <trkpt lat="47.84404" lon="2.18369">
        <ele>100</ele>
        <time>2016-10-30T07:58:53.000Z</time>
      </trkpt>
      <trkpt lat="47.8441" lon="2.1837">
        <ele>101</ele>
        <time>2016-10-30T07:58:54.000Z</time>
      </trkpt>
      <trkpt lat="47.84415" lon="2.1837">
        <ele>101</ele>
        <time>2016-10-30T07:58:55.000Z</time>
      </trkpt>
      <trkpt lat="47.8442" lon="2.18371">
        <ele>101</ele>
        <time>2016-10-30T07:58:56.000Z</time>
      </trkpt>
      <trkpt lat="47.84425" lon="2.18372">
        <ele>101</ele>
        <time>2016-10-30T07:58:57.000Z</time>
      </trkpt>
      <trkpt lat="47.84431" lon="2.18372">
        <ele>100</ele>
        <time>2016-10-30T07:58:58.000Z</time>
      </trkpt>
      <trkpt lat="47.84436" lon="2.18373">
        <ele>100</ele>
        <time>2016-10-30T07:58:59.000Z</time>
      </trkpt>
      <trkpt lat="47.84441" lon="2.18373">
        <ele>100</ele>
        <time>2016-10-30T07:59:00.000Z</time>
      </trkpt>
      <trkpt lat="47.84446" lon="2.18374">
        <ele>100</ele>
        <time>2016-10-30T07:59:01.000Z</time>
      </trkpt>
      <trkpt lat="47.84451" lon="2.18374">
        <ele>100</ele>
        <time>2016-10-30T07:59:02.000Z</time>
      </trkpt>
      <trkpt lat="47.84456" lon="2.18375">
        <ele>100</ele>
        <time>2016-10-30T07:59:03.000Z</time>
      </trkpt>
      <trkpt lat="47.84462" lon="2.18376">
        <ele>100</ele>
        <time>2016-10-30T07:59:04.000Z</time>
      </trkpt>
      <trkpt lat="47.84467" lon="2.18376">
        <ele>99</ele>
        <time>2016-10-30T07:59:05.000Z</time>
      </trkpt>
      <trkpt lat="47.84472" lon="2.18377">
        <ele>99</ele>
        <time>2016-10-30T07:59:06.000Z</time>
      </trkpt>
      <trkpt lat="47.84477" lon="2.18378">
        <ele>99</ele>
        <time>2016-10-30T07:59:07.000Z</time>
      </trkpt>
      <trkpt lat="47.84482" lon="2.18378">
        <ele>99</ele>
        <time>2016-10-30T07:59:08.000Z</time>
      </trkpt>
      <trkpt lat="47.84487" lon="2.18379">
        <ele>99</ele>
        <time>2016-10-30T07:59:09.000Z</time>
      </trkpt>
      <trkpt lat="47.84492" lon="2.18379">
        <ele>99</ele>
        <time>2016-10-30T07:59:10.000Z</time>
      </trkpt>
      <trkpt lat="47.84498" lon="2.1838">
        <ele>99</ele>
        <time>2016-10-30T07:59:11.000Z</time>
      </trkpt>
      <trkpt lat="47.84502" lon="2.18381">
        <ele>99</ele>
        <time>2016-10-30T07:59:12.000Z</time>
      </trkpt>
      <trkpt lat="47.84507" lon="2.18381">
        <ele>99</ele>
        <time>2016-10-30T07:59:13.000Z</time>
      </trkpt>
      <trkpt lat="47.84513" lon="2.18382">
        <ele>99</ele>
        <time>2016-10-30T07:59:14.000Z</time>
      </trkpt>
      <trkpt lat="47.84518" lon="2.18383">
        <ele>99</ele>
        <time>2016-10-30T07:59:15.000Z</time>
      </trkpt>
      <trkpt lat="47.84523" lon="2.18384">
        <ele>99</ele>
        <time>2016-10-30T07:59:16.000Z</time>
      </trkpt>
      <trkpt lat="47.84528" lon="2.18384">
        <ele>99</ele>
        <time>2016-10-30T07:59:17.000Z</time>
      </trkpt>
      <trkpt lat="47.84533" lon="2.18385">
        <ele>99</ele>
        <time>2016-10-30T07:59:18.000Z</time>
      </trkpt>
      <trkpt lat="47.84538" lon="2.18386">
        <ele>99</ele>
        <time>2016-10-30T07:59:19.000Z</time>
      </trkpt>
      <trkpt lat="47.84543" lon="2.18386">
        <ele>99</ele>
        <time>2016-10-30T07:59:20.000Z</time>
      </trkpt>
      <trkpt lat="47.84547" lon="2.18386">
        <ele>99</ele>
        <time>2016-10-30T07:59:21.000Z</time>
      </trkpt>
      <trkpt lat="47.84551" lon="2.18387">
        <ele>99</ele>
        <time>2016-10-30T07:59:22.000Z</time>
      </trkpt>
      <trkpt lat="47.84555" lon="2.18387">
        <ele>99</ele>
        <time>2016-10-30T07:59:23.000Z</time>
      </trkpt>
      <trkpt lat="47.84559" lon="2.18387">
        <ele>99</ele>
        <time>2016-10-30T07:59:24.000Z</time>
      </trkpt>
      <trkpt lat="47.84563" lon="2.18388">
        <ele>99</ele>
        <time>2016-10-30T07:59:25.000Z</time>
      </trkpt>
      <trkpt lat="47.84567" lon="2.18389">
        <ele>98</ele>
        <time>2016-10-30T07:59:26.000Z</time>
      </trkpt>
      <trkpt lat="47.84571" lon="2.1839">
        <ele>98</ele>
        <time>2016-10-30T07:59:27.000Z</time>
      </trkpt>
      <trkpt lat="47.84575" lon="2.18391">
        <ele>99</ele>
        <time>2016-10-30T07:59:28.000Z</time>
      </trkpt>
      <trkpt lat="47.84579" lon="2.18392">
        <ele>100</ele>
        <time>2016-10-30T07:59:29.000Z</time>
      </trkpt>
      <trkpt lat="47.84584" lon="2.18393">
        <ele>100</ele>
        <time>2016-10-30T07:59:30.000Z</time>
      </trkpt>
      <trkpt lat="47.84587" lon="2.18396">
        <ele>100</ele>
        <time>2016-10-30T07:59:31.000Z</time>
      </trkpt>
      <trkpt lat="47.8459" lon="2.18399">
        <ele>99</ele>
        <time>2016-10-30T07:59:32.000Z</time>
      </trkpt>
      <trkpt lat="47.84593" lon="2.18403">
        <ele>101</ele>
        <time>2016-10-30T07:59:33.000Z</time>
      </trkpt>
      <trkpt lat="47.84594" lon="2.18408">
        <ele>102</ele>
        <time>2016-10-30T07:59:34.000Z</time>
      </trkpt>
      <trkpt lat="47.84594" lon="2.18413">
        <ele>103</ele>
        <time>2016-10-30T07:59:35.000Z</time>
      </trkpt>
      <trkpt lat="47.84594" lon="2.18419">
        <ele>103</ele>
        <time>2016-10-30T07:59:36.000Z</time>
      </trkpt>
      <trkpt lat="47.84594" lon="2.18425">
        <ele>104</ele>
        <time>2016-10-30T07:59:37.000Z</time>
      </trkpt>
      <trkpt lat="47.84593" lon="2.18431">
        <ele>104</ele>
        <time>2016-10-30T07:59:38.000Z</time>
      </trkpt>
      <trkpt lat="47.84593" lon="2.18437">
        <ele>104</ele>
        <time>2016-10-30T07:59:39.000Z</time>
      </trkpt>
      <trkpt lat="47.84592" lon="2.18444">
        <ele>104</ele>
        <time>2016-10-30T07:59:40.000Z</time>
      </trkpt>
      <trkpt lat="47.84591" lon="2.1845">
        <ele>104</ele>
        <time>2016-10-30T07:59:41.000Z</time>
      </trkpt>
      <trkpt lat="47.84591" lon="2.18457">
        <ele>104</ele>
        <time>2016-10-30T07:59:42.000Z</time>
      </trkpt>
      <trkpt lat="47.8459" lon="2.18464">
        <ele>104</ele>
        <time>2016-10-30T07:59:43.000Z</time>
      </trkpt>
      <trkpt lat="47.84589" lon="2.1847">
        <ele>105</ele>
        <time>2016-10-30T07:59:44.000Z</time>
      </trkpt>
      <trkpt lat="47.84589" lon="2.18477">
        <ele>105</ele>
        <time>2016-10-30T07:59:45.000Z</time>
      </trkpt>
      <trkpt lat="47.84588" lon="2.18484">
        <ele>105</ele>
        <time>2016-10-30T07:59:46.000Z</time>
      </trkpt>
      <trkpt lat="47.84587" lon="2.18491">
        <ele>105</ele>
        <time>2016-10-30T07:59:47.000Z</time>
      </trkpt>
      <trkpt lat="47.84587" lon="2.18498">
        <ele>105</ele>
        <time>2016-10-30T07:59:48.000Z</time>
      </trkpt>
      <trkpt lat="47.84586" lon="2.18504">
        <ele>105</ele>
        <time>2016-10-30T07:59:49.000Z</time>
      </trkpt>
      <trkpt lat="47.84586" lon="2.18511">
        <ele>105</ele>
        <time>2016-10-30T07:59:50.000Z</time>
      </trkpt>
      <trkpt lat="47.84585" lon="2.18518">
        <ele>105</ele>
        <time>2016-10-30T07:59:51.000Z</time>
      </trkpt>
      <trkpt lat="47.84585" lon="2.18525">
        <ele>105</ele>
        <time>2016-10-30T07:59:52.000Z</time>
      </trkpt>
      <trkpt lat="47.84585" lon="2.18532">
        <ele>105</ele>
        <time>2016-10-30T07:59:53.000Z</time>
      </trkpt>
      <trkpt lat="47.84584" lon="2.18539">
        <ele>105</ele>
        <time>2016-10-30T07:59:54.000Z</time>
      </trkpt>
      <trkpt lat="47.84584" lon="2.18546">
        <ele>104</ele>
        <time>2016-10-30T07:59:55.000Z</time>
      </trkpt>
      <trkpt lat="47.84584" lon="2.18553">
        <ele>104</ele>
        <time>2016-10-30T07:59:56.000Z</time>
      </trkpt>
      <trkpt lat="47.84584" lon="2.1856">
        <ele>104</ele>
        <time>2016-10-30T07:59:57.000Z</time>
      </trkpt>
      <trkpt lat="47.84584" lon="2.18567">
        <ele>104</ele>
        <time>2016-10-30T07:59:58.000Z</time>
      </trkpt>
      <trkpt lat="47.84584" lon="2.18574">
        <ele>105</ele>
        <time>2016-10-30T07:59:59.000Z</time>
      </trkpt>
      <trkpt lat="47.84584" lon="2.18581">
        <ele>105</ele>
        <time>2016-10-30T08:00:00.000Z</time>
      </trkpt>
      <trkpt lat="47.84584" lon="2.18588">
        <ele>105</ele>
        <time>2016-10-30T08:00:01.000Z</time>
      </trkpt>
      <trkpt lat="47.84584" lon="2.18595">
        <ele>105</ele>
        <time>2016-10-30T08:00:02.000Z</time>
      </trkpt>
      <trkpt lat="47.84584" lon="2.18602">
        <ele>105</ele>
        <time>2016-10-30T08:00:03.000Z</time>
      </trkpt>
      <trkpt lat="47.84584" lon="2.1861">
        <ele>105</ele>
        <time>2016-10-30T08:00:04.000Z</time>
      </trkpt>
      <trkpt lat="47.84584" lon="2.18617">
        <ele>105</ele>
        <time>2016-10-30T08:00:05.000Z</time>
      </trkpt>
      <trkpt lat="47.84584" lon="2.18624">
        <ele>105</ele>
        <time>2016-10-30T08:00:06.000Z</time>
      </trkpt>
      <trkpt lat="47.84584" lon="2.18631">
        <ele>105</ele>
        <time>2016-10-30T08:00:07.000Z</time>
      </trkpt>
      <trkpt lat="47.84584" lon="2.18638">
        <ele>105</ele>
        <time>2016-10-30T08:00:08.000Z</time>
      </trkpt>
      <trkpt lat="47.84584" lon="2.18645">
        <ele>106</ele>
        <time>2016-10-30T08:00:09.000Z</time>
      </trkpt>
      <trkpt lat="47.84584" lon="2.18651">
        <ele>106</ele>
        <time>2016-10-30T08:00:10.000Z</time>
      </trkpt>
      <trkpt lat="47.84583" lon="2.18657">
        <ele>106</ele>
        <time>2016-10-30T08:00:11.000Z</time>
      </trkpt>
      <trkpt lat="47.84583" lon="2.18663">
        <ele>106</ele>
        <time>2016-10-30T08:00:12.000Z</time>
      </trkpt>
      <trkpt lat="47.84583" lon="2.18669">
        <ele>106</ele>
        <time>2016-10-30T08:00:13.000Z</time>
      </trkpt>
      <trkpt lat="47.84583" lon="2.18675">
        <ele>106</ele>
        <time>2016-10-30T08:00:14.000Z</time>
      </trkpt>
      <trkpt lat="47.84583" lon="2.18681">
        <ele>106</ele>
        <time>2016-10-30T08:00:15.000Z</time>
      </trkpt>
      <trkpt lat="47.84583" lon="2.18687">
        <ele>106</ele>
        <time>2016-10-30T08:00:16.000Z</time>
      </trkpt>
      <trkpt lat="47.84582" lon="2.18693">
        <ele>106</ele>
        <time>2016-10-30T08:00:17.000Z</time>
      </trkpt>
      <trkpt lat="47.84582" lon="2.187">
        <ele>106</ele>
        <time>2016-10-30T08:00:18.000Z</time>
      </trkpt>
      <trkpt lat="47.84582" lon="2.18706">
        <ele>106</ele>
        <time>2016-10-30T08:00:19.000Z</time>
      </trkpt>
      <trkpt lat="47.84581" lon="2.18712">
        <ele>106</ele>
        <time>2016-10-30T08:00:20.000Z</time>
      </trkpt>
      <trkpt lat="47.84581" lon="2.18719">
        <ele>106</ele>
        <time>2016-10-30T08:00:21.000Z</time>
      </trkpt>
      <trkpt lat="47.8458" lon="2.18725">
        <ele>106</ele>
        <time>2016-10-30T08:00:22.000Z</time>
      </trkpt>
      <trkpt lat="47.8458" lon="2.18732">
        <ele>106</ele>
        <time>2016-10-30T08:00:23.000Z</time>
      </trkpt>
      <trkpt lat="47.8458" lon="2.18739">
        <ele>106</ele>
        <time>2016-10-30T08:00:24.000Z</time>
      </trkpt>
      <trkpt lat="47.84579" lon="2.18745">
        <ele>106</ele>
        <time>2016-10-30T08:00:25.000Z</time>
      </trkpt>
      <trkpt lat="47.84579" lon="2.18752">
        <ele>106</ele>
        <time>2016-10-30T08:00:26.000Z</time>
      </trkpt>
      <trkpt lat="47.84578" lon="2.18758">
        <ele>106</ele>
        <time>2016-10-30T08:00:27.000Z</time>
      </trkpt>
      <trkpt lat="47.84578" lon="2.18765">
        <ele>106</ele>
        <time>2016-10-30T08:00:28.000Z</time>
      </trkpt>
      <trkpt lat="47.84577" lon="2.18772">
        <ele>106</ele>
        <time>2016-10-30T08:00:29.000Z</time>
      </trkpt>
      <trkpt lat="47.84577" lon="2.18778">
        <ele>106</ele>
        <time>2016-10-30T08:00:30.000Z</time>
      </trkpt>
      <trkpt lat="47.84576" lon="2.18785">
        <ele>106</ele>
        <time>2016-10-30T08:00:31.000Z</time>
      </trkpt>
      <trkpt lat="47.84576" lon="2.18792">
        <ele>106</ele>
        <time>2016-10-30T08:00:32.000Z</time>
      </trkpt>
      <trkpt lat="47.84575" lon="2.18799">
        <ele>106</ele>
        <time>2016-10-30T08:00:33.000Z</time>
      </trkpt>
      <trkpt lat="47.84575" lon="2.18805">
        <ele>106</ele>
        <time>2016-10-30T08:00:34.000Z</time>
      </trkpt>
      <trkpt lat="47.84574" lon="2.18812">
        <ele>106</ele>
        <time>2016-10-30T08:00:35.000Z</time>
      </trkpt>
      <trkpt lat="47.84574" lon="2.18819">
        <ele>106</ele>
        <time>2016-10-30T08:00:36.000Z</time>
      </trkpt>
      <trkpt lat="47.84573" lon="2.18826">
        <ele>106</ele>
        <time>2016-10-30T08:00:37.000Z</time>
      </trkpt>
      <trkpt lat="47.84573" lon="2.18833">
        <ele>106</ele>
        <time>2016-10-30T08:00:38.000Z</time>
      </trkpt>
      <trkpt lat="47.84573" lon="2.1884">
        <ele>106</ele>
        <time>2016-10-30T08:00:39.000Z</time>
      </trkpt>
      <trkpt lat="47.84572" lon="2.18846">
        <ele>106</ele>
        <time>2016-10-30T08:00:40.000Z</time>
      </trkpt>
      <trkpt lat="47.84572" lon="2.18853">
        <ele>106</ele>
        <time>2016-10-30T08:00:41.000Z</time>
      </trkpt>
      <trkpt lat="47.84572" lon="2.1886">
        <ele>106</ele>
        <time>2016-10-30T08:00:42.000Z</time>
      </trkpt>
      <trkpt lat="47.84573" lon="2.18867">
        <ele>106</ele>
        <time>2016-10-30T08:00:43.000Z</time>
      </trkpt>
      <trkpt lat="47.84573" lon="2.18874">
        <ele>105</ele>
        <time>2016-10-30T08:00:44.000Z</time>
      </trkpt>
      <trkpt lat="47.84573" lon="2.18881">
        <ele>105</ele>
        <time>2016-10-30T08:00:45.000Z</time>
      </trkpt>
      <trkpt lat="47.84573" lon="2.18888">
        <ele>105</ele>
        <time>2016-10-30T08:00:46.000Z</time>
      </trkpt>
      <trkpt lat="47.84573" lon="2.18895">
        <ele>105</ele>
        <time>2016-10-30T08:00:47.000Z</time>
      </trkpt>
      <trkpt lat="47.84574" lon="2.18902">
        <ele>105</ele>
        <time>2016-10-30T08:00:48.000Z</time>
      </trkpt>
      <trkpt lat="47.84574" lon="2.18909">
        <ele>105</ele>
        <time>2016-10-30T08:00:49.000Z</time>
      </trkpt>
      <trkpt lat="47.84574" lon="2.18916">
        <ele>105</ele>
        <time>2016-10-30T08:00:50.000Z</time>
      </trkpt>
      <trkpt lat="47.84575" lon="2.18923">
        <ele>105</ele>
        <time>2016-10-30T08:00:51.000Z</time>
      </trkpt>
      <trkpt lat="47.84575" lon="2.1893">
        <ele>105</ele>
        <time>2016-10-30T08:00:52.000Z</time>
      </trkpt>
      <trkpt lat="47.84575" lon="2.18937">
        <ele>105</ele>
        <time>2016-10-30T08:00:53.000Z</time>
      </trkpt>
      <trkpt lat="47.84576" lon="2.18944">
        <ele>105</ele>
        <time>2016-10-30T08:00:54.000Z</time>
      </trkpt>
      <trkpt lat="47.84576" lon="2.18951">
        <ele>105</ele>
        <time>2016-10-30T08:00:55.000Z</time>
      </trkpt>
      <trkpt lat="47.84576" lon="2.18958">
        <ele>105</ele>
        <time>2016-10-30T08:00:56.000Z</time>
      </trkpt>
      <trkpt lat="47.84577" lon="2.18965">
        <ele>105</ele>
        <time>2016-10-30T08:00:57.000Z</time>
      </trkpt>
      <trkpt lat="47.84577" lon="2.18972">
        <ele>105</ele>
        <time>2016-10-30T08:00:58.000Z</time>
      </trkpt>
      <trkpt lat="47.84578" lon="2.18979">
        <ele>105</ele>
        <time>2016-10-30T08:00:59.000Z</time>
      </trkpt>
      <trkpt lat="47.84578" lon="2.18986">
        <ele>105</ele>
        <time>2016-10-30T08:01:00.000Z</time>
      </trkpt>
      <trkpt lat="47.84578" lon="2.18993">
        <ele>105</ele>
        <time>2016-10-30T08:01:01.000Z</time>
      </trkpt>
      <trkpt lat="47.84579" lon="2.19">
        <ele>105</ele>
        <time>2016-10-30T08:01:02.000Z</time>
      </trkpt>
      <trkpt lat="47.84579" lon="2.19007">
        <ele>105</ele>
        <time>2016-10-30T08:01:03.000Z</time>
      </trkpt>
      <trkpt lat="47.8458" lon="2.19014">
        <ele>105</ele>
        <time>2016-10-30T08:01:04.000Z</time>
      </trkpt>
      <trkpt lat="47.8458" lon="2.1902">
        <ele>105</ele>
        <time>2016-10-30T08:01:05.000Z</time>
      </trkpt>
      <trkpt lat="47.84581" lon="2.19027">
        <ele>105</ele>
        <time>2016-10-30T08:01:06.000Z</time>
      </trkpt>
      <trkpt lat="47.84581" lon="2.19034">
        <ele>105</ele>
        <time>2016-10-30T08:01:07.000Z</time>
      </trkpt>
      <trkpt lat="47.84582" lon="2.19041">
        <ele>105</ele>
        <time>2016-10-30T08:01:08.000Z</time>
      </trkpt>
      <trkpt lat="47.84582" lon="2.19048">
        <ele>105</ele>
        <time>2016-10-30T08:01:09.000Z</time>
      </trkpt>
      <trkpt lat="47.84582" lon="2.19055">
        <ele>105</ele>
        <time>2016-10-30T08:01:10.000Z</time>
      </trkpt>
      <trkpt lat="47.84583" lon="2.19062">
        <ele>105</ele>
        <time>2016-10-30T08:01:11.000Z</time>
      </trkpt>
      <trkpt lat="47.84583" lon="2.19069">
        <ele>105</ele>
        <time>2016-10-30T08:01:12.000Z</time>
      </trkpt>
      <trkpt lat="47.84584" lon="2.19076">
        <ele>105</ele>
        <time>2016-10-30T08:01:13.000Z</time>
      </trkpt>
      <trkpt lat="47.84584" lon="2.19083">
        <ele>105</ele>
        <time>2016-10-30T08:01:14.000Z</time>
      </trkpt>
      <trkpt lat="47.84585" lon="2.1909">
        <ele>105</ele>
        <time>2016-10-30T08:01:15.000Z</time>
      </trkpt>
      <trkpt lat="47.84585" lon="2.19097">
        <ele>105</ele>
        <time>2016-10-30T08:01:16.000Z</time>
      </trkpt>
      <trkpt lat="47.84586" lon="2.19104">
        <ele>105</ele>
        <time>2016-10-30T08:01:17.000Z</time>
      </trkpt>
      <trkpt lat="47.84586" lon="2.19111">
        <ele>105</ele>
        <time>2016-10-30T08:01:18.000Z</time>
      </trkpt>
      <trkpt lat="47.84587" lon="2.19117">
        <ele>105</ele>
        <time>2016-10-30T08:01:19.000Z</time>
      </trkpt>
      <trkpt lat="47.84587" lon="2.19124">
        <ele>106</ele>
        <time>2016-10-30T08:01:20.000Z</time>
      </trkpt>
      <trkpt lat="47.84588" lon="2.19131">
        <ele>106</ele>
        <time>2016-10-30T08:01:21.000Z</time>
      </trkpt>
      <trkpt lat="47.84588" lon="2.19138">
        <ele>106</ele>
        <time>2016-10-30T08:01:22.000Z</time>
      </trkpt>
      <trkpt lat="47.84589" lon="2.19145">
        <ele>106</ele>
        <time>2016-10-30T08:01:23.000Z</time>
      </trkpt>
      <trkpt lat="47.84589" lon="2.19152">
        <ele>106</ele>
        <time>2016-10-30T08:01:24.000Z</time>
      </trkpt>
      <trkpt lat="47.8459" lon="2.19159">
        <ele>106</ele>
        <time>2016-10-30T08:01:25.000Z</time>
      </trkpt>
      <trkpt lat="47.84591" lon="2.19166">
        <ele>106</ele>
        <time>2016-10-30T08:01:26.000Z</time>
      </trkpt>
      <trkpt lat="47.84591" lon="2.19174">
        <ele>106</ele>
        <time>2016-10-30T08:01:27.000Z</time>
      </trkpt>
      <trkpt lat="47.84592" lon="2.19181">
        <ele>106</ele>
        <time>2016-10-30T08:01:28.000Z</time>
      </trkpt>
      <trkpt lat="47.84592" lon="2.19188">
        <ele>106</ele>
        <time>2016-10-30T08:01:29.000Z</time>
      </trkpt>
      <trkpt lat="47.84593" lon="2.19196">
        <ele>106</ele>
        <time>2016-10-30T08:01:30.000Z</time>
      </trkpt>
      <trkpt lat="47.84593" lon="2.19203">
        <ele>106</ele>
        <time>2016-10-30T08:01:31.000Z</time>
      </trkpt>
      <trkpt lat="47.84594" lon="2.19211">
        <ele>106</ele>
        <time>2016-10-30T08:01:32.000Z</time>
      </trkpt>
      <trkpt lat="47.84594" lon="2.19218">
        <ele>105</ele>
        <time>2016-10-30T08:01:33.000Z</time>
      </trkpt>
      <trkpt lat="47.84595" lon="2.19226">
        <ele>105</ele>
        <time>2016-10-30T08:01:34.000Z</time>
      </trkpt>
      <trkpt lat="47.84596" lon="2.19233">
        <ele>105</ele>
        <time>2016-10-30T08:01:35.000Z</time>
      </trkpt>
      <trkpt lat="47.84596" lon="2.19241">
        <ele>105</ele>
        <time>2016-10-30T08:01:36.000Z</time>
      </trkpt>
      <trkpt lat="47.84597" lon="2.19248">
        <ele>105</ele>
        <time>2016-10-30T08:01:37.000Z</time>
      </trkpt>
      <trkpt lat="47.84597" lon="2.19256">
        <ele>105</ele>
        <time>2016-10-30T08:01:38.000Z</time>
      </trkpt>
      <trkpt lat="47.84598" lon="2.19263">
        <ele>105</ele>
        <time>2016-10-30T08:01:39.000Z</time>
      </trkpt>
      <trkpt lat="47.84599" lon="2.1927">
        <ele>105</ele>
        <time>2016-10-30T08:01:40.000Z</time>
      </trkpt>
      <trkpt lat="47.84599" lon="2.19276">
        <ele>105</ele>
        <time>2016-10-30T08:01:41.000Z</time>
      </trkpt>
      <trkpt lat="47.846" lon="2.19284">
        <ele>105</ele>
        <time>2016-10-30T08:01:42.000Z</time>
      </trkpt>
      <trkpt lat="47.84601" lon="2.19291">
        <ele>105</ele>
        <time>2016-10-30T08:01:43.000Z</time>
      </trkpt>
      <trkpt lat="47.84601" lon="2.19298">
        <ele>105</ele>
        <time>2016-10-30T08:01:44.000Z</time>
      </trkpt>
      <trkpt lat="47.84602" lon="2.19305">
        <ele>105</ele>
        <time>2016-10-30T08:01:45.000Z</time>
      </trkpt>
      <trkpt lat="47.84603" lon="2.19313">
        <ele>105</ele>
        <time>2016-10-30T08:01:46.000Z</time>
      </trkpt>
      <trkpt lat="47.84604" lon="2.1932">
        <ele>105</ele>
        <time>2016-10-30T08:01:47.000Z</time>
      </trkpt>
      <trkpt lat="47.84605" lon="2.19327">
        <ele>105</ele>
        <time>2016-10-30T08:01:48.000Z</time>
      </trkpt>
      <trkpt lat="47.84605" lon="2.19334">
        <ele>106</ele>
        <time>2016-10-30T08:01:49.000Z</time>
      </trkpt>
      <trkpt lat="47.84606" lon="2.19341">
        <ele>106</ele>
        <time>2016-10-30T08:01:50.000Z</time>
      </trkpt>
      <trkpt lat="47.84607" lon="2.19348">
        <ele>106</ele>
        <time>2016-10-30T08:01:51.000Z</time>
      </trkpt>
      <trkpt lat="47.84608" lon="2.19356">
        <ele>106</ele>
        <time>2016-10-30T08:01:52.000Z</time>
      </trkpt>
      <trkpt lat="47.8461" lon="2.19363">
        <ele>106</ele>
        <time>2016-10-30T08:01:53.000Z</time>
      </trkpt>
      <trkpt lat="47.84611" lon="2.1937">
        <ele>106</ele>
        <time>2016-10-30T08:01:54.000Z</time>
      </trkpt>
      <trkpt lat="47.84612" lon="2.19377">
        <ele>106</ele>
        <time>2016-10-30T08:01:55.000Z</time>
      </trkpt>
      <trkpt lat="47.84613" lon="2.19384">
        <ele>106</ele>
        <time>2016-10-30T08:01:56.000Z</time>
      </trkpt>
      <trkpt lat="47.84615" lon="2.19391">
        <ele>106</ele>
        <time>2016-10-30T08:01:57.000Z</time>
      </trkpt>
      <trkpt lat="47.84616" lon="2.19398">
        <ele>106</ele>
        <time>2016-10-30T08:01:58.000Z</time>
      </trkpt>
      <trkpt lat="47.84618" lon="2.19405">
        <ele>106</ele>
        <time>2016-10-30T08:01:59.000Z</time>
      </trkpt>
      <trkpt lat="47.84619" lon="2.19413">
        <ele>106</ele>
        <time>2016-10-30T08:02:00.000Z</time>
      </trkpt>
      <trkpt lat="47.84621" lon="2.1942">
        <ele>106</ele>
        <time>2016-10-30T08:02:01.000Z</time>
      </trkpt>
      <trkpt lat="47.84622" lon="2.19427">
        <ele>107</ele>
        <time>2016-10-30T08:02:02.000Z</time>
      </trkpt>
      <trkpt lat="47.84624" lon="2.19434">
        <ele>107</ele>
        <time>2016-10-30T08:02:03.000Z</time>
      </trkpt>
      <trkpt lat="47.84625" lon="2.19441">
        <ele>107</ele>
        <time>2016-10-30T08:02:04.000Z</time>
      </trkpt>
      <trkpt lat="47.84626" lon="2.19448">
        <ele>107</ele>
        <time>2016-10-30T08:02:05.000Z</time>
      </trkpt>
      <trkpt lat="47.84628" lon="2.19455">
        <ele>107</ele>
        <time>2016-10-30T08:02:06.000Z</time>
      </trkpt>
      <trkpt lat="47.84629" lon="2.19462">
        <ele>107</ele>
        <time>2016-10-30T08:02:07.000Z</time>
      </trkpt>
      <trkpt lat="47.84631" lon="2.19469">
        <ele>107</ele>
        <time>2016-10-30T08:02:08.000Z</time>
      </trkpt>
      <trkpt lat="47.84632" lon="2.19475">
        <ele>107</ele>
        <time>2016-10-30T08:02:09.000Z</time>
      </trkpt>
      <trkpt lat="47.84634" lon="2.19482">
        <ele>107</ele>
        <time>2016-10-30T08:02:10.000Z</time>
      </trkpt>
      <trkpt lat="47.84635" lon="2.19489">
        <ele>107</ele>
        <time>2016-10-30T08:02:11.000Z</time>
      </trkpt>
      <trkpt lat="47.84637" lon="2.19496">
        <ele>107</ele>
        <time>2016-10-30T08:02:12.000Z</time>
      </trkpt>
      <trkpt lat="47.84638" lon="2.19504">
        <ele>108</ele>
        <time>2016-10-30T08:02:13.000Z</time>
      </trkpt>
      <trkpt lat="47.8464" lon="2.19511">
        <ele>108</ele>
        <time>2016-10-30T08:02:14.000Z</time>
      </trkpt>
      <trkpt lat="47.84642" lon="2.19518">
        <ele>108</ele>
        <time>2016-10-30T08:02:15.000Z</time>
      </trkpt>
      <trkpt lat="47.84643" lon="2.19526">
        <ele>108</ele>
        <time>2016-10-30T08:02:16.000Z</time>
      </trkpt>
      <trkpt lat="47.84645" lon="2.19533">
        <ele>108</ele>
        <time>2016-10-30T08:02:17.000Z</time>
      </trkpt>
      <trkpt lat="47.84647" lon="2.19541">
        <ele>108</ele>
        <time>2016-10-30T08:02:18.000Z</time>
      </trkpt>
      <trkpt lat="47.84648" lon="2.19548">
        <ele>108</ele>
        <time>2016-10-30T08:02:19.000Z</time>
      </trkpt>
      <trkpt lat="47.8465" lon="2.19556">
        <ele>108</ele>
        <time>2016-10-30T08:02:20.000Z</time>
      </trkpt>
      <trkpt lat="47.84651" lon="2.19564">
        <ele>108</ele>
        <time>2016-10-30T08:02:21.000Z</time>
      </trkpt>
      <trkpt lat="47.84653" lon="2.19571">
        <ele>108</ele>
        <time>2016-10-30T08:02:22.000Z</time>
      </trkpt>
      <trkpt lat="47.84655" lon="2.19579">
        <ele>108</ele>
        <time>2016-10-30T08:02:23.000Z</time>
      </trkpt>
      <trkpt lat="47.84656" lon="2.19587">
        <ele>108</ele>
        <time>2016-10-30T08:02:24.000Z</time>
      </trkpt>
      <trkpt lat="47.84658" lon="2.19594">
        <ele>108</ele>
        <time>2016-10-30T08:02:25.000Z</time>
      </trkpt>
      <trkpt lat="47.8466" lon="2.19602">
        <ele>108</ele>
        <time>2016-10-30T08:02:26.000Z</time>
      </trkpt>
      <trkpt lat="47.84661" lon="2.1961">
        <ele>108</ele>
        <time>2016-10-30T08:02:27.000Z</time>
      </trkpt>
      <trkpt lat="47.84663" lon="2.19618">
        <ele>108</ele>
        <time>2016-10-30T08:02:28.000Z</time>
      </trkpt>
      <trkpt lat="47.84664" lon="2.19626">
        <ele>107</ele>
        <time>2016-10-30T08:02:29.000Z</time>
      </trkpt>
      <trkpt lat="47.84666" lon="2.19634">
        <ele>108</ele>
        <time>2016-10-30T08:02:30.000Z</time>
      </trkpt>
      <trkpt lat="47.84668" lon="2.19642">
        <ele>108</ele>
        <time>2016-10-30T08:02:31.000Z</time>
      </trkpt>
      <trkpt lat="47.84669" lon="2.1965">
        <ele>108</ele>
        <time>2016-10-30T08:02:32.000Z</time>
      </trkpt>
      <trkpt lat="47.84671" lon="2.19658">
        <ele>108</ele>
        <time>2016-10-30T08:02:33.000Z</time>
      </trkpt>
      <trkpt lat="47.84673" lon="2.19666">
        <ele>108</ele>
        <time>2016-10-30T08:02:34.000Z</time>
      </trkpt>
      <trkpt lat="47.84675" lon="2.19674">
        <ele>108</ele>
        <time>2016-10-30T08:02:35.000Z</time>
      </trkpt>
      <trkpt lat="47.84676" lon="2.19682">
        <ele>108</ele>
        <time>2016-10-30T08:02:36.000Z</time>
      </trkpt>
      <trkpt lat="47.84678" lon="2.1969">
        <ele>108</ele>
        <time>2016-10-30T08:02:37.000Z</time>
      </trkpt>
      <trkpt lat="47.8468" lon="2.19698">
        <ele>108</ele>
        <time>2016-10-30T08:02:38.000Z</time>
      </trkpt>
      <trkpt lat="47.84681" lon="2.19706">
        <ele>108</ele>
        <time>2016-10-30T08:02:39.000Z</time>
      </trkpt>
      <trkpt lat="47.84683" lon="2.19714">
        <ele>108</ele>
        <time>2016-10-30T08:02:40.000Z</time>
      </trkpt>
      <trkpt lat="47.84685" lon="2.19722">
        <ele>108</ele>
        <time>2016-10-30T08:02:41.000Z</time>
      </trkpt>
      <trkpt lat="47.84686" lon="2.1973">
        <ele>108</ele>
        <time>2016-10-30T08:02:42.000Z</time>
      </trkpt>
      <trkpt lat="47.84688" lon="2.19739">
        <ele>108</ele>
        <time>2016-10-30T08:02:43.000Z</time>
      </trkpt>
      <trkpt lat="47.8469" lon="2.19747">
        <ele>108</ele>
        <time>2016-10-30T08:02:44.000Z</time>
      </trkpt>
      <trkpt lat="47.84692" lon="2.19755">
        <ele>109</ele>
        <time>2016-10-30T08:02:45.000Z</time>
      </trkpt>
      <trkpt lat="47.84694" lon="2.19764">
        <ele>109</ele>
        <time>2016-10-30T08:02:46.000Z</time>
      </trkpt>
      <trkpt lat="47.84696" lon="2.19772">
        <ele>108</ele>
        <time>2016-10-30T08:02:47.000Z</time>
      </trkpt>
      <trkpt lat="47.84697" lon="2.19781">
        <ele>108</ele>
        <time>2016-10-30T08:02:48.000Z</time>
      </trkpt>
      <trkpt lat="47.84699" lon="2.19789">
        <ele>108</ele>
        <time>2016-10-30T08:02:49.000Z</time>
      </trkpt>
      <trkpt lat="47.84701" lon="2.19798">
        <ele>108</ele>
        <time>2016-10-30T08:02:50.000Z</time>
      </trkpt>
      <trkpt lat="47.84702" lon="2.19806">
        <ele>108</ele>
        <time>2016-10-30T08:02:51.000Z</time>
      </trkpt>
      <trkpt lat="47.84704" lon="2.19815">
        <ele>108</ele>
        <time>2016-10-30T08:02:52.000Z</time>
      </trkpt>
      <trkpt lat="47.84706" lon="2.19823">
        <ele>108</ele>
        <time>2016-10-30T08:02:53.000Z</time>
      </trkpt>
      <trkpt lat="47.84708" lon="2.19832">
        <ele>108</ele>
        <time>2016-10-30T08:02:54.000Z</time>
      </trkpt>
      <trkpt lat="47.8471" lon="2.1984">
        <ele>108</ele>
        <time>2016-10-30T08:02:55.000Z</time>
      </trkpt>
      <trkpt lat="47.84712" lon="2.19849">
        <ele>108</ele>
        <time>2016-10-30T08:02:56.000Z</time>
      </trkpt>
      <trkpt lat="47.84713" lon="2.19857">
        <ele>108</ele>
        <time>2016-10-30T08:02:57.000Z</time>
      </trkpt>
      <trkpt lat="47.84715" lon="2.19865">
        <ele>108</ele>
        <time>2016-10-30T08:02:58.000Z</time>
      </trkpt>
      <trkpt lat="47.84717" lon="2.19873">
        <ele>108</ele>
        <time>2016-10-30T08:02:59.000Z</time>
      </trkpt>
      <trkpt lat="47.84719" lon="2.19882">
        <ele>108</ele>
        <time>2016-10-30T08:03:00.000Z</time>
      </trkpt>
      <trkpt lat="47.8472" lon="2.1989">
        <ele>108</ele>
        <time>2016-10-30T08:03:01.000Z</time>
      </trkpt>
      <trkpt lat="47.84722" lon="2.19898">
        <ele>108</ele>
        <time>2016-10-30T08:03:02.000Z</time>
      </trkpt>
      <trkpt lat="47.84724" lon="2.19906">
        <ele>108</ele>
        <time>2016-10-30T08:03:03.000Z</time>
      </trkpt>
      <trkpt lat="47.84726" lon="2.19914">
        <ele>108</ele>
        <time>2016-10-30T08:03:04.000Z</time>
      </trkpt>
      <trkpt lat="47.84728" lon="2.19922">
        <ele>108</ele>
        <time>2016-10-30T08:03:05.000Z</time>
      </trkpt>
      <trkpt lat="47.84729" lon="2.1993">
        <ele>108</ele>
        <time>2016-10-30T08:03:06.000Z</time>
      </trkpt>
      <trkpt lat="47.84731" lon="2.19938">
        <ele>108</ele>
        <time>2016-10-30T08:03:07.000Z</time>
      </trkpt>
      <trkpt lat="47.84733" lon="2.19946">
        <ele>108</ele>
        <time>2016-10-30T08:03:08.000Z</time>
      </trkpt>
      <trkpt lat="47.84735" lon="2.19954">
        <ele>108</ele>
        <time>2016-10-30T08:03:09.000Z</time>
      </trkpt>
      <trkpt lat="47.84736" lon="2.19961">
        <ele>108</ele>
        <time>2016-10-30T08:03:10.000Z</time>
      </trkpt>
      <trkpt lat="47.84738" lon="2.19969">
        <ele>108</ele>
        <time>2016-10-30T08:03:11.000Z</time>
      </trkpt>
      <trkpt lat="47.8474" lon="2.19976">
        <ele>108</ele>
        <time>2016-10-30T08:03:12.000Z</time>
      </trkpt>
      <trkpt lat="47.84742" lon="2.19983">
        <ele>108</ele>
        <time>2016-10-30T08:03:13.000Z</time>
      </trkpt>
      <trkpt lat="47.84744" lon="2.1999">
        <ele>108</ele>
        <time>2016-10-30T08:03:14.000Z</time>
      </trkpt>
      <trkpt lat="47.84746" lon="2.19996">
        <ele>107</ele>
        <time>2016-10-30T08:03:15.000Z</time>
      </trkpt>
      <trkpt lat="47.84749" lon="2.20002">
        <ele>107</ele>
        <time>2016-10-30T08:03:16.000Z</time>
      </trkpt>
      <trkpt lat="47.84752" lon="2.20008">
        <ele>107</ele>
        <time>2016-10-30T08:03:17.000Z</time>
      </trkpt>
      <trkpt lat="47.84754" lon="2.20013">
        <ele>107</ele>
        <time>2016-10-30T08:03:18.000Z</time>
      </trkpt>
      <trkpt lat="47.84756" lon="2.20019">
        <ele>107</ele>
        <time>2016-10-30T08:03:19.000Z</time>
      </trkpt>
      <trkpt lat="47.84758" lon="2.20025">
        <ele>107</ele>
        <time>2016-10-30T08:03:20.000Z</time>
      </trkpt>
      <trkpt lat="47.8476" lon="2.20033">
        <ele>107</ele>
        <time>2016-10-30T08:03:21.000Z</time>
      </trkpt>
      <trkpt lat="47.84761" lon="2.2004">
        <ele>107</ele>
        <time>2016-10-30T08:03:22.000Z</time>
      </trkpt>
      <trkpt lat="47.84762" lon="2.20048">
        <ele>107</ele>
        <time>2016-10-30T08:03:23.000Z</time>
      </trkpt>
      <trkpt lat="47.84764" lon="2.20056">
        <ele>106</ele>
        <time>2016-10-30T08:03:24.000Z</time>
      </trkpt>
      <trkpt lat="47.84765" lon="2.20065">
        <ele>105</ele>
        <time>2016-10-30T08:03:25.000Z</time>
      </trkpt>
      <trkpt lat="47.84767" lon="2.20073">
        <ele>104</ele>
        <time>2016-10-30T08:03:26.000Z</time>
      </trkpt>
      <trkpt lat="47.84769" lon="2.20083">
        <ele>103</ele>
        <time>2016-10-30T08:03:27.000Z</time>
      </trkpt>
      <trkpt lat="47.84771" lon="2.20091">
        <ele>103</ele>
        <time>2016-10-30T08:03:28.000Z</time>
      </trkpt>
      <trkpt lat="47.84775" lon="2.20098">
        <ele>102</ele>
        <time>2016-10-30T08:03:29.000Z</time>
      </trkpt>
      <trkpt lat="47.8478" lon="2.20103">
        <ele>102</ele>
        <time>2016-10-30T08:03:30.000Z</time>
      </trkpt>
      <trkpt lat="47.84785" lon="2.20105">
        <ele>101</ele>
        <time>2016-10-30T08:03:31.000Z</time>
      </trkpt>
      <trkpt lat="47.8479" lon="2.20105">
        <ele>101</ele>
        <time>2016-10-30T08:03:32.000Z</time>
      </trkpt>
      <trkpt lat="47.84795" lon="2.20105">
        <ele>100</ele>
        <time>2016-10-30T08:03:33.000Z</time>
      </trkpt>
      <trkpt lat="47.848" lon="2.20105">
        <ele>100</ele>
        <time>2016-10-30T08:03:34.000Z</time>
      </trkpt>
      <trkpt lat="47.84806" lon="2.20104">
        <ele>100</ele>
        <time>2016-10-30T08:03:35.000Z</time>
      </trkpt>
      <trkpt lat="47.84811" lon="2.20102">
        <ele>100</ele>
        <time>2016-10-30T08:03:36.000Z</time>
      </trkpt>
      <trkpt lat="47.84817" lon="2.20101">
        <ele>100</ele>
        <time>2016-10-30T08:03:37.000Z</time>
      </trkpt>
      <trkpt lat="47.84822" lon="2.201">
        <ele>99</ele>
        <time>2016-10-30T08:03:38.000Z</time>
      </trkpt>
      <trkpt lat="47.84828" lon="2.20099">
        <ele>99</ele>
        <time>2016-10-30T08:03:39.000Z</time>
      </trkpt>
      <trkpt lat="47.84833" lon="2.201">
        <ele>99</ele>
        <time>2016-10-30T08:03:40.000Z</time>
      </trkpt>
      <trkpt lat="47.84838" lon="2.20102">
        <ele>99</ele>
        <time>2016-10-30T08:03:41.000Z</time>
      </trkpt>
      <trkpt lat="47.84842" lon="2.20106">
        <ele>97</ele>
        <time>2016-10-30T08:03:42.000Z</time>
      </trkpt>
      <trkpt lat="47.84847" lon="2.20109">
        <ele>97</ele>
        <time>2016-10-30T08:03:43.000Z</time>
      </trkpt>
      <trkpt lat="47.84851" lon="2.20114">
        <ele>97</ele>
        <time>2016-10-30T08:03:44.000Z</time>
      </trkpt>
      <trkpt lat="47.84855" lon="2.2012">
        <ele>98</ele>
        <time>2016-10-30T08:03:45.000Z</time>
      </trkpt>
      <trkpt lat="47.8486" lon="2.20126">
        <ele>99</ele>
        <time>2016-10-30T08:03:46.000Z</time>
      </trkpt>
      <trkpt lat="47.84863" lon="2.20133">
        <ele>98</ele>
        <time>2016-10-30T08:03:47.000Z</time>
      </trkpt>
      <trkpt lat="47.84867" lon="2.20141">
        <ele>99</ele>
        <time>2016-10-30T08:03:48.000Z</time>
      </trkpt>
      <trkpt lat="47.8487" lon="2.20149">
        <ele>100</ele>
        <time>2016-10-30T08:03:49.000Z</time>
      </trkpt>
      <trkpt lat="47.84874" lon="2.20157">
        <ele>100</ele>
        <time>2016-10-30T08:03:50.000Z</time>
      </trkpt>
      <trkpt lat="47.84877" lon="2.20164">
        <ele>100</ele>
        <time>2016-10-30T08:03:51.000Z</time>
      </trkpt>
      <trkpt lat="47.8488" lon="2.20171">
        <ele>101</ele>
        <time>2016-10-30T08:03:52.000Z</time>
      </trkpt>
      <trkpt lat="47.84884" lon="2.20177">
        <ele>101</ele>
        <time>2016-10-30T08:03:53.000Z</time>
      </trkpt>
      <trkpt lat="47.84888" lon="2.20184">
        <ele>101</ele>
        <time>2016-10-30T08:03:54.000Z</time>
      </trkpt>
      <trkpt lat="47.84892" lon="2.2019">
        <ele>102</ele>
        <time>2016-10-30T08:03:55.000Z</time>
      </trkpt>
      <trkpt lat="47.84895" lon="2.20197">
        <ele>102</ele>
        <time>2016-10-30T08:03:56.000Z</time>
      </trkpt>
      <trkpt lat="47.84899" lon="2.20204">
        <ele>102</ele>
        <time>2016-10-30T08:03:57.000Z</time>
      </trkpt>
      <trkpt lat="47.84902" lon="2.20211">
        <ele>102</ele>
        <time>2016-10-30T08:03:58.000Z</time>
      </trkpt>
      <trkpt lat="47.84905" lon="2.20217">
        <ele>102</ele>
        <time>2016-10-30T08:03:59.000Z</time>
      </trkpt>
      <trkpt lat="47.84909" lon="2.20224">
        <ele>102</ele>
        <time>2016-10-30T08:04:00.000Z</time>
      </trkpt>
      <trkpt lat="47.84912" lon="2.20231">
        <ele>103</ele>
        <time>2016-10-30T08:04:01.000Z</time>
      </trkpt>
      <trkpt lat="47.84915" lon="2.20238">
        <ele>103</ele>
        <time>2016-10-30T08:04:02.000Z</time>
      </trkpt>
      <trkpt lat="47.84919" lon="2.20244">
        <ele>103</ele>
        <time>2016-10-30T08:04:03.000Z</time>
      </trkpt>
      <trkpt lat="47.84922" lon="2.20251">
        <ele>103</ele>
        <time>2016-10-30T08:04:04.000Z</time>
      </trkpt>
      <trkpt lat="47.84926" lon="2.20257">
        <ele>103</ele>
        <time>2016-10-30T08:04:05.000Z</time>
      </trkpt>
      <trkpt lat="47.8493" lon="2.20263">
        <ele>103</ele>
        <time>2016-10-30T08:04:06.000Z</time>
      </trkpt>
      <trkpt lat="47.84933" lon="2.20268">
        <ele>103</ele>
        <time>2016-10-30T08:04:07.000Z</time>
      </trkpt>
      <trkpt lat="47.84937" lon="2.20274">
        <ele>103</ele>
        <time>2016-10-30T08:04:08.000Z</time>
      </trkpt>
      <trkpt lat="47.84941" lon="2.2028">
        <ele>104</ele>
        <time>2016-10-30T08:04:09.000Z</time>
      </trkpt>
      <trkpt lat="47.84944" lon="2.20286">
        <ele>104</ele>
        <time>2016-10-30T08:04:10.000Z</time>
      </trkpt>
      <trkpt lat="47.84948" lon="2.20292">
        <ele>104</ele>
        <time>2016-10-30T08:04:11.000Z</time>
      </trkpt>
      <trkpt lat="47.84952" lon="2.20298">
        <ele>104</ele>
        <time>2016-10-30T08:04:12.000Z</time>
      </trkpt>
      <trkpt lat="47.84956" lon="2.20303">
        <ele>104</ele>
        <time>2016-10-30T08:04:13.000Z</time>
      </trkpt>
      <trkpt lat="47.8496" lon="2.20309">
        <ele>104</ele>
        <time>2016-10-30T08:04:14.000Z</time>
      </trkpt>
      <trkpt lat="47.84963" lon="2.20314">
        <ele>104</ele>
        <time>2016-10-30T08:04:15.000Z</time>
      </trkpt>
      <trkpt lat="47.84967" lon="2.20321">
        <ele>104</ele>
        <time>2016-10-30T08:04:16.000Z</time>
      </trkpt>
      <trkpt lat="47.8497" lon="2.20327">
        <ele>104</ele>
        <time>2016-10-30T08:04:17.000Z</time>
      </trkpt>
      <trkpt lat="47.84973" lon="2.20334">
        <ele>105</ele>
        <time>2016-10-30T08:04:18.000Z</time>
      </trkpt>
      <trkpt lat="47.84976" lon="2.2034">
        <ele>105</ele>
        <time>2016-10-30T08:04:19.000Z</time>
      </trkpt>
      <trkpt lat="47.8498" lon="2.20346">
        <ele>105</ele>
        <time>2016-10-30T08:04:20.000Z</time>
      </trkpt>
      <trkpt lat="47.84983" lon="2.20352">
        <ele>104</ele>
        <time>2016-10-30T08:04:21.000Z</time>
      </trkpt>
      <trkpt lat="47.84987" lon="2.20358">
        <ele>104</ele>
        <time>2016-10-30T08:04:22.000Z</time>
      </trkpt>
      <trkpt lat="47.84991" lon="2.20364">
        <ele>104</ele>
        <time>2016-10-30T08:04:23.000Z</time>
      </trkpt>
      <trkpt lat="47.84994" lon="2.2037">
        <ele>104</ele>
        <time>2016-10-30T08:04:24.000Z</time>
      </trkpt>
      <trkpt lat="47.84998" lon="2.20376">
        <ele>105</ele>
        <time>2016-10-30T08:04:25.000Z</time>
      </trkpt>
      <trkpt lat="47.85001" lon="2.20383">
        <ele>105</ele>
        <time>2016-10-30T08:04:26.000Z</time>
      </trkpt>
      <trkpt lat="47.85005" lon="2.20389">
        <ele>104</ele>
        <time>2016-10-30T08:04:27.000Z</time>
      </trkpt>
      <trkpt lat="47.85008" lon="2.20396">
        <ele>104</ele>
        <time>2016-10-30T08:04:28.000Z</time>
      </trkpt>
      <trkpt lat="47.85011" lon="2.20402">
        <ele>105</ele>
        <time>2016-10-30T08:04:29.000Z</time>
      </trkpt>
      <trkpt lat="47.85015" lon="2.20408">
        <ele>104</ele>
        <time>2016-10-30T08:04:30.000Z</time>
      </trkpt>
      <trkpt lat="47.85018" lon="2.20413">
        <ele>104</ele>
        <time>2016-10-30T08:04:31.000Z</time>
      </trkpt>
      <trkpt lat="47.85022" lon="2.20418">
        <ele>104</ele>
        <time>2016-10-30T08:04:32.000Z</time>
      </trkpt>
      <trkpt lat="47.85026" lon="2.20423">
        <ele>104</ele>
        <time>2016-10-30T08:04:33.000Z</time>
      </trkpt>
      <trkpt lat="47.8503" lon="2.20428">
        <ele>104</ele>
        <time>2016-10-30T08:04:34.000Z</time>
      </trkpt>
      <trkpt lat="47.85034" lon="2.20433">
        <ele>104</ele>
        <time>2016-10-30T08:04:35.000Z</time>
      </trkpt>
      <trkpt lat="47.85037" lon="2.20437">
        <ele>105</ele>
        <time>2016-10-30T08:04:36.000Z</time>
      </trkpt>
      <trkpt lat="47.8504" lon="2.20442">
        <ele>104</ele>
        <time>2016-10-30T08:04:37.000Z</time>
      </trkpt>
      <trkpt lat="47.85043" lon="2.20447">
        <ele>104</ele>
        <time>2016-10-30T08:04:38.000Z</time>
      </trkpt>
      <trkpt lat="47.85047" lon="2.20452">
        <ele>104</ele>
        <time>2016-10-30T08:04:39.000Z</time>
      </trkpt>
      <trkpt lat="47.85051" lon="2.20457">
        <ele>104</ele>
        <time>2016-10-30T08:04:40.000Z</time>
      </trkpt>
      <trkpt lat="47.85055" lon="2.20462">
        <ele>105</ele>
        <time>2016-10-30T08:04:41.000Z</time>
      </trkpt>
      <trkpt lat="47.85059" lon="2.20466">
        <ele>105</ele>
        <time>2016-10-30T08:04:42.000Z</time>
      </trkpt>
      <trkpt lat="47.85062" lon="2.2047">
        <ele>106</ele>
        <time>2016-10-30T08:04:43.000Z</time>
      </trkpt>
      <trkpt lat="47.85065" lon="2.20475">
        <ele>106</ele>
        <time>2016-10-30T08:04:44.000Z</time>
      </trkpt>
      <trkpt lat="47.85068" lon="2.20479">
        <ele>106</ele>
        <time>2016-10-30T08:04:45.000Z</time>
      </trkpt>
      <trkpt lat="47.85072" lon="2.20484">
        <ele>106</ele>
        <time>2016-10-30T08:04:46.000Z</time>
      </trkpt>
      <trkpt lat="47.85077" lon="2.2049">
        <ele>106</ele>
        <time>2016-10-30T08:04:47.000Z</time>
      </trkpt>
      <trkpt lat="47.85081" lon="2.20496">
        <ele>105</ele>
        <time>2016-10-30T08:04:48.000Z</time>
      </trkpt>
      <trkpt lat="47.85085" lon="2.20502">
        <ele>105</ele>
        <time>2016-10-30T08:04:49.000Z</time>
      </trkpt>
      <trkpt lat="47.85088" lon="2.20506">
        <ele>105</ele>
        <time>2016-10-30T08:04:50.000Z</time>
      </trkpt>
      <trkpt lat="47.85091" lon="2.20509">
        <ele>104</ele>
        <time>2016-10-30T08:04:51.000Z</time>
      </trkpt>
      <trkpt lat="47.85094" lon="2.20512">
        <ele>104</ele>
        <time>2016-10-30T08:04:52.000Z</time>
      </trkpt>
      <trkpt lat="47.85098" lon="2.20515">
        <ele>104</ele>
        <time>2016-10-30T08:04:53.000Z</time>
      </trkpt>
      <trkpt lat="47.85102" lon="2.2052">
        <ele>106</ele>
        <time>2016-10-30T08:04:54.000Z</time>
      </trkpt>
      <trkpt lat="47.85106" lon="2.20525">
        <ele>103</ele>
        <time>2016-10-30T08:04:55.000Z</time>
      </trkpt>
      <trkpt lat="47.8511" lon="2.20531">
        <ele>102</ele>
        <time>2016-10-30T08:04:56.000Z</time>
      </trkpt>
      <trkpt lat="47.85113" lon="2.20537">
        <ele>103</ele>
        <time>2016-10-30T08:04:57.000Z</time>
      </trkpt>
      <trkpt lat="47.85117" lon="2.20542">
        <ele>103</ele>
        <time>2016-10-30T08:04:58.000Z</time>
      </trkpt>
      <trkpt lat="47.8512" lon="2.20547">
        <ele>104</ele>
        <time>2016-10-30T08:04:59.000Z</time>
      </trkpt>
      <trkpt lat="47.85124" lon="2.20553">
        <ele>104</ele>
        <time>2016-10-30T08:05:00.000Z</time>
      </trkpt>
      <trkpt lat="47.85128" lon="2.20561">
        <ele>103</ele>
        <time>2016-10-30T08:05:01.000Z</time>
      </trkpt>
      <trkpt lat="47.85133" lon="2.2057">
        <ele>103</ele>
        <time>2016-10-30T08:05:02.000Z</time>
      </trkpt>
      <trkpt lat="47.85136" lon="2.20577">
        <ele>102</ele>
        <time>2016-10-30T08:05:03.000Z</time>
      </trkpt>
      <trkpt lat="47.85139" lon="2.20585">
        <ele>102</ele>
        <time>2016-10-30T08:05:04.000Z</time>
      </trkpt>
      <trkpt lat="47.85141" lon="2.20592">
        <ele>103</ele>
        <time>2016-10-30T08:05:05.000Z</time>
      </trkpt>
      <trkpt lat="47.85145" lon="2.20599">
        <ele>106</ele>
        <time>2016-10-30T08:05:06.000Z</time>
      </trkpt>
      <trkpt lat="47.85148" lon="2.20605">
        <ele>106</ele>
        <time>2016-10-30T08:05:07.000Z</time>
      </trkpt>
      <trkpt lat="47.85152" lon="2.20611">
        <ele>107</ele>
        <time>2016-10-30T08:05:08.000Z</time>
      </trkpt>
      <trkpt lat="47.85155" lon="2.20617">
        <ele>108</ele>
        <time>2016-10-30T08:05:09.000Z</time>
      </trkpt>
      <trkpt lat="47.85159" lon="2.20623">
        <ele>108</ele>
        <time>2016-10-30T08:05:10.000Z</time>
      </trkpt>
      <trkpt lat="47.85163" lon="2.20629">
        <ele>106</ele>
        <time>2016-10-30T08:05:11.000Z</time>
      </trkpt>
      <trkpt lat="47.85166" lon="2.20635">
        <ele>105</ele>
        <time>2016-10-30T08:05:12.000Z</time>
      </trkpt>
      <trkpt lat="47.85169" lon="2.20642">
        <ele>106</ele>
        <time>2016-10-30T08:05:13.000Z</time>
      </trkpt>
      <trkpt lat="47.85172" lon="2.20648">
        <ele>106</ele>
        <time>2016-10-30T08:05:14.000Z</time>
      </trkpt>
      <trkpt lat="47.85174" lon="2.20655">
        <ele>106</ele>
        <time>2016-10-30T08:05:15.000Z</time>
      </trkpt>
      <trkpt lat="47.85177" lon="2.20663">
        <ele>105</ele>
        <time>2016-10-30T08:05:16.000Z</time>
      </trkpt>
      <trkpt lat="47.85179" lon="2.2067">
        <ele>106</ele>
        <time>2016-10-30T08:05:17.000Z</time>
      </trkpt>
      <trkpt lat="47.85181" lon="2.20678">
        <ele>106</ele>
        <time>2016-10-30T08:05:18.000Z</time>
      </trkpt>
      <trkpt lat="47.85184" lon="2.20685">
        <ele>107</ele>
        <time>2016-10-30T08:05:19.000Z</time>
      </trkpt>
      <trkpt lat="47.85187" lon="2.20692">
        <ele>107</ele>
        <time>2016-10-30T08:05:20.000Z</time>
      </trkpt>
      <trkpt lat="47.85191" lon="2.20698">
        <ele>108</ele>
        <time>2016-10-30T08:05:21.000Z</time>
      </trkpt>
      <trkpt lat="47.85195" lon="2.20704">
        <ele>110</ele>
        <time>2016-10-30T08:05:22.000Z</time>
      </trkpt>
      <trkpt lat="47.85199" lon="2.2071">
        <ele>110</ele>
        <time>2016-10-30T08:05:23.000Z</time>
      </trkpt>
      <trkpt lat="47.85202" lon="2.20715">
        <ele>111</ele>
        <time>2016-10-30T08:05:24.000Z</time>
      </trkpt>
      <trkpt lat="47.85206" lon="2.2072">
        <ele>111</ele>
        <time>2016-10-30T08:05:25.000Z</time>
      </trkpt>
      <trkpt lat="47.85209" lon="2.20725">
        <ele>111</ele>
        <time>2016-10-30T08:05:26.000Z</time>
      </trkpt>
      <trkpt lat="47.85212" lon="2.20731">
        <ele>110</ele>
        <time>2016-10-30T08:05:27.000Z</time>
      </trkpt>
      <trkpt lat="47.85215" lon="2.20736">
        <ele>111</ele>
        <time>2016-10-30T08:05:28.000Z</time>
      </trkpt>
      <trkpt lat="47.85218" lon="2.20742">
        <ele>111</ele>
        <time>2016-10-30T08:05:29.000Z</time>
      </trkpt>
      <trkpt lat="47.85221" lon="2.20746">
        <ele>111</ele>
        <time>2016-10-30T08:05:30.000Z</time>
      </trkpt>
      <trkpt lat="47.85224" lon="2.20752">
        <ele>111</ele>
        <time>2016-10-30T08:05:31.000Z</time>
      </trkpt>
      <trkpt lat="47.85227" lon="2.20759">
        <ele>109</ele>
        <time>2016-10-30T08:05:32.000Z</time>
      </trkpt>
      <trkpt lat="47.85231" lon="2.20767">
        <ele>109</ele>
        <time>2016-10-30T08:05:33.000Z</time>
      </trkpt>
      <trkpt lat="47.85234" lon="2.20773">
        <ele>109</ele>
        <time>2016-10-30T08:05:34.000Z</time>
      </trkpt>
      <trkpt lat="47.85237" lon="2.2078">
        <ele>109</ele>
        <time>2016-10-30T08:05:35.000Z</time>
      </trkpt>
      <trkpt lat="47.8524" lon="2.20786">
        <ele>109</ele>
        <time>2016-10-30T08:05:36.000Z</time>
      </trkpt>
      <trkpt lat="47.85243" lon="2.20794">
        <ele>108</ele>
        <time>2016-10-30T08:05:37.000Z</time>
      </trkpt>
      <trkpt lat="47.85246" lon="2.20801">
        <ele>108</ele>
        <time>2016-10-30T08:05:38.000Z</time>
      </trkpt>
      <trkpt lat="47.85248" lon="2.20808">
        <ele>109</ele>
        <time>2016-10-30T08:05:39.000Z</time>
      </trkpt>
      <trkpt lat="47.85251" lon="2.20815">
        <ele>109</ele>
        <time>2016-10-30T08:05:40.000Z</time>
      </trkpt>
      <trkpt lat="47.85252" lon="2.20822">
        <ele>108</ele>
        <time>2016-10-30T08:05:41.000Z</time>
      </trkpt>
      <trkpt lat="47.85252" lon="2.20829">
        <ele>106</ele>
        <time>2016-10-30T08:05:42.000Z</time>
      </trkpt>
      <trkpt lat="47.85251" lon="2.20836">
        <ele>107</ele>
        <time>2016-10-30T08:05:43.000Z</time>
      </trkpt>
      <trkpt lat="47.85249" lon="2.20842">
        <ele>106</ele>
        <time>2016-10-30T08:05:44.000Z</time>
      </trkpt>
      <trkpt lat="47.85249" lon="2.20847">
        <ele>105</ele>
        <time>2016-10-30T08:05:45.000Z</time>
      </trkpt>
      <trkpt lat="47.85248" lon="2.20852">
        <ele>102</ele>
        <time>2016-10-30T08:05:46.000Z</time>
      </trkpt>
      <trkpt lat="47.85248" lon="2.20856">
        <ele>103</ele>
        <time>2016-10-30T08:05:47.000Z</time>
      </trkpt>
      <trkpt lat="47.85249" lon="2.2086">
        <ele>103</ele>
        <time>2016-10-30T08:05:48.000Z</time>
      </trkpt>
      <trkpt lat="47.85251" lon="2.20863">
        <ele>103</ele>
        <time>2016-10-30T08:05:49.000Z</time>
      </trkpt>
      <trkpt lat="47.85253" lon="2.20868">
        <ele>103</ele>
        <time>2016-10-30T08:05:50.000Z</time>
      </trkpt>
      <trkpt lat="47.85255" lon="2.20872">
        <ele>103</ele>
        <time>2016-10-30T08:05:51.000Z</time>
      </trkpt>
      <trkpt lat="47.85257" lon="2.20877">
        <ele>104</ele>
        <time>2016-10-30T08:05:52.000Z</time>
      </trkpt>
      <trkpt lat="47.8526" lon="2.20882">
        <ele>104</ele>
        <time>2016-10-30T08:05:53.000Z</time>
      </trkpt>
      <trkpt lat="47.85262" lon="2.20886">
        <ele>104</ele>
        <time>2016-10-30T08:05:54.000Z</time>
      </trkpt>
      <trkpt lat="47.85265" lon="2.2089">
        <ele>104</ele>
        <time>2016-10-30T08:05:55.000Z</time>
      </trkpt>
      <trkpt lat="47.85268" lon="2.20896">
        <ele>102</ele>
        <time>2016-10-30T08:05:56.000Z</time>
      </trkpt>
      <trkpt lat="47.85272" lon="2.20905">
        <ele>100</ele>
        <time>2016-10-30T08:05:57.000Z</time>
      </trkpt>
      <trkpt lat="47.85275" lon="2.20913">
        <ele>101</ele>
        <time>2016-10-30T08:05:58.000Z</time>
      </trkpt>
      <trkpt lat="47.85277" lon="2.2092">
        <ele>103</ele>
        <time>2016-10-30T08:05:59.000Z</time>
      </trkpt>
      <trkpt lat="47.85279" lon="2.20928">
        <ele>105</ele>
        <time>2016-10-30T08:06:00.000Z</time>
      </trkpt>
      <trkpt lat="47.85282" lon="2.20936">
        <ele>105</ele>
        <time>2016-10-30T08:06:01.000Z</time>
      </trkpt>
      <trkpt lat="47.85284" lon="2.20944">
        <ele>105</ele>
        <time>2016-10-30T08:06:02.000Z</time>
      </trkpt>
      <trkpt lat="47.85287" lon="2.20952">
        <ele>106</ele>
        <time>2016-10-30T08:06:03.000Z</time>
      </trkpt>
      <trkpt lat="47.85289" lon="2.20959">
        <ele>106</ele>
        <time>2016-10-30T08:06:04.000Z</time>
      </trkpt>
      <trkpt lat="47.85292" lon="2.20965">
        <ele>104</ele>
        <time>2016-10-30T08:06:05.000Z</time>
      </trkpt>
      <trkpt lat="47.85295" lon="2.20972">
        <ele>104</ele>
        <time>2016-10-30T08:06:06.000Z</time>
      </trkpt>
      <trkpt lat="47.85298" lon="2.20979">
        <ele>103</ele>
        <time>2016-10-30T08:06:07.000Z</time>
      </trkpt>
      <trkpt lat="47.85302" lon="2.20986">
        <ele>103</ele>
        <time>2016-10-30T08:06:08.000Z</time>
      </trkpt>
      <trkpt lat="47.85305" lon="2.20993">
        <ele>103</ele>
        <time>2016-10-30T08:06:09.000Z</time>
      </trkpt>
      <trkpt lat="47.85308" lon="2.21">
        <ele>103</ele>
        <time>2016-10-30T08:06:10.000Z</time>
      </trkpt>
      <trkpt lat="47.85312" lon="2.21006">
        <ele>103</ele>
        <time>2016-10-30T08:06:11.000Z</time>
      </trkpt>
      <trkpt lat="47.85316" lon="2.21012">
        <ele>104</ele>
        <time>2016-10-30T08:06:12.000Z</time>
      </trkpt>
      <trkpt lat="47.85319" lon="2.21018">
        <ele>104</ele>
        <time>2016-10-30T08:06:13.000Z</time>
      </trkpt>
      <trkpt lat="47.85323" lon="2.21024">
        <ele>104</ele>
        <time>2016-10-30T08:06:14.000Z</time>
      </trkpt>
      <trkpt lat="47.85327" lon="2.21031">
        <ele>105</ele>
        <time>2016-10-30T08:06:15.000Z</time>
      </trkpt>
      <trkpt lat="47.85332" lon="2.21038">
        <ele>107</ele>
        <time>2016-10-30T08:06:16.000Z</time>
      </trkpt>
      <trkpt lat="47.85336" lon="2.21044">
        <ele>106</ele>
        <time>2016-10-30T08:06:17.000Z</time>
      </trkpt>
      <trkpt lat="47.85341" lon="2.2105">
        <ele>107</ele>
        <time>2016-10-30T08:06:18.000Z</time>
      </trkpt>
      <trkpt lat="47.85345" lon="2.21056">
        <ele>107</ele>
        <time>2016-10-30T08:06:19.000Z</time>
      </trkpt>
      <trkpt lat="47.85349" lon="2.21062">
        <ele>107</ele>
        <time>2016-10-30T08:06:20.000Z</time>
      </trkpt>
      <trkpt lat="47.85353" lon="2.21069">
        <ele>106</ele>
        <time>2016-10-30T08:06:21.000Z</time>
      </trkpt>
      <trkpt lat="47.85356" lon="2.21076">
        <ele>106</ele>
        <time>2016-10-30T08:06:22.000Z</time>
      </trkpt>
      <trkpt lat="47.8536" lon="2.21083">
        <ele>106</ele>
        <time>2016-10-30T08:06:23.000Z</time>
      </trkpt>
      <trkpt lat="47.85363" lon="2.21089">
        <ele>106</ele>
        <time>2016-10-30T08:06:24.000Z</time>
      </trkpt>
      <trkpt lat="47.85367" lon="2.21096">
        <ele>106</ele>
        <time>2016-10-30T08:06:25.000Z</time>
      </trkpt>
      <trkpt lat="47.8537" lon="2.21102">
        <ele>106</ele>
        <time>2016-10-30T08:06:26.000Z</time>
      </trkpt>
      <trkpt lat="47.85373" lon="2.21109">
        <ele>106</ele>
        <time>2016-10-30T08:06:27.000Z</time>
      </trkpt>
      <trkpt lat="47.85377" lon="2.21115">
        <ele>106</ele>
        <time>2016-10-30T08:06:28.000Z</time>
      </trkpt>
      <trkpt lat="47.8538" lon="2.21121">
        <ele>106</ele>
        <time>2016-10-30T08:06:29.000Z</time>
      </trkpt>
      <trkpt lat="47.85383" lon="2.21128">
        <ele>106</ele>
        <time>2016-10-30T08:06:30.000Z</time>
      </trkpt>
      <trkpt lat="47.85386" lon="2.21134">
        <ele>107</ele>
        <time>2016-10-30T08:06:31.000Z</time>
      </trkpt>
      <trkpt lat="47.85389" lon="2.21141">
        <ele>107</ele>
        <time>2016-10-30T08:06:32.000Z</time>
      </trkpt>
      <trkpt lat="47.85392" lon="2.21148">
        <ele>106</ele>
        <time>2016-10-30T08:06:33.000Z</time>
      </trkpt>
      <trkpt lat="47.85395" lon="2.21154">
        <ele>106</ele>
        <time>2016-10-30T08:06:34.000Z</time>
      </trkpt>
      <trkpt lat="47.85398" lon="2.21162">
        <ele>106</ele>
        <time>2016-10-30T08:06:35.000Z</time>
      </trkpt>
      <trkpt lat="47.85401" lon="2.21169">
        <ele>106</ele>
        <time>2016-10-30T08:06:36.000Z</time>
      </trkpt>
      <trkpt lat="47.85404" lon="2.21176">
        <ele>106</ele>
        <time>2016-10-30T08:06:37.000Z</time>
      </trkpt>
      <trkpt lat="47.85407" lon="2.21183">
        <ele>106</ele>
        <time>2016-10-30T08:06:38.000Z</time>
      </trkpt>
      <trkpt lat="47.8541" lon="2.2119">
        <ele>105</ele>
        <time>2016-10-30T08:06:39.000Z</time>
      </trkpt>
      <trkpt lat="47.85413" lon="2.21197">
        <ele>106</ele>
        <time>2016-10-30T08:06:40.000Z</time>
      </trkpt>
      <trkpt lat="47.85416" lon="2.21203">
        <ele>105</ele>
        <time>2016-10-30T08:06:41.000Z</time>
      </trkpt>
      <trkpt lat="47.85419" lon="2.2121">
        <ele>105</ele>
        <time>2016-10-30T08:06:42.000Z</time>
      </trkpt>
      <trkpt lat="47.85421" lon="2.21217">
        <ele>106</ele>
        <time>2016-10-30T08:06:43.000Z</time>
      </trkpt>
      <trkpt lat="47.85424" lon="2.21224">
        <ele>106</ele>
        <time>2016-10-30T08:06:44.000Z</time>
      </trkpt>
      <trkpt lat="47.85426" lon="2.21231">
        <ele>106</ele>
        <time>2016-10-30T08:06:45.000Z</time>
      </trkpt>
      <trkpt lat="47.85429" lon="2.21238">
        <ele>106</ele>
        <time>2016-10-30T08:06:46.000Z</time>
      </trkpt>
      <trkpt lat="47.85431" lon="2.21245">
        <ele>106</ele>
        <time>2016-10-30T08:06:47.000Z</time>
      </trkpt>
      <trkpt lat="47.85433" lon="2.21251">
        <ele>106</ele>
        <time>2016-10-30T08:06:48.000Z</time>
      </trkpt>
      <trkpt lat="47.85435" lon="2.21258">
        <ele>106</ele>
        <time>2016-10-30T08:06:49.000Z</time>
      </trkpt>
      <trkpt lat="47.85438" lon="2.21265">
        <ele>106</ele>
        <time>2016-10-30T08:06:50.000Z</time>
      </trkpt>
      <trkpt lat="47.8544" lon="2.21271">
        <ele>106</ele>
        <time>2016-10-30T08:06:51.000Z</time>
      </trkpt>
      <trkpt lat="47.85443" lon="2.21278">
        <ele>106</ele>
        <time>2016-10-30T08:06:52.000Z</time>
      </trkpt>
      <trkpt lat="47.85445" lon="2.21285">
        <ele>106</ele>
        <time>2016-10-30T08:06:53.000Z</time>
      </trkpt>
      <trkpt lat="47.85448" lon="2.21291">
        <ele>106</ele>
        <time>2016-10-30T08:06:54.000Z</time>
      </trkpt>
      <trkpt lat="47.8545" lon="2.21298">
        <ele>105</ele>
        <time>2016-10-30T08:06:55.000Z</time>
      </trkpt>
      <trkpt lat="47.85452" lon="2.21305">
        <ele>106</ele>
        <time>2016-10-30T08:06:56.000Z</time>
      </trkpt>
      <trkpt lat="47.85454" lon="2.21311">
        <ele>105</ele>
        <time>2016-10-30T08:06:57.000Z</time>
      </trkpt>
      <trkpt lat="47.85456" lon="2.21318">
        <ele>105</ele>
        <time>2016-10-30T08:06:58.000Z</time>
      </trkpt>
      <trkpt lat="47.85459" lon="2.21325">
        <ele>105</ele>
        <time>2016-10-30T08:06:59.000Z</time>
      </trkpt>
      <trkpt lat="47.85461" lon="2.21331">
        <ele>105</ele>
        <time>2016-10-30T08:07:00.000Z</time>
      </trkpt>
      <trkpt lat="47.85463" lon="2.21338">
        <ele>105</ele>
        <time>2016-10-30T08:07:01.000Z</time>
      </trkpt>
      <trkpt lat="47.85465" lon="2.21345">
        <ele>105</ele>
        <time>2016-10-30T08:07:02.000Z</time>
      </trkpt>
      <trkpt lat="47.85468" lon="2.21351">
        <ele>105</ele>
        <time>2016-10-30T08:07:03.000Z</time>
      </trkpt>
      <trkpt lat="47.8547" lon="2.21358">
        <ele>105</ele>
        <time>2016-10-30T08:07:04.000Z</time>
      </trkpt>
      <trkpt lat="47.85472" lon="2.21365">
        <ele>105</ele>
        <time>2016-10-30T08:07:05.000Z</time>
      </trkpt>
      <trkpt lat="47.85474" lon="2.21372">
        <ele>105</ele>
        <time>2016-10-30T08:07:06.000Z</time>
      </trkpt>
      <trkpt lat="47.85476" lon="2.21379">
        <ele>105</ele>
        <time>2016-10-30T08:07:07.000Z</time>
      </trkpt>
      <trkpt lat="47.85479" lon="2.21385">
        <ele>105</ele>
        <time>2016-10-30T08:07:08.000Z</time>
      </trkpt>
      <trkpt lat="47.85481" lon="2.21392">
        <ele>105</ele>
        <time>2016-10-30T08:07:09.000Z</time>
      </trkpt>
      <trkpt lat="47.85483" lon="2.21399">
        <ele>106</ele>
        <time>2016-10-30T08:07:10.000Z</time>
      </trkpt>
      <trkpt lat="47.85485" lon="2.21406">
        <ele>106</ele>
        <time>2016-10-30T08:07:11.000Z</time>
      </trkpt>
      <trkpt lat="47.85488" lon="2.21412">
        <ele>106</ele>
        <time>2016-10-30T08:07:12.000Z</time>
      </trkpt>
      <trkpt lat="47.8549" lon="2.21419">
        <ele>106</ele>
        <time>2016-10-30T08:07:13.000Z</time>
      </trkpt>
      <trkpt lat="47.85492" lon="2.21425">
        <ele>106</ele>
        <time>2016-10-30T08:07:14.000Z</time>
      </trkpt>
      <trkpt lat="47.85493" lon="2.21432">
        <ele>106</ele>
        <time>2016-10-30T08:07:15.000Z</time>
      </trkpt>
      <trkpt lat="47.85495" lon="2.21438">
        <ele>106</ele>
        <time>2016-10-30T08:07:16.000Z</time>
      </trkpt>
      <trkpt lat="47.85497" lon="2.21445">
        <ele>106</ele>
        <time>2016-10-30T08:07:17.000Z</time>
      </trkpt>
      <trkpt lat="47.85499" lon="2.21452">
        <ele>106</ele>
        <time>2016-10-30T08:07:18.000Z</time>
      </trkpt>
      <trkpt lat="47.85501" lon="2.21459">
        <ele>107</ele>
        <time>2016-10-30T08:07:19.000Z</time>
      </trkpt>
      <trkpt lat="47.85503" lon="2.21466">
        <ele>107</ele>
        <time>2016-10-30T08:07:20.000Z</time>
      </trkpt>
      <trkpt lat="47.85505" lon="2.21473">
        <ele>107</ele>
        <time>2016-10-30T08:07:21.000Z</time>
      </trkpt>
      <trkpt lat="47.85508" lon="2.21479">
        <ele>107</ele>
        <time>2016-10-30T08:07:22.000Z</time>
      </trkpt>
      <trkpt lat="47.8551" lon="2.21486">
        <ele>107</ele>
        <time>2016-10-30T08:07:23.000Z</time>
      </trkpt>
      <trkpt lat="47.85512" lon="2.21493">
        <ele>107</ele>
        <time>2016-10-30T08:07:24.000Z</time>
      </trkpt>
      <trkpt lat="47.85513" lon="2.21499">
        <ele>107</ele>
        <time>2016-10-30T08:07:25.000Z</time>
      </trkpt>
      <trkpt lat="47.85515" lon="2.21506">
        <ele>107</ele>
        <time>2016-10-30T08:07:26.000Z</time>
      </trkpt>
      <trkpt lat="47.85517" lon="2.21512">
        <ele>106</ele>
        <time>2016-10-30T08:07:27.000Z</time>
      </trkpt>
      <trkpt lat="47.85519" lon="2.21519">
        <ele>106</ele>
        <time>2016-10-30T08:07:28.000Z</time>
      </trkpt>
      <trkpt lat="47.85521" lon="2.21526">
        <ele>107</ele>
        <time>2016-10-30T08:07:29.000Z</time>
      </trkpt>
      <trkpt lat="47.85522" lon="2.21533">
        <ele>107</ele>
        <time>2016-10-30T08:07:30.000Z</time>
      </trkpt>
      <trkpt lat="47.85523" lon="2.21539">
        <ele>107</ele>
        <time>2016-10-30T08:07:31.000Z</time>
      </trkpt>
      <trkpt lat="47.85525" lon="2.21546">
        <ele>107</ele>
        <time>2016-10-30T08:07:32.000Z</time>
      </trkpt>
      <trkpt lat="47.85526" lon="2.21553">
        <ele>107</ele>
        <time>2016-10-30T08:07:33.000Z</time>
      </trkpt>
      <trkpt lat="47.85527" lon="2.21559">
        <ele>107</ele>
        <time>2016-10-30T08:07:34.000Z</time>
      </trkpt>
      <trkpt lat="47.85528" lon="2.21566">
        <ele>107</ele>
        <time>2016-10-30T08:07:35.000Z</time>
      </trkpt>
      <trkpt lat="47.8553" lon="2.21572">
        <ele>107</ele>
        <time>2016-10-30T08:07:36.000Z</time>
      </trkpt>
      <trkpt lat="47.85531" lon="2.21578">
        <ele>106</ele>
        <time>2016-10-30T08:07:37.000Z</time>
      </trkpt>
      <trkpt lat="47.85533" lon="2.21585">
        <ele>107</ele>
        <time>2016-10-30T08:07:38.000Z</time>
      </trkpt>
      <trkpt lat="47.85534" lon="2.21591">
        <ele>107</ele>
        <time>2016-10-30T08:07:39.000Z</time>
      </trkpt>
      <trkpt lat="47.85535" lon="2.21598">
        <ele>106</ele>
        <time>2016-10-30T08:07:40.000Z</time>
      </trkpt>
      <trkpt lat="47.85536" lon="2.21605">
        <ele>107</ele>
        <time>2016-10-30T08:07:41.000Z</time>
      </trkpt>
      <trkpt lat="47.85537" lon="2.21612">
        <ele>107</ele>
        <time>2016-10-30T08:07:42.000Z</time>
      </trkpt>
      <trkpt lat="47.85539" lon="2.21619">
        <ele>106</ele>
        <time>2016-10-30T08:07:43.000Z</time>
      </trkpt>
      <trkpt lat="47.8554" lon="2.21626">
        <ele>106</ele>
        <time>2016-10-30T08:07:44.000Z</time>
      </trkpt>
      <trkpt lat="47.85541" lon="2.21632">
        <ele>106</ele>
        <time>2016-10-30T08:07:45.000Z</time>
      </trkpt>
      <trkpt lat="47.85542" lon="2.21638">
        <ele>106</ele>
        <time>2016-10-30T08:07:46.000Z</time>
      </trkpt>
      <trkpt lat="47.85543" lon="2.21644">
        <ele>106</ele>
        <time>2016-10-30T08:07:47.000Z</time>
      </trkpt>
      <trkpt lat="47.85544" lon="2.2165">
        <ele>106</ele>
        <time>2016-10-30T08:07:48.000Z</time>
      </trkpt>
      <trkpt lat="47.85545" lon="2.21657">
        <ele>106</ele>
        <time>2016-10-30T08:07:49.000Z</time>
      </trkpt>
      <trkpt lat="47.85547" lon="2.21663">
        <ele>107</ele>
        <time>2016-10-30T08:07:50.000Z</time>
      </trkpt>
      <trkpt lat="47.85548" lon="2.2167">
        <ele>107</ele>
        <time>2016-10-30T08:07:51.000Z</time>
      </trkpt>
      <trkpt lat="47.8555" lon="2.21677">
        <ele>107</ele>
        <time>2016-10-30T08:07:52.000Z</time>
      </trkpt>
      <trkpt lat="47.85552" lon="2.21684">
        <ele>106</ele>
        <time>2016-10-30T08:07:53.000Z</time>
      </trkpt>
      <trkpt lat="47.85554" lon="2.2169">
        <ele>105</ele>
        <time>2016-10-30T08:07:54.000Z</time>
      </trkpt>
      <trkpt lat="47.85556" lon="2.21697">
        <ele>105</ele>
        <time>2016-10-30T08:07:55.000Z</time>
      </trkpt>
      <trkpt lat="47.85559" lon="2.21703">
        <ele>105</ele>
        <time>2016-10-30T08:07:56.000Z</time>
      </trkpt>
      <trkpt lat="47.85561" lon="2.2171">
        <ele>105</ele>
        <time>2016-10-30T08:07:57.000Z</time>
      </trkpt>
      <trkpt lat="47.85563" lon="2.21716">
        <ele>105</ele>
        <time>2016-10-30T08:07:58.000Z</time>
      </trkpt>
      <trkpt lat="47.85565" lon="2.21722">
        <ele>105</ele>
        <time>2016-10-30T08:07:59.000Z</time>
      </trkpt>
      <trkpt lat="47.85567" lon="2.21729">
        <ele>105</ele>
        <time>2016-10-30T08:08:00.000Z</time>
      </trkpt>
      <trkpt lat="47.85569" lon="2.21736">
        <ele>105</ele>
        <time>2016-10-30T08:08:01.000Z</time>
      </trkpt>
      <trkpt lat="47.8557" lon="2.21743">
        <ele>104</ele>
        <time>2016-10-30T08:08:02.000Z</time>
      </trkpt>
      <trkpt lat="47.8557" lon="2.2175">
        <ele>105</ele>
        <time>2016-10-30T08:08:03.000Z</time>
      </trkpt>
      <trkpt lat="47.85571" lon="2.21757">
        <ele>105</ele>
        <time>2016-10-30T08:08:04.000Z</time>
      </trkpt>
      <trkpt lat="47.85572" lon="2.21764">
        <ele>106</ele>
        <time>2016-10-30T08:08:05.000Z</time>
      </trkpt>
      <trkpt lat="47.85574" lon="2.2177">
        <ele>105</ele>
        <time>2016-10-30T08:08:06.000Z</time>
      </trkpt>
      <trkpt lat="47.85576" lon="2.21776">
        <ele>106</ele>
        <time>2016-10-30T08:08:07.000Z</time>
      </trkpt>
      <trkpt lat="47.85578" lon="2.21782">
        <ele>106</ele>
        <time>2016-10-30T08:08:08.000Z</time>
      </trkpt>
      <trkpt lat="47.8558" lon="2.21788">
        <ele>106</ele>
        <time>2016-10-30T08:08:09.000Z</time>
      </trkpt>
      <trkpt lat="47.85583" lon="2.21793">
        <ele>106</ele>
        <time>2016-10-30T08:08:10.000Z</time>
      </trkpt>
      <trkpt lat="47.85585" lon="2.21799">
        <ele>106</ele>
        <time>2016-10-30T08:08:11.000Z</time>
      </trkpt>
      <trkpt lat="47.85587" lon="2.21805">
        <ele>106</ele>
        <time>2016-10-30T08:08:12.000Z</time>
      </trkpt>
      <trkpt lat="47.85589" lon="2.21812">
        <ele>106</ele>
        <time>2016-10-30T08:08:13.000Z</time>
      </trkpt>
      <trkpt lat="47.85591" lon="2.21817">
        <ele>106</ele>
        <time>2016-10-30T08:08:14.000Z</time>
      </trkpt>
      <trkpt lat="47.85592" lon="2.21823">
        <ele>106</ele>
        <time>2016-10-30T08:08:15.000Z</time>
      </trkpt>
      <trkpt lat="47.85594" lon="2.21829">
        <ele>106</ele>
        <time>2016-10-30T08:08:16.000Z</time>
      </trkpt>
      <trkpt lat="47.85596" lon="2.21835">
        <ele>107</ele>
        <time>2016-10-30T08:08:17.000Z</time>
      </trkpt>
      <trkpt lat="47.85597" lon="2.21841">
        <ele>106</ele>
        <time>2016-10-30T08:08:18.000Z</time>
      </trkpt>
      <trkpt lat="47.85598" lon="2.21848">
        <ele>104</ele>
        <time>2016-10-30T08:08:19.000Z</time>
      </trkpt>
      <trkpt lat="47.85598" lon="2.21855">
        <ele>104</ele>
        <time>2016-10-30T08:08:20.000Z</time>
      </trkpt>
      <trkpt lat="47.85599" lon="2.21863">
        <ele>104</ele>
        <time>2016-10-30T08:08:21.000Z</time>
      </trkpt>
      <trkpt lat="47.856" lon="2.2187">
        <ele>103</ele>
        <time>2016-10-30T08:08:22.000Z</time>
      </trkpt>
      <trkpt lat="47.85601" lon="2.21877">
        <ele>104</ele>
        <time>2016-10-30T08:08:23.000Z</time>
      </trkpt>
      <trkpt lat="47.85602" lon="2.21884">
        <ele>104</ele>
        <time>2016-10-30T08:08:24.000Z</time>
      </trkpt>
      <trkpt lat="47.85603" lon="2.21891">
        <ele>104</ele>
        <time>2016-10-30T08:08:25.000Z</time>
      </trkpt>
      <trkpt lat="47.85604" lon="2.21898">
        <ele>104</ele>
        <time>2016-10-30T08:08:26.000Z</time>
      </trkpt>
      <trkpt lat="47.85605" lon="2.21905">
        <ele>105</ele>
        <time>2016-10-30T08:08:27.000Z</time>
      </trkpt>
      <trkpt lat="47.85606" lon="2.21913">
        <ele>104</ele>
        <time>2016-10-30T08:08:28.000Z</time>
      </trkpt>
      <trkpt lat="47.85606" lon="2.2192">
        <ele>103</ele>
        <time>2016-10-30T08:08:29.000Z</time>
      </trkpt>
      <trkpt lat="47.85607" lon="2.21928">
        <ele>104</ele>
        <time>2016-10-30T08:08:30.000Z</time>
      </trkpt>
      <trkpt lat="47.85608" lon="2.21935">
        <ele>105</ele>
        <time>2016-10-30T08:08:31.000Z</time>
      </trkpt>
      <trkpt lat="47.85608" lon="2.21942">
        <ele>105</ele>
        <time>2016-10-30T08:08:32.000Z</time>
      </trkpt>
      <trkpt lat="47.85609" lon="2.21949">
        <ele>105</ele>
        <time>2016-10-30T08:08:33.000Z</time>
      </trkpt>
      <trkpt lat="47.85609" lon="2.21955">
        <ele>105</ele>
        <time>2016-10-30T08:08:34.000Z</time>
      </trkpt>
      <trkpt lat="47.8561" lon="2.21961">
        <ele>105</ele>
        <time>2016-10-30T08:08:35.000Z</time>
      </trkpt>
      <trkpt lat="47.85611" lon="2.21968">
        <ele>105</ele>
        <time>2016-10-30T08:08:36.000Z</time>
      </trkpt>
      <trkpt lat="47.85611" lon="2.21976">
        <ele>103</ele>
        <time>2016-10-30T08:08:37.000Z</time>
      </trkpt>
      <trkpt lat="47.85612" lon="2.21984">
        <ele>102</ele>
        <time>2016-10-30T08:08:38.000Z</time>
      </trkpt>
      <trkpt lat="47.85612" lon="2.21991">
        <ele>102</ele>
        <time>2016-10-30T08:08:39.000Z</time>
      </trkpt>
      <trkpt lat="47.85613" lon="2.21998">
        <ele>102</ele>
        <time>2016-10-30T08:08:40.000Z</time>
      </trkpt>
      <trkpt lat="47.85613" lon="2.22004">
        <ele>102</ele>
        <time>2016-10-30T08:08:41.000Z</time>
      </trkpt>
      <trkpt lat="47.85614" lon="2.2201">
        <ele>101</ele>
        <time>2016-10-30T08:08:42.000Z</time>
      </trkpt>
      <trkpt lat="47.85615" lon="2.22017">
        <ele>100</ele>
        <time>2016-10-30T08:08:43.000Z</time>
      </trkpt>
      <trkpt lat="47.85616" lon="2.22024">
        <ele>99</ele>
        <time>2016-10-30T08:08:44.000Z</time>
      </trkpt>
      <trkpt lat="47.85616" lon="2.22031">
        <ele>97</ele>
        <time>2016-10-30T08:08:45.000Z</time>
      </trkpt>
      <trkpt lat="47.85617" lon="2.22039">
        <ele>97</ele>
        <time>2016-10-30T08:08:46.000Z</time>
      </trkpt>
      <trkpt lat="47.85617" lon="2.22046">
        <ele>96</ele>
        <time>2016-10-30T08:08:47.000Z</time>
      </trkpt>
      <trkpt lat="47.85618" lon="2.22054">
        <ele>96</ele>
        <time>2016-10-30T08:08:48.000Z</time>
      </trkpt>
      <trkpt lat="47.85619" lon="2.22061">
        <ele>96</ele>
        <time>2016-10-30T08:08:49.000Z</time>
      </trkpt>
      <trkpt lat="47.8562" lon="2.22067">
        <ele>97</ele>
        <time>2016-10-30T08:08:50.000Z</time>
      </trkpt>
      <trkpt lat="47.85621" lon="2.22074">
        <ele>97</ele>
        <time>2016-10-30T08:08:51.000Z</time>
      </trkpt>
      <trkpt lat="47.85622" lon="2.2208">
        <ele>98</ele>
        <time>2016-10-30T08:08:52.000Z</time>
      </trkpt>
      <trkpt lat="47.85623" lon="2.22087">
        <ele>100</ele>
        <time>2016-10-30T08:08:53.000Z</time>
      </trkpt>
      <trkpt lat="47.85623" lon="2.22094">
        <ele>100</ele>
        <time>2016-10-30T08:08:54.000Z</time>
      </trkpt>
      <trkpt lat="47.85624" lon="2.22101">
        <ele>101</ele>
        <time>2016-10-30T08:08:55.000Z</time>
      </trkpt>
      <trkpt lat="47.85625" lon="2.22107">
        <ele>101</ele>
        <time>2016-10-30T08:08:56.000Z</time>
      </trkpt>
      <trkpt lat="47.85625" lon="2.22113">
        <ele>101</ele>
        <time>2016-10-30T08:08:57.000Z</time>
      </trkpt>
      <trkpt lat="47.85626" lon="2.22119">
        <ele>101</ele>
        <time>2016-10-30T08:08:58.000Z</time>
      </trkpt>
      <trkpt lat="47.85627" lon="2.22126">
        <ele>103</ele>
        <time>2016-10-30T08:08:59.000Z</time>
      </trkpt>
      <trkpt lat="47.85628" lon="2.22132">
        <ele>103</ele>
        <time>2016-10-30T08:09:00.000Z</time>
      </trkpt>
      <trkpt lat="47.85629" lon="2.22139">
        <ele>103</ele>
        <time>2016-10-30T08:09:01.000Z</time>
      </trkpt>
      <trkpt lat="47.8563" lon="2.22146">
        <ele>102</ele>
        <time>2016-10-30T08:09:02.000Z</time>
      </trkpt>
      <trkpt lat="47.8563" lon="2.22154">
        <ele>103</ele>
        <time>2016-10-30T08:09:03.000Z</time>
      </trkpt>
      <trkpt lat="47.85631" lon="2.22161">
        <ele>102</ele>
        <time>2016-10-30T08:09:04.000Z</time>
      </trkpt>
      <trkpt lat="47.85631" lon="2.22169">
        <ele>101</ele>
        <time>2016-10-30T08:09:05.000Z</time>
      </trkpt>
      <trkpt lat="47.85632" lon="2.22176">
        <ele>101</ele>
        <time>2016-10-30T08:09:06.000Z</time>
      </trkpt>
      <trkpt lat="47.85632" lon="2.22183">
        <ele>101</ele>
        <time>2016-10-30T08:09:07.000Z</time>
      </trkpt>
      <trkpt lat="47.85632" lon="2.2219">
        <ele>101</ele>
        <time>2016-10-30T08:09:08.000Z</time>
      </trkpt>
      <trkpt lat="47.85632" lon="2.22197">
        <ele>101</ele>
        <time>2016-10-30T08:09:09.000Z</time>
      </trkpt>
      <trkpt lat="47.85633" lon="2.22203">
        <ele>102</ele>
        <time>2016-10-30T08:09:10.000Z</time>
      </trkpt>
      <trkpt lat="47.85633" lon="2.22209">
        <ele>102</ele>
        <time>2016-10-30T08:09:11.000Z</time>
      </trkpt>
      <trkpt lat="47.85633" lon="2.22216">
        <ele>102</ele>
        <time>2016-10-30T08:09:12.000Z</time>
      </trkpt>
      <trkpt lat="47.85633" lon="2.22223">
        <ele>102</ele>
        <time>2016-10-30T08:09:13.000Z</time>
      </trkpt>
      <trkpt lat="47.85633" lon="2.2223">
        <ele>101</ele>
        <time>2016-10-30T08:09:14.000Z</time>
      </trkpt>
      <trkpt lat="47.85633" lon="2.22237">
        <ele>101</ele>
        <time>2016-10-30T08:09:15.000Z</time>
      </trkpt>
      <trkpt lat="47.85632" lon="2.22244">
        <ele>101</ele>
        <time>2016-10-30T08:09:16.000Z</time>
      </trkpt>
      <trkpt lat="47.85631" lon="2.22251">
        <ele>101</ele>
        <time>2016-10-30T08:09:17.000Z</time>
      </trkpt>
      <trkpt lat="47.8563" lon="2.22258">
        <ele>101</ele>
        <time>2016-10-30T08:09:18.000Z</time>
      </trkpt>
      <trkpt lat="47.85629" lon="2.22266">
        <ele>101</ele>
        <time>2016-10-30T08:09:19.000Z</time>
      </trkpt>
      <trkpt lat="47.85628" lon="2.22273">
        <ele>101</ele>
        <time>2016-10-30T08:09:20.000Z</time>
      </trkpt>
      <trkpt lat="47.85627" lon="2.22279">
        <ele>101</ele>
        <time>2016-10-30T08:09:21.000Z</time>
      </trkpt>
      <trkpt lat="47.85626" lon="2.22286">
        <ele>101</ele>
        <time>2016-10-30T08:09:22.000Z</time>
      </trkpt>
      <trkpt lat="47.85625" lon="2.22292">
        <ele>102</ele>
        <time>2016-10-30T08:09:23.000Z</time>
      </trkpt>
      <trkpt lat="47.85625" lon="2.22298">
        <ele>102</ele>
        <time>2016-10-30T08:09:24.000Z</time>
      </trkpt>
      <trkpt lat="47.85624" lon="2.22304">
        <ele>102</ele>
        <time>2016-10-30T08:09:25.000Z</time>
      </trkpt>
      <trkpt lat="47.85623" lon="2.22309">
        <ele>103</ele>
        <time>2016-10-30T08:09:26.000Z</time>
      </trkpt>
      <trkpt lat="47.85622" lon="2.22314">
        <ele>104</ele>
        <time>2016-10-30T08:09:27.000Z</time>
      </trkpt>
      <trkpt lat="47.85619" lon="2.22317">
        <ele>104</ele>
        <time>2016-10-30T08:09:28.000Z</time>
      </trkpt>
      <trkpt lat="47.85617" lon="2.22319">
        <ele>104</ele>
        <time>2016-10-30T08:09:29.000Z</time>
      </trkpt>
      <trkpt lat="47.85615" lon="2.2232">
        <ele>104</ele>
        <time>2016-10-30T08:09:30.000Z</time>
      </trkpt>
      <trkpt lat="47.85614" lon="2.22318">
        <ele>105</ele>
        <time>2016-10-30T08:09:31.000Z</time>
      </trkpt>
      <trkpt lat="47.85614" lon="2.22315">
        <ele>105</ele>
        <time>2016-10-30T08:09:32.000Z</time>
      </trkpt>
      <trkpt lat="47.85614" lon="2.2231">
        <ele>105</ele>
        <time>2016-10-30T08:09:33.000Z</time>
      </trkpt>
      <trkpt lat="47.85614" lon="2.22306">
        <ele>104</ele>
        <time>2016-10-30T08:09:34.000Z</time>
      </trkpt>
      <trkpt lat="47.85614" lon="2.22302">
        <ele>104</ele>
        <time>2016-10-30T08:09:35.000Z</time>
      </trkpt>
      <trkpt lat="47.85614" lon="2.22299">
        <ele>103</ele>
        <time>2016-10-30T08:09:36.000Z</time>
      </trkpt>
      <trkpt lat="47.85613" lon="2.22295">
        <ele>103</ele>
        <time>2016-10-30T08:09:37.000Z</time>
      </trkpt>
      <trkpt lat="47.85612" lon="2.22292">
        <ele>103</ele>
        <time>2016-10-30T08:09:38.000Z</time>
      </trkpt>
      <trkpt lat="47.85612" lon="2.22288">
        <ele>104</ele>
        <time>2016-10-30T08:09:39.000Z</time>
      </trkpt>
      <trkpt lat="47.85611" lon="2.22284">
        <ele>103</ele>
        <time>2016-10-30T08:09:40.000Z</time>
      </trkpt>
      <trkpt lat="47.8561" lon="2.22281">
        <ele>103</ele>
        <time>2016-10-30T08:09:41.000Z</time>
      </trkpt>
      <trkpt lat="47.85609" lon="2.22277">
        <ele>103</ele>
        <time>2016-10-30T08:09:42.000Z</time>
      </trkpt>
      <trkpt lat="47.85608" lon="2.22274">
        <ele>104</ele>
        <time>2016-10-30T08:09:43.000Z</time>
      </trkpt>
      <trkpt lat="47.85608" lon="2.22271">
        <ele>104</ele>
        <time>2016-10-30T08:09:44.000Z</time>
      </trkpt>
      <trkpt lat="47.85608" lon="2.22267">
        <ele>104</ele>
        <time>2016-10-30T08:09:45.000Z</time>
      </trkpt>
      <trkpt lat="47.85608" lon="2.22264">
        <ele>104</ele>
        <time>2016-10-30T08:09:46.000Z</time>
      </trkpt>
      <trkpt lat="47.85608" lon="2.22261">
        <ele>104</ele>
        <time>2016-10-30T08:09:47.000Z</time>
      </trkpt>
      <trkpt lat="47.85608" lon="2.22258">
        <ele>104</ele>
        <time>2016-10-30T08:09:48.000Z</time>
      </trkpt>
      <trkpt lat="47.85608" lon="2.22255">
        <ele>105</ele>
        <time>2016-10-30T08:09:49.000Z</time>
      </trkpt>
      <trkpt lat="47.85607" lon="2.22253">
        <ele>105</ele>
        <time>2016-10-30T08:09:50.000Z</time>
      </trkpt>
      <trkpt lat="47.85605" lon="2.22253">
        <ele>106</ele>
        <time>2016-10-30T08:09:51.000Z</time>
      </trkpt>
      <trkpt lat="47.85603" lon="2.22253">
        <ele>105</ele>
        <time>2016-10-30T08:09:52.000Z</time>
      </trkpt>
      <trkpt lat="47.85602" lon="2.22255">
        <ele>105</ele>
        <time>2016-10-30T08:09:53.000Z</time>
      </trkpt>
      <trkpt lat="47.85602" lon="2.22258">
        <ele>105</ele>
        <time>2016-10-30T08:09:54.000Z</time>
      </trkpt>
      <trkpt lat="47.85602" lon="2.22261">
        <ele>105</ele>
        <time>2016-10-30T08:09:55.000Z</time>
      </trkpt>
      <trkpt lat="47.85603" lon="2.22263">
        <ele>106</ele>
        <time>2016-10-30T08:09:56.000Z</time>
      </trkpt>
      <trkpt lat="47.85605" lon="2.22264">
        <ele>106</ele>
        <time>2016-10-30T08:09:57.000Z</time>
      </trkpt>
      <trkpt lat="47.85606" lon="2.22264">
        <ele>106</ele>
        <time>2016-10-30T08:09:58.000Z</time>
      </trkpt>
      <trkpt lat="47.85607" lon="2.22262">
        <ele>106</ele>
        <time>2016-10-30T08:09:59.000Z</time>
      </trkpt>
      <trkpt lat="47.85608" lon="2.2226">
        <ele>106</ele>
        <time>2016-10-30T08:10:00.000Z</time>
      </trkpt>
      <trkpt lat="47.85607" lon="2.22259">
        <ele>106</ele>
        <time>2016-10-30T08:10:01.000Z</time>
      </trkpt>
      <trkpt lat="47.85607" lon="2.22257">
        <ele>106</ele>
        <time>2016-10-30T08:10:02.000Z</time>
      </trkpt>
      <trkpt lat="47.85607" lon="2.22256">
        <ele>106</ele>
        <time>2016-10-30T08:10:03.000Z</time>
      </trkpt>
      <trkpt lat="47.85606" lon="2.22255">
        <ele>106</ele>
        <time>2016-10-30T08:10:04.000Z</time>
      </trkpt>
      <trkpt lat="47.85605" lon="2.22255">
        <ele>105</ele>
        <time>2016-10-30T08:10:05.000Z</time>
      </trkpt>
      <trkpt lat="47.85604" lon="2.22256">
        <ele>105</ele>
        <time>2016-10-30T08:10:06.000Z</time>
      </trkpt>
      <trkpt lat="47.85604" lon="2.22258">
        <ele>105</ele>
        <time>2016-10-30T08:10:07.000Z</time>
      </trkpt>
      <trkpt lat="47.85603" lon="2.2226">
        <ele>106</ele>
        <time>2016-10-30T08:10:08.000Z</time>
      </trkpt>
      <trkpt lat="47.85603" lon="2.22262">
        <ele>106</ele>
        <time>2016-10-30T08:10:09.000Z</time>
      </trkpt>
      <trkpt lat="47.85603" lon="2.22265">
        <ele>106</ele>
        <time>2016-10-30T08:10:10.000Z</time>
      </trkpt>
      <trkpt lat="47.85604" lon="2.22268">
        <ele>105</ele>
        <time>2016-10-30T08:10:11.000Z</time>
      </trkpt>
      <trkpt lat="47.85604" lon="2.22271">
        <ele>105</ele>
        <time>2016-10-30T08:10:12.000Z</time>
      </trkpt>
      <trkpt lat="47.85605" lon="2.22274">
        <ele>105</ele>
        <time>2016-10-30T08:10:13.000Z</time>
      </trkpt>
      <trkpt lat="47.85605" lon="2.22277">
        <ele>105</ele>
        <time>2016-10-30T08:10:14.000Z</time>
      </trkpt>
      <trkpt lat="47.85606" lon="2.2228">
        <ele>105</ele>
        <time>2016-10-30T08:10:15.000Z</time>
      </trkpt>
      <trkpt lat="47.85607" lon="2.22282">
        <ele>105</ele>
        <time>2016-10-30T08:10:16.000Z</time>
      </trkpt>
      <trkpt lat="47.85607" lon="2.22285">
        <ele>105</ele>
        <time>2016-10-30T08:10:17.000Z</time>
      </trkpt>
      <trkpt lat="47.85608" lon="2.22288">
        <ele>105</ele>
        <time>2016-10-30T08:10:18.000Z</time>
      </trkpt>
      <trkpt lat="47.85609" lon="2.2229">
        <ele>105</ele>
        <time>2016-10-30T08:10:19.000Z</time>
      </trkpt>
      <trkpt lat="47.8561" lon="2.22293">
        <ele>105</ele>
        <time>2016-10-30T08:10:20.000Z</time>
      </trkpt>
      <trkpt lat="47.8561" lon="2.22295">
        <ele>105</ele>
        <time>2016-10-30T08:10:21.000Z</time>
      </trkpt>
      <trkpt lat="47.8561" lon="2.22298">
        <ele>105</ele>
        <time>2016-10-30T08:10:22.000Z</time>
      </trkpt>
      <trkpt lat="47.85611" lon="2.22301">
        <ele>105</ele>
        <time>2016-10-30T08:10:23.000Z</time>
      </trkpt>
      <trkpt lat="47.85611" lon="2.22304">
        <ele>105</ele>
        <time>2016-10-30T08:10:24.000Z</time>
      </trkpt>
      <trkpt lat="47.85612" lon="2.22306">
        <ele>105</ele>
        <time>2016-10-30T08:10:25.000Z</time>
      </trkpt>
      <trkpt lat="47.85612" lon="2.22309">
        <ele>105</ele>
        <time>2016-10-30T08:10:26.000Z</time>
      </trkpt>
      <trkpt lat="47.85612" lon="2.22311">
        <ele>105</ele>
        <time>2016-10-30T08:10:27.000Z</time>
      </trkpt>
      <trkpt lat="47.85613" lon="2.22313">
        <ele>105</ele>
        <time>2016-10-30T08:10:28.000Z</time>
      </trkpt>
      <trkpt lat="47.85613" lon="2.22316">
        <ele>105</ele>
        <time>2016-10-30T08:10:29.000Z</time>
      </trkpt>
      <trkpt lat="47.85614" lon="2.22318">
        <ele>105</ele>
        <time>2016-10-30T08:10:30.000Z</time>
      </trkpt>
      <trkpt lat="47.85614" lon="2.22321">
        <ele>105</ele>
        <time>2016-10-30T08:10:31.000Z</time>
      </trkpt>
      <trkpt lat="47.85614" lon="2.22323">
        <ele>105</ele>
        <time>2016-10-30T08:10:32.000Z</time>
      </trkpt>
      <trkpt lat="47.85615" lon="2.22326">
        <ele>105</ele>
        <time>2016-10-30T08:10:33.000Z</time>
      </trkpt>
      <trkpt lat="47.85616" lon="2.22328">
        <ele>105</ele>
        <time>2016-10-30T08:10:34.000Z</time>
      </trkpt>
      <trkpt lat="47.85617" lon="2.22329">
        <ele>105</ele>
        <time>2016-10-30T08:10:35.000Z</time>
      </trkpt>
      <trkpt lat="47.85619" lon="2.22329">
        <ele>105</ele>
        <time>2016-10-30T08:10:36.000Z</time>
      </trkpt>
      <trkpt lat="47.8562" lon="2.22328">
        <ele>106</ele>
        <time>2016-10-30T08:10:37.000Z</time>
      </trkpt>
      <trkpt lat="47.85621" lon="2.22327">
        <ele>105</ele>
        <time>2016-10-30T08:10:38.000Z</time>
      </trkpt>
      <trkpt lat="47.85621" lon="2.22325">
        <ele>105</ele>
        <time>2016-10-30T08:10:39.000Z</time>
      </trkpt>
      <trkpt lat="47.8562" lon="2.22323">
        <ele>105</ele>
        <time>2016-10-30T08:10:40.000Z</time>
      </trkpt>
      <trkpt lat="47.8562" lon="2.22322">
        <ele>105</ele>
        <time>2016-10-30T08:10:41.000Z</time>
      </trkpt>
      <trkpt lat="47.85619" lon="2.22321">
        <ele>105</ele>
        <time>2016-10-30T08:10:42.000Z</time>
      </trkpt>
      <trkpt lat="47.85619" lon="2.22321">
        <ele>105</ele>
        <time>2016-10-30T08:10:43.000Z</time>
      </trkpt>
      <trkpt lat="47.85619" lon="2.22321">
        <ele>105</ele>
        <time>2016-10-30T08:10:44.000Z</time>
      </trkpt>
      <trkpt lat="47.85619" lon="2.22321">
        <ele>105</ele>
        <time>2016-10-30T08:10:45.000Z</time>
      </trkpt>
      <trkpt lat="47.85619" lon="2.2232">
        <ele>105</ele>
        <time>2016-10-30T08:10:46.000Z</time>
      </trkpt>
      <trkpt lat="47.85619" lon="2.2232">
        <ele>105</ele>
        <time>2016-10-30T08:10:47.000Z</time>
      </trkpt>
      <trkpt lat="47.85619" lon="2.2232">
        <ele>105</ele>
        <time>2016-10-30T08:10:48.000Z</time>
      </trkpt>
      <trkpt lat="47.85619" lon="2.2232">
        <ele>105</ele>
        <time>2016-10-30T08:10:49.000Z</time>
      </trkpt>
      <trkpt lat="47.85619" lon="2.2232">
        <ele>105</ele>
        <time>2016-10-30T08:10:50.000Z</time>
      </trkpt>
      <trkpt lat="47.85619" lon="2.2232">
        <ele>105</ele>
        <time>2016-10-30T08:10:51.000Z</time>
      </trkpt>
      <trkpt lat="47.85619" lon="2.2232">
        <ele>105</ele>
        <time>2016-10-30T08:10:52.000Z</time>
      </trkpt>
      <trkpt lat="47.85619" lon="2.2232">
        <ele>105</ele>
        <time>2016-10-30T08:10:53.000Z</time>
      </trkpt>
      <trkpt lat="47.85619" lon="2.2232">
        <ele>105</ele>
        <time>2016-10-30T08:10:54.000Z</time>
      </trkpt>
      <trkpt lat="47.85619" lon="2.2232">
        <ele>105</ele>
        <time>2016-10-30T08:10:55.000Z</time>
      </trkpt>
      <trkpt lat="47.85619" lon="2.2232">
        <ele>105</ele>
        <time>2016-10-30T08:10:56.000Z</time>
      </trkpt>
      <trkpt lat="47.85619" lon="2.2232">
        <ele>105</ele>
        <time>2016-10-30T08:10:57.000Z</time>
      </trkpt>
      <trkpt lat="47.85619" lon="2.22319">
        <ele>105</ele>
        <time>2016-10-30T08:10:58.000Z</time>
      </trkpt>
      <trkpt lat="47.85618" lon="2.2232">
        <ele>105</ele>
        <time>2016-10-30T08:10:59.000Z</time>
      </trkpt>
      <trkpt lat="47.85618" lon="2.2232">
        <ele>105</ele>
        <time>2016-10-30T08:11:00.000Z</time>
      </trkpt>
      <trkpt lat="47.85618" lon="2.2232">
        <ele>105</ele>
        <time>2016-10-30T08:11:01.000Z</time>
      </trkpt>
      <trkpt lat="47.85618" lon="2.22319">
        <ele>105</ele>
        <time>2016-10-30T08:11:02.000Z</time>
      </trkpt>
      <trkpt lat="47.85618" lon="2.22319">
        <ele>105</ele>
        <time>2016-10-30T08:11:03.000Z</time>
      </trkpt>
      <trkpt lat="47.85618" lon="2.22319">
        <ele>105</ele>
        <time>2016-10-30T08:11:04.000Z</time>
      </trkpt>
      <trkpt lat="47.85618" lon="2.22319">
        <ele>105</ele>
        <time>2016-10-30T08:11:05.000Z</time>
      </trkpt>
      <trkpt lat="47.85618" lon="2.22319">
        <ele>105</ele>
        <time>2016-10-30T08:11:06.000Z</time>
      </trkpt>
      <trkpt lat="47.85618" lon="2.22319">
        <ele>105</ele>
        <time>2016-10-30T08:11:07.000Z</time>
      </trkpt>
      <trkpt lat="47.85618" lon="2.22319">
        <ele>105</ele>
        <time>2016-10-30T08:11:08.000Z</time>
      </trkpt>
      <trkpt lat="47.85618" lon="2.22319">
        <ele>105</ele>
        <time>2016-10-30T08:11:09.000Z</time>
      </trkpt>
      <trkpt lat="47.85618" lon="2.22319">
        <ele>105</ele>
        <time>2016-10-30T08:11:10.000Z</time>
      </trkpt>
      <trkpt lat="47.85618" lon="2.22319">
        <ele>105</ele>
        <time>2016-10-30T08:11:11.000Z</time>
      </trkpt>
      <trkpt lat="47.85618" lon="2.22319">
        <ele>106</ele>
        <time>2016-10-30T08:11:12.000Z</time>
      </trkpt>
      <trkpt lat="47.85618" lon="2.22319">
        <ele>106</ele>
        <time>2016-10-30T08:11:13.000Z</time>
      </trkpt>
      <trkpt lat="47.85618" lon="2.22319">
        <ele>106</ele>
        <time>2016-10-30T08:11:14.000Z</time>
      </trkpt>
      <trkpt lat="47.85618" lon="2.22319">
        <ele>106</ele>
        <time>2016-10-30T08:11:15.000Z</time>
      </trkpt>
      <trkpt lat="47.85618" lon="2.22319">
        <ele>106</ele>
        <time>2016-10-30T08:11:16.000Z</time>
      </trkpt>
      <trkpt lat="47.85618" lon="2.22318">
        <ele>106</ele>
        <time>2016-10-30T08:11:17.000Z</time>
      </trkpt>
      <trkpt lat="47.85618" lon="2.22318">
        <ele>106</ele>
        <time>2016-10-30T08:11:18.000Z</time>
      </trkpt>
      <trkpt lat="47.85618" lon="2.22318">
        <ele>106</ele>
        <time>2016-10-30T08:11:19.000Z</time>
      </trkpt>
      <trkpt lat="47.85618" lon="2.22318">
        <ele>106</ele>
        <time>2016-10-30T08:11:20.000Z</time>
      </trkpt>
      <trkpt lat="47.85618" lon="2.22318">
        <ele>106</ele>
        <time>2016-10-30T08:11:21.000Z</time>
      </trkpt>
      <trkpt lat="47.85618" lon="2.22318">
        <ele>106</ele>
        <time>2016-10-30T08:11:22.000Z</time>
      </trkpt>
      <trkpt lat="47.85618" lon="2.22318">
        <ele>106</ele>
        <time>2016-10-30T08:11:23.000Z</time>
      </trkpt>
      <trkpt lat="47.85618" lon="2.22318">
        <ele>106</ele>
        <time>2016-10-30T08:11:24.000Z</time>
      </trkpt>
      <trkpt lat="47.85618" lon="2.22318">
        <ele>107</ele>
        <time>2016-10-30T08:11:25.000Z</time>
      </trkpt>
      <trkpt lat="47.85618" lon="2.22318">
        <ele>107</ele>
        <time>2016-10-30T08:11:26.000Z</time>
      </trkpt>
      <trkpt lat="47.85618" lon="2.22318">
        <ele>107</ele>
        <time>2016-10-30T08:11:27.000Z</time>
      </trkpt>
      <trkpt lat="47.85618" lon="2.22318">
        <ele>107</ele>
        <time>2016-10-30T08:11:28.000Z</time>
      </trkpt>
      <trkpt lat="47.85618" lon="2.22318">
        <ele>107</ele>
        <time>2016-10-30T08:11:29.000Z</time>
      </trkpt>
      <trkpt lat="47.85618" lon="2.22318">
        <ele>107</ele>
        <time>2016-10-30T08:11:30.000Z</time>
      </trkpt>
      <trkpt lat="47.85618" lon="2.22318">
        <ele>107</ele>
        <time>2016-10-30T08:11:31.000Z</time>
      </trkpt>
      <trkpt lat="47.85618" lon="2.22318">
        <ele>107</ele>
        <time>2016-10-30T08:11:32.000Z</time>
      </trkpt>
      <trkpt lat="47.85618" lon="2.22318">
        <ele>107</ele>
        <time>2016-10-30T08:11:33.000Z</time>
      </trkpt>
      <trkpt lat="47.85618" lon="2.22318">
        <ele>107</ele>
        <time>2016-10-30T08:11:34.000Z</time>
      </trkpt>
      <trkpt lat="47.85618" lon="2.22318">
        <ele>107</ele>
        <time>2016-10-30T08:11:35.000Z</time>
      </trkpt>
      <trkpt lat="47.85618" lon="2.22318">
        <ele>107</ele>
        <time>2016-10-30T08:11:36.000Z</time>
      </trkpt>
      <trkpt lat="47.85618" lon="2.22318">
        <ele>107</ele>
        <time>2016-10-30T08:11:37.000Z</time>
      </trkpt>
      <trkpt lat="47.85618" lon="2.22318">
        <ele>107</ele>
        <time>2016-10-30T08:11:38.000Z</time>
      </trkpt>
      <trkpt lat="47.85618" lon="2.22318">
        <ele>107</ele>
        <time>2016-10-30T08:11:39.000Z</time>
      </trkpt>
      <trkpt lat="47.85618" lon="2.22318">
        <ele>107</ele>
        <time>2016-10-30T08:11:40.000Z</time>
      </trkpt>
      <trkpt lat="47.85618" lon="2.22318">
        <ele>107</ele>
        <time>2016-10-30T08:11:41.000Z</time>
      </trkpt>
      <trkpt lat="47.85618" lon="2.22318">
        <ele>107</ele>
        <time>2016-10-30T08:11:42.000Z</time>
      </trkpt>
      <trkpt lat="47.85618" lon="2.22318">
        <ele>107</ele>
        <time>2016-10-30T08:11:43.000Z</time>
      </trkpt>
      <trkpt lat="47.85618" lon="2.22318">
        <ele>107</ele>
        <time>2016-10-30T08:11:44.000Z</time>
      </trkpt>
      <trkpt lat="47.85618" lon="2.22318">
        <ele>107</ele>
        <time>2016-10-30T08:11:45.000Z</time>
      </trkpt>
      <trkpt lat="47.85618" lon="2.22318">
        <ele>107</ele>
        <time>2016-10-30T08:11:46.000Z</time>
      </trkpt>
      <trkpt lat="47.85618" lon="2.22318">
        <ele>107</ele>
        <time>2016-10-30T08:11:47.000Z</time>
      </trkpt>
      <trkpt lat="47.85618" lon="2.22318">
        <ele>107</ele>
        <time>2016-10-30T08:11:48.000Z</time>
      </trkpt>
      <trkpt lat="47.85618" lon="2.22318">
        <ele>107</ele>
        <time>2016-10-30T08:11:49.000Z</time>
      </trkpt>
      <trkpt lat="47.85618" lon="2.22319">
        <ele>107</ele>
        <time>2016-10-30T08:11:50.000Z</time>
      </trkpt>
      <trkpt lat="47.85618" lon="2.22319">
        <ele>107</ele>
        <time>2016-10-30T08:11:51.000Z</time>
      </trkpt>
      <trkpt lat="47.85618" lon="2.22319">
        <ele>107</ele>
        <time>2016-10-30T08:11:52.000Z</time>
      </trkpt>
      <trkpt lat="47.85618" lon="2.22319">
        <ele>107</ele>
        <time>2016-10-30T08:11:53.000Z</time>
      </trkpt>
      <trkpt lat="47.85618" lon="2.22319">
        <ele>107</ele>
        <time>2016-10-30T08:11:54.000Z</time>
      </trkpt>
      <trkpt lat="47.85618" lon="2.22319">
        <ele>107</ele>
        <time>2016-10-30T08:11:55.000Z</time>
      </trkpt>
      <trkpt lat="47.85618" lon="2.22319">
        <ele>107</ele>
        <time>2016-10-30T08:11:56.000Z</time>
      </trkpt>
      <trkpt lat="47.85618" lon="2.22318">
        <ele>107</ele>
        <time>2016-10-30T08:11:57.000Z</time>
      </trkpt>
      <trkpt lat="47.85618" lon="2.22318">
        <ele>107</ele>
        <time>2016-10-30T08:11:58.000Z</time>
      </trkpt>
      <trkpt lat="47.85618" lon="2.22318">
        <ele>107</ele>
        <time>2016-10-30T08:11:59.000Z</time>
      </trkpt>
      <trkpt lat="47.85618" lon="2.22318">
        <ele>107</ele>
        <time>2016-10-30T08:12:00.000Z</time>
      </trkpt>
      <trkpt lat="47.85618" lon="2.22318">
        <ele>108</ele>
        <time>2016-10-30T08:12:01.000Z</time>
      </trkpt>
      <trkpt lat="47.85618" lon="2.22318">
        <ele>108</ele>
        <time>2016-10-30T08:12:02.000Z</time>
      </trkpt>
      <trkpt lat="47.85618" lon="2.22318">
        <ele>108</ele>
        <time>2016-10-30T08:12:03.000Z</time>
      </trkpt>
      <trkpt lat="47.85618" lon="2.22318">
        <ele>108</ele>
        <time>2016-10-30T08:12:04.000Z</time>
      </trkpt>
      <trkpt lat="47.85618" lon="2.22318">
        <ele>108</ele>
        <time>2016-10-30T08:12:05.000Z</time>
      </trkpt>
      <trkpt lat="47.85618" lon="2.22318">
        <ele>108</ele>
        <time>2016-10-30T08:12:06.000Z</time>
      </trkpt>
      <trkpt lat="47.85619" lon="2.22318">
        <ele>108</ele>
        <time>2016-10-30T08:12:07.000Z</time>
      </trkpt>
      <trkpt lat="47.85619" lon="2.22317">
        <ele>108</ele>
        <time>2016-10-30T08:12:08.000Z</time>
      </trkpt>
      <trkpt lat="47.85619" lon="2.22317">
        <ele>108</ele>
        <time>2016-10-30T08:12:09.000Z</time>
      </trkpt>
      <trkpt lat="47.85619" lon="2.22317">
        <ele>108</ele>
        <time>2016-10-30T08:12:10.000Z</time>
      </trkpt>
      <trkpt lat="47.85619" lon="2.22317">
        <ele>108</ele>
        <time>2016-10-30T08:12:11.000Z</time>
      </trkpt>
      <trkpt lat="47.85619" lon="2.22317">
        <ele>108</ele>
        <time>2016-10-30T08:12:12.000Z</time>
      </trkpt>
      <trkpt lat="47.85618" lon="2.22317">
        <ele>108</ele>
        <time>2016-10-30T08:12:13.000Z</time>
      </trkpt>
      <trkpt lat="47.85618" lon="2.22317">
        <ele>108</ele>
        <time>2016-10-30T08:12:14.000Z</time>
      </trkpt>
      <trkpt lat="47.85618" lon="2.22317">
        <ele>108</ele>
        <time>2016-10-30T08:12:15.000Z</time>
      </trkpt>
      <trkpt lat="47.85618" lon="2.22317">
        <ele>108</ele>
        <time>2016-10-30T08:12:16.000Z</time>
      </trkpt>
      <trkpt lat="47.85618" lon="2.22317">
        <ele>108</ele>
        <time>2016-10-30T08:12:17.000Z</time>
      </trkpt>
      <trkpt lat="47.85618" lon="2.22317">
        <ele>108</ele>
        <time>2016-10-30T08:12:18.000Z</time>
      </trkpt>
      <trkpt lat="47.85618" lon="2.22317">
        <ele>108</ele>
        <time>2016-10-30T08:12:19.000Z</time>
      </trkpt>
      <trkpt lat="47.85618" lon="2.22317">
        <ele>108</ele>
        <time>2016-10-30T08:12:20.000Z</time>
      </trkpt>
      <trkpt lat="47.85619" lon="2.22317">
        <ele>108</ele>
        <time>2016-10-30T08:12:21.000Z</time>
      </trkpt>
      <trkpt lat="47.85619" lon="2.22317">
        <ele>108</ele>
        <time>2016-10-30T08:12:22.000Z</time>
      </trkpt>
      <trkpt lat="47.85619" lon="2.22317">
        <ele>107</ele>
        <time>2016-10-30T08:12:23.000Z</time>
      </trkpt>
      <trkpt lat="47.85619" lon="2.22317">
        <ele>107</ele>
        <time>2016-10-30T08:12:24.000Z</time>
      </trkpt>
      <trkpt lat="47.85619" lon="2.22317">
        <ele>107</ele>
        <time>2016-10-30T08:12:25.000Z</time>
      </trkpt>
      <trkpt lat="47.85619" lon="2.22317">
        <ele>107</ele>
        <time>2016-10-30T08:12:26.000Z</time>
      </trkpt>
      <trkpt lat="47.85619" lon="2.22317">
        <ele>107</ele>
        <time>2016-10-30T08:12:27.000Z</time>
      </trkpt>
      <trkpt lat="47.85619" lon="2.22317">
        <ele>107</ele>
        <time>2016-10-30T08:12:28.000Z</time>
      </trkpt>
      <trkpt lat="47.85619" lon="2.22318">
        <ele>107</ele>
        <time>2016-10-30T08:12:29.000Z</time>
      </trkpt>
      <trkpt lat="47.85619" lon="2.22318">
        <ele>107</ele>
        <time>2016-10-30T08:12:30.000Z</time>
      </trkpt>
      <trkpt lat="47.85619" lon="2.22318">
        <ele>107</ele>
        <time>2016-10-30T08:12:31.000Z</time>
      </trkpt>
      <trkpt lat="47.85619" lon="2.22318">
        <ele>107</ele>
        <time>2016-10-30T08:12:32.000Z</time>
      </trkpt>
      <trkpt lat="47.85619" lon="2.22318">
        <ele>107</ele>
        <time>2016-10-30T08:12:33.000Z</time>
      </trkpt>
      <trkpt lat="47.85619" lon="2.22318">
        <ele>107</ele>
        <time>2016-10-30T08:12:34.000Z</time>
      </trkpt>
      <trkpt lat="47.85619" lon="2.22318">
        <ele>107</ele>
        <time>2016-10-30T08:12:35.000Z</time>
      </trkpt>
      <trkpt lat="47.85619" lon="2.22318">
        <ele>108</ele>
        <time>2016-10-30T08:12:36.000Z</time>
      </trkpt>
      <trkpt lat="47.85619" lon="2.22318">
        <ele>108</ele>
        <time>2016-10-30T08:12:37.000Z</time>
      </trkpt>
      <trkpt lat="47.85619" lon="2.22318">
        <ele>108</ele>
        <time>2016-10-30T08:12:38.000Z</time>
      </trkpt>
      <trkpt lat="47.85619" lon="2.22318">
        <ele>108</ele>
        <time>2016-10-30T08:12:39.000Z</time>
      </trkpt>
      <trkpt lat="47.85619" lon="2.22318">
        <ele>108</ele>
        <time>2016-10-30T08:12:40.000Z</time>
      </trkpt>
      <trkpt lat="47.85619" lon="2.22318">
        <ele>108</ele>
        <time>2016-10-30T08:12:41.000Z</time>
      </trkpt>
      <trkpt lat="47.85619" lon="2.22318">
        <ele>108</ele>
        <time>2016-10-30T08:12:42.000Z</time>
      </trkpt>
      <trkpt lat="47.85619" lon="2.22318">
        <ele>108</ele>
        <time>2016-10-30T08:12:43.000Z</time>
      </trkpt>
      <trkpt lat="47.85619" lon="2.22318">
        <ele>108</ele>
        <time>2016-10-30T08:12:44.000Z</time>
      </trkpt>
      <trkpt lat="47.85619" lon="2.22318">
        <ele>107</ele>
        <time>2016-10-30T08:12:45.000Z</time>
      </trkpt>
      <trkpt lat="47.85619" lon="2.22318">
        <ele>107</ele>
        <time>2016-10-30T08:12:46.000Z</time>
      </trkpt>
      <trkpt lat="47.85619" lon="2.22318">
        <ele>107</ele>
        <time>2016-10-30T08:12:47.000Z</time>
      </trkpt>
      <trkpt lat="47.85619" lon="2.22318">
        <ele>107</ele>
        <time>2016-10-30T08:12:48.000Z</time>
      </trkpt>
      <trkpt lat="47.85619" lon="2.22318">
        <ele>107</ele>
        <time>2016-10-30T08:12:49.000Z</time>
      </trkpt>
      <trkpt lat="47.85619" lon="2.22318">
        <ele>107</ele>
        <time>2016-10-30T08:12:50.000Z</time>
      </trkpt>
      <trkpt lat="47.85619" lon="2.22318">
        <ele>106</ele>
        <time>2016-10-30T08:12:51.000Z</time>
      </trkpt>
      <trkpt lat="47.85619" lon="2.22318">
        <ele>106</ele>
        <time>2016-10-30T08:12:52.000Z</time>
      </trkpt>
      <trkpt lat="47.85619" lon="2.22318">
        <ele>106</ele>
        <time>2016-10-30T08:12:53.000Z</time>
      </trkpt>
      <trkpt lat="47.85619" lon="2.22318">
        <ele>106</ele>
        <time>2016-10-30T08:12:54.000Z</time>
      </trkpt>
      <trkpt lat="47.85619" lon="2.22318">
        <ele>106</ele>
        <time>2016-10-30T08:12:55.000Z</time>
      </trkpt>
      <trkpt lat="47.85619" lon="2.22318">
        <ele>106</ele>
        <time>2016-10-30T08:12:56.000Z</time>
      </trkpt>
      <trkpt lat="47.85618" lon="2.22318">
        <ele>106</ele>
        <time>2016-10-30T08:12:57.000Z</time>
      </trkpt>
      <trkpt lat="47.85617" lon="2.22319">
        <ele>106</ele>
        <time>2016-10-30T08:12:58.000Z</time>
      </trkpt>
      <trkpt lat="47.85616" lon="2.2232">
        <ele>105</ele>
        <time>2016-10-30T08:12:59.000Z</time>
      </trkpt>
      <trkpt lat="47.85615" lon="2.22322">
        <ele>105</ele>
        <time>2016-10-30T08:13:00.000Z</time>
      </trkpt>
      <trkpt lat="47.85615" lon="2.22325">
        <ele>105</ele>
        <time>2016-10-30T08:13:01.000Z</time>
      </trkpt>
      <trkpt lat="47.85615" lon="2.22328">
        <ele>105</ele>
        <time>2016-10-30T08:13:02.000Z</time>
      </trkpt>
      <trkpt lat="47.85615" lon="2.22331">
        <ele>104</ele>
        <time>2016-10-30T08:13:03.000Z</time>
      </trkpt>
      <trkpt lat="47.85616" lon="2.22334">
        <ele>104</ele>
        <time>2016-10-30T08:13:04.000Z</time>
      </trkpt>
      <trkpt lat="47.85616" lon="2.22337">
        <ele>104</ele>
        <time>2016-10-30T08:13:05.000Z</time>
      </trkpt>
      <trkpt lat="47.85617" lon="2.2234">
        <ele>104</ele>
        <time>2016-10-30T08:13:06.000Z</time>
      </trkpt>
      <trkpt lat="47.85617" lon="2.22342">
        <ele>104</ele>
        <time>2016-10-30T08:13:07.000Z</time>
      </trkpt>
      <trkpt lat="47.85617" lon="2.22344">
        <ele>104</ele>
        <time>2016-10-30T08:13:08.000Z</time>
      </trkpt>
      <trkpt lat="47.85618" lon="2.22345">
        <ele>104</ele>
        <time>2016-10-30T08:13:09.000Z</time>
      </trkpt>
      <trkpt lat="47.85618" lon="2.22346">
        <ele>104</ele>
        <time>2016-10-30T08:13:10.000Z</time>
      </trkpt>
      <trkpt lat="47.85618" lon="2.22347">
        <ele>105</ele>
        <time>2016-10-30T08:13:11.000Z</time>
      </trkpt>
      <trkpt lat="47.85618" lon="2.22347">
        <ele>105</ele>
        <time>2016-10-30T08:13:12.000Z</time>
      </trkpt>
      <trkpt lat="47.85618" lon="2.22347">
        <ele>105</ele>
        <time>2016-10-30T08:13:13.000Z</time>
      </trkpt>
      <trkpt lat="47.85618" lon="2.22347">
        <ele>105</ele>
        <time>2016-10-30T08:13:14.000Z</time>
      </trkpt>
      <trkpt lat="47.85618" lon="2.22347">
        <ele>105</ele>
        <time>2016-10-30T08:13:15.000Z</time>
      </trkpt>
      <trkpt lat="47.85618" lon="2.22348">
        <ele>105</ele>
        <time>2016-10-30T08:13:16.000Z</time>
      </trkpt>
      <trkpt lat="47.85618" lon="2.22348">
        <ele>105</ele>
        <time>2016-10-30T08:13:17.000Z</time>
      </trkpt>
      <trkpt lat="47.85618" lon="2.22348">
        <ele>105</ele>
        <time>2016-10-30T08:13:18.000Z</time>
      </trkpt>
      <trkpt lat="47.85618" lon="2.22348">
        <ele>105</ele>
        <time>2016-10-30T08:13:19.000Z</time>
      </trkpt>
      <trkpt lat="47.85618" lon="2.22348">
        <ele>105</ele>
        <time>2016-10-30T08:13:20.000Z</time>
      </trkpt>
      <trkpt lat="47.85618" lon="2.22348">
        <ele>105</ele>
        <time>2016-10-30T08:13:21.000Z</time>
      </trkpt>
      <trkpt lat="47.85618" lon="2.22349">
        <ele>105</ele>
        <time>2016-10-30T08:13:22.000Z</time>
      </trkpt>
      <trkpt lat="47.85618" lon="2.22349">
        <ele>105</ele>
        <time>2016-10-30T08:13:23.000Z</time>
      </trkpt>
      <trkpt lat="47.85618" lon="2.22349">
        <ele>105</ele>
        <time>2016-10-30T08:13:24.000Z</time>
      </trkpt>
      <trkpt lat="47.85618" lon="2.2235">
        <ele>104</ele>
        <time>2016-10-30T08:13:25.000Z</time>
      </trkpt>
      <trkpt lat="47.85618" lon="2.22352">
        <ele>105</ele>
        <time>2016-10-30T08:13:26.000Z</time>
      </trkpt>
      <trkpt lat="47.85618" lon="2.22354">
        <ele>105</ele>
        <time>2016-10-30T08:13:27.000Z</time>
      </trkpt>
      <trkpt lat="47.85619" lon="2.22355">
        <ele>104</ele>
        <time>2016-10-30T08:13:28.000Z</time>
      </trkpt>
      <trkpt lat="47.8562" lon="2.22357">
        <ele>105</ele>
        <time>2016-10-30T08:13:29.000Z</time>
      </trkpt>
      <trkpt lat="47.85622" lon="2.22359">
        <ele>105</ele>
        <time>2016-10-30T08:13:30.000Z</time>
      </trkpt>
      <trkpt lat="47.85623" lon="2.2236">
        <ele>105</ele>
        <time>2016-10-30T08:13:31.000Z</time>
      </trkpt>
      <trkpt lat="47.85626" lon="2.22361">
        <ele>105</ele>
        <time>2016-10-30T08:13:32.000Z</time>
      </trkpt>
      <trkpt lat="47.85628" lon="2.22361">
        <ele>105</ele>
        <time>2016-10-30T08:13:33.000Z</time>
      </trkpt>
      <trkpt lat="47.85631" lon="2.22362">
        <ele>105</ele>
        <time>2016-10-30T08:13:34.000Z</time>
      </trkpt>
      <trkpt lat="47.85634" lon="2.22362">
        <ele>105</ele>
        <time>2016-10-30T08:13:35.000Z</time>
      </trkpt>
      <trkpt lat="47.85637" lon="2.22362">
        <ele>106</ele>
        <time>2016-10-30T08:13:36.000Z</time>
      </trkpt>
      <trkpt lat="47.85641" lon="2.22362">
        <ele>106</ele>
        <time>2016-10-30T08:13:37.000Z</time>
      </trkpt>
      <trkpt lat="47.85644" lon="2.22361">
        <ele>106</ele>
        <time>2016-10-30T08:13:38.000Z</time>
      </trkpt>
      <trkpt lat="47.85648" lon="2.22361">
        <ele>107</ele>
        <time>2016-10-30T08:13:39.000Z</time>
      </trkpt>
      <trkpt lat="47.85652" lon="2.22361">
        <ele>107</ele>
        <time>2016-10-30T08:13:40.000Z</time>
      </trkpt>
      <trkpt lat="47.85656" lon="2.2236">
        <ele>106</ele>
        <time>2016-10-30T08:13:41.000Z</time>
      </trkpt>
      <trkpt lat="47.85659" lon="2.2236">
        <ele>107</ele>
        <time>2016-10-30T08:13:42.000Z</time>
      </trkpt>
      <trkpt lat="47.85663" lon="2.22359">
        <ele>107</ele>
        <time>2016-10-30T08:13:43.000Z</time>
      </trkpt>
      <trkpt lat="47.85666" lon="2.22359">
        <ele>107</ele>
        <time>2016-10-30T08:13:44.000Z</time>
      </trkpt>
      <trkpt lat="47.8567" lon="2.22359">
        <ele>107</ele>
        <time>2016-10-30T08:13:45.000Z</time>
      </trkpt>
      <trkpt lat="47.85673" lon="2.22358">
        <ele>108</ele>
        <time>2016-10-30T08:13:46.000Z</time>
      </trkpt>
      <trkpt lat="47.85676" lon="2.22358">
        <ele>109</ele>
        <time>2016-10-30T08:13:47.000Z</time>
      </trkpt>
      <trkpt lat="47.8568" lon="2.22358">
        <ele>109</ele>
        <time>2016-10-30T08:13:48.000Z</time>
      </trkpt>
      <trkpt lat="47.85683" lon="2.22358">
        <ele>110</ele>
        <time>2016-10-30T08:13:49.000Z</time>
      </trkpt>
      <trkpt lat="47.85687" lon="2.22358">
        <ele>110</ele>
        <time>2016-10-30T08:13:50.000Z</time>
      </trkpt>
      <trkpt lat="47.85691" lon="2.22358">
        <ele>110</ele>
        <time>2016-10-30T08:13:51.000Z</time>
      </trkpt>
      <trkpt lat="47.85695" lon="2.22357">
        <ele>110</ele>
        <time>2016-10-30T08:13:52.000Z</time>
      </trkpt>
      <trkpt lat="47.85699" lon="2.22356">
        <ele>110</ele>
        <time>2016-10-30T08:13:53.000Z</time>
      </trkpt>
      <trkpt lat="47.85704" lon="2.22356">
        <ele>110</ele>
        <time>2016-10-30T08:13:54.000Z</time>
      </trkpt>
      <trkpt lat="47.85708" lon="2.22355">
        <ele>110</ele>
        <time>2016-10-30T08:13:55.000Z</time>
      </trkpt>
      <trkpt lat="47.85713" lon="2.22355">
        <ele>110</ele>
        <time>2016-10-30T08:13:56.000Z</time>
      </trkpt>
      <trkpt lat="47.85718" lon="2.22355">
        <ele>110</ele>
        <time>2016-10-30T08:13:57.000Z</time>
      </trkpt>
      <trkpt lat="47.85722" lon="2.22354">
        <ele>110</ele>
        <time>2016-10-30T08:13:58.000Z</time>
      </trkpt>
      <trkpt lat="47.85726" lon="2.22354">
        <ele>110</ele>
        <time>2016-10-30T08:13:59.000Z</time>
      </trkpt>
      <trkpt lat="47.8573" lon="2.22353">
        <ele>110</ele>
        <time>2016-10-30T08:14:00.000Z</time>
      </trkpt>
      <trkpt lat="47.85734" lon="2.22353">
        <ele>110</ele>
        <time>2016-10-30T08:14:01.000Z</time>
      </trkpt>
      <trkpt lat="47.85738" lon="2.22353">
        <ele>110</ele>
        <time>2016-10-30T08:14:02.000Z</time>
      </trkpt>
      <trkpt lat="47.85742" lon="2.22352">
        <ele>110</ele>
        <time>2016-10-30T08:14:03.000Z</time>
      </trkpt>
      <trkpt lat="47.85746" lon="2.22352">
        <ele>110</ele>
        <time>2016-10-30T08:14:04.000Z</time>
      </trkpt>
      <trkpt lat="47.8575" lon="2.22351">
        <ele>110</ele>
        <time>2016-10-30T08:14:05.000Z</time>
      </trkpt>
      <trkpt lat="47.85754" lon="2.22351">
        <ele>110</ele>
        <time>2016-10-30T08:14:06.000Z</time>
      </trkpt>
      <trkpt lat="47.85758" lon="2.2235">
        <ele>110</ele>
        <time>2016-10-30T08:14:07.000Z</time>
      </trkpt>
      <trkpt lat="47.85762" lon="2.2235">
        <ele>110</ele>
        <time>2016-10-30T08:14:08.000Z</time>
      </trkpt>
      <trkpt lat="47.85766" lon="2.22349">
        <ele>109</ele>
        <time>2016-10-30T08:14:09.000Z</time>
      </trkpt>
      <trkpt lat="47.85771" lon="2.22349">
        <ele>110</ele>
        <time>2016-10-30T08:14:10.000Z</time>
      </trkpt>
      <trkpt lat="47.85775" lon="2.22348">
        <ele>110</ele>
        <time>2016-10-30T08:14:11.000Z</time>
      </trkpt>
      <trkpt lat="47.85779" lon="2.22348">
        <ele>110</ele>
        <time>2016-10-30T08:14:12.000Z</time>
      </trkpt>
      <trkpt lat="47.85783" lon="2.22348">
        <ele>110</ele>
        <time>2016-10-30T08:14:13.000Z</time>
      </trkpt>
      <trkpt lat="47.85788" lon="2.22347">
        <ele>110</ele>
        <time>2016-10-30T08:14:14.000Z</time>
      </trkpt>
      <trkpt lat="47.85792" lon="2.22347">
        <ele>110</ele>
        <time>2016-10-30T08:14:15.000Z</time>
      </trkpt>
      <trkpt lat="47.85796" lon="2.22347">
        <ele>110</ele>
        <time>2016-10-30T08:14:16.000Z</time>
      </trkpt>
      <trkpt lat="47.858" lon="2.22346">
        <ele>111</ele>
        <time>2016-10-30T08:14:17.000Z</time>
      </trkpt>
      <trkpt lat="47.85805" lon="2.22346">
        <ele>110</ele>
        <time>2016-10-30T08:14:18.000Z</time>
      </trkpt>
      <trkpt lat="47.85809" lon="2.22345">
        <ele>110</ele>
        <time>2016-10-30T08:14:19.000Z</time>
      </trkpt>
      <trkpt lat="47.85813" lon="2.22345">
        <ele>110</ele>
        <time>2016-10-30T08:14:20.000Z</time>
      </trkpt>
      <trkpt lat="47.85817" lon="2.22344">
        <ele>110</ele>
        <time>2016-10-30T08:14:21.000Z</time>
      </trkpt>
      <trkpt lat="47.85821" lon="2.22344">
        <ele>110</ele>
        <time>2016-10-30T08:14:22.000Z</time>
      </trkpt>
      <trkpt lat="47.85825" lon="2.22343">
        <ele>111</ele>
        <time>2016-10-30T08:14:23.000Z</time>
      </trkpt>
      <trkpt lat="47.85829" lon="2.22343">
        <ele>111</ele>
        <time>2016-10-30T08:14:24.000Z</time>
      </trkpt>
      <trkpt lat="47.85834" lon="2.22343">
        <ele>111</ele>
        <time>2016-10-30T08:14:25.000Z</time>
      </trkpt>
      <trkpt lat="47.85838" lon="2.22342">
        <ele>110</ele>
        <time>2016-10-30T08:14:26.000Z</time>
      </trkpt>
      <trkpt lat="47.85842" lon="2.22342">
        <ele>110</ele>
        <time>2016-10-30T08:14:27.000Z</time>
      </trkpt>
      <trkpt lat="47.85847" lon="2.22341">
        <ele>109</ele>
        <time>2016-10-30T08:14:28.000Z</time>
      </trkpt>
      <trkpt lat="47.85851" lon="2.22341">
        <ele>109</ele>
        <time>2016-10-30T08:14:29.000Z</time>
      </trkpt>
      <trkpt lat="47.85855" lon="2.2234">
        <ele>109</ele>
        <time>2016-10-30T08:14:30.000Z</time>
      </trkpt>
      <trkpt lat="47.8586" lon="2.22339">
        <ele>109</ele>
        <time>2016-10-30T08:14:31.000Z</time>
      </trkpt>
      <trkpt lat="47.85864" lon="2.22339">
        <ele>108</ele>
        <time>2016-10-30T08:14:32.000Z</time>
      </trkpt>
      <trkpt lat="47.85868" lon="2.22338">
        <ele>109</ele>
        <time>2016-10-30T08:14:33.000Z</time>
      </trkpt>
      <trkpt lat="47.85872" lon="2.22338">
        <ele>109</ele>
        <time>2016-10-30T08:14:34.000Z</time>
      </trkpt>
      <trkpt lat="47.85876" lon="2.22337">
        <ele>109</ele>
        <time>2016-10-30T08:14:35.000Z</time>
      </trkpt>
      <trkpt lat="47.8588" lon="2.22337">
        <ele>109</ele>
        <time>2016-10-30T08:14:36.000Z</time>
      </trkpt>
      <trkpt lat="47.85884" lon="2.22337">
        <ele>109</ele>
        <time>2016-10-30T08:14:37.000Z</time>
      </trkpt>
      <trkpt lat="47.85888" lon="2.22336">
        <ele>109</ele>
        <time>2016-10-30T08:14:38.000Z</time>
      </trkpt>
      <trkpt lat="47.85892" lon="2.22336">
        <ele>109</ele>
        <time>2016-10-30T08:14:39.000Z</time>
      </trkpt>
      <trkpt lat="47.85896" lon="2.22336">
        <ele>109</ele>
        <time>2016-10-30T08:14:40.000Z</time>
      </trkpt>
      <trkpt lat="47.85901" lon="2.22335">
        <ele>109</ele>
        <time>2016-10-30T08:14:41.000Z</time>
      </trkpt>
      <trkpt lat="47.85905" lon="2.22334">
        <ele>109</ele>
        <time>2016-10-30T08:14:42.000Z</time>
      </trkpt>
      <trkpt lat="47.8591" lon="2.22334">
        <ele>109</ele>
        <time>2016-10-30T08:14:43.000Z</time>
      </trkpt>
      <trkpt lat="47.85914" lon="2.22334">
        <ele>109</ele>
        <time>2016-10-30T08:14:44.000Z</time>
      </trkpt>
      <trkpt lat="47.85918" lon="2.22333">
        <ele>109</ele>
        <time>2016-10-30T08:14:45.000Z</time>
      </trkpt>
      <trkpt lat="47.85923" lon="2.22333">
        <ele>109</ele>
        <time>2016-10-30T08:14:46.000Z</time>
      </trkpt>
      <trkpt lat="47.85927" lon="2.22332">
        <ele>109</ele>
        <time>2016-10-30T08:14:47.000Z</time>
      </trkpt>
      <trkpt lat="47.85931" lon="2.22331">
        <ele>108</ele>
        <time>2016-10-30T08:14:48.000Z</time>
      </trkpt>
      <trkpt lat="47.85936" lon="2.22331">
        <ele>109</ele>
        <time>2016-10-30T08:14:49.000Z</time>
      </trkpt>
      <trkpt lat="47.85941" lon="2.2233">
        <ele>109</ele>
        <time>2016-10-30T08:14:50.000Z</time>
      </trkpt>
      <trkpt lat="47.85945" lon="2.2233">
        <ele>109</ele>
        <time>2016-10-30T08:14:51.000Z</time>
      </trkpt>
      <trkpt lat="47.85949" lon="2.22329">
        <ele>109</ele>
        <time>2016-10-30T08:14:52.000Z</time>
      </trkpt>
      <trkpt lat="47.85954" lon="2.22328">
        <ele>110</ele>
        <time>2016-10-30T08:14:53.000Z</time>
      </trkpt>
      <trkpt lat="47.85958" lon="2.22327">
        <ele>109</ele>
        <time>2016-10-30T08:14:54.000Z</time>
      </trkpt>
      <trkpt lat="47.85963" lon="2.22327">
        <ele>109</ele>
        <time>2016-10-30T08:14:55.000Z</time>
      </trkpt>
      <trkpt lat="47.85968" lon="2.22326">
        <ele>109</ele>
        <time>2016-10-30T08:14:56.000Z</time>
      </trkpt>
      <trkpt lat="47.85972" lon="2.22326">
        <ele>109</ele>
        <time>2016-10-30T08:14:57.000Z</time>
      </trkpt>
      <trkpt lat="47.85977" lon="2.22325">
        <ele>109</ele>
        <time>2016-10-30T08:14:58.000Z</time>
      </trkpt>
      <trkpt lat="47.85981" lon="2.22324">
        <ele>109</ele>
        <time>2016-10-30T08:14:59.000Z</time>
      </trkpt>
      <trkpt lat="47.85985" lon="2.22323">
        <ele>110</ele>
        <time>2016-10-30T08:15:00.000Z</time>
      </trkpt>
      <trkpt lat="47.85988" lon="2.22319">
        <ele>111</ele>
        <time>2016-10-30T08:15:01.000Z</time>
      </trkpt>
      <trkpt lat="47.8599" lon="2.22315">
        <ele>110</ele>
        <time>2016-10-30T08:15:02.000Z</time>
      </trkpt>
      <trkpt lat="47.8599" lon="2.22309">
        <ele>110</ele>
        <time>2016-10-30T08:15:03.000Z</time>
      </trkpt>
      <trkpt lat="47.85991" lon="2.22304">
        <ele>110</ele>
        <time>2016-10-30T08:15:04.000Z</time>
      </trkpt>
      <trkpt lat="47.85992" lon="2.22299">
        <ele>109</ele>
        <time>2016-10-30T08:15:05.000Z</time>
      </trkpt>
      <trkpt lat="47.85993" lon="2.22293">
        <ele>108</ele>
        <time>2016-10-30T08:15:06.000Z</time>
      </trkpt>
      <trkpt lat="47.85993" lon="2.22287">
        <ele>107</ele>
        <time>2016-10-30T08:15:07.000Z</time>
      </trkpt>
      <trkpt lat="47.85994" lon="2.22281">
        <ele>106</ele>
        <time>2016-10-30T08:15:08.000Z</time>
      </trkpt>
      <trkpt lat="47.85995" lon="2.22275">
        <ele>105</ele>
        <time>2016-10-30T08:15:09.000Z</time>
      </trkpt>
      <trkpt lat="47.85995" lon="2.22268">
        <ele>105</ele>
        <time>2016-10-30T08:15:10.000Z</time>
      </trkpt>
      <trkpt lat="47.85995" lon="2.22261">
        <ele>105</ele>
        <time>2016-10-30T08:15:11.000Z</time>
      </trkpt>
      <trkpt lat="47.85995" lon="2.22254">
        <ele>104</ele>
        <time>2016-10-30T08:15:12.000Z</time>
      </trkpt>
      <trkpt lat="47.85995" lon="2.22247">
        <ele>104</ele>
        <time>2016-10-30T08:15:13.000Z</time>
      </trkpt>
      <trkpt lat="47.85994" lon="2.2224">
        <ele>104</ele>
        <time>2016-10-30T08:15:14.000Z</time>
      </trkpt>
      <trkpt lat="47.85993" lon="2.22232">
        <ele>103</ele>
        <time>2016-10-30T08:15:15.000Z</time>
      </trkpt>
      <trkpt lat="47.85993" lon="2.22223">
        <ele>103</ele>
        <time>2016-10-30T08:15:16.000Z</time>
      </trkpt>
      <trkpt lat="47.85992" lon="2.22215">
        <ele>103</ele>
        <time>2016-10-30T08:15:17.000Z</time>
      </trkpt>
      <trkpt lat="47.85992" lon="2.22207">
        <ele>102</ele>
        <time>2016-10-30T08:15:18.000Z</time>
      </trkpt>
      <trkpt lat="47.85992" lon="2.22199">
        <ele>102</ele>
        <time>2016-10-30T08:15:19.000Z</time>
      </trkpt>
      <trkpt lat="47.85992" lon="2.2219">
        <ele>101</ele>
        <time>2016-10-30T08:15:20.000Z</time>
      </trkpt>
      <trkpt lat="47.85991" lon="2.2218">
        <ele>101</ele>
        <time>2016-10-30T08:15:21.000Z</time>
      </trkpt>
      <trkpt lat="47.85991" lon="2.22171">
        <ele>101</ele>
        <time>2016-10-30T08:15:22.000Z</time>
      </trkpt>
      <trkpt lat="47.8599" lon="2.22162">
        <ele>101</ele>
        <time>2016-10-30T08:15:23.000Z</time>
      </trkpt>
      <trkpt lat="47.8599" lon="2.22154">
        <ele>102</ele>
        <time>2016-10-30T08:15:24.000Z</time>
      </trkpt>
      <trkpt lat="47.85989" lon="2.22146">
        <ele>102</ele>
        <time>2016-10-30T08:15:25.000Z</time>
      </trkpt>
      <trkpt lat="47.85988" lon="2.2214">
        <ele>103</ele>
        <time>2016-10-30T08:15:26.000Z</time>
      </trkpt>
      <trkpt lat="47.85987" lon="2.22134">
        <ele>103</ele>
        <time>2016-10-30T08:15:27.000Z</time>
      </trkpt>
      <trkpt lat="47.85987" lon="2.22129">
        <ele>103</ele>
        <time>2016-10-30T08:15:28.000Z</time>
      </trkpt>
      <trkpt lat="47.85987" lon="2.22125">
        <ele>103</ele>
        <time>2016-10-30T08:15:29.000Z</time>
      </trkpt>
      <trkpt lat="47.85987" lon="2.2212">
        <ele>104</ele>
        <time>2016-10-30T08:15:30.000Z</time>
      </trkpt>
      <trkpt lat="47.85987" lon="2.22115">
        <ele>104</ele>
        <time>2016-10-30T08:15:31.000Z</time>
      </trkpt>
      <trkpt lat="47.85989" lon="2.2211">
        <ele>104</ele>
        <time>2016-10-30T08:15:32.000Z</time>
      </trkpt>
      <trkpt lat="47.8599" lon="2.22103">
        <ele>104</ele>
        <time>2016-10-30T08:15:33.000Z</time>
      </trkpt>
      <trkpt lat="47.8599" lon="2.22097">
        <ele>105</ele>
        <time>2016-10-30T08:15:34.000Z</time>
      </trkpt>
      <trkpt lat="47.85991" lon="2.22091">
        <ele>104</ele>
        <time>2016-10-30T08:15:35.000Z</time>
      </trkpt>
      <trkpt lat="47.85991" lon="2.22084">
        <ele>105</ele>
        <time>2016-10-30T08:15:36.000Z</time>
      </trkpt>
      <trkpt lat="47.85991" lon="2.22077">
        <ele>105</ele>
        <time>2016-10-30T08:15:37.000Z</time>
      </trkpt>
      <trkpt lat="47.85992" lon="2.2207">
        <ele>104</ele>
        <time>2016-10-30T08:15:38.000Z</time>
      </trkpt>
      <trkpt lat="47.85992" lon="2.22063">
        <ele>104</ele>
        <time>2016-10-30T08:15:39.000Z</time>
      </trkpt>
      <trkpt lat="47.85992" lon="2.22057">
        <ele>104</ele>
        <time>2016-10-30T08:15:40.000Z</time>
      </trkpt>
      <trkpt lat="47.85993" lon="2.2205">
        <ele>104</ele>
        <time>2016-10-30T08:15:41.000Z</time>
      </trkpt>
      <trkpt lat="47.85993" lon="2.22043">
        <ele>105</ele>
        <time>2016-10-30T08:15:42.000Z</time>
      </trkpt>
      <trkpt lat="47.85994" lon="2.22036">
        <ele>105</ele>
        <time>2016-10-30T08:15:43.000Z</time>
      </trkpt>
      <trkpt lat="47.85994" lon="2.22029">
        <ele>106</ele>
        <time>2016-10-30T08:15:44.000Z</time>
      </trkpt>
      <trkpt lat="47.85994" lon="2.22022">
        <ele>106</ele>
        <time>2016-10-30T08:15:45.000Z</time>
      </trkpt>
      <trkpt lat="47.85995" lon="2.22015">
        <ele>106</ele>
        <time>2016-10-30T08:15:46.000Z</time>
      </trkpt>
      <trkpt lat="47.85995" lon="2.22008">
        <ele>106</ele>
        <time>2016-10-30T08:15:47.000Z</time>
      </trkpt>
      <trkpt lat="47.85996" lon="2.22001">
        <ele>106</ele>
        <time>2016-10-30T08:15:48.000Z</time>
      </trkpt>
      <trkpt lat="47.85997" lon="2.21994">
        <ele>105</ele>
        <time>2016-10-30T08:15:49.000Z</time>
      </trkpt>
      <trkpt lat="47.85997" lon="2.21988">
        <ele>105</ele>
        <time>2016-10-30T08:15:50.000Z</time>
      </trkpt>
      <trkpt lat="47.85998" lon="2.21982">
        <ele>105</ele>
        <time>2016-10-30T08:15:51.000Z</time>
      </trkpt>
      <trkpt lat="47.85998" lon="2.21975">
        <ele>105</ele>
        <time>2016-10-30T08:15:52.000Z</time>
      </trkpt>
      <trkpt lat="47.85998" lon="2.21968">
        <ele>105</ele>
        <time>2016-10-30T08:15:53.000Z</time>
      </trkpt>
      <trkpt lat="47.85999" lon="2.21961">
        <ele>106</ele>
        <time>2016-10-30T08:15:54.000Z</time>
      </trkpt>
      <trkpt lat="47.85999" lon="2.21953">
        <ele>106</ele>
        <time>2016-10-30T08:15:55.000Z</time>
      </trkpt>
      <trkpt lat="47.86" lon="2.21946">
        <ele>106</ele>
        <time>2016-10-30T08:15:56.000Z</time>
      </trkpt>
      <trkpt lat="47.86001" lon="2.21939">
        <ele>106</ele>
        <time>2016-10-30T08:15:57.000Z</time>
      </trkpt>
      <trkpt lat="47.86001" lon="2.21933">
        <ele>106</ele>
        <time>2016-10-30T08:15:58.000Z</time>
      </trkpt>
      <trkpt lat="47.86001" lon="2.21926">
        <ele>106</ele>
        <time>2016-10-30T08:15:59.000Z</time>
      </trkpt>
      <trkpt lat="47.86002" lon="2.21919">
        <ele>105</ele>
        <time>2016-10-30T08:16:00.000Z</time>
      </trkpt>
      <trkpt lat="47.86002" lon="2.21912">
        <ele>105</ele>
        <time>2016-10-30T08:16:01.000Z</time>
      </trkpt>
      <trkpt lat="47.86002" lon="2.21905">
        <ele>105</ele>
        <time>2016-10-30T08:16:02.000Z</time>
      </trkpt>
      <trkpt lat="47.86002" lon="2.21899">
        <ele>105</ele>
        <time>2016-10-30T08:16:03.000Z</time>
      </trkpt>
      <trkpt lat="47.86003" lon="2.21892">
        <ele>105</ele>
        <time>2016-10-30T08:16:04.000Z</time>
      </trkpt>
      <trkpt lat="47.86003" lon="2.21885">
        <ele>105</ele>
        <time>2016-10-30T08:16:05.000Z</time>
      </trkpt>
      <trkpt lat="47.86004" lon="2.21879">
        <ele>105</ele>
        <time>2016-10-30T08:16:06.000Z</time>
      </trkpt>
      <trkpt lat="47.86005" lon="2.21872">
        <ele>105</ele>
        <time>2016-10-30T08:16:07.000Z</time>
      </trkpt>
      <trkpt lat="47.86005" lon="2.21866">
        <ele>105</ele>
        <time>2016-10-30T08:16:08.000Z</time>
      </trkpt>
      <trkpt lat="47.86005" lon="2.2186">
        <ele>106</ele>
        <time>2016-10-30T08:16:09.000Z</time>
      </trkpt>
      <trkpt lat="47.86006" lon="2.21853">
        <ele>105</ele>
        <time>2016-10-30T08:16:10.000Z</time>
      </trkpt>
      <trkpt lat="47.86006" lon="2.21847">
        <ele>105</ele>
        <time>2016-10-30T08:16:11.000Z</time>
      </trkpt>
      <trkpt lat="47.86006" lon="2.2184">
        <ele>106</ele>
        <time>2016-10-30T08:16:12.000Z</time>
      </trkpt>
      <trkpt lat="47.86006" lon="2.21833">
        <ele>106</ele>
        <time>2016-10-30T08:16:13.000Z</time>
      </trkpt>
      <trkpt lat="47.86005" lon="2.21826">
        <ele>105</ele>
        <time>2016-10-30T08:16:14.000Z</time>
      </trkpt>
      <trkpt lat="47.86004" lon="2.2182">
        <ele>104</ele>
        <time>2016-10-30T08:16:15.000Z</time>
      </trkpt>
      <trkpt lat="47.86003" lon="2.21814">
        <ele>104</ele>
        <time>2016-10-30T08:16:16.000Z</time>
      </trkpt>
      <trkpt lat="47.86002" lon="2.21808">
        <ele>103</ele>
        <time>2016-10-30T08:16:17.000Z</time>
      </trkpt>
      <trkpt lat="47.86002" lon="2.21802">
        <ele>102</ele>
        <time>2016-10-30T08:16:18.000Z</time>
      </trkpt>
      <trkpt lat="47.86001" lon="2.21796">
        <ele>101</ele>
        <time>2016-10-30T08:16:19.000Z</time>
      </trkpt>
      <trkpt lat="47.86" lon="2.21789">
        <ele>101</ele>
        <time>2016-10-30T08:16:20.000Z</time>
      </trkpt>
      <trkpt lat="47.85999" lon="2.21783">
        <ele>101</ele>
        <time>2016-10-30T08:16:21.000Z</time>
      </trkpt>
      <trkpt lat="47.85998" lon="2.21777">
        <ele>100</ele>
        <time>2016-10-30T08:16:22.000Z</time>
      </trkpt>
      <trkpt lat="47.85997" lon="2.21771">
        <ele>98</ele>
        <time>2016-10-30T08:16:23.000Z</time>
      </trkpt>
      <trkpt lat="47.85995" lon="2.21765">
        <ele>97</ele>
        <time>2016-10-30T08:16:24.000Z</time>
      </trkpt>
      <trkpt lat="47.85994" lon="2.21759">
        <ele>98</ele>
        <time>2016-10-30T08:16:25.000Z</time>
      </trkpt>
      <trkpt lat="47.85993" lon="2.21752">
        <ele>97</ele>
        <time>2016-10-30T08:16:26.000Z</time>
      </trkpt>
      <trkpt lat="47.85992" lon="2.21745">
        <ele>96</ele>
        <time>2016-10-30T08:16:27.000Z</time>
      </trkpt>
      <trkpt lat="47.8599" lon="2.21738">
        <ele>95</ele>
        <time>2016-10-30T08:16:28.000Z</time>
      </trkpt>
      <trkpt lat="47.85989" lon="2.21732">
        <ele>96</ele>
        <time>2016-10-30T08:16:29.000Z</time>
      </trkpt>
      <trkpt lat="47.85987" lon="2.21726">
        <ele>96</ele>
        <time>2016-10-30T08:16:30.000Z</time>
      </trkpt>
      <trkpt lat="47.85986" lon="2.21719">
        <ele>95</ele>
        <time>2016-10-30T08:16:31.000Z</time>
      </trkpt>
      <trkpt lat="47.85985" lon="2.21713">
        <ele>95</ele>
        <time>2016-10-30T08:16:32.000Z</time>
      </trkpt>
      <trkpt lat="47.85983" lon="2.21708">
        <ele>94</ele>
        <time>2016-10-30T08:16:33.000Z</time>
      </trkpt>
      <trkpt lat="47.85981" lon="2.21702">
        <ele>94</ele>
        <time>2016-10-30T08:16:34.000Z</time>
      </trkpt>
      <trkpt lat="47.85978" lon="2.21695">
        <ele>94</ele>
        <time>2016-10-30T08:16:35.000Z</time>
      </trkpt>
      <trkpt lat="47.85976" lon="2.21688">
        <ele>94</ele>
        <time>2016-10-30T08:16:36.000Z</time>
      </trkpt>
      <trkpt lat="47.85973" lon="2.21679">
        <ele>95</ele>
        <time>2016-10-30T08:16:37.000Z</time>
      </trkpt>
      <trkpt lat="47.8597" lon="2.21672">
        <ele>96</ele>
        <time>2016-10-30T08:16:38.000Z</time>
      </trkpt>
      <trkpt lat="47.85967" lon="2.21664">
        <ele>96</ele>
        <time>2016-10-30T08:16:39.000Z</time>
      </trkpt>
      <trkpt lat="47.85965" lon="2.21656">
        <ele>96</ele>
        <time>2016-10-30T08:16:40.000Z</time>
      </trkpt>
      <trkpt lat="47.85962" lon="2.21649">
        <ele>97</ele>
        <time>2016-10-30T08:16:41.000Z</time>
      </trkpt>
      <trkpt lat="47.8596" lon="2.21641">
        <ele>96</ele>
        <time>2016-10-30T08:16:42.000Z</time>
      </trkpt>
      <trkpt lat="47.85958" lon="2.21634">
        <ele>97</ele>
        <time>2016-10-30T08:16:43.000Z</time>
      </trkpt>
      <trkpt lat="47.85955" lon="2.21626">
        <ele>97</ele>
        <time>2016-10-30T08:16:44.000Z</time>
      </trkpt>
      <trkpt lat="47.85953" lon="2.21618">
        <ele>97</ele>
        <time>2016-10-30T08:16:45.000Z</time>
      </trkpt>
      <trkpt lat="47.85951" lon="2.21611">
        <ele>97</ele>
        <time>2016-10-30T08:16:46.000Z</time>
      </trkpt>
      <trkpt lat="47.85949" lon="2.21603">
        <ele>97</ele>
        <time>2016-10-30T08:16:47.000Z</time>
      </trkpt>
      <trkpt lat="47.85946" lon="2.21595">
        <ele>97</ele>
        <time>2016-10-30T08:16:48.000Z</time>
      </trkpt>
      <trkpt lat="47.85944" lon="2.21588">
        <ele>97</ele>
        <time>2016-10-30T08:16:49.000Z</time>
      </trkpt>
      <trkpt lat="47.85942" lon="2.21581">
        <ele>97</ele>
        <time>2016-10-30T08:16:50.000Z</time>
      </trkpt>
      <trkpt lat="47.8594" lon="2.21574">
        <ele>97</ele>
        <time>2016-10-30T08:16:51.000Z</time>
      </trkpt>
      <trkpt lat="47.85937" lon="2.21567">
        <ele>97</ele>
        <time>2016-10-30T08:16:52.000Z</time>
      </trkpt>
      <trkpt lat="47.85934" lon="2.21559">
        <ele>97</ele>
        <time>2016-10-30T08:16:53.000Z</time>
      </trkpt>
      <trkpt lat="47.85931" lon="2.21552">
        <ele>97</ele>
        <time>2016-10-30T08:16:54.000Z</time>
      </trkpt>
      <trkpt lat="47.85929" lon="2.21545">
        <ele>97</ele>
        <time>2016-10-30T08:16:55.000Z</time>
      </trkpt>
      <trkpt lat="47.85927" lon="2.21538">
        <ele>97</ele>
        <time>2016-10-30T08:16:56.000Z</time>
      </trkpt>
      <trkpt lat="47.85924" lon="2.21531">
        <ele>98</ele>
        <time>2016-10-30T08:16:57.000Z</time>
      </trkpt>
      <trkpt lat="47.85922" lon="2.21523">
        <ele>98</ele>
        <time>2016-10-30T08:16:58.000Z</time>
      </trkpt>
      <trkpt lat="47.85919" lon="2.21516">
        <ele>98</ele>
        <time>2016-10-30T08:16:59.000Z</time>
      </trkpt>
      <trkpt lat="47.85917" lon="2.21509">
        <ele>98</ele>
        <time>2016-10-30T08:17:00.000Z</time>
      </trkpt>
      <trkpt lat="47.85915" lon="2.21503">
        <ele>98</ele>
        <time>2016-10-30T08:17:01.000Z</time>
      </trkpt>
      <trkpt lat="47.85913" lon="2.21496">
        <ele>98</ele>
        <time>2016-10-30T08:17:02.000Z</time>
      </trkpt>
      <trkpt lat="47.85911" lon="2.2149">
        <ele>98</ele>
        <time>2016-10-30T08:17:03.000Z</time>
      </trkpt>
      <trkpt lat="47.85908" lon="2.21483">
        <ele>98</ele>
        <time>2016-10-30T08:17:04.000Z</time>
      </trkpt>
      <trkpt lat="47.85906" lon="2.21475">
        <ele>99</ele>
        <time>2016-10-30T08:17:05.000Z</time>
      </trkpt>
      <trkpt lat="47.85903" lon="2.21467">
        <ele>100</ele>
        <time>2016-10-30T08:17:06.000Z</time>
      </trkpt>
      <trkpt lat="47.85901" lon="2.21459">
        <ele>100</ele>
        <time>2016-10-30T08:17:07.000Z</time>
      </trkpt>
      <trkpt lat="47.85898" lon="2.21451">
        <ele>101</ele>
        <time>2016-10-30T08:17:08.000Z</time>
      </trkpt>
      <trkpt lat="47.85896" lon="2.21444">
        <ele>101</ele>
        <time>2016-10-30T08:17:09.000Z</time>
      </trkpt>
      <trkpt lat="47.85893" lon="2.21437">
        <ele>102</ele>
        <time>2016-10-30T08:17:10.000Z</time>
      </trkpt>
      <trkpt lat="47.85891" lon="2.2143">
        <ele>102</ele>
        <time>2016-10-30T08:17:11.000Z</time>
      </trkpt>
      <trkpt lat="47.85889" lon="2.21423">
        <ele>102</ele>
        <time>2016-10-30T08:17:12.000Z</time>
      </trkpt>
      <trkpt lat="47.85886" lon="2.21416">
        <ele>102</ele>
        <time>2016-10-30T08:17:13.000Z</time>
      </trkpt>
      <trkpt lat="47.85884" lon="2.21409">
        <ele>101</ele>
        <time>2016-10-30T08:17:14.000Z</time>
      </trkpt>
      <trkpt lat="47.85881" lon="2.21401">
        <ele>101</ele>
        <time>2016-10-30T08:17:15.000Z</time>
      </trkpt>
      <trkpt lat="47.85878" lon="2.21393">
        <ele>100</ele>
        <time>2016-10-30T08:17:16.000Z</time>
      </trkpt>
      <trkpt lat="47.85875" lon="2.21386">
        <ele>99</ele>
        <time>2016-10-30T08:17:17.000Z</time>
      </trkpt>
      <trkpt lat="47.85873" lon="2.21378">
        <ele>99</ele>
        <time>2016-10-30T08:17:18.000Z</time>
      </trkpt>
      <trkpt lat="47.85871" lon="2.21372">
        <ele>97</ele>
        <time>2016-10-30T08:17:19.000Z</time>
      </trkpt>
      <trkpt lat="47.85869" lon="2.21366">
        <ele>97</ele>
        <time>2016-10-30T08:17:20.000Z</time>
      </trkpt>
      <trkpt lat="47.85867" lon="2.2136">
        <ele>96</ele>
        <time>2016-10-30T08:17:21.000Z</time>
      </trkpt>
      <trkpt lat="47.85865" lon="2.21354">
        <ele>96</ele>
        <time>2016-10-30T08:17:22.000Z</time>
      </trkpt>
      <trkpt lat="47.85863" lon="2.21347">
        <ele>97</ele>
        <time>2016-10-30T08:17:23.000Z</time>
      </trkpt>
      <trkpt lat="47.8586" lon="2.2134">
        <ele>97</ele>
        <time>2016-10-30T08:17:24.000Z</time>
      </trkpt>
      <trkpt lat="47.85857" lon="2.21333">
        <ele>97</ele>
        <time>2016-10-30T08:17:25.000Z</time>
      </trkpt>
      <trkpt lat="47.85854" lon="2.21324">
        <ele>97</ele>
        <time>2016-10-30T08:17:26.000Z</time>
      </trkpt>
      <trkpt lat="47.85852" lon="2.21316">
        <ele>96</ele>
        <time>2016-10-30T08:17:27.000Z</time>
      </trkpt>
      <trkpt lat="47.85849" lon="2.21308">
        <ele>97</ele>
        <time>2016-10-30T08:17:28.000Z</time>
      </trkpt>
      <trkpt lat="47.85846" lon="2.21299">
        <ele>98</ele>
        <time>2016-10-30T08:17:29.000Z</time>
      </trkpt>
      <trkpt lat="47.85843" lon="2.21291">
        <ele>97</ele>
        <time>2016-10-30T08:17:30.000Z</time>
      </trkpt>
      <trkpt lat="47.8584" lon="2.21283">
        <ele>98</ele>
        <time>2016-10-30T08:17:31.000Z</time>
      </trkpt>
      <trkpt lat="47.85838" lon="2.21275">
        <ele>98</ele>
        <time>2016-10-30T08:17:32.000Z</time>
      </trkpt>
      <trkpt lat="47.85835" lon="2.21267">
        <ele>99</ele>
        <time>2016-10-30T08:17:33.000Z</time>
      </trkpt>
      <trkpt lat="47.85833" lon="2.21258">
        <ele>99</ele>
        <time>2016-10-30T08:17:34.000Z</time>
      </trkpt>
      <trkpt lat="47.8583" lon="2.21249">
        <ele>100</ele>
        <time>2016-10-30T08:17:35.000Z</time>
      </trkpt>
      <trkpt lat="47.85827" lon="2.2124">
        <ele>100</ele>
        <time>2016-10-30T08:17:36.000Z</time>
      </trkpt>
      <trkpt lat="47.85824" lon="2.21231">
        <ele>100</ele>
        <time>2016-10-30T08:17:37.000Z</time>
      </trkpt>
      <trkpt lat="47.85822" lon="2.21221">
        <ele>100</ele>
        <time>2016-10-30T08:17:38.000Z</time>
      </trkpt>
      <trkpt lat="47.85819" lon="2.21212">
        <ele>101</ele>
        <time>2016-10-30T08:17:39.000Z</time>
      </trkpt>
      <trkpt lat="47.85817" lon="2.21204">
        <ele>101</ele>
        <time>2016-10-30T08:17:40.000Z</time>
      </trkpt>
      <trkpt lat="47.85815" lon="2.21195">
        <ele>101</ele>
        <time>2016-10-30T08:17:41.000Z</time>
      </trkpt>
      <trkpt lat="47.85812" lon="2.21187">
        <ele>101</ele>
        <time>2016-10-30T08:17:42.000Z</time>
      </trkpt>
      <trkpt lat="47.8581" lon="2.21179">
        <ele>101</ele>
        <time>2016-10-30T08:17:43.000Z</time>
      </trkpt>
      <trkpt lat="47.85807" lon="2.21171">
        <ele>100</ele>
        <time>2016-10-30T08:17:44.000Z</time>
      </trkpt>
      <trkpt lat="47.85805" lon="2.21164">
        <ele>101</ele>
        <time>2016-10-30T08:17:45.000Z</time>
      </trkpt>
      <trkpt lat="47.85802" lon="2.21156">
        <ele>101</ele>
        <time>2016-10-30T08:17:46.000Z</time>
      </trkpt>
      <trkpt lat="47.85799" lon="2.21148">
        <ele>101</ele>
        <time>2016-10-30T08:17:47.000Z</time>
      </trkpt>
      <trkpt lat="47.85797" lon="2.21141">
        <ele>101</ele>
        <time>2016-10-30T08:17:48.000Z</time>
      </trkpt>
      <trkpt lat="47.85794" lon="2.21134">
        <ele>101</ele>
        <time>2016-10-30T08:17:49.000Z</time>
      </trkpt>
      <trkpt lat="47.85792" lon="2.21128">
        <ele>101</ele>
        <time>2016-10-30T08:17:50.000Z</time>
      </trkpt>
      <trkpt lat="47.8579" lon="2.21121">
        <ele>100</ele>
        <time>2016-10-30T08:17:51.000Z</time>
      </trkpt>
      <trkpt lat="47.85788" lon="2.21115">
        <ele>98</ele>
        <time>2016-10-30T08:17:52.000Z</time>
      </trkpt>
      <trkpt lat="47.85786" lon="2.21109">
        <ele>98</ele>
        <time>2016-10-30T08:17:53.000Z</time>
      </trkpt>
      <trkpt lat="47.85784" lon="2.21103">
        <ele>97</ele>
        <time>2016-10-30T08:17:54.000Z</time>
      </trkpt>
      <trkpt lat="47.85782" lon="2.21096">
        <ele>96</ele>
        <time>2016-10-30T08:17:55.000Z</time>
      </trkpt>
      <trkpt lat="47.8578" lon="2.21089">
        <ele>94</ele>
        <time>2016-10-30T08:17:56.000Z</time>
      </trkpt>
      <trkpt lat="47.85778" lon="2.21082">
        <ele>93</ele>
        <time>2016-10-30T08:17:57.000Z</time>
      </trkpt>
      <trkpt lat="47.85775" lon="2.21074">
        <ele>92</ele>
        <time>2016-10-30T08:17:58.000Z</time>
      </trkpt>
      <trkpt lat="47.85773" lon="2.21067">
        <ele>92</ele>
        <time>2016-10-30T08:17:59.000Z</time>
      </trkpt>
      <trkpt lat="47.8577" lon="2.21059">
        <ele>92</ele>
        <time>2016-10-30T08:18:00.000Z</time>
      </trkpt>
      <trkpt lat="47.85768" lon="2.21052">
        <ele>91</ele>
        <time>2016-10-30T08:18:01.000Z</time>
      </trkpt>
      <trkpt lat="47.85765" lon="2.21045">
        <ele>90</ele>
        <time>2016-10-30T08:18:02.000Z</time>
      </trkpt>
      <trkpt lat="47.85762" lon="2.21037">
        <ele>90</ele>
        <time>2016-10-30T08:18:03.000Z</time>
      </trkpt>
      <trkpt lat="47.85759" lon="2.2103">
        <ele>89</ele>
        <time>2016-10-30T08:18:04.000Z</time>
      </trkpt>
      <trkpt lat="47.85756" lon="2.21023">
        <ele>89</ele>
        <time>2016-10-30T08:18:05.000Z</time>
      </trkpt>
      <trkpt lat="47.85752" lon="2.21016">
        <ele>88</ele>
        <time>2016-10-30T08:18:06.000Z</time>
      </trkpt>
      <trkpt lat="47.85749" lon="2.21008">
        <ele>89</ele>
        <time>2016-10-30T08:18:07.000Z</time>
      </trkpt>
      <trkpt lat="47.85746" lon="2.21">
        <ele>89</ele>
        <time>2016-10-30T08:18:08.000Z</time>
      </trkpt>
      <trkpt lat="47.85743" lon="2.20992">
        <ele>90</ele>
        <time>2016-10-30T08:18:09.000Z</time>
      </trkpt>
      <trkpt lat="47.85739" lon="2.20985">
        <ele>90</ele>
        <time>2016-10-30T08:18:10.000Z</time>
      </trkpt>
      <trkpt lat="47.85736" lon="2.20977">
        <ele>89</ele>
        <time>2016-10-30T08:18:11.000Z</time>
      </trkpt>
      <trkpt lat="47.85732" lon="2.2097">
        <ele>90</ele>
        <time>2016-10-30T08:18:12.000Z</time>
      </trkpt>
      <trkpt lat="47.85728" lon="2.20962">
        <ele>91</ele>
        <time>2016-10-30T08:18:13.000Z</time>
      </trkpt>
      <trkpt lat="47.85724" lon="2.20954">
        <ele>91</ele>
        <time>2016-10-30T08:18:14.000Z</time>
      </trkpt>
      <trkpt lat="47.85721" lon="2.20947">
        <ele>91</ele>
        <time>2016-10-30T08:18:15.000Z</time>
      </trkpt>
      <trkpt lat="47.85717" lon="2.20939">
        <ele>93</ele>
        <time>2016-10-30T08:18:16.000Z</time>
      </trkpt>
      <trkpt lat="47.85714" lon="2.20931">
        <ele>93</ele>
        <time>2016-10-30T08:18:17.000Z</time>
      </trkpt>
      <trkpt lat="47.8571" lon="2.20924">
        <ele>95</ele>
        <time>2016-10-30T08:18:18.000Z</time>
      </trkpt>
      <trkpt lat="47.85706" lon="2.20916">
        <ele>96</ele>
        <time>2016-10-30T08:18:19.000Z</time>
      </trkpt>
      <trkpt lat="47.85702" lon="2.20909">
        <ele>98</ele>
        <time>2016-10-30T08:18:20.000Z</time>
      </trkpt>
      <trkpt lat="47.85698" lon="2.20901">
        <ele>99</ele>
        <time>2016-10-30T08:18:21.000Z</time>
      </trkpt>
      <trkpt lat="47.85695" lon="2.20893">
        <ele>99</ele>
        <time>2016-10-30T08:18:22.000Z</time>
      </trkpt>
      <trkpt lat="47.85692" lon="2.20886">
        <ele>100</ele>
        <time>2016-10-30T08:18:23.000Z</time>
      </trkpt>
      <trkpt lat="47.85688" lon="2.20879">
        <ele>101</ele>
        <time>2016-10-30T08:18:24.000Z</time>
      </trkpt>
      <trkpt lat="47.85685" lon="2.20872">
        <ele>101</ele>
        <time>2016-10-30T08:18:25.000Z</time>
      </trkpt>
      <trkpt lat="47.85682" lon="2.20865">
        <ele>102</ele>
        <time>2016-10-30T08:18:26.000Z</time>
      </trkpt>
      <trkpt lat="47.85679" lon="2.20858">
        <ele>102</ele>
        <time>2016-10-30T08:18:27.000Z</time>
      </trkpt>
      <trkpt lat="47.85676" lon="2.20851">
        <ele>102</ele>
        <time>2016-10-30T08:18:28.000Z</time>
      </trkpt>
      <trkpt lat="47.85672" lon="2.20843">
        <ele>102</ele>
        <time>2016-10-30T08:18:29.000Z</time>
      </trkpt>
      <trkpt lat="47.85669" lon="2.20836">
        <ele>102</ele>
        <time>2016-10-30T08:18:30.000Z</time>
      </trkpt>
      <trkpt lat="47.85665" lon="2.20829">
        <ele>103</ele>
        <time>2016-10-30T08:18:31.000Z</time>
      </trkpt>
      <trkpt lat="47.85661" lon="2.20822">
        <ele>103</ele>
        <time>2016-10-30T08:18:32.000Z</time>
      </trkpt>
      <trkpt lat="47.85658" lon="2.20815">
        <ele>103</ele>
        <time>2016-10-30T08:18:33.000Z</time>
      </trkpt>
      <trkpt lat="47.85655" lon="2.20809">
        <ele>103</ele>
        <time>2016-10-30T08:18:34.000Z</time>
      </trkpt>
      <trkpt lat="47.85652" lon="2.20802">
        <ele>104</ele>
        <time>2016-10-30T08:18:35.000Z</time>
      </trkpt>
      <trkpt lat="47.85649" lon="2.20796">
        <ele>104</ele>
        <time>2016-10-30T08:18:36.000Z</time>
      </trkpt>
      <trkpt lat="47.85646" lon="2.2079">
        <ele>104</ele>
        <time>2016-10-30T08:18:37.000Z</time>
      </trkpt>
      <trkpt lat="47.85643" lon="2.20783">
        <ele>104</ele>
        <time>2016-10-30T08:18:38.000Z</time>
      </trkpt>
      <trkpt lat="47.8564" lon="2.20777">
        <ele>105</ele>
        <time>2016-10-30T08:18:39.000Z</time>
      </trkpt>
      <trkpt lat="47.85637" lon="2.20771">
        <ele>105</ele>
        <time>2016-10-30T08:18:40.000Z</time>
      </trkpt>
      <trkpt lat="47.85634" lon="2.20765">
        <ele>105</ele>
        <time>2016-10-30T08:18:41.000Z</time>
      </trkpt>
      <trkpt lat="47.85631" lon="2.20759">
        <ele>105</ele>
        <time>2016-10-30T08:18:42.000Z</time>
      </trkpt>
      <trkpt lat="47.85627" lon="2.20753">
        <ele>105</ele>
        <time>2016-10-30T08:18:43.000Z</time>
      </trkpt>
      <trkpt lat="47.85625" lon="2.20746">
        <ele>105</ele>
        <time>2016-10-30T08:18:44.000Z</time>
      </trkpt>
      <trkpt lat="47.85622" lon="2.2074">
        <ele>105</ele>
        <time>2016-10-30T08:18:45.000Z</time>
      </trkpt>
      <trkpt lat="47.8562" lon="2.20734">
        <ele>105</ele>
        <time>2016-10-30T08:18:46.000Z</time>
      </trkpt>
      <trkpt lat="47.85617" lon="2.20728">
        <ele>104</ele>
        <time>2016-10-30T08:18:47.000Z</time>
      </trkpt>
      <trkpt lat="47.85615" lon="2.20723">
        <ele>103</ele>
        <time>2016-10-30T08:18:48.000Z</time>
      </trkpt>
      <trkpt lat="47.85612" lon="2.20716">
        <ele>103</ele>
        <time>2016-10-30T08:18:49.000Z</time>
      </trkpt>
      <trkpt lat="47.85608" lon="2.2071">
        <ele>103</ele>
        <time>2016-10-30T08:18:50.000Z</time>
      </trkpt>
      <trkpt lat="47.85605" lon="2.20703">
        <ele>102</ele>
        <time>2016-10-30T08:18:51.000Z</time>
      </trkpt>
      <trkpt lat="47.85602" lon="2.20697">
        <ele>102</ele>
        <time>2016-10-30T08:18:52.000Z</time>
      </trkpt>
      <trkpt lat="47.85599" lon="2.20691">
        <ele>102</ele>
        <time>2016-10-30T08:18:53.000Z</time>
      </trkpt>
      <trkpt lat="47.85597" lon="2.20685">
        <ele>102</ele>
        <time>2016-10-30T08:18:54.000Z</time>
      </trkpt>
      <trkpt lat="47.85594" lon="2.2068">
        <ele>102</ele>
        <time>2016-10-30T08:18:55.000Z</time>
      </trkpt>
      <trkpt lat="47.85592" lon="2.20675">
        <ele>102</ele>
        <time>2016-10-30T08:18:56.000Z</time>
      </trkpt>
      <trkpt lat="47.8559" lon="2.20671">
        <ele>101</ele>
        <time>2016-10-30T08:18:57.000Z</time>
      </trkpt>
      <trkpt lat="47.85588" lon="2.20667">
        <ele>101</ele>
        <time>2016-10-30T08:18:58.000Z</time>
      </trkpt>
      <trkpt lat="47.85586" lon="2.20663">
        <ele>100</ele>
        <time>2016-10-30T08:18:59.000Z</time>
      </trkpt>
      <trkpt lat="47.85584" lon="2.20659">
        <ele>100</ele>
        <time>2016-10-30T08:19:00.000Z</time>
      </trkpt>
      <trkpt lat="47.85582" lon="2.20655">
        <ele>100</ele>
        <time>2016-10-30T08:19:01.000Z</time>
      </trkpt>
      <trkpt lat="47.8558" lon="2.20649">
        <ele>100</ele>
        <time>2016-10-30T08:19:02.000Z</time>
      </trkpt>
      <trkpt lat="47.85577" lon="2.20644">
        <ele>100</ele>
        <time>2016-10-30T08:19:03.000Z</time>
      </trkpt>
      <trkpt lat="47.85574" lon="2.20638">
        <ele>99</ele>
        <time>2016-10-30T08:19:04.000Z</time>
      </trkpt>
      <trkpt lat="47.85572" lon="2.20632">
        <ele>98</ele>
        <time>2016-10-30T08:19:05.000Z</time>
      </trkpt>
      <trkpt lat="47.85569" lon="2.20625">
        <ele>99</ele>
        <time>2016-10-30T08:19:06.000Z</time>
      </trkpt>
      <trkpt lat="47.85566" lon="2.20618">
        <ele>99</ele>
        <time>2016-10-30T08:19:07.000Z</time>
      </trkpt>
      <trkpt lat="47.85563" lon="2.20611">
        <ele>99</ele>
        <time>2016-10-30T08:19:08.000Z</time>
      </trkpt>
      <trkpt lat="47.85559" lon="2.20604">
        <ele>100</ele>
        <time>2016-10-30T08:19:09.000Z</time>
      </trkpt>
      <trkpt lat="47.85556" lon="2.20598">
        <ele>101</ele>
        <time>2016-10-30T08:19:10.000Z</time>
      </trkpt>
      <trkpt lat="47.85552" lon="2.20592">
        <ele>101</ele>
        <time>2016-10-30T08:19:11.000Z</time>
      </trkpt>
      <trkpt lat="47.85548" lon="2.20585">
        <ele>102</ele>
        <time>2016-10-30T08:19:12.000Z</time>
      </trkpt>
      <trkpt lat="47.85544" lon="2.20579">
        <ele>103</ele>
        <time>2016-10-30T08:19:13.000Z</time>
      </trkpt>
      <trkpt lat="47.8554" lon="2.20571">
        <ele>103</ele>
        <time>2016-10-30T08:19:14.000Z</time>
      </trkpt>
      <trkpt lat="47.85536" lon="2.20563">
        <ele>106</ele>
        <time>2016-10-30T08:19:15.000Z</time>
      </trkpt>
      <trkpt lat="47.85532" lon="2.20554">
        <ele>107</ele>
        <time>2016-10-30T08:19:16.000Z</time>
      </trkpt>
      <trkpt lat="47.85528" lon="2.20547">
        <ele>107</ele>
        <time>2016-10-30T08:19:17.000Z</time>
      </trkpt>
      <trkpt lat="47.85525" lon="2.2054">
        <ele>107</ele>
        <time>2016-10-30T08:19:18.000Z</time>
      </trkpt>
      <trkpt lat="47.85522" lon="2.20535">
        <ele>107</ele>
        <time>2016-10-30T08:19:19.000Z</time>
      </trkpt>
      <trkpt lat="47.85519" lon="2.2053">
        <ele>107</ele>
        <time>2016-10-30T08:19:20.000Z</time>
      </trkpt>
      <trkpt lat="47.85516" lon="2.20525">
        <ele>107</ele>
        <time>2016-10-30T08:19:21.000Z</time>
      </trkpt>
      <trkpt lat="47.85512" lon="2.20522">
        <ele>108</ele>
        <time>2016-10-30T08:19:22.000Z</time>
      </trkpt>
      <trkpt lat="47.85508" lon="2.20518">
        <ele>108</ele>
        <time>2016-10-30T08:19:23.000Z</time>
      </trkpt>
      <trkpt lat="47.85504" lon="2.20515">
        <ele>109</ele>
        <time>2016-10-30T08:19:24.000Z</time>
      </trkpt>
      <trkpt lat="47.855" lon="2.20512">
        <ele>109</ele>
        <time>2016-10-30T08:19:25.000Z</time>
      </trkpt>
      <trkpt lat="47.85495" lon="2.20509">
        <ele>109</ele>
        <time>2016-10-30T08:19:26.000Z</time>
      </trkpt>
      <trkpt lat="47.85491" lon="2.20506">
        <ele>109</ele>
        <time>2016-10-30T08:19:27.000Z</time>
      </trkpt>
      <trkpt lat="47.85488" lon="2.20502">
        <ele>108</ele>
        <time>2016-10-30T08:19:28.000Z</time>
      </trkpt>
      <trkpt lat="47.85484" lon="2.20498">
        <ele>108</ele>
        <time>2016-10-30T08:19:29.000Z</time>
      </trkpt>
      <trkpt lat="47.85481" lon="2.20493">
        <ele>107</ele>
        <time>2016-10-30T08:19:30.000Z</time>
      </trkpt>
      <trkpt lat="47.85477" lon="2.20488">
        <ele>108</ele>
        <time>2016-10-30T08:19:31.000Z</time>
      </trkpt>
      <trkpt lat="47.85474" lon="2.20482">
        <ele>108</ele>
        <time>2016-10-30T08:19:32.000Z</time>
      </trkpt>
      <trkpt lat="47.85471" lon="2.20476">
        <ele>108</ele>
        <time>2016-10-30T08:19:33.000Z</time>
      </trkpt>
      <trkpt lat="47.85468" lon="2.2047">
        <ele>109</ele>
        <time>2016-10-30T08:19:34.000Z</time>
      </trkpt>
      <trkpt lat="47.85465" lon="2.20465">
        <ele>108</ele>
        <time>2016-10-30T08:19:35.000Z</time>
      </trkpt>
      <trkpt lat="47.85461" lon="2.20459">
        <ele>108</ele>
        <time>2016-10-30T08:19:36.000Z</time>
      </trkpt>
      <trkpt lat="47.85458" lon="2.20453">
        <ele>108</ele>
        <time>2016-10-30T08:19:37.000Z</time>
      </trkpt>
      <trkpt lat="47.85455" lon="2.20447">
        <ele>108</ele>
        <time>2016-10-30T08:19:38.000Z</time>
      </trkpt>
      <trkpt lat="47.85451" lon="2.20441">
        <ele>108</ele>
        <time>2016-10-30T08:19:39.000Z</time>
      </trkpt>
      <trkpt lat="47.85448" lon="2.20435">
        <ele>108</ele>
        <time>2016-10-30T08:19:40.000Z</time>
      </trkpt>
      <trkpt lat="47.85445" lon="2.20429">
        <ele>108</ele>
        <time>2016-10-30T08:19:41.000Z</time>
      </trkpt>
      <trkpt lat="47.85442" lon="2.20423">
        <ele>108</ele>
        <time>2016-10-30T08:19:42.000Z</time>
      </trkpt>
      <trkpt lat="47.85438" lon="2.20417">
        <ele>108</ele>
        <time>2016-10-30T08:19:43.000Z</time>
      </trkpt>
      <trkpt lat="47.85435" lon="2.20411">
        <ele>108</ele>
        <time>2016-10-30T08:19:44.000Z</time>
      </trkpt>
      <trkpt lat="47.85432" lon="2.20405">
        <ele>108</ele>
        <time>2016-10-30T08:19:45.000Z</time>
      </trkpt>
      <trkpt lat="47.85428" lon="2.20399">
        <ele>108</ele>
        <time>2016-10-30T08:19:46.000Z</time>
      </trkpt>
      <trkpt lat="47.85425" lon="2.20392">
        <ele>108</ele>
        <time>2016-10-30T08:19:47.000Z</time>
      </trkpt>
      <trkpt lat="47.85422" lon="2.20386">
        <ele>108</ele>
        <time>2016-10-30T08:19:48.000Z</time>
      </trkpt>
      <trkpt lat="47.85419" lon="2.2038">
        <ele>108</ele>
        <time>2016-10-30T08:19:49.000Z</time>
      </trkpt>
      <trkpt lat="47.85415" lon="2.20374">
        <ele>108</ele>
        <time>2016-10-30T08:19:50.000Z</time>
      </trkpt>
      <trkpt lat="47.85412" lon="2.20369">
        <ele>108</ele>
        <time>2016-10-30T08:19:51.000Z</time>
      </trkpt>
      <trkpt lat="47.85409" lon="2.20363">
        <ele>108</ele>
        <time>2016-10-30T08:19:52.000Z</time>
      </trkpt>
      <trkpt lat="47.85406" lon="2.20357">
        <ele>108</ele>
        <time>2016-10-30T08:19:53.000Z</time>
      </trkpt>
      <trkpt lat="47.85403" lon="2.20351">
        <ele>108</ele>
        <time>2016-10-30T08:19:54.000Z</time>
      </trkpt>
      <trkpt lat="47.854" lon="2.20345">
        <ele>108</ele>
        <time>2016-10-30T08:19:55.000Z</time>
      </trkpt>
      <trkpt lat="47.85397" lon="2.20339">
        <ele>108</ele>
        <time>2016-10-30T08:19:56.000Z</time>
      </trkpt>
      <trkpt lat="47.85393" lon="2.20333">
        <ele>108</ele>
        <time>2016-10-30T08:19:57.000Z</time>
      </trkpt>
      <trkpt lat="47.8539" lon="2.20327">
        <ele>108</ele>
        <time>2016-10-30T08:19:58.000Z</time>
      </trkpt>
      <trkpt lat="47.85387" lon="2.20321">
        <ele>108</ele>
        <time>2016-10-30T08:19:59.000Z</time>
      </trkpt>
      <trkpt lat="47.85384" lon="2.20315">
        <ele>108</ele>
        <time>2016-10-30T08:20:00.000Z</time>
      </trkpt>
      <trkpt lat="47.8538" lon="2.20309">
        <ele>108</ele>
        <time>2016-10-30T08:20:01.000Z</time>
      </trkpt>
      <trkpt lat="47.85377" lon="2.20303">
        <ele>108</ele>
        <time>2016-10-30T08:20:02.000Z</time>
      </trkpt>
      <trkpt lat="47.85374" lon="2.20297">
        <ele>108</ele>
        <time>2016-10-30T08:20:03.000Z</time>
      </trkpt>
      <trkpt lat="47.85371" lon="2.20291">
        <ele>109</ele>
        <time>2016-10-30T08:20:04.000Z</time>
      </trkpt>
      <trkpt lat="47.85368" lon="2.20285">
        <ele>109</ele>
        <time>2016-10-30T08:20:05.000Z</time>
      </trkpt>
      <trkpt lat="47.85364" lon="2.20279">
        <ele>109</ele>
        <time>2016-10-30T08:20:06.000Z</time>
      </trkpt>
      <trkpt lat="47.85361" lon="2.20273">
        <ele>108</ele>
        <time>2016-10-30T08:20:07.000Z</time>
      </trkpt>
      <trkpt lat="47.85358" lon="2.20267">
        <ele>108</ele>
        <time>2016-10-30T08:20:08.000Z</time>
      </trkpt>
      <trkpt lat="47.85355" lon="2.2026">
        <ele>108</ele>
        <time>2016-10-30T08:20:09.000Z</time>
      </trkpt>
      <trkpt lat="47.85352" lon="2.20254">
        <ele>108</ele>
        <time>2016-10-30T08:20:10.000Z</time>
      </trkpt>
      <trkpt lat="47.85349" lon="2.20248">
        <ele>108</ele>
        <time>2016-10-30T08:20:11.000Z</time>
      </trkpt>
      <trkpt lat="47.85345" lon="2.20242">
        <ele>108</ele>
        <time>2016-10-30T08:20:12.000Z</time>
      </trkpt>
      <trkpt lat="47.85342" lon="2.20235">
        <ele>108</ele>
        <time>2016-10-30T08:20:13.000Z</time>
      </trkpt>
      <trkpt lat="47.85339" lon="2.20229">
        <ele>108</ele>
        <time>2016-10-30T08:20:14.000Z</time>
      </trkpt>
      <trkpt lat="47.85336" lon="2.20223">
        <ele>108</ele>
        <time>2016-10-30T08:20:15.000Z</time>
      </trkpt>
      <trkpt lat="47.85333" lon="2.20216">
        <ele>108</ele>
        <time>2016-10-30T08:20:16.000Z</time>
      </trkpt>
      <trkpt lat="47.8533" lon="2.2021">
        <ele>108</ele>
        <time>2016-10-30T08:20:17.000Z</time>
      </trkpt>
      <trkpt lat="47.85327" lon="2.20204">
        <ele>108</ele>
        <time>2016-10-30T08:20:18.000Z</time>
      </trkpt>
      <trkpt lat="47.85324" lon="2.20198">
        <ele>109</ele>
        <time>2016-10-30T08:20:19.000Z</time>
      </trkpt>
      <trkpt lat="47.85321" lon="2.20191">
        <ele>109</ele>
        <time>2016-10-30T08:20:20.000Z</time>
      </trkpt>
      <trkpt lat="47.85318" lon="2.20185">
        <ele>109</ele>
        <time>2016-10-30T08:20:21.000Z</time>
      </trkpt>
      <trkpt lat="47.85315" lon="2.20179">
        <ele>109</ele>
        <time>2016-10-30T08:20:22.000Z</time>
      </trkpt>
      <trkpt lat="47.85312" lon="2.20173">
        <ele>109</ele>
        <time>2016-10-30T08:20:23.000Z</time>
      </trkpt>
      <trkpt lat="47.85309" lon="2.20167">
        <ele>108</ele>
        <time>2016-10-30T08:20:24.000Z</time>
      </trkpt>
      <trkpt lat="47.85306" lon="2.20161">
        <ele>108</ele>
        <time>2016-10-30T08:20:25.000Z</time>
      </trkpt>
      <trkpt lat="47.85303" lon="2.20155">
        <ele>108</ele>
        <time>2016-10-30T08:20:26.000Z</time>
      </trkpt>
      <trkpt lat="47.853" lon="2.20149">
        <ele>108</ele>
        <time>2016-10-30T08:20:27.000Z</time>
      </trkpt>
      <trkpt lat="47.85297" lon="2.20143">
        <ele>108</ele>
        <time>2016-10-30T08:20:28.000Z</time>
      </trkpt>
      <trkpt lat="47.85294" lon="2.20137">
        <ele>108</ele>
        <time>2016-10-30T08:20:29.000Z</time>
      </trkpt>
      <trkpt lat="47.85291" lon="2.20131">
        <ele>108</ele>
        <time>2016-10-30T08:20:30.000Z</time>
      </trkpt>
      <trkpt lat="47.85288" lon="2.20125">
        <ele>108</ele>
        <time>2016-10-30T08:20:31.000Z</time>
      </trkpt>
      <trkpt lat="47.85285" lon="2.20119">
        <ele>107</ele>
        <time>2016-10-30T08:20:32.000Z</time>
      </trkpt>
      <trkpt lat="47.85282" lon="2.20112">
        <ele>107</ele>
        <time>2016-10-30T08:20:33.000Z</time>
      </trkpt>
      <trkpt lat="47.85279" lon="2.20106">
        <ele>107</ele>
        <time>2016-10-30T08:20:34.000Z</time>
      </trkpt>
      <trkpt lat="47.85276" lon="2.201">
        <ele>107</ele>
        <time>2016-10-30T08:20:35.000Z</time>
      </trkpt>
      <trkpt lat="47.85273" lon="2.20094">
        <ele>107</ele>
        <time>2016-10-30T08:20:36.000Z</time>
      </trkpt>
      <trkpt lat="47.8527" lon="2.20088">
        <ele>107</ele>
        <time>2016-10-30T08:20:37.000Z</time>
      </trkpt>
      <trkpt lat="47.85267" lon="2.20082">
        <ele>107</ele>
        <time>2016-10-30T08:20:38.000Z</time>
      </trkpt>
      <trkpt lat="47.85264" lon="2.20076">
        <ele>107</ele>
        <time>2016-10-30T08:20:39.000Z</time>
      </trkpt>
      <trkpt lat="47.85261" lon="2.2007">
        <ele>108</ele>
        <time>2016-10-30T08:20:40.000Z</time>
      </trkpt>
      <trkpt lat="47.85258" lon="2.20064">
        <ele>107</ele>
        <time>2016-10-30T08:20:41.000Z</time>
      </trkpt>
      <trkpt lat="47.85256" lon="2.20058">
        <ele>107</ele>
        <time>2016-10-30T08:20:42.000Z</time>
      </trkpt>
      <trkpt lat="47.85253" lon="2.20052">
        <ele>107</ele>
        <time>2016-10-30T08:20:43.000Z</time>
      </trkpt>
      <trkpt lat="47.8525" lon="2.20046">
        <ele>107</ele>
        <time>2016-10-30T08:20:44.000Z</time>
      </trkpt>
      <trkpt lat="47.85247" lon="2.2004">
        <ele>107</ele>
        <time>2016-10-30T08:20:45.000Z</time>
      </trkpt>
      <trkpt lat="47.85244" lon="2.20033">
        <ele>107</ele>
        <time>2016-10-30T08:20:46.000Z</time>
      </trkpt>
      <trkpt lat="47.85242" lon="2.20027">
        <ele>107</ele>
        <time>2016-10-30T08:20:47.000Z</time>
      </trkpt>
      <trkpt lat="47.85239" lon="2.20021">
        <ele>107</ele>
        <time>2016-10-30T08:20:48.000Z</time>
      </trkpt>
      <trkpt lat="47.85236" lon="2.20014">
        <ele>107</ele>
        <time>2016-10-30T08:20:49.000Z</time>
      </trkpt>
      <trkpt lat="47.85234" lon="2.20008">
        <ele>107</ele>
        <time>2016-10-30T08:20:50.000Z</time>
      </trkpt>
      <trkpt lat="47.85231" lon="2.20002">
        <ele>107</ele>
        <time>2016-10-30T08:20:51.000Z</time>
      </trkpt>
      <trkpt lat="47.85228" lon="2.19995">
        <ele>107</ele>
        <time>2016-10-30T08:20:52.000Z</time>
      </trkpt>
      <trkpt lat="47.85226" lon="2.19988">
        <ele>107</ele>
        <time>2016-10-30T08:20:53.000Z</time>
      </trkpt>
      <trkpt lat="47.85223" lon="2.19982">
        <ele>107</ele>
        <time>2016-10-30T08:20:54.000Z</time>
      </trkpt>
      <trkpt lat="47.8522" lon="2.19975">
        <ele>107</ele>
        <time>2016-10-30T08:20:55.000Z</time>
      </trkpt>
      <trkpt lat="47.85217" lon="2.19968">
        <ele>107</ele>
        <time>2016-10-30T08:20:56.000Z</time>
      </trkpt>
      <trkpt lat="47.85214" lon="2.19962">
        <ele>107</ele>
        <time>2016-10-30T08:20:57.000Z</time>
      </trkpt>
      <trkpt lat="47.85212" lon="2.19955">
        <ele>107</ele>
        <time>2016-10-30T08:20:58.000Z</time>
      </trkpt>
      <trkpt lat="47.85209" lon="2.19949">
        <ele>107</ele>
        <time>2016-10-30T08:20:59.000Z</time>
      </trkpt>
      <trkpt lat="47.85206" lon="2.19942">
        <ele>107</ele>
        <time>2016-10-30T08:21:00.000Z</time>
      </trkpt>
      <trkpt lat="47.85203" lon="2.19936">
        <ele>107</ele>
        <time>2016-10-30T08:21:01.000Z</time>
      </trkpt>
      <trkpt lat="47.85201" lon="2.19929">
        <ele>107</ele>
        <time>2016-10-30T08:21:02.000Z</time>
      </trkpt>
      <trkpt lat="47.85198" lon="2.19923">
        <ele>107</ele>
        <time>2016-10-30T08:21:03.000Z</time>
      </trkpt>
      <trkpt lat="47.85196" lon="2.19916">
        <ele>107</ele>
        <time>2016-10-30T08:21:04.000Z</time>
      </trkpt>
      <trkpt lat="47.85193" lon="2.19909">
        <ele>107</ele>
        <time>2016-10-30T08:21:05.000Z</time>
      </trkpt>
      <trkpt lat="47.85191" lon="2.19902">
        <ele>107</ele>
        <time>2016-10-30T08:21:06.000Z</time>
      </trkpt>
      <trkpt lat="47.85189" lon="2.19895">
        <ele>107</ele>
        <time>2016-10-30T08:21:07.000Z</time>
      </trkpt>
      <trkpt lat="47.85187" lon="2.19889">
        <ele>107</ele>
        <time>2016-10-30T08:21:08.000Z</time>
      </trkpt>
      <trkpt lat="47.85185" lon="2.19882">
        <ele>106</ele>
        <time>2016-10-30T08:21:09.000Z</time>
      </trkpt>
      <trkpt lat="47.85182" lon="2.19875">
        <ele>106</ele>
        <time>2016-10-30T08:21:10.000Z</time>
      </trkpt>
      <trkpt lat="47.8518" lon="2.19868">
        <ele>106</ele>
        <time>2016-10-30T08:21:11.000Z</time>
      </trkpt>
      <trkpt lat="47.85178" lon="2.19861">
        <ele>106</ele>
        <time>2016-10-30T08:21:12.000Z</time>
      </trkpt>
      <trkpt lat="47.85176" lon="2.19854">
        <ele>106</ele>
        <time>2016-10-30T08:21:13.000Z</time>
      </trkpt>
      <trkpt lat="47.85174" lon="2.19847">
        <ele>106</ele>
        <time>2016-10-30T08:21:14.000Z</time>
      </trkpt>
      <trkpt lat="47.85172" lon="2.19839">
        <ele>106</ele>
        <time>2016-10-30T08:21:15.000Z</time>
      </trkpt>
      <trkpt lat="47.85169" lon="2.19832">
        <ele>106</ele>
        <time>2016-10-30T08:21:16.000Z</time>
      </trkpt>
      <trkpt lat="47.85167" lon="2.19825">
        <ele>106</ele>
        <time>2016-10-30T08:21:17.000Z</time>
      </trkpt>
      <trkpt lat="47.85165" lon="2.19818">
        <ele>106</ele>
        <time>2016-10-30T08:21:18.000Z</time>
      </trkpt>
      <trkpt lat="47.85163" lon="2.1981">
        <ele>106</ele>
        <time>2016-10-30T08:21:19.000Z</time>
      </trkpt>
      <trkpt lat="47.85161" lon="2.19803">
        <ele>106</ele>
        <time>2016-10-30T08:21:20.000Z</time>
      </trkpt>
      <trkpt lat="47.85159" lon="2.19795">
        <ele>106</ele>
        <time>2016-10-30T08:21:21.000Z</time>
      </trkpt>
      <trkpt lat="47.85157" lon="2.19788">
        <ele>106</ele>
        <time>2016-10-30T08:21:22.000Z</time>
      </trkpt>
      <trkpt lat="47.85154" lon="2.19781">
        <ele>106</ele>
        <time>2016-10-30T08:21:23.000Z</time>
      </trkpt>
      <trkpt lat="47.85152" lon="2.19773">
        <ele>106</ele>
        <time>2016-10-30T08:21:24.000Z</time>
      </trkpt>
      <trkpt lat="47.8515" lon="2.19766">
        <ele>106</ele>
        <time>2016-10-30T08:21:25.000Z</time>
      </trkpt>
      <trkpt lat="47.85148" lon="2.19759">
        <ele>106</ele>
        <time>2016-10-30T08:21:26.000Z</time>
      </trkpt>
      <trkpt lat="47.85146" lon="2.19752">
        <ele>106</ele>
        <time>2016-10-30T08:21:27.000Z</time>
      </trkpt>
      <trkpt lat="47.85144" lon="2.19745">
        <ele>106</ele>
        <time>2016-10-30T08:21:28.000Z</time>
      </trkpt>
      <trkpt lat="47.85142" lon="2.19738">
        <ele>106</ele>
        <time>2016-10-30T08:21:29.000Z</time>
      </trkpt>
      <trkpt lat="47.8514" lon="2.1973">
        <ele>106</ele>
        <time>2016-10-30T08:21:30.000Z</time>
      </trkpt>
      <trkpt lat="47.85138" lon="2.19723">
        <ele>106</ele>
        <time>2016-10-30T08:21:31.000Z</time>
      </trkpt>
      <trkpt lat="47.85136" lon="2.19715">
        <ele>106</ele>
        <time>2016-10-30T08:21:32.000Z</time>
      </trkpt>
      <trkpt lat="47.85134" lon="2.19708">
        <ele>106</ele>
        <time>2016-10-30T08:21:33.000Z</time>
      </trkpt>
      <trkpt lat="47.85132" lon="2.197">
        <ele>106</ele>
        <time>2016-10-30T08:21:34.000Z</time>
      </trkpt>
      <trkpt lat="47.8513" lon="2.19692">
        <ele>106</ele>
        <time>2016-10-30T08:21:35.000Z</time>
      </trkpt>
      <trkpt lat="47.85128" lon="2.19685">
        <ele>106</ele>
        <time>2016-10-30T08:21:36.000Z</time>
      </trkpt>
      <trkpt lat="47.85126" lon="2.19677">
        <ele>106</ele>
        <time>2016-10-30T08:21:37.000Z</time>
      </trkpt>
      <trkpt lat="47.85124" lon="2.1967">
        <ele>106</ele>
        <time>2016-10-30T08:21:38.000Z</time>
      </trkpt>
      <trkpt lat="47.85122" lon="2.19663">
        <ele>106</ele>
        <time>2016-10-30T08:21:39.000Z</time>
      </trkpt>
      <trkpt lat="47.85119" lon="2.19655">
        <ele>106</ele>
        <time>2016-10-30T08:21:40.000Z</time>
      </trkpt>
      <trkpt lat="47.85117" lon="2.19648">
        <ele>106</ele>
        <time>2016-10-30T08:21:41.000Z</time>
      </trkpt>
      <trkpt lat="47.85115" lon="2.19641">
        <ele>106</ele>
        <time>2016-10-30T08:21:42.000Z</time>
      </trkpt>
      <trkpt lat="47.85113" lon="2.19634">
        <ele>106</ele>
        <time>2016-10-30T08:21:43.000Z</time>
      </trkpt>
      <trkpt lat="47.85111" lon="2.19627">
        <ele>106</ele>
        <time>2016-10-30T08:21:44.000Z</time>
      </trkpt>
      <trkpt lat="47.85109" lon="2.19621">
        <ele>106</ele>
        <time>2016-10-30T08:21:45.000Z</time>
      </trkpt>
      <trkpt lat="47.85108" lon="2.19614">
        <ele>106</ele>
        <time>2016-10-30T08:21:46.000Z</time>
      </trkpt>
      <trkpt lat="47.85106" lon="2.19608">
        <ele>106</ele>
        <time>2016-10-30T08:21:47.000Z</time>
      </trkpt>
      <trkpt lat="47.85104" lon="2.19602">
        <ele>106</ele>
        <time>2016-10-30T08:21:48.000Z</time>
      </trkpt>
      <trkpt lat="47.85103" lon="2.19596">
        <ele>106</ele>
        <time>2016-10-30T08:21:49.000Z</time>
      </trkpt>
      <trkpt lat="47.85101" lon="2.1959">
        <ele>106</ele>
        <time>2016-10-30T08:21:50.000Z</time>
      </trkpt>
      <trkpt lat="47.851" lon="2.19584">
        <ele>106</ele>
        <time>2016-10-30T08:21:51.000Z</time>
      </trkpt>
      <trkpt lat="47.85099" lon="2.19577">
        <ele>106</ele>
        <time>2016-10-30T08:21:52.000Z</time>
      </trkpt>
      <trkpt lat="47.85098" lon="2.19571">
        <ele>105</ele>
        <time>2016-10-30T08:21:53.000Z</time>
      </trkpt>
      <trkpt lat="47.85097" lon="2.19565">
        <ele>105</ele>
        <time>2016-10-30T08:21:54.000Z</time>
      </trkpt>
      <trkpt lat="47.85097" lon="2.19558">
        <ele>104</ele>
        <time>2016-10-30T08:21:55.000Z</time>
      </trkpt>
      <trkpt lat="47.85096" lon="2.19552">
        <ele>104</ele>
        <time>2016-10-30T08:21:56.000Z</time>
      </trkpt>
      <trkpt lat="47.85095" lon="2.19546">
        <ele>104</ele>
        <time>2016-10-30T08:21:57.000Z</time>
      </trkpt>
      <trkpt lat="47.85095" lon="2.19539">
        <ele>104</ele>
        <time>2016-10-30T08:21:58.000Z</time>
      </trkpt>
      <trkpt lat="47.85094" lon="2.19532">
        <ele>104</ele>
        <time>2016-10-30T08:21:59.000Z</time>
      </trkpt>
      <trkpt lat="47.85094" lon="2.19525">
        <ele>104</ele>
        <time>2016-10-30T08:22:00.000Z</time>
      </trkpt>
      <trkpt lat="47.85094" lon="2.19518">
        <ele>104</ele>
        <time>2016-10-30T08:22:01.000Z</time>
      </trkpt>
      <trkpt lat="47.85093" lon="2.19511">
        <ele>104</ele>
        <time>2016-10-30T08:22:02.000Z</time>
      </trkpt>
      <trkpt lat="47.85093" lon="2.19504">
        <ele>103</ele>
        <time>2016-10-30T08:22:03.000Z</time>
      </trkpt>
      <trkpt lat="47.85093" lon="2.19497">
        <ele>103</ele>
        <time>2016-10-30T08:22:04.000Z</time>
      </trkpt>
      <trkpt lat="47.85093" lon="2.1949">
        <ele>103</ele>
        <time>2016-10-30T08:22:05.000Z</time>
      </trkpt>
      <trkpt lat="47.85093" lon="2.19483">
        <ele>103</ele>
        <time>2016-10-30T08:22:06.000Z</time>
      </trkpt>
      <trkpt lat="47.85092" lon="2.19475">
        <ele>103</ele>
        <time>2016-10-30T08:22:07.000Z</time>
      </trkpt>
      <trkpt lat="47.85092" lon="2.19467">
        <ele>103</ele>
        <time>2016-10-30T08:22:08.000Z</time>
      </trkpt>
      <trkpt lat="47.85092" lon="2.19459">
        <ele>103</ele>
        <time>2016-10-30T08:22:09.000Z</time>
      </trkpt>
      <trkpt lat="47.85093" lon="2.19452">
        <ele>103</ele>
        <time>2016-10-30T08:22:10.000Z</time>
      </trkpt>
      <trkpt lat="47.85092" lon="2.19444">
        <ele>103</ele>
        <time>2016-10-30T08:22:11.000Z</time>
      </trkpt>
      <trkpt lat="47.85092" lon="2.19437">
        <ele>103</ele>
        <time>2016-10-30T08:22:12.000Z</time>
      </trkpt>
      <trkpt lat="47.85092" lon="2.19429">
        <ele>102</ele>
        <time>2016-10-30T08:22:13.000Z</time>
      </trkpt>
      <trkpt lat="47.85092" lon="2.19422">
        <ele>102</ele>
        <time>2016-10-30T08:22:14.000Z</time>
      </trkpt>
      <trkpt lat="47.85092" lon="2.19414">
        <ele>101</ele>
        <time>2016-10-30T08:22:15.000Z</time>
      </trkpt>
      <trkpt lat="47.85092" lon="2.19407">
        <ele>101</ele>
        <time>2016-10-30T08:22:16.000Z</time>
      </trkpt>
      <trkpt lat="47.85093" lon="2.19399">
        <ele>101</ele>
        <time>2016-10-30T08:22:17.000Z</time>
      </trkpt>
      <trkpt lat="47.85092" lon="2.19391">
        <ele>102</ele>
        <time>2016-10-30T08:22:18.000Z</time>
      </trkpt>
      <trkpt lat="47.85092" lon="2.19384">
        <ele>102</ele>
        <time>2016-10-30T08:22:19.000Z</time>
      </trkpt>
      <trkpt lat="47.85092" lon="2.19376">
        <ele>102</ele>
        <time>2016-10-30T08:22:20.000Z</time>
      </trkpt>
      <trkpt lat="47.85092" lon="2.1937">
        <ele>101</ele>
        <time>2016-10-30T08:22:21.000Z</time>
      </trkpt>
      <trkpt lat="47.85091" lon="2.19363">
        <ele>101</ele>
        <time>2016-10-30T08:22:22.000Z</time>
      </trkpt>
      <trkpt lat="47.85091" lon="2.19357">
        <ele>101</ele>
        <time>2016-10-30T08:22:23.000Z</time>
      </trkpt>
      <trkpt lat="47.85092" lon="2.19352">
        <ele>101</ele>
        <time>2016-10-30T08:22:24.000Z</time>
      </trkpt>
      <trkpt lat="47.85092" lon="2.19347">
        <ele>101</ele>
        <time>2016-10-30T08:22:25.000Z</time>
      </trkpt>
      <trkpt lat="47.85092" lon="2.19342">
        <ele>101</ele>
        <time>2016-10-30T08:22:26.000Z</time>
      </trkpt>
      <trkpt lat="47.85093" lon="2.19338">
        <ele>101</ele>
        <time>2016-10-30T08:22:27.000Z</time>
      </trkpt>
      <trkpt lat="47.85093" lon="2.19334">
        <ele>101</ele>
        <time>2016-10-30T08:22:28.000Z</time>
      </trkpt>
      <trkpt lat="47.85093" lon="2.19331">
        <ele>101</ele>
        <time>2016-10-30T08:22:29.000Z</time>
      </trkpt>
      <trkpt lat="47.85093" lon="2.19329">
        <ele>101</ele>
        <time>2016-10-30T08:22:30.000Z</time>
      </trkpt>
      <trkpt lat="47.85094" lon="2.19327">
        <ele>102</ele>
        <time>2016-10-30T08:22:31.000Z</time>
      </trkpt>
      <trkpt lat="47.85093" lon="2.19327">
        <ele>103</ele>
        <time>2016-10-30T08:22:32.000Z</time>
      </trkpt>
      <trkpt lat="47.85093" lon="2.19326">
        <ele>104</ele>
        <time>2016-10-30T08:22:33.000Z</time>
      </trkpt>
      <trkpt lat="47.85093" lon="2.19326">
        <ele>105</ele>
        <time>2016-10-30T08:22:34.000Z</time>
      </trkpt>
      <trkpt lat="47.85092" lon="2.19325">
        <ele>105</ele>
        <time>2016-10-30T08:22:35.000Z</time>
      </trkpt>
      <trkpt lat="47.85092" lon="2.19324">
        <ele>106</ele>
        <time>2016-10-30T08:22:36.000Z</time>
      </trkpt>
      <trkpt lat="47.85092" lon="2.19324">
        <ele>106</ele>
        <time>2016-10-30T08:22:37.000Z</time>
      </trkpt>
      <trkpt lat="47.85093" lon="2.19323">
        <ele>106</ele>
        <time>2016-10-30T08:22:38.000Z</time>
      </trkpt>
      <trkpt lat="47.85094" lon="2.19321">
        <ele>107</ele>
        <time>2016-10-30T08:22:39.000Z</time>
      </trkpt>
      <trkpt lat="47.85096" lon="2.19319">
        <ele>107</ele>
        <time>2016-10-30T08:22:40.000Z</time>
      </trkpt>
      <trkpt lat="47.85098" lon="2.19318">
        <ele>107</ele>
        <time>2016-10-30T08:22:41.000Z</time>
      </trkpt>
      <trkpt lat="47.851" lon="2.19317">
        <ele>107</ele>
        <time>2016-10-30T08:22:42.000Z</time>
      </trkpt>
      <trkpt lat="47.85102" lon="2.19317">
        <ele>107</ele>
        <time>2016-10-30T08:22:43.000Z</time>
      </trkpt>
      <trkpt lat="47.85104" lon="2.19317">
        <ele>107</ele>
        <time>2016-10-30T08:22:44.000Z</time>
      </trkpt>
      <trkpt lat="47.85106" lon="2.19317">
        <ele>107</ele>
        <time>2016-10-30T08:22:45.000Z</time>
      </trkpt>
      <trkpt lat="47.85109" lon="2.19317">
        <ele>108</ele>
        <time>2016-10-30T08:22:46.000Z</time>
      </trkpt>
      <trkpt lat="47.85112" lon="2.19317">
        <ele>108</ele>
        <time>2016-10-30T08:22:47.000Z</time>
      </trkpt>
      <trkpt lat="47.85116" lon="2.19317">
        <ele>108</ele>
        <time>2016-10-30T08:22:48.000Z</time>
      </trkpt>
      <trkpt lat="47.85118" lon="2.19317">
        <ele>108</ele>
        <time>2016-10-30T08:22:49.000Z</time>
      </trkpt>
      <trkpt lat="47.85121" lon="2.19318">
        <ele>108</ele>
        <time>2016-10-30T08:22:50.000Z</time>
      </trkpt>
      <trkpt lat="47.85124" lon="2.19318">
        <ele>108</ele>
        <time>2016-10-30T08:22:51.000Z</time>
      </trkpt>
      <trkpt lat="47.85127" lon="2.19319">
        <ele>107</ele>
        <time>2016-10-30T08:22:52.000Z</time>
      </trkpt>
      <trkpt lat="47.8513" lon="2.1932">
        <ele>107</ele>
        <time>2016-10-30T08:22:53.000Z</time>
      </trkpt>
      <trkpt lat="47.85134" lon="2.1932">
        <ele>106</ele>
        <time>2016-10-30T08:22:54.000Z</time>
      </trkpt>
      <trkpt lat="47.85137" lon="2.1932">
        <ele>106</ele>
        <time>2016-10-30T08:22:55.000Z</time>
      </trkpt>
      <trkpt lat="47.85141" lon="2.19321">
        <ele>105</ele>
        <time>2016-10-30T08:22:56.000Z</time>
      </trkpt>
      <trkpt lat="47.85145" lon="2.1932">
        <ele>104</ele>
        <time>2016-10-30T08:22:57.000Z</time>
      </trkpt>
      <trkpt lat="47.8515" lon="2.19321">
        <ele>103</ele>
        <time>2016-10-30T08:22:58.000Z</time>
      </trkpt>
      <trkpt lat="47.85154" lon="2.19322">
        <ele>102</ele>
        <time>2016-10-30T08:22:59.000Z</time>
      </trkpt>
      <trkpt lat="47.85159" lon="2.19323">
        <ele>102</ele>
        <time>2016-10-30T08:23:00.000Z</time>
      </trkpt>
      <trkpt lat="47.85164" lon="2.19324">
        <ele>101</ele>
        <time>2016-10-30T08:23:01.000Z</time>
      </trkpt>
      <trkpt lat="47.8517" lon="2.19325">
        <ele>100</ele>
        <time>2016-10-30T08:23:02.000Z</time>
      </trkpt>
      <trkpt lat="47.85175" lon="2.19325">
        <ele>100</ele>
        <time>2016-10-30T08:23:03.000Z</time>
      </trkpt>
      <trkpt lat="47.85181" lon="2.19326">
        <ele>99</ele>
        <time>2016-10-30T08:23:04.000Z</time>
      </trkpt>
      <trkpt lat="47.85187" lon="2.19326">
        <ele>99</ele>
        <time>2016-10-30T08:23:05.000Z</time>
      </trkpt>
      <trkpt lat="47.85193" lon="2.19326">
        <ele>99</ele>
        <time>2016-10-30T08:23:06.000Z</time>
      </trkpt>
      <trkpt lat="47.85198" lon="2.19327">
        <ele>98</ele>
        <time>2016-10-30T08:23:07.000Z</time>
      </trkpt>
      <trkpt lat="47.85203" lon="2.19327">
        <ele>98</ele>
        <time>2016-10-30T08:23:08.000Z</time>
      </trkpt>
      <trkpt lat="47.85208" lon="2.19328">
        <ele>98</ele>
        <time>2016-10-30T08:23:09.000Z</time>
      </trkpt>
      <trkpt lat="47.85212" lon="2.19328">
        <ele>97</ele>
        <time>2016-10-30T08:23:10.000Z</time>
      </trkpt>
      <trkpt lat="47.85217" lon="2.19328">
        <ele>98</ele>
        <time>2016-10-30T08:23:11.000Z</time>
      </trkpt>
      <trkpt lat="47.85222" lon="2.19328">
        <ele>97</ele>
        <time>2016-10-30T08:23:12.000Z</time>
      </trkpt>
      <trkpt lat="47.85227" lon="2.19328">
        <ele>98</ele>
        <time>2016-10-30T08:23:13.000Z</time>
      </trkpt>
      <trkpt lat="47.85232" lon="2.19328">
        <ele>98</ele>
        <time>2016-10-30T08:23:14.000Z</time>
      </trkpt>
      <trkpt lat="47.85237" lon="2.19328">
        <ele>99</ele>
        <time>2016-10-30T08:23:15.000Z</time>
      </trkpt>
      <trkpt lat="47.85242" lon="2.19328">
        <ele>99</ele>
        <time>2016-10-30T08:23:16.000Z</time>
      </trkpt>
      <trkpt lat="47.85248" lon="2.19328">
        <ele>100</ele>
        <time>2016-10-30T08:23:17.000Z</time>
      </trkpt>
      <trkpt lat="47.85253" lon="2.19328">
        <ele>100</ele>
        <time>2016-10-30T08:23:18.000Z</time>
      </trkpt>
      <trkpt lat="47.85258" lon="2.19328">
        <ele>101</ele>
        <time>2016-10-30T08:23:19.000Z</time>
      </trkpt>
      <trkpt lat="47.85264" lon="2.19328">
        <ele>102</ele>
        <time>2016-10-30T08:23:20.000Z</time>
      </trkpt>
      <trkpt lat="47.85269" lon="2.19328">
        <ele>102</ele>
        <time>2016-10-30T08:23:21.000Z</time>
      </trkpt>
      <trkpt lat="47.85275" lon="2.19327">
        <ele>102</ele>
        <time>2016-10-30T08:23:22.000Z</time>
      </trkpt>
      <trkpt lat="47.8528" lon="2.19327">
        <ele>102</ele>
        <time>2016-10-30T08:23:23.000Z</time>
      </trkpt>
      <trkpt lat="47.85285" lon="2.19327">
        <ele>102</ele>
        <time>2016-10-30T08:23:24.000Z</time>
      </trkpt>
      <trkpt lat="47.8529" lon="2.19327">
        <ele>102</ele>
        <time>2016-10-30T08:23:25.000Z</time>
      </trkpt>
      <trkpt lat="47.85295" lon="2.19327">
        <ele>103</ele>
        <time>2016-10-30T08:23:26.000Z</time>
      </trkpt>
      <trkpt lat="47.853" lon="2.19328">
        <ele>103</ele>
        <time>2016-10-30T08:23:27.000Z</time>
      </trkpt>
      <trkpt lat="47.85304" lon="2.1933">
        <ele>102</ele>
        <time>2016-10-30T08:23:28.000Z</time>
      </trkpt>
      <trkpt lat="47.85308" lon="2.19333">
        <ele>102</ele>
        <time>2016-10-30T08:23:29.000Z</time>
      </trkpt>
      <trkpt lat="47.85311" lon="2.19337">
        <ele>102</ele>
        <time>2016-10-30T08:23:30.000Z</time>
      </trkpt>
      <trkpt lat="47.85314" lon="2.19342">
        <ele>103</ele>
        <time>2016-10-30T08:23:31.000Z</time>
      </trkpt>
      <trkpt lat="47.85315" lon="2.19347">
        <ele>104</ele>
        <time>2016-10-30T08:23:32.000Z</time>
      </trkpt>
      <trkpt lat="47.85316" lon="2.19353">
        <ele>104</ele>
        <time>2016-10-30T08:23:33.000Z</time>
      </trkpt>
      <trkpt lat="47.85316" lon="2.19359">
        <ele>104</ele>
        <time>2016-10-30T08:23:34.000Z</time>
      </trkpt>
      <trkpt lat="47.85316" lon="2.19366">
        <ele>105</ele>
        <time>2016-10-30T08:23:35.000Z</time>
      </trkpt>
      <trkpt lat="47.85315" lon="2.19372">
        <ele>105</ele>
        <time>2016-10-30T08:23:36.000Z</time>
      </trkpt>
      <trkpt lat="47.85315" lon="2.19379">
        <ele>105</ele>
        <time>2016-10-30T08:23:37.000Z</time>
      </trkpt>
      <trkpt lat="47.85314" lon="2.19385">
        <ele>105</ele>
        <time>2016-10-30T08:23:38.000Z</time>
      </trkpt>
      <trkpt lat="47.85314" lon="2.19392">
        <ele>105</ele>
        <time>2016-10-30T08:23:39.000Z</time>
      </trkpt>
      <trkpt lat="47.85313" lon="2.19399">
        <ele>105</ele>
        <time>2016-10-30T08:23:40.000Z</time>
      </trkpt>
      <trkpt lat="47.85313" lon="2.19407">
        <ele>105</ele>
        <time>2016-10-30T08:23:41.000Z</time>
      </trkpt>
      <trkpt lat="47.85313" lon="2.19414">
        <ele>104</ele>
        <time>2016-10-30T08:23:42.000Z</time>
      </trkpt>
      <trkpt lat="47.85313" lon="2.19422">
        <ele>104</ele>
        <time>2016-10-30T08:23:43.000Z</time>
      </trkpt>
      <trkpt lat="47.85314" lon="2.19429">
        <ele>104</ele>
        <time>2016-10-30T08:23:44.000Z</time>
      </trkpt>
      <trkpt lat="47.85314" lon="2.19437">
        <ele>104</ele>
        <time>2016-10-30T08:23:45.000Z</time>
      </trkpt>
      <trkpt lat="47.85315" lon="2.19445">
        <ele>104</ele>
        <time>2016-10-30T08:23:46.000Z</time>
      </trkpt>
      <trkpt lat="47.85315" lon="2.19453">
        <ele>104</ele>
        <time>2016-10-30T08:23:47.000Z</time>
      </trkpt>
      <trkpt lat="47.85316" lon="2.1946">
        <ele>104</ele>
        <time>2016-10-30T08:23:48.000Z</time>
      </trkpt>
      <trkpt lat="47.85317" lon="2.19468">
        <ele>104</ele>
        <time>2016-10-30T08:23:49.000Z</time>
      </trkpt>
      <trkpt lat="47.85319" lon="2.19475">
        <ele>104</ele>
        <time>2016-10-30T08:23:50.000Z</time>
      </trkpt>
      <trkpt lat="47.8532" lon="2.19483">
        <ele>104</ele>
        <time>2016-10-30T08:23:51.000Z</time>
      </trkpt>
      <trkpt lat="47.85322" lon="2.1949">
        <ele>104</ele>
        <time>2016-10-30T08:23:52.000Z</time>
      </trkpt>
      <trkpt lat="47.85323" lon="2.19497">
        <ele>104</ele>
        <time>2016-10-30T08:23:53.000Z</time>
      </trkpt>
      <trkpt lat="47.85325" lon="2.19505">
        <ele>104</ele>
        <time>2016-10-30T08:23:54.000Z</time>
      </trkpt>
      <trkpt lat="47.85327" lon="2.19512">
        <ele>104</ele>
        <time>2016-10-30T08:23:55.000Z</time>
      </trkpt>
      <trkpt lat="47.85329" lon="2.19519">
        <ele>104</ele>
        <time>2016-10-30T08:23:56.000Z</time>
      </trkpt>
      <trkpt lat="47.8533" lon="2.19526">
        <ele>104</ele>
        <time>2016-10-30T08:23:57.000Z</time>
      </trkpt>
      <trkpt lat="47.85332" lon="2.19533">
        <ele>104</ele>
        <time>2016-10-30T08:23:58.000Z</time>
      </trkpt>
      <trkpt lat="47.85335" lon="2.19539">
        <ele>105</ele>
        <time>2016-10-30T08:23:59.000Z</time>
      </trkpt>
      <trkpt lat="47.85338" lon="2.19544">
        <ele>104</ele>
        <time>2016-10-30T08:24:00.000Z</time>
      </trkpt>
      <trkpt lat="47.85342" lon="2.19548">
        <ele>105</ele>
        <time>2016-10-30T08:24:01.000Z</time>
      </trkpt>
      <trkpt lat="47.85347" lon="2.1955">
        <ele>107</ele>
        <time>2016-10-30T08:24:02.000Z</time>
      </trkpt>
      <trkpt lat="47.85352" lon="2.19551">
        <ele>106</ele>
        <time>2016-10-30T08:24:03.000Z</time>
      </trkpt>
      <trkpt lat="47.85357" lon="2.19551">
        <ele>106</ele>
        <time>2016-10-30T08:24:04.000Z</time>
      </trkpt>
      <trkpt lat="47.85362" lon="2.1955">
        <ele>106</ele>
        <time>2016-10-30T08:24:05.000Z</time>
      </trkpt>
      <trkpt lat="47.85368" lon="2.1955">
        <ele>105</ele>
        <time>2016-10-30T08:24:06.000Z</time>
      </trkpt>
      <trkpt lat="47.85373" lon="2.1955">
        <ele>105</ele>
        <time>2016-10-30T08:24:07.000Z</time>
      </trkpt>
      <trkpt lat="47.85379" lon="2.1955">
        <ele>105</ele>
        <time>2016-10-30T08:24:08.000Z</time>
      </trkpt>
      <trkpt lat="47.85384" lon="2.1955">
        <ele>104</ele>
        <time>2016-10-30T08:24:09.000Z</time>
      </trkpt>
      <trkpt lat="47.8539" lon="2.1955">
        <ele>104</ele>
        <time>2016-10-30T08:24:10.000Z</time>
      </trkpt>
      <trkpt lat="47.85395" lon="2.1955">
        <ele>104</ele>
        <time>2016-10-30T08:24:11.000Z</time>
      </trkpt>
      <trkpt lat="47.85401" lon="2.19551">
        <ele>104</ele>
        <time>2016-10-30T08:24:12.000Z</time>
      </trkpt>
      <trkpt lat="47.85407" lon="2.19552">
        <ele>104</ele>
        <time>2016-10-30T08:24:13.000Z</time>
      </trkpt>
      <trkpt lat="47.85412" lon="2.19554">
        <ele>104</ele>
        <time>2016-10-30T08:24:14.000Z</time>
      </trkpt>
      <trkpt lat="47.85418" lon="2.19555">
        <ele>103</ele>
        <time>2016-10-30T08:24:15.000Z</time>
      </trkpt>
      <trkpt lat="47.85423" lon="2.19557">
        <ele>103</ele>
        <time>2016-10-30T08:24:16.000Z</time>
      </trkpt>
      <trkpt lat="47.85429" lon="2.19559">
        <ele>103</ele>
        <time>2016-10-30T08:24:17.000Z</time>
      </trkpt>
      <trkpt lat="47.85434" lon="2.19561">
        <ele>103</ele>
        <time>2016-10-30T08:24:18.000Z</time>
      </trkpt>
      <trkpt lat="47.85439" lon="2.19564">
        <ele>104</ele>
        <time>2016-10-30T08:24:19.000Z</time>
      </trkpt>
      <trkpt lat="47.85444" lon="2.19566">
        <ele>104</ele>
        <time>2016-10-30T08:24:20.000Z</time>
      </trkpt>
      <trkpt lat="47.8545" lon="2.19569">
        <ele>104</ele>
        <time>2016-10-30T08:24:21.000Z</time>
      </trkpt>
      <trkpt lat="47.85455" lon="2.19571">
        <ele>105</ele>
        <time>2016-10-30T08:24:22.000Z</time>
      </trkpt>
      <trkpt lat="47.8546" lon="2.19574">
        <ele>105</ele>
        <time>2016-10-30T08:24:23.000Z</time>
      </trkpt>
      <trkpt lat="47.85465" lon="2.19576">
        <ele>105</ele>
        <time>2016-10-30T08:24:24.000Z</time>
      </trkpt>
      <trkpt lat="47.85471" lon="2.19578">
        <ele>105</ele>
        <time>2016-10-30T08:24:25.000Z</time>
      </trkpt>
      <trkpt lat="47.85476" lon="2.19581">
        <ele>105</ele>
        <time>2016-10-30T08:24:26.000Z</time>
      </trkpt>
      <trkpt lat="47.8548" lon="2.19583">
        <ele>105</ele>
        <time>2016-10-30T08:24:27.000Z</time>
      </trkpt>
      <trkpt lat="47.85486" lon="2.19586">
        <ele>105</ele>
        <time>2016-10-30T08:24:28.000Z</time>
      </trkpt>
      <trkpt lat="47.85491" lon="2.19589">
        <ele>105</ele>
        <time>2016-10-30T08:24:29.000Z</time>
      </trkpt>
      <trkpt lat="47.85496" lon="2.19591">
        <ele>105</ele>
        <time>2016-10-30T08:24:30.000Z</time>
      </trkpt>
      <trkpt lat="47.85502" lon="2.19594">
        <ele>105</ele>
        <time>2016-10-30T08:24:31.000Z</time>
      </trkpt>
      <trkpt lat="47.85507" lon="2.19596">
        <ele>104</ele>
        <time>2016-10-30T08:24:32.000Z</time>
      </trkpt>
      <trkpt lat="47.85512" lon="2.19598">
        <ele>104</ele>
        <time>2016-10-30T08:24:33.000Z</time>
      </trkpt>
      <trkpt lat="47.85518" lon="2.196">
        <ele>104</ele>
        <time>2016-10-30T08:24:34.000Z</time>
      </trkpt>
      <trkpt lat="47.85523" lon="2.19602">
        <ele>104</ele>
        <time>2016-10-30T08:24:35.000Z</time>
      </trkpt>
      <trkpt lat="47.85529" lon="2.19605">
        <ele>105</ele>
        <time>2016-10-30T08:24:36.000Z</time>
      </trkpt>
      <trkpt lat="47.85534" lon="2.19607">
        <ele>105</ele>
        <time>2016-10-30T08:24:37.000Z</time>
      </trkpt>
      <trkpt lat="47.8554" lon="2.19608">
        <ele>105</ele>
        <time>2016-10-30T08:24:38.000Z</time>
      </trkpt>
      <trkpt lat="47.85545" lon="2.1961">
        <ele>105</ele>
        <time>2016-10-30T08:24:39.000Z</time>
      </trkpt>
      <trkpt lat="47.8555" lon="2.19612">
        <ele>105</ele>
        <time>2016-10-30T08:24:40.000Z</time>
      </trkpt>
      <trkpt lat="47.85556" lon="2.19613">
        <ele>105</ele>
        <time>2016-10-30T08:24:41.000Z</time>
      </trkpt>
      <trkpt lat="47.85561" lon="2.19615">
        <ele>105</ele>
        <time>2016-10-30T08:24:42.000Z</time>
      </trkpt>
      <trkpt lat="47.85567" lon="2.19616">
        <ele>105</ele>
        <time>2016-10-30T08:24:43.000Z</time>
      </trkpt>
      <trkpt lat="47.85572" lon="2.19618">
        <ele>105</ele>
        <time>2016-10-30T08:24:44.000Z</time>
      </trkpt>
      <trkpt lat="47.85577" lon="2.19619">
        <ele>105</ele>
        <time>2016-10-30T08:24:45.000Z</time>
      </trkpt>
      <trkpt lat="47.85583" lon="2.19621">
        <ele>104</ele>
        <time>2016-10-30T08:24:46.000Z</time>
      </trkpt>
      <trkpt lat="47.85588" lon="2.19622">
        <ele>105</ele>
        <time>2016-10-30T08:24:47.000Z</time>
      </trkpt>
      <trkpt lat="47.85594" lon="2.19624">
        <ele>104</ele>
        <time>2016-10-30T08:24:48.000Z</time>
      </trkpt>
      <trkpt lat="47.85599" lon="2.19626">
        <ele>104</ele>
        <time>2016-10-30T08:24:49.000Z</time>
      </trkpt>
      <trkpt lat="47.85605" lon="2.19627">
        <ele>105</ele>
        <time>2016-10-30T08:24:50.000Z</time>
      </trkpt>
      <trkpt lat="47.8561" lon="2.19629">
        <ele>105</ele>
        <time>2016-10-30T08:24:51.000Z</time>
      </trkpt>
      <trkpt lat="47.85615" lon="2.1963">
        <ele>105</ele>
        <time>2016-10-30T08:24:52.000Z</time>
      </trkpt>
      <trkpt lat="47.8562" lon="2.19632">
        <ele>104</ele>
        <time>2016-10-30T08:24:53.000Z</time>
      </trkpt>
      <trkpt lat="47.85625" lon="2.19634">
        <ele>105</ele>
        <time>2016-10-30T08:24:54.000Z</time>
      </trkpt>
      <trkpt lat="47.85631" lon="2.19635">
        <ele>105</ele>
        <time>2016-10-30T08:24:55.000Z</time>
      </trkpt>
      <trkpt lat="47.85636" lon="2.19637">
        <ele>105</ele>
        <time>2016-10-30T08:24:56.000Z</time>
      </trkpt>
      <trkpt lat="47.85641" lon="2.19639">
        <ele>105</ele>
        <time>2016-10-30T08:24:57.000Z</time>
      </trkpt>
      <trkpt lat="47.85646" lon="2.1964">
        <ele>105</ele>
        <time>2016-10-30T08:24:58.000Z</time>
      </trkpt>
      <trkpt lat="47.85651" lon="2.19642">
        <ele>105</ele>
        <time>2016-10-30T08:24:59.000Z</time>
      </trkpt>
      <trkpt lat="47.85656" lon="2.19643">
        <ele>105</ele>
        <time>2016-10-30T08:25:00.000Z</time>
      </trkpt>
      <trkpt lat="47.8566" lon="2.19644">
        <ele>105</ele>
        <time>2016-10-30T08:25:01.000Z</time>
      </trkpt>
      <trkpt lat="47.85665" lon="2.19646">
        <ele>105</ele>
        <time>2016-10-30T08:25:02.000Z</time>
      </trkpt>
      <trkpt lat="47.8567" lon="2.19647">
        <ele>106</ele>
        <time>2016-10-30T08:25:03.000Z</time>
      </trkpt>
      <trkpt lat="47.85674" lon="2.19648">
        <ele>106</ele>
        <time>2016-10-30T08:25:04.000Z</time>
      </trkpt>
      <trkpt lat="47.85678" lon="2.19649">
        <ele>106</ele>
        <time>2016-10-30T08:25:05.000Z</time>
      </trkpt>
      <trkpt lat="47.85683" lon="2.1965">
        <ele>106</ele>
        <time>2016-10-30T08:25:06.000Z</time>
      </trkpt>
      <trkpt lat="47.85686" lon="2.1965">
        <ele>107</ele>
        <time>2016-10-30T08:25:07.000Z</time>
      </trkpt>
      <trkpt lat="47.8569" lon="2.1965">
        <ele>107</ele>
        <time>2016-10-30T08:25:08.000Z</time>
      </trkpt>
      <trkpt lat="47.85693" lon="2.1965">
        <ele>107</ele>
        <time>2016-10-30T08:25:09.000Z</time>
      </trkpt>
      <trkpt lat="47.85696" lon="2.1965">
        <ele>107</ele>
        <time>2016-10-30T08:25:10.000Z</time>
      </trkpt>
      <trkpt lat="47.85698" lon="2.1965">
        <ele>107</ele>
        <time>2016-10-30T08:25:11.000Z</time>
      </trkpt>
      <trkpt lat="47.85699" lon="2.1965">
        <ele>106</ele>
        <time>2016-10-30T08:25:12.000Z</time>
      </trkpt>
      <trkpt lat="47.85701" lon="2.19649">
        <ele>107</ele>
        <time>2016-10-30T08:25:13.000Z</time>
      </trkpt>
      <trkpt lat="47.85703" lon="2.19649">
        <ele>107</ele>
        <time>2016-10-30T08:25:14.000Z</time>
      </trkpt>
      <trkpt lat="47.85706" lon="2.19649">
        <ele>107</ele>
        <time>2016-10-30T08:25:15.000Z</time>
      </trkpt>
      <trkpt lat="47.85708" lon="2.1965">
        <ele>108</ele>
        <time>2016-10-30T08:25:16.000Z</time>
      </trkpt>
      <trkpt lat="47.85711" lon="2.1965">
        <ele>108</ele>
        <time>2016-10-30T08:25:17.000Z</time>
      </trkpt>
      <trkpt lat="47.85713" lon="2.1965">
        <ele>108</ele>
        <time>2016-10-30T08:25:18.000Z</time>
      </trkpt>
      <trkpt lat="47.85716" lon="2.1965">
        <ele>109</ele>
        <time>2016-10-30T08:25:19.000Z</time>
      </trkpt>
      <trkpt lat="47.85718" lon="2.19651">
        <ele>108</ele>
        <time>2016-10-30T08:25:20.000Z</time>
      </trkpt>
      <trkpt lat="47.8572" lon="2.19651">
        <ele>109</ele>
        <time>2016-10-30T08:25:21.000Z</time>
      </trkpt>
      <trkpt lat="47.85723" lon="2.19651">
        <ele>110</ele>
        <time>2016-10-30T08:25:22.000Z</time>
      </trkpt>
      <trkpt lat="47.85725" lon="2.19651">
        <ele>110</ele>
        <time>2016-10-30T08:25:23.000Z</time>
      </trkpt>
      <trkpt lat="47.85728" lon="2.19652">
        <ele>109</ele>
        <time>2016-10-30T08:25:24.000Z</time>
      </trkpt>
      <trkpt lat="47.85731" lon="2.19652">
        <ele>109</ele>
        <time>2016-10-30T08:25:25.000Z</time>
      </trkpt>
      <trkpt lat="47.85734" lon="2.19653">
        <ele>109</ele>
        <time>2016-10-30T08:25:26.000Z</time>
      </trkpt>
      <trkpt lat="47.85736" lon="2.19653">
        <ele>108</ele>
        <time>2016-10-30T08:25:27.000Z</time>
      </trkpt>
      <trkpt lat="47.85739" lon="2.19654">
        <ele>109</ele>
        <time>2016-10-30T08:25:28.000Z</time>
      </trkpt>
      <trkpt lat="47.85742" lon="2.19654">
        <ele>109</ele>
        <time>2016-10-30T08:25:29.000Z</time>
      </trkpt>
      <trkpt lat="47.85745" lon="2.19654">
        <ele>110</ele>
        <time>2016-10-30T08:25:30.000Z</time>
      </trkpt>
      <trkpt lat="47.85748" lon="2.19655">
        <ele>110</ele>
        <time>2016-10-30T08:25:31.000Z</time>
      </trkpt>
      <trkpt lat="47.85751" lon="2.19655">
        <ele>111</ele>
        <time>2016-10-30T08:25:32.000Z</time>
      </trkpt>
      <trkpt lat="47.85754" lon="2.19655">
        <ele>111</ele>
        <time>2016-10-30T08:25:33.000Z</time>
      </trkpt>
      <trkpt lat="47.85757" lon="2.19656">
        <ele>111</ele>
        <time>2016-10-30T08:25:34.000Z</time>
      </trkpt>
      <trkpt lat="47.8576" lon="2.19656">
        <ele>111</ele>
        <time>2016-10-30T08:25:35.000Z</time>
      </trkpt>
      <trkpt lat="47.85762" lon="2.19656">
        <ele>111</ele>
        <time>2016-10-30T08:25:36.000Z</time>
      </trkpt>
      <trkpt lat="47.85764" lon="2.19656">
        <ele>112</ele>
        <time>2016-10-30T08:25:37.000Z</time>
      </trkpt>
      <trkpt lat="47.85767" lon="2.19656">
        <ele>112</ele>
        <time>2016-10-30T08:25:38.000Z</time>
      </trkpt>
      <trkpt lat="47.85769" lon="2.19657">
        <ele>112</ele>
        <time>2016-10-30T08:25:39.000Z</time>
      </trkpt>
      <trkpt lat="47.85772" lon="2.19658">
        <ele>112</ele>
        <time>2016-10-30T08:25:40.000Z</time>
      </trkpt>
      <trkpt lat="47.85775" lon="2.19659">
        <ele>112</ele>
        <time>2016-10-30T08:25:41.000Z</time>
      </trkpt>
      <trkpt lat="47.85777" lon="2.19659">
        <ele>112</ele>
        <time>2016-10-30T08:25:42.000Z</time>
      </trkpt>
      <trkpt lat="47.8578" lon="2.1966">
        <ele>112</ele>
        <time>2016-10-30T08:25:43.000Z</time>
      </trkpt>
      <trkpt lat="47.85783" lon="2.19661">
        <ele>113</ele>
        <time>2016-10-30T08:25:44.000Z</time>
      </trkpt>
      <trkpt lat="47.85786" lon="2.19663">
        <ele>113</ele>
        <time>2016-10-30T08:25:45.000Z</time>
      </trkpt>
      <trkpt lat="47.85789" lon="2.19664">
        <ele>113</ele>
        <time>2016-10-30T08:25:46.000Z</time>
      </trkpt>
      <trkpt lat="47.85791" lon="2.19665">
        <ele>113</ele>
        <time>2016-10-30T08:25:47.000Z</time>
      </trkpt>
      <trkpt lat="47.85793" lon="2.19666">
        <ele>112</ele>
        <time>2016-10-30T08:25:48.000Z</time>
      </trkpt>
      <trkpt lat="47.85796" lon="2.19667">
        <ele>112</ele>
        <time>2016-10-30T08:25:49.000Z</time>
      </trkpt>
      <trkpt lat="47.85798" lon="2.19669">
        <ele>112</ele>
        <time>2016-10-30T08:25:50.000Z</time>
      </trkpt>
      <trkpt lat="47.858" lon="2.19671">
        <ele>112</ele>
        <time>2016-10-30T08:25:51.000Z</time>
      </trkpt>
      <trkpt lat="47.85802" lon="2.19672">
        <ele>112</ele>
        <time>2016-10-30T08:25:52.000Z</time>
      </trkpt>
      <trkpt lat="47.85805" lon="2.19675">
        <ele>114</ele>
        <time>2016-10-30T08:25:53.000Z</time>
      </trkpt>
      <trkpt lat="47.85807" lon="2.19677">
        <ele>114</ele>
        <time>2016-10-30T08:25:54.000Z</time>
      </trkpt>
      <trkpt lat="47.85809" lon="2.19679">
        <ele>114</ele>
        <time>2016-10-30T08:25:55.000Z</time>
      </trkpt>
      <trkpt lat="47.85812" lon="2.19681">
        <ele>115</ele>
        <time>2016-10-30T08:25:56.000Z</time>
      </trkpt>
      <trkpt lat="47.85814" lon="2.19684">
        <ele>115</ele>
        <time>2016-10-30T08:25:57.000Z</time>
      </trkpt>
      <trkpt lat="47.85817" lon="2.19686">
        <ele>116</ele>
        <time>2016-10-30T08:25:58.000Z</time>
      </trkpt>
      <trkpt lat="47.85819" lon="2.19689">
        <ele>117</ele>
        <time>2016-10-30T08:25:59.000Z</time>
      </trkpt>
      <trkpt lat="47.85822" lon="2.19691">
        <ele>117</ele>
        <time>2016-10-30T08:26:00.000Z</time>
      </trkpt>
      <trkpt lat="47.85824" lon="2.19693">
        <ele>118</ele>
        <time>2016-10-30T08:26:01.000Z</time>
      </trkpt>
      <trkpt lat="47.85826" lon="2.19696">
        <ele>118</ele>
        <time>2016-10-30T08:26:02.000Z</time>
      </trkpt>
      <trkpt lat="47.85828" lon="2.19698">
        <ele>118</ele>
        <time>2016-10-30T08:26:03.000Z</time>
      </trkpt>
      <trkpt lat="47.85829" lon="2.19701">
        <ele>119</ele>
        <time>2016-10-30T08:26:04.000Z</time>
      </trkpt>
      <trkpt lat="47.85831" lon="2.19703">
        <ele>119</ele>
        <time>2016-10-30T08:26:05.000Z</time>
      </trkpt>
      <trkpt lat="47.85833" lon="2.19706">
        <ele>119</ele>
        <time>2016-10-30T08:26:06.000Z</time>
      </trkpt>
      <trkpt lat="47.85835" lon="2.19708">
        <ele>119</ele>
        <time>2016-10-30T08:26:07.000Z</time>
      </trkpt>
      <trkpt lat="47.85837" lon="2.1971">
        <ele>119</ele>
        <time>2016-10-30T08:26:08.000Z</time>
      </trkpt>
      <trkpt lat="47.85839" lon="2.19713">
        <ele>119</ele>
        <time>2016-10-30T08:26:09.000Z</time>
      </trkpt>
      <trkpt lat="47.85841" lon="2.19715">
        <ele>119</ele>
        <time>2016-10-30T08:26:10.000Z</time>
      </trkpt>
      <trkpt lat="47.85843" lon="2.19717">
        <ele>119</ele>
        <time>2016-10-30T08:26:11.000Z</time>
      </trkpt>
      <trkpt lat="47.85845" lon="2.19719">
        <ele>119</ele>
        <time>2016-10-30T08:26:12.000Z</time>
      </trkpt>
      <trkpt lat="47.85847" lon="2.19722">
        <ele>119</ele>
        <time>2016-10-30T08:26:13.000Z</time>
      </trkpt>
      <trkpt lat="47.85849" lon="2.19724">
        <ele>119</ele>
        <time>2016-10-30T08:26:14.000Z</time>
      </trkpt>
      <trkpt lat="47.85851" lon="2.19726">
        <ele>119</ele>
        <time>2016-10-30T08:26:15.000Z</time>
      </trkpt>
      <trkpt lat="47.85853" lon="2.19728">
        <ele>119</ele>
        <time>2016-10-30T08:26:16.000Z</time>
      </trkpt>
      <trkpt lat="47.85855" lon="2.19731">
        <ele>119</ele>
        <time>2016-10-30T08:26:17.000Z</time>
      </trkpt>
      <trkpt lat="47.85857" lon="2.19733">
        <ele>119</ele>
        <time>2016-10-30T08:26:18.000Z</time>
      </trkpt>
      <trkpt lat="47.85859" lon="2.19736">
        <ele>119</ele>
        <time>2016-10-30T08:26:19.000Z</time>
      </trkpt>
      <trkpt lat="47.8586" lon="2.19739">
        <ele>120</ele>
        <time>2016-10-30T08:26:20.000Z</time>
      </trkpt>
      <trkpt lat="47.85862" lon="2.19742">
        <ele>119</ele>
        <time>2016-10-30T08:26:21.000Z</time>
      </trkpt>
      <trkpt lat="47.85864" lon="2.19745">
        <ele>119</ele>
        <time>2016-10-30T08:26:22.000Z</time>
      </trkpt>
      <trkpt lat="47.85865" lon="2.19748">
        <ele>119</ele>
        <time>2016-10-30T08:26:23.000Z</time>
      </trkpt>
      <trkpt lat="47.85867" lon="2.19751">
        <ele>119</ele>
        <time>2016-10-30T08:26:24.000Z</time>
      </trkpt>
      <trkpt lat="47.85869" lon="2.19754">
        <ele>119</ele>
        <time>2016-10-30T08:26:25.000Z</time>
      </trkpt>
      <trkpt lat="47.8587" lon="2.19757">
        <ele>119</ele>
        <time>2016-10-30T08:26:26.000Z</time>
      </trkpt>
      <trkpt lat="47.85872" lon="2.1976">
        <ele>119</ele>
        <time>2016-10-30T08:26:27.000Z</time>
      </trkpt>
      <trkpt lat="47.85874" lon="2.19763">
        <ele>119</ele>
        <time>2016-10-30T08:26:28.000Z</time>
      </trkpt>
      <trkpt lat="47.85875" lon="2.19766">
        <ele>119</ele>
        <time>2016-10-30T08:26:29.000Z</time>
      </trkpt>
      <trkpt lat="47.85877" lon="2.19768">
        <ele>119</ele>
        <time>2016-10-30T08:26:30.000Z</time>
      </trkpt>
      <trkpt lat="47.85879" lon="2.19771">
        <ele>120</ele>
        <time>2016-10-30T08:26:31.000Z</time>
      </trkpt>
      <trkpt lat="47.85881" lon="2.19773">
        <ele>120</ele>
        <time>2016-10-30T08:26:32.000Z</time>
      </trkpt>
      <trkpt lat="47.85883" lon="2.19776">
        <ele>120</ele>
        <time>2016-10-30T08:26:33.000Z</time>
      </trkpt>
      <trkpt lat="47.85885" lon="2.19779">
        <ele>120</ele>
        <time>2016-10-30T08:26:34.000Z</time>
      </trkpt>
      <trkpt lat="47.85886" lon="2.19782">
        <ele>120</ele>
        <time>2016-10-30T08:26:35.000Z</time>
      </trkpt>
      <trkpt lat="47.85888" lon="2.19784">
        <ele>120</ele>
        <time>2016-10-30T08:26:36.000Z</time>
      </trkpt>
      <trkpt lat="47.8589" lon="2.19787">
        <ele>120</ele>
        <time>2016-10-30T08:26:37.000Z</time>
      </trkpt>
      <trkpt lat="47.85892" lon="2.19789">
        <ele>120</ele>
        <time>2016-10-30T08:26:38.000Z</time>
      </trkpt>
      <trkpt lat="47.85893" lon="2.19791">
        <ele>120</ele>
        <time>2016-10-30T08:26:39.000Z</time>
      </trkpt>
      <trkpt lat="47.85895" lon="2.19794">
        <ele>120</ele>
        <time>2016-10-30T08:26:40.000Z</time>
      </trkpt>
      <trkpt lat="47.85897" lon="2.19796">
        <ele>120</ele>
        <time>2016-10-30T08:26:41.000Z</time>
      </trkpt>
      <trkpt lat="47.85899" lon="2.19798">
        <ele>120</ele>
        <time>2016-10-30T08:26:42.000Z</time>
      </trkpt>
      <trkpt lat="47.85901" lon="2.19801">
        <ele>120</ele>
        <time>2016-10-30T08:26:43.000Z</time>
      </trkpt>
      <trkpt lat="47.85903" lon="2.19803">
        <ele>120</ele>
        <time>2016-10-30T08:26:44.000Z</time>
      </trkpt>
      <trkpt lat="47.85905" lon="2.19806">
        <ele>121</ele>
        <time>2016-10-30T08:26:45.000Z</time>
      </trkpt>
      <trkpt lat="47.85907" lon="2.19808">
        <ele>121</ele>
        <time>2016-10-30T08:26:46.000Z</time>
      </trkpt>
      <trkpt lat="47.85909" lon="2.19811">
        <ele>121</ele>
        <time>2016-10-30T08:26:47.000Z</time>
      </trkpt>
      <trkpt lat="47.85911" lon="2.19813">
        <ele>121</ele>
        <time>2016-10-30T08:26:48.000Z</time>
      </trkpt>
      <trkpt lat="47.85913" lon="2.19816">
        <ele>121</ele>
        <time>2016-10-30T08:26:49.000Z</time>
      </trkpt>
      <trkpt lat="47.85915" lon="2.19819">
        <ele>121</ele>
        <time>2016-10-30T08:26:50.000Z</time>
      </trkpt>
      <trkpt lat="47.85918" lon="2.19822">
        <ele>121</ele>
        <time>2016-10-30T08:26:51.000Z</time>
      </trkpt>
      <trkpt lat="47.8592" lon="2.19825">
        <ele>121</ele>
        <time>2016-10-30T08:26:52.000Z</time>
      </trkpt>
      <trkpt lat="47.85922" lon="2.19829">
        <ele>121</ele>
        <time>2016-10-30T08:26:53.000Z</time>
      </trkpt>
      <trkpt lat="47.85925" lon="2.19832">
        <ele>121</ele>
        <time>2016-10-30T08:26:54.000Z</time>
      </trkpt>
      <trkpt lat="47.85927" lon="2.19835">
        <ele>121</ele>
        <time>2016-10-30T08:26:55.000Z</time>
      </trkpt>
      <trkpt lat="47.8593" lon="2.19838">
        <ele>121</ele>
        <time>2016-10-30T08:26:56.000Z</time>
      </trkpt>
      <trkpt lat="47.85933" lon="2.19841">
        <ele>121</ele>
        <time>2016-10-30T08:26:57.000Z</time>
      </trkpt>
      <trkpt lat="47.85935" lon="2.19844">
        <ele>121</ele>
        <time>2016-10-30T08:26:58.000Z</time>
      </trkpt>
      <trkpt lat="47.85937" lon="2.19847">
        <ele>121</ele>
        <time>2016-10-30T08:26:59.000Z</time>
      </trkpt>
      <trkpt lat="47.85939" lon="2.1985">
        <ele>121</ele>
        <time>2016-10-30T08:27:00.000Z</time>
      </trkpt>
      <trkpt lat="47.85942" lon="2.19853">
        <ele>121</ele>
        <time>2016-10-30T08:27:01.000Z</time>
      </trkpt>
      <trkpt lat="47.85944" lon="2.19855">
        <ele>122</ele>
        <time>2016-10-30T08:27:02.000Z</time>
      </trkpt>
      <trkpt lat="47.85946" lon="2.19858">
        <ele>121</ele>
        <time>2016-10-30T08:27:03.000Z</time>
      </trkpt>
      <trkpt lat="47.85948" lon="2.1986">
        <ele>121</ele>
        <time>2016-10-30T08:27:04.000Z</time>
      </trkpt>
      <trkpt lat="47.85951" lon="2.19863">
        <ele>121</ele>
        <time>2016-10-30T08:27:05.000Z</time>
      </trkpt>
      <trkpt lat="47.85953" lon="2.19865">
        <ele>121</ele>
        <time>2016-10-30T08:27:06.000Z</time>
      </trkpt>
      <trkpt lat="47.85955" lon="2.19868">
        <ele>121</ele>
        <time>2016-10-30T08:27:07.000Z</time>
      </trkpt>
      <trkpt lat="47.85957" lon="2.1987">
        <ele>121</ele>
        <time>2016-10-30T08:27:08.000Z</time>
      </trkpt>
      <trkpt lat="47.85959" lon="2.19872">
        <ele>121</ele>
        <time>2016-10-30T08:27:09.000Z</time>
      </trkpt>
      <trkpt lat="47.85961" lon="2.19874">
        <ele>121</ele>
        <time>2016-10-30T08:27:10.000Z</time>
      </trkpt>
      <trkpt lat="47.85963" lon="2.19876">
        <ele>120</ele>
        <time>2016-10-30T08:27:11.000Z</time>
      </trkpt>
      <trkpt lat="47.85965" lon="2.19879">
        <ele>120</ele>
        <time>2016-10-30T08:27:12.000Z</time>
      </trkpt>
      <trkpt lat="47.85967" lon="2.19881">
        <ele>119</ele>
        <time>2016-10-30T08:27:13.000Z</time>
      </trkpt>
      <trkpt lat="47.8597" lon="2.19883">
        <ele>119</ele>
        <time>2016-10-30T08:27:14.000Z</time>
      </trkpt>
      <trkpt lat="47.85972" lon="2.19885">
        <ele>119</ele>
        <time>2016-10-30T08:27:15.000Z</time>
      </trkpt>
      <trkpt lat="47.85975" lon="2.19888">
        <ele>119</ele>
        <time>2016-10-30T08:27:16.000Z</time>
      </trkpt>
      <trkpt lat="47.85977" lon="2.1989">
        <ele>119</ele>
        <time>2016-10-30T08:27:17.000Z</time>
      </trkpt>
      <trkpt lat="47.8598" lon="2.19892">
        <ele>119</ele>
        <time>2016-10-30T08:27:18.000Z</time>
      </trkpt>
      <trkpt lat="47.85983" lon="2.19894">
        <ele>119</ele>
        <time>2016-10-30T08:27:19.000Z</time>
      </trkpt>
      <trkpt lat="47.85985" lon="2.19897">
        <ele>119</ele>
        <time>2016-10-30T08:27:20.000Z</time>
      </trkpt>
      <trkpt lat="47.85988" lon="2.19899">
        <ele>119</ele>
        <time>2016-10-30T08:27:21.000Z</time>
      </trkpt>
      <trkpt lat="47.85991" lon="2.19901">
        <ele>119</ele>
        <time>2016-10-30T08:27:22.000Z</time>
      </trkpt>
      <trkpt lat="47.85993" lon="2.19904">
        <ele>119</ele>
        <time>2016-10-30T08:27:23.000Z</time>
      </trkpt>
      <trkpt lat="47.85996" lon="2.19906">
        <ele>119</ele>
        <time>2016-10-30T08:27:24.000Z</time>
      </trkpt>
      <trkpt lat="47.85998" lon="2.19908">
        <ele>119</ele>
        <time>2016-10-30T08:27:25.000Z</time>
      </trkpt>
      <trkpt lat="47.86001" lon="2.1991">
        <ele>119</ele>
        <time>2016-10-30T08:27:26.000Z</time>
      </trkpt>
      <trkpt lat="47.86004" lon="2.19913">
        <ele>120</ele>
        <time>2016-10-30T08:27:27.000Z</time>
      </trkpt>
      <trkpt lat="47.86006" lon="2.19915">
        <ele>119</ele>
        <time>2016-10-30T08:27:28.000Z</time>
      </trkpt>
      <trkpt lat="47.86009" lon="2.19918">
        <ele>119</ele>
        <time>2016-10-30T08:27:29.000Z</time>
      </trkpt>
      <trkpt lat="47.86011" lon="2.19921">
        <ele>119</ele>
        <time>2016-10-30T08:27:30.000Z</time>
      </trkpt>
      <trkpt lat="47.86014" lon="2.19924">
        <ele>118</ele>
        <time>2016-10-30T08:27:31.000Z</time>
      </trkpt>
      <trkpt lat="47.86016" lon="2.19927">
        <ele>118</ele>
        <time>2016-10-30T08:27:32.000Z</time>
      </trkpt>
      <trkpt lat="47.86019" lon="2.1993">
        <ele>117</ele>
        <time>2016-10-30T08:27:33.000Z</time>
      </trkpt>
      <trkpt lat="47.86021" lon="2.19934">
        <ele>117</ele>
        <time>2016-10-30T08:27:34.000Z</time>
      </trkpt>
      <trkpt lat="47.86023" lon="2.19938">
        <ele>117</ele>
        <time>2016-10-30T08:27:35.000Z</time>
      </trkpt>
      <trkpt lat="47.86026" lon="2.19942">
        <ele>117</ele>
        <time>2016-10-30T08:27:36.000Z</time>
      </trkpt>
      <trkpt lat="47.86028" lon="2.19946">
        <ele>117</ele>
        <time>2016-10-30T08:27:37.000Z</time>
      </trkpt>
      <trkpt lat="47.8603" lon="2.19951">
        <ele>117</ele>
        <time>2016-10-30T08:27:38.000Z</time>
      </trkpt>
      <trkpt lat="47.86032" lon="2.19955">
        <ele>118</ele>
        <time>2016-10-30T08:27:39.000Z</time>
      </trkpt>
      <trkpt lat="47.86034" lon="2.1996">
        <ele>118</ele>
        <time>2016-10-30T08:27:40.000Z</time>
      </trkpt>
      <trkpt lat="47.86036" lon="2.19964">
        <ele>118</ele>
        <time>2016-10-30T08:27:41.000Z</time>
      </trkpt>
      <trkpt lat="47.86038" lon="2.19969">
        <ele>118</ele>
        <time>2016-10-30T08:27:42.000Z</time>
      </trkpt>
      <trkpt lat="47.86041" lon="2.19973">
        <ele>118</ele>
        <time>2016-10-30T08:27:43.000Z</time>
      </trkpt>
      <trkpt lat="47.86043" lon="2.19977">
        <ele>119</ele>
        <time>2016-10-30T08:27:44.000Z</time>
      </trkpt>
      <trkpt lat="47.86045" lon="2.19981">
        <ele>119</ele>
        <time>2016-10-30T08:27:45.000Z</time>
      </trkpt>
      <trkpt lat="47.86047" lon="2.19986">
        <ele>119</ele>
        <time>2016-10-30T08:27:46.000Z</time>
      </trkpt>
      <trkpt lat="47.86049" lon="2.1999">
        <ele>119</ele>
        <time>2016-10-30T08:27:47.000Z</time>
      </trkpt>
      <trkpt lat="47.86051" lon="2.19994">
        <ele>119</ele>
        <time>2016-10-30T08:27:48.000Z</time>
      </trkpt>
      <trkpt lat="47.86053" lon="2.19997">
        <ele>119</ele>
        <time>2016-10-30T08:27:49.000Z</time>
      </trkpt>
      <trkpt lat="47.86055" lon="2.20001">
        <ele>119</ele>
        <time>2016-10-30T08:27:50.000Z</time>
      </trkpt>
      <trkpt lat="47.86056" lon="2.20004">
        <ele>119</ele>
        <time>2016-10-30T08:27:51.000Z</time>
      </trkpt>
      <trkpt lat="47.86058" lon="2.20008">
        <ele>119</ele>
        <time>2016-10-30T08:27:52.000Z</time>
      </trkpt>
      <trkpt lat="47.8606" lon="2.20011">
        <ele>119</ele>
        <time>2016-10-30T08:27:53.000Z</time>
      </trkpt>
      <trkpt lat="47.86062" lon="2.20015">
        <ele>119</ele>
        <time>2016-10-30T08:27:54.000Z</time>
      </trkpt>
      <trkpt lat="47.86064" lon="2.2002">
        <ele>118</ele>
        <time>2016-10-30T08:27:55.000Z</time>
      </trkpt>
      <trkpt lat="47.86066" lon="2.20025">
        <ele>118</ele>
        <time>2016-10-30T08:27:56.000Z</time>
      </trkpt>
      <trkpt lat="47.86068" lon="2.2003">
        <ele>118</ele>
        <time>2016-10-30T08:27:57.000Z</time>
      </trkpt>
      <trkpt lat="47.8607" lon="2.20035">
        <ele>117</ele>
        <time>2016-10-30T08:27:58.000Z</time>
      </trkpt>
      <trkpt lat="47.86072" lon="2.2004">
        <ele>117</ele>
        <time>2016-10-30T08:27:59.000Z</time>
      </trkpt>
      <trkpt lat="47.86074" lon="2.20045">
        <ele>117</ele>
        <time>2016-10-30T08:28:00.000Z</time>
      </trkpt>
      <trkpt lat="47.86075" lon="2.2005">
        <ele>116</ele>
        <time>2016-10-30T08:28:01.000Z</time>
      </trkpt>
      <trkpt lat="47.86077" lon="2.20055">
        <ele>116</ele>
        <time>2016-10-30T08:28:02.000Z</time>
      </trkpt>
      <trkpt lat="47.86079" lon="2.2006">
        <ele>115</ele>
        <time>2016-10-30T08:28:03.000Z</time>
      </trkpt>
      <trkpt lat="47.86081" lon="2.20065">
        <ele>115</ele>
        <time>2016-10-30T08:28:04.000Z</time>
      </trkpt>
      <trkpt lat="47.86083" lon="2.20071">
        <ele>115</ele>
        <time>2016-10-30T08:28:05.000Z</time>
      </trkpt>
      <trkpt lat="47.86085" lon="2.20076">
        <ele>115</ele>
        <time>2016-10-30T08:28:06.000Z</time>
      </trkpt>
      <trkpt lat="47.86087" lon="2.20081">
        <ele>115</ele>
        <time>2016-10-30T08:28:07.000Z</time>
      </trkpt>
      <trkpt lat="47.8609" lon="2.20086">
        <ele>115</ele>
        <time>2016-10-30T08:28:08.000Z</time>
      </trkpt>
      <trkpt lat="47.86092" lon="2.20091">
        <ele>115</ele>
        <time>2016-10-30T08:28:09.000Z</time>
      </trkpt>
      <trkpt lat="47.86094" lon="2.20096">
        <ele>115</ele>
        <time>2016-10-30T08:28:10.000Z</time>
      </trkpt>
      <trkpt lat="47.86096" lon="2.20101">
        <ele>115</ele>
        <time>2016-10-30T08:28:11.000Z</time>
      </trkpt>
      <trkpt lat="47.86098" lon="2.20106">
        <ele>115</ele>
        <time>2016-10-30T08:28:12.000Z</time>
      </trkpt>
      <trkpt lat="47.861" lon="2.20111">
        <ele>114</ele>
        <time>2016-10-30T08:28:13.000Z</time>
      </trkpt>
      <trkpt lat="47.86102" lon="2.20116">
        <ele>114</ele>
        <time>2016-10-30T08:28:14.000Z</time>
      </trkpt>
      <trkpt lat="47.86104" lon="2.20121">
        <ele>113</ele>
        <time>2016-10-30T08:28:15.000Z</time>
      </trkpt>
      <trkpt lat="47.86106" lon="2.20126">
        <ele>113</ele>
        <time>2016-10-30T08:28:16.000Z</time>
      </trkpt>
      <trkpt lat="47.86108" lon="2.20131">
        <ele>113</ele>
        <time>2016-10-30T08:28:17.000Z</time>
      </trkpt>
      <trkpt lat="47.8611" lon="2.20136">
        <ele>113</ele>
        <time>2016-10-30T08:28:18.000Z</time>
      </trkpt>
      <trkpt lat="47.86112" lon="2.20142">
        <ele>113</ele>
        <time>2016-10-30T08:28:19.000Z</time>
      </trkpt>
      <trkpt lat="47.86114" lon="2.20147">
        <ele>113</ele>
        <time>2016-10-30T08:28:20.000Z</time>
      </trkpt>
      <trkpt lat="47.86117" lon="2.20152">
        <ele>113</ele>
        <time>2016-10-30T08:28:21.000Z</time>
      </trkpt>
      <trkpt lat="47.86119" lon="2.20157">
        <ele>113</ele>
        <time>2016-10-30T08:28:22.000Z</time>
      </trkpt>
      <trkpt lat="47.86121" lon="2.20162">
        <ele>113</ele>
        <time>2016-10-30T08:28:23.000Z</time>
      </trkpt>
      <trkpt lat="47.86123" lon="2.20167">
        <ele>114</ele>
        <time>2016-10-30T08:28:24.000Z</time>
      </trkpt>
      <trkpt lat="47.86125" lon="2.20172">
        <ele>115</ele>
        <time>2016-10-30T08:28:25.000Z</time>
      </trkpt>
      <trkpt lat="47.86128" lon="2.20177">
        <ele>115</ele>
        <time>2016-10-30T08:28:26.000Z</time>
      </trkpt>
      <trkpt lat="47.8613" lon="2.20182">
        <ele>115</ele>
        <time>2016-10-30T08:28:27.000Z</time>
      </trkpt>
      <trkpt lat="47.86133" lon="2.20188">
        <ele>114</ele>
        <time>2016-10-30T08:28:28.000Z</time>
      </trkpt>
      <trkpt lat="47.86135" lon="2.20193">
        <ele>114</ele>
        <time>2016-10-30T08:28:29.000Z</time>
      </trkpt>
      <trkpt lat="47.86137" lon="2.20199">
        <ele>114</ele>
        <time>2016-10-30T08:28:30.000Z</time>
      </trkpt>
      <trkpt lat="47.86139" lon="2.20204">
        <ele>114</ele>
        <time>2016-10-30T08:28:31.000Z</time>
      </trkpt>
      <trkpt lat="47.86141" lon="2.2021">
        <ele>114</ele>
        <time>2016-10-30T08:28:32.000Z</time>
      </trkpt>
      <trkpt lat="47.86143" lon="2.20215">
        <ele>114</ele>
        <time>2016-10-30T08:28:33.000Z</time>
      </trkpt>
      <trkpt lat="47.86145" lon="2.2022">
        <ele>114</ele>
        <time>2016-10-30T08:28:34.000Z</time>
      </trkpt>
      <trkpt lat="47.86147" lon="2.20225">
        <ele>114</ele>
        <time>2016-10-30T08:28:35.000Z</time>
      </trkpt>
      <trkpt lat="47.86149" lon="2.2023">
        <ele>113</ele>
        <time>2016-10-30T08:28:36.000Z</time>
      </trkpt>
      <trkpt lat="47.86151" lon="2.20235">
        <ele>113</ele>
        <time>2016-10-30T08:28:37.000Z</time>
      </trkpt>
      <trkpt lat="47.86152" lon="2.2024">
        <ele>112</ele>
        <time>2016-10-30T08:28:38.000Z</time>
      </trkpt>
      <trkpt lat="47.86154" lon="2.20245">
        <ele>112</ele>
        <time>2016-10-30T08:28:39.000Z</time>
      </trkpt>
      <trkpt lat="47.86155" lon="2.2025">
        <ele>111</ele>
        <time>2016-10-30T08:28:40.000Z</time>
      </trkpt>
      <trkpt lat="47.86157" lon="2.20255">
        <ele>111</ele>
        <time>2016-10-30T08:28:41.000Z</time>
      </trkpt>
      <trkpt lat="47.86158" lon="2.2026">
        <ele>110</ele>
        <time>2016-10-30T08:28:42.000Z</time>
      </trkpt>
      <trkpt lat="47.8616" lon="2.20265">
        <ele>110</ele>
        <time>2016-10-30T08:28:43.000Z</time>
      </trkpt>
      <trkpt lat="47.86162" lon="2.20271">
        <ele>110</ele>
        <time>2016-10-30T08:28:44.000Z</time>
      </trkpt>
      <trkpt lat="47.86164" lon="2.20276">
        <ele>110</ele>
        <time>2016-10-30T08:28:45.000Z</time>
      </trkpt>
      <trkpt lat="47.86166" lon="2.20281">
        <ele>110</ele>
        <time>2016-10-30T08:28:46.000Z</time>
      </trkpt>
      <trkpt lat="47.86168" lon="2.20286">
        <ele>110</ele>
        <time>2016-10-30T08:28:47.000Z</time>
      </trkpt>
      <trkpt lat="47.8617" lon="2.20291">
        <ele>109</ele>
        <time>2016-10-30T08:28:48.000Z</time>
      </trkpt>
      <trkpt lat="47.86173" lon="2.20296">
        <ele>110</ele>
        <time>2016-10-30T08:28:49.000Z</time>
      </trkpt>
      <trkpt lat="47.86175" lon="2.20301">
        <ele>111</ele>
        <time>2016-10-30T08:28:50.000Z</time>
      </trkpt>
      <trkpt lat="47.86178" lon="2.20306">
        <ele>111</ele>
        <time>2016-10-30T08:28:51.000Z</time>
      </trkpt>
      <trkpt lat="47.86181" lon="2.20311">
        <ele>111</ele>
        <time>2016-10-30T08:28:52.000Z</time>
      </trkpt>
      <trkpt lat="47.86183" lon="2.20316">
        <ele>111</ele>
        <time>2016-10-30T08:28:53.000Z</time>
      </trkpt>
      <trkpt lat="47.86185" lon="2.20321">
        <ele>111</ele>
        <time>2016-10-30T08:28:54.000Z</time>
      </trkpt>
      <trkpt lat="47.86187" lon="2.20326">
        <ele>111</ele>
        <time>2016-10-30T08:28:55.000Z</time>
      </trkpt>
      <trkpt lat="47.8619" lon="2.20332">
        <ele>111</ele>
        <time>2016-10-30T08:28:56.000Z</time>
      </trkpt>
      <trkpt lat="47.86192" lon="2.20337">
        <ele>112</ele>
        <time>2016-10-30T08:28:57.000Z</time>
      </trkpt>
      <trkpt lat="47.86194" lon="2.20343">
        <ele>112</ele>
        <time>2016-10-30T08:28:58.000Z</time>
      </trkpt>
      <trkpt lat="47.86197" lon="2.20348">
        <ele>112</ele>
        <time>2016-10-30T08:28:59.000Z</time>
      </trkpt>
      <trkpt lat="47.86199" lon="2.20354">
        <ele>112</ele>
        <time>2016-10-30T08:29:00.000Z</time>
      </trkpt>
      <trkpt lat="47.86202" lon="2.20359">
        <ele>112</ele>
        <time>2016-10-30T08:29:01.000Z</time>
      </trkpt>
      <trkpt lat="47.86204" lon="2.20365">
        <ele>112</ele>
        <time>2016-10-30T08:29:02.000Z</time>
      </trkpt>
      <trkpt lat="47.86207" lon="2.2037">
        <ele>111</ele>
        <time>2016-10-30T08:29:03.000Z</time>
      </trkpt>
      <trkpt lat="47.86209" lon="2.20376">
        <ele>111</ele>
        <time>2016-10-30T08:29:04.000Z</time>
      </trkpt>
      <trkpt lat="47.86212" lon="2.20382">
        <ele>111</ele>
        <time>2016-10-30T08:29:05.000Z</time>
      </trkpt>
      <trkpt lat="47.86214" lon="2.20387">
        <ele>111</ele>
        <time>2016-10-30T08:29:06.000Z</time>
      </trkpt>
      <trkpt lat="47.86216" lon="2.20393">
        <ele>111</ele>
        <time>2016-10-30T08:29:07.000Z</time>
      </trkpt>
      <trkpt lat="47.86218" lon="2.20399">
        <ele>110</ele>
        <time>2016-10-30T08:29:08.000Z</time>
      </trkpt>
      <trkpt lat="47.8622" lon="2.20405">
        <ele>110</ele>
        <time>2016-10-30T08:29:09.000Z</time>
      </trkpt>
      <trkpt lat="47.86223" lon="2.2041">
        <ele>109</ele>
        <time>2016-10-30T08:29:10.000Z</time>
      </trkpt>
      <trkpt lat="47.86225" lon="2.20416">
        <ele>110</ele>
        <time>2016-10-30T08:29:11.000Z</time>
      </trkpt>
      <trkpt lat="47.86227" lon="2.20422">
        <ele>110</ele>
        <time>2016-10-30T08:29:12.000Z</time>
      </trkpt>
      <trkpt lat="47.8623" lon="2.20428">
        <ele>110</ele>
        <time>2016-10-30T08:29:13.000Z</time>
      </trkpt>
      <trkpt lat="47.86232" lon="2.20434">
        <ele>110</ele>
        <time>2016-10-30T08:29:14.000Z</time>
      </trkpt>
      <trkpt lat="47.86235" lon="2.20439">
        <ele>110</ele>
        <time>2016-10-30T08:29:15.000Z</time>
      </trkpt>
      <trkpt lat="47.86237" lon="2.20445">
        <ele>110</ele>
        <time>2016-10-30T08:29:16.000Z</time>
      </trkpt>
      <trkpt lat="47.86239" lon="2.20451">
        <ele>109</ele>
        <time>2016-10-30T08:29:17.000Z</time>
      </trkpt>
      <trkpt lat="47.86241" lon="2.20457">
        <ele>109</ele>
        <time>2016-10-30T08:29:18.000Z</time>
      </trkpt>
      <trkpt lat="47.86244" lon="2.20463">
        <ele>110</ele>
        <time>2016-10-30T08:29:19.000Z</time>
      </trkpt>
      <trkpt lat="47.86246" lon="2.20468">
        <ele>110</ele>
        <time>2016-10-30T08:29:20.000Z</time>
      </trkpt>
      <trkpt lat="47.86248" lon="2.20473">
        <ele>110</ele>
        <time>2016-10-30T08:29:21.000Z</time>
      </trkpt>
      <trkpt lat="47.8625" lon="2.20479">
        <ele>110</ele>
        <time>2016-10-30T08:29:22.000Z</time>
      </trkpt>
      <trkpt lat="47.86252" lon="2.20484">
        <ele>111</ele>
        <time>2016-10-30T08:29:23.000Z</time>
      </trkpt>
      <trkpt lat="47.86255" lon="2.2049">
        <ele>112</ele>
        <time>2016-10-30T08:29:24.000Z</time>
      </trkpt>
      <trkpt lat="47.86257" lon="2.20495">
        <ele>112</ele>
        <time>2016-10-30T08:29:25.000Z</time>
      </trkpt>
      <trkpt lat="47.8626" lon="2.20501">
        <ele>112</ele>
        <time>2016-10-30T08:29:26.000Z</time>
      </trkpt>
      <trkpt lat="47.86262" lon="2.20506">
        <ele>112</ele>
        <time>2016-10-30T08:29:27.000Z</time>
      </trkpt>
      <trkpt lat="47.86264" lon="2.20512">
        <ele>112</ele>
        <time>2016-10-30T08:29:28.000Z</time>
      </trkpt>
      <trkpt lat="47.86267" lon="2.20518">
        <ele>113</ele>
        <time>2016-10-30T08:29:29.000Z</time>
      </trkpt>
      <trkpt lat="47.8627" lon="2.20523">
        <ele>114</ele>
        <time>2016-10-30T08:29:30.000Z</time>
      </trkpt>
      <trkpt lat="47.86273" lon="2.20529">
        <ele>114</ele>
        <time>2016-10-30T08:29:31.000Z</time>
      </trkpt>
      <trkpt lat="47.86276" lon="2.20535">
        <ele>115</ele>
        <time>2016-10-30T08:29:32.000Z</time>
      </trkpt>
      <trkpt lat="47.86278" lon="2.20541">
        <ele>115</ele>
        <time>2016-10-30T08:29:33.000Z</time>
      </trkpt>
      <trkpt lat="47.86281" lon="2.20546">
        <ele>115</ele>
        <time>2016-10-30T08:29:34.000Z</time>
      </trkpt>
      <trkpt lat="47.86283" lon="2.20552">
        <ele>115</ele>
        <time>2016-10-30T08:29:35.000Z</time>
      </trkpt>
      <trkpt lat="47.86285" lon="2.20558">
        <ele>115</ele>
        <time>2016-10-30T08:29:36.000Z</time>
      </trkpt>
      <trkpt lat="47.86287" lon="2.20564">
        <ele>115</ele>
        <time>2016-10-30T08:29:37.000Z</time>
      </trkpt>
      <trkpt lat="47.86289" lon="2.20569">
        <ele>116</ele>
        <time>2016-10-30T08:29:38.000Z</time>
      </trkpt>
      <trkpt lat="47.86291" lon="2.20575">
        <ele>115</ele>
        <time>2016-10-30T08:29:39.000Z</time>
      </trkpt>
      <trkpt lat="47.86293" lon="2.20581">
        <ele>115</ele>
        <time>2016-10-30T08:29:40.000Z</time>
      </trkpt>
      <trkpt lat="47.86296" lon="2.20587">
        <ele>114</ele>
        <time>2016-10-30T08:29:41.000Z</time>
      </trkpt>
      <trkpt lat="47.86298" lon="2.20593">
        <ele>114</ele>
        <time>2016-10-30T08:29:42.000Z</time>
      </trkpt>
      <trkpt lat="47.863" lon="2.20598">
        <ele>113</ele>
        <time>2016-10-30T08:29:43.000Z</time>
      </trkpt>
      <trkpt lat="47.86302" lon="2.20604">
        <ele>113</ele>
        <time>2016-10-30T08:29:44.000Z</time>
      </trkpt>
      <trkpt lat="47.86304" lon="2.20609">
        <ele>113</ele>
        <time>2016-10-30T08:29:45.000Z</time>
      </trkpt>
      <trkpt lat="47.86306" lon="2.20615">
        <ele>113</ele>
        <time>2016-10-30T08:29:46.000Z</time>
      </trkpt>
      <trkpt lat="47.86308" lon="2.20621">
        <ele>114</ele>
        <time>2016-10-30T08:29:47.000Z</time>
      </trkpt>
      <trkpt lat="47.86311" lon="2.20626">
        <ele>113</ele>
        <time>2016-10-30T08:29:48.000Z</time>
      </trkpt>
      <trkpt lat="47.86313" lon="2.20632">
        <ele>113</ele>
        <time>2016-10-30T08:29:49.000Z</time>
      </trkpt>
      <trkpt lat="47.86316" lon="2.20638">
        <ele>113</ele>
        <time>2016-10-30T08:29:50.000Z</time>
      </trkpt>
      <trkpt lat="47.86319" lon="2.20644">
        <ele>114</ele>
        <time>2016-10-30T08:29:51.000Z</time>
      </trkpt>
      <trkpt lat="47.86322" lon="2.2065">
        <ele>114</ele>
        <time>2016-10-30T08:29:52.000Z</time>
      </trkpt>
      <trkpt lat="47.86324" lon="2.20656">
        <ele>115</ele>
        <time>2016-10-30T08:29:53.000Z</time>
      </trkpt>
      <trkpt lat="47.86327" lon="2.20662">
        <ele>115</ele>
        <time>2016-10-30T08:29:54.000Z</time>
      </trkpt>
      <trkpt lat="47.8633" lon="2.20669">
        <ele>115</ele>
        <time>2016-10-30T08:29:55.000Z</time>
      </trkpt>
      <trkpt lat="47.86332" lon="2.20675">
        <ele>115</ele>
        <time>2016-10-30T08:29:56.000Z</time>
      </trkpt>
      <trkpt lat="47.86335" lon="2.20681">
        <ele>115</ele>
        <time>2016-10-30T08:29:57.000Z</time>
      </trkpt>
      <trkpt lat="47.86337" lon="2.20687">
        <ele>115</ele>
        <time>2016-10-30T08:29:58.000Z</time>
      </trkpt>
      <trkpt lat="47.8634" lon="2.20693">
        <ele>115</ele>
        <time>2016-10-30T08:29:59.000Z</time>
      </trkpt>
      <trkpt lat="47.86343" lon="2.207">
        <ele>115</ele>
        <time>2016-10-30T08:30:00.000Z</time>
      </trkpt>
      <trkpt lat="47.86345" lon="2.20706">
        <ele>115</ele>
        <time>2016-10-30T08:30:01.000Z</time>
      </trkpt>
      <trkpt lat="47.86348" lon="2.20712">
        <ele>116</ele>
        <time>2016-10-30T08:30:02.000Z</time>
      </trkpt>
      <trkpt lat="47.86351" lon="2.20718">
        <ele>116</ele>
        <time>2016-10-30T08:30:03.000Z</time>
      </trkpt>
      <trkpt lat="47.86353" lon="2.20723">
        <ele>116</ele>
        <time>2016-10-30T08:30:04.000Z</time>
      </trkpt>
      <trkpt lat="47.86356" lon="2.20729">
        <ele>115</ele>
        <time>2016-10-30T08:30:05.000Z</time>
      </trkpt>
      <trkpt lat="47.86358" lon="2.20735">
        <ele>115</ele>
        <time>2016-10-30T08:30:06.000Z</time>
      </trkpt>
      <trkpt lat="47.86361" lon="2.20741">
        <ele>116</ele>
        <time>2016-10-30T08:30:07.000Z</time>
      </trkpt>
      <trkpt lat="47.86364" lon="2.20747">
        <ele>116</ele>
        <time>2016-10-30T08:30:08.000Z</time>
      </trkpt>
      <trkpt lat="47.86366" lon="2.20753">
        <ele>116</ele>
        <time>2016-10-30T08:30:09.000Z</time>
      </trkpt>
      <trkpt lat="47.86369" lon="2.20758">
        <ele>116</ele>
        <time>2016-10-30T08:30:10.000Z</time>
      </trkpt>
      <trkpt lat="47.86371" lon="2.20764">
        <ele>115</ele>
        <time>2016-10-30T08:30:11.000Z</time>
      </trkpt>
      <trkpt lat="47.86374" lon="2.2077">
        <ele>115</ele>
        <time>2016-10-30T08:30:12.000Z</time>
      </trkpt>
      <trkpt lat="47.86376" lon="2.20776">
        <ele>115</ele>
        <time>2016-10-30T08:30:13.000Z</time>
      </trkpt>
      <trkpt lat="47.86378" lon="2.20782">
        <ele>115</ele>
        <time>2016-10-30T08:30:14.000Z</time>
      </trkpt>
      <trkpt lat="47.86381" lon="2.20788">
        <ele>115</ele>
        <time>2016-10-30T08:30:15.000Z</time>
      </trkpt>
      <trkpt lat="47.86383" lon="2.20794">
        <ele>114</ele>
        <time>2016-10-30T08:30:16.000Z</time>
      </trkpt>
      <trkpt lat="47.86386" lon="2.208">
        <ele>115</ele>
        <time>2016-10-30T08:30:17.000Z</time>
      </trkpt>
      <trkpt lat="47.86388" lon="2.20806">
        <ele>114</ele>
        <time>2016-10-30T08:30:18.000Z</time>
      </trkpt>
      <trkpt lat="47.86391" lon="2.20812">
        <ele>114</ele>
        <time>2016-10-30T08:30:19.000Z</time>
      </trkpt>
      <trkpt lat="47.86393" lon="2.20817">
        <ele>114</ele>
        <time>2016-10-30T08:30:20.000Z</time>
      </trkpt>
      <trkpt lat="47.86396" lon="2.20822">
        <ele>114</ele>
        <time>2016-10-30T08:30:21.000Z</time>
      </trkpt>
      <trkpt lat="47.86398" lon="2.20828">
        <ele>114</ele>
        <time>2016-10-30T08:30:22.000Z</time>
      </trkpt>
      <trkpt lat="47.864" lon="2.20834">
        <ele>114</ele>
        <time>2016-10-30T08:30:23.000Z</time>
      </trkpt>
      <trkpt lat="47.86403" lon="2.2084">
        <ele>114</ele>
        <time>2016-10-30T08:30:24.000Z</time>
      </trkpt>
      <trkpt lat="47.86405" lon="2.20845">
        <ele>114</ele>
        <time>2016-10-30T08:30:25.000Z</time>
      </trkpt>
      <trkpt lat="47.86408" lon="2.20851">
        <ele>113</ele>
        <time>2016-10-30T08:30:26.000Z</time>
      </trkpt>
      <trkpt lat="47.8641" lon="2.20857">
        <ele>113</ele>
        <time>2016-10-30T08:30:27.000Z</time>
      </trkpt>
      <trkpt lat="47.86412" lon="2.20863">
        <ele>113</ele>
        <time>2016-10-30T08:30:28.000Z</time>
      </trkpt>
      <trkpt lat="47.86415" lon="2.20869">
        <ele>113</ele>
        <time>2016-10-30T08:30:29.000Z</time>
      </trkpt>
      <trkpt lat="47.86417" lon="2.20875">
        <ele>113</ele>
        <time>2016-10-30T08:30:30.000Z</time>
      </trkpt>
      <trkpt lat="47.8642" lon="2.2088">
        <ele>114</ele>
        <time>2016-10-30T08:30:31.000Z</time>
      </trkpt>
      <trkpt lat="47.86423" lon="2.20886">
        <ele>114</ele>
        <time>2016-10-30T08:30:32.000Z</time>
      </trkpt>
      <trkpt lat="47.86425" lon="2.20892">
        <ele>114</ele>
        <time>2016-10-30T08:30:33.000Z</time>
      </trkpt>
      <trkpt lat="47.86428" lon="2.20897">
        <ele>115</ele>
        <time>2016-10-30T08:30:34.000Z</time>
      </trkpt>
      <trkpt lat="47.8643" lon="2.20903">
        <ele>115</ele>
        <time>2016-10-30T08:30:35.000Z</time>
      </trkpt>
      <trkpt lat="47.86433" lon="2.20909">
        <ele>115</ele>
        <time>2016-10-30T08:30:36.000Z</time>
      </trkpt>
      <trkpt lat="47.86435" lon="2.20915">
        <ele>115</ele>
        <time>2016-10-30T08:30:37.000Z</time>
      </trkpt>
      <trkpt lat="47.86437" lon="2.20921">
        <ele>115</ele>
        <time>2016-10-30T08:30:38.000Z</time>
      </trkpt>
      <trkpt lat="47.86439" lon="2.20926">
        <ele>115</ele>
        <time>2016-10-30T08:30:39.000Z</time>
      </trkpt>
      <trkpt lat="47.86442" lon="2.20932">
        <ele>116</ele>
        <time>2016-10-30T08:30:40.000Z</time>
      </trkpt>
      <trkpt lat="47.86444" lon="2.20938">
        <ele>116</ele>
        <time>2016-10-30T08:30:41.000Z</time>
      </trkpt>
      <trkpt lat="47.86446" lon="2.20944">
        <ele>116</ele>
        <time>2016-10-30T08:30:42.000Z</time>
      </trkpt>
      <trkpt lat="47.86447" lon="2.2095">
        <ele>116</ele>
        <time>2016-10-30T08:30:43.000Z</time>
      </trkpt>
      <trkpt lat="47.86449" lon="2.20955">
        <ele>117</ele>
        <time>2016-10-30T08:30:44.000Z</time>
      </trkpt>
      <trkpt lat="47.8645" lon="2.20961">
        <ele>117</ele>
        <time>2016-10-30T08:30:45.000Z</time>
      </trkpt>
      <trkpt lat="47.86452" lon="2.20967">
        <ele>117</ele>
        <time>2016-10-30T08:30:46.000Z</time>
      </trkpt>
      <trkpt lat="47.86453" lon="2.20973">
        <ele>118</ele>
        <time>2016-10-30T08:30:47.000Z</time>
      </trkpt>
      <trkpt lat="47.86455" lon="2.20979">
        <ele>118</ele>
        <time>2016-10-30T08:30:48.000Z</time>
      </trkpt>
      <trkpt lat="47.86456" lon="2.20985">
        <ele>118</ele>
        <time>2016-10-30T08:30:49.000Z</time>
      </trkpt>
      <trkpt lat="47.86457" lon="2.20991">
        <ele>118</ele>
        <time>2016-10-30T08:30:50.000Z</time>
      </trkpt>
      <trkpt lat="47.86458" lon="2.20997">
        <ele>118</ele>
        <time>2016-10-30T08:30:51.000Z</time>
      </trkpt>
      <trkpt lat="47.86459" lon="2.21004">
        <ele>118</ele>
        <time>2016-10-30T08:30:52.000Z</time>
      </trkpt>
      <trkpt lat="47.86461" lon="2.21009">
        <ele>118</ele>
        <time>2016-10-30T08:30:53.000Z</time>
      </trkpt>
      <trkpt lat="47.86462" lon="2.21015">
        <ele>118</ele>
        <time>2016-10-30T08:30:54.000Z</time>
      </trkpt>
      <trkpt lat="47.86463" lon="2.2102">
        <ele>118</ele>
        <time>2016-10-30T08:30:55.000Z</time>
      </trkpt>
      <trkpt lat="47.86464" lon="2.21026">
        <ele>118</ele>
        <time>2016-10-30T08:30:56.000Z</time>
      </trkpt>
      <trkpt lat="47.86465" lon="2.21031">
        <ele>118</ele>
        <time>2016-10-30T08:30:57.000Z</time>
      </trkpt>
      <trkpt lat="47.86466" lon="2.21037">
        <ele>118</ele>
        <time>2016-10-30T08:30:58.000Z</time>
      </trkpt>
      <trkpt lat="47.86467" lon="2.21042">
        <ele>118</ele>
        <time>2016-10-30T08:30:59.000Z</time>
      </trkpt>
      <trkpt lat="47.86468" lon="2.21047">
        <ele>119</ele>
        <time>2016-10-30T08:31:00.000Z</time>
      </trkpt>
      <trkpt lat="47.86469" lon="2.21052">
        <ele>119</ele>
        <time>2016-10-30T08:31:01.000Z</time>
      </trkpt>
      <trkpt lat="47.86469" lon="2.21056">
        <ele>118</ele>
        <time>2016-10-30T08:31:02.000Z</time>
      </trkpt>
      <trkpt lat="47.8647" lon="2.2106">
        <ele>119</ele>
        <time>2016-10-30T08:31:03.000Z</time>
      </trkpt>
      <trkpt lat="47.86471" lon="2.21064">
        <ele>119</ele>
        <time>2016-10-30T08:31:04.000Z</time>
      </trkpt>
      <trkpt lat="47.86471" lon="2.21067">
        <ele>118</ele>
        <time>2016-10-30T08:31:05.000Z</time>
      </trkpt>
      <trkpt lat="47.86471" lon="2.2107">
        <ele>119</ele>
        <time>2016-10-30T08:31:06.000Z</time>
      </trkpt>
      <trkpt lat="47.86472" lon="2.21073">
        <ele>118</ele>
        <time>2016-10-30T08:31:07.000Z</time>
      </trkpt>
      <trkpt lat="47.86472" lon="2.21076">
        <ele>118</ele>
        <time>2016-10-30T08:31:08.000Z</time>
      </trkpt>
      <trkpt lat="47.86473" lon="2.21079">
        <ele>118</ele>
        <time>2016-10-30T08:31:09.000Z</time>
      </trkpt>
      <trkpt lat="47.86473" lon="2.21082">
        <ele>117</ele>
        <time>2016-10-30T08:31:10.000Z</time>
      </trkpt>
      <trkpt lat="47.86473" lon="2.21085">
        <ele>117</ele>
        <time>2016-10-30T08:31:11.000Z</time>
      </trkpt>
      <trkpt lat="47.86474" lon="2.21087">
        <ele>118</ele>
        <time>2016-10-30T08:31:12.000Z</time>
      </trkpt>
      <trkpt lat="47.86476" lon="2.21089">
        <ele>119</ele>
        <time>2016-10-30T08:31:13.000Z</time>
      </trkpt>
      <trkpt lat="47.86477" lon="2.2109">
        <ele>119</ele>
        <time>2016-10-30T08:31:14.000Z</time>
      </trkpt>
      <trkpt lat="47.86478" lon="2.2109">
        <ele>118</ele>
        <time>2016-10-30T08:31:15.000Z</time>
      </trkpt>
      <trkpt lat="47.86479" lon="2.21091">
        <ele>117</ele>
        <time>2016-10-30T08:31:16.000Z</time>
      </trkpt>
      <trkpt lat="47.86479" lon="2.21092">
        <ele>118</ele>
        <time>2016-10-30T08:31:17.000Z</time>
      </trkpt>
      <trkpt lat="47.8648" lon="2.21093">
        <ele>118</ele>
        <time>2016-10-30T08:31:18.000Z</time>
      </trkpt>
      <trkpt lat="47.8648" lon="2.21094">
        <ele>118</ele>
        <time>2016-10-30T08:31:19.000Z</time>
      </trkpt>
      <trkpt lat="47.86481" lon="2.21095">
        <ele>118</ele>
        <time>2016-10-30T08:31:20.000Z</time>
      </trkpt>
      <trkpt lat="47.86481" lon="2.21095">
        <ele>118</ele>
        <time>2016-10-30T08:31:21.000Z</time>
      </trkpt>
      <trkpt lat="47.86481" lon="2.21095">
        <ele>118</ele>
        <time>2016-10-30T08:31:22.000Z</time>
      </trkpt>
      <trkpt lat="47.86482" lon="2.21095">
        <ele>118</ele>
        <time>2016-10-30T08:31:23.000Z</time>
      </trkpt>
      <trkpt lat="47.86483" lon="2.21095">
        <ele>118</ele>
        <time>2016-10-30T08:31:24.000Z</time>
      </trkpt>
      <trkpt lat="47.86485" lon="2.21094">
        <ele>118</ele>
        <time>2016-10-30T08:31:25.000Z</time>
      </trkpt>
      <trkpt lat="47.86488" lon="2.21092">
        <ele>118</ele>
        <time>2016-10-30T08:31:26.000Z</time>
      </trkpt>
      <trkpt lat="47.8649" lon="2.2109">
        <ele>118</ele>
        <time>2016-10-30T08:31:27.000Z</time>
      </trkpt>
      <trkpt lat="47.86493" lon="2.21087">
        <ele>119</ele>
        <time>2016-10-30T08:31:28.000Z</time>
      </trkpt>
      <trkpt lat="47.86496" lon="2.21084">
        <ele>119</ele>
        <time>2016-10-30T08:31:29.000Z</time>
      </trkpt>
      <trkpt lat="47.865" lon="2.21081">
        <ele>120</ele>
        <time>2016-10-30T08:31:30.000Z</time>
      </trkpt>
      <trkpt lat="47.86503" lon="2.21078">
        <ele>120</ele>
        <time>2016-10-30T08:31:31.000Z</time>
      </trkpt>
      <trkpt lat="47.86507" lon="2.21076">
        <ele>121</ele>
        <time>2016-10-30T08:31:32.000Z</time>
      </trkpt>
      <trkpt lat="47.86511" lon="2.21075">
        <ele>122</ele>
        <time>2016-10-30T08:31:33.000Z</time>
      </trkpt>
      <trkpt lat="47.86514" lon="2.21073">
        <ele>123</ele>
        <time>2016-10-30T08:31:34.000Z</time>
      </trkpt>
      <trkpt lat="47.86518" lon="2.21071">
        <ele>123</ele>
        <time>2016-10-30T08:31:35.000Z</time>
      </trkpt>
      <trkpt lat="47.86522" lon="2.2107">
        <ele>123</ele>
        <time>2016-10-30T08:31:36.000Z</time>
      </trkpt>
      <trkpt lat="47.86526" lon="2.21068">
        <ele>124</ele>
        <time>2016-10-30T08:31:37.000Z</time>
      </trkpt>
      <trkpt lat="47.8653" lon="2.21067">
        <ele>124</ele>
        <time>2016-10-30T08:31:38.000Z</time>
      </trkpt>
      <trkpt lat="47.86534" lon="2.21065">
        <ele>125</ele>
        <time>2016-10-30T08:31:39.000Z</time>
      </trkpt>
      <trkpt lat="47.86538" lon="2.21063">
        <ele>126</ele>
        <time>2016-10-30T08:31:40.000Z</time>
      </trkpt>
      <trkpt lat="47.86542" lon="2.21062">
        <ele>126</ele>
        <time>2016-10-30T08:31:41.000Z</time>
      </trkpt>
      <trkpt lat="47.86547" lon="2.2106">
        <ele>125</ele>
        <time>2016-10-30T08:31:42.000Z</time>
      </trkpt>
      <trkpt lat="47.86551" lon="2.21059">
        <ele>125</ele>
        <time>2016-10-30T08:31:43.000Z</time>
      </trkpt>
      <trkpt lat="47.86555" lon="2.21057">
        <ele>125</ele>
        <time>2016-10-30T08:31:44.000Z</time>
      </trkpt>
      <trkpt lat="47.8656" lon="2.21056">
        <ele>125</ele>
        <time>2016-10-30T08:31:45.000Z</time>
      </trkpt>
      <trkpt lat="47.86564" lon="2.21055">
        <ele>125</ele>
        <time>2016-10-30T08:31:46.000Z</time>
      </trkpt>
      <trkpt lat="47.86569" lon="2.21053">
        <ele>124</ele>
        <time>2016-10-30T08:31:47.000Z</time>
      </trkpt>
      <trkpt lat="47.86574" lon="2.21052">
        <ele>125</ele>
        <time>2016-10-30T08:31:48.000Z</time>
      </trkpt>
      <trkpt lat="47.86578" lon="2.2105">
        <ele>126</ele>
        <time>2016-10-30T08:31:49.000Z</time>
      </trkpt>
      <trkpt lat="47.86583" lon="2.21049">
        <ele>126</ele>
        <time>2016-10-30T08:31:50.000Z</time>
      </trkpt>
      <trkpt lat="47.86587" lon="2.21047">
        <ele>125</ele>
        <time>2016-10-30T08:31:51.000Z</time>
      </trkpt>
      <trkpt lat="47.86591" lon="2.21046">
        <ele>125</ele>
        <time>2016-10-30T08:31:52.000Z</time>
      </trkpt>
      <trkpt lat="47.86596" lon="2.21044">
        <ele>125</ele>
        <time>2016-10-30T08:31:53.000Z</time>
      </trkpt>
      <trkpt lat="47.866" lon="2.21042">
        <ele>125</ele>
        <time>2016-10-30T08:31:54.000Z</time>
      </trkpt>
      <trkpt lat="47.86605" lon="2.21041">
        <ele>125</ele>
        <time>2016-10-30T08:31:55.000Z</time>
      </trkpt>
      <trkpt lat="47.86609" lon="2.21039">
        <ele>124</ele>
        <time>2016-10-30T08:31:56.000Z</time>
      </trkpt>
      <trkpt lat="47.86614" lon="2.21036">
        <ele>124</ele>
        <time>2016-10-30T08:31:57.000Z</time>
      </trkpt>
      <trkpt lat="47.86619" lon="2.21034">
        <ele>123</ele>
        <time>2016-10-30T08:31:58.000Z</time>
      </trkpt>
      <trkpt lat="47.86623" lon="2.21031">
        <ele>123</ele>
        <time>2016-10-30T08:31:59.000Z</time>
      </trkpt>
      <trkpt lat="47.86627" lon="2.21028">
        <ele>123</ele>
        <time>2016-10-30T08:32:00.000Z</time>
      </trkpt>
      <trkpt lat="47.86631" lon="2.21025">
        <ele>123</ele>
        <time>2016-10-30T08:32:01.000Z</time>
      </trkpt>
      <trkpt lat="47.86635" lon="2.21021">
        <ele>123</ele>
        <time>2016-10-30T08:32:02.000Z</time>
      </trkpt>
      <trkpt lat="47.86638" lon="2.21017">
        <ele>123</ele>
        <time>2016-10-30T08:32:03.000Z</time>
      </trkpt>
      <trkpt lat="47.86642" lon="2.21013">
        <ele>123</ele>
        <time>2016-10-30T08:32:04.000Z</time>
      </trkpt>
      <trkpt lat="47.86646" lon="2.21008">
        <ele>122</ele>
        <time>2016-10-30T08:32:05.000Z</time>
      </trkpt>
      <trkpt lat="47.8665" lon="2.21004">
        <ele>123</ele>
        <time>2016-10-30T08:32:06.000Z</time>
      </trkpt>
      <trkpt lat="47.86653" lon="2.20999">
        <ele>122</ele>
        <time>2016-10-30T08:32:07.000Z</time>
      </trkpt>
      <trkpt lat="47.86657" lon="2.20994">
        <ele>122</ele>
        <time>2016-10-30T08:32:08.000Z</time>
      </trkpt>
      <trkpt lat="47.86661" lon="2.20989">
        <ele>122</ele>
        <time>2016-10-30T08:32:09.000Z</time>
      </trkpt>
      <trkpt lat="47.86664" lon="2.20984">
        <ele>122</ele>
        <time>2016-10-30T08:32:10.000Z</time>
      </trkpt>
      <trkpt lat="47.86668" lon="2.20979">
        <ele>122</ele>
        <time>2016-10-30T08:32:11.000Z</time>
      </trkpt>
      <trkpt lat="47.86671" lon="2.20974">
        <ele>122</ele>
        <time>2016-10-30T08:32:12.000Z</time>
      </trkpt>
      <trkpt lat="47.86675" lon="2.20969">
        <ele>121</ele>
        <time>2016-10-30T08:32:13.000Z</time>
      </trkpt>
      <trkpt lat="47.86678" lon="2.20964">
        <ele>121</ele>
        <time>2016-10-30T08:32:14.000Z</time>
      </trkpt>
      <trkpt lat="47.86682" lon="2.20959">
        <ele>121</ele>
        <time>2016-10-30T08:32:15.000Z</time>
      </trkpt>
      <trkpt lat="47.86686" lon="2.20954">
        <ele>121</ele>
        <time>2016-10-30T08:32:16.000Z</time>
      </trkpt>
      <trkpt lat="47.86689" lon="2.20949">
        <ele>121</ele>
        <time>2016-10-30T08:32:17.000Z</time>
      </trkpt>
      <trkpt lat="47.86693" lon="2.20944">
        <ele>122</ele>
        <time>2016-10-30T08:32:18.000Z</time>
      </trkpt>
      <trkpt lat="47.86697" lon="2.20939">
        <ele>122</ele>
        <time>2016-10-30T08:32:19.000Z</time>
      </trkpt>
      <trkpt lat="47.867" lon="2.20934">
        <ele>122</ele>
        <time>2016-10-30T08:32:20.000Z</time>
      </trkpt>
      <trkpt lat="47.86704" lon="2.20929">
        <ele>122</ele>
        <time>2016-10-30T08:32:21.000Z</time>
      </trkpt>
      <trkpt lat="47.86708" lon="2.20923">
        <ele>122</ele>
        <time>2016-10-30T08:32:22.000Z</time>
      </trkpt>
      <trkpt lat="47.86711" lon="2.20918">
        <ele>122</ele>
        <time>2016-10-30T08:32:23.000Z</time>
      </trkpt>
      <trkpt lat="47.86715" lon="2.20913">
        <ele>122</ele>
        <time>2016-10-30T08:32:24.000Z</time>
      </trkpt>
      <trkpt lat="47.86718" lon="2.20907">
        <ele>122</ele>
        <time>2016-10-30T08:32:25.000Z</time>
      </trkpt>
      <trkpt lat="47.86722" lon="2.20902">
        <ele>122</ele>
        <time>2016-10-30T08:32:26.000Z</time>
      </trkpt>
      <trkpt lat="47.86725" lon="2.20896">
        <ele>122</ele>
        <time>2016-10-30T08:32:27.000Z</time>
      </trkpt>
      <trkpt lat="47.86729" lon="2.20891">
        <ele>122</ele>
        <time>2016-10-30T08:32:28.000Z</time>
      </trkpt>
      <trkpt lat="47.86732" lon="2.20886">
        <ele>122</ele>
        <time>2016-10-30T08:32:29.000Z</time>
      </trkpt>
      <trkpt lat="47.86736" lon="2.2088">
        <ele>122</ele>
        <time>2016-10-30T08:32:30.000Z</time>
      </trkpt>
      <trkpt lat="47.86739" lon="2.20875">
        <ele>122</ele>
        <time>2016-10-30T08:32:31.000Z</time>
      </trkpt>
      <trkpt lat="47.86743" lon="2.20869">
        <ele>122</ele>
        <time>2016-10-30T08:32:32.000Z</time>
      </trkpt>
      <trkpt lat="47.86746" lon="2.20863">
        <ele>122</ele>
        <time>2016-10-30T08:32:33.000Z</time>
      </trkpt>
      <trkpt lat="47.8675" lon="2.20857">
        <ele>122</ele>
        <time>2016-10-30T08:32:34.000Z</time>
      </trkpt>
      <trkpt lat="47.86753" lon="2.20852">
        <ele>122</ele>
        <time>2016-10-30T08:32:35.000Z</time>
      </trkpt>
      <trkpt lat="47.86757" lon="2.20846">
        <ele>122</ele>
        <time>2016-10-30T08:32:36.000Z</time>
      </trkpt>
      <trkpt lat="47.86761" lon="2.2084">
        <ele>122</ele>
        <time>2016-10-30T08:32:37.000Z</time>
      </trkpt>
      <trkpt lat="47.86764" lon="2.20834">
        <ele>122</ele>
        <time>2016-10-30T08:32:38.000Z</time>
      </trkpt>
      <trkpt lat="47.86768" lon="2.20828">
        <ele>122</ele>
        <time>2016-10-30T08:32:39.000Z</time>
      </trkpt>
      <trkpt lat="47.86772" lon="2.20822">
        <ele>123</ele>
        <time>2016-10-30T08:32:40.000Z</time>
      </trkpt>
      <trkpt lat="47.86776" lon="2.20816">
        <ele>122</ele>
        <time>2016-10-30T08:32:41.000Z</time>
      </trkpt>
      <trkpt lat="47.86779" lon="2.2081">
        <ele>122</ele>
        <time>2016-10-30T08:32:42.000Z</time>
      </trkpt>
      <trkpt lat="47.86783" lon="2.20804">
        <ele>122</ele>
        <time>2016-10-30T08:32:43.000Z</time>
      </trkpt>
      <trkpt lat="47.86786" lon="2.20798">
        <ele>122</ele>
        <time>2016-10-30T08:32:44.000Z</time>
      </trkpt>
      <trkpt lat="47.8679" lon="2.20792">
        <ele>122</ele>
        <time>2016-10-30T08:32:45.000Z</time>
      </trkpt>
      <trkpt lat="47.86794" lon="2.20786">
        <ele>122</ele>
        <time>2016-10-30T08:32:46.000Z</time>
      </trkpt>
      <trkpt lat="47.86797" lon="2.2078">
        <ele>122</ele>
        <time>2016-10-30T08:32:47.000Z</time>
      </trkpt>
      <trkpt lat="47.86801" lon="2.20774">
        <ele>122</ele>
        <time>2016-10-30T08:32:48.000Z</time>
      </trkpt>
      <trkpt lat="47.86805" lon="2.20768">
        <ele>122</ele>
        <time>2016-10-30T08:32:49.000Z</time>
      </trkpt>
      <trkpt lat="47.86809" lon="2.20762">
        <ele>122</ele>
        <time>2016-10-30T08:32:50.000Z</time>
      </trkpt>
      <trkpt lat="47.86812" lon="2.20756">
        <ele>122</ele>
        <time>2016-10-30T08:32:51.000Z</time>
      </trkpt>
      <trkpt lat="47.86816" lon="2.20749">
        <ele>122</ele>
        <time>2016-10-30T08:32:52.000Z</time>
      </trkpt>
      <trkpt lat="47.86819" lon="2.20743">
        <ele>122</ele>
        <time>2016-10-30T08:32:53.000Z</time>
      </trkpt>
      <trkpt lat="47.86823" lon="2.20737">
        <ele>122</ele>
        <time>2016-10-30T08:32:54.000Z</time>
      </trkpt>
      <trkpt lat="47.86826" lon="2.20731">
        <ele>122</ele>
        <time>2016-10-30T08:32:55.000Z</time>
      </trkpt>
      <trkpt lat="47.8683" lon="2.20724">
        <ele>122</ele>
        <time>2016-10-30T08:32:56.000Z</time>
      </trkpt>
      <trkpt lat="47.86833" lon="2.20718">
        <ele>122</ele>
        <time>2016-10-30T08:32:57.000Z</time>
      </trkpt>
      <trkpt lat="47.86836" lon="2.20713">
        <ele>121</ele>
        <time>2016-10-30T08:32:58.000Z</time>
      </trkpt>
      <trkpt lat="47.8684" lon="2.20707">
        <ele>122</ele>
        <time>2016-10-30T08:32:59.000Z</time>
      </trkpt>
      <trkpt lat="47.86843" lon="2.20701">
        <ele>122</ele>
        <time>2016-10-30T08:33:00.000Z</time>
      </trkpt>
      <trkpt lat="47.86846" lon="2.20695">
        <ele>121</ele>
        <time>2016-10-30T08:33:01.000Z</time>
      </trkpt>
      <trkpt lat="47.8685" lon="2.20689">
        <ele>121</ele>
        <time>2016-10-30T08:33:02.000Z</time>
      </trkpt>
      <trkpt lat="47.86853" lon="2.20683">
        <ele>121</ele>
        <time>2016-10-30T08:33:03.000Z</time>
      </trkpt>
      <trkpt lat="47.86856" lon="2.20677">
        <ele>121</ele>
        <time>2016-10-30T08:33:04.000Z</time>
      </trkpt>
      <trkpt lat="47.8686" lon="2.2067">
        <ele>121</ele>
        <time>2016-10-30T08:33:05.000Z</time>
      </trkpt>
      <trkpt lat="47.86863" lon="2.20664">
        <ele>120</ele>
        <time>2016-10-30T08:33:06.000Z</time>
      </trkpt>
      <trkpt lat="47.86866" lon="2.20658">
        <ele>120</ele>
        <time>2016-10-30T08:33:07.000Z</time>
      </trkpt>
      <trkpt lat="47.8687" lon="2.20651">
        <ele>120</ele>
        <time>2016-10-30T08:33:08.000Z</time>
      </trkpt>
      <trkpt lat="47.86873" lon="2.20645">
        <ele>120</ele>
        <time>2016-10-30T08:33:09.000Z</time>
      </trkpt>
      <trkpt lat="47.86877" lon="2.20639">
        <ele>120</ele>
        <time>2016-10-30T08:33:10.000Z</time>
      </trkpt>
      <trkpt lat="47.8688" lon="2.20632">
        <ele>120</ele>
        <time>2016-10-30T08:33:11.000Z</time>
      </trkpt>
      <trkpt lat="47.86884" lon="2.20626">
        <ele>120</ele>
        <time>2016-10-30T08:33:12.000Z</time>
      </trkpt>
      <trkpt lat="47.86887" lon="2.2062">
        <ele>120</ele>
        <time>2016-10-30T08:33:13.000Z</time>
      </trkpt>
      <trkpt lat="47.8689" lon="2.20614">
        <ele>120</ele>
        <time>2016-10-30T08:33:14.000Z</time>
      </trkpt>
      <trkpt lat="47.86894" lon="2.20608">
        <ele>120</ele>
        <time>2016-10-30T08:33:15.000Z</time>
      </trkpt>
      <trkpt lat="47.86897" lon="2.20602">
        <ele>120</ele>
        <time>2016-10-30T08:33:16.000Z</time>
      </trkpt>
      <trkpt lat="47.86901" lon="2.20595">
        <ele>120</ele>
        <time>2016-10-30T08:33:17.000Z</time>
      </trkpt>
      <trkpt lat="47.86904" lon="2.20589">
        <ele>120</ele>
        <time>2016-10-30T08:33:18.000Z</time>
      </trkpt>
      <trkpt lat="47.86908" lon="2.20582">
        <ele>120</ele>
        <time>2016-10-30T08:33:19.000Z</time>
      </trkpt>
      <trkpt lat="47.86911" lon="2.20576">
        <ele>120</ele>
        <time>2016-10-30T08:33:20.000Z</time>
      </trkpt>
      <trkpt lat="47.86915" lon="2.2057">
        <ele>120</ele>
        <time>2016-10-30T08:33:21.000Z</time>
      </trkpt>
      <trkpt lat="47.86919" lon="2.20563">
        <ele>120</ele>
        <time>2016-10-30T08:33:22.000Z</time>
      </trkpt>
      <trkpt lat="47.86922" lon="2.20557">
        <ele>120</ele>
        <time>2016-10-30T08:33:23.000Z</time>
      </trkpt>
      <trkpt lat="47.86925" lon="2.2055">
        <ele>120</ele>
        <time>2016-10-30T08:33:24.000Z</time>
      </trkpt>
      <trkpt lat="47.86929" lon="2.20544">
        <ele>120</ele>
        <time>2016-10-30T08:33:25.000Z</time>
      </trkpt>
      <trkpt lat="47.86932" lon="2.20537">
        <ele>120</ele>
        <time>2016-10-30T08:33:26.000Z</time>
      </trkpt>
      <trkpt lat="47.86936" lon="2.20531">
        <ele>120</ele>
        <time>2016-10-30T08:33:27.000Z</time>
      </trkpt>
      <trkpt lat="47.86936" lon="2.20531">
        <ele>120</ele>
        <time>2016-10-30T08:33:28.000Z</time>
      </trkpt>
      <trkpt lat="47.8694" lon="2.20522">
        <ele>120</ele>
        <time>2016-10-30T08:33:29.000Z</time>
      </trkpt>
      <trkpt lat="47.8694" lon="2.20522">
        <ele>120</ele>
        <time>2016-10-30T08:33:30.000Z</time>
      </trkpt>
      <trkpt lat="47.86946" lon="2.20512">
        <ele>120</ele>
        <time>2016-10-30T08:33:31.000Z</time>
      </trkpt>
      <trkpt lat="47.86951" lon="2.20503">
        <ele>120</ele>
        <time>2016-10-30T08:33:32.000Z</time>
      </trkpt>
      <trkpt lat="47.86955" lon="2.20495">
        <ele>120</ele>
        <time>2016-10-30T08:33:33.000Z</time>
      </trkpt>
      <trkpt lat="47.86958" lon="2.20489">
        <ele>120</ele>
        <time>2016-10-30T08:33:34.000Z</time>
      </trkpt>
      <trkpt lat="47.86962" lon="2.20484">
        <ele>120</ele>
        <time>2016-10-30T08:33:35.000Z</time>
      </trkpt>
      <trkpt lat="47.86965" lon="2.20478">
        <ele>120</ele>
        <time>2016-10-30T08:33:36.000Z</time>
      </trkpt>
      <trkpt lat="47.86968" lon="2.20473">
        <ele>121</ele>
        <time>2016-10-30T08:33:37.000Z</time>
      </trkpt>
      <trkpt lat="47.86971" lon="2.20468">
        <ele>121</ele>
        <time>2016-10-30T08:33:38.000Z</time>
      </trkpt>
      <trkpt lat="47.86973" lon="2.20463">
        <ele>121</ele>
        <time>2016-10-30T08:33:39.000Z</time>
      </trkpt>
      <trkpt lat="47.86976" lon="2.20459">
        <ele>121</ele>
        <time>2016-10-30T08:33:40.000Z</time>
      </trkpt>
      <trkpt lat="47.86979" lon="2.20454">
        <ele>121</ele>
        <time>2016-10-30T08:33:41.000Z</time>
      </trkpt>
      <trkpt lat="47.86981" lon="2.20449">
        <ele>122</ele>
        <time>2016-10-30T08:33:42.000Z</time>
      </trkpt>
      <trkpt lat="47.86983" lon="2.20443">
        <ele>122</ele>
        <time>2016-10-30T08:33:43.000Z</time>
      </trkpt>
      <trkpt lat="47.86984" lon="2.20437">
        <ele>122</ele>
        <time>2016-10-30T08:33:44.000Z</time>
      </trkpt>
      <trkpt lat="47.86985" lon="2.20431">
        <ele>121</ele>
        <time>2016-10-30T08:33:45.000Z</time>
      </trkpt>
      <trkpt lat="47.86984" lon="2.20424">
        <ele>120</ele>
        <time>2016-10-30T08:33:46.000Z</time>
      </trkpt>
      <trkpt lat="47.86983" lon="2.20418">
        <ele>120</ele>
        <time>2016-10-30T08:33:47.000Z</time>
      </trkpt>
      <trkpt lat="47.86981" lon="2.20411">
        <ele>120</ele>
        <time>2016-10-30T08:33:48.000Z</time>
      </trkpt>
      <trkpt lat="47.86979" lon="2.20405">
        <ele>120</ele>
        <time>2016-10-30T08:33:49.000Z</time>
      </trkpt>
      <trkpt lat="47.86977" lon="2.20398">
        <ele>120</ele>
        <time>2016-10-30T08:33:50.000Z</time>
      </trkpt>
      <trkpt lat="47.86975" lon="2.20391">
        <ele>120</ele>
        <time>2016-10-30T08:33:51.000Z</time>
      </trkpt>
      <trkpt lat="47.86974" lon="2.20384">
        <ele>120</ele>
        <time>2016-10-30T08:33:52.000Z</time>
      </trkpt>
      <trkpt lat="47.86972" lon="2.20377">
        <ele>120</ele>
        <time>2016-10-30T08:33:53.000Z</time>
      </trkpt>
      <trkpt lat="47.8697" lon="2.2037">
        <ele>119</ele>
        <time>2016-10-30T08:33:54.000Z</time>
      </trkpt>
      <trkpt lat="47.86969" lon="2.20363">
        <ele>119</ele>
        <time>2016-10-30T08:33:55.000Z</time>
      </trkpt>
      <trkpt lat="47.86967" lon="2.20356">
        <ele>119</ele>
        <time>2016-10-30T08:33:56.000Z</time>
      </trkpt>
      <trkpt lat="47.86965" lon="2.20348">
        <ele>119</ele>
        <time>2016-10-30T08:33:57.000Z</time>
      </trkpt>
      <trkpt lat="47.86964" lon="2.20341">
        <ele>118</ele>
        <time>2016-10-30T08:33:58.000Z</time>
      </trkpt>
      <trkpt lat="47.86962" lon="2.20334">
        <ele>118</ele>
        <time>2016-10-30T08:33:59.000Z</time>
      </trkpt>
      <trkpt lat="47.8696" lon="2.20327">
        <ele>118</ele>
        <time>2016-10-30T08:34:00.000Z</time>
      </trkpt>
      <trkpt lat="47.86958" lon="2.2032">
        <ele>117</ele>
        <time>2016-10-30T08:34:01.000Z</time>
      </trkpt>
      <trkpt lat="47.86957" lon="2.20312">
        <ele>117</ele>
        <time>2016-10-30T08:34:02.000Z</time>
      </trkpt>
      <trkpt lat="47.86955" lon="2.20304">
        <ele>116</ele>
        <time>2016-10-30T08:34:03.000Z</time>
      </trkpt>
      <trkpt lat="47.86953" lon="2.20297">
        <ele>116</ele>
        <time>2016-10-30T08:34:04.000Z</time>
      </trkpt>
      <trkpt lat="47.86951" lon="2.20289">
        <ele>115</ele>
        <time>2016-10-30T08:34:05.000Z</time>
      </trkpt>
      <trkpt lat="47.86949" lon="2.20281">
        <ele>116</ele>
        <time>2016-10-30T08:34:06.000Z</time>
      </trkpt>
      <trkpt lat="47.86948" lon="2.20273">
        <ele>115</ele>
        <time>2016-10-30T08:34:07.000Z</time>
      </trkpt>
      <trkpt lat="47.86946" lon="2.20265">
        <ele>115</ele>
        <time>2016-10-30T08:34:08.000Z</time>
      </trkpt>
      <trkpt lat="47.86944" lon="2.20256">
        <ele>115</ele>
        <time>2016-10-30T08:34:09.000Z</time>
      </trkpt>
      <trkpt lat="47.86942" lon="2.20248">
        <ele>115</ele>
        <time>2016-10-30T08:34:10.000Z</time>
      </trkpt>
      <trkpt lat="47.8694" lon="2.20239">
        <ele>116</ele>
        <time>2016-10-30T08:34:11.000Z</time>
      </trkpt>
      <trkpt lat="47.86938" lon="2.20231">
        <ele>116</ele>
        <time>2016-10-30T08:34:12.000Z</time>
      </trkpt>
      <trkpt lat="47.86936" lon="2.20223">
        <ele>116</ele>
        <time>2016-10-30T08:34:13.000Z</time>
      </trkpt>
      <trkpt lat="47.86934" lon="2.20214">
        <ele>116</ele>
        <time>2016-10-30T08:34:14.000Z</time>
      </trkpt>
      <trkpt lat="47.86932" lon="2.20206">
        <ele>116</ele>
        <time>2016-10-30T08:34:15.000Z</time>
      </trkpt>
      <trkpt lat="47.8693" lon="2.20197">
        <ele>116</ele>
        <time>2016-10-30T08:34:16.000Z</time>
      </trkpt>
      <trkpt lat="47.86928" lon="2.20189">
        <ele>116</ele>
        <time>2016-10-30T08:34:17.000Z</time>
      </trkpt>
      <trkpt lat="47.86925" lon="2.2018">
        <ele>116</ele>
        <time>2016-10-30T08:34:18.000Z</time>
      </trkpt>
      <trkpt lat="47.86923" lon="2.20172">
        <ele>116</ele>
        <time>2016-10-30T08:34:19.000Z</time>
      </trkpt>
      <trkpt lat="47.86921" lon="2.20164">
        <ele>116</ele>
        <time>2016-10-30T08:34:20.000Z</time>
      </trkpt>
      <trkpt lat="47.8692" lon="2.20156">
        <ele>116</ele>
        <time>2016-10-30T08:34:21.000Z</time>
      </trkpt>
      <trkpt lat="47.86918" lon="2.20147">
        <ele>116</ele>
        <time>2016-10-30T08:34:22.000Z</time>
      </trkpt>
      <trkpt lat="47.86916" lon="2.20139">
        <ele>115</ele>
        <time>2016-10-30T08:34:23.000Z</time>
      </trkpt>
      <trkpt lat="47.86914" lon="2.20131">
        <ele>115</ele>
        <time>2016-10-30T08:34:24.000Z</time>
      </trkpt>
      <trkpt lat="47.86912" lon="2.20123">
        <ele>115</ele>
        <time>2016-10-30T08:34:25.000Z</time>
      </trkpt>
      <trkpt lat="47.8691" lon="2.20115">
        <ele>115</ele>
        <time>2016-10-30T08:34:26.000Z</time>
      </trkpt>
      <trkpt lat="47.86908" lon="2.20106">
        <ele>115</ele>
        <time>2016-10-30T08:34:27.000Z</time>
      </trkpt>
      <trkpt lat="47.86906" lon="2.20097">
        <ele>115</ele>
        <time>2016-10-30T08:34:28.000Z</time>
      </trkpt>
      <trkpt lat="47.86905" lon="2.20088">
        <ele>115</ele>
        <time>2016-10-30T08:34:29.000Z</time>
      </trkpt>
      <trkpt lat="47.86903" lon="2.2008">
        <ele>114</ele>
        <time>2016-10-30T08:34:30.000Z</time>
      </trkpt>
      <trkpt lat="47.86902" lon="2.20071">
        <ele>114</ele>
        <time>2016-10-30T08:34:31.000Z</time>
      </trkpt>
      <trkpt lat="47.86902" lon="2.20062">
        <ele>114</ele>
        <time>2016-10-30T08:34:32.000Z</time>
      </trkpt>
      <trkpt lat="47.86902" lon="2.20053">
        <ele>114</ele>
        <time>2016-10-30T08:34:33.000Z</time>
      </trkpt>
      <trkpt lat="47.86902" lon="2.20044">
        <ele>113</ele>
        <time>2016-10-30T08:34:34.000Z</time>
      </trkpt>
      <trkpt lat="47.86902" lon="2.20035">
        <ele>113</ele>
        <time>2016-10-30T08:34:35.000Z</time>
      </trkpt>
      <trkpt lat="47.86902" lon="2.20027">
        <ele>112</ele>
        <time>2016-10-30T08:34:36.000Z</time>
      </trkpt>
      <trkpt lat="47.86902" lon="2.20018">
        <ele>112</ele>
        <time>2016-10-30T08:34:37.000Z</time>
      </trkpt>
      <trkpt lat="47.86903" lon="2.20009">
        <ele>111</ele>
        <time>2016-10-30T08:34:38.000Z</time>
      </trkpt>
      <trkpt lat="47.86903" lon="2.20001">
        <ele>110</ele>
        <time>2016-10-30T08:34:39.000Z</time>
      </trkpt>
      <trkpt lat="47.86903" lon="2.19992">
        <ele>111</ele>
        <time>2016-10-30T08:34:40.000Z</time>
      </trkpt>
      <trkpt lat="47.86903" lon="2.19984">
        <ele>111</ele>
        <time>2016-10-30T08:34:41.000Z</time>
      </trkpt>
      <trkpt lat="47.86903" lon="2.19975">
        <ele>111</ele>
        <time>2016-10-30T08:34:42.000Z</time>
      </trkpt>
      <trkpt lat="47.86904" lon="2.19967">
        <ele>110</ele>
        <time>2016-10-30T08:34:43.000Z</time>
      </trkpt>
      <trkpt lat="47.86904" lon="2.19959">
        <ele>111</ele>
        <time>2016-10-30T08:34:44.000Z</time>
      </trkpt>
      <trkpt lat="47.86905" lon="2.19951">
        <ele>112</ele>
        <time>2016-10-30T08:34:45.000Z</time>
      </trkpt>
      <trkpt lat="47.86905" lon="2.19942">
        <ele>112</ele>
        <time>2016-10-30T08:34:46.000Z</time>
      </trkpt>
      <trkpt lat="47.86905" lon="2.19932">
        <ele>113</ele>
        <time>2016-10-30T08:34:47.000Z</time>
      </trkpt>
      <trkpt lat="47.86904" lon="2.19923">
        <ele>113</ele>
        <time>2016-10-30T08:34:48.000Z</time>
      </trkpt>
      <trkpt lat="47.86904" lon="2.19913">
        <ele>113</ele>
        <time>2016-10-30T08:34:49.000Z</time>
      </trkpt>
      <trkpt lat="47.86904" lon="2.19904">
        <ele>113</ele>
        <time>2016-10-30T08:34:50.000Z</time>
      </trkpt>
      <trkpt lat="47.86904" lon="2.19894">
        <ele>114</ele>
        <time>2016-10-30T08:34:51.000Z</time>
      </trkpt>
      <trkpt lat="47.86903" lon="2.19885">
        <ele>115</ele>
        <time>2016-10-30T08:34:52.000Z</time>
      </trkpt>
      <trkpt lat="47.86903" lon="2.19876">
        <ele>115</ele>
        <time>2016-10-30T08:34:53.000Z</time>
      </trkpt>
      <trkpt lat="47.86903" lon="2.19866">
        <ele>115</ele>
        <time>2016-10-30T08:34:54.000Z</time>
      </trkpt>
      <trkpt lat="47.86902" lon="2.19857">
        <ele>116</ele>
        <time>2016-10-30T08:34:55.000Z</time>
      </trkpt>
      <trkpt lat="47.86902" lon="2.19848">
        <ele>116</ele>
        <time>2016-10-30T08:34:56.000Z</time>
      </trkpt>
      <trkpt lat="47.86901" lon="2.19838">
        <ele>117</ele>
        <time>2016-10-30T08:34:57.000Z</time>
      </trkpt>
      <trkpt lat="47.86901" lon="2.19829">
        <ele>117</ele>
        <time>2016-10-30T08:34:58.000Z</time>
      </trkpt>
      <trkpt lat="47.86901" lon="2.1982">
        <ele>117</ele>
        <time>2016-10-30T08:34:59.000Z</time>
      </trkpt>
      <trkpt lat="47.86901" lon="2.19811">
        <ele>117</ele>
        <time>2016-10-30T08:35:00.000Z</time>
      </trkpt>
      <trkpt lat="47.86901" lon="2.19802">
        <ele>118</ele>
        <time>2016-10-30T08:35:01.000Z</time>
      </trkpt>
      <trkpt lat="47.86901" lon="2.19793">
        <ele>117</ele>
        <time>2016-10-30T08:35:02.000Z</time>
      </trkpt>
      <trkpt lat="47.86901" lon="2.19784">
        <ele>117</ele>
        <time>2016-10-30T08:35:03.000Z</time>
      </trkpt>
      <trkpt lat="47.86901" lon="2.19775">
        <ele>117</ele>
        <time>2016-10-30T08:35:04.000Z</time>
      </trkpt>
      <trkpt lat="47.869" lon="2.19766">
        <ele>118</ele>
        <time>2016-10-30T08:35:05.000Z</time>
      </trkpt>
      <trkpt lat="47.869" lon="2.19757">
        <ele>118</ele>
        <time>2016-10-30T08:35:06.000Z</time>
      </trkpt>
      <trkpt lat="47.869" lon="2.19747">
        <ele>118</ele>
        <time>2016-10-30T08:35:07.000Z</time>
      </trkpt>
      <trkpt lat="47.869" lon="2.19738">
        <ele>118</ele>
        <time>2016-10-30T08:35:08.000Z</time>
      </trkpt>
      <trkpt lat="47.869" lon="2.19728">
        <ele>118</ele>
        <time>2016-10-30T08:35:09.000Z</time>
      </trkpt>
      <trkpt lat="47.869" lon="2.19719">
        <ele>118</ele>
        <time>2016-10-30T08:35:10.000Z</time>
      </trkpt>
      <trkpt lat="47.869" lon="2.1971">
        <ele>117</ele>
        <time>2016-10-30T08:35:11.000Z</time>
      </trkpt>
      <trkpt lat="47.869" lon="2.19701">
        <ele>116</ele>
        <time>2016-10-30T08:35:12.000Z</time>
      </trkpt>
      <trkpt lat="47.869" lon="2.19692">
        <ele>116</ele>
        <time>2016-10-30T08:35:13.000Z</time>
      </trkpt>
      <trkpt lat="47.869" lon="2.19683">
        <ele>116</ele>
        <time>2016-10-30T08:35:14.000Z</time>
      </trkpt>
      <trkpt lat="47.869" lon="2.19673">
        <ele>117</ele>
        <time>2016-10-30T08:35:15.000Z</time>
      </trkpt>
      <trkpt lat="47.86899" lon="2.19663">
        <ele>117</ele>
        <time>2016-10-30T08:35:16.000Z</time>
      </trkpt>
      <trkpt lat="47.86899" lon="2.19653">
        <ele>117</ele>
        <time>2016-10-30T08:35:17.000Z</time>
      </trkpt>
      <trkpt lat="47.86899" lon="2.19643">
        <ele>118</ele>
        <time>2016-10-30T08:35:18.000Z</time>
      </trkpt>
      <trkpt lat="47.86899" lon="2.19633">
        <ele>118</ele>
        <time>2016-10-30T08:35:19.000Z</time>
      </trkpt>
      <trkpt lat="47.86899" lon="2.19623">
        <ele>118</ele>
        <time>2016-10-30T08:35:20.000Z</time>
      </trkpt>
      <trkpt lat="47.86899" lon="2.19614">
        <ele>118</ele>
        <time>2016-10-30T08:35:21.000Z</time>
      </trkpt>
      <trkpt lat="47.86899" lon="2.19604">
        <ele>117</ele>
        <time>2016-10-30T08:35:22.000Z</time>
      </trkpt>
      <trkpt lat="47.86898" lon="2.19594">
        <ele>117</ele>
        <time>2016-10-30T08:35:23.000Z</time>
      </trkpt>
      <trkpt lat="47.86898" lon="2.19584">
        <ele>116</ele>
        <time>2016-10-30T08:35:24.000Z</time>
      </trkpt>
      <trkpt lat="47.86899" lon="2.19575">
        <ele>116</ele>
        <time>2016-10-30T08:35:25.000Z</time>
      </trkpt>
      <trkpt lat="47.86899" lon="2.19566">
        <ele>116</ele>
        <time>2016-10-30T08:35:26.000Z</time>
      </trkpt>
      <trkpt lat="47.86899" lon="2.19557">
        <ele>115</ele>
        <time>2016-10-30T08:35:27.000Z</time>
      </trkpt>
      <trkpt lat="47.86899" lon="2.19548">
        <ele>115</ele>
        <time>2016-10-30T08:35:28.000Z</time>
      </trkpt>
      <trkpt lat="47.86899" lon="2.19539">
        <ele>115</ele>
        <time>2016-10-30T08:35:29.000Z</time>
      </trkpt>
      <trkpt lat="47.86899" lon="2.19531">
        <ele>115</ele>
        <time>2016-10-30T08:35:30.000Z</time>
      </trkpt>
      <trkpt lat="47.86899" lon="2.19523">
        <ele>114</ele>
        <time>2016-10-30T08:35:31.000Z</time>
      </trkpt>
      <trkpt lat="47.86899" lon="2.19515">
        <ele>113</ele>
        <time>2016-10-30T08:35:32.000Z</time>
      </trkpt>
      <trkpt lat="47.86899" lon="2.19507">
        <ele>113</ele>
        <time>2016-10-30T08:35:33.000Z</time>
      </trkpt>
      <trkpt lat="47.869" lon="2.195">
        <ele>113</ele>
        <time>2016-10-30T08:35:34.000Z</time>
      </trkpt>
      <trkpt lat="47.86901" lon="2.19492">
        <ele>112</ele>
        <time>2016-10-30T08:35:35.000Z</time>
      </trkpt>
      <trkpt lat="47.86902" lon="2.19485">
        <ele>111</ele>
        <time>2016-10-30T08:35:36.000Z</time>
      </trkpt>
      <trkpt lat="47.86903" lon="2.19479">
        <ele>112</ele>
        <time>2016-10-30T08:35:37.000Z</time>
      </trkpt>
      <trkpt lat="47.86903" lon="2.19472">
        <ele>113</ele>
        <time>2016-10-30T08:35:38.000Z</time>
      </trkpt>
      <trkpt lat="47.86903" lon="2.19465">
        <ele>114</ele>
        <time>2016-10-30T08:35:39.000Z</time>
      </trkpt>
      <trkpt lat="47.86903" lon="2.19458">
        <ele>114</ele>
        <time>2016-10-30T08:35:40.000Z</time>
      </trkpt>
      <trkpt lat="47.86903" lon="2.19449">
        <ele>115</ele>
        <time>2016-10-30T08:35:41.000Z</time>
      </trkpt>
      <trkpt lat="47.86904" lon="2.1944">
        <ele>113</ele>
        <time>2016-10-30T08:35:42.000Z</time>
      </trkpt>
      <trkpt lat="47.86904" lon="2.19431">
        <ele>113</ele>
        <time>2016-10-30T08:35:43.000Z</time>
      </trkpt>
      <trkpt lat="47.86905" lon="2.19422">
        <ele>112</ele>
        <time>2016-10-30T08:35:44.000Z</time>
      </trkpt>
      <trkpt lat="47.86906" lon="2.19413">
        <ele>113</ele>
        <time>2016-10-30T08:35:45.000Z</time>
      </trkpt>
      <trkpt lat="47.86908" lon="2.19402">
        <ele>112</ele>
        <time>2016-10-30T08:35:46.000Z</time>
      </trkpt>
      <trkpt lat="47.8691" lon="2.19389">
        <ele>114</ele>
        <time>2016-10-30T08:35:47.000Z</time>
      </trkpt>
      <trkpt lat="47.86912" lon="2.19376">
        <ele>112</ele>
        <time>2016-10-30T08:35:48.000Z</time>
      </trkpt>
      <trkpt lat="47.86913" lon="2.19364">
        <ele>112</ele>
        <time>2016-10-30T08:35:49.000Z</time>
      </trkpt>
      <trkpt lat="47.86915" lon="2.19353">
        <ele>110</ele>
        <time>2016-10-30T08:35:50.000Z</time>
      </trkpt>
      <trkpt lat="47.86916" lon="2.19342">
        <ele>109</ele>
        <time>2016-10-30T08:35:51.000Z</time>
      </trkpt>
      <trkpt lat="47.86917" lon="2.1933">
        <ele>110</ele>
        <time>2016-10-30T08:35:52.000Z</time>
      </trkpt>
      <trkpt lat="47.86919" lon="2.19319">
        <ele>109</ele>
        <time>2016-10-30T08:35:53.000Z</time>
      </trkpt>
      <trkpt lat="47.86921" lon="2.19307">
        <ele>109</ele>
        <time>2016-10-30T08:35:54.000Z</time>
      </trkpt>
      <trkpt lat="47.86922" lon="2.19297">
        <ele>110</ele>
        <time>2016-10-30T08:35:55.000Z</time>
      </trkpt>
      <trkpt lat="47.86923" lon="2.19287">
        <ele>110</ele>
        <time>2016-10-30T08:35:56.000Z</time>
      </trkpt>
      <trkpt lat="47.86923" lon="2.19277">
        <ele>109</ele>
        <time>2016-10-30T08:35:57.000Z</time>
      </trkpt>
      <trkpt lat="47.86924" lon="2.19267">
        <ele>106</ele>
        <time>2016-10-30T08:35:58.000Z</time>
      </trkpt>
      <trkpt lat="47.86924" lon="2.19254">
        <ele>104</ele>
        <time>2016-10-30T08:35:59.000Z</time>
      </trkpt>
      <trkpt lat="47.86923" lon="2.1924">
        <ele>103</ele>
        <time>2016-10-30T08:36:00.000Z</time>
      </trkpt>
      <trkpt lat="47.86922" lon="2.19225">
        <ele>101</ele>
        <time>2016-10-30T08:36:01.000Z</time>
      </trkpt>
      <trkpt lat="47.86921" lon="2.19212">
        <ele>101</ele>
        <time>2016-10-30T08:36:02.000Z</time>
      </trkpt>
      <trkpt lat="47.8692" lon="2.19199">
        <ele>100</ele>
        <time>2016-10-30T08:36:03.000Z</time>
      </trkpt>
      <trkpt lat="47.8692" lon="2.19187">
        <ele>99</ele>
        <time>2016-10-30T08:36:04.000Z</time>
      </trkpt>
      <trkpt lat="47.8692" lon="2.19175">
        <ele>99</ele>
        <time>2016-10-30T08:36:05.000Z</time>
      </trkpt>
      <trkpt lat="47.86919" lon="2.19164">
        <ele>99</ele>
        <time>2016-10-30T08:36:06.000Z</time>
      </trkpt>
      <trkpt lat="47.86918" lon="2.19152">
        <ele>99</ele>
        <time>2016-10-30T08:36:07.000Z</time>
      </trkpt>
      <trkpt lat="47.86918" lon="2.1914">
        <ele>99</ele>
        <time>2016-10-30T08:36:08.000Z</time>
      </trkpt>
      <trkpt lat="47.86917" lon="2.19128">
        <ele>98</ele>
        <time>2016-10-30T08:36:09.000Z</time>
      </trkpt>
      <trkpt lat="47.86917" lon="2.19116">
        <ele>99</ele>
        <time>2016-10-30T08:36:10.000Z</time>
      </trkpt>
      <trkpt lat="47.86916" lon="2.19105">
        <ele>99</ele>
        <time>2016-10-30T08:36:11.000Z</time>
      </trkpt>
      <trkpt lat="47.86915" lon="2.19093">
        <ele>100</ele>
        <time>2016-10-30T08:36:12.000Z</time>
      </trkpt>
      <trkpt lat="47.86914" lon="2.19082">
        <ele>101</ele>
        <time>2016-10-30T08:36:13.000Z</time>
      </trkpt>
      <trkpt lat="47.86914" lon="2.1907">
        <ele>103</ele>
        <time>2016-10-30T08:36:14.000Z</time>
      </trkpt>
      <trkpt lat="47.86914" lon="2.19058">
        <ele>104</ele>
        <time>2016-10-30T08:36:15.000Z</time>
      </trkpt>
      <trkpt lat="47.86914" lon="2.19046">
        <ele>106</ele>
        <time>2016-10-30T08:36:16.000Z</time>
      </trkpt>
      <trkpt lat="47.86913" lon="2.19034">
        <ele>108</ele>
        <time>2016-10-30T08:36:17.000Z</time>
      </trkpt>
      <trkpt lat="47.86912" lon="2.19022">
        <ele>110</ele>
        <time>2016-10-30T08:36:18.000Z</time>
      </trkpt>
      <trkpt lat="47.86911" lon="2.19011">
        <ele>110</ele>
        <time>2016-10-30T08:36:19.000Z</time>
      </trkpt>
      <trkpt lat="47.86911" lon="2.18999">
        <ele>111</ele>
        <time>2016-10-30T08:36:20.000Z</time>
      </trkpt>
      <trkpt lat="47.86911" lon="2.18988">
        <ele>111</ele>
        <time>2016-10-30T08:36:21.000Z</time>
      </trkpt>
      <trkpt lat="47.86911" lon="2.18977">
        <ele>111</ele>
        <time>2016-10-30T08:36:22.000Z</time>
      </trkpt>
      <trkpt lat="47.86911" lon="2.18966">
        <ele>110</ele>
        <time>2016-10-30T08:36:23.000Z</time>
      </trkpt>
      <trkpt lat="47.86911" lon="2.18955">
        <ele>110</ele>
        <time>2016-10-30T08:36:24.000Z</time>
      </trkpt>
      <trkpt lat="47.86911" lon="2.18943">
        <ele>109</ele>
        <time>2016-10-30T08:36:25.000Z</time>
      </trkpt>
      <trkpt lat="47.86911" lon="2.18932">
        <ele>109</ele>
        <time>2016-10-30T08:36:26.000Z</time>
      </trkpt>
      <trkpt lat="47.86911" lon="2.1892">
        <ele>112</ele>
        <time>2016-10-30T08:36:27.000Z</time>
      </trkpt>
      <trkpt lat="47.86911" lon="2.18909">
        <ele>112</ele>
        <time>2016-10-30T08:36:28.000Z</time>
      </trkpt>
      <trkpt lat="47.86909" lon="2.18896">
        <ele>116</ele>
        <time>2016-10-30T08:36:29.000Z</time>
      </trkpt>
      <trkpt lat="47.86909" lon="2.18884">
        <ele>117</ele>
        <time>2016-10-30T08:36:30.000Z</time>
      </trkpt>
      <trkpt lat="47.86908" lon="2.18873">
        <ele>119</ele>
        <time>2016-10-30T08:36:31.000Z</time>
      </trkpt>
      <trkpt lat="47.86907" lon="2.18862">
        <ele>120</ele>
        <time>2016-10-30T08:36:32.000Z</time>
      </trkpt>
      <trkpt lat="47.86907" lon="2.18852">
        <ele>121</ele>
        <time>2016-10-30T08:36:33.000Z</time>
      </trkpt>
      <trkpt lat="47.86907" lon="2.18843">
        <ele>122</ele>
        <time>2016-10-30T08:36:34.000Z</time>
      </trkpt>
      <trkpt lat="47.86907" lon="2.18834">
        <ele>122</ele>
        <time>2016-10-30T08:36:35.000Z</time>
      </trkpt>
      <trkpt lat="47.86907" lon="2.18826">
        <ele>120</ele>
        <time>2016-10-30T08:36:36.000Z</time>
      </trkpt>
      <trkpt lat="47.86908" lon="2.18819">
        <ele>119</ele>
        <time>2016-10-30T08:36:37.000Z</time>
      </trkpt>
      <trkpt lat="47.86909" lon="2.18812">
        <ele>118</ele>
        <time>2016-10-30T08:36:38.000Z</time>
      </trkpt>
      <trkpt lat="47.86909" lon="2.18804">
        <ele>119</ele>
        <time>2016-10-30T08:36:39.000Z</time>
      </trkpt>
      <trkpt lat="47.8691" lon="2.18796">
        <ele>119</ele>
        <time>2016-10-30T08:36:40.000Z</time>
      </trkpt>
      <trkpt lat="47.86911" lon="2.18788">
        <ele>118</ele>
        <time>2016-10-30T08:36:41.000Z</time>
      </trkpt>
      <trkpt lat="47.86912" lon="2.1878">
        <ele>118</ele>
        <time>2016-10-30T08:36:42.000Z</time>
      </trkpt>
      <trkpt lat="47.86912" lon="2.18773">
        <ele>117</ele>
        <time>2016-10-30T08:36:43.000Z</time>
      </trkpt>
      <trkpt lat="47.86913" lon="2.18765">
        <ele>117</ele>
        <time>2016-10-30T08:36:44.000Z</time>
      </trkpt>
      <trkpt lat="47.86913" lon="2.18757">
        <ele>115</ele>
        <time>2016-10-30T08:36:45.000Z</time>
      </trkpt>
      <trkpt lat="47.86913" lon="2.18748">
        <ele>115</ele>
        <time>2016-10-30T08:36:46.000Z</time>
      </trkpt>
      <trkpt lat="47.86913" lon="2.18739">
        <ele>115</ele>
        <time>2016-10-30T08:36:47.000Z</time>
      </trkpt>
      <trkpt lat="47.86914" lon="2.18732">
        <ele>114</ele>
        <time>2016-10-30T08:36:48.000Z</time>
      </trkpt>
      <trkpt lat="47.86914" lon="2.18725">
        <ele>111</ele>
        <time>2016-10-30T08:36:49.000Z</time>
      </trkpt>
      <trkpt lat="47.86915" lon="2.18717">
        <ele>110</ele>
        <time>2016-10-30T08:36:50.000Z</time>
      </trkpt>
      <trkpt lat="47.86916" lon="2.1871">
        <ele>108</ele>
        <time>2016-10-30T08:36:51.000Z</time>
      </trkpt>
      <trkpt lat="47.86916" lon="2.18702">
        <ele>106</ele>
        <time>2016-10-30T08:36:52.000Z</time>
      </trkpt>
      <trkpt lat="47.86916" lon="2.18694">
        <ele>105</ele>
        <time>2016-10-30T08:36:53.000Z</time>
      </trkpt>
      <trkpt lat="47.86916" lon="2.18686">
        <ele>104</ele>
        <time>2016-10-30T08:36:54.000Z</time>
      </trkpt>
      <trkpt lat="47.86915" lon="2.18678">
        <ele>104</ele>
        <time>2016-10-30T08:36:55.000Z</time>
      </trkpt>
      <trkpt lat="47.86915" lon="2.1867">
        <ele>103</ele>
        <time>2016-10-30T08:36:56.000Z</time>
      </trkpt>
      <trkpt lat="47.86915" lon="2.18662">
        <ele>101</ele>
        <time>2016-10-30T08:36:57.000Z</time>
      </trkpt>
      <trkpt lat="47.86915" lon="2.18654">
        <ele>101</ele>
        <time>2016-10-30T08:36:58.000Z</time>
      </trkpt>
      <trkpt lat="47.86915" lon="2.18645">
        <ele>100</ele>
        <time>2016-10-30T08:36:59.000Z</time>
      </trkpt>
      <trkpt lat="47.86915" lon="2.18637">
        <ele>100</ele>
        <time>2016-10-30T08:37:00.000Z</time>
      </trkpt>
      <trkpt lat="47.86914" lon="2.18628">
        <ele>99</ele>
        <time>2016-10-30T08:37:01.000Z</time>
      </trkpt>
      <trkpt lat="47.86914" lon="2.1862">
        <ele>97</ele>
        <time>2016-10-30T08:37:02.000Z</time>
      </trkpt>
      <trkpt lat="47.86914" lon="2.18612">
        <ele>96</ele>
        <time>2016-10-30T08:37:03.000Z</time>
      </trkpt>
      <trkpt lat="47.86914" lon="2.18604">
        <ele>96</ele>
        <time>2016-10-30T08:37:04.000Z</time>
      </trkpt>
      <trkpt lat="47.86914" lon="2.18596">
        <ele>96</ele>
        <time>2016-10-30T08:37:05.000Z</time>
      </trkpt>
      <trkpt lat="47.86914" lon="2.18588">
        <ele>97</ele>
        <time>2016-10-30T08:37:06.000Z</time>
      </trkpt>
      <trkpt lat="47.86914" lon="2.18579">
        <ele>97</ele>
        <time>2016-10-30T08:37:07.000Z</time>
      </trkpt>
      <trkpt lat="47.86914" lon="2.18571">
        <ele>97</ele>
        <time>2016-10-30T08:37:08.000Z</time>
      </trkpt>
      <trkpt lat="47.86914" lon="2.18562">
        <ele>97</ele>
        <time>2016-10-30T08:37:09.000Z</time>
      </trkpt>
      <trkpt lat="47.86914" lon="2.18554">
        <ele>95</ele>
        <time>2016-10-30T08:37:10.000Z</time>
      </trkpt>
      <trkpt lat="47.86914" lon="2.18547">
        <ele>94</ele>
        <time>2016-10-30T08:37:11.000Z</time>
      </trkpt>
      <trkpt lat="47.86915" lon="2.18539">
        <ele>93</ele>
        <time>2016-10-30T08:37:12.000Z</time>
      </trkpt>
      <trkpt lat="47.86915" lon="2.18531">
        <ele>92</ele>
        <time>2016-10-30T08:37:13.000Z</time>
      </trkpt>
      <trkpt lat="47.86915" lon="2.18523">
        <ele>91</ele>
        <time>2016-10-30T08:37:14.000Z</time>
      </trkpt>
      <trkpt lat="47.86915" lon="2.18516">
        <ele>90</ele>
        <time>2016-10-30T08:37:15.000Z</time>
      </trkpt>
      <trkpt lat="47.86916" lon="2.18509">
        <ele>90</ele>
        <time>2016-10-30T08:37:16.000Z</time>
      </trkpt>
      <trkpt lat="47.86915" lon="2.18502">
        <ele>89</ele>
        <time>2016-10-30T08:37:17.000Z</time>
      </trkpt>
      <trkpt lat="47.86914" lon="2.18495">
        <ele>88</ele>
        <time>2016-10-30T08:37:18.000Z</time>
      </trkpt>
      <trkpt lat="47.86913" lon="2.18487">
        <ele>88</ele>
        <time>2016-10-30T08:37:19.000Z</time>
      </trkpt>
      <trkpt lat="47.86912" lon="2.18478">
        <ele>89</ele>
        <time>2016-10-30T08:37:20.000Z</time>
      </trkpt>
      <trkpt lat="47.86911" lon="2.1847">
        <ele>88</ele>
        <time>2016-10-30T08:37:21.000Z</time>
      </trkpt>
      <trkpt lat="47.86911" lon="2.18462">
        <ele>87</ele>
        <time>2016-10-30T08:37:22.000Z</time>
      </trkpt>
      <trkpt lat="47.86911" lon="2.18455">
        <ele>87</ele>
        <time>2016-10-30T08:37:23.000Z</time>
      </trkpt>
      <trkpt lat="47.86912" lon="2.18447">
        <ele>86</ele>
        <time>2016-10-30T08:37:24.000Z</time>
      </trkpt>
      <trkpt lat="47.86913" lon="2.18441">
        <ele>85</ele>
        <time>2016-10-30T08:37:25.000Z</time>
      </trkpt>
      <trkpt lat="47.86913" lon="2.18434">
        <ele>84</ele>
        <time>2016-10-30T08:37:26.000Z</time>
      </trkpt>
      <trkpt lat="47.86913" lon="2.18426">
        <ele>84</ele>
        <time>2016-10-30T08:37:27.000Z</time>
      </trkpt>
      <trkpt lat="47.86912" lon="2.18418">
        <ele>84</ele>
        <time>2016-10-30T08:37:28.000Z</time>
      </trkpt>
      <trkpt lat="47.86912" lon="2.18409">
        <ele>82</ele>
        <time>2016-10-30T08:37:29.000Z</time>
      </trkpt>
      <trkpt lat="47.86913" lon="2.18402">
        <ele>82</ele>
        <time>2016-10-30T08:37:30.000Z</time>
      </trkpt>
      <trkpt lat="47.86913" lon="2.18394">
        <ele>81</ele>
        <time>2016-10-30T08:37:31.000Z</time>
      </trkpt>
      <trkpt lat="47.86913" lon="2.18386">
        <ele>81</ele>
        <time>2016-10-30T08:37:32.000Z</time>
      </trkpt>
      <trkpt lat="47.86912" lon="2.18378">
        <ele>81</ele>
        <time>2016-10-30T08:37:33.000Z</time>
      </trkpt>
      <trkpt lat="47.86912" lon="2.18369">
        <ele>82</ele>
        <time>2016-10-30T08:37:34.000Z</time>
      </trkpt>
      <trkpt lat="47.86911" lon="2.1836">
        <ele>82</ele>
        <time>2016-10-30T08:37:35.000Z</time>
      </trkpt>
      <trkpt lat="47.86911" lon="2.18351">
        <ele>82</ele>
        <time>2016-10-30T08:37:36.000Z</time>
      </trkpt>
      <trkpt lat="47.86911" lon="2.18342">
        <ele>82</ele>
        <time>2016-10-30T08:37:37.000Z</time>
      </trkpt>
      <trkpt lat="47.86912" lon="2.18333">
        <ele>82</ele>
        <time>2016-10-30T08:37:38.000Z</time>
      </trkpt>
      <trkpt lat="47.86912" lon="2.18324">
        <ele>84</ele>
        <time>2016-10-30T08:37:39.000Z</time>
      </trkpt>
      <trkpt lat="47.86912" lon="2.18314">
        <ele>85</ele>
        <time>2016-10-30T08:37:40.000Z</time>
      </trkpt>
      <trkpt lat="47.86913" lon="2.18304">
        <ele>86</ele>
        <time>2016-10-30T08:37:41.000Z</time>
      </trkpt>
      <trkpt lat="47.86914" lon="2.18295">
        <ele>87</ele>
        <time>2016-10-30T08:37:42.000Z</time>
      </trkpt>
      <trkpt lat="47.86915" lon="2.18287">
        <ele>88</ele>
        <time>2016-10-30T08:37:43.000Z</time>
      </trkpt>
      <trkpt lat="47.86915" lon="2.18278">
        <ele>86</ele>
        <time>2016-10-30T08:37:44.000Z</time>
      </trkpt>
      <trkpt lat="47.86915" lon="2.18268">
        <ele>85</ele>
        <time>2016-10-30T08:37:45.000Z</time>
      </trkpt>
      <trkpt lat="47.86916" lon="2.18256">
        <ele>84</ele>
        <time>2016-10-30T08:37:46.000Z</time>
      </trkpt>
      <trkpt lat="47.86917" lon="2.18244">
        <ele>83</ele>
        <time>2016-10-30T08:37:47.000Z</time>
      </trkpt>
      <trkpt lat="47.86917" lon="2.18233">
        <ele>83</ele>
        <time>2016-10-30T08:37:48.000Z</time>
      </trkpt>
      <trkpt lat="47.86918" lon="2.18222">
        <ele>83</ele>
        <time>2016-10-30T08:37:49.000Z</time>
      </trkpt>
      <trkpt lat="47.86918" lon="2.18211">
        <ele>82</ele>
        <time>2016-10-30T08:37:50.000Z</time>
      </trkpt>
      <trkpt lat="47.86919" lon="2.18199">
        <ele>81</ele>
        <time>2016-10-30T08:37:51.000Z</time>
      </trkpt>
      <trkpt lat="47.8692" lon="2.18187">
        <ele>81</ele>
        <time>2016-10-30T08:37:52.000Z</time>
      </trkpt>
      <trkpt lat="47.86921" lon="2.18175">
        <ele>81</ele>
        <time>2016-10-30T08:37:53.000Z</time>
      </trkpt>
      <trkpt lat="47.86922" lon="2.18163">
        <ele>82</ele>
        <time>2016-10-30T08:37:54.000Z</time>
      </trkpt>
      <trkpt lat="47.86922" lon="2.18151">
        <ele>83</ele>
        <time>2016-10-30T08:37:55.000Z</time>
      </trkpt>
      <trkpt lat="47.86924" lon="2.1814">
        <ele>84</ele>
        <time>2016-10-30T08:37:56.000Z</time>
      </trkpt>
      <trkpt lat="47.86925" lon="2.1813">
        <ele>85</ele>
        <time>2016-10-30T08:37:57.000Z</time>
      </trkpt>
      <trkpt lat="47.86927" lon="2.18118">
        <ele>85</ele>
        <time>2016-10-30T08:37:58.000Z</time>
      </trkpt>
      <trkpt lat="47.8693" lon="2.18106">
        <ele>86</ele>
        <time>2016-10-30T08:37:59.000Z</time>
      </trkpt>
      <trkpt lat="47.86932" lon="2.18094">
        <ele>86</ele>
        <time>2016-10-30T08:38:00.000Z</time>
      </trkpt>
      <trkpt lat="47.86935" lon="2.18082">
        <ele>86</ele>
        <time>2016-10-30T08:38:01.000Z</time>
      </trkpt>
      <trkpt lat="47.86937" lon="2.1807">
        <ele>86</ele>
        <time>2016-10-30T08:38:02.000Z</time>
      </trkpt>
      <trkpt lat="47.8694" lon="2.18058">
        <ele>87</ele>
        <time>2016-10-30T08:38:03.000Z</time>
      </trkpt>
      <trkpt lat="47.86942" lon="2.18046">
        <ele>87</ele>
        <time>2016-10-30T08:38:04.000Z</time>
      </trkpt>
      <trkpt lat="47.86943" lon="2.18034">
        <ele>87</ele>
        <time>2016-10-30T08:38:05.000Z</time>
      </trkpt>
      <trkpt lat="47.86944" lon="2.18022">
        <ele>88</ele>
        <time>2016-10-30T08:38:06.000Z</time>
      </trkpt>
      <trkpt lat="47.86946" lon="2.1801">
        <ele>89</ele>
        <time>2016-10-30T08:38:07.000Z</time>
      </trkpt>
      <trkpt lat="47.86948" lon="2.17999">
        <ele>90</ele>
        <time>2016-10-30T08:38:08.000Z</time>
      </trkpt>
      <trkpt lat="47.8695" lon="2.17988">
        <ele>91</ele>
        <time>2016-10-30T08:38:09.000Z</time>
      </trkpt>
      <trkpt lat="47.86952" lon="2.17978">
        <ele>92</ele>
        <time>2016-10-30T08:38:10.000Z</time>
      </trkpt>
      <trkpt lat="47.86955" lon="2.17967">
        <ele>92</ele>
        <time>2016-10-30T08:38:11.000Z</time>
      </trkpt>
      <trkpt lat="47.86957" lon="2.17956">
        <ele>94</ele>
        <time>2016-10-30T08:38:12.000Z</time>
      </trkpt>
      <trkpt lat="47.86959" lon="2.17945">
        <ele>94</ele>
        <time>2016-10-30T08:38:13.000Z</time>
      </trkpt>
      <trkpt lat="47.86961" lon="2.17935">
        <ele>95</ele>
        <time>2016-10-30T08:38:14.000Z</time>
      </trkpt>
      <trkpt lat="47.86963" lon="2.17924">
        <ele>95</ele>
        <time>2016-10-30T08:38:15.000Z</time>
      </trkpt>
      <trkpt lat="47.86964" lon="2.17912">
        <ele>94</ele>
        <time>2016-10-30T08:38:16.000Z</time>
      </trkpt>
      <trkpt lat="47.86966" lon="2.17901">
        <ele>95</ele>
        <time>2016-10-30T08:38:17.000Z</time>
      </trkpt>
      <trkpt lat="47.86968" lon="2.17889">
        <ele>96</ele>
        <time>2016-10-30T08:38:18.000Z</time>
      </trkpt>
      <trkpt lat="47.86968" lon="2.17878">
        <ele>98</ele>
        <time>2016-10-30T08:38:19.000Z</time>
      </trkpt>
      <trkpt lat="47.86968" lon="2.17866">
        <ele>98</ele>
        <time>2016-10-30T08:38:20.000Z</time>
      </trkpt>
      <trkpt lat="47.86968" lon="2.17854">
        <ele>98</ele>
        <time>2016-10-30T08:38:21.000Z</time>
      </trkpt>
      <trkpt lat="47.86967" lon="2.17842">
        <ele>97</ele>
        <time>2016-10-30T08:38:22.000Z</time>
      </trkpt>
      <trkpt lat="47.86967" lon="2.17829">
        <ele>97</ele>
        <time>2016-10-30T08:38:23.000Z</time>
      </trkpt>
      <trkpt lat="47.86967" lon="2.17815">
        <ele>96</ele>
        <time>2016-10-30T08:38:24.000Z</time>
      </trkpt>
      <trkpt lat="47.86967" lon="2.17802">
        <ele>96</ele>
        <time>2016-10-30T08:38:25.000Z</time>
      </trkpt>
      <trkpt lat="47.86967" lon="2.17791">
        <ele>96</ele>
        <time>2016-10-30T08:38:26.000Z</time>
      </trkpt>
      <trkpt lat="47.86967" lon="2.17781">
        <ele>96</ele>
        <time>2016-10-30T08:38:27.000Z</time>
      </trkpt>
      <trkpt lat="47.86967" lon="2.17773">
        <ele>97</ele>
        <time>2016-10-30T08:38:28.000Z</time>
      </trkpt>
      <trkpt lat="47.86966" lon="2.17765">
        <ele>98</ele>
        <time>2016-10-30T08:38:29.000Z</time>
      </trkpt>
      <trkpt lat="47.86966" lon="2.17757">
        <ele>99</ele>
        <time>2016-10-30T08:38:30.000Z</time>
      </trkpt>
      <trkpt lat="47.86967" lon="2.17749">
        <ele>100</ele>
        <time>2016-10-30T08:38:31.000Z</time>
      </trkpt>
      <trkpt lat="47.86968" lon="2.1774">
        <ele>101</ele>
        <time>2016-10-30T08:38:32.000Z</time>
      </trkpt>
      <trkpt lat="47.86969" lon="2.17732">
        <ele>102</ele>
        <time>2016-10-30T08:38:33.000Z</time>
      </trkpt>
      <trkpt lat="47.8697" lon="2.17723">
        <ele>103</ele>
        <time>2016-10-30T08:38:34.000Z</time>
      </trkpt>
      <trkpt lat="47.86971" lon="2.17715">
        <ele>101</ele>
        <time>2016-10-30T08:38:35.000Z</time>
      </trkpt>
      <trkpt lat="47.86972" lon="2.17707">
        <ele>101</ele>
        <time>2016-10-30T08:38:36.000Z</time>
      </trkpt>
      <trkpt lat="47.86973" lon="2.17699">
        <ele>102</ele>
        <time>2016-10-30T08:38:37.000Z</time>
      </trkpt>
      <trkpt lat="47.86975" lon="2.17692">
        <ele>103</ele>
        <time>2016-10-30T08:38:38.000Z</time>
      </trkpt>
      <trkpt lat="47.86976" lon="2.17685">
        <ele>105</ele>
        <time>2016-10-30T08:38:39.000Z</time>
      </trkpt>
      <trkpt lat="47.86977" lon="2.1768">
        <ele>105</ele>
        <time>2016-10-30T08:38:40.000Z</time>
      </trkpt>
      <trkpt lat="47.86978" lon="2.17674">
        <ele>106</ele>
        <time>2016-10-30T08:38:41.000Z</time>
      </trkpt>
      <trkpt lat="47.86979" lon="2.1767">
        <ele>108</ele>
        <time>2016-10-30T08:38:42.000Z</time>
      </trkpt>
      <trkpt lat="47.86979" lon="2.17665">
        <ele>110</ele>
        <time>2016-10-30T08:38:43.000Z</time>
      </trkpt>
      <trkpt lat="47.86979" lon="2.17659">
        <ele>110</ele>
        <time>2016-10-30T08:38:44.000Z</time>
      </trkpt>
      <trkpt lat="47.8698" lon="2.17654">
        <ele>111</ele>
        <time>2016-10-30T08:38:45.000Z</time>
      </trkpt>
      <trkpt lat="47.8698" lon="2.17649">
        <ele>112</ele>
        <time>2016-10-30T08:38:46.000Z</time>
      </trkpt>
      <trkpt lat="47.86981" lon="2.17645">
        <ele>114</ele>
        <time>2016-10-30T08:38:47.000Z</time>
      </trkpt>
      <trkpt lat="47.86981" lon="2.1764">
        <ele>115</ele>
        <time>2016-10-30T08:38:48.000Z</time>
      </trkpt>
      <trkpt lat="47.86981" lon="2.17635">
        <ele>116</ele>
        <time>2016-10-30T08:38:49.000Z</time>
      </trkpt>
      <trkpt lat="47.86982" lon="2.17629">
        <ele>118</ele>
        <time>2016-10-30T08:38:50.000Z</time>
      </trkpt>
      <trkpt lat="47.86982" lon="2.17622">
        <ele>118</ele>
        <time>2016-10-30T08:38:51.000Z</time>
      </trkpt>
      <trkpt lat="47.86982" lon="2.17615">
        <ele>119</ele>
        <time>2016-10-30T08:38:52.000Z</time>
      </trkpt>
      <trkpt lat="47.86983" lon="2.17609">
        <ele>119</ele>
        <time>2016-10-30T08:38:53.000Z</time>
      </trkpt>
      <trkpt lat="47.86983" lon="2.17604">
        <ele>119</ele>
        <time>2016-10-30T08:38:54.000Z</time>
      </trkpt>
      <trkpt lat="47.86984" lon="2.17598">
        <ele>120</ele>
        <time>2016-10-30T08:38:55.000Z</time>
      </trkpt>
      <trkpt lat="47.86985" lon="2.17593">
        <ele>120</ele>
        <time>2016-10-30T08:38:56.000Z</time>
      </trkpt>
      <trkpt lat="47.86986" lon="2.17588">
        <ele>120</ele>
        <time>2016-10-30T08:38:57.000Z</time>
      </trkpt>
      <trkpt lat="47.86988" lon="2.17582">
        <ele>119</ele>
        <time>2016-10-30T08:38:58.000Z</time>
      </trkpt>
      <trkpt lat="47.86989" lon="2.17577">
        <ele>120</ele>
        <time>2016-10-30T08:38:59.000Z</time>
      </trkpt>
      <trkpt lat="47.86989" lon="2.17571">
        <ele>121</ele>
        <time>2016-10-30T08:39:00.000Z</time>
      </trkpt>
      <trkpt lat="47.8699" lon="2.17565">
        <ele>122</ele>
        <time>2016-10-30T08:39:01.000Z</time>
      </trkpt>
      <trkpt lat="47.86991" lon="2.17559">
        <ele>124</ele>
        <time>2016-10-30T08:39:02.000Z</time>
      </trkpt>
      <trkpt lat="47.86992" lon="2.17553">
        <ele>125</ele>
        <time>2016-10-30T08:39:03.000Z</time>
      </trkpt>
      <trkpt lat="47.86993" lon="2.17548">
        <ele>125</ele>
        <time>2016-10-30T08:39:04.000Z</time>
      </trkpt>
      <trkpt lat="47.86994" lon="2.17545">
        <ele>125</ele>
        <time>2016-10-30T08:39:05.000Z</time>
      </trkpt>
      <trkpt lat="47.86995" lon="2.1754">
        <ele>125</ele>
        <time>2016-10-30T08:39:06.000Z</time>
      </trkpt>
      <trkpt lat="47.86996" lon="2.17536">
        <ele>125</ele>
        <time>2016-10-30T08:39:07.000Z</time>
      </trkpt>
      <trkpt lat="47.86997" lon="2.17531">
        <ele>125</ele>
        <time>2016-10-30T08:39:08.000Z</time>
      </trkpt>
      <trkpt lat="47.86998" lon="2.17526">
        <ele>125</ele>
        <time>2016-10-30T08:39:09.000Z</time>
      </trkpt>
      <trkpt lat="47.86998" lon="2.17521">
        <ele>125</ele>
        <time>2016-10-30T08:39:10.000Z</time>
      </trkpt>
      <trkpt lat="47.86999" lon="2.17517">
        <ele>125</ele>
        <time>2016-10-30T08:39:11.000Z</time>
      </trkpt>
      <trkpt lat="47.87" lon="2.17512">
        <ele>125</ele>
        <time>2016-10-30T08:39:12.000Z</time>
      </trkpt>
      <trkpt lat="47.87001" lon="2.17508">
        <ele>125</ele>
        <time>2016-10-30T08:39:13.000Z</time>
      </trkpt>
      <trkpt lat="47.87002" lon="2.17503">
        <ele>125</ele>
        <time>2016-10-30T08:39:14.000Z</time>
      </trkpt>
      <trkpt lat="47.87002" lon="2.17499">
        <ele>125</ele>
        <time>2016-10-30T08:39:15.000Z</time>
      </trkpt>
      <trkpt lat="47.87003" lon="2.17495">
        <ele>125</ele>
        <time>2016-10-30T08:39:16.000Z</time>
      </trkpt>
      <trkpt lat="47.87004" lon="2.1749">
        <ele>125</ele>
        <time>2016-10-30T08:39:17.000Z</time>
      </trkpt>
      <trkpt lat="47.87004" lon="2.17486">
        <ele>125</ele>
        <time>2016-10-30T08:39:18.000Z</time>
      </trkpt>
      <trkpt lat="47.87005" lon="2.17482">
        <ele>125</ele>
        <time>2016-10-30T08:39:19.000Z</time>
      </trkpt>
      <trkpt lat="47.87006" lon="2.17478">
        <ele>125</ele>
        <time>2016-10-30T08:39:20.000Z</time>
      </trkpt>
      <trkpt lat="47.87007" lon="2.17475">
        <ele>126</ele>
        <time>2016-10-30T08:39:21.000Z</time>
      </trkpt>
      <trkpt lat="47.87008" lon="2.17471">
        <ele>126</ele>
        <time>2016-10-30T08:39:22.000Z</time>
      </trkpt>
      <trkpt lat="47.87009" lon="2.17467">
        <ele>126</ele>
        <time>2016-10-30T08:39:23.000Z</time>
      </trkpt>
      <trkpt lat="47.8701" lon="2.17463">
        <ele>126</ele>
        <time>2016-10-30T08:39:24.000Z</time>
      </trkpt>
      <trkpt lat="47.8701" lon="2.17459">
        <ele>126</ele>
        <time>2016-10-30T08:39:25.000Z</time>
      </trkpt>
      <trkpt lat="47.87011" lon="2.17454">
        <ele>125</ele>
        <time>2016-10-30T08:39:26.000Z</time>
      </trkpt>
      <trkpt lat="47.87012" lon="2.1745">
        <ele>125</ele>
        <time>2016-10-30T08:39:27.000Z</time>
      </trkpt>
      <trkpt lat="47.87013" lon="2.17446">
        <ele>125</ele>
        <time>2016-10-30T08:39:28.000Z</time>
      </trkpt>
      <trkpt lat="47.87014" lon="2.17441">
        <ele>124</ele>
        <time>2016-10-30T08:39:29.000Z</time>
      </trkpt>
      <trkpt lat="47.87015" lon="2.17437">
        <ele>124</ele>
        <time>2016-10-30T08:39:30.000Z</time>
      </trkpt>
      <trkpt lat="47.87015" lon="2.17432">
        <ele>124</ele>
        <time>2016-10-30T08:39:31.000Z</time>
      </trkpt>
      <trkpt lat="47.87016" lon="2.17427">
        <ele>124</ele>
        <time>2016-10-30T08:39:32.000Z</time>
      </trkpt>
      <trkpt lat="47.87017" lon="2.17422">
        <ele>123</ele>
        <time>2016-10-30T08:39:33.000Z</time>
      </trkpt>
      <trkpt lat="47.87018" lon="2.17418">
        <ele>123</ele>
        <time>2016-10-30T08:39:34.000Z</time>
      </trkpt>
      <trkpt lat="47.87019" lon="2.17414">
        <ele>123</ele>
        <time>2016-10-30T08:39:35.000Z</time>
      </trkpt>
      <trkpt lat="47.8702" lon="2.1741">
        <ele>122</ele>
        <time>2016-10-30T08:39:36.000Z</time>
      </trkpt>
      <trkpt lat="47.87021" lon="2.17405">
        <ele>122</ele>
        <time>2016-10-30T08:39:37.000Z</time>
      </trkpt>
      <trkpt lat="47.87021" lon="2.174">
        <ele>122</ele>
        <time>2016-10-30T08:39:38.000Z</time>
      </trkpt>
      <trkpt lat="47.87022" lon="2.17395">
        <ele>122</ele>
        <time>2016-10-30T08:39:39.000Z</time>
      </trkpt>
      <trkpt lat="47.87023" lon="2.1739">
        <ele>122</ele>
        <time>2016-10-30T08:39:40.000Z</time>
      </trkpt>
      <trkpt lat="47.87023" lon="2.17384">
        <ele>122</ele>
        <time>2016-10-30T08:39:41.000Z</time>
      </trkpt>
      <trkpt lat="47.87024" lon="2.17378">
        <ele>122</ele>
        <time>2016-10-30T08:39:42.000Z</time>
      </trkpt>
      <trkpt lat="47.87025" lon="2.17372">
        <ele>122</ele>
        <time>2016-10-30T08:39:43.000Z</time>
      </trkpt>
      <trkpt lat="47.87025" lon="2.17366">
        <ele>122</ele>
        <time>2016-10-30T08:39:44.000Z</time>
      </trkpt>
      <trkpt lat="47.87026" lon="2.17359">
        <ele>121</ele>
        <time>2016-10-30T08:39:45.000Z</time>
      </trkpt>
      <trkpt lat="47.87026" lon="2.17353">
        <ele>122</ele>
        <time>2016-10-30T08:39:46.000Z</time>
      </trkpt>
      <trkpt lat="47.87026" lon="2.17346">
        <ele>122</ele>
        <time>2016-10-30T08:39:47.000Z</time>
      </trkpt>
      <trkpt lat="47.87026" lon="2.17339">
        <ele>123</ele>
        <time>2016-10-30T08:39:48.000Z</time>
      </trkpt>
      <trkpt lat="47.87026" lon="2.17332">
        <ele>124</ele>
        <time>2016-10-30T08:39:49.000Z</time>
      </trkpt>
      <trkpt lat="47.87027" lon="2.17326">
        <ele>124</ele>
        <time>2016-10-30T08:39:50.000Z</time>
      </trkpt>
      <trkpt lat="47.87028" lon="2.17319">
        <ele>124</ele>
        <time>2016-10-30T08:39:51.000Z</time>
      </trkpt>
      <trkpt lat="47.87029" lon="2.17312">
        <ele>124</ele>
        <time>2016-10-30T08:39:52.000Z</time>
      </trkpt>
      <trkpt lat="47.8703" lon="2.17304">
        <ele>124</ele>
        <time>2016-10-30T08:39:53.000Z</time>
      </trkpt>
      <trkpt lat="47.87031" lon="2.17297">
        <ele>124</ele>
        <time>2016-10-30T08:39:54.000Z</time>
      </trkpt>
      <trkpt lat="47.87032" lon="2.17289">
        <ele>124</ele>
        <time>2016-10-30T08:39:55.000Z</time>
      </trkpt>
      <trkpt lat="47.87033" lon="2.1728">
        <ele>124</ele>
        <time>2016-10-30T08:39:56.000Z</time>
      </trkpt>
      <trkpt lat="47.87034" lon="2.17272">
        <ele>124</ele>
        <time>2016-10-30T08:39:57.000Z</time>
      </trkpt>
      <trkpt lat="47.87035" lon="2.17264">
        <ele>124</ele>
        <time>2016-10-30T08:39:58.000Z</time>
      </trkpt>
      <trkpt lat="47.87036" lon="2.17255">
        <ele>124</ele>
        <time>2016-10-30T08:39:59.000Z</time>
      </trkpt>
      <trkpt lat="47.87037" lon="2.17247">
        <ele>124</ele>
        <time>2016-10-30T08:40:00.000Z</time>
      </trkpt>
      <trkpt lat="47.87039" lon="2.1724">
        <ele>124</ele>
        <time>2016-10-30T08:40:01.000Z</time>
      </trkpt>
      <trkpt lat="47.87041" lon="2.17233">
        <ele>124</ele>
        <time>2016-10-30T08:40:02.000Z</time>
      </trkpt>
      <trkpt lat="47.87042" lon="2.17226">
        <ele>124</ele>
        <time>2016-10-30T08:40:03.000Z</time>
      </trkpt>
      <trkpt lat="47.87043" lon="2.17218">
        <ele>124</ele>
        <time>2016-10-30T08:40:04.000Z</time>
      </trkpt>
      <trkpt lat="47.87044" lon="2.17211">
        <ele>124</ele>
        <time>2016-10-30T08:40:05.000Z</time>
      </trkpt>
      <trkpt lat="47.87045" lon="2.17203">
        <ele>124</ele>
        <time>2016-10-30T08:40:06.000Z</time>
      </trkpt>
      <trkpt lat="47.87046" lon="2.17195">
        <ele>124</ele>
        <time>2016-10-30T08:40:07.000Z</time>
      </trkpt>
      <trkpt lat="47.87046" lon="2.17185">
        <ele>124</ele>
        <time>2016-10-30T08:40:08.000Z</time>
      </trkpt>
      <trkpt lat="47.87047" lon="2.17175">
        <ele>124</ele>
        <time>2016-10-30T08:40:09.000Z</time>
      </trkpt>
      <trkpt lat="47.87049" lon="2.17165">
        <ele>124</ele>
        <time>2016-10-30T08:40:10.000Z</time>
      </trkpt>
      <trkpt lat="47.87051" lon="2.17156">
        <ele>124</ele>
        <time>2016-10-30T08:40:11.000Z</time>
      </trkpt>
      <trkpt lat="47.87052" lon="2.17146">
        <ele>124</ele>
        <time>2016-10-30T08:40:12.000Z</time>
      </trkpt>
      <trkpt lat="47.87054" lon="2.17136">
        <ele>124</ele>
        <time>2016-10-30T08:40:13.000Z</time>
      </trkpt>
      <trkpt lat="47.87056" lon="2.17126">
        <ele>124</ele>
        <time>2016-10-30T08:40:14.000Z</time>
      </trkpt>
      <trkpt lat="47.87058" lon="2.17117">
        <ele>123</ele>
        <time>2016-10-30T08:40:15.000Z</time>
      </trkpt>
      <trkpt lat="47.8706" lon="2.17106">
        <ele>122</ele>
        <time>2016-10-30T08:40:16.000Z</time>
      </trkpt>
      <trkpt lat="47.87062" lon="2.17096">
        <ele>123</ele>
        <time>2016-10-30T08:40:17.000Z</time>
      </trkpt>
      <trkpt lat="47.87064" lon="2.17086">
        <ele>123</ele>
        <time>2016-10-30T08:40:18.000Z</time>
      </trkpt>
      <trkpt lat="47.87066" lon="2.17076">
        <ele>123</ele>
        <time>2016-10-30T08:40:19.000Z</time>
      </trkpt>
      <trkpt lat="47.87068" lon="2.17068">
        <ele>124</ele>
        <time>2016-10-30T08:40:20.000Z</time>
      </trkpt>
      <trkpt lat="47.87069" lon="2.17058">
        <ele>125</ele>
        <time>2016-10-30T08:40:21.000Z</time>
      </trkpt>
      <trkpt lat="47.8707" lon="2.17049">
        <ele>125</ele>
        <time>2016-10-30T08:40:22.000Z</time>
      </trkpt>
      <trkpt lat="47.87072" lon="2.17039">
        <ele>125</ele>
        <time>2016-10-30T08:40:23.000Z</time>
      </trkpt>
      <trkpt lat="47.87074" lon="2.1703">
        <ele>125</ele>
        <time>2016-10-30T08:40:24.000Z</time>
      </trkpt>
      <trkpt lat="47.87076" lon="2.17021">
        <ele>125</ele>
        <time>2016-10-30T08:40:25.000Z</time>
      </trkpt>
      <trkpt lat="47.87078" lon="2.17013">
        <ele>126</ele>
        <time>2016-10-30T08:40:26.000Z</time>
      </trkpt>
      <trkpt lat="47.87079" lon="2.17004">
        <ele>126</ele>
        <time>2016-10-30T08:40:27.000Z</time>
      </trkpt>
      <trkpt lat="47.87081" lon="2.16995">
        <ele>126</ele>
        <time>2016-10-30T08:40:28.000Z</time>
      </trkpt>
      <trkpt lat="47.87083" lon="2.16986">
        <ele>126</ele>
        <time>2016-10-30T08:40:29.000Z</time>
      </trkpt>
      <trkpt lat="47.87085" lon="2.16977">
        <ele>126</ele>
        <time>2016-10-30T08:40:30.000Z</time>
      </trkpt>
      <trkpt lat="47.87087" lon="2.16967">
        <ele>125</ele>
        <time>2016-10-30T08:40:31.000Z</time>
      </trkpt>
      <trkpt lat="47.87089" lon="2.16957">
        <ele>125</ele>
        <time>2016-10-30T08:40:32.000Z</time>
      </trkpt>
      <trkpt lat="47.8709" lon="2.16947">
        <ele>125</ele>
        <time>2016-10-30T08:40:33.000Z</time>
      </trkpt>
      <trkpt lat="47.87092" lon="2.16938">
        <ele>124</ele>
        <time>2016-10-30T08:40:34.000Z</time>
      </trkpt>
      <trkpt lat="47.87093" lon="2.1693">
        <ele>124</ele>
        <time>2016-10-30T08:40:35.000Z</time>
      </trkpt>
      <trkpt lat="47.87094" lon="2.16922">
        <ele>124</ele>
        <time>2016-10-30T08:40:36.000Z</time>
      </trkpt>
      <trkpt lat="47.87095" lon="2.16914">
        <ele>124</ele>
        <time>2016-10-30T08:40:37.000Z</time>
      </trkpt>
      <trkpt lat="47.87096" lon="2.16906">
        <ele>124</ele>
        <time>2016-10-30T08:40:38.000Z</time>
      </trkpt>
      <trkpt lat="47.87097" lon="2.16898">
        <ele>123</ele>
        <time>2016-10-30T08:40:39.000Z</time>
      </trkpt>
      <trkpt lat="47.87099" lon="2.16891">
        <ele>123</ele>
        <time>2016-10-30T08:40:40.000Z</time>
      </trkpt>
      <trkpt lat="47.871" lon="2.16882">
        <ele>123</ele>
        <time>2016-10-30T08:40:41.000Z</time>
      </trkpt>
      <trkpt lat="47.87101" lon="2.16873">
        <ele>123</ele>
        <time>2016-10-30T08:40:42.000Z</time>
      </trkpt>
      <trkpt lat="47.87102" lon="2.16864">
        <ele>122</ele>
        <time>2016-10-30T08:40:43.000Z</time>
      </trkpt>
      <trkpt lat="47.87103" lon="2.16856">
        <ele>122</ele>
        <time>2016-10-30T08:40:44.000Z</time>
      </trkpt>
      <trkpt lat="47.87105" lon="2.16848">
        <ele>122</ele>
        <time>2016-10-30T08:40:45.000Z</time>
      </trkpt>
      <trkpt lat="47.87106" lon="2.16841">
        <ele>123</ele>
        <time>2016-10-30T08:40:46.000Z</time>
      </trkpt>
      <trkpt lat="47.87107" lon="2.16833">
        <ele>124</ele>
        <time>2016-10-30T08:40:47.000Z</time>
      </trkpt>
      <trkpt lat="47.87108" lon="2.16825">
        <ele>124</ele>
        <time>2016-10-30T08:40:48.000Z</time>
      </trkpt>
      <trkpt lat="47.87109" lon="2.16817">
        <ele>125</ele>
        <time>2016-10-30T08:40:49.000Z</time>
      </trkpt>
      <trkpt lat="47.8711" lon="2.16808">
        <ele>125</ele>
        <time>2016-10-30T08:40:50.000Z</time>
      </trkpt>
      <trkpt lat="47.87111" lon="2.16798">
        <ele>124</ele>
        <time>2016-10-30T08:40:51.000Z</time>
      </trkpt>
      <trkpt lat="47.87112" lon="2.16788">
        <ele>124</ele>
        <time>2016-10-30T08:40:52.000Z</time>
      </trkpt>
      <trkpt lat="47.87113" lon="2.16778">
        <ele>124</ele>
        <time>2016-10-30T08:40:53.000Z</time>
      </trkpt>
      <trkpt lat="47.87114" lon="2.16768">
        <ele>123</ele>
        <time>2016-10-30T08:40:54.000Z</time>
      </trkpt>
      <trkpt lat="47.87115" lon="2.16758">
        <ele>123</ele>
        <time>2016-10-30T08:40:55.000Z</time>
      </trkpt>
      <trkpt lat="47.87115" lon="2.16747">
        <ele>122</ele>
        <time>2016-10-30T08:40:56.000Z</time>
      </trkpt>
      <trkpt lat="47.87116" lon="2.16737">
        <ele>122</ele>
        <time>2016-10-30T08:40:57.000Z</time>
      </trkpt>
      <trkpt lat="47.87117" lon="2.16727">
        <ele>121</ele>
        <time>2016-10-30T08:40:58.000Z</time>
      </trkpt>
      <trkpt lat="47.87118" lon="2.16718">
        <ele>120</ele>
        <time>2016-10-30T08:40:59.000Z</time>
      </trkpt>
      <trkpt lat="47.87119" lon="2.16708">
        <ele>120</ele>
        <time>2016-10-30T08:41:00.000Z</time>
      </trkpt>
      <trkpt lat="47.87121" lon="2.16699">
        <ele>121</ele>
        <time>2016-10-30T08:41:01.000Z</time>
      </trkpt>
      <trkpt lat="47.87123" lon="2.16691">
        <ele>121</ele>
        <time>2016-10-30T08:41:02.000Z</time>
      </trkpt>
      <trkpt lat="47.87124" lon="2.16683">
        <ele>121</ele>
        <time>2016-10-30T08:41:03.000Z</time>
      </trkpt>
      <trkpt lat="47.87126" lon="2.16675">
        <ele>121</ele>
        <time>2016-10-30T08:41:04.000Z</time>
      </trkpt>
      <trkpt lat="47.87128" lon="2.16668">
        <ele>122</ele>
        <time>2016-10-30T08:41:05.000Z</time>
      </trkpt>
      <trkpt lat="47.8713" lon="2.1666">
        <ele>122</ele>
        <time>2016-10-30T08:41:06.000Z</time>
      </trkpt>
      <trkpt lat="47.87132" lon="2.16653">
        <ele>123</ele>
        <time>2016-10-30T08:41:07.000Z</time>
      </trkpt>
      <trkpt lat="47.87134" lon="2.16646">
        <ele>123</ele>
        <time>2016-10-30T08:41:08.000Z</time>
      </trkpt>
      <trkpt lat="47.87135" lon="2.16638">
        <ele>124</ele>
        <time>2016-10-30T08:41:09.000Z</time>
      </trkpt>
      <trkpt lat="47.87136" lon="2.16631">
        <ele>123</ele>
        <time>2016-10-30T08:41:10.000Z</time>
      </trkpt>
      <trkpt lat="47.87138" lon="2.16625">
        <ele>124</ele>
        <time>2016-10-30T08:41:11.000Z</time>
      </trkpt>
      <trkpt lat="47.8714" lon="2.16619">
        <ele>124</ele>
        <time>2016-10-30T08:41:12.000Z</time>
      </trkpt>
      <trkpt lat="47.87142" lon="2.16613">
        <ele>124</ele>
        <time>2016-10-30T08:41:13.000Z</time>
      </trkpt>
      <trkpt lat="47.87145" lon="2.16606">
        <ele>124</ele>
        <time>2016-10-30T08:41:14.000Z</time>
      </trkpt>
      <trkpt lat="47.87147" lon="2.16599">
        <ele>125</ele>
        <time>2016-10-30T08:41:15.000Z</time>
      </trkpt>
      <trkpt lat="47.8715" lon="2.16592">
        <ele>126</ele>
        <time>2016-10-30T08:41:16.000Z</time>
      </trkpt>
      <trkpt lat="47.87153" lon="2.16584">
        <ele>126</ele>
        <time>2016-10-30T08:41:17.000Z</time>
      </trkpt>
      <trkpt lat="47.87155" lon="2.16577">
        <ele>127</ele>
        <time>2016-10-30T08:41:18.000Z</time>
      </trkpt>
      <trkpt lat="47.87158" lon="2.16569">
        <ele>127</ele>
        <time>2016-10-30T08:41:19.000Z</time>
      </trkpt>
      <trkpt lat="47.87161" lon="2.16562">
        <ele>126</ele>
        <time>2016-10-30T08:41:20.000Z</time>
      </trkpt>
      <trkpt lat="47.87163" lon="2.16555">
        <ele>126</ele>
        <time>2016-10-30T08:41:21.000Z</time>
      </trkpt>
      <trkpt lat="47.87166" lon="2.16547">
        <ele>126</ele>
        <time>2016-10-30T08:41:22.000Z</time>
      </trkpt>
      <trkpt lat="47.87169" lon="2.1654">
        <ele>126</ele>
        <time>2016-10-30T08:41:23.000Z</time>
      </trkpt>
      <trkpt lat="47.87171" lon="2.16534">
        <ele>126</ele>
        <time>2016-10-30T08:41:24.000Z</time>
      </trkpt>
      <trkpt lat="47.87173" lon="2.16527">
        <ele>126</ele>
        <time>2016-10-30T08:41:25.000Z</time>
      </trkpt>
      <trkpt lat="47.87174" lon="2.16521">
        <ele>127</ele>
        <time>2016-10-30T08:41:26.000Z</time>
      </trkpt>
      <trkpt lat="47.87177" lon="2.16514">
        <ele>127</ele>
        <time>2016-10-30T08:41:27.000Z</time>
      </trkpt>
      <trkpt lat="47.87179" lon="2.16507">
        <ele>127</ele>
        <time>2016-10-30T08:41:28.000Z</time>
      </trkpt>
      <trkpt lat="47.87181" lon="2.165">
        <ele>128</ele>
        <time>2016-10-30T08:41:29.000Z</time>
      </trkpt>
      <trkpt lat="47.87183" lon="2.16493">
        <ele>128</ele>
        <time>2016-10-30T08:41:30.000Z</time>
      </trkpt>
      <trkpt lat="47.87186" lon="2.16486">
        <ele>128</ele>
        <time>2016-10-30T08:41:31.000Z</time>
      </trkpt>
      <trkpt lat="47.87188" lon="2.16479">
        <ele>129</ele>
        <time>2016-10-30T08:41:32.000Z</time>
      </trkpt>
      <trkpt lat="47.8719" lon="2.16473">
        <ele>129</ele>
        <time>2016-10-30T08:41:33.000Z</time>
      </trkpt>
      <trkpt lat="47.87193" lon="2.16467">
        <ele>129</ele>
        <time>2016-10-30T08:41:34.000Z</time>
      </trkpt>
      <trkpt lat="47.87195" lon="2.1646">
        <ele>130</ele>
        <time>2016-10-30T08:41:35.000Z</time>
      </trkpt>
      <trkpt lat="47.87197" lon="2.16452">
        <ele>130</ele>
        <time>2016-10-30T08:41:36.000Z</time>
      </trkpt>
      <trkpt lat="47.872" lon="2.16445">
        <ele>129</ele>
        <time>2016-10-30T08:41:37.000Z</time>
      </trkpt>
      <trkpt lat="47.87203" lon="2.16439">
        <ele>129</ele>
        <time>2016-10-30T08:41:38.000Z</time>
      </trkpt>
      <trkpt lat="47.87206" lon="2.16432">
        <ele>129</ele>
        <time>2016-10-30T08:41:39.000Z</time>
      </trkpt>
      <trkpt lat="47.87208" lon="2.16425">
        <ele>130</ele>
        <time>2016-10-30T08:41:40.000Z</time>
      </trkpt>
      <trkpt lat="47.87211" lon="2.16417">
        <ele>131</ele>
        <time>2016-10-30T08:41:41.000Z</time>
      </trkpt>
      <trkpt lat="47.87214" lon="2.16409">
        <ele>130</ele>
        <time>2016-10-30T08:41:42.000Z</time>
      </trkpt>
      <trkpt lat="47.87217" lon="2.16402">
        <ele>130</ele>
        <time>2016-10-30T08:41:43.000Z</time>
      </trkpt>
      <trkpt lat="47.87219" lon="2.16395">
        <ele>130</ele>
        <time>2016-10-30T08:41:44.000Z</time>
      </trkpt>
      <trkpt lat="47.87222" lon="2.16388">
        <ele>131</ele>
        <time>2016-10-30T08:41:45.000Z</time>
      </trkpt>
      <trkpt lat="47.87224" lon="2.16382">
        <ele>132</ele>
        <time>2016-10-30T08:41:46.000Z</time>
      </trkpt>
      <trkpt lat="47.87227" lon="2.16375">
        <ele>132</ele>
        <time>2016-10-30T08:41:47.000Z</time>
      </trkpt>
      <trkpt lat="47.8723" lon="2.16368">
        <ele>132</ele>
        <time>2016-10-30T08:41:48.000Z</time>
      </trkpt>
      <trkpt lat="47.87233" lon="2.16361">
        <ele>132</ele>
        <time>2016-10-30T08:41:49.000Z</time>
      </trkpt>
      <trkpt lat="47.87235" lon="2.16353">
        <ele>132</ele>
        <time>2016-10-30T08:41:50.000Z</time>
      </trkpt>
      <trkpt lat="47.87238" lon="2.16345">
        <ele>131</ele>
        <time>2016-10-30T08:41:51.000Z</time>
      </trkpt>
      <trkpt lat="47.8724" lon="2.16337">
        <ele>130</ele>
        <time>2016-10-30T08:41:52.000Z</time>
      </trkpt>
      <trkpt lat="47.87243" lon="2.16329">
        <ele>130</ele>
        <time>2016-10-30T08:41:53.000Z</time>
      </trkpt>
      <trkpt lat="47.87245" lon="2.16321">
        <ele>130</ele>
        <time>2016-10-30T08:41:54.000Z</time>
      </trkpt>
      <trkpt lat="47.87247" lon="2.16312">
        <ele>130</ele>
        <time>2016-10-30T08:41:55.000Z</time>
      </trkpt>
      <trkpt lat="47.87251" lon="2.16304">
        <ele>130</ele>
        <time>2016-10-30T08:41:56.000Z</time>
      </trkpt>
      <trkpt lat="47.87255" lon="2.16295">
        <ele>130</ele>
        <time>2016-10-30T08:41:57.000Z</time>
      </trkpt>
      <trkpt lat="47.87259" lon="2.16287">
        <ele>129</ele>
        <time>2016-10-30T08:41:58.000Z</time>
      </trkpt>
      <trkpt lat="47.87263" lon="2.1628">
        <ele>129</ele>
        <time>2016-10-30T08:41:59.000Z</time>
      </trkpt>
      <trkpt lat="47.87266" lon="2.16272">
        <ele>129</ele>
        <time>2016-10-30T08:42:00.000Z</time>
      </trkpt>
      <trkpt lat="47.87269" lon="2.16265">
        <ele>128</ele>
        <time>2016-10-30T08:42:01.000Z</time>
      </trkpt>
      <trkpt lat="47.87271" lon="2.16257">
        <ele>127</ele>
        <time>2016-10-30T08:42:02.000Z</time>
      </trkpt>
      <trkpt lat="47.87274" lon="2.1625">
        <ele>127</ele>
        <time>2016-10-30T08:42:03.000Z</time>
      </trkpt>
      <trkpt lat="47.87277" lon="2.16243">
        <ele>126</ele>
        <time>2016-10-30T08:42:04.000Z</time>
      </trkpt>
      <trkpt lat="47.8728" lon="2.16236">
        <ele>125</ele>
        <time>2016-10-30T08:42:05.000Z</time>
      </trkpt>
      <trkpt lat="47.87285" lon="2.16229">
        <ele>124</ele>
        <time>2016-10-30T08:42:06.000Z</time>
      </trkpt>
      <trkpt lat="47.87288" lon="2.16221">
        <ele>123</ele>
        <time>2016-10-30T08:42:07.000Z</time>
      </trkpt>
      <trkpt lat="47.87292" lon="2.16213">
        <ele>122</ele>
        <time>2016-10-30T08:42:08.000Z</time>
      </trkpt>
      <trkpt lat="47.87295" lon="2.16205">
        <ele>121</ele>
        <time>2016-10-30T08:42:09.000Z</time>
      </trkpt>
      <trkpt lat="47.87297" lon="2.16198">
        <ele>121</ele>
        <time>2016-10-30T08:42:10.000Z</time>
      </trkpt>
      <trkpt lat="47.87299" lon="2.1619">
        <ele>121</ele>
        <time>2016-10-30T08:42:11.000Z</time>
      </trkpt>
      <trkpt lat="47.87303" lon="2.16181">
        <ele>120</ele>
        <time>2016-10-30T08:42:12.000Z</time>
      </trkpt>
      <trkpt lat="47.87307" lon="2.16173">
        <ele>119</ele>
        <time>2016-10-30T08:42:13.000Z</time>
      </trkpt>
      <trkpt lat="47.87311" lon="2.16165">
        <ele>119</ele>
        <time>2016-10-30T08:42:14.000Z</time>
      </trkpt>
      <trkpt lat="47.87316" lon="2.16158">
        <ele>119</ele>
        <time>2016-10-30T08:42:15.000Z</time>
      </trkpt>
      <trkpt lat="47.87319" lon="2.16152">
        <ele>119</ele>
        <time>2016-10-30T08:42:16.000Z</time>
      </trkpt>
      <trkpt lat="47.87324" lon="2.16145">
        <ele>118</ele>
        <time>2016-10-30T08:42:17.000Z</time>
      </trkpt>
      <trkpt lat="47.87327" lon="2.16139">
        <ele>119</ele>
        <time>2016-10-30T08:42:18.000Z</time>
      </trkpt>
      <trkpt lat="47.8733" lon="2.16132">
        <ele>120</ele>
        <time>2016-10-30T08:42:19.000Z</time>
      </trkpt>
      <trkpt lat="47.87332" lon="2.16125">
        <ele>120</ele>
        <time>2016-10-30T08:42:20.000Z</time>
      </trkpt>
      <trkpt lat="47.87333" lon="2.16118">
        <ele>120</ele>
        <time>2016-10-30T08:42:21.000Z</time>
      </trkpt>
      <trkpt lat="47.87334" lon="2.16112">
        <ele>121</ele>
        <time>2016-10-30T08:42:22.000Z</time>
      </trkpt>
      <trkpt lat="47.87335" lon="2.16107">
        <ele>120</ele>
        <time>2016-10-30T08:42:23.000Z</time>
      </trkpt>
      <trkpt lat="47.87337" lon="2.16101">
        <ele>120</ele>
        <time>2016-10-30T08:42:24.000Z</time>
      </trkpt>
      <trkpt lat="47.87339" lon="2.16096">
        <ele>120</ele>
        <time>2016-10-30T08:42:25.000Z</time>
      </trkpt>
      <trkpt lat="47.87342" lon="2.1609">
        <ele>121</ele>
        <time>2016-10-30T08:42:26.000Z</time>
      </trkpt>
      <trkpt lat="47.87345" lon="2.16085">
        <ele>121</ele>
        <time>2016-10-30T08:42:27.000Z</time>
      </trkpt>
      <trkpt lat="47.87348" lon="2.16079">
        <ele>122</ele>
        <time>2016-10-30T08:42:28.000Z</time>
      </trkpt>
      <trkpt lat="47.8735" lon="2.16072">
        <ele>122</ele>
        <time>2016-10-30T08:42:29.000Z</time>
      </trkpt>
      <trkpt lat="47.87352" lon="2.16066">
        <ele>122</ele>
        <time>2016-10-30T08:42:30.000Z</time>
      </trkpt>
      <trkpt lat="47.87355" lon="2.1606">
        <ele>122</ele>
        <time>2016-10-30T08:42:31.000Z</time>
      </trkpt>
      <trkpt lat="47.87357" lon="2.16055">
        <ele>122</ele>
        <time>2016-10-30T08:42:32.000Z</time>
      </trkpt>
      <trkpt lat="47.8736" lon="2.16049">
        <ele>122</ele>
        <time>2016-10-30T08:42:33.000Z</time>
      </trkpt>
      <trkpt lat="47.87362" lon="2.16045">
        <ele>123</ele>
        <time>2016-10-30T08:42:34.000Z</time>
      </trkpt>
      <trkpt lat="47.87364" lon="2.16042">
        <ele>122</ele>
        <time>2016-10-30T08:42:35.000Z</time>
      </trkpt>
      <trkpt lat="47.87365" lon="2.16038">
        <ele>122</ele>
        <time>2016-10-30T08:42:36.000Z</time>
      </trkpt>
      <trkpt lat="47.87367" lon="2.16035">
        <ele>123</ele>
        <time>2016-10-30T08:42:37.000Z</time>
      </trkpt>
      <trkpt lat="47.87368" lon="2.16032">
        <ele>123</ele>
        <time>2016-10-30T08:42:38.000Z</time>
      </trkpt>
      <trkpt lat="47.87368" lon="2.16029">
        <ele>123</ele>
        <time>2016-10-30T08:42:39.000Z</time>
      </trkpt>
      <trkpt lat="47.87369" lon="2.16027">
        <ele>123</ele>
        <time>2016-10-30T08:42:40.000Z</time>
      </trkpt>
      <trkpt lat="47.87369" lon="2.16026">
        <ele>124</ele>
        <time>2016-10-30T08:42:41.000Z</time>
      </trkpt>
      <trkpt lat="47.8737" lon="2.16025">
        <ele>124</ele>
        <time>2016-10-30T08:42:42.000Z</time>
      </trkpt>
      <trkpt lat="47.87371" lon="2.16024">
        <ele>124</ele>
        <time>2016-10-30T08:42:43.000Z</time>
      </trkpt>
      <trkpt lat="47.87371" lon="2.16023">
        <ele>123</ele>
        <time>2016-10-30T08:42:44.000Z</time>
      </trkpt>
      <trkpt lat="47.87372" lon="2.16023">
        <ele>123</ele>
        <time>2016-10-30T08:42:45.000Z</time>
      </trkpt>
      <trkpt lat="47.87372" lon="2.16022">
        <ele>123</ele>
        <time>2016-10-30T08:42:46.000Z</time>
      </trkpt>
      <trkpt lat="47.87373" lon="2.16021">
        <ele>124</ele>
        <time>2016-10-30T08:42:47.000Z</time>
      </trkpt>
      <trkpt lat="47.87373" lon="2.16021">
        <ele>124</ele>
        <time>2016-10-30T08:42:48.000Z</time>
      </trkpt>
      <trkpt lat="47.87374" lon="2.1602">
        <ele>124</ele>
        <time>2016-10-30T08:42:49.000Z</time>
      </trkpt>
      <trkpt lat="47.87374" lon="2.16019">
        <ele>124</ele>
        <time>2016-10-30T08:42:50.000Z</time>
      </trkpt>
      <trkpt lat="47.87375" lon="2.16019">
        <ele>124</ele>
        <time>2016-10-30T08:42:51.000Z</time>
      </trkpt>
      <trkpt lat="47.87375" lon="2.16018">
        <ele>124</ele>
        <time>2016-10-30T08:42:52.000Z</time>
      </trkpt>
      <trkpt lat="47.87376" lon="2.16018">
        <ele>124</ele>
        <time>2016-10-30T08:42:53.000Z</time>
      </trkpt>
      <trkpt lat="47.87376" lon="2.16017">
        <ele>124</ele>
        <time>2016-10-30T08:42:54.000Z</time>
      </trkpt>
      <trkpt lat="47.87376" lon="2.16017">
        <ele>124</ele>
        <time>2016-10-30T08:42:55.000Z</time>
      </trkpt>
      <trkpt lat="47.87377" lon="2.16017">
        <ele>124</ele>
        <time>2016-10-30T08:42:56.000Z</time>
      </trkpt>
      <trkpt lat="47.87377" lon="2.16016">
        <ele>125</ele>
        <time>2016-10-30T08:42:57.000Z</time>
      </trkpt>
      <trkpt lat="47.87378" lon="2.16016">
        <ele>125</ele>
        <time>2016-10-30T08:42:58.000Z</time>
      </trkpt>
      <trkpt lat="47.87379" lon="2.16016">
        <ele>126</ele>
        <time>2016-10-30T08:42:59.000Z</time>
      </trkpt>
      <trkpt lat="47.87379" lon="2.16015">
        <ele>126</ele>
        <time>2016-10-30T08:43:00.000Z</time>
      </trkpt>
      <trkpt lat="47.8738" lon="2.16015">
        <ele>127</ele>
        <time>2016-10-30T08:43:01.000Z</time>
      </trkpt>
      <trkpt lat="47.8738" lon="2.16015">
        <ele>127</ele>
        <time>2016-10-30T08:43:02.000Z</time>
      </trkpt>
      <trkpt lat="47.8738" lon="2.16015">
        <ele>127</ele>
        <time>2016-10-30T08:43:03.000Z</time>
      </trkpt>
      <trkpt lat="47.8738" lon="2.16015">
        <ele>127</ele>
        <time>2016-10-30T08:43:04.000Z</time>
      </trkpt>
      <trkpt lat="47.87381" lon="2.16014">
        <ele>127</ele>
        <time>2016-10-30T08:43:05.000Z</time>
      </trkpt>
      <trkpt lat="47.87381" lon="2.16014">
        <ele>127</ele>
        <time>2016-10-30T08:43:06.000Z</time>
      </trkpt>
      <trkpt lat="47.87381" lon="2.16014">
        <ele>127</ele>
        <time>2016-10-30T08:43:07.000Z</time>
      </trkpt>
      <trkpt lat="47.87381" lon="2.16014">
        <ele>127</ele>
        <time>2016-10-30T08:43:08.000Z</time>
      </trkpt>
      <trkpt lat="47.87381" lon="2.16014">
        <ele>127</ele>
        <time>2016-10-30T08:43:09.000Z</time>
      </trkpt>
      <trkpt lat="47.87382" lon="2.16013">
        <ele>127</ele>
        <time>2016-10-30T08:43:10.000Z</time>
      </trkpt>
      <trkpt lat="47.87382" lon="2.16013">
        <ele>127</ele>
        <time>2016-10-30T08:43:11.000Z</time>
      </trkpt>
      <trkpt lat="47.87382" lon="2.16013">
        <ele>127</ele>
        <time>2016-10-30T08:43:12.000Z</time>
      </trkpt>
      <trkpt lat="47.87382" lon="2.16013">
        <ele>127</ele>
        <time>2016-10-30T08:43:13.000Z</time>
      </trkpt>
      <trkpt lat="47.87382" lon="2.16013">
        <ele>126</ele>
        <time>2016-10-30T08:43:14.000Z</time>
      </trkpt>
      <trkpt lat="47.87382" lon="2.16013">
        <ele>127</ele>
        <time>2016-10-30T08:43:15.000Z</time>
      </trkpt>
      <trkpt lat="47.87383" lon="2.16013">
        <ele>127</ele>
        <time>2016-10-30T08:43:16.000Z</time>
      </trkpt>
      <trkpt lat="47.87383" lon="2.16013">
        <ele>126</ele>
        <time>2016-10-30T08:43:17.000Z</time>
      </trkpt>
      <trkpt lat="47.87383" lon="2.16012">
        <ele>126</ele>
        <time>2016-10-30T08:43:18.000Z</time>
      </trkpt>
      <trkpt lat="47.87384" lon="2.16012">
        <ele>126</ele>
        <time>2016-10-30T08:43:19.000Z</time>
      </trkpt>
      <trkpt lat="47.87384" lon="2.16012">
        <ele>126</ele>
        <time>2016-10-30T08:43:20.000Z</time>
      </trkpt>
      <trkpt lat="47.87384" lon="2.16012">
        <ele>126</ele>
        <time>2016-10-30T08:43:21.000Z</time>
      </trkpt>
      <trkpt lat="47.87384" lon="2.16012">
        <ele>125</ele>
        <time>2016-10-30T08:43:22.000Z</time>
      </trkpt>
      <trkpt lat="47.87384" lon="2.16012">
        <ele>125</ele>
        <time>2016-10-30T08:43:23.000Z</time>
      </trkpt>
      <trkpt lat="47.87384" lon="2.16012">
        <ele>125</ele>
        <time>2016-10-30T08:43:24.000Z</time>
      </trkpt>
      <trkpt lat="47.87384" lon="2.16012">
        <ele>125</ele>
        <time>2016-10-30T08:43:25.000Z</time>
      </trkpt>
      <trkpt lat="47.87385" lon="2.16012">
        <ele>125</ele>
        <time>2016-10-30T08:43:26.000Z</time>
      </trkpt>
      <trkpt lat="47.87386" lon="2.16011">
        <ele>125</ele>
        <time>2016-10-30T08:43:27.000Z</time>
      </trkpt>
      <trkpt lat="47.87386" lon="2.16011">
        <ele>126</ele>
        <time>2016-10-30T08:43:28.000Z</time>
      </trkpt>
      <trkpt lat="47.87387" lon="2.16011">
        <ele>126</ele>
        <time>2016-10-30T08:43:29.000Z</time>
      </trkpt>
      <trkpt lat="47.87388" lon="2.16011">
        <ele>126</ele>
        <time>2016-10-30T08:43:30.000Z</time>
      </trkpt>
      <trkpt lat="47.87388" lon="2.16011">
        <ele>126</ele>
        <time>2016-10-30T08:43:31.000Z</time>
      </trkpt>
      <trkpt lat="47.87389" lon="2.16011">
        <ele>126</ele>
        <time>2016-10-30T08:43:32.000Z</time>
      </trkpt>
      <trkpt lat="47.87389" lon="2.16011">
        <ele>126</ele>
        <time>2016-10-30T08:43:33.000Z</time>
      </trkpt>
      <trkpt lat="47.87389" lon="2.1601">
        <ele>126</ele>
        <time>2016-10-30T08:43:34.000Z</time>
      </trkpt>
      <trkpt lat="47.87389" lon="2.1601">
        <ele>126</ele>
        <time>2016-10-30T08:43:35.000Z</time>
      </trkpt>
      <trkpt lat="47.87389" lon="2.1601">
        <ele>127</ele>
        <time>2016-10-30T08:43:36.000Z</time>
      </trkpt>
      <trkpt lat="47.87389" lon="2.1601">
        <ele>127</ele>
        <time>2016-10-30T08:43:37.000Z</time>
      </trkpt>
      <trkpt lat="47.87389" lon="2.1601">
        <ele>127</ele>
        <time>2016-10-30T08:43:38.000Z</time>
      </trkpt>
      <trkpt lat="47.8739" lon="2.1601">
        <ele>127</ele>
        <time>2016-10-30T08:43:39.000Z</time>
      </trkpt>
      <trkpt lat="47.8739" lon="2.1601">
        <ele>127</ele>
        <time>2016-10-30T08:43:40.000Z</time>
      </trkpt>
      <trkpt lat="47.8739" lon="2.1601">
        <ele>127</ele>
        <time>2016-10-30T08:43:41.000Z</time>
      </trkpt>
      <trkpt lat="47.8739" lon="2.1601">
        <ele>127</ele>
        <time>2016-10-30T08:43:42.000Z</time>
      </trkpt>
      <trkpt lat="47.8739" lon="2.1601">
        <ele>127</ele>
        <time>2016-10-30T08:43:43.000Z</time>
      </trkpt>
      <trkpt lat="47.8739" lon="2.1601">
        <ele>127</ele>
        <time>2016-10-30T08:43:44.000Z</time>
      </trkpt>
      <trkpt lat="47.8739" lon="2.16009">
        <ele>127</ele>
        <time>2016-10-30T08:43:45.000Z</time>
      </trkpt>
      <trkpt lat="47.8739" lon="2.16009">
        <ele>127</ele>
        <time>2016-10-30T08:43:46.000Z</time>
      </trkpt>
      <trkpt lat="47.8739" lon="2.16009">
        <ele>127</ele>
        <time>2016-10-30T08:43:47.000Z</time>
      </trkpt>
      <trkpt lat="47.8739" lon="2.16009">
        <ele>128</ele>
        <time>2016-10-30T08:43:48.000Z</time>
      </trkpt>
      <trkpt lat="47.8739" lon="2.16009">
        <ele>128</ele>
        <time>2016-10-30T08:43:49.000Z</time>
      </trkpt>
      <trkpt lat="47.8739" lon="2.16009">
        <ele>127</ele>
        <time>2016-10-30T08:43:50.000Z</time>
      </trkpt>
      <trkpt lat="47.8739" lon="2.16009">
        <ele>127</ele>
        <time>2016-10-30T08:43:51.000Z</time>
      </trkpt>
      <trkpt lat="47.8739" lon="2.16009">
        <ele>127</ele>
        <time>2016-10-30T08:43:52.000Z</time>
      </trkpt>
      <trkpt lat="47.8739" lon="2.16008">
        <ele>127</ele>
        <time>2016-10-30T08:43:53.000Z</time>
      </trkpt>
      <trkpt lat="47.8739" lon="2.16008">
        <ele>127</ele>
        <time>2016-10-30T08:43:54.000Z</time>
      </trkpt>
      <trkpt lat="47.8739" lon="2.16008">
        <ele>127</ele>
        <time>2016-10-30T08:43:55.000Z</time>
      </trkpt>
      <trkpt lat="47.8739" lon="2.16008">
        <ele>127</ele>
        <time>2016-10-30T08:43:56.000Z</time>
      </trkpt>
      <trkpt lat="47.8739" lon="2.16007">
        <ele>127</ele>
        <time>2016-10-30T08:43:57.000Z</time>
      </trkpt>
      <trkpt lat="47.8739" lon="2.16007">
        <ele>128</ele>
        <time>2016-10-30T08:43:58.000Z</time>
      </trkpt>
      <trkpt lat="47.8739" lon="2.16007">
        <ele>127</ele>
        <time>2016-10-30T08:43:59.000Z</time>
      </trkpt>
      <trkpt lat="47.8739" lon="2.16007">
        <ele>127</ele>
        <time>2016-10-30T08:44:00.000Z</time>
      </trkpt>
      <trkpt lat="47.8739" lon="2.16007">
        <ele>127</ele>
        <time>2016-10-30T08:44:01.000Z</time>
      </trkpt>
      <trkpt lat="47.8739" lon="2.16007">
        <ele>127</ele>
        <time>2016-10-30T08:44:02.000Z</time>
      </trkpt>
      <trkpt lat="47.87389" lon="2.16007">
        <ele>128</ele>
        <time>2016-10-30T08:44:03.000Z</time>
      </trkpt>
      <trkpt lat="47.87389" lon="2.16007">
        <ele>128</ele>
        <time>2016-10-30T08:44:04.000Z</time>
      </trkpt>
      <trkpt lat="47.87389" lon="2.16007">
        <ele>128</ele>
        <time>2016-10-30T08:44:05.000Z</time>
      </trkpt>
      <trkpt lat="47.8739" lon="2.16007">
        <ele>129</ele>
        <time>2016-10-30T08:44:06.000Z</time>
      </trkpt>
      <trkpt lat="47.8739" lon="2.16007">
        <ele>129</ele>
        <time>2016-10-30T08:44:07.000Z</time>
      </trkpt>
      <trkpt lat="47.87391" lon="2.16007">
        <ele>129</ele>
        <time>2016-10-30T08:44:08.000Z</time>
      </trkpt>
      <trkpt lat="47.87391" lon="2.16006">
        <ele>129</ele>
        <time>2016-10-30T08:44:09.000Z</time>
      </trkpt>
      <trkpt lat="47.87391" lon="2.16006">
        <ele>129</ele>
        <time>2016-10-30T08:44:10.000Z</time>
      </trkpt>
      <trkpt lat="47.87391" lon="2.16006">
        <ele>129</ele>
        <time>2016-10-30T08:44:11.000Z</time>
      </trkpt>
      <trkpt lat="47.87392" lon="2.16006">
        <ele>129</ele>
        <time>2016-10-30T08:44:12.000Z</time>
      </trkpt>
      <trkpt lat="47.87392" lon="2.16005">
        <ele>129</ele>
        <time>2016-10-30T08:44:13.000Z</time>
      </trkpt>
      <trkpt lat="47.87392" lon="2.16005">
        <ele>129</ele>
        <time>2016-10-30T08:44:14.000Z</time>
      </trkpt>
      <trkpt lat="47.87392" lon="2.16004">
        <ele>129</ele>
        <time>2016-10-30T08:44:15.000Z</time>
      </trkpt>
      <trkpt lat="47.87392" lon="2.16004">
        <ele>129</ele>
        <time>2016-10-30T08:44:16.000Z</time>
      </trkpt>
      <trkpt lat="47.87392" lon="2.16004">
        <ele>129</ele>
        <time>2016-10-30T08:44:17.000Z</time>
      </trkpt>
      <trkpt lat="47.87392" lon="2.16003">
        <ele>129</ele>
        <time>2016-10-30T08:44:18.000Z</time>
      </trkpt>
      <trkpt lat="47.87393" lon="2.16003">
        <ele>128</ele>
        <time>2016-10-30T08:44:19.000Z</time>
      </trkpt>
      <trkpt lat="47.87393" lon="2.16003">
        <ele>128</ele>
        <time>2016-10-30T08:44:20.000Z</time>
      </trkpt>
      <trkpt lat="47.87393" lon="2.16002">
        <ele>128</ele>
        <time>2016-10-30T08:44:21.000Z</time>
      </trkpt>
      <trkpt lat="47.87393" lon="2.16002">
        <ele>128</ele>
        <time>2016-10-30T08:44:22.000Z</time>
      </trkpt>
      <trkpt lat="47.87393" lon="2.16002">
        <ele>128</ele>
        <time>2016-10-30T08:44:23.000Z</time>
      </trkpt>
      <trkpt lat="47.87393" lon="2.16002">
        <ele>127</ele>
        <time>2016-10-30T08:44:24.000Z</time>
      </trkpt>
      <trkpt lat="47.87393" lon="2.16002">
        <ele>126</ele>
        <time>2016-10-30T08:44:25.000Z</time>
      </trkpt>
      <trkpt lat="47.87393" lon="2.16002">
        <ele>125</ele>
        <time>2016-10-30T08:44:26.000Z</time>
      </trkpt>
      <trkpt lat="47.87393" lon="2.16002">
        <ele>125</ele>
        <time>2016-10-30T08:44:27.000Z</time>
      </trkpt>
      <trkpt lat="47.87393" lon="2.16003">
        <ele>125</ele>
        <time>2016-10-30T08:44:28.000Z</time>
      </trkpt>
      <trkpt lat="47.87393" lon="2.16003">
        <ele>125</ele>
        <time>2016-10-30T08:44:29.000Z</time>
      </trkpt>
      <trkpt lat="47.87393" lon="2.16003">
        <ele>125</ele>
        <time>2016-10-30T08:44:30.000Z</time>
      </trkpt>
      <trkpt lat="47.87393" lon="2.16003">
        <ele>124</ele>
        <time>2016-10-30T08:44:31.000Z</time>
      </trkpt>
      <trkpt lat="47.87392" lon="2.16003">
        <ele>124</ele>
        <time>2016-10-30T08:44:32.000Z</time>
      </trkpt>
      <trkpt lat="47.87392" lon="2.16003">
        <ele>124</ele>
        <time>2016-10-30T08:44:33.000Z</time>
      </trkpt>
      <trkpt lat="47.87392" lon="2.16003">
        <ele>124</ele>
        <time>2016-10-30T08:44:34.000Z</time>
      </trkpt>
      <trkpt lat="47.87391" lon="2.16003">
        <ele>124</ele>
        <time>2016-10-30T08:44:35.000Z</time>
      </trkpt>
      <trkpt lat="47.87391" lon="2.16003">
        <ele>123</ele>
        <time>2016-10-30T08:44:36.000Z</time>
      </trkpt>
      <trkpt lat="47.87391" lon="2.16002">
        <ele>123</ele>
        <time>2016-10-30T08:44:37.000Z</time>
      </trkpt>
      <trkpt lat="47.87391" lon="2.16002">
        <ele>123</ele>
        <time>2016-10-30T08:44:38.000Z</time>
      </trkpt>
      <trkpt lat="47.87391" lon="2.16002">
        <ele>123</ele>
        <time>2016-10-30T08:44:39.000Z</time>
      </trkpt>
      <trkpt lat="47.87391" lon="2.16002">
        <ele>123</ele>
        <time>2016-10-30T08:44:40.000Z</time>
      </trkpt>
      <trkpt lat="47.87391" lon="2.16002">
        <ele>123</ele>
        <time>2016-10-30T08:44:41.000Z</time>
      </trkpt>
      <trkpt lat="47.87391" lon="2.16002">
        <ele>123</ele>
        <time>2016-10-30T08:44:42.000Z</time>
      </trkpt>
      <trkpt lat="47.87392" lon="2.16002">
        <ele>123</ele>
        <time>2016-10-30T08:44:43.000Z</time>
      </trkpt>
      <trkpt lat="47.87392" lon="2.16002">
        <ele>122</ele>
        <time>2016-10-30T08:44:44.000Z</time>
      </trkpt>
      <trkpt lat="47.87391" lon="2.16002">
        <ele>122</ele>
        <time>2016-10-30T08:44:45.000Z</time>
      </trkpt>
      <trkpt lat="47.87391" lon="2.16002">
        <ele>122</ele>
        <time>2016-10-30T08:44:46.000Z</time>
      </trkpt>
      <trkpt lat="47.87391" lon="2.16002">
        <ele>121</ele>
        <time>2016-10-30T08:44:47.000Z</time>
      </trkpt>
      <trkpt lat="47.8739" lon="2.16002">
        <ele>121</ele>
        <time>2016-10-30T08:44:48.000Z</time>
      </trkpt>
      <trkpt lat="47.8739" lon="2.16002">
        <ele>120</ele>
        <time>2016-10-30T08:44:49.000Z</time>
      </trkpt>
      <trkpt lat="47.87389" lon="2.16002">
        <ele>120</ele>
        <time>2016-10-30T08:44:50.000Z</time>
      </trkpt>
      <trkpt lat="47.87389" lon="2.16001">
        <ele>120</ele>
        <time>2016-10-30T08:44:51.000Z</time>
      </trkpt>
      <trkpt lat="47.87388" lon="2.16001">
        <ele>120</ele>
        <time>2016-10-30T08:44:52.000Z</time>
      </trkpt>
      <trkpt lat="47.87388" lon="2.16001">
        <ele>120</ele>
        <time>2016-10-30T08:44:53.000Z</time>
      </trkpt>
      <trkpt lat="47.87388" lon="2.16001">
        <ele>120</ele>
        <time>2016-10-30T08:44:54.000Z</time>
      </trkpt>
      <trkpt lat="47.87388" lon="2.16001">
        <ele>120</ele>
        <time>2016-10-30T08:44:55.000Z</time>
      </trkpt>
      <trkpt lat="47.87388" lon="2.16001">
        <ele>120</ele>
        <time>2016-10-30T08:44:56.000Z</time>
      </trkpt>
      <trkpt lat="47.87387" lon="2.16001">
        <ele>120</ele>
        <time>2016-10-30T08:44:57.000Z</time>
      </trkpt>
      <trkpt lat="47.87387" lon="2.16001">
        <ele>120</ele>
        <time>2016-10-30T08:44:58.000Z</time>
      </trkpt>
      <trkpt lat="47.87387" lon="2.16001">
        <ele>120</ele>
        <time>2016-10-30T08:44:59.000Z</time>
      </trkpt>
      <trkpt lat="47.87387" lon="2.16001">
        <ele>120</ele>
        <time>2016-10-30T08:45:00.000Z</time>
      </trkpt>
      <trkpt lat="47.87387" lon="2.16001">
        <ele>120</ele>
        <time>2016-10-30T08:45:01.000Z</time>
      </trkpt>
      <trkpt lat="47.87387" lon="2.16001">
        <ele>120</ele>
        <time>2016-10-30T08:45:02.000Z</time>
      </trkpt>
      <trkpt lat="47.87387" lon="2.16001">
        <ele>119</ele>
        <time>2016-10-30T08:45:03.000Z</time>
      </trkpt>
      <trkpt lat="47.87387" lon="2.16001">
        <ele>119</ele>
        <time>2016-10-30T08:45:04.000Z</time>
      </trkpt>
      <trkpt lat="47.87387" lon="2.16001">
        <ele>119</ele>
        <time>2016-10-30T08:45:05.000Z</time>
      </trkpt>
      <trkpt lat="47.87386" lon="2.16001">
        <ele>119</ele>
        <time>2016-10-30T08:45:06.000Z</time>
      </trkpt>
      <trkpt lat="47.87386" lon="2.16001">
        <ele>119</ele>
        <time>2016-10-30T08:45:07.000Z</time>
      </trkpt>
      <trkpt lat="47.87386" lon="2.16001">
        <ele>119</ele>
        <time>2016-10-30T08:45:08.000Z</time>
      </trkpt>
      <trkpt lat="47.87386" lon="2.16001">
        <ele>119</ele>
        <time>2016-10-30T08:45:09.000Z</time>
      </trkpt>
      <trkpt lat="47.87386" lon="2.16001">
        <ele>118</ele>
        <time>2016-10-30T08:45:10.000Z</time>
      </trkpt>
      <trkpt lat="47.87386" lon="2.16001">
        <ele>118</ele>
        <time>2016-10-30T08:45:11.000Z</time>
      </trkpt>
      <trkpt lat="47.87386" lon="2.16001">
        <ele>117</ele>
        <time>2016-10-30T08:45:12.000Z</time>
      </trkpt>
      <trkpt lat="47.87386" lon="2.16001">
        <ele>117</ele>
        <time>2016-10-30T08:45:13.000Z</time>
      </trkpt>
      <trkpt lat="47.87386" lon="2.16001">
        <ele>117</ele>
        <time>2016-10-30T08:45:14.000Z</time>
      </trkpt>
      <trkpt lat="47.87386" lon="2.16001">
        <ele>117</ele>
        <time>2016-10-30T08:45:15.000Z</time>
      </trkpt>
      <trkpt lat="47.87386" lon="2.16001">
        <ele>117</ele>
        <time>2016-10-30T08:45:16.000Z</time>
      </trkpt>
      <trkpt lat="47.87386" lon="2.16001">
        <ele>117</ele>
        <time>2016-10-30T08:45:17.000Z</time>
      </trkpt>
      <trkpt lat="47.87386" lon="2.16001">
        <ele>116</ele>
        <time>2016-10-30T08:45:18.000Z</time>
      </trkpt>
      <trkpt lat="47.87386" lon="2.16001">
        <ele>116</ele>
        <time>2016-10-30T08:45:19.000Z</time>
      </trkpt>
      <trkpt lat="47.87386" lon="2.16001">
        <ele>116</ele>
        <time>2016-10-30T08:45:20.000Z</time>
      </trkpt>
      <trkpt lat="47.87386" lon="2.16001">
        <ele>116</ele>
        <time>2016-10-30T08:45:21.000Z</time>
      </trkpt>
      <trkpt lat="47.87386" lon="2.16001">
        <ele>116</ele>
        <time>2016-10-30T08:45:22.000Z</time>
      </trkpt>
      <trkpt lat="47.87386" lon="2.16">
        <ele>116</ele>
        <time>2016-10-30T08:45:23.000Z</time>
      </trkpt>
      <trkpt lat="47.87386" lon="2.16">
        <ele>116</ele>
        <time>2016-10-30T08:45:24.000Z</time>
      </trkpt>
      <trkpt lat="47.87386" lon="2.16">
        <ele>115</ele>
        <time>2016-10-30T08:45:25.000Z</time>
      </trkpt>
      <trkpt lat="47.87386" lon="2.16">
        <ele>115</ele>
        <time>2016-10-30T08:45:26.000Z</time>
      </trkpt>
      <trkpt lat="47.87386" lon="2.16">
        <ele>115</ele>
        <time>2016-10-30T08:45:27.000Z</time>
      </trkpt>
      <trkpt lat="47.87386" lon="2.16">
        <ele>115</ele>
        <time>2016-10-30T08:45:28.000Z</time>
      </trkpt>
      <trkpt lat="47.87386" lon="2.16">
        <ele>115</ele>
        <time>2016-10-30T08:45:29.000Z</time>
      </trkpt>
      <trkpt lat="47.87386" lon="2.15999">
        <ele>116</ele>
        <time>2016-10-30T08:45:30.000Z</time>
      </trkpt>
      <trkpt lat="47.87386" lon="2.15999">
        <ele>117</ele>
        <time>2016-10-30T08:45:31.000Z</time>
      </trkpt>
      <trkpt lat="47.87387" lon="2.15999">
        <ele>117</ele>
        <time>2016-10-30T08:45:32.000Z</time>
      </trkpt>
      <trkpt lat="47.87387" lon="2.15999">
        <ele>118</ele>
        <time>2016-10-30T08:45:33.000Z</time>
      </trkpt>
      <trkpt lat="47.87387" lon="2.15999">
        <ele>118</ele>
        <time>2016-10-30T08:45:34.000Z</time>
      </trkpt>
      <trkpt lat="47.87386" lon="2.15999">
        <ele>118</ele>
        <time>2016-10-30T08:45:35.000Z</time>
      </trkpt>
      <trkpt lat="47.87386" lon="2.15999">
        <ele>119</ele>
        <time>2016-10-30T08:45:36.000Z</time>
      </trkpt>
      <trkpt lat="47.87386" lon="2.15999">
        <ele>120</ele>
        <time>2016-10-30T08:45:37.000Z</time>
      </trkpt>
      <trkpt lat="47.87386" lon="2.15999">
        <ele>120</ele>
        <time>2016-10-30T08:45:38.000Z</time>
      </trkpt>
      <trkpt lat="47.87385" lon="2.15999">
        <ele>121</ele>
        <time>2016-10-30T08:45:39.000Z</time>
      </trkpt>
      <trkpt lat="47.87385" lon="2.15999">
        <ele>121</ele>
        <time>2016-10-30T08:45:40.000Z</time>
      </trkpt>
      <trkpt lat="47.87385" lon="2.15999">
        <ele>121</ele>
        <time>2016-10-30T08:45:41.000Z</time>
      </trkpt>
      <trkpt lat="47.87385" lon="2.15999">
        <ele>121</ele>
        <time>2016-10-30T08:45:42.000Z</time>
      </trkpt>
      <trkpt lat="47.87385" lon="2.15999">
        <ele>121</ele>
        <time>2016-10-30T08:45:43.000Z</time>
      </trkpt>
      <trkpt lat="47.87385" lon="2.15999">
        <ele>121</ele>
        <time>2016-10-30T08:45:44.000Z</time>
      </trkpt>
      <trkpt lat="47.87385" lon="2.15999">
        <ele>122</ele>
        <time>2016-10-30T08:45:45.000Z</time>
      </trkpt>
      <trkpt lat="47.87385" lon="2.15998">
        <ele>122</ele>
        <time>2016-10-30T08:45:46.000Z</time>
      </trkpt>
      <trkpt lat="47.87385" lon="2.15998">
        <ele>121</ele>
        <time>2016-10-30T08:45:47.000Z</time>
      </trkpt>
      <trkpt lat="47.87386" lon="2.15998">
        <ele>121</ele>
        <time>2016-10-30T08:45:48.000Z</time>
      </trkpt>
      <trkpt lat="47.87386" lon="2.15998">
        <ele>121</ele>
        <time>2016-10-30T08:45:49.000Z</time>
      </trkpt>
      <trkpt lat="47.87386" lon="2.15998">
        <ele>120</ele>
        <time>2016-10-30T08:45:50.000Z</time>
      </trkpt>
      <trkpt lat="47.87386" lon="2.15998">
        <ele>120</ele>
        <time>2016-10-30T08:45:51.000Z</time>
      </trkpt>
      <trkpt lat="47.87386" lon="2.15998">
        <ele>119</ele>
        <time>2016-10-30T08:45:52.000Z</time>
      </trkpt>
      <trkpt lat="47.87386" lon="2.15998">
        <ele>119</ele>
        <time>2016-10-30T08:45:53.000Z</time>
      </trkpt>
      <trkpt lat="47.87387" lon="2.15998">
        <ele>119</ele>
        <time>2016-10-30T08:45:54.000Z</time>
      </trkpt>
      <trkpt lat="47.87387" lon="2.15998">
        <ele>119</ele>
        <time>2016-10-30T08:45:55.000Z</time>
      </trkpt>
      <trkpt lat="47.87387" lon="2.15998">
        <ele>118</ele>
        <time>2016-10-30T08:45:56.000Z</time>
      </trkpt>
      <trkpt lat="47.87387" lon="2.15998">
        <ele>118</ele>
        <time>2016-10-30T08:45:57.000Z</time>
      </trkpt>
      <trkpt lat="47.87387" lon="2.15998">
        <ele>118</ele>
        <time>2016-10-30T08:45:58.000Z</time>
      </trkpt>
      <trkpt lat="47.87388" lon="2.15999">
        <ele>118</ele>
        <time>2016-10-30T08:45:59.000Z</time>
      </trkpt>
      <trkpt lat="47.87388" lon="2.15999">
        <ele>118</ele>
        <time>2016-10-30T08:46:00.000Z</time>
      </trkpt>
      <trkpt lat="47.87388" lon="2.15999">
        <ele>118</ele>
        <time>2016-10-30T08:46:01.000Z</time>
      </trkpt>
      <trkpt lat="47.87388" lon="2.15999">
        <ele>118</ele>
        <time>2016-10-30T08:46:02.000Z</time>
      </trkpt>
      <trkpt lat="47.87388" lon="2.15999">
        <ele>117</ele>
        <time>2016-10-30T08:46:03.000Z</time>
      </trkpt>
      <trkpt lat="47.87388" lon="2.15999">
        <ele>117</ele>
        <time>2016-10-30T08:46:04.000Z</time>
      </trkpt>
      <trkpt lat="47.87388" lon="2.16">
        <ele>117</ele>
        <time>2016-10-30T08:46:05.000Z</time>
      </trkpt>
      <trkpt lat="47.87388" lon="2.16">
        <ele>117</ele>
        <time>2016-10-30T08:46:06.000Z</time>
      </trkpt>
      <trkpt lat="47.87389" lon="2.16">
        <ele>116</ele>
        <time>2016-10-30T08:46:07.000Z</time>
      </trkpt>
      <trkpt lat="47.87389" lon="2.16001">
        <ele>116</ele>
        <time>2016-10-30T08:46:08.000Z</time>
      </trkpt>
      <trkpt lat="47.87388" lon="2.16001">
        <ele>116</ele>
        <time>2016-10-30T08:46:09.000Z</time>
      </trkpt>
      <trkpt lat="47.87388" lon="2.16001">
        <ele>116</ele>
        <time>2016-10-30T08:46:10.000Z</time>
      </trkpt>
      <trkpt lat="47.87388" lon="2.16001">
        <ele>116</ele>
        <time>2016-10-30T08:46:11.000Z</time>
      </trkpt>
      <trkpt lat="47.87388" lon="2.16001">
        <ele>116</ele>
        <time>2016-10-30T08:46:12.000Z</time>
      </trkpt>
      <trkpt lat="47.87388" lon="2.16001">
        <ele>117</ele>
        <time>2016-10-30T08:46:13.000Z</time>
      </trkpt>
      <trkpt lat="47.87388" lon="2.16001">
        <ele>116</ele>
        <time>2016-10-30T08:46:14.000Z</time>
      </trkpt>
      <trkpt lat="47.87388" lon="2.16001">
        <ele>116</ele>
        <time>2016-10-30T08:46:15.000Z</time>
      </trkpt>
      <trkpt lat="47.87388" lon="2.16001">
        <ele>117</ele>
        <time>2016-10-30T08:46:16.000Z</time>
      </trkpt>
      <trkpt lat="47.87388" lon="2.16001">
        <ele>117</ele>
        <time>2016-10-30T08:46:17.000Z</time>
      </trkpt>
      <trkpt lat="47.87388" lon="2.16001">
        <ele>117</ele>
        <time>2016-10-30T08:46:18.000Z</time>
      </trkpt>
      <trkpt lat="47.87388" lon="2.16001">
        <ele>117</ele>
        <time>2016-10-30T08:46:19.000Z</time>
      </trkpt>
      <trkpt lat="47.87388" lon="2.16">
        <ele>118</ele>
        <time>2016-10-30T08:46:20.000Z</time>
      </trkpt>
      <trkpt lat="47.87388" lon="2.16">
        <ele>118</ele>
        <time>2016-10-30T08:46:21.000Z</time>
      </trkpt>
      <trkpt lat="47.87388" lon="2.16">
        <ele>118</ele>
        <time>2016-10-30T08:46:22.000Z</time>
      </trkpt>
      <trkpt lat="47.87388" lon="2.16001">
        <ele>118</ele>
        <time>2016-10-30T08:46:23.000Z</time>
      </trkpt>
      <trkpt lat="47.87389" lon="2.16001">
        <ele>118</ele>
        <time>2016-10-30T08:46:24.000Z</time>
      </trkpt>
      <trkpt lat="47.87389" lon="2.16001">
        <ele>118</ele>
        <time>2016-10-30T08:46:25.000Z</time>
      </trkpt>
      <trkpt lat="47.8739" lon="2.16002">
        <ele>117</ele>
        <time>2016-10-30T08:46:26.000Z</time>
      </trkpt>
      <trkpt lat="47.8739" lon="2.16002">
        <ele>117</ele>
        <time>2016-10-30T08:46:27.000Z</time>
      </trkpt>
      <trkpt lat="47.87391" lon="2.16002">
        <ele>117</ele>
        <time>2016-10-30T08:46:28.000Z</time>
      </trkpt>
      <trkpt lat="47.87391" lon="2.16002">
        <ele>116</ele>
        <time>2016-10-30T08:46:29.000Z</time>
      </trkpt>
      <trkpt lat="47.87392" lon="2.16002">
        <ele>116</ele>
        <time>2016-10-30T08:46:30.000Z</time>
      </trkpt>
      <trkpt lat="47.87392" lon="2.16002">
        <ele>115</ele>
        <time>2016-10-30T08:46:31.000Z</time>
      </trkpt>
      <trkpt lat="47.87392" lon="2.16002">
        <ele>115</ele>
        <time>2016-10-30T08:46:32.000Z</time>
      </trkpt>
      <trkpt lat="47.87393" lon="2.16001">
        <ele>116</ele>
        <time>2016-10-30T08:46:33.000Z</time>
      </trkpt>
      <trkpt lat="47.87393" lon="2.16">
        <ele>116</ele>
        <time>2016-10-30T08:46:34.000Z</time>
      </trkpt>
      <trkpt lat="47.87393" lon="2.15999">
        <ele>117</ele>
        <time>2016-10-30T08:46:35.000Z</time>
      </trkpt>
      <trkpt lat="47.87393" lon="2.15997">
        <ele>117</ele>
        <time>2016-10-30T08:46:36.000Z</time>
      </trkpt>
      <trkpt lat="47.87394" lon="2.15995">
        <ele>117</ele>
        <time>2016-10-30T08:46:37.000Z</time>
      </trkpt>
      <trkpt lat="47.87394" lon="2.15992">
        <ele>117</ele>
        <time>2016-10-30T08:46:38.000Z</time>
      </trkpt>
      <trkpt lat="47.87395" lon="2.1599">
        <ele>118</ele>
        <time>2016-10-30T08:46:39.000Z</time>
      </trkpt>
      <trkpt lat="47.87396" lon="2.15987">
        <ele>118</ele>
        <time>2016-10-30T08:46:40.000Z</time>
      </trkpt>
      <trkpt lat="47.87397" lon="2.15984">
        <ele>118</ele>
        <time>2016-10-30T08:46:41.000Z</time>
      </trkpt>
      <trkpt lat="47.87398" lon="2.15981">
        <ele>118</ele>
        <time>2016-10-30T08:46:42.000Z</time>
      </trkpt>
      <trkpt lat="47.87399" lon="2.15977">
        <ele>117</ele>
        <time>2016-10-30T08:46:43.000Z</time>
      </trkpt>
      <trkpt lat="47.874" lon="2.15974">
        <ele>117</ele>
        <time>2016-10-30T08:46:44.000Z</time>
      </trkpt>
      <trkpt lat="47.87401" lon="2.1597">
        <ele>117</ele>
        <time>2016-10-30T08:46:45.000Z</time>
      </trkpt>
      <trkpt lat="47.87403" lon="2.15966">
        <ele>117</ele>
        <time>2016-10-30T08:46:46.000Z</time>
      </trkpt>
      <trkpt lat="47.87404" lon="2.15962">
        <ele>117</ele>
        <time>2016-10-30T08:46:47.000Z</time>
      </trkpt>
      <trkpt lat="47.87406" lon="2.15957">
        <ele>117</ele>
        <time>2016-10-30T08:46:48.000Z</time>
      </trkpt>
      <trkpt lat="47.87408" lon="2.15953">
        <ele>116</ele>
        <time>2016-10-30T08:46:49.000Z</time>
      </trkpt>
      <trkpt lat="47.8741" lon="2.1595">
        <ele>115</ele>
        <time>2016-10-30T08:46:50.000Z</time>
      </trkpt>
      <trkpt lat="47.87412" lon="2.15945">
        <ele>116</ele>
        <time>2016-10-30T08:46:51.000Z</time>
      </trkpt>
      <trkpt lat="47.87414" lon="2.1594">
        <ele>116</ele>
        <time>2016-10-30T08:46:52.000Z</time>
      </trkpt>
      <trkpt lat="47.87415" lon="2.15934">
        <ele>116</ele>
        <time>2016-10-30T08:46:53.000Z</time>
      </trkpt>
      <trkpt lat="47.87416" lon="2.15929">
        <ele>116</ele>
        <time>2016-10-30T08:46:54.000Z</time>
      </trkpt>
      <trkpt lat="47.87417" lon="2.15923">
        <ele>117</ele>
        <time>2016-10-30T08:46:55.000Z</time>
      </trkpt>
      <trkpt lat="47.87418" lon="2.15917">
        <ele>117</ele>
        <time>2016-10-30T08:46:56.000Z</time>
      </trkpt>
      <trkpt lat="47.8742" lon="2.15911">
        <ele>118</ele>
        <time>2016-10-30T08:46:57.000Z</time>
      </trkpt>
      <trkpt lat="47.87422" lon="2.15905">
        <ele>117</ele>
        <time>2016-10-30T08:46:58.000Z</time>
      </trkpt>
      <trkpt lat="47.87424" lon="2.159">
        <ele>115</ele>
        <time>2016-10-30T08:46:59.000Z</time>
      </trkpt>
      <trkpt lat="47.87426" lon="2.15894">
        <ele>115</ele>
        <time>2016-10-30T08:47:00.000Z</time>
      </trkpt>
      <trkpt lat="47.87429" lon="2.15887">
        <ele>115</ele>
        <time>2016-10-30T08:47:01.000Z</time>
      </trkpt>
      <trkpt lat="47.87432" lon="2.15881">
        <ele>115</ele>
        <time>2016-10-30T08:47:02.000Z</time>
      </trkpt>
      <trkpt lat="47.87435" lon="2.15875">
        <ele>115</ele>
        <time>2016-10-30T08:47:03.000Z</time>
      </trkpt>
      <trkpt lat="47.87438" lon="2.15868">
        <ele>115</ele>
        <time>2016-10-30T08:47:04.000Z</time>
      </trkpt>
      <trkpt lat="47.87441" lon="2.15862">
        <ele>116</ele>
        <time>2016-10-30T08:47:05.000Z</time>
      </trkpt>
      <trkpt lat="47.87444" lon="2.15855">
        <ele>116</ele>
        <time>2016-10-30T08:47:06.000Z</time>
      </trkpt>
      <trkpt lat="47.87446" lon="2.15848">
        <ele>115</ele>
        <time>2016-10-30T08:47:07.000Z</time>
      </trkpt>
      <trkpt lat="47.87449" lon="2.15841">
        <ele>114</ele>
        <time>2016-10-30T08:47:08.000Z</time>
      </trkpt>
      <trkpt lat="47.87453" lon="2.15833">
        <ele>114</ele>
        <time>2016-10-30T08:47:09.000Z</time>
      </trkpt>
      <trkpt lat="47.87457" lon="2.15824">
        <ele>114</ele>
        <time>2016-10-30T08:47:10.000Z</time>
      </trkpt>
      <trkpt lat="47.8746" lon="2.15814">
        <ele>116</ele>
        <time>2016-10-30T08:47:11.000Z</time>
      </trkpt>
      <trkpt lat="47.87464" lon="2.15803">
        <ele>117</ele>
        <time>2016-10-30T08:47:12.000Z</time>
      </trkpt>
      <trkpt lat="47.87468" lon="2.15792">
        <ele>118</ele>
        <time>2016-10-30T08:47:13.000Z</time>
      </trkpt>
      <trkpt lat="47.87472" lon="2.15781">
        <ele>117</ele>
        <time>2016-10-30T08:47:14.000Z</time>
      </trkpt>
      <trkpt lat="47.87476" lon="2.15772">
        <ele>116</ele>
        <time>2016-10-30T08:47:15.000Z</time>
      </trkpt>
      <trkpt lat="47.8748" lon="2.15763">
        <ele>116</ele>
        <time>2016-10-30T08:47:16.000Z</time>
      </trkpt>
      <trkpt lat="47.87484" lon="2.15755">
        <ele>116</ele>
        <time>2016-10-30T08:47:17.000Z</time>
      </trkpt>
      <trkpt lat="47.87488" lon="2.15746">
        <ele>116</ele>
        <time>2016-10-30T08:47:18.000Z</time>
      </trkpt>
      <trkpt lat="47.87491" lon="2.15739">
        <ele>116</ele>
        <time>2016-10-30T08:47:19.000Z</time>
      </trkpt>
      <trkpt lat="47.87494" lon="2.15731">
        <ele>116</ele>
        <time>2016-10-30T08:47:20.000Z</time>
      </trkpt>
      <trkpt lat="47.87497" lon="2.15724">
        <ele>115</ele>
        <time>2016-10-30T08:47:21.000Z</time>
      </trkpt>
      <trkpt lat="47.87499" lon="2.15717">
        <ele>115</ele>
        <time>2016-10-30T08:47:22.000Z</time>
      </trkpt>
      <trkpt lat="47.87501" lon="2.15711">
        <ele>115</ele>
        <time>2016-10-30T08:47:23.000Z</time>
      </trkpt>
      <trkpt lat="47.87503" lon="2.15704">
        <ele>116</ele>
        <time>2016-10-30T08:47:24.000Z</time>
      </trkpt>
      <trkpt lat="47.87505" lon="2.15698">
        <ele>116</ele>
        <time>2016-10-30T08:47:25.000Z</time>
      </trkpt>
      <trkpt lat="47.87507" lon="2.15692">
        <ele>117</ele>
        <time>2016-10-30T08:47:26.000Z</time>
      </trkpt>
      <trkpt lat="47.87509" lon="2.15687">
        <ele>117</ele>
        <time>2016-10-30T08:47:27.000Z</time>
      </trkpt>
      <trkpt lat="47.87511" lon="2.15681">
        <ele>118</ele>
        <time>2016-10-30T08:47:28.000Z</time>
      </trkpt>
      <trkpt lat="47.87513" lon="2.15677">
        <ele>117</ele>
        <time>2016-10-30T08:47:29.000Z</time>
      </trkpt>
      <trkpt lat="47.87516" lon="2.15672">
        <ele>118</ele>
        <time>2016-10-30T08:47:30.000Z</time>
      </trkpt>
      <trkpt lat="47.87518" lon="2.15667">
        <ele>118</ele>
        <time>2016-10-30T08:47:31.000Z</time>
      </trkpt>
      <trkpt lat="47.87521" lon="2.15663">
        <ele>118</ele>
        <time>2016-10-30T08:47:32.000Z</time>
      </trkpt>
      <trkpt lat="47.87524" lon="2.15659">
        <ele>118</ele>
        <time>2016-10-30T08:47:33.000Z</time>
      </trkpt>
      <trkpt lat="47.87527" lon="2.15655">
        <ele>118</ele>
        <time>2016-10-30T08:47:34.000Z</time>
      </trkpt>
      <trkpt lat="47.8753" lon="2.15652">
        <ele>118</ele>
        <time>2016-10-30T08:47:35.000Z</time>
      </trkpt>
      <trkpt lat="47.87532" lon="2.15649">
        <ele>119</ele>
        <time>2016-10-30T08:47:36.000Z</time>
      </trkpt>
      <trkpt lat="47.87535" lon="2.15646">
        <ele>120</ele>
        <time>2016-10-30T08:47:37.000Z</time>
      </trkpt>
      <trkpt lat="47.87537" lon="2.15643">
        <ele>121</ele>
        <time>2016-10-30T08:47:38.000Z</time>
      </trkpt>
      <trkpt lat="47.8754" lon="2.15641">
        <ele>120</ele>
        <time>2016-10-30T08:47:39.000Z</time>
      </trkpt>
      <trkpt lat="47.87542" lon="2.15639">
        <ele>122</ele>
        <time>2016-10-30T08:47:40.000Z</time>
      </trkpt>
      <trkpt lat="47.87546" lon="2.15637">
        <ele>119</ele>
        <time>2016-10-30T08:47:41.000Z</time>
      </trkpt>
      <trkpt lat="47.87551" lon="2.15636">
        <ele>117</ele>
        <time>2016-10-30T08:47:42.000Z</time>
      </trkpt>
      <trkpt lat="47.87556" lon="2.15634">
        <ele>117</ele>
        <time>2016-10-30T08:47:43.000Z</time>
      </trkpt>
      <trkpt lat="47.87561" lon="2.15633">
        <ele>117</ele>
        <time>2016-10-30T08:47:44.000Z</time>
      </trkpt>
      <trkpt lat="47.87566" lon="2.15631">
        <ele>116</ele>
        <time>2016-10-30T08:47:45.000Z</time>
      </trkpt>
      <trkpt lat="47.87571" lon="2.1563">
        <ele>116</ele>
        <time>2016-10-30T08:47:46.000Z</time>
      </trkpt>
      <trkpt lat="47.87575" lon="2.1563">
        <ele>117</ele>
        <time>2016-10-30T08:47:47.000Z</time>
      </trkpt>
      <trkpt lat="47.8758" lon="2.15629">
        <ele>118</ele>
        <time>2016-10-30T08:47:48.000Z</time>
      </trkpt>
      <trkpt lat="47.87584" lon="2.1563">
        <ele>118</ele>
        <time>2016-10-30T08:47:49.000Z</time>
      </trkpt>
      <trkpt lat="47.87588" lon="2.15631">
        <ele>117</ele>
        <time>2016-10-30T08:47:50.000Z</time>
      </trkpt>
      <trkpt lat="47.87592" lon="2.15632">
        <ele>117</ele>
        <time>2016-10-30T08:47:51.000Z</time>
      </trkpt>
      <trkpt lat="47.87595" lon="2.15634">
        <ele>117</ele>
        <time>2016-10-30T08:47:52.000Z</time>
      </trkpt>
      <trkpt lat="47.87598" lon="2.15636">
        <ele>116</ele>
        <time>2016-10-30T08:47:53.000Z</time>
      </trkpt>
      <trkpt lat="47.87601" lon="2.15639">
        <ele>114</ele>
        <time>2016-10-30T08:47:54.000Z</time>
      </trkpt>
      <trkpt lat="47.87605" lon="2.15642">
        <ele>113</ele>
        <time>2016-10-30T08:47:55.000Z</time>
      </trkpt>
      <trkpt lat="47.87608" lon="2.15646">
        <ele>113</ele>
        <time>2016-10-30T08:47:56.000Z</time>
      </trkpt>
      <trkpt lat="47.87612" lon="2.15648">
        <ele>115</ele>
        <time>2016-10-30T08:47:57.000Z</time>
      </trkpt>
      <trkpt lat="47.87617" lon="2.1565">
        <ele>116</ele>
        <time>2016-10-30T08:47:58.000Z</time>
      </trkpt>
      <trkpt lat="47.87622" lon="2.15652">
        <ele>115</ele>
        <time>2016-10-30T08:47:59.000Z</time>
      </trkpt>
      <trkpt lat="47.87626" lon="2.15653">
        <ele>115</ele>
        <time>2016-10-30T08:48:00.000Z</time>
      </trkpt>
      <trkpt lat="47.8763" lon="2.15654">
        <ele>115</ele>
        <time>2016-10-30T08:48:01.000Z</time>
      </trkpt>
      <trkpt lat="47.87634" lon="2.15654">
        <ele>114</ele>
        <time>2016-10-30T08:48:02.000Z</time>
      </trkpt>
      <trkpt lat="47.87637" lon="2.15654">
        <ele>114</ele>
        <time>2016-10-30T08:48:03.000Z</time>
      </trkpt>
      <trkpt lat="47.8764" lon="2.15654">
        <ele>113</ele>
        <time>2016-10-30T08:48:04.000Z</time>
      </trkpt>
      <trkpt lat="47.87644" lon="2.15653">
        <ele>114</ele>
        <time>2016-10-30T08:48:05.000Z</time>
      </trkpt>
      <trkpt lat="47.87648" lon="2.15652">
        <ele>113</ele>
        <time>2016-10-30T08:48:06.000Z</time>
      </trkpt>
      <trkpt lat="47.87652" lon="2.1565">
        <ele>113</ele>
        <time>2016-10-30T08:48:07.000Z</time>
      </trkpt>
      <trkpt lat="47.87656" lon="2.15649">
        <ele>114</ele>
        <time>2016-10-30T08:48:08.000Z</time>
      </trkpt>
      <trkpt lat="47.87661" lon="2.15648">
        <ele>114</ele>
        <time>2016-10-30T08:48:09.000Z</time>
      </trkpt>
      <trkpt lat="47.87665" lon="2.15647">
        <ele>113</ele>
        <time>2016-10-30T08:48:10.000Z</time>
      </trkpt>
      <trkpt lat="47.87669" lon="2.15647">
        <ele>112</ele>
        <time>2016-10-30T08:48:11.000Z</time>
      </trkpt>
      <trkpt lat="47.87674" lon="2.15646">
        <ele>113</ele>
        <time>2016-10-30T08:48:12.000Z</time>
      </trkpt>
      <trkpt lat="47.87678" lon="2.15645">
        <ele>114</ele>
        <time>2016-10-30T08:48:13.000Z</time>
      </trkpt>
      <trkpt lat="47.87682" lon="2.15645">
        <ele>114</ele>
        <time>2016-10-30T08:48:14.000Z</time>
      </trkpt>
      <trkpt lat="47.87686" lon="2.15644">
        <ele>115</ele>
        <time>2016-10-30T08:48:15.000Z</time>
      </trkpt>
      <trkpt lat="47.87689" lon="2.15644">
        <ele>115</ele>
        <time>2016-10-30T08:48:16.000Z</time>
      </trkpt>
      <trkpt lat="47.87693" lon="2.15643">
        <ele>116</ele>
        <time>2016-10-30T08:48:17.000Z</time>
      </trkpt>
      <trkpt lat="47.87696" lon="2.15642">
        <ele>116</ele>
        <time>2016-10-30T08:48:18.000Z</time>
      </trkpt>
      <trkpt lat="47.87699" lon="2.15641">
        <ele>118</ele>
        <time>2016-10-30T08:48:19.000Z</time>
      </trkpt>
      <trkpt lat="47.87703" lon="2.1564">
        <ele>117</ele>
        <time>2016-10-30T08:48:20.000Z</time>
      </trkpt>
      <trkpt lat="47.87708" lon="2.15639">
        <ele>117</ele>
        <time>2016-10-30T08:48:21.000Z</time>
      </trkpt>
      <trkpt lat="47.87712" lon="2.15637">
        <ele>117</ele>
        <time>2016-10-30T08:48:22.000Z</time>
      </trkpt>
      <trkpt lat="47.87717" lon="2.15636">
        <ele>116</ele>
        <time>2016-10-30T08:48:23.000Z</time>
      </trkpt>
      <trkpt lat="47.87721" lon="2.15635">
        <ele>114</ele>
        <time>2016-10-30T08:48:24.000Z</time>
      </trkpt>
      <trkpt lat="47.87725" lon="2.15635">
        <ele>113</ele>
        <time>2016-10-30T08:48:25.000Z</time>
      </trkpt>
      <trkpt lat="47.87729" lon="2.15634">
        <ele>113</ele>
        <time>2016-10-30T08:48:26.000Z</time>
      </trkpt>
      <trkpt lat="47.87734" lon="2.15633">
        <ele>113</ele>
        <time>2016-10-30T08:48:27.000Z</time>
      </trkpt>
      <trkpt lat="47.87738" lon="2.15632">
        <ele>113</ele>
        <time>2016-10-30T08:48:28.000Z</time>
      </trkpt>
      <trkpt lat="47.87743" lon="2.15631">
        <ele>113</ele>
        <time>2016-10-30T08:48:29.000Z</time>
      </trkpt>
      <trkpt lat="47.87749" lon="2.1563">
        <ele>115</ele>
        <time>2016-10-30T08:48:30.000Z</time>
      </trkpt>
      <trkpt lat="47.87755" lon="2.15629">
        <ele>116</ele>
        <time>2016-10-30T08:48:31.000Z</time>
      </trkpt>
      <trkpt lat="47.87761" lon="2.15629">
        <ele>117</ele>
        <time>2016-10-30T08:48:32.000Z</time>
      </trkpt>
      <trkpt lat="47.87766" lon="2.15627">
        <ele>117</ele>
        <time>2016-10-30T08:48:33.000Z</time>
      </trkpt>
      <trkpt lat="47.87771" lon="2.15625">
        <ele>117</ele>
        <time>2016-10-30T08:48:34.000Z</time>
      </trkpt>
      <trkpt lat="47.87775" lon="2.15623">
        <ele>117</ele>
        <time>2016-10-30T08:48:35.000Z</time>
      </trkpt>
      <trkpt lat="47.8778" lon="2.15621">
        <ele>118</ele>
        <time>2016-10-30T08:48:36.000Z</time>
      </trkpt>
      <trkpt lat="47.87784" lon="2.15619">
        <ele>117</ele>
        <time>2016-10-30T08:48:37.000Z</time>
      </trkpt>
      <trkpt lat="47.87788" lon="2.15617">
        <ele>117</ele>
        <time>2016-10-30T08:48:38.000Z</time>
      </trkpt>
      <trkpt lat="47.87791" lon="2.15614">
        <ele>117</ele>
        <time>2016-10-30T08:48:39.000Z</time>
      </trkpt>
      <trkpt lat="47.87795" lon="2.15611">
        <ele>117</ele>
        <time>2016-10-30T08:48:40.000Z</time>
      </trkpt>
      <trkpt lat="47.87798" lon="2.15608">
        <ele>116</ele>
        <time>2016-10-30T08:48:41.000Z</time>
      </trkpt>
      <trkpt lat="47.87802" lon="2.15605">
        <ele>116</ele>
        <time>2016-10-30T08:48:42.000Z</time>
      </trkpt>
      <trkpt lat="47.87805" lon="2.15602">
        <ele>116</ele>
        <time>2016-10-30T08:48:43.000Z</time>
      </trkpt>
      <trkpt lat="47.87808" lon="2.156">
        <ele>116</ele>
        <time>2016-10-30T08:48:44.000Z</time>
      </trkpt>
      <trkpt lat="47.87812" lon="2.15597">
        <ele>116</ele>
        <time>2016-10-30T08:48:45.000Z</time>
      </trkpt>
      <trkpt lat="47.87815" lon="2.15593">
        <ele>115</ele>
        <time>2016-10-30T08:48:46.000Z</time>
      </trkpt>
      <trkpt lat="47.87819" lon="2.15589">
        <ele>115</ele>
        <time>2016-10-30T08:48:47.000Z</time>
      </trkpt>
      <trkpt lat="47.87823" lon="2.15585">
        <ele>116</ele>
        <time>2016-10-30T08:48:48.000Z</time>
      </trkpt>
      <trkpt lat="47.87827" lon="2.1558">
        <ele>116</ele>
        <time>2016-10-30T08:48:49.000Z</time>
      </trkpt>
      <trkpt lat="47.87831" lon="2.15576">
        <ele>116</ele>
        <time>2016-10-30T08:48:50.000Z</time>
      </trkpt>
      <trkpt lat="47.87835" lon="2.15572">
        <ele>116</ele>
        <time>2016-10-30T08:48:51.000Z</time>
      </trkpt>
      <trkpt lat="47.8784" lon="2.15568">
        <ele>117</ele>
        <time>2016-10-30T08:48:52.000Z</time>
      </trkpt>
      <trkpt lat="47.87844" lon="2.15564">
        <ele>116</ele>
        <time>2016-10-30T08:48:53.000Z</time>
      </trkpt>
      <trkpt lat="47.87848" lon="2.15559">
        <ele>115</ele>
        <time>2016-10-30T08:48:54.000Z</time>
      </trkpt>
      <trkpt lat="47.87852" lon="2.15555">
        <ele>115</ele>
        <time>2016-10-30T08:48:55.000Z</time>
      </trkpt>
      <trkpt lat="47.87856" lon="2.15551">
        <ele>116</ele>
        <time>2016-10-30T08:48:56.000Z</time>
      </trkpt>
      <trkpt lat="47.87861" lon="2.15548">
        <ele>115</ele>
        <time>2016-10-30T08:48:57.000Z</time>
      </trkpt>
      <trkpt lat="47.87865" lon="2.15543">
        <ele>113</ele>
        <time>2016-10-30T08:48:58.000Z</time>
      </trkpt>
      <trkpt lat="47.87869" lon="2.15538">
        <ele>112</ele>
        <time>2016-10-30T08:48:59.000Z</time>
      </trkpt>
      <trkpt lat="47.87872" lon="2.15533">
        <ele>111</ele>
        <time>2016-10-30T08:49:00.000Z</time>
      </trkpt>
      <trkpt lat="47.87876" lon="2.15527">
        <ele>111</ele>
        <time>2016-10-30T08:49:01.000Z</time>
      </trkpt>
      <trkpt lat="47.87879" lon="2.15522">
        <ele>113</ele>
        <time>2016-10-30T08:49:02.000Z</time>
      </trkpt>
      <trkpt lat="47.87883" lon="2.15517">
        <ele>113</ele>
        <time>2016-10-30T08:49:03.000Z</time>
      </trkpt>
      <trkpt lat="47.87888" lon="2.15511">
        <ele>115</ele>
        <time>2016-10-30T08:49:04.000Z</time>
      </trkpt>
      <trkpt lat="47.87892" lon="2.15503">
        <ele>118</ele>
        <time>2016-10-30T08:49:05.000Z</time>
      </trkpt>
      <trkpt lat="47.87896" lon="2.15495">
        <ele>119</ele>
        <time>2016-10-30T08:49:06.000Z</time>
      </trkpt>
      <trkpt lat="47.87899" lon="2.15488">
        <ele>119</ele>
        <time>2016-10-30T08:49:07.000Z</time>
      </trkpt>
      <trkpt lat="47.87901" lon="2.15482">
        <ele>121</ele>
        <time>2016-10-30T08:49:08.000Z</time>
      </trkpt>
      <trkpt lat="47.87904" lon="2.15475">
        <ele>121</ele>
        <time>2016-10-30T08:49:09.000Z</time>
      </trkpt>
      <trkpt lat="47.87907" lon="2.15468">
        <ele>122</ele>
        <time>2016-10-30T08:49:10.000Z</time>
      </trkpt>
      <trkpt lat="47.87909" lon="2.15461">
        <ele>123</ele>
        <time>2016-10-30T08:49:11.000Z</time>
      </trkpt>
      <trkpt lat="47.87911" lon="2.15453">
        <ele>125</ele>
        <time>2016-10-30T08:49:12.000Z</time>
      </trkpt>
      <trkpt lat="47.87913" lon="2.15445">
        <ele>127</ele>
        <time>2016-10-30T08:49:13.000Z</time>
      </trkpt>
      <trkpt lat="47.87915" lon="2.15437">
        <ele>126</ele>
        <time>2016-10-30T08:49:14.000Z</time>
      </trkpt>
      <trkpt lat="47.87916" lon="2.15429">
        <ele>122</ele>
        <time>2016-10-30T08:49:15.000Z</time>
      </trkpt>
      <trkpt lat="47.87918" lon="2.15421">
        <ele>120</ele>
        <time>2016-10-30T08:49:16.000Z</time>
      </trkpt>
      <trkpt lat="47.87919" lon="2.15413">
        <ele>118</ele>
        <time>2016-10-30T08:49:17.000Z</time>
      </trkpt>
      <trkpt lat="47.8792" lon="2.15405">
        <ele>118</ele>
        <time>2016-10-30T08:49:18.000Z</time>
      </trkpt>
      <trkpt lat="47.87921" lon="2.15397">
        <ele>117</ele>
        <time>2016-10-30T08:49:19.000Z</time>
      </trkpt>
      <trkpt lat="47.87922" lon="2.15389">
        <ele>117</ele>
        <time>2016-10-30T08:49:20.000Z</time>
      </trkpt>
      <trkpt lat="47.87923" lon="2.15381">
        <ele>117</ele>
        <time>2016-10-30T08:49:21.000Z</time>
      </trkpt>
      <trkpt lat="47.87924" lon="2.15373">
        <ele>117</ele>
        <time>2016-10-30T08:49:22.000Z</time>
      </trkpt>
      <trkpt lat="47.87925" lon="2.15364">
        <ele>118</ele>
        <time>2016-10-30T08:49:23.000Z</time>
      </trkpt>
      <trkpt lat="47.87925" lon="2.15357">
        <ele>117</ele>
        <time>2016-10-30T08:49:24.000Z</time>
      </trkpt>
      <trkpt lat="47.87926" lon="2.15349">
        <ele>115</ele>
        <time>2016-10-30T08:49:25.000Z</time>
      </trkpt>
      <trkpt lat="47.87927" lon="2.15341">
        <ele>115</ele>
        <time>2016-10-30T08:49:26.000Z</time>
      </trkpt>
      <trkpt lat="47.87928" lon="2.15333">
        <ele>115</ele>
        <time>2016-10-30T08:49:27.000Z</time>
      </trkpt>
      <trkpt lat="47.87928" lon="2.15325">
        <ele>113</ele>
        <time>2016-10-30T08:49:28.000Z</time>
      </trkpt>
      <trkpt lat="47.87929" lon="2.15317">
        <ele>112</ele>
        <time>2016-10-30T08:49:29.000Z</time>
      </trkpt>
      <trkpt lat="47.8793" lon="2.1531">
        <ele>109</ele>
        <time>2016-10-30T08:49:30.000Z</time>
      </trkpt>
      <trkpt lat="47.8793" lon="2.15302">
        <ele>109</ele>
        <time>2016-10-30T08:49:31.000Z</time>
      </trkpt>
      <trkpt lat="47.87931" lon="2.15294">
        <ele>109</ele>
        <time>2016-10-30T08:49:32.000Z</time>
      </trkpt>
      <trkpt lat="47.87931" lon="2.15285">
        <ele>111</ele>
        <time>2016-10-30T08:49:33.000Z</time>
      </trkpt>
      <trkpt lat="47.87931" lon="2.15276">
        <ele>111</ele>
        <time>2016-10-30T08:49:34.000Z</time>
      </trkpt>
      <trkpt lat="47.87932" lon="2.15267">
        <ele>111</ele>
        <time>2016-10-30T08:49:35.000Z</time>
      </trkpt>
      <trkpt lat="47.87932" lon="2.1526">
        <ele>111</ele>
        <time>2016-10-30T08:49:36.000Z</time>
      </trkpt>
      <trkpt lat="47.87933" lon="2.15252">
        <ele>111</ele>
        <time>2016-10-30T08:49:37.000Z</time>
      </trkpt>
      <trkpt lat="47.87934" lon="2.15245">
        <ele>111</ele>
        <time>2016-10-30T08:49:38.000Z</time>
      </trkpt>
      <trkpt lat="47.87935" lon="2.15237">
        <ele>112</ele>
        <time>2016-10-30T08:49:39.000Z</time>
      </trkpt>
      <trkpt lat="47.87935" lon="2.15228">
        <ele>113</ele>
        <time>2016-10-30T08:49:40.000Z</time>
      </trkpt>
      <trkpt lat="47.87936" lon="2.15219">
        <ele>112</ele>
        <time>2016-10-30T08:49:41.000Z</time>
      </trkpt>
      <trkpt lat="47.87936" lon="2.15211">
        <ele>111</ele>
        <time>2016-10-30T08:49:42.000Z</time>
      </trkpt>
      <trkpt lat="47.87938" lon="2.15204">
        <ele>111</ele>
        <time>2016-10-30T08:49:43.000Z</time>
      </trkpt>
      <trkpt lat="47.87939" lon="2.15196">
        <ele>111</ele>
        <time>2016-10-30T08:49:44.000Z</time>
      </trkpt>
      <trkpt lat="47.8794" lon="2.15189">
        <ele>111</ele>
        <time>2016-10-30T08:49:45.000Z</time>
      </trkpt>
      <trkpt lat="47.87941" lon="2.1518">
        <ele>111</ele>
        <time>2016-10-30T08:49:46.000Z</time>
      </trkpt>
      <trkpt lat="47.87941" lon="2.15172">
        <ele>112</ele>
        <time>2016-10-30T08:49:47.000Z</time>
      </trkpt>
      <trkpt lat="47.87941" lon="2.15163">
        <ele>113</ele>
        <time>2016-10-30T08:49:48.000Z</time>
      </trkpt>
      <trkpt lat="47.87942" lon="2.15155">
        <ele>114</ele>
        <time>2016-10-30T08:49:49.000Z</time>
      </trkpt>
      <trkpt lat="47.87942" lon="2.15146">
        <ele>114</ele>
        <time>2016-10-30T08:49:50.000Z</time>
      </trkpt>
      <trkpt lat="47.87943" lon="2.15138">
        <ele>113</ele>
        <time>2016-10-30T08:49:51.000Z</time>
      </trkpt>
      <trkpt lat="47.87945" lon="2.1513">
        <ele>114</ele>
        <time>2016-10-30T08:49:52.000Z</time>
      </trkpt>
      <trkpt lat="47.87946" lon="2.15121">
        <ele>114</ele>
        <time>2016-10-30T08:49:53.000Z</time>
      </trkpt>
      <trkpt lat="47.87946" lon="2.15113">
        <ele>114</ele>
        <time>2016-10-30T08:49:54.000Z</time>
      </trkpt>
      <trkpt lat="47.87947" lon="2.15104">
        <ele>115</ele>
        <time>2016-10-30T08:49:55.000Z</time>
      </trkpt>
      <trkpt lat="47.87947" lon="2.15095">
        <ele>115</ele>
        <time>2016-10-30T08:49:56.000Z</time>
      </trkpt>
      <trkpt lat="47.87947" lon="2.15086">
        <ele>115</ele>
        <time>2016-10-30T08:49:57.000Z</time>
      </trkpt>
      <trkpt lat="47.87947" lon="2.15078">
        <ele>116</ele>
        <time>2016-10-30T08:49:58.000Z</time>
      </trkpt>
      <trkpt lat="47.87948" lon="2.1507">
        <ele>115</ele>
        <time>2016-10-30T08:49:59.000Z</time>
      </trkpt>
      <trkpt lat="47.87948" lon="2.15062">
        <ele>116</ele>
        <time>2016-10-30T08:50:00.000Z</time>
      </trkpt>
      <trkpt lat="47.87948" lon="2.15055">
        <ele>116</ele>
        <time>2016-10-30T08:50:01.000Z</time>
      </trkpt>
      <trkpt lat="47.87949" lon="2.15048">
        <ele>116</ele>
        <time>2016-10-30T08:50:02.000Z</time>
      </trkpt>
      <trkpt lat="47.8795" lon="2.1504">
        <ele>117</ele>
        <time>2016-10-30T08:50:03.000Z</time>
      </trkpt>
      <trkpt lat="47.87951" lon="2.15032">
        <ele>117</ele>
        <time>2016-10-30T08:50:04.000Z</time>
      </trkpt>
      <trkpt lat="47.87952" lon="2.15024">
        <ele>117</ele>
        <time>2016-10-30T08:50:05.000Z</time>
      </trkpt>
      <trkpt lat="47.87953" lon="2.15016">
        <ele>117</ele>
        <time>2016-10-30T08:50:06.000Z</time>
      </trkpt>
      <trkpt lat="47.87954" lon="2.15008">
        <ele>118</ele>
        <time>2016-10-30T08:50:07.000Z</time>
      </trkpt>
      <trkpt lat="47.87954" lon="2.14999">
        <ele>118</ele>
        <time>2016-10-30T08:50:08.000Z</time>
      </trkpt>
      <trkpt lat="47.87955" lon="2.1499">
        <ele>118</ele>
        <time>2016-10-30T08:50:09.000Z</time>
      </trkpt>
      <trkpt lat="47.87955" lon="2.14981">
        <ele>118</ele>
        <time>2016-10-30T08:50:10.000Z</time>
      </trkpt>
      <trkpt lat="47.87956" lon="2.14972">
        <ele>116</ele>
        <time>2016-10-30T08:50:11.000Z</time>
      </trkpt>
      <trkpt lat="47.87957" lon="2.14963">
        <ele>116</ele>
        <time>2016-10-30T08:50:12.000Z</time>
      </trkpt>
      <trkpt lat="47.87958" lon="2.14955">
        <ele>115</ele>
        <time>2016-10-30T08:50:13.000Z</time>
      </trkpt>
      <trkpt lat="47.87959" lon="2.14946">
        <ele>116</ele>
        <time>2016-10-30T08:50:14.000Z</time>
      </trkpt>
      <trkpt lat="47.87959" lon="2.14937">
        <ele>116</ele>
        <time>2016-10-30T08:50:15.000Z</time>
      </trkpt>
      <trkpt lat="47.87959" lon="2.14928">
        <ele>116</ele>
        <time>2016-10-30T08:50:16.000Z</time>
      </trkpt>
      <trkpt lat="47.8796" lon="2.14919">
        <ele>116</ele>
        <time>2016-10-30T08:50:17.000Z</time>
      </trkpt>
      <trkpt lat="47.87961" lon="2.1491">
        <ele>116</ele>
        <time>2016-10-30T08:50:18.000Z</time>
      </trkpt>
      <trkpt lat="47.87962" lon="2.14901">
        <ele>115</ele>
        <time>2016-10-30T08:50:19.000Z</time>
      </trkpt>
      <trkpt lat="47.87963" lon="2.14892">
        <ele>115</ele>
        <time>2016-10-30T08:50:20.000Z</time>
      </trkpt>
      <trkpt lat="47.87963" lon="2.14884">
        <ele>114</ele>
        <time>2016-10-30T08:50:21.000Z</time>
      </trkpt>
      <trkpt lat="47.87964" lon="2.14875">
        <ele>114</ele>
        <time>2016-10-30T08:50:22.000Z</time>
      </trkpt>
      <trkpt lat="47.87965" lon="2.14867">
        <ele>114</ele>
        <time>2016-10-30T08:50:23.000Z</time>
      </trkpt>
      <trkpt lat="47.87965" lon="2.1486">
        <ele>114</ele>
        <time>2016-10-30T08:50:24.000Z</time>
      </trkpt>
      <trkpt lat="47.87967" lon="2.14853">
        <ele>114</ele>
        <time>2016-10-30T08:50:25.000Z</time>
      </trkpt>
      <trkpt lat="47.87968" lon="2.14846">
        <ele>114</ele>
        <time>2016-10-30T08:50:26.000Z</time>
      </trkpt>
      <trkpt lat="47.87969" lon="2.14839">
        <ele>114</ele>
        <time>2016-10-30T08:50:27.000Z</time>
      </trkpt>
      <trkpt lat="47.8797" lon="2.14833">
        <ele>114</ele>
        <time>2016-10-30T08:50:28.000Z</time>
      </trkpt>
      <trkpt lat="47.8797" lon="2.14825">
        <ele>114</ele>
        <time>2016-10-30T08:50:29.000Z</time>
      </trkpt>
      <trkpt lat="47.87971" lon="2.14819">
        <ele>113</ele>
        <time>2016-10-30T08:50:30.000Z</time>
      </trkpt>
      <trkpt lat="47.87971" lon="2.14812">
        <ele>113</ele>
        <time>2016-10-30T08:50:31.000Z</time>
      </trkpt>
      <trkpt lat="47.87971" lon="2.14805">
        <ele>113</ele>
        <time>2016-10-30T08:50:32.000Z</time>
      </trkpt>
      <trkpt lat="47.87971" lon="2.14797">
        <ele>114</ele>
        <time>2016-10-30T08:50:33.000Z</time>
      </trkpt>
      <trkpt lat="47.87971" lon="2.14789">
        <ele>115</ele>
        <time>2016-10-30T08:50:34.000Z</time>
      </trkpt>
      <trkpt lat="47.87971" lon="2.14781">
        <ele>115</ele>
        <time>2016-10-30T08:50:35.000Z</time>
      </trkpt>
      <trkpt lat="47.87972" lon="2.14774">
        <ele>116</ele>
        <time>2016-10-30T08:50:36.000Z</time>
      </trkpt>
      <trkpt lat="47.87972" lon="2.14766">
        <ele>117</ele>
        <time>2016-10-30T08:50:37.000Z</time>
      </trkpt>
      <trkpt lat="47.87972" lon="2.1476">
        <ele>117</ele>
        <time>2016-10-30T08:50:38.000Z</time>
      </trkpt>
      <trkpt lat="47.87973" lon="2.14754">
        <ele>117</ele>
        <time>2016-10-30T08:50:39.000Z</time>
      </trkpt>
      <trkpt lat="47.87973" lon="2.14747">
        <ele>117</ele>
        <time>2016-10-30T08:50:40.000Z</time>
      </trkpt>
      <trkpt lat="47.87974" lon="2.14741">
        <ele>117</ele>
        <time>2016-10-30T08:50:41.000Z</time>
      </trkpt>
      <trkpt lat="47.87975" lon="2.14735">
        <ele>117</ele>
        <time>2016-10-30T08:50:42.000Z</time>
      </trkpt>
      <trkpt lat="47.87975" lon="2.14729">
        <ele>117</ele>
        <time>2016-10-30T08:50:43.000Z</time>
      </trkpt>
      <trkpt lat="47.87975" lon="2.14723">
        <ele>117</ele>
        <time>2016-10-30T08:50:44.000Z</time>
      </trkpt>
      <trkpt lat="47.87976" lon="2.14717">
        <ele>117</ele>
        <time>2016-10-30T08:50:45.000Z</time>
      </trkpt>
      <trkpt lat="47.87977" lon="2.1471">
        <ele>116</ele>
        <time>2016-10-30T08:50:46.000Z</time>
      </trkpt>
      <trkpt lat="47.87978" lon="2.14704">
        <ele>117</ele>
        <time>2016-10-30T08:50:47.000Z</time>
      </trkpt>
      <trkpt lat="47.87978" lon="2.14698">
        <ele>117</ele>
        <time>2016-10-30T08:50:48.000Z</time>
      </trkpt>
      <trkpt lat="47.87979" lon="2.14692">
        <ele>118</ele>
        <time>2016-10-30T08:50:49.000Z</time>
      </trkpt>
      <trkpt lat="47.8798" lon="2.14687">
        <ele>119</ele>
        <time>2016-10-30T08:50:50.000Z</time>
      </trkpt>
      <trkpt lat="47.87982" lon="2.14683">
        <ele>119</ele>
        <time>2016-10-30T08:50:51.000Z</time>
      </trkpt>
      <trkpt lat="47.87984" lon="2.14679">
        <ele>119</ele>
        <time>2016-10-30T08:50:52.000Z</time>
      </trkpt>
      <trkpt lat="47.87985" lon="2.14676">
        <ele>119</ele>
        <time>2016-10-30T08:50:53.000Z</time>
      </trkpt>
      <trkpt lat="47.87987" lon="2.14673">
        <ele>119</ele>
        <time>2016-10-30T08:50:54.000Z</time>
      </trkpt>
      <trkpt lat="47.87988" lon="2.14671">
        <ele>120</ele>
        <time>2016-10-30T08:50:55.000Z</time>
      </trkpt>
      <trkpt lat="47.8799" lon="2.14669">
        <ele>120</ele>
        <time>2016-10-30T08:50:56.000Z</time>
      </trkpt>
      <trkpt lat="47.87992" lon="2.14667">
        <ele>120</ele>
        <time>2016-10-30T08:50:57.000Z</time>
      </trkpt>
      <trkpt lat="47.87994" lon="2.14664">
        <ele>120</ele>
        <time>2016-10-30T08:50:58.000Z</time>
      </trkpt>
      <trkpt lat="47.87997" lon="2.1466">
        <ele>120</ele>
        <time>2016-10-30T08:50:59.000Z</time>
      </trkpt>
      <trkpt lat="47.88" lon="2.14656">
        <ele>120</ele>
        <time>2016-10-30T08:51:00.000Z</time>
      </trkpt>
      <trkpt lat="47.88004" lon="2.14652">
        <ele>120</ele>
        <time>2016-10-30T08:51:01.000Z</time>
      </trkpt>
      <trkpt lat="47.88008" lon="2.14649">
        <ele>120</ele>
        <time>2016-10-30T08:51:02.000Z</time>
      </trkpt>
      <trkpt lat="47.88012" lon="2.14646">
        <ele>119</ele>
        <time>2016-10-30T08:51:03.000Z</time>
      </trkpt>
      <trkpt lat="47.88016" lon="2.14643">
        <ele>118</ele>
        <time>2016-10-30T08:51:04.000Z</time>
      </trkpt>
      <trkpt lat="47.8802" lon="2.1464">
        <ele>118</ele>
        <time>2016-10-30T08:51:05.000Z</time>
      </trkpt>
      <trkpt lat="47.88024" lon="2.14636">
        <ele>117</ele>
        <time>2016-10-30T08:51:06.000Z</time>
      </trkpt>
      <trkpt lat="47.88029" lon="2.14632">
        <ele>117</ele>
        <time>2016-10-30T08:51:07.000Z</time>
      </trkpt>
      <trkpt lat="47.88033" lon="2.14629">
        <ele>117</ele>
        <time>2016-10-30T08:51:08.000Z</time>
      </trkpt>
      <trkpt lat="47.88038" lon="2.14625">
        <ele>116</ele>
        <time>2016-10-30T08:51:09.000Z</time>
      </trkpt>
      <trkpt lat="47.88042" lon="2.14622">
        <ele>116</ele>
        <time>2016-10-30T08:51:10.000Z</time>
      </trkpt>
      <trkpt lat="47.88047" lon="2.14619">
        <ele>116</ele>
        <time>2016-10-30T08:51:11.000Z</time>
      </trkpt>
      <trkpt lat="47.88051" lon="2.14616">
        <ele>116</ele>
        <time>2016-10-30T08:51:12.000Z</time>
      </trkpt>
      <trkpt lat="47.88055" lon="2.14612">
        <ele>116</ele>
        <time>2016-10-30T08:51:13.000Z</time>
      </trkpt>
      <trkpt lat="47.8806" lon="2.14609">
        <ele>116</ele>
        <time>2016-10-30T08:51:14.000Z</time>
      </trkpt>
      <trkpt lat="47.88064" lon="2.14605">
        <ele>116</ele>
        <time>2016-10-30T08:51:15.000Z</time>
      </trkpt>
      <trkpt lat="47.88069" lon="2.14602">
        <ele>116</ele>
        <time>2016-10-30T08:51:16.000Z</time>
      </trkpt>
      <trkpt lat="47.88073" lon="2.14598">
        <ele>117</ele>
        <time>2016-10-30T08:51:17.000Z</time>
      </trkpt>
      <trkpt lat="47.88077" lon="2.14595">
        <ele>117</ele>
        <time>2016-10-30T08:51:18.000Z</time>
      </trkpt>
      <trkpt lat="47.88082" lon="2.14591">
        <ele>117</ele>
        <time>2016-10-30T08:51:19.000Z</time>
      </trkpt>
      <trkpt lat="47.88086" lon="2.14588">
        <ele>118</ele>
        <time>2016-10-30T08:51:20.000Z</time>
      </trkpt>
      <trkpt lat="47.8809" lon="2.14585">
        <ele>117</ele>
        <time>2016-10-30T08:51:21.000Z</time>
      </trkpt>
      <trkpt lat="47.88094" lon="2.14583">
        <ele>118</ele>
        <time>2016-10-30T08:51:22.000Z</time>
      </trkpt>
      <trkpt lat="47.88097" lon="2.14579">
        <ele>117</ele>
        <time>2016-10-30T08:51:23.000Z</time>
      </trkpt>
      <trkpt lat="47.88101" lon="2.14576">
        <ele>117</ele>
        <time>2016-10-30T08:51:24.000Z</time>
      </trkpt>
      <trkpt lat="47.88104" lon="2.14573">
        <ele>117</ele>
        <time>2016-10-30T08:51:25.000Z</time>
      </trkpt>
      <trkpt lat="47.88108" lon="2.1457">
        <ele>117</ele>
        <time>2016-10-30T08:51:26.000Z</time>
      </trkpt>
      <trkpt lat="47.88112" lon="2.14567">
        <ele>116</ele>
        <time>2016-10-30T08:51:27.000Z</time>
      </trkpt>
      <trkpt lat="47.88116" lon="2.14563">
        <ele>116</ele>
        <time>2016-10-30T08:51:28.000Z</time>
      </trkpt>
      <trkpt lat="47.8812" lon="2.14561">
        <ele>116</ele>
        <time>2016-10-30T08:51:29.000Z</time>
      </trkpt>
      <trkpt lat="47.88124" lon="2.14558">
        <ele>115</ele>
        <time>2016-10-30T08:51:30.000Z</time>
      </trkpt>
      <trkpt lat="47.88129" lon="2.14555">
        <ele>115</ele>
        <time>2016-10-30T08:51:31.000Z</time>
      </trkpt>
      <trkpt lat="47.88133" lon="2.14552">
        <ele>115</ele>
        <time>2016-10-30T08:51:32.000Z</time>
      </trkpt>
      <trkpt lat="47.88137" lon="2.14549">
        <ele>115</ele>
        <time>2016-10-30T08:51:33.000Z</time>
      </trkpt>
      <trkpt lat="47.88141" lon="2.14546">
        <ele>115</ele>
        <time>2016-10-30T08:51:34.000Z</time>
      </trkpt>
      <trkpt lat="47.88145" lon="2.14543">
        <ele>115</ele>
        <time>2016-10-30T08:51:35.000Z</time>
      </trkpt>
      <trkpt lat="47.88149" lon="2.14541">
        <ele>115</ele>
        <time>2016-10-30T08:51:36.000Z</time>
      </trkpt>
      <trkpt lat="47.88152" lon="2.14538">
        <ele>115</ele>
        <time>2016-10-30T08:51:37.000Z</time>
      </trkpt>
      <trkpt lat="47.88156" lon="2.14535">
        <ele>115</ele>
        <time>2016-10-30T08:51:38.000Z</time>
      </trkpt>
      <trkpt lat="47.88159" lon="2.14533">
        <ele>115</ele>
        <time>2016-10-30T08:51:39.000Z</time>
      </trkpt>
      <trkpt lat="47.88163" lon="2.1453">
        <ele>115</ele>
        <time>2016-10-30T08:51:40.000Z</time>
      </trkpt>
      <trkpt lat="47.88166" lon="2.14527">
        <ele>115</ele>
        <time>2016-10-30T08:51:41.000Z</time>
      </trkpt>
      <trkpt lat="47.88169" lon="2.14525">
        <ele>115</ele>
        <time>2016-10-30T08:51:42.000Z</time>
      </trkpt>
      <trkpt lat="47.88172" lon="2.14523">
        <ele>115</ele>
        <time>2016-10-30T08:51:43.000Z</time>
      </trkpt>
      <trkpt lat="47.88175" lon="2.14521">
        <ele>115</ele>
        <time>2016-10-30T08:51:44.000Z</time>
      </trkpt>
      <trkpt lat="47.88177" lon="2.14518">
        <ele>115</ele>
        <time>2016-10-30T08:51:45.000Z</time>
      </trkpt>
      <trkpt lat="47.88181" lon="2.14515">
        <ele>116</ele>
        <time>2016-10-30T08:51:46.000Z</time>
      </trkpt>
      <trkpt lat="47.88185" lon="2.14512">
        <ele>116</ele>
        <time>2016-10-30T08:51:47.000Z</time>
      </trkpt>
      <trkpt lat="47.88188" lon="2.14509">
        <ele>116</ele>
        <time>2016-10-30T08:51:48.000Z</time>
      </trkpt>
      <trkpt lat="47.88192" lon="2.14505">
        <ele>117</ele>
        <time>2016-10-30T08:51:49.000Z</time>
      </trkpt>
      <trkpt lat="47.88195" lon="2.14502">
        <ele>118</ele>
        <time>2016-10-30T08:51:50.000Z</time>
      </trkpt>
      <trkpt lat="47.88198" lon="2.14498">
        <ele>118</ele>
        <time>2016-10-30T08:51:51.000Z</time>
      </trkpt>
      <trkpt lat="47.88202" lon="2.14494">
        <ele>119</ele>
        <time>2016-10-30T08:51:52.000Z</time>
      </trkpt>
      <trkpt lat="47.88206" lon="2.1449">
        <ele>119</ele>
        <time>2016-10-30T08:51:53.000Z</time>
      </trkpt>
      <trkpt lat="47.88209" lon="2.14486">
        <ele>120</ele>
        <time>2016-10-30T08:51:54.000Z</time>
      </trkpt>
      <trkpt lat="47.88213" lon="2.14482">
        <ele>121</ele>
        <time>2016-10-30T08:51:55.000Z</time>
      </trkpt>
      <trkpt lat="47.88217" lon="2.14479">
        <ele>121</ele>
        <time>2016-10-30T08:51:56.000Z</time>
      </trkpt>
      <trkpt lat="47.88222" lon="2.14475">
        <ele>122</ele>
        <time>2016-10-30T08:51:57.000Z</time>
      </trkpt>
      <trkpt lat="47.88226" lon="2.14471">
        <ele>122</ele>
        <time>2016-10-30T08:51:58.000Z</time>
      </trkpt>
      <trkpt lat="47.8823" lon="2.14466">
        <ele>122</ele>
        <time>2016-10-30T08:51:59.000Z</time>
      </trkpt>
      <trkpt lat="47.88233" lon="2.14462">
        <ele>123</ele>
        <time>2016-10-30T08:52:00.000Z</time>
      </trkpt>
      <trkpt lat="47.88237" lon="2.14458">
        <ele>123</ele>
        <time>2016-10-30T08:52:01.000Z</time>
      </trkpt>
      <trkpt lat="47.8824" lon="2.14453">
        <ele>123</ele>
        <time>2016-10-30T08:52:02.000Z</time>
      </trkpt>
      <trkpt lat="47.88244" lon="2.14448">
        <ele>122</ele>
        <time>2016-10-30T08:52:03.000Z</time>
      </trkpt>
      <trkpt lat="47.88248" lon="2.14443">
        <ele>121</ele>
        <time>2016-10-30T08:52:04.000Z</time>
      </trkpt>
      <trkpt lat="47.88253" lon="2.14438">
        <ele>121</ele>
        <time>2016-10-30T08:52:05.000Z</time>
      </trkpt>
      <trkpt lat="47.88257" lon="2.14434">
        <ele>120</ele>
        <time>2016-10-30T08:52:06.000Z</time>
      </trkpt>
      <trkpt lat="47.88261" lon="2.14428">
        <ele>119</ele>
        <time>2016-10-30T08:52:07.000Z</time>
      </trkpt>
      <trkpt lat="47.88265" lon="2.14423">
        <ele>117</ele>
        <time>2016-10-30T08:52:08.000Z</time>
      </trkpt>
      <trkpt lat="47.88269" lon="2.14417">
        <ele>117</ele>
        <time>2016-10-30T08:52:09.000Z</time>
      </trkpt>
      <trkpt lat="47.88273" lon="2.14412">
        <ele>115</ele>
        <time>2016-10-30T08:52:10.000Z</time>
      </trkpt>
      <trkpt lat="47.88276" lon="2.14406">
        <ele>114</ele>
        <time>2016-10-30T08:52:11.000Z</time>
      </trkpt>
      <trkpt lat="47.8828" lon="2.14401">
        <ele>114</ele>
        <time>2016-10-30T08:52:12.000Z</time>
      </trkpt>
      <trkpt lat="47.88284" lon="2.14395">
        <ele>114</ele>
        <time>2016-10-30T08:52:13.000Z</time>
      </trkpt>
      <trkpt lat="47.88288" lon="2.14389">
        <ele>114</ele>
        <time>2016-10-30T08:52:14.000Z</time>
      </trkpt>
      <trkpt lat="47.88292" lon="2.14383">
        <ele>114</ele>
        <time>2016-10-30T08:52:15.000Z</time>
      </trkpt>
      <trkpt lat="47.88296" lon="2.14377">
        <ele>115</ele>
        <time>2016-10-30T08:52:16.000Z</time>
      </trkpt>
      <trkpt lat="47.88299" lon="2.14371">
        <ele>115</ele>
        <time>2016-10-30T08:52:17.000Z</time>
      </trkpt>
      <trkpt lat="47.88302" lon="2.14365">
        <ele>115</ele>
        <time>2016-10-30T08:52:18.000Z</time>
      </trkpt>
      <trkpt lat="47.88305" lon="2.14359">
        <ele>114</ele>
        <time>2016-10-30T08:52:19.000Z</time>
      </trkpt>
      <trkpt lat="47.88308" lon="2.14353">
        <ele>114</ele>
        <time>2016-10-30T08:52:20.000Z</time>
      </trkpt>
      <trkpt lat="47.88312" lon="2.14347">
        <ele>116</ele>
        <time>2016-10-30T08:52:21.000Z</time>
      </trkpt>
      <trkpt lat="47.88316" lon="2.14341">
        <ele>117</ele>
        <time>2016-10-30T08:52:22.000Z</time>
      </trkpt>
      <trkpt lat="47.8832" lon="2.14334">
        <ele>118</ele>
        <time>2016-10-30T08:52:23.000Z</time>
      </trkpt>
      <trkpt lat="47.88324" lon="2.14327">
        <ele>118</ele>
        <time>2016-10-30T08:52:24.000Z</time>
      </trkpt>
      <trkpt lat="47.88327" lon="2.14319">
        <ele>119</ele>
        <time>2016-10-30T08:52:25.000Z</time>
      </trkpt>
      <trkpt lat="47.88331" lon="2.14312">
        <ele>120</ele>
        <time>2016-10-30T08:52:26.000Z</time>
      </trkpt>
      <trkpt lat="47.88334" lon="2.14303">
        <ele>118</ele>
        <time>2016-10-30T08:52:27.000Z</time>
      </trkpt>
      <trkpt lat="47.88337" lon="2.14295">
        <ele>117</ele>
        <time>2016-10-30T08:52:28.000Z</time>
      </trkpt>
      <trkpt lat="47.88339" lon="2.14285">
        <ele>117</ele>
        <time>2016-10-30T08:52:29.000Z</time>
      </trkpt>
      <trkpt lat="47.88341" lon="2.14276">
        <ele>116</ele>
        <time>2016-10-30T08:52:30.000Z</time>
      </trkpt>
      <trkpt lat="47.88343" lon="2.14267">
        <ele>116</ele>
        <time>2016-10-30T08:52:31.000Z</time>
      </trkpt>
      <trkpt lat="47.88345" lon="2.14259">
        <ele>116</ele>
        <time>2016-10-30T08:52:32.000Z</time>
      </trkpt>
      <trkpt lat="47.88347" lon="2.14251">
        <ele>116</ele>
        <time>2016-10-30T08:52:33.000Z</time>
      </trkpt>
      <trkpt lat="47.8835" lon="2.14242">
        <ele>116</ele>
        <time>2016-10-30T08:52:34.000Z</time>
      </trkpt>
      <trkpt lat="47.88352" lon="2.14234">
        <ele>116</ele>
        <time>2016-10-30T08:52:35.000Z</time>
      </trkpt>
      <trkpt lat="47.88353" lon="2.14226">
        <ele>116</ele>
        <time>2016-10-30T08:52:36.000Z</time>
      </trkpt>
      <trkpt lat="47.88355" lon="2.14217">
        <ele>116</ele>
        <time>2016-10-30T08:52:37.000Z</time>
      </trkpt>
      <trkpt lat="47.88357" lon="2.14209">
        <ele>116</ele>
        <time>2016-10-30T08:52:38.000Z</time>
      </trkpt>
      <trkpt lat="47.88359" lon="2.14202">
        <ele>115</ele>
        <time>2016-10-30T08:52:39.000Z</time>
      </trkpt>
      <trkpt lat="47.88361" lon="2.14194">
        <ele>116</ele>
        <time>2016-10-30T08:52:40.000Z</time>
      </trkpt>
      <trkpt lat="47.88362" lon="2.14186">
        <ele>116</ele>
        <time>2016-10-30T08:52:41.000Z</time>
      </trkpt>
      <trkpt lat="47.88364" lon="2.14179">
        <ele>116</ele>
        <time>2016-10-30T08:52:42.000Z</time>
      </trkpt>
      <trkpt lat="47.88365" lon="2.14171">
        <ele>116</ele>
        <time>2016-10-30T08:52:43.000Z</time>
      </trkpt>
      <trkpt lat="47.88366" lon="2.14164">
        <ele>116</ele>
        <time>2016-10-30T08:52:44.000Z</time>
      </trkpt>
      <trkpt lat="47.88368" lon="2.14158">
        <ele>115</ele>
        <time>2016-10-30T08:52:45.000Z</time>
      </trkpt>
      <trkpt lat="47.88369" lon="2.14152">
        <ele>116</ele>
        <time>2016-10-30T08:52:46.000Z</time>
      </trkpt>
      <trkpt lat="47.88371" lon="2.14146">
        <ele>115</ele>
        <time>2016-10-30T08:52:47.000Z</time>
      </trkpt>
      <trkpt lat="47.88372" lon="2.1414">
        <ele>115</ele>
        <time>2016-10-30T08:52:48.000Z</time>
      </trkpt>
      <trkpt lat="47.88373" lon="2.14134">
        <ele>115</ele>
        <time>2016-10-30T08:52:49.000Z</time>
      </trkpt>
      <trkpt lat="47.88375" lon="2.14128">
        <ele>115</ele>
        <time>2016-10-30T08:52:50.000Z</time>
      </trkpt>
      <trkpt lat="47.88376" lon="2.14122">
        <ele>115</ele>
        <time>2016-10-30T08:52:51.000Z</time>
      </trkpt>
      <trkpt lat="47.88377" lon="2.14116">
        <ele>115</ele>
        <time>2016-10-30T08:52:52.000Z</time>
      </trkpt>
      <trkpt lat="47.88378" lon="2.1411">
        <ele>115</ele>
        <time>2016-10-30T08:52:53.000Z</time>
      </trkpt>
      <trkpt lat="47.88379" lon="2.14104">
        <ele>115</ele>
        <time>2016-10-30T08:52:54.000Z</time>
      </trkpt>
      <trkpt lat="47.88381" lon="2.14099">
        <ele>115</ele>
        <time>2016-10-30T08:52:55.000Z</time>
      </trkpt>
      <trkpt lat="47.88382" lon="2.14093">
        <ele>115</ele>
        <time>2016-10-30T08:52:56.000Z</time>
      </trkpt>
      <trkpt lat="47.88383" lon="2.14088">
        <ele>115</ele>
        <time>2016-10-30T08:52:57.000Z</time>
      </trkpt>
      <trkpt lat="47.88384" lon="2.14083">
        <ele>115</ele>
        <time>2016-10-30T08:52:58.000Z</time>
      </trkpt>
      <trkpt lat="47.88385" lon="2.14078">
        <ele>115</ele>
        <time>2016-10-30T08:52:59.000Z</time>
      </trkpt>
      <trkpt lat="47.88386" lon="2.14073">
        <ele>115</ele>
        <time>2016-10-30T08:53:00.000Z</time>
      </trkpt>
      <trkpt lat="47.88386" lon="2.14069">
        <ele>115</ele>
        <time>2016-10-30T08:53:01.000Z</time>
      </trkpt>
      <trkpt lat="47.88387" lon="2.14065">
        <ele>115</ele>
        <time>2016-10-30T08:53:02.000Z</time>
      </trkpt>
      <trkpt lat="47.88388" lon="2.14062">
        <ele>115</ele>
        <time>2016-10-30T08:53:03.000Z</time>
      </trkpt>
      <trkpt lat="47.88388" lon="2.14059">
        <ele>115</ele>
        <time>2016-10-30T08:53:04.000Z</time>
      </trkpt>
      <trkpt lat="47.88389" lon="2.14056">
        <ele>115</ele>
        <time>2016-10-30T08:53:05.000Z</time>
      </trkpt>
      <trkpt lat="47.88389" lon="2.14053">
        <ele>115</ele>
        <time>2016-10-30T08:53:06.000Z</time>
      </trkpt>
      <trkpt lat="47.8839" lon="2.14051">
        <ele>115</ele>
        <time>2016-10-30T08:53:07.000Z</time>
      </trkpt>
      <trkpt lat="47.88391" lon="2.14049">
        <ele>115</ele>
        <time>2016-10-30T08:53:08.000Z</time>
      </trkpt>
      <trkpt lat="47.88391" lon="2.14047">
        <ele>115</ele>
        <time>2016-10-30T08:53:09.000Z</time>
      </trkpt>
      <trkpt lat="47.88392" lon="2.14046">
        <ele>115</ele>
        <time>2016-10-30T08:53:10.000Z</time>
      </trkpt>
      <trkpt lat="47.88393" lon="2.14045">
        <ele>115</ele>
        <time>2016-10-30T08:53:11.000Z</time>
      </trkpt>
      <trkpt lat="47.88393" lon="2.14044">
        <ele>115</ele>
        <time>2016-10-30T08:53:12.000Z</time>
      </trkpt>
      <trkpt lat="47.88393" lon="2.14042">
        <ele>114</ele>
        <time>2016-10-30T08:53:13.000Z</time>
      </trkpt>
      <trkpt lat="47.88394" lon="2.14041">
        <ele>114</ele>
        <time>2016-10-30T08:53:14.000Z</time>
      </trkpt>
      <trkpt lat="47.88394" lon="2.1404">
        <ele>114</ele>
        <time>2016-10-30T08:53:15.000Z</time>
      </trkpt>
      <trkpt lat="47.88394" lon="2.14039">
        <ele>114</ele>
        <time>2016-10-30T08:53:16.000Z</time>
      </trkpt>
      <trkpt lat="47.88394" lon="2.14039">
        <ele>114</ele>
        <time>2016-10-30T08:53:17.000Z</time>
      </trkpt>
      <trkpt lat="47.88394" lon="2.14039">
        <ele>114</ele>
        <time>2016-10-30T08:53:18.000Z</time>
      </trkpt>
      <trkpt lat="47.88394" lon="2.14039">
        <ele>114</ele>
        <time>2016-10-30T08:53:19.000Z</time>
      </trkpt>
      <trkpt lat="47.88394" lon="2.14039">
        <ele>114</ele>
        <time>2016-10-30T08:53:20.000Z</time>
      </trkpt>
      <trkpt lat="47.88394" lon="2.14039">
        <ele>114</ele>
        <time>2016-10-30T08:53:21.000Z</time>
      </trkpt>
      <trkpt lat="47.88394" lon="2.14039">
        <ele>114</ele>
        <time>2016-10-30T08:53:22.000Z</time>
      </trkpt>
      <trkpt lat="47.88394" lon="2.14038">
        <ele>114</ele>
        <time>2016-10-30T08:53:23.000Z</time>
      </trkpt>
      <trkpt lat="47.88394" lon="2.14038">
        <ele>114</ele>
        <time>2016-10-30T08:53:24.000Z</time>
      </trkpt>
      <trkpt lat="47.88394" lon="2.14038">
        <ele>114</ele>
        <time>2016-10-30T08:53:25.000Z</time>
      </trkpt>
      <trkpt lat="47.88394" lon="2.14038">
        <ele>114</ele>
        <time>2016-10-30T08:53:26.000Z</time>
      </trkpt>
      <trkpt lat="47.88394" lon="2.14038">
        <ele>115</ele>
        <time>2016-10-30T08:53:27.000Z</time>
      </trkpt>
      <trkpt lat="47.88395" lon="2.14038">
        <ele>115</ele>
        <time>2016-10-30T08:53:28.000Z</time>
      </trkpt>
      <trkpt lat="47.88395" lon="2.14038">
        <ele>115</ele>
        <time>2016-10-30T08:53:29.000Z</time>
      </trkpt>
      <trkpt lat="47.88395" lon="2.14038">
        <ele>115</ele>
        <time>2016-10-30T08:53:30.000Z</time>
      </trkpt>
      <trkpt lat="47.88395" lon="2.14038">
        <ele>114</ele>
        <time>2016-10-30T08:53:31.000Z</time>
      </trkpt>
      <trkpt lat="47.88395" lon="2.14038">
        <ele>114</ele>
        <time>2016-10-30T08:53:32.000Z</time>
      </trkpt>
      <trkpt lat="47.88395" lon="2.14038">
        <ele>115</ele>
        <time>2016-10-30T08:53:33.000Z</time>
      </trkpt>
      <trkpt lat="47.88395" lon="2.14039">
        <ele>115</ele>
        <time>2016-10-30T08:53:34.000Z</time>
      </trkpt>
      <trkpt lat="47.88395" lon="2.14039">
        <ele>115</ele>
        <time>2016-10-30T08:53:35.000Z</time>
      </trkpt>
      <trkpt lat="47.88395" lon="2.14039">
        <ele>115</ele>
        <time>2016-10-30T08:53:36.000Z</time>
      </trkpt>
      <trkpt lat="47.88395" lon="2.14039">
        <ele>115</ele>
        <time>2016-10-30T08:53:37.000Z</time>
      </trkpt>
      <trkpt lat="47.88395" lon="2.14039">
        <ele>115</ele>
        <time>2016-10-30T08:53:38.000Z</time>
      </trkpt>
      <trkpt lat="47.88395" lon="2.14039">
        <ele>115</ele>
        <time>2016-10-30T08:53:39.000Z</time>
      </trkpt>
      <trkpt lat="47.88395" lon="2.1404">
        <ele>114</ele>
        <time>2016-10-30T08:53:40.000Z</time>
      </trkpt>
      <trkpt lat="47.88395" lon="2.1404">
        <ele>114</ele>
        <time>2016-10-30T08:53:41.000Z</time>
      </trkpt>
      <trkpt lat="47.88395" lon="2.1404">
        <ele>114</ele>
        <time>2016-10-30T08:53:42.000Z</time>
      </trkpt>
      <trkpt lat="47.88395" lon="2.1404">
        <ele>114</ele>
        <time>2016-10-30T08:53:43.000Z</time>
      </trkpt>
      <trkpt lat="47.88395" lon="2.1404">
        <ele>114</ele>
        <time>2016-10-30T08:53:44.000Z</time>
      </trkpt>
      <trkpt lat="47.88395" lon="2.1404">
        <ele>114</ele>
        <time>2016-10-30T08:53:45.000Z</time>
      </trkpt>
      <trkpt lat="47.88396" lon="2.1404">
        <ele>114</ele>
        <time>2016-10-30T08:53:46.000Z</time>
      </trkpt>
      <trkpt lat="47.88396" lon="2.1404">
        <ele>114</ele>
        <time>2016-10-30T08:53:47.000Z</time>
      </trkpt>
      <trkpt lat="47.88396" lon="2.1404">
        <ele>114</ele>
        <time>2016-10-30T08:53:48.000Z</time>
      </trkpt>
      <trkpt lat="47.88396" lon="2.1404">
        <ele>114</ele>
        <time>2016-10-30T08:53:49.000Z</time>
      </trkpt>
      <trkpt lat="47.88396" lon="2.1404">
        <ele>114</ele>
        <time>2016-10-30T08:53:50.000Z</time>
      </trkpt>
      <trkpt lat="47.88396" lon="2.1404">
        <ele>114</ele>
        <time>2016-10-30T08:53:51.000Z</time>
      </trkpt>
      <trkpt lat="47.88396" lon="2.1404">
        <ele>114</ele>
        <time>2016-10-30T08:53:52.000Z</time>
      </trkpt>
      <trkpt lat="47.88396" lon="2.1404">
        <ele>115</ele>
        <time>2016-10-30T08:53:53.000Z</time>
      </trkpt>
      <trkpt lat="47.88396" lon="2.1404">
        <ele>115</ele>
        <time>2016-10-30T08:53:54.000Z</time>
      </trkpt>
      <trkpt lat="47.88396" lon="2.1404">
        <ele>115</ele>
        <time>2016-10-30T08:53:55.000Z</time>
      </trkpt>
      <trkpt lat="47.88396" lon="2.1404">
        <ele>115</ele>
        <time>2016-10-30T08:53:56.000Z</time>
      </trkpt>
      <trkpt lat="47.88396" lon="2.1404">
        <ele>115</ele>
        <time>2016-10-30T08:53:57.000Z</time>
      </trkpt>
      <trkpt lat="47.88396" lon="2.1404">
        <ele>115</ele>
        <time>2016-10-30T08:53:58.000Z</time>
      </trkpt>
      <trkpt lat="47.88396" lon="2.1404">
        <ele>115</ele>
        <time>2016-10-30T08:53:59.000Z</time>
      </trkpt>
      <trkpt lat="47.88396" lon="2.1404">
        <ele>115</ele>
        <time>2016-10-30T08:54:00.000Z</time>
      </trkpt>
      <trkpt lat="47.88396" lon="2.14039">
        <ele>115</ele>
        <time>2016-10-30T08:54:01.000Z</time>
      </trkpt>
      <trkpt lat="47.88396" lon="2.14039">
        <ele>114</ele>
        <time>2016-10-30T08:54:02.000Z</time>
      </trkpt>
      <trkpt lat="47.88396" lon="2.14037">
        <ele>114</ele>
        <time>2016-10-30T08:54:03.000Z</time>
      </trkpt>
      <trkpt lat="47.88396" lon="2.14035">
        <ele>114</ele>
        <time>2016-10-30T08:54:04.000Z</time>
      </trkpt>
      <trkpt lat="47.88395" lon="2.14032">
        <ele>115</ele>
        <time>2016-10-30T08:54:05.000Z</time>
      </trkpt>
      <trkpt lat="47.88393" lon="2.14029">
        <ele>115</ele>
        <time>2016-10-30T08:54:06.000Z</time>
      </trkpt>
      <trkpt lat="47.8839" lon="2.14025">
        <ele>115</ele>
        <time>2016-10-30T08:54:07.000Z</time>
      </trkpt>
      <trkpt lat="47.88387" lon="2.14021">
        <ele>115</ele>
        <time>2016-10-30T08:54:08.000Z</time>
      </trkpt>
      <trkpt lat="47.88384" lon="2.14017">
        <ele>115</ele>
        <time>2016-10-30T08:54:09.000Z</time>
      </trkpt>
      <trkpt lat="47.88381" lon="2.14012">
        <ele>114</ele>
        <time>2016-10-30T08:54:10.000Z</time>
      </trkpt>
      <trkpt lat="47.88377" lon="2.14009">
        <ele>114</ele>
        <time>2016-10-30T08:54:11.000Z</time>
      </trkpt>
      <trkpt lat="47.88374" lon="2.14005">
        <ele>114</ele>
        <time>2016-10-30T08:54:12.000Z</time>
      </trkpt>
      <trkpt lat="47.88371" lon="2.14001">
        <ele>114</ele>
        <time>2016-10-30T08:54:13.000Z</time>
      </trkpt>
      <trkpt lat="47.88368" lon="2.13998">
        <ele>114</ele>
        <time>2016-10-30T08:54:14.000Z</time>
      </trkpt>
      <trkpt lat="47.88365" lon="2.13994">
        <ele>114</ele>
        <time>2016-10-30T08:54:15.000Z</time>
      </trkpt>
      <trkpt lat="47.88361" lon="2.1399">
        <ele>113</ele>
        <time>2016-10-30T08:54:16.000Z</time>
      </trkpt>
      <trkpt lat="47.88358" lon="2.13986">
        <ele>113</ele>
        <time>2016-10-30T08:54:17.000Z</time>
      </trkpt>
      <trkpt lat="47.88354" lon="2.13981">
        <ele>113</ele>
        <time>2016-10-30T08:54:18.000Z</time>
      </trkpt>
      <trkpt lat="47.8835" lon="2.13977">
        <ele>113</ele>
        <time>2016-10-30T08:54:19.000Z</time>
      </trkpt>
      <trkpt lat="47.88345" lon="2.13972">
        <ele>113</ele>
        <time>2016-10-30T08:54:20.000Z</time>
      </trkpt>
      <trkpt lat="47.88341" lon="2.13968">
        <ele>113</ele>
        <time>2016-10-30T08:54:21.000Z</time>
      </trkpt>
      <trkpt lat="47.88337" lon="2.13963">
        <ele>113</ele>
        <time>2016-10-30T08:54:22.000Z</time>
      </trkpt>
      <trkpt lat="47.88333" lon="2.13959">
        <ele>113</ele>
        <time>2016-10-30T08:54:23.000Z</time>
      </trkpt>
      <trkpt lat="47.88329" lon="2.13954">
        <ele>112</ele>
        <time>2016-10-30T08:54:24.000Z</time>
      </trkpt>
      <trkpt lat="47.88325" lon="2.1395">
        <ele>112</ele>
        <time>2016-10-30T08:54:25.000Z</time>
      </trkpt>
      <trkpt lat="47.88321" lon="2.13945">
        <ele>112</ele>
        <time>2016-10-30T08:54:26.000Z</time>
      </trkpt>
      <trkpt lat="47.88317" lon="2.13941">
        <ele>112</ele>
        <time>2016-10-30T08:54:27.000Z</time>
      </trkpt>
      <trkpt lat="47.88313" lon="2.13937">
        <ele>112</ele>
        <time>2016-10-30T08:54:28.000Z</time>
      </trkpt>
      <trkpt lat="47.88309" lon="2.13932">
        <ele>112</ele>
        <time>2016-10-30T08:54:29.000Z</time>
      </trkpt>
      <trkpt lat="47.88306" lon="2.13928">
        <ele>112</ele>
        <time>2016-10-30T08:54:30.000Z</time>
      </trkpt>
      <trkpt lat="47.88302" lon="2.13924">
        <ele>112</ele>
        <time>2016-10-30T08:54:31.000Z</time>
      </trkpt>
      <trkpt lat="47.88298" lon="2.1392">
        <ele>112</ele>
        <time>2016-10-30T08:54:32.000Z</time>
      </trkpt>
      <trkpt lat="47.88294" lon="2.13915">
        <ele>112</ele>
        <time>2016-10-30T08:54:33.000Z</time>
      </trkpt>
      <trkpt lat="47.8829" lon="2.13911">
        <ele>113</ele>
        <time>2016-10-30T08:54:34.000Z</time>
      </trkpt>
      <trkpt lat="47.88286" lon="2.13906">
        <ele>113</ele>
        <time>2016-10-30T08:54:35.000Z</time>
      </trkpt>
      <trkpt lat="47.88282" lon="2.13902">
        <ele>113</ele>
        <time>2016-10-30T08:54:36.000Z</time>
      </trkpt>
      <trkpt lat="47.88278" lon="2.13897">
        <ele>113</ele>
        <time>2016-10-30T08:54:37.000Z</time>
      </trkpt>
      <trkpt lat="47.88273" lon="2.13893">
        <ele>113</ele>
        <time>2016-10-30T08:54:38.000Z</time>
      </trkpt>
      <trkpt lat="47.88269" lon="2.13888">
        <ele>113</ele>
        <time>2016-10-30T08:54:39.000Z</time>
      </trkpt>
      <trkpt lat="47.88265" lon="2.13883">
        <ele>113</ele>
        <time>2016-10-30T08:54:40.000Z</time>
      </trkpt>
      <trkpt lat="47.88261" lon="2.13878">
        <ele>114</ele>
        <time>2016-10-30T08:54:41.000Z</time>
      </trkpt>
      <trkpt lat="47.88257" lon="2.13873">
        <ele>114</ele>
        <time>2016-10-30T08:54:42.000Z</time>
      </trkpt>
      <trkpt lat="47.88254" lon="2.13868">
        <ele>114</ele>
        <time>2016-10-30T08:54:43.000Z</time>
      </trkpt>
      <trkpt lat="47.8825" lon="2.13863">
        <ele>115</ele>
        <time>2016-10-30T08:54:44.000Z</time>
      </trkpt>
      <trkpt lat="47.88247" lon="2.13858">
        <ele>115</ele>
        <time>2016-10-30T08:54:45.000Z</time>
      </trkpt>
      <trkpt lat="47.88243" lon="2.13853">
        <ele>114</ele>
        <time>2016-10-30T08:54:46.000Z</time>
      </trkpt>
      <trkpt lat="47.88238" lon="2.13847">
        <ele>114</ele>
        <time>2016-10-30T08:54:47.000Z</time>
      </trkpt>
      <trkpt lat="47.88234" lon="2.13842">
        <ele>114</ele>
        <time>2016-10-30T08:54:48.000Z</time>
      </trkpt>
      <trkpt lat="47.8823" lon="2.13837">
        <ele>114</ele>
        <time>2016-10-30T08:54:49.000Z</time>
      </trkpt>
      <trkpt lat="47.88225" lon="2.13831">
        <ele>115</ele>
        <time>2016-10-30T08:54:50.000Z</time>
      </trkpt>
      <trkpt lat="47.88221" lon="2.13826">
        <ele>115</ele>
        <time>2016-10-30T08:54:51.000Z</time>
      </trkpt>
      <trkpt lat="47.88216" lon="2.13821">
        <ele>115</ele>
        <time>2016-10-30T08:54:52.000Z</time>
      </trkpt>
      <trkpt lat="47.88212" lon="2.13816">
        <ele>115</ele>
        <time>2016-10-30T08:54:53.000Z</time>
      </trkpt>
      <trkpt lat="47.88207" lon="2.13812">
        <ele>115</ele>
        <time>2016-10-30T08:54:54.000Z</time>
      </trkpt>
      <trkpt lat="47.88203" lon="2.13807">
        <ele>115</ele>
        <time>2016-10-30T08:54:55.000Z</time>
      </trkpt>
      <trkpt lat="47.88199" lon="2.13803">
        <ele>115</ele>
        <time>2016-10-30T08:54:56.000Z</time>
      </trkpt>
      <trkpt lat="47.88196" lon="2.13798">
        <ele>117</ele>
        <time>2016-10-30T08:54:57.000Z</time>
      </trkpt>
      <trkpt lat="47.88194" lon="2.13794">
        <ele>117</ele>
        <time>2016-10-30T08:54:58.000Z</time>
      </trkpt>
      <trkpt lat="47.88192" lon="2.13789">
        <ele>117</ele>
        <time>2016-10-30T08:54:59.000Z</time>
      </trkpt>
      <trkpt lat="47.88188" lon="2.13784">
        <ele>116</ele>
        <time>2016-10-30T08:55:00.000Z</time>
      </trkpt>
      <trkpt lat="47.88184" lon="2.1378">
        <ele>116</ele>
        <time>2016-10-30T08:55:01.000Z</time>
      </trkpt>
      <trkpt lat="47.88179" lon="2.13776">
        <ele>116</ele>
        <time>2016-10-30T08:55:02.000Z</time>
      </trkpt>
      <trkpt lat="47.88174" lon="2.13771">
        <ele>116</ele>
        <time>2016-10-30T08:55:03.000Z</time>
      </trkpt>
      <trkpt lat="47.8817" lon="2.13767">
        <ele>115</ele>
        <time>2016-10-30T08:55:04.000Z</time>
      </trkpt>
      <trkpt lat="47.88165" lon="2.13763">
        <ele>115</ele>
        <time>2016-10-30T08:55:05.000Z</time>
      </trkpt>
      <trkpt lat="47.8816" lon="2.13759">
        <ele>115</ele>
        <time>2016-10-30T08:55:06.000Z</time>
      </trkpt>
      <trkpt lat="47.88155" lon="2.13754">
        <ele>115</ele>
        <time>2016-10-30T08:55:07.000Z</time>
      </trkpt>
      <trkpt lat="47.88151" lon="2.1375">
        <ele>115</ele>
        <time>2016-10-30T08:55:08.000Z</time>
      </trkpt>
      <trkpt lat="47.88146" lon="2.13745">
        <ele>115</ele>
        <time>2016-10-30T08:55:09.000Z</time>
      </trkpt>
      <trkpt lat="47.88141" lon="2.1374">
        <ele>115</ele>
        <time>2016-10-30T08:55:10.000Z</time>
      </trkpt>
      <trkpt lat="47.88137" lon="2.13736">
        <ele>114</ele>
        <time>2016-10-30T08:55:11.000Z</time>
      </trkpt>
      <trkpt lat="47.88132" lon="2.13731">
        <ele>115</ele>
        <time>2016-10-30T08:55:12.000Z</time>
      </trkpt>
      <trkpt lat="47.88127" lon="2.13727">
        <ele>114</ele>
        <time>2016-10-30T08:55:13.000Z</time>
      </trkpt>
      <trkpt lat="47.88122" lon="2.13722">
        <ele>114</ele>
        <time>2016-10-30T08:55:14.000Z</time>
      </trkpt>
      <trkpt lat="47.88117" lon="2.13718">
        <ele>114</ele>
        <time>2016-10-30T08:55:15.000Z</time>
      </trkpt>
      <trkpt lat="47.88113" lon="2.13714">
        <ele>114</ele>
        <time>2016-10-30T08:55:16.000Z</time>
      </trkpt>
      <trkpt lat="47.88108" lon="2.13709">
        <ele>114</ele>
        <time>2016-10-30T08:55:17.000Z</time>
      </trkpt>
      <trkpt lat="47.88103" lon="2.13705">
        <ele>114</ele>
        <time>2016-10-30T08:55:18.000Z</time>
      </trkpt>
      <trkpt lat="47.88099" lon="2.137">
        <ele>114</ele>
        <time>2016-10-30T08:55:19.000Z</time>
      </trkpt>
      <trkpt lat="47.88094" lon="2.13696">
        <ele>114</ele>
        <time>2016-10-30T08:55:20.000Z</time>
      </trkpt>
      <trkpt lat="47.8809" lon="2.13691">
        <ele>114</ele>
        <time>2016-10-30T08:55:21.000Z</time>
      </trkpt>
      <trkpt lat="47.88086" lon="2.13687">
        <ele>114</ele>
        <time>2016-10-30T08:55:22.000Z</time>
      </trkpt>
      <trkpt lat="47.88081" lon="2.13682">
        <ele>114</ele>
        <time>2016-10-30T08:55:23.000Z</time>
      </trkpt>
      <trkpt lat="47.88077" lon="2.13678">
        <ele>114</ele>
        <time>2016-10-30T08:55:24.000Z</time>
      </trkpt>
      <trkpt lat="47.88072" lon="2.13673">
        <ele>113</ele>
        <time>2016-10-30T08:55:25.000Z</time>
      </trkpt>
      <trkpt lat="47.88068" lon="2.13669">
        <ele>113</ele>
        <time>2016-10-30T08:55:26.000Z</time>
      </trkpt>
      <trkpt lat="47.88063" lon="2.13665">
        <ele>113</ele>
        <time>2016-10-30T08:55:27.000Z</time>
      </trkpt>
      <trkpt lat="47.88059" lon="2.1366">
        <ele>113</ele>
        <time>2016-10-30T08:55:28.000Z</time>
      </trkpt>
      <trkpt lat="47.88054" lon="2.13656">
        <ele>114</ele>
        <time>2016-10-30T08:55:29.000Z</time>
      </trkpt>
      <trkpt lat="47.8805" lon="2.13651">
        <ele>114</ele>
        <time>2016-10-30T08:55:30.000Z</time>
      </trkpt>
      <trkpt lat="47.88045" lon="2.13646">
        <ele>113</ele>
        <time>2016-10-30T08:55:31.000Z</time>
      </trkpt>
      <trkpt lat="47.88041" lon="2.13642">
        <ele>113</ele>
        <time>2016-10-30T08:55:32.000Z</time>
      </trkpt>
      <trkpt lat="47.88036" lon="2.13637">
        <ele>113</ele>
        <time>2016-10-30T08:55:33.000Z</time>
      </trkpt>
      <trkpt lat="47.88031" lon="2.13632">
        <ele>113</ele>
        <time>2016-10-30T08:55:34.000Z</time>
      </trkpt>
      <trkpt lat="47.88026" lon="2.13627">
        <ele>113</ele>
        <time>2016-10-30T08:55:35.000Z</time>
      </trkpt>
      <trkpt lat="47.88021" lon="2.13623">
        <ele>113</ele>
        <time>2016-10-30T08:55:36.000Z</time>
      </trkpt>
      <trkpt lat="47.88016" lon="2.13618">
        <ele>113</ele>
        <time>2016-10-30T08:55:37.000Z</time>
      </trkpt>
      <trkpt lat="47.88011" lon="2.13613">
        <ele>113</ele>
        <time>2016-10-30T08:55:38.000Z</time>
      </trkpt>
      <trkpt lat="47.88006" lon="2.13608">
        <ele>113</ele>
        <time>2016-10-30T08:55:39.000Z</time>
      </trkpt>
      <trkpt lat="47.88001" lon="2.13603">
        <ele>113</ele>
        <time>2016-10-30T08:55:40.000Z</time>
      </trkpt>
      <trkpt lat="47.87996" lon="2.13598">
        <ele>112</ele>
        <time>2016-10-30T08:55:41.000Z</time>
      </trkpt>
      <trkpt lat="47.87991" lon="2.13592">
        <ele>112</ele>
        <time>2016-10-30T08:55:42.000Z</time>
      </trkpt>
      <trkpt lat="47.87986" lon="2.13587">
        <ele>112</ele>
        <time>2016-10-30T08:55:43.000Z</time>
      </trkpt>
      <trkpt lat="47.8798" lon="2.13582">
        <ele>112</ele>
        <time>2016-10-30T08:55:44.000Z</time>
      </trkpt>
      <trkpt lat="47.87975" lon="2.13577">
        <ele>112</ele>
        <time>2016-10-30T08:55:45.000Z</time>
      </trkpt>
      <trkpt lat="47.8797" lon="2.13572">
        <ele>112</ele>
        <time>2016-10-30T08:55:46.000Z</time>
      </trkpt>
      <trkpt lat="47.87965" lon="2.13566">
        <ele>112</ele>
        <time>2016-10-30T08:55:47.000Z</time>
      </trkpt>
      <trkpt lat="47.8796" lon="2.13561">
        <ele>112</ele>
        <time>2016-10-30T08:55:48.000Z</time>
      </trkpt>
      <trkpt lat="47.87954" lon="2.13556">
        <ele>112</ele>
        <time>2016-10-30T08:55:49.000Z</time>
      </trkpt>
      <trkpt lat="47.87949" lon="2.13551">
        <ele>112</ele>
        <time>2016-10-30T08:55:50.000Z</time>
      </trkpt>
      <trkpt lat="47.87944" lon="2.13546">
        <ele>112</ele>
        <time>2016-10-30T08:55:51.000Z</time>
      </trkpt>
      <trkpt lat="47.87939" lon="2.13541">
        <ele>111</ele>
        <time>2016-10-30T08:55:52.000Z</time>
      </trkpt>
      <trkpt lat="47.87934" lon="2.13536">
        <ele>111</ele>
        <time>2016-10-30T08:55:53.000Z</time>
      </trkpt>
      <trkpt lat="47.87929" lon="2.13532">
        <ele>111</ele>
        <time>2016-10-30T08:55:54.000Z</time>
      </trkpt>
      <trkpt lat="47.87923" lon="2.13527">
        <ele>111</ele>
        <time>2016-10-30T08:55:55.000Z</time>
      </trkpt>
      <trkpt lat="47.87918" lon="2.13522">
        <ele>111</ele>
        <time>2016-10-30T08:55:56.000Z</time>
      </trkpt>
      <trkpt lat="47.87913" lon="2.13518">
        <ele>111</ele>
        <time>2016-10-30T08:55:57.000Z</time>
      </trkpt>
      <trkpt lat="47.87907" lon="2.13513">
        <ele>111</ele>
        <time>2016-10-30T08:55:58.000Z</time>
      </trkpt>
      <trkpt lat="47.87902" lon="2.13509">
        <ele>112</ele>
        <time>2016-10-30T08:55:59.000Z</time>
      </trkpt>
      <trkpt lat="47.87897" lon="2.13504">
        <ele>112</ele>
        <time>2016-10-30T08:56:00.000Z</time>
      </trkpt>
      <trkpt lat="47.87892" lon="2.135">
        <ele>112</ele>
        <time>2016-10-30T08:56:01.000Z</time>
      </trkpt>
      <trkpt lat="47.87887" lon="2.13496">
        <ele>112</ele>
        <time>2016-10-30T08:56:02.000Z</time>
      </trkpt>
      <trkpt lat="47.87882" lon="2.13492">
        <ele>112</ele>
        <time>2016-10-30T08:56:03.000Z</time>
      </trkpt>
      <trkpt lat="47.87877" lon="2.13488">
        <ele>112</ele>
        <time>2016-10-30T08:56:04.000Z</time>
      </trkpt>
      <trkpt lat="47.87872" lon="2.13483">
        <ele>112</ele>
        <time>2016-10-30T08:56:05.000Z</time>
      </trkpt>
      <trkpt lat="47.87867" lon="2.13479">
        <ele>113</ele>
        <time>2016-10-30T08:56:06.000Z</time>
      </trkpt>
      <trkpt lat="47.87862" lon="2.13474">
        <ele>113</ele>
        <time>2016-10-30T08:56:07.000Z</time>
      </trkpt>
      <trkpt lat="47.87857" lon="2.1347">
        <ele>113</ele>
        <time>2016-10-30T08:56:08.000Z</time>
      </trkpt>
      <trkpt lat="47.87853" lon="2.13465">
        <ele>113</ele>
        <time>2016-10-30T08:56:09.000Z</time>
      </trkpt>
      <trkpt lat="47.87848" lon="2.1346">
        <ele>113</ele>
        <time>2016-10-30T08:56:10.000Z</time>
      </trkpt>
      <trkpt lat="47.87844" lon="2.13455">
        <ele>113</ele>
        <time>2016-10-30T08:56:11.000Z</time>
      </trkpt>
      <trkpt lat="47.87839" lon="2.13449">
        <ele>113</ele>
        <time>2016-10-30T08:56:12.000Z</time>
      </trkpt>
      <trkpt lat="47.87835" lon="2.13444">
        <ele>113</ele>
        <time>2016-10-30T08:56:13.000Z</time>
      </trkpt>
      <trkpt lat="47.8783" lon="2.13439">
        <ele>113</ele>
        <time>2016-10-30T08:56:14.000Z</time>
      </trkpt>
      <trkpt lat="47.87826" lon="2.13433">
        <ele>113</ele>
        <time>2016-10-30T08:56:15.000Z</time>
      </trkpt>
      <trkpt lat="47.87822" lon="2.13428">
        <ele>113</ele>
        <time>2016-10-30T08:56:16.000Z</time>
      </trkpt>
      <trkpt lat="47.87817" lon="2.13422">
        <ele>113</ele>
        <time>2016-10-30T08:56:17.000Z</time>
      </trkpt>
      <trkpt lat="47.87813" lon="2.13417">
        <ele>114</ele>
        <time>2016-10-30T08:56:18.000Z</time>
      </trkpt>
      <trkpt lat="47.87809" lon="2.13411">
        <ele>114</ele>
        <time>2016-10-30T08:56:19.000Z</time>
      </trkpt>
      <trkpt lat="47.87804" lon="2.13405">
        <ele>114</ele>
        <time>2016-10-30T08:56:20.000Z</time>
      </trkpt>
      <trkpt lat="47.878" lon="2.134">
        <ele>114</ele>
        <time>2016-10-30T08:56:21.000Z</time>
      </trkpt>
      <trkpt lat="47.87796" lon="2.13394">
        <ele>114</ele>
        <time>2016-10-30T08:56:22.000Z</time>
      </trkpt>
      <trkpt lat="47.87791" lon="2.13388">
        <ele>114</ele>
        <time>2016-10-30T08:56:23.000Z</time>
      </trkpt>
      <trkpt lat="47.87787" lon="2.13383">
        <ele>114</ele>
        <time>2016-10-30T08:56:24.000Z</time>
      </trkpt>
      <trkpt lat="47.87782" lon="2.13377">
        <ele>114</ele>
        <time>2016-10-30T08:56:25.000Z</time>
      </trkpt>
      <trkpt lat="47.87778" lon="2.13371">
        <ele>113</ele>
        <time>2016-10-30T08:56:26.000Z</time>
      </trkpt>
      <trkpt lat="47.87773" lon="2.13366">
        <ele>113</ele>
        <time>2016-10-30T08:56:27.000Z</time>
      </trkpt>
      <trkpt lat="47.87769" lon="2.1336">
        <ele>113</ele>
        <time>2016-10-30T08:56:28.000Z</time>
      </trkpt>
      <trkpt lat="47.87764" lon="2.13355">
        <ele>113</ele>
        <time>2016-10-30T08:56:29.000Z</time>
      </trkpt>
      <trkpt lat="47.87759" lon="2.1335">
        <ele>113</ele>
        <time>2016-10-30T08:56:30.000Z</time>
      </trkpt>
      <trkpt lat="47.87755" lon="2.13345">
        <ele>113</ele>
        <time>2016-10-30T08:56:31.000Z</time>
      </trkpt>
      <trkpt lat="47.8775" lon="2.1334">
        <ele>113</ele>
        <time>2016-10-30T08:56:32.000Z</time>
      </trkpt>
      <trkpt lat="47.87745" lon="2.13336">
        <ele>113</ele>
        <time>2016-10-30T08:56:33.000Z</time>
      </trkpt>
      <trkpt lat="47.8774" lon="2.13331">
        <ele>113</ele>
        <time>2016-10-30T08:56:34.000Z</time>
      </trkpt>
      <trkpt lat="47.87735" lon="2.13327">
        <ele>113</ele>
        <time>2016-10-30T08:56:35.000Z</time>
      </trkpt>
      <trkpt lat="47.8773" lon="2.13322">
        <ele>113</ele>
        <time>2016-10-30T08:56:36.000Z</time>
      </trkpt>
      <trkpt lat="47.87725" lon="2.13318">
        <ele>113</ele>
        <time>2016-10-30T08:56:37.000Z</time>
      </trkpt>
      <trkpt lat="47.87719" lon="2.13314">
        <ele>113</ele>
        <time>2016-10-30T08:56:38.000Z</time>
      </trkpt>
      <trkpt lat="47.87714" lon="2.1331">
        <ele>113</ele>
        <time>2016-10-30T08:56:39.000Z</time>
      </trkpt>
      <trkpt lat="47.87709" lon="2.13306">
        <ele>113</ele>
        <time>2016-10-30T08:56:40.000Z</time>
      </trkpt>
      <trkpt lat="47.87704" lon="2.13301">
        <ele>112</ele>
        <time>2016-10-30T08:56:41.000Z</time>
      </trkpt>
      <trkpt lat="47.87699" lon="2.13297">
        <ele>112</ele>
        <time>2016-10-30T08:56:42.000Z</time>
      </trkpt>
      <trkpt lat="47.87693" lon="2.13292">
        <ele>112</ele>
        <time>2016-10-30T08:56:43.000Z</time>
      </trkpt>
      <trkpt lat="47.87688" lon="2.13287">
        <ele>112</ele>
        <time>2016-10-30T08:56:44.000Z</time>
      </trkpt>
      <trkpt lat="47.87683" lon="2.13282">
        <ele>112</ele>
        <time>2016-10-30T08:56:45.000Z</time>
      </trkpt>
      <trkpt lat="47.87678" lon="2.13277">
        <ele>112</ele>
        <time>2016-10-30T08:56:46.000Z</time>
      </trkpt>
      <trkpt lat="47.87673" lon="2.13272">
        <ele>112</ele>
        <time>2016-10-30T08:56:47.000Z</time>
      </trkpt>
      <trkpt lat="47.87668" lon="2.13266">
        <ele>112</ele>
        <time>2016-10-30T08:56:48.000Z</time>
      </trkpt>
      <trkpt lat="47.87663" lon="2.13261">
        <ele>112</ele>
        <time>2016-10-30T08:56:49.000Z</time>
      </trkpt>
      <trkpt lat="47.87658" lon="2.13255">
        <ele>112</ele>
        <time>2016-10-30T08:56:50.000Z</time>
      </trkpt>
      <trkpt lat="47.87653" lon="2.13249">
        <ele>112</ele>
        <time>2016-10-30T08:56:51.000Z</time>
      </trkpt>
      <trkpt lat="47.87649" lon="2.13243">
        <ele>112</ele>
        <time>2016-10-30T08:56:52.000Z</time>
      </trkpt>
      <trkpt lat="47.87644" lon="2.13237">
        <ele>113</ele>
        <time>2016-10-30T08:56:53.000Z</time>
      </trkpt>
      <trkpt lat="47.8764" lon="2.13231">
        <ele>113</ele>
        <time>2016-10-30T08:56:54.000Z</time>
      </trkpt>
      <trkpt lat="47.87635" lon="2.13225">
        <ele>113</ele>
        <time>2016-10-30T08:56:55.000Z</time>
      </trkpt>
      <trkpt lat="47.87631" lon="2.13219">
        <ele>113</ele>
        <time>2016-10-30T08:56:56.000Z</time>
      </trkpt>
      <trkpt lat="47.87626" lon="2.13214">
        <ele>114</ele>
        <time>2016-10-30T08:56:57.000Z</time>
      </trkpt>
      <trkpt lat="47.87622" lon="2.13208">
        <ele>113</ele>
        <time>2016-10-30T08:56:58.000Z</time>
      </trkpt>
      <trkpt lat="47.87618" lon="2.13203">
        <ele>113</ele>
        <time>2016-10-30T08:56:59.000Z</time>
      </trkpt>
      <trkpt lat="47.87613" lon="2.13198">
        <ele>113</ele>
        <time>2016-10-30T08:57:00.000Z</time>
      </trkpt>
      <trkpt lat="47.87609" lon="2.13193">
        <ele>114</ele>
        <time>2016-10-30T08:57:01.000Z</time>
      </trkpt>
      <trkpt lat="47.87604" lon="2.13188">
        <ele>114</ele>
        <time>2016-10-30T08:57:02.000Z</time>
      </trkpt>
      <trkpt lat="47.876" lon="2.13183">
        <ele>114</ele>
        <time>2016-10-30T08:57:03.000Z</time>
      </trkpt>
      <trkpt lat="47.87596" lon="2.13178">
        <ele>114</ele>
        <time>2016-10-30T08:57:04.000Z</time>
      </trkpt>
      <trkpt lat="47.87592" lon="2.13174">
        <ele>114</ele>
        <time>2016-10-30T08:57:05.000Z</time>
      </trkpt>
      <trkpt lat="47.87588" lon="2.1317">
        <ele>114</ele>
        <time>2016-10-30T08:57:06.000Z</time>
      </trkpt>
      <trkpt lat="47.87584" lon="2.13168">
        <ele>114</ele>
        <time>2016-10-30T08:57:07.000Z</time>
      </trkpt>
      <trkpt lat="47.87579" lon="2.13168">
        <ele>114</ele>
        <time>2016-10-30T08:57:08.000Z</time>
      </trkpt>
      <trkpt lat="47.87576" lon="2.13169">
        <ele>114</ele>
        <time>2016-10-30T08:57:09.000Z</time>
      </trkpt>
      <trkpt lat="47.87572" lon="2.13172">
        <ele>114</ele>
        <time>2016-10-30T08:57:10.000Z</time>
      </trkpt>
      <trkpt lat="47.87569" lon="2.13175">
        <ele>114</ele>
        <time>2016-10-30T08:57:11.000Z</time>
      </trkpt>
      <trkpt lat="47.87566" lon="2.13177">
        <ele>114</ele>
        <time>2016-10-30T08:57:12.000Z</time>
      </trkpt>
      <trkpt lat="47.87564" lon="2.1318">
        <ele>114</ele>
        <time>2016-10-30T08:57:13.000Z</time>
      </trkpt>
      <trkpt lat="47.87561" lon="2.13184">
        <ele>115</ele>
        <time>2016-10-30T08:57:14.000Z</time>
      </trkpt>
      <trkpt lat="47.8756" lon="2.13187">
        <ele>115</ele>
        <time>2016-10-30T08:57:15.000Z</time>
      </trkpt>
      <trkpt lat="47.8756" lon="2.13192">
        <ele>115</ele>
        <time>2016-10-30T08:57:16.000Z</time>
      </trkpt>
      <trkpt lat="47.87561" lon="2.13197">
        <ele>115</ele>
        <time>2016-10-30T08:57:17.000Z</time>
      </trkpt>
      <trkpt lat="47.87561" lon="2.13202">
        <ele>115</ele>
        <time>2016-10-30T08:57:18.000Z</time>
      </trkpt>
      <trkpt lat="47.87562" lon="2.13209">
        <ele>115</ele>
        <time>2016-10-30T08:57:19.000Z</time>
      </trkpt>
      <trkpt lat="47.87563" lon="2.13215">
        <ele>114</ele>
        <time>2016-10-30T08:57:20.000Z</time>
      </trkpt>
      <trkpt lat="47.87563" lon="2.13222">
        <ele>114</ele>
        <time>2016-10-30T08:57:21.000Z</time>
      </trkpt>
      <trkpt lat="47.87564" lon="2.13228">
        <ele>114</ele>
        <time>2016-10-30T08:57:22.000Z</time>
      </trkpt>
      <trkpt lat="47.87565" lon="2.13235">
        <ele>114</ele>
        <time>2016-10-30T08:57:23.000Z</time>
      </trkpt>
      <trkpt lat="47.87565" lon="2.13242">
        <ele>114</ele>
        <time>2016-10-30T08:57:24.000Z</time>
      </trkpt>
      <trkpt lat="47.87566" lon="2.13248">
        <ele>114</ele>
        <time>2016-10-30T08:57:25.000Z</time>
      </trkpt>
      <trkpt lat="47.87567" lon="2.13255">
        <ele>114</ele>
        <time>2016-10-30T08:57:26.000Z</time>
      </trkpt>
      <trkpt lat="47.87568" lon="2.13262">
        <ele>114</ele>
        <time>2016-10-30T08:57:27.000Z</time>
      </trkpt>
      <trkpt lat="47.87568" lon="2.13268">
        <ele>114</ele>
        <time>2016-10-30T08:57:28.000Z</time>
      </trkpt>
      <trkpt lat="47.87569" lon="2.13275">
        <ele>114</ele>
        <time>2016-10-30T08:57:29.000Z</time>
      </trkpt>
      <trkpt lat="47.8757" lon="2.13283">
        <ele>114</ele>
        <time>2016-10-30T08:57:30.000Z</time>
      </trkpt>
      <trkpt lat="47.87571" lon="2.1329">
        <ele>115</ele>
        <time>2016-10-30T08:57:31.000Z</time>
      </trkpt>
      <trkpt lat="47.87572" lon="2.13297">
        <ele>115</ele>
        <time>2016-10-30T08:57:32.000Z</time>
      </trkpt>
      <trkpt lat="47.87573" lon="2.13304">
        <ele>115</ele>
        <time>2016-10-30T08:57:33.000Z</time>
      </trkpt>
      <trkpt lat="47.87574" lon="2.13312">
        <ele>114</ele>
        <time>2016-10-30T08:57:34.000Z</time>
      </trkpt>
      <trkpt lat="47.87575" lon="2.13319">
        <ele>114</ele>
        <time>2016-10-30T08:57:35.000Z</time>
      </trkpt>
      <trkpt lat="47.87576" lon="2.13326">
        <ele>114</ele>
        <time>2016-10-30T08:57:36.000Z</time>
      </trkpt>
      <trkpt lat="47.87577" lon="2.13334">
        <ele>114</ele>
        <time>2016-10-30T08:57:37.000Z</time>
      </trkpt>
      <trkpt lat="47.87577" lon="2.13341">
        <ele>114</ele>
        <time>2016-10-30T08:57:38.000Z</time>
      </trkpt>
      <trkpt lat="47.87578" lon="2.13349">
        <ele>114</ele>
        <time>2016-10-30T08:57:39.000Z</time>
      </trkpt>
      <trkpt lat="47.87578" lon="2.13358">
        <ele>115</ele>
        <time>2016-10-30T08:57:40.000Z</time>
      </trkpt>
      <trkpt lat="47.87579" lon="2.13366">
        <ele>115</ele>
        <time>2016-10-30T08:57:41.000Z</time>
      </trkpt>
      <trkpt lat="47.8758" lon="2.13374">
        <ele>116</ele>
        <time>2016-10-30T08:57:42.000Z</time>
      </trkpt>
      <trkpt lat="47.87581" lon="2.13382">
        <ele>116</ele>
        <time>2016-10-30T08:57:43.000Z</time>
      </trkpt>
      <trkpt lat="47.87582" lon="2.1339">
        <ele>118</ele>
        <time>2016-10-30T08:57:44.000Z</time>
      </trkpt>
      <trkpt lat="47.87582" lon="2.13398">
        <ele>120</ele>
        <time>2016-10-30T08:57:45.000Z</time>
      </trkpt>
      <trkpt lat="47.87583" lon="2.13406">
        <ele>121</ele>
        <time>2016-10-30T08:57:46.000Z</time>
      </trkpt>
      <trkpt lat="47.87584" lon="2.13414">
        <ele>121</ele>
        <time>2016-10-30T08:57:47.000Z</time>
      </trkpt>
      <trkpt lat="47.87584" lon="2.13422">
        <ele>122</ele>
        <time>2016-10-30T08:57:48.000Z</time>
      </trkpt>
      <trkpt lat="47.87585" lon="2.1343">
        <ele>122</ele>
        <time>2016-10-30T08:57:49.000Z</time>
      </trkpt>
      <trkpt lat="47.87586" lon="2.13438">
        <ele>121</ele>
        <time>2016-10-30T08:57:50.000Z</time>
      </trkpt>
      <trkpt lat="47.87587" lon="2.13445">
        <ele>122</ele>
        <time>2016-10-30T08:57:51.000Z</time>
      </trkpt>
      <trkpt lat="47.87588" lon="2.13454">
        <ele>121</ele>
        <time>2016-10-30T08:57:52.000Z</time>
      </trkpt>
      <trkpt lat="47.87589" lon="2.13462">
        <ele>121</ele>
        <time>2016-10-30T08:57:53.000Z</time>
      </trkpt>
      <trkpt lat="47.8759" lon="2.1347">
        <ele>121</ele>
        <time>2016-10-30T08:57:54.000Z</time>
      </trkpt>
      <trkpt lat="47.87591" lon="2.13477">
        <ele>121</ele>
        <time>2016-10-30T08:57:55.000Z</time>
      </trkpt>
      <trkpt lat="47.87592" lon="2.13485">
        <ele>121</ele>
        <time>2016-10-30T08:57:56.000Z</time>
      </trkpt>
      <trkpt lat="47.87593" lon="2.13493">
        <ele>120</ele>
        <time>2016-10-30T08:57:57.000Z</time>
      </trkpt>
      <trkpt lat="47.87594" lon="2.135">
        <ele>120</ele>
        <time>2016-10-30T08:57:58.000Z</time>
      </trkpt>
      <trkpt lat="47.87596" lon="2.13508">
        <ele>120</ele>
        <time>2016-10-30T08:57:59.000Z</time>
      </trkpt>
      <trkpt lat="47.87597" lon="2.13516">
        <ele>120</ele>
        <time>2016-10-30T08:58:00.000Z</time>
      </trkpt>
      <trkpt lat="47.87599" lon="2.13524">
        <ele>120</ele>
        <time>2016-10-30T08:58:01.000Z</time>
      </trkpt>
      <trkpt lat="47.876" lon="2.13531">
        <ele>120</ele>
        <time>2016-10-30T08:58:02.000Z</time>
      </trkpt>
      <trkpt lat="47.87602" lon="2.13539">
        <ele>120</ele>
        <time>2016-10-30T08:58:03.000Z</time>
      </trkpt>
      <trkpt lat="47.87604" lon="2.13546">
        <ele>120</ele>
        <time>2016-10-30T08:58:04.000Z</time>
      </trkpt>
      <trkpt lat="47.87606" lon="2.13554">
        <ele>119</ele>
        <time>2016-10-30T08:58:05.000Z</time>
      </trkpt>
      <trkpt lat="47.87608" lon="2.13561">
        <ele>119</ele>
        <time>2016-10-30T08:58:06.000Z</time>
      </trkpt>
      <trkpt lat="47.8761" lon="2.13569">
        <ele>118</ele>
        <time>2016-10-30T08:58:07.000Z</time>
      </trkpt>
      <trkpt lat="47.87612" lon="2.13576">
        <ele>118</ele>
        <time>2016-10-30T08:58:08.000Z</time>
      </trkpt>
      <trkpt lat="47.87613" lon="2.13584">
        <ele>118</ele>
        <time>2016-10-30T08:58:09.000Z</time>
      </trkpt>
      <trkpt lat="47.87615" lon="2.13591">
        <ele>118</ele>
        <time>2016-10-30T08:58:10.000Z</time>
      </trkpt>
      <trkpt lat="47.87617" lon="2.13598">
        <ele>117</ele>
        <time>2016-10-30T08:58:11.000Z</time>
      </trkpt>
      <trkpt lat="47.87619" lon="2.13605">
        <ele>117</ele>
        <time>2016-10-30T08:58:12.000Z</time>
      </trkpt>
      <trkpt lat="47.87621" lon="2.13612">
        <ele>117</ele>
        <time>2016-10-30T08:58:13.000Z</time>
      </trkpt>
      <trkpt lat="47.87623" lon="2.13619">
        <ele>117</ele>
        <time>2016-10-30T08:58:14.000Z</time>
      </trkpt>
      <trkpt lat="47.87624" lon="2.13626">
        <ele>117</ele>
        <time>2016-10-30T08:58:15.000Z</time>
      </trkpt>
      <trkpt lat="47.87626" lon="2.13633">
        <ele>117</ele>
        <time>2016-10-30T08:58:16.000Z</time>
      </trkpt>
      <trkpt lat="47.87627" lon="2.1364">
        <ele>117</ele>
        <time>2016-10-30T08:58:17.000Z</time>
      </trkpt>
      <trkpt lat="47.87629" lon="2.13647">
        <ele>117</ele>
        <time>2016-10-30T08:58:18.000Z</time>
      </trkpt>
      <trkpt lat="47.8763" lon="2.13654">
        <ele>117</ele>
        <time>2016-10-30T08:58:19.000Z</time>
      </trkpt>
      <trkpt lat="47.87632" lon="2.13662">
        <ele>117</ele>
        <time>2016-10-30T08:58:20.000Z</time>
      </trkpt>
      <trkpt lat="47.87634" lon="2.13669">
        <ele>117</ele>
        <time>2016-10-30T08:58:21.000Z</time>
      </trkpt>
      <trkpt lat="47.87635" lon="2.13677">
        <ele>117</ele>
        <time>2016-10-30T08:58:22.000Z</time>
      </trkpt>
      <trkpt lat="47.87637" lon="2.13684">
        <ele>117</ele>
        <time>2016-10-30T08:58:23.000Z</time>
      </trkpt>
      <trkpt lat="47.87638" lon="2.13691">
        <ele>117</ele>
        <time>2016-10-30T08:58:24.000Z</time>
      </trkpt>
      <trkpt lat="47.8764" lon="2.13698">
        <ele>116</ele>
        <time>2016-10-30T08:58:25.000Z</time>
      </trkpt>
      <trkpt lat="47.87642" lon="2.13705">
        <ele>116</ele>
        <time>2016-10-30T08:58:26.000Z</time>
      </trkpt>
      <trkpt lat="47.87644" lon="2.13713">
        <ele>116</ele>
        <time>2016-10-30T08:58:27.000Z</time>
      </trkpt>
      <trkpt lat="47.87645" lon="2.1372">
        <ele>116</ele>
        <time>2016-10-30T08:58:28.000Z</time>
      </trkpt>
      <trkpt lat="47.87647" lon="2.13728">
        <ele>116</ele>
        <time>2016-10-30T08:58:29.000Z</time>
      </trkpt>
      <trkpt lat="47.87649" lon="2.13736">
        <ele>115</ele>
        <time>2016-10-30T08:58:30.000Z</time>
      </trkpt>
      <trkpt lat="47.87651" lon="2.13743">
        <ele>116</ele>
        <time>2016-10-30T08:58:31.000Z</time>
      </trkpt>
      <trkpt lat="47.87653" lon="2.13751">
        <ele>115</ele>
        <time>2016-10-30T08:58:32.000Z</time>
      </trkpt>
      <trkpt lat="47.87655" lon="2.13758">
        <ele>115</ele>
        <time>2016-10-30T08:58:33.000Z</time>
      </trkpt>
      <trkpt lat="47.87656" lon="2.13766">
        <ele>114</ele>
        <time>2016-10-30T08:58:34.000Z</time>
      </trkpt>
      <trkpt lat="47.87658" lon="2.13774">
        <ele>114</ele>
        <time>2016-10-30T08:58:35.000Z</time>
      </trkpt>
      <trkpt lat="47.8766" lon="2.13781">
        <ele>114</ele>
        <time>2016-10-30T08:58:36.000Z</time>
      </trkpt>
      <trkpt lat="47.87662" lon="2.13789">
        <ele>114</ele>
        <time>2016-10-30T08:58:37.000Z</time>
      </trkpt>
      <trkpt lat="47.87663" lon="2.13796">
        <ele>113</ele>
        <time>2016-10-30T08:58:38.000Z</time>
      </trkpt>
      <trkpt lat="47.87665" lon="2.13804">
        <ele>113</ele>
        <time>2016-10-30T08:58:39.000Z</time>
      </trkpt>
      <trkpt lat="47.87667" lon="2.13811">
        <ele>113</ele>
        <time>2016-10-30T08:58:40.000Z</time>
      </trkpt>
      <trkpt lat="47.87669" lon="2.13818">
        <ele>113</ele>
        <time>2016-10-30T08:58:41.000Z</time>
      </trkpt>
      <trkpt lat="47.8767" lon="2.13826">
        <ele>113</ele>
        <time>2016-10-30T08:58:42.000Z</time>
      </trkpt>
      <trkpt lat="47.87672" lon="2.13833">
        <ele>113</ele>
        <time>2016-10-30T08:58:43.000Z</time>
      </trkpt>
      <trkpt lat="47.87674" lon="2.1384">
        <ele>113</ele>
        <time>2016-10-30T08:58:44.000Z</time>
      </trkpt>
      <trkpt lat="47.87675" lon="2.13848">
        <ele>114</ele>
        <time>2016-10-30T08:58:45.000Z</time>
      </trkpt>
      <trkpt lat="47.87677" lon="2.13855">
        <ele>114</ele>
        <time>2016-10-30T08:58:46.000Z</time>
      </trkpt>
      <trkpt lat="47.87678" lon="2.13862">
        <ele>114</ele>
        <time>2016-10-30T08:58:47.000Z</time>
      </trkpt>
      <trkpt lat="47.8768" lon="2.13869">
        <ele>114</ele>
        <time>2016-10-30T08:58:48.000Z</time>
      </trkpt>
      <trkpt lat="47.87682" lon="2.13877">
        <ele>114</ele>
        <time>2016-10-30T08:58:49.000Z</time>
      </trkpt>
      <trkpt lat="47.87683" lon="2.13884">
        <ele>114</ele>
        <time>2016-10-30T08:58:50.000Z</time>
      </trkpt>
      <trkpt lat="47.87682" lon="2.1389">
        <ele>114</ele>
        <time>2016-10-30T08:58:51.000Z</time>
      </trkpt>
      <trkpt lat="47.8768" lon="2.13897">
        <ele>115</ele>
        <time>2016-10-30T08:58:52.000Z</time>
      </trkpt>
      <trkpt lat="47.87678" lon="2.13902">
        <ele>115</ele>
        <time>2016-10-30T08:58:53.000Z</time>
      </trkpt>
      <trkpt lat="47.87674" lon="2.13908">
        <ele>116</ele>
        <time>2016-10-30T08:58:54.000Z</time>
      </trkpt>
      <trkpt lat="47.87671" lon="2.13914">
        <ele>116</ele>
        <time>2016-10-30T08:58:55.000Z</time>
      </trkpt>
      <trkpt lat="47.87668" lon="2.13919">
        <ele>115</ele>
        <time>2016-10-30T08:58:56.000Z</time>
      </trkpt>
      <trkpt lat="47.87664" lon="2.13925">
        <ele>115</ele>
        <time>2016-10-30T08:58:57.000Z</time>
      </trkpt>
      <trkpt lat="47.87661" lon="2.1393">
        <ele>115</ele>
        <time>2016-10-30T08:58:58.000Z</time>
      </trkpt>
      <trkpt lat="47.87657" lon="2.13936">
        <ele>115</ele>
        <time>2016-10-30T08:58:59.000Z</time>
      </trkpt>
      <trkpt lat="47.87654" lon="2.13941">
        <ele>116</ele>
        <time>2016-10-30T08:59:00.000Z</time>
      </trkpt>
      <trkpt lat="47.8765" lon="2.13947">
        <ele>116</ele>
        <time>2016-10-30T08:59:01.000Z</time>
      </trkpt>
      <trkpt lat="47.87646" lon="2.13953">
        <ele>116</ele>
        <time>2016-10-30T08:59:02.000Z</time>
      </trkpt>
      <trkpt lat="47.87643" lon="2.13958">
        <ele>116</ele>
        <time>2016-10-30T08:59:03.000Z</time>
      </trkpt>
      <trkpt lat="47.87639" lon="2.13964">
        <ele>115</ele>
        <time>2016-10-30T08:59:04.000Z</time>
      </trkpt>
      <trkpt lat="47.87636" lon="2.1397">
        <ele>115</ele>
        <time>2016-10-30T08:59:05.000Z</time>
      </trkpt>
      <trkpt lat="47.87632" lon="2.13976">
        <ele>115</ele>
        <time>2016-10-30T08:59:06.000Z</time>
      </trkpt>
      <trkpt lat="47.87628" lon="2.13981">
        <ele>115</ele>
        <time>2016-10-30T08:59:07.000Z</time>
      </trkpt>
      <trkpt lat="47.87624" lon="2.13987">
        <ele>115</ele>
        <time>2016-10-30T08:59:08.000Z</time>
      </trkpt>
      <trkpt lat="47.87619" lon="2.13993">
        <ele>115</ele>
        <time>2016-10-30T08:59:09.000Z</time>
      </trkpt>
      <trkpt lat="47.87615" lon="2.13998">
        <ele>115</ele>
        <time>2016-10-30T08:59:10.000Z</time>
      </trkpt>
      <trkpt lat="47.87611" lon="2.14004">
        <ele>114</ele>
        <time>2016-10-30T08:59:11.000Z</time>
      </trkpt>
      <trkpt lat="47.87607" lon="2.1401">
        <ele>114</ele>
        <time>2016-10-30T08:59:12.000Z</time>
      </trkpt>
      <trkpt lat="47.87603" lon="2.14015">
        <ele>114</ele>
        <time>2016-10-30T08:59:13.000Z</time>
      </trkpt>
      <trkpt lat="47.87599" lon="2.14021">
        <ele>114</ele>
        <time>2016-10-30T08:59:14.000Z</time>
      </trkpt>
      <trkpt lat="47.87595" lon="2.14027">
        <ele>114</ele>
        <time>2016-10-30T08:59:15.000Z</time>
      </trkpt>
      <trkpt lat="47.87591" lon="2.14033">
        <ele>114</ele>
        <time>2016-10-30T08:59:16.000Z</time>
      </trkpt>
      <trkpt lat="47.87588" lon="2.14039">
        <ele>113</ele>
        <time>2016-10-30T08:59:17.000Z</time>
      </trkpt>
      <trkpt lat="47.87584" lon="2.14045">
        <ele>113</ele>
        <time>2016-10-30T08:59:18.000Z</time>
      </trkpt>
      <trkpt lat="47.8758" lon="2.14051">
        <ele>113</ele>
        <time>2016-10-30T08:59:19.000Z</time>
      </trkpt>
      <trkpt lat="47.87576" lon="2.14057">
        <ele>113</ele>
        <time>2016-10-30T08:59:20.000Z</time>
      </trkpt>
      <trkpt lat="47.87572" lon="2.14062">
        <ele>113</ele>
        <time>2016-10-30T08:59:21.000Z</time>
      </trkpt>
      <trkpt lat="47.87569" lon="2.14068">
        <ele>113</ele>
        <time>2016-10-30T08:59:22.000Z</time>
      </trkpt>
      <trkpt lat="47.87565" lon="2.14074">
        <ele>113</ele>
        <time>2016-10-30T08:59:23.000Z</time>
      </trkpt>
      <trkpt lat="47.87561" lon="2.1408">
        <ele>113</ele>
        <time>2016-10-30T08:59:24.000Z</time>
      </trkpt>
      <trkpt lat="47.87557" lon="2.14086">
        <ele>113</ele>
        <time>2016-10-30T08:59:25.000Z</time>
      </trkpt>
      <trkpt lat="47.87553" lon="2.14092">
        <ele>113</ele>
        <time>2016-10-30T08:59:26.000Z</time>
      </trkpt>
      <trkpt lat="47.87549" lon="2.14098">
        <ele>113</ele>
        <time>2016-10-30T08:59:27.000Z</time>
      </trkpt>
      <trkpt lat="47.87545" lon="2.14104">
        <ele>113</ele>
        <time>2016-10-30T08:59:28.000Z</time>
      </trkpt>
      <trkpt lat="47.87541" lon="2.14109">
        <ele>113</ele>
        <time>2016-10-30T08:59:29.000Z</time>
      </trkpt>
      <trkpt lat="47.87537" lon="2.14115">
        <ele>113</ele>
        <time>2016-10-30T08:59:30.000Z</time>
      </trkpt>
      <trkpt lat="47.87534" lon="2.14121">
        <ele>113</ele>
        <time>2016-10-30T08:59:31.000Z</time>
      </trkpt>
      <trkpt lat="47.8753" lon="2.14127">
        <ele>113</ele>
        <time>2016-10-30T08:59:32.000Z</time>
      </trkpt>
      <trkpt lat="47.87526" lon="2.14133">
        <ele>113</ele>
        <time>2016-10-30T08:59:33.000Z</time>
      </trkpt>
      <trkpt lat="47.87522" lon="2.1414">
        <ele>113</ele>
        <time>2016-10-30T08:59:34.000Z</time>
      </trkpt>
      <trkpt lat="47.87518" lon="2.14146">
        <ele>113</ele>
        <time>2016-10-30T08:59:35.000Z</time>
      </trkpt>
      <trkpt lat="47.87514" lon="2.14152">
        <ele>113</ele>
        <time>2016-10-30T08:59:36.000Z</time>
      </trkpt>
      <trkpt lat="47.8751" lon="2.14158">
        <ele>113</ele>
        <time>2016-10-30T08:59:37.000Z</time>
      </trkpt>
      <trkpt lat="47.87506" lon="2.14164">
        <ele>113</ele>
        <time>2016-10-30T08:59:38.000Z</time>
      </trkpt>
      <trkpt lat="47.87503" lon="2.1417">
        <ele>113</ele>
        <time>2016-10-30T08:59:39.000Z</time>
      </trkpt>
      <trkpt lat="47.87499" lon="2.14177">
        <ele>113</ele>
        <time>2016-10-30T08:59:40.000Z</time>
      </trkpt>
      <trkpt lat="47.87495" lon="2.14183">
        <ele>113</ele>
        <time>2016-10-30T08:59:41.000Z</time>
      </trkpt>
      <trkpt lat="47.87491" lon="2.14189">
        <ele>113</ele>
        <time>2016-10-30T08:59:42.000Z</time>
      </trkpt>
      <trkpt lat="47.87487" lon="2.14196">
        <ele>113</ele>
        <time>2016-10-30T08:59:43.000Z</time>
      </trkpt>
      <trkpt lat="47.87483" lon="2.14202">
        <ele>113</ele>
        <time>2016-10-30T08:59:44.000Z</time>
      </trkpt>
      <trkpt lat="47.87479" lon="2.14208">
        <ele>113</ele>
        <time>2016-10-30T08:59:45.000Z</time>
      </trkpt>
      <trkpt lat="47.87476" lon="2.14214">
        <ele>113</ele>
        <time>2016-10-30T08:59:46.000Z</time>
      </trkpt>
      <trkpt lat="47.87472" lon="2.1422">
        <ele>113</ele>
        <time>2016-10-30T08:59:47.000Z</time>
      </trkpt>
      <trkpt lat="47.87468" lon="2.14226">
        <ele>113</ele>
        <time>2016-10-30T08:59:48.000Z</time>
      </trkpt>
      <trkpt lat="47.87465" lon="2.14231">
        <ele>113</ele>
        <time>2016-10-30T08:59:49.000Z</time>
      </trkpt>
      <trkpt lat="47.87462" lon="2.14236">
        <ele>113</ele>
        <time>2016-10-30T08:59:50.000Z</time>
      </trkpt>
      <trkpt lat="47.87459" lon="2.14239">
        <ele>113</ele>
        <time>2016-10-30T08:59:51.000Z</time>
      </trkpt>
      <trkpt lat="47.87456" lon="2.14242">
        <ele>113</ele>
        <time>2016-10-30T08:59:52.000Z</time>
      </trkpt>
      <trkpt lat="47.87452" lon="2.14246">
        <ele>113</ele>
        <time>2016-10-30T08:59:53.000Z</time>
      </trkpt>
      <trkpt lat="47.87449" lon="2.14249">
        <ele>113</ele>
        <time>2016-10-30T08:59:54.000Z</time>
      </trkpt>
      <trkpt lat="47.87445" lon="2.14252">
        <ele>113</ele>
        <time>2016-10-30T08:59:55.000Z</time>
      </trkpt>
      <trkpt lat="47.87441" lon="2.14254">
        <ele>114</ele>
        <time>2016-10-30T08:59:56.000Z</time>
      </trkpt>
      <trkpt lat="47.87437" lon="2.14256">
        <ele>114</ele>
        <time>2016-10-30T08:59:57.000Z</time>
      </trkpt>
      <trkpt lat="47.87433" lon="2.14258">
        <ele>114</ele>
        <time>2016-10-30T08:59:58.000Z</time>
      </trkpt>
      <trkpt lat="47.87429" lon="2.14259">
        <ele>114</ele>
        <time>2016-10-30T08:59:59.000Z</time>
      </trkpt>
      <trkpt lat="47.87425" lon="2.14261">
        <ele>114</ele>
        <time>2016-10-30T09:00:00.000Z</time>
      </trkpt>
      <trkpt lat="47.87421" lon="2.14263">
        <ele>114</ele>
        <time>2016-10-30T09:00:01.000Z</time>
      </trkpt>
      <trkpt lat="47.87417" lon="2.14264">
        <ele>114</ele>
        <time>2016-10-30T09:00:02.000Z</time>
      </trkpt>
      <trkpt lat="47.87413" lon="2.14266">
        <ele>114</ele>
        <time>2016-10-30T09:00:03.000Z</time>
      </trkpt>
      <trkpt lat="47.87408" lon="2.14266">
        <ele>114</ele>
        <time>2016-10-30T09:00:04.000Z</time>
      </trkpt>
      <trkpt lat="47.87404" lon="2.14267">
        <ele>114</ele>
        <time>2016-10-30T09:00:05.000Z</time>
      </trkpt>
      <trkpt lat="47.874" lon="2.14268">
        <ele>114</ele>
        <time>2016-10-30T09:00:06.000Z</time>
      </trkpt>
      <trkpt lat="47.87395" lon="2.14269">
        <ele>114</ele>
        <time>2016-10-30T09:00:07.000Z</time>
      </trkpt>
      <trkpt lat="47.8739" lon="2.1427">
        <ele>114</ele>
        <time>2016-10-30T09:00:08.000Z</time>
      </trkpt>
      <trkpt lat="47.87386" lon="2.14272">
        <ele>114</ele>
        <time>2016-10-30T09:00:09.000Z</time>
      </trkpt>
      <trkpt lat="47.87381" lon="2.14273">
        <ele>114</ele>
        <time>2016-10-30T09:00:10.000Z</time>
      </trkpt>
      <trkpt lat="47.87376" lon="2.14274">
        <ele>114</ele>
        <time>2016-10-30T09:00:11.000Z</time>
      </trkpt>
      <trkpt lat="47.87372" lon="2.14275">
        <ele>114</ele>
        <time>2016-10-30T09:00:12.000Z</time>
      </trkpt>
      <trkpt lat="47.87367" lon="2.14276">
        <ele>115</ele>
        <time>2016-10-30T09:00:13.000Z</time>
      </trkpt>
      <trkpt lat="47.87363" lon="2.14277">
        <ele>115</ele>
        <time>2016-10-30T09:00:14.000Z</time>
      </trkpt>
      <trkpt lat="47.87359" lon="2.14278">
        <ele>115</ele>
        <time>2016-10-30T09:00:15.000Z</time>
      </trkpt>
      <trkpt lat="47.87355" lon="2.14279">
        <ele>115</ele>
        <time>2016-10-30T09:00:16.000Z</time>
      </trkpt>
      <trkpt lat="47.87351" lon="2.1428">
        <ele>115</ele>
        <time>2016-10-30T09:00:17.000Z</time>
      </trkpt>
      <trkpt lat="47.87348" lon="2.14282">
        <ele>115</ele>
        <time>2016-10-30T09:00:18.000Z</time>
      </trkpt>
      <trkpt lat="47.87346" lon="2.14284">
        <ele>115</ele>
        <time>2016-10-30T09:00:19.000Z</time>
      </trkpt>
      <trkpt lat="47.87345" lon="2.14286">
        <ele>115</ele>
        <time>2016-10-30T09:00:20.000Z</time>
      </trkpt>
      <trkpt lat="47.87345" lon="2.1429">
        <ele>116</ele>
        <time>2016-10-30T09:00:21.000Z</time>
      </trkpt>
      <trkpt lat="47.87345" lon="2.14293">
        <ele>116</ele>
        <time>2016-10-30T09:00:22.000Z</time>
      </trkpt>
      <trkpt lat="47.87345" lon="2.14298">
        <ele>116</ele>
        <time>2016-10-30T09:00:23.000Z</time>
      </trkpt>
      <trkpt lat="47.87345" lon="2.14302">
        <ele>116</ele>
        <time>2016-10-30T09:00:24.000Z</time>
      </trkpt>
      <trkpt lat="47.87345" lon="2.14308">
        <ele>116</ele>
        <time>2016-10-30T09:00:25.000Z</time>
      </trkpt>
      <trkpt lat="47.87345" lon="2.14314">
        <ele>117</ele>
        <time>2016-10-30T09:00:26.000Z</time>
      </trkpt>
      <trkpt lat="47.87344" lon="2.1432">
        <ele>116</ele>
        <time>2016-10-30T09:00:27.000Z</time>
      </trkpt>
      <trkpt lat="47.87344" lon="2.14326">
        <ele>116</ele>
        <time>2016-10-30T09:00:28.000Z</time>
      </trkpt>
      <trkpt lat="47.87344" lon="2.14332">
        <ele>116</ele>
        <time>2016-10-30T09:00:29.000Z</time>
      </trkpt>
      <trkpt lat="47.87344" lon="2.14338">
        <ele>116</ele>
        <time>2016-10-30T09:00:30.000Z</time>
      </trkpt>
      <trkpt lat="47.87344" lon="2.14344">
        <ele>116</ele>
        <time>2016-10-30T09:00:31.000Z</time>
      </trkpt>
      <trkpt lat="47.87345" lon="2.1435">
        <ele>116</ele>
        <time>2016-10-30T09:00:32.000Z</time>
      </trkpt>
      <trkpt lat="47.87345" lon="2.14355">
        <ele>116</ele>
        <time>2016-10-30T09:00:33.000Z</time>
      </trkpt>
      <trkpt lat="47.87345" lon="2.1436">
        <ele>116</ele>
        <time>2016-10-30T09:00:34.000Z</time>
      </trkpt>
      <trkpt lat="47.87345" lon="2.14365">
        <ele>116</ele>
        <time>2016-10-30T09:00:35.000Z</time>
      </trkpt>
      <trkpt lat="47.87345" lon="2.1437">
        <ele>116</ele>
        <time>2016-10-30T09:00:36.000Z</time>
      </trkpt>
      <trkpt lat="47.87345" lon="2.14375">
        <ele>116</ele>
        <time>2016-10-30T09:00:37.000Z</time>
      </trkpt>
      <trkpt lat="47.87346" lon="2.1438">
        <ele>116</ele>
        <time>2016-10-30T09:00:38.000Z</time>
      </trkpt>
      <trkpt lat="47.87346" lon="2.14384">
        <ele>116</ele>
        <time>2016-10-30T09:00:39.000Z</time>
      </trkpt>
      <trkpt lat="47.87346" lon="2.14388">
        <ele>116</ele>
        <time>2016-10-30T09:00:40.000Z</time>
      </trkpt>
      <trkpt lat="47.87347" lon="2.14391">
        <ele>116</ele>
        <time>2016-10-30T09:00:41.000Z</time>
      </trkpt>
      <trkpt lat="47.87347" lon="2.14394">
        <ele>116</ele>
        <time>2016-10-30T09:00:42.000Z</time>
      </trkpt>
      <trkpt lat="47.87348" lon="2.14396">
        <ele>116</ele>
        <time>2016-10-30T09:00:43.000Z</time>
      </trkpt>
      <trkpt lat="47.87349" lon="2.14398">
        <ele>116</ele>
        <time>2016-10-30T09:00:44.000Z</time>
      </trkpt>
      <trkpt lat="47.8735" lon="2.144">
        <ele>115</ele>
        <time>2016-10-30T09:00:45.000Z</time>
      </trkpt>
      <trkpt lat="47.8735" lon="2.14402">
        <ele>115</ele>
        <time>2016-10-30T09:00:46.000Z</time>
      </trkpt>
      <trkpt lat="47.87352" lon="2.14403">
        <ele>115</ele>
        <time>2016-10-30T09:00:47.000Z</time>
      </trkpt>
      <trkpt lat="47.87353" lon="2.14403">
        <ele>115</ele>
        <time>2016-10-30T09:00:48.000Z</time>
      </trkpt>
      <trkpt lat="47.87354" lon="2.14402">
        <ele>115</ele>
        <time>2016-10-30T09:00:49.000Z</time>
      </trkpt>
      <trkpt lat="47.87356" lon="2.14399">
        <ele>115</ele>
        <time>2016-10-30T09:00:50.000Z</time>
      </trkpt>
      <trkpt lat="47.87356" lon="2.14395">
        <ele>115</ele>
        <time>2016-10-30T09:00:51.000Z</time>
      </trkpt>
      <trkpt lat="47.87357" lon="2.1439">
        <ele>115</ele>
        <time>2016-10-30T09:00:52.000Z</time>
      </trkpt>
      <trkpt lat="47.87357" lon="2.14384">
        <ele>115</ele>
        <time>2016-10-30T09:00:53.000Z</time>
      </trkpt>
      <trkpt lat="47.87356" lon="2.14378">
        <ele>115</ele>
        <time>2016-10-30T09:00:54.000Z</time>
      </trkpt>
      <trkpt lat="47.87354" lon="2.14371">
        <ele>115</ele>
        <time>2016-10-30T09:00:55.000Z</time>
      </trkpt>
      <trkpt lat="47.87352" lon="2.14364">
        <ele>115</ele>
        <time>2016-10-30T09:00:56.000Z</time>
      </trkpt>
      <trkpt lat="47.8735" lon="2.14357">
        <ele>115</ele>
        <time>2016-10-30T09:00:57.000Z</time>
      </trkpt>
      <trkpt lat="47.87348" lon="2.14351">
        <ele>115</ele>
        <time>2016-10-30T09:00:58.000Z</time>
      </trkpt>
      <trkpt lat="47.87346" lon="2.14345">
        <ele>115</ele>
        <time>2016-10-30T09:00:59.000Z</time>
      </trkpt>
      <trkpt lat="47.87345" lon="2.14338">
        <ele>115</ele>
        <time>2016-10-30T09:01:00.000Z</time>
      </trkpt>
      <trkpt lat="47.87344" lon="2.14332">
        <ele>115</ele>
        <time>2016-10-30T09:01:01.000Z</time>
      </trkpt>
      <trkpt lat="47.87344" lon="2.14325">
        <ele>115</ele>
        <time>2016-10-30T09:01:02.000Z</time>
      </trkpt>
      <trkpt lat="47.87344" lon="2.14319">
        <ele>115</ele>
        <time>2016-10-30T09:01:03.000Z</time>
      </trkpt>
      <trkpt lat="47.87344" lon="2.14313">
        <ele>115</ele>
        <time>2016-10-30T09:01:04.000Z</time>
      </trkpt>
      <trkpt lat="47.87344" lon="2.14307">
        <ele>115</ele>
        <time>2016-10-30T09:01:05.000Z</time>
      </trkpt>
      <trkpt lat="47.87344" lon="2.14302">
        <ele>115</ele>
        <time>2016-10-30T09:01:06.000Z</time>
      </trkpt>
      <trkpt lat="47.87344" lon="2.14297">
        <ele>115</ele>
        <time>2016-10-30T09:01:07.000Z</time>
      </trkpt>
      <trkpt lat="47.87344" lon="2.14294">
        <ele>115</ele>
        <time>2016-10-30T09:01:08.000Z</time>
      </trkpt>
      <trkpt lat="47.87344" lon="2.14291">
        <ele>115</ele>
        <time>2016-10-30T09:01:09.000Z</time>
      </trkpt>
      <trkpt lat="47.87344" lon="2.1429">
        <ele>115</ele>
        <time>2016-10-30T09:01:10.000Z</time>
      </trkpt>
      <trkpt lat="47.87343" lon="2.14289">
        <ele>115</ele>
        <time>2016-10-30T09:01:11.000Z</time>
      </trkpt>
      <trkpt lat="47.87343" lon="2.14289">
        <ele>115</ele>
        <time>2016-10-30T09:01:12.000Z</time>
      </trkpt>
      <trkpt lat="47.87343" lon="2.14289">
        <ele>115</ele>
        <time>2016-10-30T09:01:13.000Z</time>
      </trkpt>
      <trkpt lat="47.87344" lon="2.14289">
        <ele>115</ele>
        <time>2016-10-30T09:01:14.000Z</time>
      </trkpt>
      <trkpt lat="47.87344" lon="2.14289">
        <ele>115</ele>
        <time>2016-10-30T09:01:15.000Z</time>
      </trkpt>
      <trkpt lat="47.87344" lon="2.14289">
        <ele>115</ele>
        <time>2016-10-30T09:01:16.000Z</time>
      </trkpt>
      <trkpt lat="47.87344" lon="2.14288">
        <ele>115</ele>
        <time>2016-10-30T09:01:17.000Z</time>
      </trkpt>
      <trkpt lat="47.87344" lon="2.14288">
        <ele>114</ele>
        <time>2016-10-30T09:01:18.000Z</time>
      </trkpt>
      <trkpt lat="47.87344" lon="2.14287">
        <ele>114</ele>
        <time>2016-10-30T09:01:19.000Z</time>
      </trkpt>
      <trkpt lat="47.87343" lon="2.14287">
        <ele>114</ele>
        <time>2016-10-30T09:01:20.000Z</time>
      </trkpt>
      <trkpt lat="47.87343" lon="2.14286">
        <ele>114</ele>
        <time>2016-10-30T09:01:21.000Z</time>
      </trkpt>
      <trkpt lat="47.87341" lon="2.14285">
        <ele>114</ele>
        <time>2016-10-30T09:01:22.000Z</time>
      </trkpt>
      <trkpt lat="47.8734" lon="2.14284">
        <ele>115</ele>
        <time>2016-10-30T09:01:23.000Z</time>
      </trkpt>
      <trkpt lat="47.87338" lon="2.14284">
        <ele>115</ele>
        <time>2016-10-30T09:01:24.000Z</time>
      </trkpt>
      <trkpt lat="47.87336" lon="2.14284">
        <ele>115</ele>
        <time>2016-10-30T09:01:25.000Z</time>
      </trkpt>
      <trkpt lat="47.87334" lon="2.14284">
        <ele>115</ele>
        <time>2016-10-30T09:01:26.000Z</time>
      </trkpt>
      <trkpt lat="47.87331" lon="2.14284">
        <ele>115</ele>
        <time>2016-10-30T09:01:27.000Z</time>
      </trkpt>
      <trkpt lat="47.87328" lon="2.14284">
        <ele>115</ele>
        <time>2016-10-30T09:01:28.000Z</time>
      </trkpt>
      <trkpt lat="47.87325" lon="2.14283">
        <ele>115</ele>
        <time>2016-10-30T09:01:29.000Z</time>
      </trkpt>
      <trkpt lat="47.87322" lon="2.14283">
        <ele>115</ele>
        <time>2016-10-30T09:01:30.000Z</time>
      </trkpt>
      <trkpt lat="47.87319" lon="2.14283">
        <ele>116</ele>
        <time>2016-10-30T09:01:31.000Z</time>
      </trkpt>
      <trkpt lat="47.87315" lon="2.14283">
        <ele>116</ele>
        <time>2016-10-30T09:01:32.000Z</time>
      </trkpt>
      <trkpt lat="47.87311" lon="2.14284">
        <ele>116</ele>
        <time>2016-10-30T09:01:33.000Z</time>
      </trkpt>
      <trkpt lat="47.87308" lon="2.14284">
        <ele>116</ele>
        <time>2016-10-30T09:01:34.000Z</time>
      </trkpt>
      <trkpt lat="47.87304" lon="2.14285">
        <ele>116</ele>
        <time>2016-10-30T09:01:35.000Z</time>
      </trkpt>
      <trkpt lat="47.873" lon="2.14285">
        <ele>116</ele>
        <time>2016-10-30T09:01:36.000Z</time>
      </trkpt>
      <trkpt lat="47.87297" lon="2.14286">
        <ele>116</ele>
        <time>2016-10-30T09:01:37.000Z</time>
      </trkpt>
      <trkpt lat="47.87293" lon="2.14286">
        <ele>116</ele>
        <time>2016-10-30T09:01:38.000Z</time>
      </trkpt>
      <trkpt lat="47.87289" lon="2.14287">
        <ele>116</ele>
        <time>2016-10-30T09:01:39.000Z</time>
      </trkpt>
      <trkpt lat="47.87286" lon="2.14288">
        <ele>116</ele>
        <time>2016-10-30T09:01:40.000Z</time>
      </trkpt>
      <trkpt lat="47.87282" lon="2.14288">
        <ele>116</ele>
        <time>2016-10-30T09:01:41.000Z</time>
      </trkpt>
      <trkpt lat="47.87279" lon="2.14288">
        <ele>115</ele>
        <time>2016-10-30T09:01:42.000Z</time>
      </trkpt>
      <trkpt lat="47.87275" lon="2.14289">
        <ele>116</ele>
        <time>2016-10-30T09:01:43.000Z</time>
      </trkpt>
      <trkpt lat="47.87272" lon="2.14289">
        <ele>115</ele>
        <time>2016-10-30T09:01:44.000Z</time>
      </trkpt>
      <trkpt lat="47.87269" lon="2.14289">
        <ele>115</ele>
        <time>2016-10-30T09:01:45.000Z</time>
      </trkpt>
      <trkpt lat="47.87266" lon="2.14289">
        <ele>115</ele>
        <time>2016-10-30T09:01:46.000Z</time>
      </trkpt>
      <trkpt lat="47.87263" lon="2.14289">
        <ele>115</ele>
        <time>2016-10-30T09:01:47.000Z</time>
      </trkpt>
      <trkpt lat="47.87259" lon="2.14289">
        <ele>114</ele>
        <time>2016-10-30T09:01:48.000Z</time>
      </trkpt>
      <trkpt lat="47.87256" lon="2.1429">
        <ele>114</ele>
        <time>2016-10-30T09:01:49.000Z</time>
      </trkpt>
      <trkpt lat="47.87253" lon="2.14291">
        <ele>114</ele>
        <time>2016-10-30T09:01:50.000Z</time>
      </trkpt>
      <trkpt lat="47.8725" lon="2.14292">
        <ele>114</ele>
        <time>2016-10-30T09:01:51.000Z</time>
      </trkpt>
      <trkpt lat="47.87247" lon="2.14292">
        <ele>114</ele>
        <time>2016-10-30T09:01:52.000Z</time>
      </trkpt>
      <trkpt lat="47.87244" lon="2.14293">
        <ele>114</ele>
        <time>2016-10-30T09:01:53.000Z</time>
      </trkpt>
      <trkpt lat="47.87241" lon="2.14293">
        <ele>114</ele>
        <time>2016-10-30T09:01:54.000Z</time>
      </trkpt>
      <trkpt lat="47.87238" lon="2.14294">
        <ele>115</ele>
        <time>2016-10-30T09:01:55.000Z</time>
      </trkpt>
      <trkpt lat="47.87235" lon="2.14294">
        <ele>114</ele>
        <time>2016-10-30T09:01:56.000Z</time>
      </trkpt>
      <trkpt lat="47.87233" lon="2.14295">
        <ele>114</ele>
        <time>2016-10-30T09:01:57.000Z</time>
      </trkpt>
      <trkpt lat="47.8723" lon="2.14295">
        <ele>114</ele>
        <time>2016-10-30T09:01:58.000Z</time>
      </trkpt>
      <trkpt lat="47.87227" lon="2.14295">
        <ele>114</ele>
        <time>2016-10-30T09:01:59.000Z</time>
      </trkpt>
      <trkpt lat="47.87225" lon="2.14294">
        <ele>115</ele>
        <time>2016-10-30T09:02:00.000Z</time>
      </trkpt>
      <trkpt lat="47.87222" lon="2.14293">
        <ele>115</ele>
        <time>2016-10-30T09:02:01.000Z</time>
      </trkpt>
      <trkpt lat="47.87221" lon="2.1429">
        <ele>115</ele>
        <time>2016-10-30T09:02:02.000Z</time>
      </trkpt>
      <trkpt lat="47.8722" lon="2.14287">
        <ele>115</ele>
        <time>2016-10-30T09:02:03.000Z</time>
      </trkpt>
      <trkpt lat="47.8722" lon="2.14282">
        <ele>116</ele>
        <time>2016-10-30T09:02:04.000Z</time>
      </trkpt>
      <trkpt lat="47.8722" lon="2.14277">
        <ele>116</ele>
        <time>2016-10-30T09:02:05.000Z</time>
      </trkpt>
      <trkpt lat="47.87219" lon="2.14271">
        <ele>116</ele>
        <time>2016-10-30T09:02:06.000Z</time>
      </trkpt>
      <trkpt lat="47.87219" lon="2.14265">
        <ele>116</ele>
        <time>2016-10-30T09:02:07.000Z</time>
      </trkpt>
      <trkpt lat="47.87219" lon="2.14259">
        <ele>115</ele>
        <time>2016-10-30T09:02:08.000Z</time>
      </trkpt>
      <trkpt lat="47.87218" lon="2.14252">
        <ele>115</ele>
        <time>2016-10-30T09:02:09.000Z</time>
      </trkpt>
      <trkpt lat="47.87218" lon="2.14246">
        <ele>115</ele>
        <time>2016-10-30T09:02:10.000Z</time>
      </trkpt>
      <trkpt lat="47.87218" lon="2.14239">
        <ele>115</ele>
        <time>2016-10-30T09:02:11.000Z</time>
      </trkpt>
      <trkpt lat="47.87217" lon="2.14233">
        <ele>114</ele>
        <time>2016-10-30T09:02:12.000Z</time>
      </trkpt>
      <trkpt lat="47.87217" lon="2.14226">
        <ele>114</ele>
        <time>2016-10-30T09:02:13.000Z</time>
      </trkpt>
      <trkpt lat="47.87217" lon="2.14219">
        <ele>114</ele>
        <time>2016-10-30T09:02:14.000Z</time>
      </trkpt>
      <trkpt lat="47.87216" lon="2.14213">
        <ele>114</ele>
        <time>2016-10-30T09:02:15.000Z</time>
      </trkpt>
      <trkpt lat="47.87216" lon="2.14206">
        <ele>114</ele>
        <time>2016-10-30T09:02:16.000Z</time>
      </trkpt>
      <trkpt lat="47.87216" lon="2.14199">
        <ele>114</ele>
        <time>2016-10-30T09:02:17.000Z</time>
      </trkpt>
      <trkpt lat="47.87215" lon="2.14193">
        <ele>113</ele>
        <time>2016-10-30T09:02:18.000Z</time>
      </trkpt>
      <trkpt lat="47.87215" lon="2.14186">
        <ele>113</ele>
        <time>2016-10-30T09:02:19.000Z</time>
      </trkpt>
      <trkpt lat="47.87215" lon="2.14179">
        <ele>114</ele>
        <time>2016-10-30T09:02:20.000Z</time>
      </trkpt>
      <trkpt lat="47.87214" lon="2.14171">
        <ele>114</ele>
        <time>2016-10-30T09:02:21.000Z</time>
      </trkpt>
      <trkpt lat="47.87214" lon="2.14164">
        <ele>114</ele>
        <time>2016-10-30T09:02:22.000Z</time>
      </trkpt>
      <trkpt lat="47.87214" lon="2.14156">
        <ele>114</ele>
        <time>2016-10-30T09:02:23.000Z</time>
      </trkpt>
      <trkpt lat="47.87213" lon="2.14149">
        <ele>114</ele>
        <time>2016-10-30T09:02:24.000Z</time>
      </trkpt>
      <trkpt lat="47.87213" lon="2.14141">
        <ele>114</ele>
        <time>2016-10-30T09:02:25.000Z</time>
      </trkpt>
      <trkpt lat="47.87213" lon="2.14133">
        <ele>114</ele>
        <time>2016-10-30T09:02:26.000Z</time>
      </trkpt>
      <trkpt lat="47.87212" lon="2.14125">
        <ele>114</ele>
        <time>2016-10-30T09:02:27.000Z</time>
      </trkpt>
      <trkpt lat="47.87213" lon="2.14117">
        <ele>114</ele>
        <time>2016-10-30T09:02:28.000Z</time>
      </trkpt>
      <trkpt lat="47.87213" lon="2.14109">
        <ele>114</ele>
        <time>2016-10-30T09:02:29.000Z</time>
      </trkpt>
      <trkpt lat="47.87213" lon="2.14101">
        <ele>114</ele>
        <time>2016-10-30T09:02:30.000Z</time>
      </trkpt>
      <trkpt lat="47.87212" lon="2.14093">
        <ele>114</ele>
        <time>2016-10-30T09:02:31.000Z</time>
      </trkpt>
      <trkpt lat="47.87212" lon="2.14085">
        <ele>114</ele>
        <time>2016-10-30T09:02:32.000Z</time>
      </trkpt>
      <trkpt lat="47.87211" lon="2.14077">
        <ele>114</ele>
        <time>2016-10-30T09:02:33.000Z</time>
      </trkpt>
      <trkpt lat="47.87211" lon="2.14069">
        <ele>114</ele>
        <time>2016-10-30T09:02:34.000Z</time>
      </trkpt>
      <trkpt lat="47.87211" lon="2.14061">
        <ele>114</ele>
        <time>2016-10-30T09:02:35.000Z</time>
      </trkpt>
      <trkpt lat="47.8721" lon="2.14053">
        <ele>114</ele>
        <time>2016-10-30T09:02:36.000Z</time>
      </trkpt>
      <trkpt lat="47.8721" lon="2.14045">
        <ele>114</ele>
        <time>2016-10-30T09:02:37.000Z</time>
      </trkpt>
      <trkpt lat="47.8721" lon="2.14037">
        <ele>114</ele>
        <time>2016-10-30T09:02:38.000Z</time>
      </trkpt>
      <trkpt lat="47.87209" lon="2.14029">
        <ele>114</ele>
        <time>2016-10-30T09:02:39.000Z</time>
      </trkpt>
      <trkpt lat="47.87209" lon="2.14021">
        <ele>114</ele>
        <time>2016-10-30T09:02:40.000Z</time>
      </trkpt>
      <trkpt lat="47.87209" lon="2.14014">
        <ele>115</ele>
        <time>2016-10-30T09:02:41.000Z</time>
      </trkpt>
      <trkpt lat="47.87209" lon="2.14006">
        <ele>114</ele>
        <time>2016-10-30T09:02:42.000Z</time>
      </trkpt>
      <trkpt lat="47.87209" lon="2.13999">
        <ele>115</ele>
        <time>2016-10-30T09:02:43.000Z</time>
      </trkpt>
      <trkpt lat="47.87209" lon="2.13991">
        <ele>115</ele>
        <time>2016-10-30T09:02:44.000Z</time>
      </trkpt>
      <trkpt lat="47.87209" lon="2.13983">
        <ele>115</ele>
        <time>2016-10-30T09:02:45.000Z</time>
      </trkpt>
      <trkpt lat="47.87209" lon="2.13975">
        <ele>115</ele>
        <time>2016-10-30T09:02:46.000Z</time>
      </trkpt>
      <trkpt lat="47.87209" lon="2.13968">
        <ele>115</ele>
        <time>2016-10-30T09:02:47.000Z</time>
      </trkpt>
      <trkpt lat="47.87208" lon="2.1396">
        <ele>115</ele>
        <time>2016-10-30T09:02:48.000Z</time>
      </trkpt>
      <trkpt lat="47.87208" lon="2.13952">
        <ele>115</ele>
        <time>2016-10-30T09:02:49.000Z</time>
      </trkpt>
      <trkpt lat="47.87208" lon="2.13943">
        <ele>115</ele>
        <time>2016-10-30T09:02:50.000Z</time>
      </trkpt>
      <trkpt lat="47.87208" lon="2.13935">
        <ele>115</ele>
        <time>2016-10-30T09:02:51.000Z</time>
      </trkpt>
      <trkpt lat="47.87207" lon="2.13927">
        <ele>115</ele>
        <time>2016-10-30T09:02:52.000Z</time>
      </trkpt>
      <trkpt lat="47.87207" lon="2.13919">
        <ele>115</ele>
        <time>2016-10-30T09:02:53.000Z</time>
      </trkpt>
      <trkpt lat="47.87207" lon="2.13911">
        <ele>115</ele>
        <time>2016-10-30T09:02:54.000Z</time>
      </trkpt>
      <trkpt lat="47.87207" lon="2.13903">
        <ele>115</ele>
        <time>2016-10-30T09:02:55.000Z</time>
      </trkpt>
      <trkpt lat="47.87207" lon="2.13895">
        <ele>115</ele>
        <time>2016-10-30T09:02:56.000Z</time>
      </trkpt>
      <trkpt lat="47.87206" lon="2.13887">
        <ele>115</ele>
        <time>2016-10-30T09:02:57.000Z</time>
      </trkpt>
      <trkpt lat="47.87206" lon="2.13879">
        <ele>115</ele>
        <time>2016-10-30T09:02:58.000Z</time>
      </trkpt>
      <trkpt lat="47.87206" lon="2.13871">
        <ele>115</ele>
        <time>2016-10-30T09:02:59.000Z</time>
      </trkpt>
      <trkpt lat="47.87205" lon="2.13863">
        <ele>115</ele>
        <time>2016-10-30T09:03:00.000Z</time>
      </trkpt>
      <trkpt lat="47.87205" lon="2.13856">
        <ele>115</ele>
        <time>2016-10-30T09:03:01.000Z</time>
      </trkpt>
      <trkpt lat="47.87205" lon="2.13848">
        <ele>115</ele>
        <time>2016-10-30T09:03:02.000Z</time>
      </trkpt>
      <trkpt lat="47.87204" lon="2.1384">
        <ele>115</ele>
        <time>2016-10-30T09:03:03.000Z</time>
      </trkpt>
      <trkpt lat="47.87204" lon="2.13833">
        <ele>115</ele>
        <time>2016-10-30T09:03:04.000Z</time>
      </trkpt>
      <trkpt lat="47.87203" lon="2.13825">
        <ele>116</ele>
        <time>2016-10-30T09:03:05.000Z</time>
      </trkpt>
      <trkpt lat="47.87203" lon="2.13818">
        <ele>116</ele>
        <time>2016-10-30T09:03:06.000Z</time>
      </trkpt>
      <trkpt lat="47.87202" lon="2.1381">
        <ele>116</ele>
        <time>2016-10-30T09:03:07.000Z</time>
      </trkpt>
      <trkpt lat="47.87202" lon="2.13803">
        <ele>116</ele>
        <time>2016-10-30T09:03:08.000Z</time>
      </trkpt>
      <trkpt lat="47.87202" lon="2.13795">
        <ele>117</ele>
        <time>2016-10-30T09:03:09.000Z</time>
      </trkpt>
      <trkpt lat="47.87201" lon="2.13788">
        <ele>117</ele>
        <time>2016-10-30T09:03:10.000Z</time>
      </trkpt>
      <trkpt lat="47.87201" lon="2.1378">
        <ele>116</ele>
        <time>2016-10-30T09:03:11.000Z</time>
      </trkpt>
      <trkpt lat="47.87201" lon="2.13773">
        <ele>116</ele>
        <time>2016-10-30T09:03:12.000Z</time>
      </trkpt>
      <trkpt lat="47.872" lon="2.13766">
        <ele>116</ele>
        <time>2016-10-30T09:03:13.000Z</time>
      </trkpt>
      <trkpt lat="47.872" lon="2.13758">
        <ele>116</ele>
        <time>2016-10-30T09:03:14.000Z</time>
      </trkpt>
      <trkpt lat="47.872" lon="2.13751">
        <ele>116</ele>
        <time>2016-10-30T09:03:15.000Z</time>
      </trkpt>
      <trkpt lat="47.872" lon="2.13744">
        <ele>116</ele>
        <time>2016-10-30T09:03:16.000Z</time>
      </trkpt>
      <trkpt lat="47.872" lon="2.13737">
        <ele>116</ele>
        <time>2016-10-30T09:03:17.000Z</time>
      </trkpt>
      <trkpt lat="47.872" lon="2.1373">
        <ele>115</ele>
        <time>2016-10-30T09:03:18.000Z</time>
      </trkpt>
      <trkpt lat="47.872" lon="2.13724">
        <ele>115</ele>
        <time>2016-10-30T09:03:19.000Z</time>
      </trkpt>
      <trkpt lat="47.872" lon="2.13717">
        <ele>115</ele>
        <time>2016-10-30T09:03:20.000Z</time>
      </trkpt>
      <trkpt lat="47.872" lon="2.13709">
        <ele>115</ele>
        <time>2016-10-30T09:03:21.000Z</time>
      </trkpt>
      <trkpt lat="47.872" lon="2.13703">
        <ele>115</ele>
        <time>2016-10-30T09:03:22.000Z</time>
      </trkpt>
      <trkpt lat="47.872" lon="2.13696">
        <ele>115</ele>
        <time>2016-10-30T09:03:23.000Z</time>
      </trkpt>
      <trkpt lat="47.872" lon="2.13689">
        <ele>114</ele>
        <time>2016-10-30T09:03:24.000Z</time>
      </trkpt>
      <trkpt lat="47.872" lon="2.13683">
        <ele>114</ele>
        <time>2016-10-30T09:03:25.000Z</time>
      </trkpt>
      <trkpt lat="47.872" lon="2.13676">
        <ele>114</ele>
        <time>2016-10-30T09:03:26.000Z</time>
      </trkpt>
      <trkpt lat="47.872" lon="2.13669">
        <ele>114</ele>
        <time>2016-10-30T09:03:27.000Z</time>
      </trkpt>
      <trkpt lat="47.872" lon="2.13662">
        <ele>115</ele>
        <time>2016-10-30T09:03:28.000Z</time>
      </trkpt>
      <trkpt lat="47.872" lon="2.13655">
        <ele>115</ele>
        <time>2016-10-30T09:03:29.000Z</time>
      </trkpt>
      <trkpt lat="47.87199" lon="2.13648">
        <ele>115</ele>
        <time>2016-10-30T09:03:30.000Z</time>
      </trkpt>
      <trkpt lat="47.87198" lon="2.13641">
        <ele>115</ele>
        <time>2016-10-30T09:03:31.000Z</time>
      </trkpt>
      <trkpt lat="47.87197" lon="2.13635">
        <ele>114</ele>
        <time>2016-10-30T09:03:32.000Z</time>
      </trkpt>
      <trkpt lat="47.87195" lon="2.13628">
        <ele>114</ele>
        <time>2016-10-30T09:03:33.000Z</time>
      </trkpt>
      <trkpt lat="47.87194" lon="2.13622">
        <ele>113</ele>
        <time>2016-10-30T09:03:34.000Z</time>
      </trkpt>
      <trkpt lat="47.87192" lon="2.13615">
        <ele>113</ele>
        <time>2016-10-30T09:03:35.000Z</time>
      </trkpt>
      <trkpt lat="47.8719" lon="2.13609">
        <ele>112</ele>
        <time>2016-10-30T09:03:36.000Z</time>
      </trkpt>
      <trkpt lat="47.87188" lon="2.13602">
        <ele>113</ele>
        <time>2016-10-30T09:03:37.000Z</time>
      </trkpt>
      <trkpt lat="47.87187" lon="2.13595">
        <ele>113</ele>
        <time>2016-10-30T09:03:38.000Z</time>
      </trkpt>
      <trkpt lat="47.87185" lon="2.13588">
        <ele>112</ele>
        <time>2016-10-30T09:03:39.000Z</time>
      </trkpt>
      <trkpt lat="47.87183" lon="2.13581">
        <ele>113</ele>
        <time>2016-10-30T09:03:40.000Z</time>
      </trkpt>
      <trkpt lat="47.87181" lon="2.13574">
        <ele>113</ele>
        <time>2016-10-30T09:03:41.000Z</time>
      </trkpt>
      <trkpt lat="47.87179" lon="2.13567">
        <ele>112</ele>
        <time>2016-10-30T09:03:42.000Z</time>
      </trkpt>
      <trkpt lat="47.87177" lon="2.1356">
        <ele>112</ele>
        <time>2016-10-30T09:03:43.000Z</time>
      </trkpt>
      <trkpt lat="47.87174" lon="2.13554">
        <ele>112</ele>
        <time>2016-10-30T09:03:44.000Z</time>
      </trkpt>
      <trkpt lat="47.87172" lon="2.13547">
        <ele>112</ele>
        <time>2016-10-30T09:03:45.000Z</time>
      </trkpt>
      <trkpt lat="47.8717" lon="2.13541">
        <ele>113</ele>
        <time>2016-10-30T09:03:46.000Z</time>
      </trkpt>
      <trkpt lat="47.87168" lon="2.13535">
        <ele>113</ele>
        <time>2016-10-30T09:03:47.000Z</time>
      </trkpt>
      <trkpt lat="47.87165" lon="2.1353">
        <ele>114</ele>
        <time>2016-10-30T09:03:48.000Z</time>
      </trkpt>
      <trkpt lat="47.87162" lon="2.13526">
        <ele>114</ele>
        <time>2016-10-30T09:03:49.000Z</time>
      </trkpt>
      <trkpt lat="47.87159" lon="2.13522">
        <ele>114</ele>
        <time>2016-10-30T09:03:50.000Z</time>
      </trkpt>
      <trkpt lat="47.87157" lon="2.13519">
        <ele>114</ele>
        <time>2016-10-30T09:03:51.000Z</time>
      </trkpt>
      <trkpt lat="47.87154" lon="2.13517">
        <ele>114</ele>
        <time>2016-10-30T09:03:52.000Z</time>
      </trkpt>
      <trkpt lat="47.8715" lon="2.13514">
        <ele>114</ele>
        <time>2016-10-30T09:03:53.000Z</time>
      </trkpt>
      <trkpt lat="47.87147" lon="2.13511">
        <ele>115</ele>
        <time>2016-10-30T09:03:54.000Z</time>
      </trkpt>
      <trkpt lat="47.87143" lon="2.13508">
        <ele>115</ele>
        <time>2016-10-30T09:03:55.000Z</time>
      </trkpt>
      <trkpt lat="47.87139" lon="2.13505">
        <ele>115</ele>
        <time>2016-10-30T09:03:56.000Z</time>
      </trkpt>
      <trkpt lat="47.87136" lon="2.13502">
        <ele>115</ele>
        <time>2016-10-30T09:03:57.000Z</time>
      </trkpt>
      <trkpt lat="47.87132" lon="2.13499">
        <ele>116</ele>
        <time>2016-10-30T09:03:58.000Z</time>
      </trkpt>
      <trkpt lat="47.87128" lon="2.13496">
        <ele>116</ele>
        <time>2016-10-30T09:03:59.000Z</time>
      </trkpt>
      <trkpt lat="47.87124" lon="2.13493">
        <ele>116</ele>
        <time>2016-10-30T09:04:00.000Z</time>
      </trkpt>
      <trkpt lat="47.8712" lon="2.1349">
        <ele>115</ele>
        <time>2016-10-30T09:04:01.000Z</time>
      </trkpt>
      <trkpt lat="47.87116" lon="2.13487">
        <ele>115</ele>
        <time>2016-10-30T09:04:02.000Z</time>
      </trkpt>
      <trkpt lat="47.87112" lon="2.13484">
        <ele>115</ele>
        <time>2016-10-30T09:04:03.000Z</time>
      </trkpt>
      <trkpt lat="47.87108" lon="2.13481">
        <ele>115</ele>
        <time>2016-10-30T09:04:04.000Z</time>
      </trkpt>
      <trkpt lat="47.87104" lon="2.13478">
        <ele>115</ele>
        <time>2016-10-30T09:04:05.000Z</time>
      </trkpt>
      <trkpt lat="47.871" lon="2.13474">
        <ele>115</ele>
        <time>2016-10-30T09:04:06.000Z</time>
      </trkpt>
      <trkpt lat="47.87096" lon="2.13471">
        <ele>115</ele>
        <time>2016-10-30T09:04:07.000Z</time>
      </trkpt>
      <trkpt lat="47.87092" lon="2.13468">
        <ele>115</ele>
        <time>2016-10-30T09:04:08.000Z</time>
      </trkpt>
      <trkpt lat="47.87087" lon="2.13465">
        <ele>115</ele>
        <time>2016-10-30T09:04:09.000Z</time>
      </trkpt>
      <trkpt lat="47.87083" lon="2.13462">
        <ele>115</ele>
        <time>2016-10-30T09:04:10.000Z</time>
      </trkpt>
      <trkpt lat="47.87079" lon="2.13459">
        <ele>115</ele>
        <time>2016-10-30T09:04:11.000Z</time>
      </trkpt>
      <trkpt lat="47.87075" lon="2.13456">
        <ele>115</ele>
        <time>2016-10-30T09:04:12.000Z</time>
      </trkpt>
      <trkpt lat="47.87069" lon="2.13452">
        <ele>114</ele>
        <time>2016-10-30T09:04:13.000Z</time>
      </trkpt>
      <trkpt lat="47.87064" lon="2.13449">
        <ele>114</ele>
        <time>2016-10-30T09:04:14.000Z</time>
      </trkpt>
      <trkpt lat="47.87059" lon="2.13446">
        <ele>113</ele>
        <time>2016-10-30T09:04:15.000Z</time>
      </trkpt>
      <trkpt lat="47.87055" lon="2.13443">
        <ele>113</ele>
        <time>2016-10-30T09:04:16.000Z</time>
      </trkpt>
      <trkpt lat="47.8705" lon="2.1344">
        <ele>112</ele>
        <time>2016-10-30T09:04:17.000Z</time>
      </trkpt>
      <trkpt lat="47.87046" lon="2.13436">
        <ele>112</ele>
        <time>2016-10-30T09:04:18.000Z</time>
      </trkpt>
      <trkpt lat="47.87042" lon="2.13434">
        <ele>111</ele>
        <time>2016-10-30T09:04:19.000Z</time>
      </trkpt>
      <trkpt lat="47.87038" lon="2.13431">
        <ele>111</ele>
        <time>2016-10-30T09:04:20.000Z</time>
      </trkpt>
      <trkpt lat="47.87035" lon="2.13428">
        <ele>111</ele>
        <time>2016-10-30T09:04:21.000Z</time>
      </trkpt>
      <trkpt lat="47.8703" lon="2.13426">
        <ele>112</ele>
        <time>2016-10-30T09:04:22.000Z</time>
      </trkpt>
      <trkpt lat="47.87025" lon="2.13423">
        <ele>112</ele>
        <time>2016-10-30T09:04:23.000Z</time>
      </trkpt>
      <trkpt lat="47.87021" lon="2.1342">
        <ele>112</ele>
        <time>2016-10-30T09:04:24.000Z</time>
      </trkpt>
      <trkpt lat="47.87017" lon="2.13417">
        <ele>112</ele>
        <time>2016-10-30T09:04:25.000Z</time>
      </trkpt>
      <trkpt lat="47.87014" lon="2.13414">
        <ele>112</ele>
        <time>2016-10-30T09:04:26.000Z</time>
      </trkpt>
      <trkpt lat="47.87011" lon="2.1341">
        <ele>111</ele>
        <time>2016-10-30T09:04:27.000Z</time>
      </trkpt>
      <trkpt lat="47.87007" lon="2.13406">
        <ele>111</ele>
        <time>2016-10-30T09:04:28.000Z</time>
      </trkpt>
      <trkpt lat="47.87004" lon="2.13403">
        <ele>111</ele>
        <time>2016-10-30T09:04:29.000Z</time>
      </trkpt>
      <trkpt lat="47.87" lon="2.13399">
        <ele>111</ele>
        <time>2016-10-30T09:04:30.000Z</time>
      </trkpt>
      <trkpt lat="47.86996" lon="2.13395">
        <ele>111</ele>
        <time>2016-10-30T09:04:31.000Z</time>
      </trkpt>
      <trkpt lat="47.86993" lon="2.13391">
        <ele>111</ele>
        <time>2016-10-30T09:04:32.000Z</time>
      </trkpt>
      <trkpt lat="47.8699" lon="2.13386">
        <ele>111</ele>
        <time>2016-10-30T09:04:33.000Z</time>
      </trkpt>
      <trkpt lat="47.86988" lon="2.13381">
        <ele>112</ele>
        <time>2016-10-30T09:04:34.000Z</time>
      </trkpt>
      <trkpt lat="47.86987" lon="2.13375">
        <ele>112</ele>
        <time>2016-10-30T09:04:35.000Z</time>
      </trkpt>
      <trkpt lat="47.86986" lon="2.13369">
        <ele>112</ele>
        <time>2016-10-30T09:04:36.000Z</time>
      </trkpt>
      <trkpt lat="47.86985" lon="2.13363">
        <ele>113</ele>
        <time>2016-10-30T09:04:37.000Z</time>
      </trkpt>
      <trkpt lat="47.86983" lon="2.13357">
        <ele>114</ele>
        <time>2016-10-30T09:04:38.000Z</time>
      </trkpt>
      <trkpt lat="47.86981" lon="2.13352">
        <ele>114</ele>
        <time>2016-10-30T09:04:39.000Z</time>
      </trkpt>
      <trkpt lat="47.86979" lon="2.13348">
        <ele>114</ele>
        <time>2016-10-30T09:04:40.000Z</time>
      </trkpt>
      <trkpt lat="47.86976" lon="2.13344">
        <ele>114</ele>
        <time>2016-10-30T09:04:41.000Z</time>
      </trkpt>
      <trkpt lat="47.86974" lon="2.13341">
        <ele>114</ele>
        <time>2016-10-30T09:04:42.000Z</time>
      </trkpt>
      <trkpt lat="47.86973" lon="2.13337">
        <ele>115</ele>
        <time>2016-10-30T09:04:43.000Z</time>
      </trkpt>
      <trkpt lat="47.86972" lon="2.13332">
        <ele>114</ele>
        <time>2016-10-30T09:04:44.000Z</time>
      </trkpt>
      <trkpt lat="47.86972" lon="2.13328">
        <ele>114</ele>
        <time>2016-10-30T09:04:45.000Z</time>
      </trkpt>
      <trkpt lat="47.86971" lon="2.13325">
        <ele>114</ele>
        <time>2016-10-30T09:04:46.000Z</time>
      </trkpt>
      <trkpt lat="47.86969" lon="2.13322">
        <ele>114</ele>
        <time>2016-10-30T09:04:47.000Z</time>
      </trkpt>
      <trkpt lat="47.86967" lon="2.13319">
        <ele>114</ele>
        <time>2016-10-30T09:04:48.000Z</time>
      </trkpt>
      <trkpt lat="47.86963" lon="2.13315">
        <ele>113</ele>
        <time>2016-10-30T09:04:49.000Z</time>
      </trkpt>
      <trkpt lat="47.86959" lon="2.13311">
        <ele>113</ele>
        <time>2016-10-30T09:04:50.000Z</time>
      </trkpt>
      <trkpt lat="47.86955" lon="2.13308">
        <ele>112</ele>
        <time>2016-10-30T09:04:51.000Z</time>
      </trkpt>
      <trkpt lat="47.86952" lon="2.13305">
        <ele>112</ele>
        <time>2016-10-30T09:04:52.000Z</time>
      </trkpt>
      <trkpt lat="47.86949" lon="2.13303">
        <ele>111</ele>
        <time>2016-10-30T09:04:53.000Z</time>
      </trkpt>
      <trkpt lat="47.86945" lon="2.13301">
        <ele>112</ele>
        <time>2016-10-30T09:04:54.000Z</time>
      </trkpt>
      <trkpt lat="47.86942" lon="2.13299">
        <ele>112</ele>
        <time>2016-10-30T09:04:55.000Z</time>
      </trkpt>
      <trkpt lat="47.86939" lon="2.13297">
        <ele>112</ele>
        <time>2016-10-30T09:04:56.000Z</time>
      </trkpt>
      <trkpt lat="47.86936" lon="2.13294">
        <ele>111</ele>
        <time>2016-10-30T09:04:57.000Z</time>
      </trkpt>
      <trkpt lat="47.86933" lon="2.13289">
        <ele>109</ele>
        <time>2016-10-30T09:04:58.000Z</time>
      </trkpt>
      <trkpt lat="47.8693" lon="2.13283">
        <ele>108</ele>
        <time>2016-10-30T09:04:59.000Z</time>
      </trkpt>
      <trkpt lat="47.86927" lon="2.13277">
        <ele>107</ele>
        <time>2016-10-30T09:05:00.000Z</time>
      </trkpt>
      <trkpt lat="47.86924" lon="2.13272">
        <ele>107</ele>
        <time>2016-10-30T09:05:01.000Z</time>
      </trkpt>
      <trkpt lat="47.86922" lon="2.13269">
        <ele>106</ele>
        <time>2016-10-30T09:05:02.000Z</time>
      </trkpt>
      <trkpt lat="47.86919" lon="2.13266">
        <ele>105</ele>
        <time>2016-10-30T09:05:03.000Z</time>
      </trkpt>
      <trkpt lat="47.86917" lon="2.13264">
        <ele>105</ele>
        <time>2016-10-30T09:05:04.000Z</time>
      </trkpt>
      <trkpt lat="47.86914" lon="2.13262">
        <ele>106</ele>
        <time>2016-10-30T09:05:05.000Z</time>
      </trkpt>
      <trkpt lat="47.86912" lon="2.13261">
        <ele>105</ele>
        <time>2016-10-30T09:05:06.000Z</time>
      </trkpt>
      <trkpt lat="47.86909" lon="2.13261">
        <ele>104</ele>
        <time>2016-10-30T09:05:07.000Z</time>
      </trkpt>
      <trkpt lat="47.86906" lon="2.13262">
        <ele>104</ele>
        <time>2016-10-30T09:05:08.000Z</time>
      </trkpt>
      <trkpt lat="47.86903" lon="2.13262">
        <ele>104</ele>
        <time>2016-10-30T09:05:09.000Z</time>
      </trkpt>
      <trkpt lat="47.869" lon="2.13262">
        <ele>104</ele>
        <time>2016-10-30T09:05:10.000Z</time>
      </trkpt>
      <trkpt lat="47.86896" lon="2.1326">
        <ele>105</ele>
        <time>2016-10-30T09:05:11.000Z</time>
      </trkpt>
      <trkpt lat="47.86893" lon="2.13257">
        <ele>105</ele>
        <time>2016-10-30T09:05:12.000Z</time>
      </trkpt>
      <trkpt lat="47.8689" lon="2.13254">
        <ele>105</ele>
        <time>2016-10-30T09:05:13.000Z</time>
      </trkpt>
      <trkpt lat="47.86887" lon="2.13251">
        <ele>105</ele>
        <time>2016-10-30T09:05:14.000Z</time>
      </trkpt>
      <trkpt lat="47.86883" lon="2.13248">
        <ele>104</ele>
        <time>2016-10-30T09:05:15.000Z</time>
      </trkpt>
      <trkpt lat="47.86879" lon="2.13245">
        <ele>104</ele>
        <time>2016-10-30T09:05:16.000Z</time>
      </trkpt>
      <trkpt lat="47.86875" lon="2.13242">
        <ele>104</ele>
        <time>2016-10-30T09:05:17.000Z</time>
      </trkpt>
      <trkpt lat="47.8687" lon="2.13238">
        <ele>104</ele>
        <time>2016-10-30T09:05:18.000Z</time>
      </trkpt>
      <trkpt lat="47.86865" lon="2.13233">
        <ele>105</ele>
        <time>2016-10-30T09:05:19.000Z</time>
      </trkpt>
      <trkpt lat="47.8686" lon="2.13228">
        <ele>106</ele>
        <time>2016-10-30T09:05:20.000Z</time>
      </trkpt>
      <trkpt lat="47.86854" lon="2.13223">
        <ele>106</ele>
        <time>2016-10-30T09:05:21.000Z</time>
      </trkpt>
      <trkpt lat="47.86849" lon="2.13217">
        <ele>106</ele>
        <time>2016-10-30T09:05:22.000Z</time>
      </trkpt>
      <trkpt lat="47.86844" lon="2.13212">
        <ele>105</ele>
        <time>2016-10-30T09:05:23.000Z</time>
      </trkpt>
      <trkpt lat="47.86839" lon="2.13207">
        <ele>105</ele>
        <time>2016-10-30T09:05:24.000Z</time>
      </trkpt>
      <trkpt lat="47.86835" lon="2.13202">
        <ele>105</ele>
        <time>2016-10-30T09:05:25.000Z</time>
      </trkpt>
      <trkpt lat="47.86831" lon="2.13196">
        <ele>104</ele>
        <time>2016-10-30T09:05:26.000Z</time>
      </trkpt>
      <trkpt lat="47.86829" lon="2.1319">
        <ele>103</ele>
        <time>2016-10-30T09:05:27.000Z</time>
      </trkpt>
      <trkpt lat="47.86829" lon="2.13182">
        <ele>104</ele>
        <time>2016-10-30T09:05:28.000Z</time>
      </trkpt>
      <trkpt lat="47.8683" lon="2.13173">
        <ele>104</ele>
        <time>2016-10-30T09:05:29.000Z</time>
      </trkpt>
      <trkpt lat="47.86831" lon="2.13165">
        <ele>105</ele>
        <time>2016-10-30T09:05:30.000Z</time>
      </trkpt>
      <trkpt lat="47.86833" lon="2.13157">
        <ele>105</ele>
        <time>2016-10-30T09:05:31.000Z</time>
      </trkpt>
      <trkpt lat="47.86835" lon="2.13149">
        <ele>106</ele>
        <time>2016-10-30T09:05:32.000Z</time>
      </trkpt>
      <trkpt lat="47.86837" lon="2.13141">
        <ele>106</ele>
        <time>2016-10-30T09:05:33.000Z</time>
      </trkpt>
      <trkpt lat="47.8684" lon="2.13134">
        <ele>107</ele>
        <time>2016-10-30T09:05:34.000Z</time>
      </trkpt>
      <trkpt lat="47.86843" lon="2.13128">
        <ele>107</ele>
        <time>2016-10-30T09:05:35.000Z</time>
      </trkpt>
      <trkpt lat="47.86846" lon="2.13121">
        <ele>107</ele>
        <time>2016-10-30T09:05:36.000Z</time>
      </trkpt>
      <trkpt lat="47.86849" lon="2.13115">
        <ele>107</ele>
        <time>2016-10-30T09:05:37.000Z</time>
      </trkpt>
      <trkpt lat="47.86852" lon="2.13109">
        <ele>107</ele>
        <time>2016-10-30T09:05:38.000Z</time>
      </trkpt>
      <trkpt lat="47.86855" lon="2.13103">
        <ele>107</ele>
        <time>2016-10-30T09:05:39.000Z</time>
      </trkpt>
      <trkpt lat="47.86857" lon="2.13097">
        <ele>107</ele>
        <time>2016-10-30T09:05:40.000Z</time>
      </trkpt>
      <trkpt lat="47.8686" lon="2.13092">
        <ele>107</ele>
        <time>2016-10-30T09:05:41.000Z</time>
      </trkpt>
      <trkpt lat="47.86862" lon="2.13087">
        <ele>108</ele>
        <time>2016-10-30T09:05:42.000Z</time>
      </trkpt>
      <trkpt lat="47.86864" lon="2.13082">
        <ele>108</ele>
        <time>2016-10-30T09:05:43.000Z</time>
      </trkpt>
      <trkpt lat="47.86866" lon="2.13077">
        <ele>108</ele>
        <time>2016-10-30T09:05:44.000Z</time>
      </trkpt>
      <trkpt lat="47.86868" lon="2.13072">
        <ele>108</ele>
        <time>2016-10-30T09:05:45.000Z</time>
      </trkpt>
      <trkpt lat="47.8687" lon="2.13067">
        <ele>108</ele>
        <time>2016-10-30T09:05:46.000Z</time>
      </trkpt>
      <trkpt lat="47.86871" lon="2.13063">
        <ele>108</ele>
        <time>2016-10-30T09:05:47.000Z</time>
      </trkpt>
      <trkpt lat="47.86873" lon="2.13058">
        <ele>108</ele>
        <time>2016-10-30T09:05:48.000Z</time>
      </trkpt>
      <trkpt lat="47.86876" lon="2.13054">
        <ele>108</ele>
        <time>2016-10-30T09:05:49.000Z</time>
      </trkpt>
      <trkpt lat="47.86877" lon="2.13049">
        <ele>108</ele>
        <time>2016-10-30T09:05:50.000Z</time>
      </trkpt>
      <trkpt lat="47.86879" lon="2.13044">
        <ele>109</ele>
        <time>2016-10-30T09:05:51.000Z</time>
      </trkpt>
      <trkpt lat="47.86881" lon="2.13039">
        <ele>109</ele>
        <time>2016-10-30T09:05:52.000Z</time>
      </trkpt>
      <trkpt lat="47.86883" lon="2.13034">
        <ele>109</ele>
        <time>2016-10-30T09:05:53.000Z</time>
      </trkpt>
      <trkpt lat="47.86885" lon="2.13029">
        <ele>109</ele>
        <time>2016-10-30T09:05:54.000Z</time>
      </trkpt>
      <trkpt lat="47.86886" lon="2.13024">
        <ele>110</ele>
        <time>2016-10-30T09:05:55.000Z</time>
      </trkpt>
      <trkpt lat="47.86888" lon="2.13018">
        <ele>110</ele>
        <time>2016-10-30T09:05:56.000Z</time>
      </trkpt>
      <trkpt lat="47.8689" lon="2.13013">
        <ele>110</ele>
        <time>2016-10-30T09:05:57.000Z</time>
      </trkpt>
      <trkpt lat="47.86892" lon="2.13007">
        <ele>110</ele>
        <time>2016-10-30T09:05:58.000Z</time>
      </trkpt>
      <trkpt lat="47.86894" lon="2.13001">
        <ele>109</ele>
        <time>2016-10-30T09:05:59.000Z</time>
      </trkpt>
      <trkpt lat="47.86897" lon="2.12996">
        <ele>110</ele>
        <time>2016-10-30T09:06:00.000Z</time>
      </trkpt>
      <trkpt lat="47.86899" lon="2.12991">
        <ele>110</ele>
        <time>2016-10-30T09:06:01.000Z</time>
      </trkpt>
      <trkpt lat="47.86901" lon="2.12986">
        <ele>109</ele>
        <time>2016-10-30T09:06:02.000Z</time>
      </trkpt>
      <trkpt lat="47.86904" lon="2.12981">
        <ele>109</ele>
        <time>2016-10-30T09:06:03.000Z</time>
      </trkpt>
      <trkpt lat="47.86907" lon="2.12977">
        <ele>109</ele>
        <time>2016-10-30T09:06:04.000Z</time>
      </trkpt>
      <trkpt lat="47.8691" lon="2.12973">
        <ele>108</ele>
        <time>2016-10-30T09:06:05.000Z</time>
      </trkpt>
      <trkpt lat="47.86912" lon="2.12968">
        <ele>109</ele>
        <time>2016-10-30T09:06:06.000Z</time>
      </trkpt>
      <trkpt lat="47.86915" lon="2.12963">
        <ele>109</ele>
        <time>2016-10-30T09:06:07.000Z</time>
      </trkpt>
      <trkpt lat="47.86917" lon="2.12957">
        <ele>108</ele>
        <time>2016-10-30T09:06:08.000Z</time>
      </trkpt>
      <trkpt lat="47.8692" lon="2.12951">
        <ele>108</ele>
        <time>2016-10-30T09:06:09.000Z</time>
      </trkpt>
      <trkpt lat="47.86922" lon="2.12944">
        <ele>108</ele>
        <time>2016-10-30T09:06:10.000Z</time>
      </trkpt>
      <trkpt lat="47.86924" lon="2.12938">
        <ele>108</ele>
        <time>2016-10-30T09:06:11.000Z</time>
      </trkpt>
      <trkpt lat="47.86927" lon="2.12932">
        <ele>108</ele>
        <time>2016-10-30T09:06:12.000Z</time>
      </trkpt>
      <trkpt lat="47.86929" lon="2.12926">
        <ele>108</ele>
        <time>2016-10-30T09:06:13.000Z</time>
      </trkpt>
      <trkpt lat="47.86931" lon="2.1292">
        <ele>108</ele>
        <time>2016-10-30T09:06:14.000Z</time>
      </trkpt>
      <trkpt lat="47.86933" lon="2.12914">
        <ele>108</ele>
        <time>2016-10-30T09:06:15.000Z</time>
      </trkpt>
      <trkpt lat="47.86936" lon="2.12907">
        <ele>107</ele>
        <time>2016-10-30T09:06:16.000Z</time>
      </trkpt>
      <trkpt lat="47.86938" lon="2.12901">
        <ele>108</ele>
        <time>2016-10-30T09:06:17.000Z</time>
      </trkpt>
      <trkpt lat="47.86939" lon="2.12894">
        <ele>108</ele>
        <time>2016-10-30T09:06:18.000Z</time>
      </trkpt>
      <trkpt lat="47.86941" lon="2.12888">
        <ele>109</ele>
        <time>2016-10-30T09:06:19.000Z</time>
      </trkpt>
      <trkpt lat="47.86942" lon="2.12881">
        <ele>109</ele>
        <time>2016-10-30T09:06:20.000Z</time>
      </trkpt>
      <trkpt lat="47.86944" lon="2.12874">
        <ele>109</ele>
        <time>2016-10-30T09:06:21.000Z</time>
      </trkpt>
      <trkpt lat="47.86946" lon="2.12868">
        <ele>109</ele>
        <time>2016-10-30T09:06:22.000Z</time>
      </trkpt>
      <trkpt lat="47.86948" lon="2.12861">
        <ele>109</ele>
        <time>2016-10-30T09:06:23.000Z</time>
      </trkpt>
      <trkpt lat="47.86949" lon="2.12855">
        <ele>109</ele>
        <time>2016-10-30T09:06:24.000Z</time>
      </trkpt>
      <trkpt lat="47.86951" lon="2.12849">
        <ele>109</ele>
        <time>2016-10-30T09:06:25.000Z</time>
      </trkpt>
      <trkpt lat="47.86953" lon="2.12842">
        <ele>109</ele>
        <time>2016-10-30T09:06:26.000Z</time>
      </trkpt>
      <trkpt lat="47.86955" lon="2.12836">
        <ele>109</ele>
        <time>2016-10-30T09:06:27.000Z</time>
      </trkpt>
      <trkpt lat="47.86958" lon="2.1283">
        <ele>109</ele>
        <time>2016-10-30T09:06:28.000Z</time>
      </trkpt>
      <trkpt lat="47.8696" lon="2.12824">
        <ele>109</ele>
        <time>2016-10-30T09:06:29.000Z</time>
      </trkpt>
      <trkpt lat="47.86963" lon="2.12818">
        <ele>109</ele>
        <time>2016-10-30T09:06:30.000Z</time>
      </trkpt>
      <trkpt lat="47.86966" lon="2.12813">
        <ele>108</ele>
        <time>2016-10-30T09:06:31.000Z</time>
      </trkpt>
      <trkpt lat="47.86968" lon="2.12807">
        <ele>108</ele>
        <time>2016-10-30T09:06:32.000Z</time>
      </trkpt>
      <trkpt lat="47.86971" lon="2.12801">
        <ele>108</ele>
        <time>2016-10-30T09:06:33.000Z</time>
      </trkpt>
      <trkpt lat="47.86974" lon="2.12795">
        <ele>108</ele>
        <time>2016-10-30T09:06:34.000Z</time>
      </trkpt>
      <trkpt lat="47.86978" lon="2.1279">
        <ele>109</ele>
        <time>2016-10-30T09:06:35.000Z</time>
      </trkpt>
      <trkpt lat="47.86981" lon="2.12784">
        <ele>108</ele>
        <time>2016-10-30T09:06:36.000Z</time>
      </trkpt>
      <trkpt lat="47.86984" lon="2.12778">
        <ele>108</ele>
        <time>2016-10-30T09:06:37.000Z</time>
      </trkpt>
      <trkpt lat="47.86988" lon="2.12772">
        <ele>109</ele>
        <time>2016-10-30T09:06:38.000Z</time>
      </trkpt>
      <trkpt lat="47.8699" lon="2.12766">
        <ele>108</ele>
        <time>2016-10-30T09:06:39.000Z</time>
      </trkpt>
      <trkpt lat="47.86993" lon="2.12759">
        <ele>108</ele>
        <time>2016-10-30T09:06:40.000Z</time>
      </trkpt>
      <trkpt lat="47.86995" lon="2.12753">
        <ele>108</ele>
        <time>2016-10-30T09:06:41.000Z</time>
      </trkpt>
      <trkpt lat="47.86998" lon="2.12746">
        <ele>108</ele>
        <time>2016-10-30T09:06:42.000Z</time>
      </trkpt>
      <trkpt lat="47.87" lon="2.1274">
        <ele>108</ele>
        <time>2016-10-30T09:06:43.000Z</time>
      </trkpt>
      <trkpt lat="47.87002" lon="2.12734">
        <ele>108</ele>
        <time>2016-10-30T09:06:44.000Z</time>
      </trkpt>
      <trkpt lat="47.87004" lon="2.12728">
        <ele>108</ele>
        <time>2016-10-30T09:06:45.000Z</time>
      </trkpt>
      <trkpt lat="47.87006" lon="2.12722">
        <ele>108</ele>
        <time>2016-10-30T09:06:46.000Z</time>
      </trkpt>
      <trkpt lat="47.87008" lon="2.12716">
        <ele>108</ele>
        <time>2016-10-30T09:06:47.000Z</time>
      </trkpt>
      <trkpt lat="47.8701" lon="2.12711">
        <ele>108</ele>
        <time>2016-10-30T09:06:48.000Z</time>
      </trkpt>
      <trkpt lat="47.87012" lon="2.12706">
        <ele>108</ele>
        <time>2016-10-30T09:06:49.000Z</time>
      </trkpt>
      <trkpt lat="47.87014" lon="2.12701">
        <ele>108</ele>
        <time>2016-10-30T09:06:50.000Z</time>
      </trkpt>
      <trkpt lat="47.87016" lon="2.12696">
        <ele>108</ele>
        <time>2016-10-30T09:06:51.000Z</time>
      </trkpt>
      <trkpt lat="47.87018" lon="2.12691">
        <ele>109</ele>
        <time>2016-10-30T09:06:52.000Z</time>
      </trkpt>
      <trkpt lat="47.87019" lon="2.12686">
        <ele>108</ele>
        <time>2016-10-30T09:06:53.000Z</time>
      </trkpt>
      <trkpt lat="47.87019" lon="2.12681">
        <ele>107</ele>
        <time>2016-10-30T09:06:54.000Z</time>
      </trkpt>
      <trkpt lat="47.8702" lon="2.12678">
        <ele>103</ele>
        <time>2016-10-30T09:06:55.000Z</time>
      </trkpt>
      <trkpt lat="47.87021" lon="2.12674">
        <ele>103</ele>
        <time>2016-10-30T09:06:56.000Z</time>
      </trkpt>
      <trkpt lat="47.87022" lon="2.12669">
        <ele>104</ele>
        <time>2016-10-30T09:06:57.000Z</time>
      </trkpt>
      <trkpt lat="47.87023" lon="2.12664">
        <ele>105</ele>
        <time>2016-10-30T09:06:58.000Z</time>
      </trkpt>
      <trkpt lat="47.87024" lon="2.12658">
        <ele>105</ele>
        <time>2016-10-30T09:06:59.000Z</time>
      </trkpt>
      <trkpt lat="47.87026" lon="2.12652">
        <ele>104</ele>
        <time>2016-10-30T09:07:00.000Z</time>
      </trkpt>
      <trkpt lat="47.87027" lon="2.12647">
        <ele>104</ele>
        <time>2016-10-30T09:07:01.000Z</time>
      </trkpt>
      <trkpt lat="47.87028" lon="2.12641">
        <ele>104</ele>
        <time>2016-10-30T09:07:02.000Z</time>
      </trkpt>
      <trkpt lat="47.8703" lon="2.12636">
        <ele>104</ele>
        <time>2016-10-30T09:07:03.000Z</time>
      </trkpt>
      <trkpt lat="47.87031" lon="2.1263">
        <ele>104</ele>
        <time>2016-10-30T09:07:04.000Z</time>
      </trkpt>
      <trkpt lat="47.87032" lon="2.12624">
        <ele>104</ele>
        <time>2016-10-30T09:07:05.000Z</time>
      </trkpt>
      <trkpt lat="47.87033" lon="2.12618">
        <ele>105</ele>
        <time>2016-10-30T09:07:06.000Z</time>
      </trkpt>
      <trkpt lat="47.87034" lon="2.12612">
        <ele>105</ele>
        <time>2016-10-30T09:07:07.000Z</time>
      </trkpt>
      <trkpt lat="47.87034" lon="2.12606">
        <ele>104</ele>
        <time>2016-10-30T09:07:08.000Z</time>
      </trkpt>
      <trkpt lat="47.87035" lon="2.12601">
        <ele>104</ele>
        <time>2016-10-30T09:07:09.000Z</time>
      </trkpt>
      <trkpt lat="47.87035" lon="2.12597">
        <ele>104</ele>
        <time>2016-10-30T09:07:10.000Z</time>
      </trkpt>
      <trkpt lat="47.87033" lon="2.12593">
        <ele>105</ele>
        <time>2016-10-30T09:07:11.000Z</time>
      </trkpt>
      <trkpt lat="47.87031" lon="2.12591">
        <ele>105</ele>
        <time>2016-10-30T09:07:12.000Z</time>
      </trkpt>
      <trkpt lat="47.87028" lon="2.1259">
        <ele>103</ele>
        <time>2016-10-30T09:07:13.000Z</time>
      </trkpt>
      <trkpt lat="47.87024" lon="2.12588">
        <ele>103</ele>
        <time>2016-10-30T09:07:14.000Z</time>
      </trkpt>
      <trkpt lat="47.8702" lon="2.12586">
        <ele>103</ele>
        <time>2016-10-30T09:07:15.000Z</time>
      </trkpt>
      <trkpt lat="47.87016" lon="2.12583">
        <ele>103</ele>
        <time>2016-10-30T09:07:16.000Z</time>
      </trkpt>
      <trkpt lat="47.87012" lon="2.12581">
        <ele>103</ele>
        <time>2016-10-30T09:07:17.000Z</time>
      </trkpt>
      <trkpt lat="47.87008" lon="2.12578">
        <ele>103</ele>
        <time>2016-10-30T09:07:18.000Z</time>
      </trkpt>
      <trkpt lat="47.87004" lon="2.12576">
        <ele>103</ele>
        <time>2016-10-30T09:07:19.000Z</time>
      </trkpt>
      <trkpt lat="47.87" lon="2.12573">
        <ele>103</ele>
        <time>2016-10-30T09:07:20.000Z</time>
      </trkpt>
      <trkpt lat="47.86996" lon="2.12571">
        <ele>103</ele>
        <time>2016-10-30T09:07:21.000Z</time>
      </trkpt>
      <trkpt lat="47.86991" lon="2.12568">
        <ele>103</ele>
        <time>2016-10-30T09:07:22.000Z</time>
      </trkpt>
      <trkpt lat="47.86987" lon="2.12566">
        <ele>103</ele>
        <time>2016-10-30T09:07:23.000Z</time>
      </trkpt>
      <trkpt lat="47.86982" lon="2.12563">
        <ele>103</ele>
        <time>2016-10-30T09:07:24.000Z</time>
      </trkpt>
      <trkpt lat="47.86977" lon="2.1256">
        <ele>103</ele>
        <time>2016-10-30T09:07:25.000Z</time>
      </trkpt>
      <trkpt lat="47.86973" lon="2.12558">
        <ele>103</ele>
        <time>2016-10-30T09:07:26.000Z</time>
      </trkpt>
      <trkpt lat="47.86968" lon="2.12555">
        <ele>104</ele>
        <time>2016-10-30T09:07:27.000Z</time>
      </trkpt>
      <trkpt lat="47.86963" lon="2.12552">
        <ele>104</ele>
        <time>2016-10-30T09:07:28.000Z</time>
      </trkpt>
      <trkpt lat="47.86958" lon="2.12549">
        <ele>105</ele>
        <time>2016-10-30T09:07:29.000Z</time>
      </trkpt>
      <trkpt lat="47.86954" lon="2.12546">
        <ele>105</ele>
        <time>2016-10-30T09:07:30.000Z</time>
      </trkpt>
      <trkpt lat="47.86949" lon="2.12543">
        <ele>105</ele>
        <time>2016-10-30T09:07:31.000Z</time>
      </trkpt>
      <trkpt lat="47.86944" lon="2.1254">
        <ele>105</ele>
        <time>2016-10-30T09:07:32.000Z</time>
      </trkpt>
      <trkpt lat="47.86939" lon="2.12538">
        <ele>105</ele>
        <time>2016-10-30T09:07:33.000Z</time>
      </trkpt>
      <trkpt lat="47.86935" lon="2.12535">
        <ele>106</ele>
        <time>2016-10-30T09:07:34.000Z</time>
      </trkpt>
      <trkpt lat="47.8693" lon="2.12532">
        <ele>106</ele>
        <time>2016-10-30T09:07:35.000Z</time>
      </trkpt>
      <trkpt lat="47.86926" lon="2.1253">
        <ele>106</ele>
        <time>2016-10-30T09:07:36.000Z</time>
      </trkpt>
      <trkpt lat="47.86921" lon="2.12527">
        <ele>106</ele>
        <time>2016-10-30T09:07:37.000Z</time>
      </trkpt>
      <trkpt lat="47.86917" lon="2.12524">
        <ele>106</ele>
        <time>2016-10-30T09:07:38.000Z</time>
      </trkpt>
      <trkpt lat="47.86912" lon="2.12522">
        <ele>106</ele>
        <time>2016-10-30T09:07:39.000Z</time>
      </trkpt>
      <trkpt lat="47.86907" lon="2.12519">
        <ele>106</ele>
        <time>2016-10-30T09:07:40.000Z</time>
      </trkpt>
      <trkpt lat="47.86903" lon="2.12516">
        <ele>106</ele>
        <time>2016-10-30T09:07:41.000Z</time>
      </trkpt>
      <trkpt lat="47.86899" lon="2.12514">
        <ele>106</ele>
        <time>2016-10-30T09:07:42.000Z</time>
      </trkpt>
      <trkpt lat="47.86895" lon="2.12511">
        <ele>106</ele>
        <time>2016-10-30T09:07:43.000Z</time>
      </trkpt>
      <trkpt lat="47.86891" lon="2.12509">
        <ele>106</ele>
        <time>2016-10-30T09:07:44.000Z</time>
      </trkpt>
      <trkpt lat="47.86886" lon="2.12506">
        <ele>106</ele>
        <time>2016-10-30T09:07:45.000Z</time>
      </trkpt>
      <trkpt lat="47.86882" lon="2.12504">
        <ele>106</ele>
        <time>2016-10-30T09:07:46.000Z</time>
      </trkpt>
      <trkpt lat="47.86878" lon="2.12502">
        <ele>106</ele>
        <time>2016-10-30T09:07:47.000Z</time>
      </trkpt>
      <trkpt lat="47.86874" lon="2.12499">
        <ele>106</ele>
        <time>2016-10-30T09:07:48.000Z</time>
      </trkpt>
      <trkpt lat="47.8687" lon="2.12497">
        <ele>106</ele>
        <time>2016-10-30T09:07:49.000Z</time>
      </trkpt>
      <trkpt lat="47.86866" lon="2.12495">
        <ele>106</ele>
        <time>2016-10-30T09:07:50.000Z</time>
      </trkpt>
      <trkpt lat="47.86862" lon="2.12492">
        <ele>106</ele>
        <time>2016-10-30T09:07:51.000Z</time>
      </trkpt>
      <trkpt lat="47.86859" lon="2.1249">
        <ele>107</ele>
        <time>2016-10-30T09:07:52.000Z</time>
      </trkpt>
      <trkpt lat="47.86856" lon="2.12489">
        <ele>107</ele>
        <time>2016-10-30T09:07:53.000Z</time>
      </trkpt>
      <trkpt lat="47.86854" lon="2.12487">
        <ele>106</ele>
        <time>2016-10-30T09:07:54.000Z</time>
      </trkpt>
      <trkpt lat="47.86853" lon="2.12486">
        <ele>106</ele>
        <time>2016-10-30T09:07:55.000Z</time>
      </trkpt>
      <trkpt lat="47.86851" lon="2.12486">
        <ele>106</ele>
        <time>2016-10-30T09:07:56.000Z</time>
      </trkpt>
      <trkpt lat="47.8685" lon="2.12485">
        <ele>106</ele>
        <time>2016-10-30T09:07:57.000Z</time>
      </trkpt>
      <trkpt lat="47.86849" lon="2.12484">
        <ele>106</ele>
        <time>2016-10-30T09:07:58.000Z</time>
      </trkpt>
      <trkpt lat="47.86847" lon="2.12483">
        <ele>106</ele>
        <time>2016-10-30T09:07:59.000Z</time>
      </trkpt>
      <trkpt lat="47.86846" lon="2.12483">
        <ele>106</ele>
        <time>2016-10-30T09:08:00.000Z</time>
      </trkpt>
      <trkpt lat="47.86845" lon="2.12482">
        <ele>106</ele>
        <time>2016-10-30T09:08:01.000Z</time>
      </trkpt>
      <trkpt lat="47.86843" lon="2.12481">
        <ele>107</ele>
        <time>2016-10-30T09:08:02.000Z</time>
      </trkpt>
      <trkpt lat="47.86842" lon="2.1248">
        <ele>107</ele>
        <time>2016-10-30T09:08:03.000Z</time>
      </trkpt>
      <trkpt lat="47.86841" lon="2.12479">
        <ele>106</ele>
        <time>2016-10-30T09:08:04.000Z</time>
      </trkpt>
      <trkpt lat="47.8684" lon="2.12478">
        <ele>106</ele>
        <time>2016-10-30T09:08:05.000Z</time>
      </trkpt>
      <trkpt lat="47.86838" lon="2.12477">
        <ele>107</ele>
        <time>2016-10-30T09:08:06.000Z</time>
      </trkpt>
      <trkpt lat="47.86837" lon="2.12477">
        <ele>107</ele>
        <time>2016-10-30T09:08:07.000Z</time>
      </trkpt>
      <trkpt lat="47.86835" lon="2.12476">
        <ele>106</ele>
        <time>2016-10-30T09:08:08.000Z</time>
      </trkpt>
      <trkpt lat="47.86833" lon="2.12475">
        <ele>107</ele>
        <time>2016-10-30T09:08:09.000Z</time>
      </trkpt>
      <trkpt lat="47.86831" lon="2.12473">
        <ele>107</ele>
        <time>2016-10-30T09:08:10.000Z</time>
      </trkpt>
      <trkpt lat="47.86829" lon="2.12472">
        <ele>106</ele>
        <time>2016-10-30T09:08:11.000Z</time>
      </trkpt>
      <trkpt lat="47.86826" lon="2.12471">
        <ele>106</ele>
        <time>2016-10-30T09:08:12.000Z</time>
      </trkpt>
      <trkpt lat="47.86823" lon="2.12469">
        <ele>106</ele>
        <time>2016-10-30T09:08:13.000Z</time>
      </trkpt>
      <trkpt lat="47.86819" lon="2.12467">
        <ele>106</ele>
        <time>2016-10-30T09:08:14.000Z</time>
      </trkpt>
      <trkpt lat="47.86815" lon="2.12465">
        <ele>106</ele>
        <time>2016-10-30T09:08:15.000Z</time>
      </trkpt>
      <trkpt lat="47.86811" lon="2.12462">
        <ele>105</ele>
        <time>2016-10-30T09:08:16.000Z</time>
      </trkpt>
      <trkpt lat="47.86807" lon="2.1246">
        <ele>105</ele>
        <time>2016-10-30T09:08:17.000Z</time>
      </trkpt>
      <trkpt lat="47.86803" lon="2.12457">
        <ele>105</ele>
        <time>2016-10-30T09:08:18.000Z</time>
      </trkpt>
      <trkpt lat="47.86799" lon="2.12455">
        <ele>105</ele>
        <time>2016-10-30T09:08:19.000Z</time>
      </trkpt>
      <trkpt lat="47.86795" lon="2.12453">
        <ele>105</ele>
        <time>2016-10-30T09:08:20.000Z</time>
      </trkpt>
      <trkpt lat="47.8679" lon="2.1245">
        <ele>105</ele>
        <time>2016-10-30T09:08:21.000Z</time>
      </trkpt>
      <trkpt lat="47.86786" lon="2.12447">
        <ele>105</ele>
        <time>2016-10-30T09:08:22.000Z</time>
      </trkpt>
      <trkpt lat="47.86781" lon="2.12445">
        <ele>105</ele>
        <time>2016-10-30T09:08:23.000Z</time>
      </trkpt>
      <trkpt lat="47.86777" lon="2.12442">
        <ele>105</ele>
        <time>2016-10-30T09:08:24.000Z</time>
      </trkpt>
      <trkpt lat="47.86773" lon="2.1244">
        <ele>105</ele>
        <time>2016-10-30T09:08:25.000Z</time>
      </trkpt>
      <trkpt lat="47.86769" lon="2.12438">
        <ele>105</ele>
        <time>2016-10-30T09:08:26.000Z</time>
      </trkpt>
      <trkpt lat="47.86766" lon="2.12436">
        <ele>105</ele>
        <time>2016-10-30T09:08:27.000Z</time>
      </trkpt>
      <trkpt lat="47.86764" lon="2.12435">
        <ele>105</ele>
        <time>2016-10-30T09:08:28.000Z</time>
      </trkpt>
      <trkpt lat="47.86763" lon="2.12435">
        <ele>105</ele>
        <time>2016-10-30T09:08:29.000Z</time>
      </trkpt>
      <trkpt lat="47.86762" lon="2.12434">
        <ele>105</ele>
        <time>2016-10-30T09:08:30.000Z</time>
      </trkpt>
      <trkpt lat="47.86761" lon="2.12434">
        <ele>105</ele>
        <time>2016-10-30T09:08:31.000Z</time>
      </trkpt>
      <trkpt lat="47.8676" lon="2.12434">
        <ele>105</ele>
        <time>2016-10-30T09:08:32.000Z</time>
      </trkpt>
      <trkpt lat="47.86758" lon="2.12434">
        <ele>105</ele>
        <time>2016-10-30T09:08:33.000Z</time>
      </trkpt>
      <trkpt lat="47.86755" lon="2.12433">
        <ele>104</ele>
        <time>2016-10-30T09:08:34.000Z</time>
      </trkpt>
      <trkpt lat="47.86753" lon="2.12432">
        <ele>104</ele>
        <time>2016-10-30T09:08:35.000Z</time>
      </trkpt>
      <trkpt lat="47.8675" lon="2.12431">
        <ele>104</ele>
        <time>2016-10-30T09:08:36.000Z</time>
      </trkpt>
      <trkpt lat="47.86748" lon="2.12429">
        <ele>103</ele>
        <time>2016-10-30T09:08:37.000Z</time>
      </trkpt>
      <trkpt lat="47.86746" lon="2.12427">
        <ele>103</ele>
        <time>2016-10-30T09:08:38.000Z</time>
      </trkpt>
      <trkpt lat="47.86745" lon="2.12425">
        <ele>103</ele>
        <time>2016-10-30T09:08:39.000Z</time>
      </trkpt>
      <trkpt lat="47.86744" lon="2.12423">
        <ele>103</ele>
        <time>2016-10-30T09:08:40.000Z</time>
      </trkpt>
      <trkpt lat="47.86743" lon="2.1242">
        <ele>102</ele>
        <time>2016-10-30T09:08:41.000Z</time>
      </trkpt>
      <trkpt lat="47.86741" lon="2.12417">
        <ele>102</ele>
        <time>2016-10-30T09:08:42.000Z</time>
      </trkpt>
      <trkpt lat="47.8674" lon="2.12414">
        <ele>102</ele>
        <time>2016-10-30T09:08:43.000Z</time>
      </trkpt>
      <trkpt lat="47.86739" lon="2.1241">
        <ele>101</ele>
        <time>2016-10-30T09:08:44.000Z</time>
      </trkpt>
      <trkpt lat="47.86738" lon="2.12406">
        <ele>100</ele>
        <time>2016-10-30T09:08:45.000Z</time>
      </trkpt>
      <trkpt lat="47.86736" lon="2.12402">
        <ele>100</ele>
        <time>2016-10-30T09:08:46.000Z</time>
      </trkpt>
      <trkpt lat="47.86735" lon="2.12399">
        <ele>100</ele>
        <time>2016-10-30T09:08:47.000Z</time>
      </trkpt>
      <trkpt lat="47.86733" lon="2.12395">
        <ele>100</ele>
        <time>2016-10-30T09:08:48.000Z</time>
      </trkpt>
      <trkpt lat="47.86732" lon="2.12393">
        <ele>99</ele>
        <time>2016-10-30T09:08:49.000Z</time>
      </trkpt>
      <trkpt lat="47.8673" lon="2.1239">
        <ele>100</ele>
        <time>2016-10-30T09:08:50.000Z</time>
      </trkpt>
      <trkpt lat="47.86727" lon="2.12388">
        <ele>100</ele>
        <time>2016-10-30T09:08:51.000Z</time>
      </trkpt>
      <trkpt lat="47.86723" lon="2.12385">
        <ele>103</ele>
        <time>2016-10-30T09:08:52.000Z</time>
      </trkpt>
      <trkpt lat="47.86719" lon="2.12382">
        <ele>103</ele>
        <time>2016-10-30T09:08:53.000Z</time>
      </trkpt>
      <trkpt lat="47.86715" lon="2.12379">
        <ele>103</ele>
        <time>2016-10-30T09:08:54.000Z</time>
      </trkpt>
      <trkpt lat="47.86711" lon="2.12378">
        <ele>104</ele>
        <time>2016-10-30T09:08:55.000Z</time>
      </trkpt>
      <trkpt lat="47.86708" lon="2.12378">
        <ele>104</ele>
        <time>2016-10-30T09:08:56.000Z</time>
      </trkpt>
      <trkpt lat="47.86705" lon="2.12377">
        <ele>105</ele>
        <time>2016-10-30T09:08:57.000Z</time>
      </trkpt>
      <trkpt lat="47.86703" lon="2.12376">
        <ele>105</ele>
        <time>2016-10-30T09:08:58.000Z</time>
      </trkpt>
      <trkpt lat="47.86701" lon="2.12375">
        <ele>106</ele>
        <time>2016-10-30T09:08:59.000Z</time>
      </trkpt>
      <trkpt lat="47.86698" lon="2.12374">
        <ele>106</ele>
        <time>2016-10-30T09:09:00.000Z</time>
      </trkpt>
      <trkpt lat="47.86695" lon="2.12373">
        <ele>107</ele>
        <time>2016-10-30T09:09:01.000Z</time>
      </trkpt>
      <trkpt lat="47.86692" lon="2.12371">
        <ele>107</ele>
        <time>2016-10-30T09:09:02.000Z</time>
      </trkpt>
      <trkpt lat="47.86689" lon="2.12369">
        <ele>106</ele>
        <time>2016-10-30T09:09:03.000Z</time>
      </trkpt>
      <trkpt lat="47.86686" lon="2.12366">
        <ele>106</ele>
        <time>2016-10-30T09:09:04.000Z</time>
      </trkpt>
      <trkpt lat="47.86683" lon="2.12364">
        <ele>107</ele>
        <time>2016-10-30T09:09:05.000Z</time>
      </trkpt>
      <trkpt lat="47.86679" lon="2.12362">
        <ele>107</ele>
        <time>2016-10-30T09:09:06.000Z</time>
      </trkpt>
      <trkpt lat="47.86676" lon="2.1236">
        <ele>107</ele>
        <time>2016-10-30T09:09:07.000Z</time>
      </trkpt>
      <trkpt lat="47.86672" lon="2.12358">
        <ele>107</ele>
        <time>2016-10-30T09:09:08.000Z</time>
      </trkpt>
      <trkpt lat="47.86669" lon="2.12355">
        <ele>108</ele>
        <time>2016-10-30T09:09:09.000Z</time>
      </trkpt>
      <trkpt lat="47.86665" lon="2.12352">
        <ele>108</ele>
        <time>2016-10-30T09:09:10.000Z</time>
      </trkpt>
      <trkpt lat="47.86661" lon="2.1235">
        <ele>109</ele>
        <time>2016-10-30T09:09:11.000Z</time>
      </trkpt>
      <trkpt lat="47.86658" lon="2.12347">
        <ele>109</ele>
        <time>2016-10-30T09:09:12.000Z</time>
      </trkpt>
      <trkpt lat="47.86654" lon="2.12345">
        <ele>108</ele>
        <time>2016-10-30T09:09:13.000Z</time>
      </trkpt>
      <trkpt lat="47.86651" lon="2.12343">
        <ele>108</ele>
        <time>2016-10-30T09:09:14.000Z</time>
      </trkpt>
      <trkpt lat="47.86648" lon="2.1234">
        <ele>108</ele>
        <time>2016-10-30T09:09:15.000Z</time>
      </trkpt>
      <trkpt lat="47.86644" lon="2.12338">
        <ele>108</ele>
        <time>2016-10-30T09:09:16.000Z</time>
      </trkpt>
      <trkpt lat="47.86641" lon="2.12336">
        <ele>109</ele>
        <time>2016-10-30T09:09:17.000Z</time>
      </trkpt>
      <trkpt lat="47.86638" lon="2.12334">
        <ele>109</ele>
        <time>2016-10-30T09:09:18.000Z</time>
      </trkpt>
      <trkpt lat="47.86635" lon="2.12332">
        <ele>109</ele>
        <time>2016-10-30T09:09:19.000Z</time>
      </trkpt>
      <trkpt lat="47.86631" lon="2.1233">
        <ele>109</ele>
        <time>2016-10-30T09:09:20.000Z</time>
      </trkpt>
      <trkpt lat="47.86628" lon="2.12328">
        <ele>109</ele>
        <time>2016-10-30T09:09:21.000Z</time>
      </trkpt>
      <trkpt lat="47.86625" lon="2.12326">
        <ele>107</ele>
        <time>2016-10-30T09:09:22.000Z</time>
      </trkpt>
      <trkpt lat="47.86622" lon="2.12324">
        <ele>104</ele>
        <time>2016-10-30T09:09:23.000Z</time>
      </trkpt>
      <trkpt lat="47.86619" lon="2.12321">
        <ele>104</ele>
        <time>2016-10-30T09:09:24.000Z</time>
      </trkpt>
      <trkpt lat="47.86616" lon="2.12318">
        <ele>104</ele>
        <time>2016-10-30T09:09:25.000Z</time>
      </trkpt>
      <trkpt lat="47.86614" lon="2.12315">
        <ele>102</ele>
        <time>2016-10-30T09:09:26.000Z</time>
      </trkpt>
      <trkpt lat="47.86613" lon="2.12313">
        <ele>101</ele>
        <time>2016-10-30T09:09:27.000Z</time>
      </trkpt>
      <trkpt lat="47.86613" lon="2.1231">
        <ele>102</ele>
        <time>2016-10-30T09:09:28.000Z</time>
      </trkpt>
      <trkpt lat="47.86613" lon="2.12308">
        <ele>102</ele>
        <time>2016-10-30T09:09:29.000Z</time>
      </trkpt>
      <trkpt lat="47.86612" lon="2.12306">
        <ele>102</ele>
        <time>2016-10-30T09:09:30.000Z</time>
      </trkpt>
      <trkpt lat="47.86611" lon="2.12304">
        <ele>103</ele>
        <time>2016-10-30T09:09:31.000Z</time>
      </trkpt>
      <trkpt lat="47.8661" lon="2.12303">
        <ele>102</ele>
        <time>2016-10-30T09:09:32.000Z</time>
      </trkpt>
      <trkpt lat="47.8661" lon="2.12302">
        <ele>101</ele>
        <time>2016-10-30T09:09:33.000Z</time>
      </trkpt>
      <trkpt lat="47.86609" lon="2.12301">
        <ele>101</ele>
        <time>2016-10-30T09:09:34.000Z</time>
      </trkpt>
      <trkpt lat="47.86608" lon="2.12299">
        <ele>101</ele>
        <time>2016-10-30T09:09:35.000Z</time>
      </trkpt>
      <trkpt lat="47.86608" lon="2.12296">
        <ele>101</ele>
        <time>2016-10-30T09:09:36.000Z</time>
      </trkpt>
      <trkpt lat="47.86607" lon="2.12294">
        <ele>101</ele>
        <time>2016-10-30T09:09:37.000Z</time>
      </trkpt>
      <trkpt lat="47.86607" lon="2.12291">
        <ele>101</ele>
        <time>2016-10-30T09:09:38.000Z</time>
      </trkpt>
      <trkpt lat="47.86607" lon="2.12289">
        <ele>101</ele>
        <time>2016-10-30T09:09:39.000Z</time>
      </trkpt>
      <trkpt lat="47.86607" lon="2.12287">
        <ele>103</ele>
        <time>2016-10-30T09:09:40.000Z</time>
      </trkpt>
      <trkpt lat="47.86608" lon="2.12285">
        <ele>103</ele>
        <time>2016-10-30T09:09:41.000Z</time>
      </trkpt>
      <trkpt lat="47.86608" lon="2.12283">
        <ele>103</ele>
        <time>2016-10-30T09:09:42.000Z</time>
      </trkpt>
      <trkpt lat="47.86609" lon="2.12281">
        <ele>103</ele>
        <time>2016-10-30T09:09:43.000Z</time>
      </trkpt>
      <trkpt lat="47.86609" lon="2.1228">
        <ele>103</ele>
        <time>2016-10-30T09:09:44.000Z</time>
      </trkpt>
      <trkpt lat="47.86609" lon="2.12279">
        <ele>104</ele>
        <time>2016-10-30T09:09:45.000Z</time>
      </trkpt>
      <trkpt lat="47.86609" lon="2.12278">
        <ele>104</ele>
        <time>2016-10-30T09:09:46.000Z</time>
      </trkpt>
      <trkpt lat="47.86609" lon="2.12277">
        <ele>103</ele>
        <time>2016-10-30T09:09:47.000Z</time>
      </trkpt>
      <trkpt lat="47.86608" lon="2.12276">
        <ele>102</ele>
        <time>2016-10-30T09:09:48.000Z</time>
      </trkpt>
      <trkpt lat="47.86608" lon="2.12275">
        <ele>102</ele>
        <time>2016-10-30T09:09:49.000Z</time>
      </trkpt>
      <trkpt lat="47.86607" lon="2.12274">
        <ele>103</ele>
        <time>2016-10-30T09:09:50.000Z</time>
      </trkpt>
      <trkpt lat="47.86606" lon="2.12273">
        <ele>104</ele>
        <time>2016-10-30T09:09:51.000Z</time>
      </trkpt>
      <trkpt lat="47.86606" lon="2.12272">
        <ele>104</ele>
        <time>2016-10-30T09:09:52.000Z</time>
      </trkpt>
      <trkpt lat="47.86605" lon="2.12271">
        <ele>103</ele>
        <time>2016-10-30T09:09:53.000Z</time>
      </trkpt>
      <trkpt lat="47.86605" lon="2.12271">
        <ele>104</ele>
        <time>2016-10-30T09:09:54.000Z</time>
      </trkpt>
      <trkpt lat="47.86604" lon="2.1227">
        <ele>105</ele>
        <time>2016-10-30T09:09:55.000Z</time>
      </trkpt>
      <trkpt lat="47.86604" lon="2.12269">
        <ele>106</ele>
        <time>2016-10-30T09:09:56.000Z</time>
      </trkpt>
      <trkpt lat="47.86603" lon="2.12269">
        <ele>106</ele>
        <time>2016-10-30T09:09:57.000Z</time>
      </trkpt>
      <trkpt lat="47.86603" lon="2.12269">
        <ele>107</ele>
        <time>2016-10-30T09:09:58.000Z</time>
      </trkpt>
      <trkpt lat="47.86602" lon="2.12268">
        <ele>108</ele>
        <time>2016-10-30T09:09:59.000Z</time>
      </trkpt>
      <trkpt lat="47.86602" lon="2.12268">
        <ele>109</ele>
        <time>2016-10-30T09:10:00.000Z</time>
      </trkpt>
      <trkpt lat="47.86601" lon="2.12267">
        <ele>109</ele>
        <time>2016-10-30T09:10:01.000Z</time>
      </trkpt>
      <trkpt lat="47.86601" lon="2.12267">
        <ele>110</ele>
        <time>2016-10-30T09:10:02.000Z</time>
      </trkpt>
      <trkpt lat="47.86601" lon="2.12267">
        <ele>110</ele>
        <time>2016-10-30T09:10:03.000Z</time>
      </trkpt>
      <trkpt lat="47.86601" lon="2.12266">
        <ele>111</ele>
        <time>2016-10-30T09:10:04.000Z</time>
      </trkpt>
      <trkpt lat="47.866" lon="2.12266">
        <ele>111</ele>
        <time>2016-10-30T09:10:05.000Z</time>
      </trkpt>
      <trkpt lat="47.866" lon="2.12266">
        <ele>111</ele>
        <time>2016-10-30T09:10:06.000Z</time>
      </trkpt>
      <trkpt lat="47.866" lon="2.12265">
        <ele>112</ele>
        <time>2016-10-30T09:10:07.000Z</time>
      </trkpt>
      <trkpt lat="47.86599" lon="2.12265">
        <ele>112</ele>
        <time>2016-10-30T09:10:08.000Z</time>
      </trkpt>
      <trkpt lat="47.86599" lon="2.12265">
        <ele>113</ele>
        <time>2016-10-30T09:10:09.000Z</time>
      </trkpt>
      <trkpt lat="47.86599" lon="2.12264">
        <ele>113</ele>
        <time>2016-10-30T09:10:10.000Z</time>
      </trkpt>
      <trkpt lat="47.86598" lon="2.12264">
        <ele>114</ele>
        <time>2016-10-30T09:10:11.000Z</time>
      </trkpt>
      <trkpt lat="47.86598" lon="2.12264">
        <ele>114</ele>
        <time>2016-10-30T09:10:12.000Z</time>
      </trkpt>
      <trkpt lat="47.86598" lon="2.12263">
        <ele>114</ele>
        <time>2016-10-30T09:10:13.000Z</time>
      </trkpt>
      <trkpt lat="47.86597" lon="2.12263">
        <ele>114</ele>
        <time>2016-10-30T09:10:14.000Z</time>
      </trkpt>
      <trkpt lat="47.86597" lon="2.12262">
        <ele>115</ele>
        <time>2016-10-30T09:10:15.000Z</time>
      </trkpt>
      <trkpt lat="47.86597" lon="2.12262">
        <ele>115</ele>
        <time>2016-10-30T09:10:16.000Z</time>
      </trkpt>
      <trkpt lat="47.86597" lon="2.12262">
        <ele>115</ele>
        <time>2016-10-30T09:10:17.000Z</time>
      </trkpt>
      <trkpt lat="47.86597" lon="2.12261">
        <ele>115</ele>
        <time>2016-10-30T09:10:18.000Z</time>
      </trkpt>
      <trkpt lat="47.86597" lon="2.12261">
        <ele>116</ele>
        <time>2016-10-30T09:10:19.000Z</time>
      </trkpt>
      <trkpt lat="47.86597" lon="2.12261">
        <ele>116</ele>
        <time>2016-10-30T09:10:20.000Z</time>
      </trkpt>
      <trkpt lat="47.86596" lon="2.12261">
        <ele>116</ele>
        <time>2016-10-30T09:10:21.000Z</time>
      </trkpt>
      <trkpt lat="47.86596" lon="2.12261">
        <ele>116</ele>
        <time>2016-10-30T09:10:22.000Z</time>
      </trkpt>
      <trkpt lat="47.86596" lon="2.1226">
        <ele>117</ele>
        <time>2016-10-30T09:10:23.000Z</time>
      </trkpt>
      <trkpt lat="47.86596" lon="2.1226">
        <ele>117</ele>
        <time>2016-10-30T09:10:24.000Z</time>
      </trkpt>
      <trkpt lat="47.86595" lon="2.1226">
        <ele>117</ele>
        <time>2016-10-30T09:10:25.000Z</time>
      </trkpt>
      <trkpt lat="47.86595" lon="2.1226">
        <ele>117</ele>
        <time>2016-10-30T09:10:26.000Z</time>
      </trkpt>
      <trkpt lat="47.86595" lon="2.12259">
        <ele>116</ele>
        <time>2016-10-30T09:10:27.000Z</time>
      </trkpt>
      <trkpt lat="47.86595" lon="2.12259">
        <ele>116</ele>
        <time>2016-10-30T09:10:28.000Z</time>
      </trkpt>
      <trkpt lat="47.86595" lon="2.12258">
        <ele>115</ele>
        <time>2016-10-30T09:10:29.000Z</time>
      </trkpt>
      <trkpt lat="47.86595" lon="2.12257">
        <ele>115</ele>
        <time>2016-10-30T09:10:30.000Z</time>
      </trkpt>
      <trkpt lat="47.86595" lon="2.12257">
        <ele>115</ele>
        <time>2016-10-30T09:10:31.000Z</time>
      </trkpt>
      <trkpt lat="47.86595" lon="2.12257">
        <ele>115</ele>
        <time>2016-10-30T09:10:32.000Z</time>
      </trkpt>
      <trkpt lat="47.86595" lon="2.12256">
        <ele>115</ele>
        <time>2016-10-30T09:10:33.000Z</time>
      </trkpt>
      <trkpt lat="47.86595" lon="2.12256">
        <ele>115</ele>
        <time>2016-10-30T09:10:34.000Z</time>
      </trkpt>
      <trkpt lat="47.86595" lon="2.12256">
        <ele>115</ele>
        <time>2016-10-30T09:10:35.000Z</time>
      </trkpt>
      <trkpt lat="47.86595" lon="2.12256">
        <ele>115</ele>
        <time>2016-10-30T09:10:36.000Z</time>
      </trkpt>
      <trkpt lat="47.86595" lon="2.12256">
        <ele>115</ele>
        <time>2016-10-30T09:10:37.000Z</time>
      </trkpt>
      <trkpt lat="47.86595" lon="2.12256">
        <ele>114</ele>
        <time>2016-10-30T09:10:38.000Z</time>
      </trkpt>
      <trkpt lat="47.86595" lon="2.12256">
        <ele>114</ele>
        <time>2016-10-30T09:10:39.000Z</time>
      </trkpt>
      <trkpt lat="47.86595" lon="2.12256">
        <ele>114</ele>
        <time>2016-10-30T09:10:40.000Z</time>
      </trkpt>
      <trkpt lat="47.86595" lon="2.12255">
        <ele>113</ele>
        <time>2016-10-30T09:10:41.000Z</time>
      </trkpt>
      <trkpt lat="47.86595" lon="2.12255">
        <ele>113</ele>
        <time>2016-10-30T09:10:42.000Z</time>
      </trkpt>
      <trkpt lat="47.86595" lon="2.12255">
        <ele>112</ele>
        <time>2016-10-30T09:10:43.000Z</time>
      </trkpt>
      <trkpt lat="47.86595" lon="2.12254">
        <ele>112</ele>
        <time>2016-10-30T09:10:44.000Z</time>
      </trkpt>
      <trkpt lat="47.86595" lon="2.12254">
        <ele>111</ele>
        <time>2016-10-30T09:10:45.000Z</time>
      </trkpt>
      <trkpt lat="47.86594" lon="2.12254">
        <ele>111</ele>
        <time>2016-10-30T09:10:46.000Z</time>
      </trkpt>
      <trkpt lat="47.86594" lon="2.12254">
        <ele>111</ele>
        <time>2016-10-30T09:10:47.000Z</time>
      </trkpt>
      <trkpt lat="47.86594" lon="2.12254">
        <ele>111</ele>
        <time>2016-10-30T09:10:48.000Z</time>
      </trkpt>
      <trkpt lat="47.86594" lon="2.12254">
        <ele>112</ele>
        <time>2016-10-30T09:10:49.000Z</time>
      </trkpt>
      <trkpt lat="47.86594" lon="2.12254">
        <ele>112</ele>
        <time>2016-10-30T09:10:50.000Z</time>
      </trkpt>
      <trkpt lat="47.86594" lon="2.12254">
        <ele>112</ele>
        <time>2016-10-30T09:10:51.000Z</time>
      </trkpt>
      <trkpt lat="47.86594" lon="2.12254">
        <ele>113</ele>
        <time>2016-10-30T09:10:52.000Z</time>
      </trkpt>
      <trkpt lat="47.86594" lon="2.12254">
        <ele>114</ele>
        <time>2016-10-30T09:10:53.000Z</time>
      </trkpt>
      <trkpt lat="47.86594" lon="2.12254">
        <ele>114</ele>
        <time>2016-10-30T09:10:54.000Z</time>
      </trkpt>
      <trkpt lat="47.86594" lon="2.12254">
        <ele>115</ele>
        <time>2016-10-30T09:10:55.000Z</time>
      </trkpt>
      <trkpt lat="47.86594" lon="2.12254">
        <ele>115</ele>
        <time>2016-10-30T09:10:56.000Z</time>
      </trkpt>
      <trkpt lat="47.86594" lon="2.12254">
        <ele>116</ele>
        <time>2016-10-30T09:10:57.000Z</time>
      </trkpt>
      <trkpt lat="47.86594" lon="2.12254">
        <ele>116</ele>
        <time>2016-10-30T09:10:58.000Z</time>
      </trkpt>
      <trkpt lat="47.86594" lon="2.12254">
        <ele>116</ele>
        <time>2016-10-30T09:10:59.000Z</time>
      </trkpt>
      <trkpt lat="47.86594" lon="2.12254">
        <ele>116</ele>
        <time>2016-10-30T09:11:00.000Z</time>
      </trkpt>
      <trkpt lat="47.86594" lon="2.12255">
        <ele>116</ele>
        <time>2016-10-30T09:11:01.000Z</time>
      </trkpt>
      <trkpt lat="47.86594" lon="2.12255">
        <ele>116</ele>
        <time>2016-10-30T09:11:02.000Z</time>
      </trkpt>
      <trkpt lat="47.86594" lon="2.12255">
        <ele>116</ele>
        <time>2016-10-30T09:11:03.000Z</time>
      </trkpt>
      <trkpt lat="47.86594" lon="2.12255">
        <ele>116</ele>
        <time>2016-10-30T09:11:04.000Z</time>
      </trkpt>
      <trkpt lat="47.86595" lon="2.12255">
        <ele>116</ele>
        <time>2016-10-30T09:11:05.000Z</time>
      </trkpt>
      <trkpt lat="47.86595" lon="2.12256">
        <ele>116</ele>
        <time>2016-10-30T09:11:06.000Z</time>
      </trkpt>
      <trkpt lat="47.86595" lon="2.12256">
        <ele>116</ele>
        <time>2016-10-30T09:11:07.000Z</time>
      </trkpt>
      <trkpt lat="47.86595" lon="2.12256">
        <ele>116</ele>
        <time>2016-10-30T09:11:08.000Z</time>
      </trkpt>
      <trkpt lat="47.86595" lon="2.12256">
        <ele>117</ele>
        <time>2016-10-30T09:11:09.000Z</time>
      </trkpt>
      <trkpt lat="47.86595" lon="2.12257">
        <ele>117</ele>
        <time>2016-10-30T09:11:10.000Z</time>
      </trkpt>
      <trkpt lat="47.86595" lon="2.12257">
        <ele>117</ele>
        <time>2016-10-30T09:11:11.000Z</time>
      </trkpt>
      <trkpt lat="47.86595" lon="2.12257">
        <ele>118</ele>
        <time>2016-10-30T09:11:12.000Z</time>
      </trkpt>
      <trkpt lat="47.86595" lon="2.12257">
        <ele>118</ele>
        <time>2016-10-30T09:11:13.000Z</time>
      </trkpt>
      <trkpt lat="47.86595" lon="2.12257">
        <ele>118</ele>
        <time>2016-10-30T09:11:14.000Z</time>
      </trkpt>
      <trkpt lat="47.86595" lon="2.12257">
        <ele>118</ele>
        <time>2016-10-30T09:11:15.000Z</time>
      </trkpt>
      <trkpt lat="47.86595" lon="2.12257">
        <ele>119</ele>
        <time>2016-10-30T09:11:16.000Z</time>
      </trkpt>
      <trkpt lat="47.86595" lon="2.12257">
        <ele>120</ele>
        <time>2016-10-30T09:11:17.000Z</time>
      </trkpt>
      <trkpt lat="47.86595" lon="2.12257">
        <ele>120</ele>
        <time>2016-10-30T09:11:18.000Z</time>
      </trkpt>
      <trkpt lat="47.86595" lon="2.12257">
        <ele>120</ele>
        <time>2016-10-30T09:11:19.000Z</time>
      </trkpt>
      <trkpt lat="47.86595" lon="2.12258">
        <ele>121</ele>
        <time>2016-10-30T09:11:20.000Z</time>
      </trkpt>
      <trkpt lat="47.86595" lon="2.12258">
        <ele>122</ele>
        <time>2016-10-30T09:11:21.000Z</time>
      </trkpt>
      <trkpt lat="47.86595" lon="2.12258">
        <ele>122</ele>
        <time>2016-10-30T09:11:22.000Z</time>
      </trkpt>
      <trkpt lat="47.86596" lon="2.12258">
        <ele>123</ele>
        <time>2016-10-30T09:11:23.000Z</time>
      </trkpt>
      <trkpt lat="47.86596" lon="2.12258">
        <ele>123</ele>
        <time>2016-10-30T09:11:24.000Z</time>
      </trkpt>
      <trkpt lat="47.86596" lon="2.12258">
        <ele>123</ele>
        <time>2016-10-30T09:11:25.000Z</time>
      </trkpt>
      <trkpt lat="47.86596" lon="2.12258">
        <ele>123</ele>
        <time>2016-10-30T09:11:26.000Z</time>
      </trkpt>
      <trkpt lat="47.86596" lon="2.12258">
        <ele>123</ele>
        <time>2016-10-30T09:11:27.000Z</time>
      </trkpt>
      <trkpt lat="47.86596" lon="2.12258">
        <ele>124</ele>
        <time>2016-10-30T09:11:28.000Z</time>
      </trkpt>
      <trkpt lat="47.86596" lon="2.12258">
        <ele>124</ele>
        <time>2016-10-30T09:11:29.000Z</time>
      </trkpt>
      <trkpt lat="47.86596" lon="2.12258">
        <ele>124</ele>
        <time>2016-10-30T09:11:30.000Z</time>
      </trkpt>
      <trkpt lat="47.86596" lon="2.12258">
        <ele>124</ele>
        <time>2016-10-30T09:11:31.000Z</time>
      </trkpt>
      <trkpt lat="47.86596" lon="2.12258">
        <ele>124</ele>
        <time>2016-10-30T09:11:32.000Z</time>
      </trkpt>
      <trkpt lat="47.86596" lon="2.12257">
        <ele>124</ele>
        <time>2016-10-30T09:11:33.000Z</time>
      </trkpt>
      <trkpt lat="47.86596" lon="2.12257">
        <ele>124</ele>
        <time>2016-10-30T09:11:34.000Z</time>
      </trkpt>
      <trkpt lat="47.86596" lon="2.12257">
        <ele>124</ele>
        <time>2016-10-30T09:11:35.000Z</time>
      </trkpt>
      <trkpt lat="47.86596" lon="2.12257">
        <ele>124</ele>
        <time>2016-10-30T09:11:36.000Z</time>
      </trkpt>
      <trkpt lat="47.86596" lon="2.12256">
        <ele>124</ele>
        <time>2016-10-30T09:11:37.000Z</time>
      </trkpt>
      <trkpt lat="47.86596" lon="2.12256">
        <ele>123</ele>
        <time>2016-10-30T09:11:38.000Z</time>
      </trkpt>
      <trkpt lat="47.86597" lon="2.12256">
        <ele>123</ele>
        <time>2016-10-30T09:11:39.000Z</time>
      </trkpt>
      <trkpt lat="47.86597" lon="2.12256">
        <ele>123</ele>
        <time>2016-10-30T09:11:40.000Z</time>
      </trkpt>
      <trkpt lat="47.86597" lon="2.12256">
        <ele>123</ele>
        <time>2016-10-30T09:11:41.000Z</time>
      </trkpt>
      <trkpt lat="47.86597" lon="2.12255">
        <ele>123</ele>
        <time>2016-10-30T09:11:42.000Z</time>
      </trkpt>
      <trkpt lat="47.86597" lon="2.12255">
        <ele>123</ele>
        <time>2016-10-30T09:11:43.000Z</time>
      </trkpt>
      <trkpt lat="47.86597" lon="2.12255">
        <ele>123</ele>
        <time>2016-10-30T09:11:44.000Z</time>
      </trkpt>
      <trkpt lat="47.86597" lon="2.12255">
        <ele>123</ele>
        <time>2016-10-30T09:11:45.000Z</time>
      </trkpt>
      <trkpt lat="47.86597" lon="2.12255">
        <ele>122</ele>
        <time>2016-10-30T09:11:46.000Z</time>
      </trkpt>
      <trkpt lat="47.86597" lon="2.12255">
        <ele>122</ele>
        <time>2016-10-30T09:11:47.000Z</time>
      </trkpt>
      <trkpt lat="47.86597" lon="2.12255">
        <ele>122</ele>
        <time>2016-10-30T09:11:48.000Z</time>
      </trkpt>
      <trkpt lat="47.86597" lon="2.12255">
        <ele>122</ele>
        <time>2016-10-30T09:11:49.000Z</time>
      </trkpt>
      <trkpt lat="47.86597" lon="2.12255">
        <ele>122</ele>
        <time>2016-10-30T09:11:50.000Z</time>
      </trkpt>
      <trkpt lat="47.86597" lon="2.12255">
        <ele>122</ele>
        <time>2016-10-30T09:11:51.000Z</time>
      </trkpt>
      <trkpt lat="47.86597" lon="2.12255">
        <ele>122</ele>
        <time>2016-10-30T09:11:52.000Z</time>
      </trkpt>
      <trkpt lat="47.86597" lon="2.12255">
        <ele>121</ele>
        <time>2016-10-30T09:11:53.000Z</time>
      </trkpt>
      <trkpt lat="47.86597" lon="2.12255">
        <ele>121</ele>
        <time>2016-10-30T09:11:54.000Z</time>
      </trkpt>
      <trkpt lat="47.86597" lon="2.12256">
        <ele>121</ele>
        <time>2016-10-30T09:11:55.000Z</time>
      </trkpt>
      <trkpt lat="47.86597" lon="2.12256">
        <ele>121</ele>
        <time>2016-10-30T09:11:56.000Z</time>
      </trkpt>
      <trkpt lat="47.86597" lon="2.12256">
        <ele>120</ele>
        <time>2016-10-30T09:11:57.000Z</time>
      </trkpt>
      <trkpt lat="47.86597" lon="2.12257">
        <ele>120</ele>
        <time>2016-10-30T09:11:58.000Z</time>
      </trkpt>
      <trkpt lat="47.86597" lon="2.12257">
        <ele>120</ele>
        <time>2016-10-30T09:11:59.000Z</time>
      </trkpt>
      <trkpt lat="47.86597" lon="2.12258">
        <ele>119</ele>
        <time>2016-10-30T09:12:00.000Z</time>
      </trkpt>
      <trkpt lat="47.86597" lon="2.12258">
        <ele>119</ele>
        <time>2016-10-30T09:12:01.000Z</time>
      </trkpt>
      <trkpt lat="47.86598" lon="2.12258">
        <ele>118</ele>
        <time>2016-10-30T09:12:02.000Z</time>
      </trkpt>
      <trkpt lat="47.86598" lon="2.12259">
        <ele>118</ele>
        <time>2016-10-30T09:12:03.000Z</time>
      </trkpt>
      <trkpt lat="47.86598" lon="2.12259">
        <ele>116</ele>
        <time>2016-10-30T09:12:04.000Z</time>
      </trkpt>
      <trkpt lat="47.86599" lon="2.1226">
        <ele>115</ele>
        <time>2016-10-30T09:12:05.000Z</time>
      </trkpt>
      <trkpt lat="47.866" lon="2.1226">
        <ele>115</ele>
        <time>2016-10-30T09:12:06.000Z</time>
      </trkpt>
      <trkpt lat="47.866" lon="2.1226">
        <ele>115</ele>
        <time>2016-10-30T09:12:07.000Z</time>
      </trkpt>
      <trkpt lat="47.866" lon="2.1226">
        <ele>115</ele>
        <time>2016-10-30T09:12:08.000Z</time>
      </trkpt>
      <trkpt lat="47.86601" lon="2.12259">
        <ele>114</ele>
        <time>2016-10-30T09:12:09.000Z</time>
      </trkpt>
      <trkpt lat="47.86601" lon="2.12259">
        <ele>114</ele>
        <time>2016-10-30T09:12:10.000Z</time>
      </trkpt>
      <trkpt lat="47.86601" lon="2.12258">
        <ele>114</ele>
        <time>2016-10-30T09:12:11.000Z</time>
      </trkpt>
      <trkpt lat="47.86601" lon="2.12258">
        <ele>114</ele>
        <time>2016-10-30T09:12:12.000Z</time>
      </trkpt>
      <trkpt lat="47.86601" lon="2.12258">
        <ele>115</ele>
        <time>2016-10-30T09:12:13.000Z</time>
      </trkpt>
      <trkpt lat="47.86601" lon="2.12258">
        <ele>115</ele>
        <time>2016-10-30T09:12:14.000Z</time>
      </trkpt>
      <trkpt lat="47.866" lon="2.12258">
        <ele>115</ele>
        <time>2016-10-30T09:12:15.000Z</time>
      </trkpt>
      <trkpt lat="47.866" lon="2.12258">
        <ele>116</ele>
        <time>2016-10-30T09:12:16.000Z</time>
      </trkpt>
      <trkpt lat="47.866" lon="2.12258">
        <ele>116</ele>
        <time>2016-10-30T09:12:17.000Z</time>
      </trkpt>
      <trkpt lat="47.866" lon="2.12258">
        <ele>116</ele>
        <time>2016-10-30T09:12:18.000Z</time>
      </trkpt>
      <trkpt lat="47.866" lon="2.12258">
        <ele>117</ele>
        <time>2016-10-30T09:12:19.000Z</time>
      </trkpt>
      <trkpt lat="47.86601" lon="2.12257">
        <ele>117</ele>
        <time>2016-10-30T09:12:20.000Z</time>
      </trkpt>
      <trkpt lat="47.86601" lon="2.12257">
        <ele>117</ele>
        <time>2016-10-30T09:12:21.000Z</time>
      </trkpt>
      <trkpt lat="47.86601" lon="2.12257">
        <ele>117</ele>
        <time>2016-10-30T09:12:22.000Z</time>
      </trkpt>
      <trkpt lat="47.86601" lon="2.12257">
        <ele>118</ele>
        <time>2016-10-30T09:12:23.000Z</time>
      </trkpt>
      <trkpt lat="47.86601" lon="2.12257">
        <ele>118</ele>
        <time>2016-10-30T09:12:24.000Z</time>
      </trkpt>
      <trkpt lat="47.86601" lon="2.12257">
        <ele>118</ele>
        <time>2016-10-30T09:12:25.000Z</time>
      </trkpt>
      <trkpt lat="47.86601" lon="2.12257">
        <ele>119</ele>
        <time>2016-10-30T09:12:26.000Z</time>
      </trkpt>
      <trkpt lat="47.86601" lon="2.12256">
        <ele>119</ele>
        <time>2016-10-30T09:12:27.000Z</time>
      </trkpt>
      <trkpt lat="47.86601" lon="2.12256">
        <ele>119</ele>
        <time>2016-10-30T09:12:28.000Z</time>
      </trkpt>
      <trkpt lat="47.86601" lon="2.12256">
        <ele>118</ele>
        <time>2016-10-30T09:12:29.000Z</time>
      </trkpt>
      <trkpt lat="47.86601" lon="2.12256">
        <ele>118</ele>
        <time>2016-10-30T09:12:30.000Z</time>
      </trkpt>
      <trkpt lat="47.86601" lon="2.12256">
        <ele>118</ele>
        <time>2016-10-30T09:12:31.000Z</time>
      </trkpt>
      <trkpt lat="47.86601" lon="2.12255">
        <ele>117</ele>
        <time>2016-10-30T09:12:32.000Z</time>
      </trkpt>
      <trkpt lat="47.86601" lon="2.12255">
        <ele>117</ele>
        <time>2016-10-30T09:12:33.000Z</time>
      </trkpt>
      <trkpt lat="47.86601" lon="2.12255">
        <ele>117</ele>
        <time>2016-10-30T09:12:34.000Z</time>
      </trkpt>
      <trkpt lat="47.86601" lon="2.12255">
        <ele>117</ele>
        <time>2016-10-30T09:12:35.000Z</time>
      </trkpt>
      <trkpt lat="47.86601" lon="2.12255">
        <ele>117</ele>
        <time>2016-10-30T09:12:36.000Z</time>
      </trkpt>
      <trkpt lat="47.866" lon="2.12254">
        <ele>117</ele>
        <time>2016-10-30T09:12:37.000Z</time>
      </trkpt>
      <trkpt lat="47.866" lon="2.12254">
        <ele>117</ele>
        <time>2016-10-30T09:12:38.000Z</time>
      </trkpt>
      <trkpt lat="47.866" lon="2.12254">
        <ele>117</ele>
        <time>2016-10-30T09:12:39.000Z</time>
      </trkpt>
      <trkpt lat="47.866" lon="2.12254">
        <ele>117</ele>
        <time>2016-10-30T09:12:40.000Z</time>
      </trkpt>
      <trkpt lat="47.866" lon="2.12254">
        <ele>117</ele>
        <time>2016-10-30T09:12:41.000Z</time>
      </trkpt>
      <trkpt lat="47.866" lon="2.12254">
        <ele>117</ele>
        <time>2016-10-30T09:12:42.000Z</time>
      </trkpt>
      <trkpt lat="47.866" lon="2.12254">
        <ele>117</ele>
        <time>2016-10-30T09:12:43.000Z</time>
      </trkpt>
      <trkpt lat="47.866" lon="2.12254">
        <ele>117</ele>
        <time>2016-10-30T09:12:44.000Z</time>
      </trkpt>
      <trkpt lat="47.866" lon="2.12254">
        <ele>117</ele>
        <time>2016-10-30T09:12:45.000Z</time>
      </trkpt>
      <trkpt lat="47.866" lon="2.12254">
        <ele>117</ele>
        <time>2016-10-30T09:12:46.000Z</time>
      </trkpt>
      <trkpt lat="47.866" lon="2.12254">
        <ele>117</ele>
        <time>2016-10-30T09:12:47.000Z</time>
      </trkpt>
      <trkpt lat="47.866" lon="2.12253">
        <ele>117</ele>
        <time>2016-10-30T09:12:48.000Z</time>
      </trkpt>
      <trkpt lat="47.866" lon="2.12253">
        <ele>118</ele>
        <time>2016-10-30T09:12:49.000Z</time>
      </trkpt>
      <trkpt lat="47.866" lon="2.12253">
        <ele>118</ele>
        <time>2016-10-30T09:12:50.000Z</time>
      </trkpt>
      <trkpt lat="47.866" lon="2.12253">
        <ele>118</ele>
        <time>2016-10-30T09:12:51.000Z</time>
      </trkpt>
      <trkpt lat="47.866" lon="2.12252">
        <ele>118</ele>
        <time>2016-10-30T09:12:52.000Z</time>
      </trkpt>
      <trkpt lat="47.866" lon="2.12252">
        <ele>118</ele>
        <time>2016-10-30T09:12:53.000Z</time>
      </trkpt>
      <trkpt lat="47.866" lon="2.12252">
        <ele>118</ele>
        <time>2016-10-30T09:12:54.000Z</time>
      </trkpt>
      <trkpt lat="47.866" lon="2.12252">
        <ele>118</ele>
        <time>2016-10-30T09:12:55.000Z</time>
      </trkpt>
      <trkpt lat="47.86601" lon="2.12252">
        <ele>118</ele>
        <time>2016-10-30T09:12:56.000Z</time>
      </trkpt>
      <trkpt lat="47.86601" lon="2.12252">
        <ele>118</ele>
        <time>2016-10-30T09:12:57.000Z</time>
      </trkpt>
      <trkpt lat="47.86601" lon="2.12252">
        <ele>118</ele>
        <time>2016-10-30T09:12:58.000Z</time>
      </trkpt>
      <trkpt lat="47.86601" lon="2.12252">
        <ele>118</ele>
        <time>2016-10-30T09:12:59.000Z</time>
      </trkpt>
      <trkpt lat="47.86601" lon="2.12251">
        <ele>118</ele>
        <time>2016-10-30T09:13:00.000Z</time>
      </trkpt>
      <trkpt lat="47.86601" lon="2.12251">
        <ele>118</ele>
        <time>2016-10-30T09:13:01.000Z</time>
      </trkpt>
      <trkpt lat="47.86602" lon="2.12251">
        <ele>118</ele>
        <time>2016-10-30T09:13:02.000Z</time>
      </trkpt>
      <trkpt lat="47.86602" lon="2.12251">
        <ele>118</ele>
        <time>2016-10-30T09:13:03.000Z</time>
      </trkpt>
      <trkpt lat="47.86602" lon="2.1225">
        <ele>117</ele>
        <time>2016-10-30T09:13:04.000Z</time>
      </trkpt>
      <trkpt lat="47.86602" lon="2.1225">
        <ele>117</ele>
        <time>2016-10-30T09:13:05.000Z</time>
      </trkpt>
      <trkpt lat="47.86603" lon="2.1225">
        <ele>117</ele>
        <time>2016-10-30T09:13:06.000Z</time>
      </trkpt>
      <trkpt lat="47.86603" lon="2.1225">
        <ele>117</ele>
        <time>2016-10-30T09:13:07.000Z</time>
      </trkpt>
      <trkpt lat="47.86603" lon="2.1225">
        <ele>117</ele>
        <time>2016-10-30T09:13:08.000Z</time>
      </trkpt>
      <trkpt lat="47.86603" lon="2.1225">
        <ele>117</ele>
        <time>2016-10-30T09:13:09.000Z</time>
      </trkpt>
      <trkpt lat="47.86604" lon="2.1225">
        <ele>118</ele>
        <time>2016-10-30T09:13:10.000Z</time>
      </trkpt>
      <trkpt lat="47.86604" lon="2.1225">
        <ele>118</ele>
        <time>2016-10-30T09:13:11.000Z</time>
      </trkpt>
      <trkpt lat="47.86604" lon="2.1225">
        <ele>118</ele>
        <time>2016-10-30T09:13:12.000Z</time>
      </trkpt>
      <trkpt lat="47.86604" lon="2.1225">
        <ele>118</ele>
        <time>2016-10-30T09:13:13.000Z</time>
      </trkpt>
      <trkpt lat="47.86604" lon="2.1225">
        <ele>118</ele>
        <time>2016-10-30T09:13:14.000Z</time>
      </trkpt>
      <trkpt lat="47.86604" lon="2.1225">
        <ele>118</ele>
        <time>2016-10-30T09:13:15.000Z</time>
      </trkpt>
      <trkpt lat="47.86604" lon="2.1225">
        <ele>118</ele>
        <time>2016-10-30T09:13:16.000Z</time>
      </trkpt>
      <trkpt lat="47.86604" lon="2.1225">
        <ele>118</ele>
        <time>2016-10-30T09:13:17.000Z</time>
      </trkpt>
      <trkpt lat="47.86604" lon="2.1225">
        <ele>118</ele>
        <time>2016-10-30T09:13:18.000Z</time>
      </trkpt>
      <trkpt lat="47.86604" lon="2.1225">
        <ele>118</ele>
        <time>2016-10-30T09:13:19.000Z</time>
      </trkpt>
      <trkpt lat="47.86604" lon="2.1225">
        <ele>118</ele>
        <time>2016-10-30T09:13:20.000Z</time>
      </trkpt>
      <trkpt lat="47.86604" lon="2.12249">
        <ele>118</ele>
        <time>2016-10-30T09:13:21.000Z</time>
      </trkpt>
      <trkpt lat="47.86604" lon="2.12249">
        <ele>118</ele>
        <time>2016-10-30T09:13:22.000Z</time>
      </trkpt>
      <trkpt lat="47.86604" lon="2.12249">
        <ele>118</ele>
        <time>2016-10-30T09:13:23.000Z</time>
      </trkpt>
      <trkpt lat="47.86604" lon="2.12249">
        <ele>117</ele>
        <time>2016-10-30T09:13:24.000Z</time>
      </trkpt>
      <trkpt lat="47.86604" lon="2.12249">
        <ele>117</ele>
        <time>2016-10-30T09:13:25.000Z</time>
      </trkpt>
      <trkpt lat="47.86604" lon="2.12249">
        <ele>116</ele>
        <time>2016-10-30T09:13:26.000Z</time>
      </trkpt>
      <trkpt lat="47.86604" lon="2.12249">
        <ele>116</ele>
        <time>2016-10-30T09:13:27.000Z</time>
      </trkpt>
      <trkpt lat="47.86604" lon="2.12249">
        <ele>116</ele>
        <time>2016-10-30T09:13:28.000Z</time>
      </trkpt>
      <trkpt lat="47.86604" lon="2.12248">
        <ele>116</ele>
        <time>2016-10-30T09:13:29.000Z</time>
      </trkpt>
      <trkpt lat="47.86604" lon="2.12248">
        <ele>115</ele>
        <time>2016-10-30T09:13:30.000Z</time>
      </trkpt>
      <trkpt lat="47.86604" lon="2.12248">
        <ele>115</ele>
        <time>2016-10-30T09:13:31.000Z</time>
      </trkpt>
      <trkpt lat="47.86604" lon="2.12248">
        <ele>115</ele>
        <time>2016-10-30T09:13:32.000Z</time>
      </trkpt>
      <trkpt lat="47.86604" lon="2.12248">
        <ele>115</ele>
        <time>2016-10-30T09:13:33.000Z</time>
      </trkpt>
      <trkpt lat="47.86604" lon="2.12248">
        <ele>115</ele>
        <time>2016-10-30T09:13:34.000Z</time>
      </trkpt>
      <trkpt lat="47.86603" lon="2.12249">
        <ele>115</ele>
        <time>2016-10-30T09:13:35.000Z</time>
      </trkpt>
      <trkpt lat="47.86603" lon="2.12249">
        <ele>114</ele>
        <time>2016-10-30T09:13:36.000Z</time>
      </trkpt>
      <trkpt lat="47.86603" lon="2.12249">
        <ele>114</ele>
        <time>2016-10-30T09:13:37.000Z</time>
      </trkpt>
      <trkpt lat="47.86603" lon="2.12249">
        <ele>114</ele>
        <time>2016-10-30T09:13:38.000Z</time>
      </trkpt>
      <trkpt lat="47.86603" lon="2.12249">
        <ele>114</ele>
        <time>2016-10-30T09:13:39.000Z</time>
      </trkpt>
      <trkpt lat="47.86603" lon="2.12249">
        <ele>113</ele>
        <time>2016-10-30T09:13:40.000Z</time>
      </trkpt>
      <trkpt lat="47.86603" lon="2.12249">
        <ele>113</ele>
        <time>2016-10-30T09:13:41.000Z</time>
      </trkpt>
      <trkpt lat="47.86603" lon="2.12249">
        <ele>113</ele>
        <time>2016-10-30T09:13:42.000Z</time>
      </trkpt>
      <trkpt lat="47.86603" lon="2.12249">
        <ele>113</ele>
        <time>2016-10-30T09:13:43.000Z</time>
      </trkpt>
      <trkpt lat="47.86603" lon="2.12249">
        <ele>113</ele>
        <time>2016-10-30T09:13:44.000Z</time>
      </trkpt>
      <trkpt lat="47.86603" lon="2.12249">
        <ele>113</ele>
        <time>2016-10-30T09:13:45.000Z</time>
      </trkpt>
      <trkpt lat="47.86602" lon="2.12249">
        <ele>112</ele>
        <time>2016-10-30T09:13:46.000Z</time>
      </trkpt>
      <trkpt lat="47.86603" lon="2.12249">
        <ele>112</ele>
        <time>2016-10-30T09:13:47.000Z</time>
      </trkpt>
      <trkpt lat="47.86603" lon="2.1225">
        <ele>111</ele>
        <time>2016-10-30T09:13:48.000Z</time>
      </trkpt>
      <trkpt lat="47.86604" lon="2.1225">
        <ele>109</ele>
        <time>2016-10-30T09:13:49.000Z</time>
      </trkpt>
      <trkpt lat="47.86605" lon="2.12251">
        <ele>110</ele>
        <time>2016-10-30T09:13:50.000Z</time>
      </trkpt>
      <trkpt lat="47.86606" lon="2.12251">
        <ele>110</ele>
        <time>2016-10-30T09:13:51.000Z</time>
      </trkpt>
      <trkpt lat="47.86606" lon="2.1225">
        <ele>110</ele>
        <time>2016-10-30T09:13:52.000Z</time>
      </trkpt>
      <trkpt lat="47.86607" lon="2.1225">
        <ele>109</ele>
        <time>2016-10-30T09:13:53.000Z</time>
      </trkpt>
      <trkpt lat="47.86608" lon="2.12251">
        <ele>107</ele>
        <time>2016-10-30T09:13:54.000Z</time>
      </trkpt>
      <trkpt lat="47.8661" lon="2.12252">
        <ele>104</ele>
        <time>2016-10-30T09:13:55.000Z</time>
      </trkpt>
      <trkpt lat="47.86612" lon="2.12254">
        <ele>104</ele>
        <time>2016-10-30T09:13:56.000Z</time>
      </trkpt>
      <trkpt lat="47.86613" lon="2.12255">
        <ele>103</ele>
        <time>2016-10-30T09:13:57.000Z</time>
      </trkpt>
      <trkpt lat="47.86615" lon="2.12256">
        <ele>104</ele>
        <time>2016-10-30T09:13:58.000Z</time>
      </trkpt>
      <trkpt lat="47.86616" lon="2.12257">
        <ele>105</ele>
        <time>2016-10-30T09:13:59.000Z</time>
      </trkpt>
      <trkpt lat="47.86617" lon="2.12256">
        <ele>105</ele>
        <time>2016-10-30T09:14:00.000Z</time>
      </trkpt>
      <trkpt lat="47.86618" lon="2.12255">
        <ele>105</ele>
        <time>2016-10-30T09:14:01.000Z</time>
      </trkpt>
      <trkpt lat="47.86619" lon="2.12253">
        <ele>105</ele>
        <time>2016-10-30T09:14:02.000Z</time>
      </trkpt>
      <trkpt lat="47.8662" lon="2.12251">
        <ele>106</ele>
        <time>2016-10-30T09:14:03.000Z</time>
      </trkpt>
      <trkpt lat="47.8662" lon="2.1225">
        <ele>106</ele>
        <time>2016-10-30T09:14:04.000Z</time>
      </trkpt>
      <trkpt lat="47.86621" lon="2.12248">
        <ele>105</ele>
        <time>2016-10-30T09:14:05.000Z</time>
      </trkpt>
      <trkpt lat="47.86623" lon="2.12246">
        <ele>105</ele>
        <time>2016-10-30T09:14:06.000Z</time>
      </trkpt>
      <trkpt lat="47.86624" lon="2.12243">
        <ele>105</ele>
        <time>2016-10-30T09:14:07.000Z</time>
      </trkpt>
      <trkpt lat="47.86626" lon="2.1224">
        <ele>105</ele>
        <time>2016-10-30T09:14:08.000Z</time>
      </trkpt>
      <trkpt lat="47.86628" lon="2.12238">
        <ele>105</ele>
        <time>2016-10-30T09:14:09.000Z</time>
      </trkpt>
      <trkpt lat="47.8663" lon="2.12235">
        <ele>104</ele>
        <time>2016-10-30T09:14:10.000Z</time>
      </trkpt>
      <trkpt lat="47.86631" lon="2.12231">
        <ele>105</ele>
        <time>2016-10-30T09:14:11.000Z</time>
      </trkpt>
      <trkpt lat="47.86632" lon="2.12228">
        <ele>104</ele>
        <time>2016-10-30T09:14:12.000Z</time>
      </trkpt>
      <trkpt lat="47.86633" lon="2.12224">
        <ele>103</ele>
        <time>2016-10-30T09:14:13.000Z</time>
      </trkpt>
      <trkpt lat="47.86634" lon="2.12221">
        <ele>103</ele>
        <time>2016-10-30T09:14:14.000Z</time>
      </trkpt>
      <trkpt lat="47.86634" lon="2.12219">
        <ele>104</ele>
        <time>2016-10-30T09:14:15.000Z</time>
      </trkpt>
      <trkpt lat="47.86635" lon="2.12217">
        <ele>104</ele>
        <time>2016-10-30T09:14:16.000Z</time>
      </trkpt>
      <trkpt lat="47.86637" lon="2.12215">
        <ele>106</ele>
        <time>2016-10-30T09:14:17.000Z</time>
      </trkpt>
      <trkpt lat="47.86639" lon="2.12215">
        <ele>107</ele>
        <time>2016-10-30T09:14:18.000Z</time>
      </trkpt>
      <trkpt lat="47.86642" lon="2.12214">
        <ele>107</ele>
        <time>2016-10-30T09:14:19.000Z</time>
      </trkpt>
      <trkpt lat="47.86645" lon="2.12213">
        <ele>106</ele>
        <time>2016-10-30T09:14:20.000Z</time>
      </trkpt>
      <trkpt lat="47.86648" lon="2.12211">
        <ele>107</ele>
        <time>2016-10-30T09:14:21.000Z</time>
      </trkpt>
      <trkpt lat="47.86651" lon="2.1221">
        <ele>108</ele>
        <time>2016-10-30T09:14:22.000Z</time>
      </trkpt>
      <trkpt lat="47.86653" lon="2.12209">
        <ele>109</ele>
        <time>2016-10-30T09:14:23.000Z</time>
      </trkpt>
      <trkpt lat="47.86656" lon="2.12209">
        <ele>109</ele>
        <time>2016-10-30T09:14:24.000Z</time>
      </trkpt>
      <trkpt lat="47.8666" lon="2.12209">
        <ele>108</ele>
        <time>2016-10-30T09:14:25.000Z</time>
      </trkpt>
      <trkpt lat="47.86663" lon="2.1221">
        <ele>108</ele>
        <time>2016-10-30T09:14:26.000Z</time>
      </trkpt>
      <trkpt lat="47.86666" lon="2.12211">
        <ele>108</ele>
        <time>2016-10-30T09:14:27.000Z</time>
      </trkpt>
      <trkpt lat="47.86669" lon="2.12213">
        <ele>108</ele>
        <time>2016-10-30T09:14:28.000Z</time>
      </trkpt>
      <trkpt lat="47.86671" lon="2.12214">
        <ele>108</ele>
        <time>2016-10-30T09:14:29.000Z</time>
      </trkpt>
      <trkpt lat="47.86674" lon="2.12216">
        <ele>108</ele>
        <time>2016-10-30T09:14:30.000Z</time>
      </trkpt>
      <trkpt lat="47.86676" lon="2.12218">
        <ele>108</ele>
        <time>2016-10-30T09:14:31.000Z</time>
      </trkpt>
      <trkpt lat="47.86679" lon="2.12219">
        <ele>106</ele>
        <time>2016-10-30T09:14:32.000Z</time>
      </trkpt>
      <trkpt lat="47.86681" lon="2.12221">
        <ele>106</ele>
        <time>2016-10-30T09:14:33.000Z</time>
      </trkpt>
      <trkpt lat="47.86684" lon="2.12222">
        <ele>106</ele>
        <time>2016-10-30T09:14:34.000Z</time>
      </trkpt>
      <trkpt lat="47.86685" lon="2.12223">
        <ele>105</ele>
        <time>2016-10-30T09:14:35.000Z</time>
      </trkpt>
      <trkpt lat="47.86687" lon="2.12224">
        <ele>105</ele>
        <time>2016-10-30T09:14:36.000Z</time>
      </trkpt>
      <trkpt lat="47.86688" lon="2.12225">
        <ele>105</ele>
        <time>2016-10-30T09:14:37.000Z</time>
      </trkpt>
      <trkpt lat="47.8669" lon="2.12227">
        <ele>106</ele>
        <time>2016-10-30T09:14:38.000Z</time>
      </trkpt>
      <trkpt lat="47.86691" lon="2.12228">
        <ele>105</ele>
        <time>2016-10-30T09:14:39.000Z</time>
      </trkpt>
      <trkpt lat="47.86692" lon="2.12229">
        <ele>105</ele>
        <time>2016-10-30T09:14:40.000Z</time>
      </trkpt>
      <trkpt lat="47.86693" lon="2.12232">
        <ele>105</ele>
        <time>2016-10-30T09:14:41.000Z</time>
      </trkpt>
      <trkpt lat="47.86694" lon="2.12236">
        <ele>104</ele>
        <time>2016-10-30T09:14:42.000Z</time>
      </trkpt>
      <trkpt lat="47.86695" lon="2.1224">
        <ele>104</ele>
        <time>2016-10-30T09:14:43.000Z</time>
      </trkpt>
      <trkpt lat="47.86696" lon="2.12243">
        <ele>103</ele>
        <time>2016-10-30T09:14:44.000Z</time>
      </trkpt>
      <trkpt lat="47.86697" lon="2.12246">
        <ele>101</ele>
        <time>2016-10-30T09:14:45.000Z</time>
      </trkpt>
      <trkpt lat="47.86699" lon="2.12249">
        <ele>97</ele>
        <time>2016-10-30T09:14:46.000Z</time>
      </trkpt>
      <trkpt lat="47.86702" lon="2.12251">
        <ele>94</ele>
        <time>2016-10-30T09:14:47.000Z</time>
      </trkpt>
      <trkpt lat="47.86704" lon="2.12253">
        <ele>93</ele>
        <time>2016-10-30T09:14:48.000Z</time>
      </trkpt>
      <trkpt lat="47.86706" lon="2.12255">
        <ele>93</ele>
        <time>2016-10-30T09:14:49.000Z</time>
      </trkpt>
      <trkpt lat="47.86708" lon="2.12255">
        <ele>91</ele>
        <time>2016-10-30T09:14:50.000Z</time>
      </trkpt>
      <trkpt lat="47.86709" lon="2.12255">
        <ele>89</ele>
        <time>2016-10-30T09:14:51.000Z</time>
      </trkpt>
      <trkpt lat="47.8671" lon="2.12254">
        <ele>87</ele>
        <time>2016-10-30T09:14:52.000Z</time>
      </trkpt>
      <trkpt lat="47.8671" lon="2.12252">
        <ele>86</ele>
        <time>2016-10-30T09:14:53.000Z</time>
      </trkpt>
      <trkpt lat="47.86711" lon="2.12249">
        <ele>87</ele>
        <time>2016-10-30T09:14:54.000Z</time>
      </trkpt>
      <trkpt lat="47.86713" lon="2.12246">
        <ele>89</ele>
        <time>2016-10-30T09:14:55.000Z</time>
      </trkpt>
      <trkpt lat="47.86713" lon="2.12243">
        <ele>90</ele>
        <time>2016-10-30T09:14:56.000Z</time>
      </trkpt>
      <trkpt lat="47.86714" lon="2.12239">
        <ele>92</ele>
        <time>2016-10-30T09:14:57.000Z</time>
      </trkpt>
      <trkpt lat="47.86714" lon="2.12235">
        <ele>93</ele>
        <time>2016-10-30T09:14:58.000Z</time>
      </trkpt>
      <trkpt lat="47.86714" lon="2.12231">
        <ele>94</ele>
        <time>2016-10-30T09:14:59.000Z</time>
      </trkpt>
      <trkpt lat="47.86714" lon="2.12228">
        <ele>94</ele>
        <time>2016-10-30T09:15:00.000Z</time>
      </trkpt>
      <trkpt lat="47.86715" lon="2.12224">
        <ele>94</ele>
        <time>2016-10-30T09:15:01.000Z</time>
      </trkpt>
      <trkpt lat="47.86716" lon="2.12221">
        <ele>95</ele>
        <time>2016-10-30T09:15:02.000Z</time>
      </trkpt>
      <trkpt lat="47.86717" lon="2.12218">
        <ele>95</ele>
        <time>2016-10-30T09:15:03.000Z</time>
      </trkpt>
      <trkpt lat="47.86717" lon="2.12215">
        <ele>96</ele>
        <time>2016-10-30T09:15:04.000Z</time>
      </trkpt>
      <trkpt lat="47.86718" lon="2.12212">
        <ele>97</ele>
        <time>2016-10-30T09:15:05.000Z</time>
      </trkpt>
      <trkpt lat="47.86719" lon="2.1221">
        <ele>98</ele>
        <time>2016-10-30T09:15:06.000Z</time>
      </trkpt>
      <trkpt lat="47.8672" lon="2.12209">
        <ele>98</ele>
        <time>2016-10-30T09:15:07.000Z</time>
      </trkpt>
      <trkpt lat="47.86721" lon="2.12208">
        <ele>99</ele>
        <time>2016-10-30T09:15:08.000Z</time>
      </trkpt>
      <trkpt lat="47.86723" lon="2.12208">
        <ele>98</ele>
        <time>2016-10-30T09:15:09.000Z</time>
      </trkpt>
      <trkpt lat="47.86726" lon="2.12208">
        <ele>98</ele>
        <time>2016-10-30T09:15:10.000Z</time>
      </trkpt>
      <trkpt lat="47.86729" lon="2.12208">
        <ele>98</ele>
        <time>2016-10-30T09:15:11.000Z</time>
      </trkpt>
      <trkpt lat="47.86732" lon="2.12209">
        <ele>97</ele>
        <time>2016-10-30T09:15:12.000Z</time>
      </trkpt>
      <trkpt lat="47.86735" lon="2.1221">
        <ele>97</ele>
        <time>2016-10-30T09:15:13.000Z</time>
      </trkpt>
      <trkpt lat="47.86737" lon="2.12211">
        <ele>98</ele>
        <time>2016-10-30T09:15:14.000Z</time>
      </trkpt>
      <trkpt lat="47.8674" lon="2.12213">
        <ele>98</ele>
        <time>2016-10-30T09:15:15.000Z</time>
      </trkpt>
      <trkpt lat="47.86742" lon="2.12214">
        <ele>98</ele>
        <time>2016-10-30T09:15:16.000Z</time>
      </trkpt>
      <trkpt lat="47.86744" lon="2.12216">
        <ele>99</ele>
        <time>2016-10-30T09:15:17.000Z</time>
      </trkpt>
      <trkpt lat="47.86745" lon="2.12217">
        <ele>101</ele>
        <time>2016-10-30T09:15:18.000Z</time>
      </trkpt>
      <trkpt lat="47.86747" lon="2.12219">
        <ele>103</ele>
        <time>2016-10-30T09:15:19.000Z</time>
      </trkpt>
      <trkpt lat="47.86748" lon="2.1222">
        <ele>104</ele>
        <time>2016-10-30T09:15:20.000Z</time>
      </trkpt>
      <trkpt lat="47.8675" lon="2.12221">
        <ele>105</ele>
        <time>2016-10-30T09:15:21.000Z</time>
      </trkpt>
      <trkpt lat="47.86752" lon="2.12222">
        <ele>105</ele>
        <time>2016-10-30T09:15:22.000Z</time>
      </trkpt>
      <trkpt lat="47.86754" lon="2.12224">
        <ele>106</ele>
        <time>2016-10-30T09:15:23.000Z</time>
      </trkpt>
      <trkpt lat="47.86757" lon="2.12226">
        <ele>106</ele>
        <time>2016-10-30T09:15:24.000Z</time>
      </trkpt>
      <trkpt lat="47.86759" lon="2.12228">
        <ele>106</ele>
        <time>2016-10-30T09:15:25.000Z</time>
      </trkpt>
      <trkpt lat="47.86762" lon="2.1223">
        <ele>106</ele>
        <time>2016-10-30T09:15:26.000Z</time>
      </trkpt>
      <trkpt lat="47.86765" lon="2.12231">
        <ele>106</ele>
        <time>2016-10-30T09:15:27.000Z</time>
      </trkpt>
      <trkpt lat="47.86767" lon="2.12233">
        <ele>106</ele>
        <time>2016-10-30T09:15:28.000Z</time>
      </trkpt>
      <trkpt lat="47.8677" lon="2.12234">
        <ele>106</ele>
        <time>2016-10-30T09:15:29.000Z</time>
      </trkpt>
      <trkpt lat="47.86773" lon="2.12234">
        <ele>107</ele>
        <time>2016-10-30T09:15:30.000Z</time>
      </trkpt>
      <trkpt lat="47.86776" lon="2.12234">
        <ele>107</ele>
        <time>2016-10-30T09:15:31.000Z</time>
      </trkpt>
      <trkpt lat="47.86779" lon="2.12233">
        <ele>106</ele>
        <time>2016-10-30T09:15:32.000Z</time>
      </trkpt>
      <trkpt lat="47.86782" lon="2.1223">
        <ele>106</ele>
        <time>2016-10-30T09:15:33.000Z</time>
      </trkpt>
      <trkpt lat="47.86784" lon="2.12226">
        <ele>106</ele>
        <time>2016-10-30T09:15:34.000Z</time>
      </trkpt>
      <trkpt lat="47.86786" lon="2.12221">
        <ele>106</ele>
        <time>2016-10-30T09:15:35.000Z</time>
      </trkpt>
      <trkpt lat="47.86787" lon="2.12216">
        <ele>106</ele>
        <time>2016-10-30T09:15:36.000Z</time>
      </trkpt>
      <trkpt lat="47.86788" lon="2.12211">
        <ele>106</ele>
        <time>2016-10-30T09:15:37.000Z</time>
      </trkpt>
      <trkpt lat="47.86789" lon="2.12205">
        <ele>106</ele>
        <time>2016-10-30T09:15:38.000Z</time>
      </trkpt>
      <trkpt lat="47.86791" lon="2.12197">
        <ele>105</ele>
        <time>2016-10-30T09:15:39.000Z</time>
      </trkpt>
      <trkpt lat="47.86793" lon="2.12188">
        <ele>104</ele>
        <time>2016-10-30T09:15:40.000Z</time>
      </trkpt>
      <trkpt lat="47.86795" lon="2.12179">
        <ele>104</ele>
        <time>2016-10-30T09:15:41.000Z</time>
      </trkpt>
      <trkpt lat="47.86796" lon="2.1217">
        <ele>104</ele>
        <time>2016-10-30T09:15:42.000Z</time>
      </trkpt>
      <trkpt lat="47.86798" lon="2.12162">
        <ele>104</ele>
        <time>2016-10-30T09:15:43.000Z</time>
      </trkpt>
      <trkpt lat="47.86799" lon="2.12154">
        <ele>103</ele>
        <time>2016-10-30T09:15:44.000Z</time>
      </trkpt>
      <trkpt lat="47.86801" lon="2.12145">
        <ele>103</ele>
        <time>2016-10-30T09:15:45.000Z</time>
      </trkpt>
      <trkpt lat="47.86803" lon="2.12138">
        <ele>103</ele>
        <time>2016-10-30T09:15:46.000Z</time>
      </trkpt>
      <trkpt lat="47.86804" lon="2.1213">
        <ele>103</ele>
        <time>2016-10-30T09:15:47.000Z</time>
      </trkpt>
      <trkpt lat="47.86806" lon="2.12122">
        <ele>103</ele>
        <time>2016-10-30T09:15:48.000Z</time>
      </trkpt>
      <trkpt lat="47.86807" lon="2.12115">
        <ele>103</ele>
        <time>2016-10-30T09:15:49.000Z</time>
      </trkpt>
      <trkpt lat="47.86809" lon="2.12109">
        <ele>103</ele>
        <time>2016-10-30T09:15:50.000Z</time>
      </trkpt>
      <trkpt lat="47.86811" lon="2.12102">
        <ele>103</ele>
        <time>2016-10-30T09:15:51.000Z</time>
      </trkpt>
      <trkpt lat="47.86812" lon="2.12095">
        <ele>103</ele>
        <time>2016-10-30T09:15:52.000Z</time>
      </trkpt>
      <trkpt lat="47.86814" lon="2.12089">
        <ele>103</ele>
        <time>2016-10-30T09:15:53.000Z</time>
      </trkpt>
      <trkpt lat="47.86815" lon="2.12081">
        <ele>102</ele>
        <time>2016-10-30T09:15:54.000Z</time>
      </trkpt>
      <trkpt lat="47.86815" lon="2.12073">
        <ele>102</ele>
        <time>2016-10-30T09:15:55.000Z</time>
      </trkpt>
      <trkpt lat="47.86816" lon="2.12065">
        <ele>102</ele>
        <time>2016-10-30T09:15:56.000Z</time>
      </trkpt>
      <trkpt lat="47.86816" lon="2.12056">
        <ele>101</ele>
        <time>2016-10-30T09:15:57.000Z</time>
      </trkpt>
      <trkpt lat="47.86816" lon="2.12047">
        <ele>102</ele>
        <time>2016-10-30T09:15:58.000Z</time>
      </trkpt>
      <trkpt lat="47.86817" lon="2.12037">
        <ele>102</ele>
        <time>2016-10-30T09:15:59.000Z</time>
      </trkpt>
      <trkpt lat="47.86818" lon="2.12028">
        <ele>102</ele>
        <time>2016-10-30T09:16:00.000Z</time>
      </trkpt>
      <trkpt lat="47.86819" lon="2.12019">
        <ele>102</ele>
        <time>2016-10-30T09:16:01.000Z</time>
      </trkpt>
      <trkpt lat="47.8682" lon="2.1201">
        <ele>102</ele>
        <time>2016-10-30T09:16:02.000Z</time>
      </trkpt>
      <trkpt lat="47.86822" lon="2.12002">
        <ele>102</ele>
        <time>2016-10-30T09:16:03.000Z</time>
      </trkpt>
      <trkpt lat="47.86823" lon="2.11994">
        <ele>102</ele>
        <time>2016-10-30T09:16:04.000Z</time>
      </trkpt>
      <trkpt lat="47.86825" lon="2.11986">
        <ele>102</ele>
        <time>2016-10-30T09:16:05.000Z</time>
      </trkpt>
      <trkpt lat="47.86827" lon="2.11978">
        <ele>102</ele>
        <time>2016-10-30T09:16:06.000Z</time>
      </trkpt>
      <trkpt lat="47.86828" lon="2.1197">
        <ele>102</ele>
        <time>2016-10-30T09:16:07.000Z</time>
      </trkpt>
      <trkpt lat="47.86829" lon="2.11962">
        <ele>102</ele>
        <time>2016-10-30T09:16:08.000Z</time>
      </trkpt>
      <trkpt lat="47.86831" lon="2.11954">
        <ele>102</ele>
        <time>2016-10-30T09:16:09.000Z</time>
      </trkpt>
      <trkpt lat="47.86832" lon="2.11947">
        <ele>102</ele>
        <time>2016-10-30T09:16:10.000Z</time>
      </trkpt>
      <trkpt lat="47.86833" lon="2.11939">
        <ele>102</ele>
        <time>2016-10-30T09:16:11.000Z</time>
      </trkpt>
      <trkpt lat="47.86835" lon="2.11932">
        <ele>102</ele>
        <time>2016-10-30T09:16:12.000Z</time>
      </trkpt>
      <trkpt lat="47.86836" lon="2.11925">
        <ele>102</ele>
        <time>2016-10-30T09:16:13.000Z</time>
      </trkpt>
      <trkpt lat="47.86838" lon="2.11918">
        <ele>102</ele>
        <time>2016-10-30T09:16:14.000Z</time>
      </trkpt>
      <trkpt lat="47.8684" lon="2.11911">
        <ele>102</ele>
        <time>2016-10-30T09:16:15.000Z</time>
      </trkpt>
      <trkpt lat="47.86842" lon="2.11904">
        <ele>102</ele>
        <time>2016-10-30T09:16:16.000Z</time>
      </trkpt>
      <trkpt lat="47.86844" lon="2.11897">
        <ele>102</ele>
        <time>2016-10-30T09:16:17.000Z</time>
      </trkpt>
      <trkpt lat="47.86846" lon="2.11889">
        <ele>102</ele>
        <time>2016-10-30T09:16:18.000Z</time>
      </trkpt>
      <trkpt lat="47.86848" lon="2.11881">
        <ele>102</ele>
        <time>2016-10-30T09:16:19.000Z</time>
      </trkpt>
      <trkpt lat="47.8685" lon="2.11873">
        <ele>102</ele>
        <time>2016-10-30T09:16:20.000Z</time>
      </trkpt>
      <trkpt lat="47.86852" lon="2.11866">
        <ele>102</ele>
        <time>2016-10-30T09:16:21.000Z</time>
      </trkpt>
      <trkpt lat="47.86854" lon="2.11859">
        <ele>102</ele>
        <time>2016-10-30T09:16:22.000Z</time>
      </trkpt>
      <trkpt lat="47.86857" lon="2.11853">
        <ele>102</ele>
        <time>2016-10-30T09:16:23.000Z</time>
      </trkpt>
      <trkpt lat="47.8686" lon="2.11846">
        <ele>102</ele>
        <time>2016-10-30T09:16:24.000Z</time>
      </trkpt>
      <trkpt lat="47.86863" lon="2.1184">
        <ele>102</ele>
        <time>2016-10-30T09:16:25.000Z</time>
      </trkpt>
      <trkpt lat="47.86865" lon="2.11833">
        <ele>103</ele>
        <time>2016-10-30T09:16:26.000Z</time>
      </trkpt>
      <trkpt lat="47.86867" lon="2.11826">
        <ele>103</ele>
        <time>2016-10-30T09:16:27.000Z</time>
      </trkpt>
      <trkpt lat="47.8687" lon="2.11818">
        <ele>103</ele>
        <time>2016-10-30T09:16:28.000Z</time>
      </trkpt>
      <trkpt lat="47.86872" lon="2.11812">
        <ele>104</ele>
        <time>2016-10-30T09:16:29.000Z</time>
      </trkpt>
      <trkpt lat="47.86875" lon="2.11805">
        <ele>104</ele>
        <time>2016-10-30T09:16:30.000Z</time>
      </trkpt>
      <trkpt lat="47.86877" lon="2.11799">
        <ele>104</ele>
        <time>2016-10-30T09:16:31.000Z</time>
      </trkpt>
      <trkpt lat="47.86879" lon="2.11793">
        <ele>104</ele>
        <time>2016-10-30T09:16:32.000Z</time>
      </trkpt>
      <trkpt lat="47.86882" lon="2.11787">
        <ele>105</ele>
        <time>2016-10-30T09:16:33.000Z</time>
      </trkpt>
      <trkpt lat="47.86884" lon="2.11782">
        <ele>105</ele>
        <time>2016-10-30T09:16:34.000Z</time>
      </trkpt>
      <trkpt lat="47.86886" lon="2.11775">
        <ele>106</ele>
        <time>2016-10-30T09:16:35.000Z</time>
      </trkpt>
      <trkpt lat="47.86887" lon="2.11768">
        <ele>106</ele>
        <time>2016-10-30T09:16:36.000Z</time>
      </trkpt>
      <trkpt lat="47.86889" lon="2.11761">
        <ele>107</ele>
        <time>2016-10-30T09:16:37.000Z</time>
      </trkpt>
      <trkpt lat="47.8689" lon="2.11754">
        <ele>108</ele>
        <time>2016-10-30T09:16:38.000Z</time>
      </trkpt>
      <trkpt lat="47.86893" lon="2.11748">
        <ele>108</ele>
        <time>2016-10-30T09:16:39.000Z</time>
      </trkpt>
      <trkpt lat="47.86895" lon="2.11742">
        <ele>109</ele>
        <time>2016-10-30T09:16:40.000Z</time>
      </trkpt>
      <trkpt lat="47.86898" lon="2.11736">
        <ele>110</ele>
        <time>2016-10-30T09:16:41.000Z</time>
      </trkpt>
      <trkpt lat="47.869" lon="2.1173">
        <ele>110</ele>
        <time>2016-10-30T09:16:42.000Z</time>
      </trkpt>
      <trkpt lat="47.86902" lon="2.11723">
        <ele>110</ele>
        <time>2016-10-30T09:16:43.000Z</time>
      </trkpt>
      <trkpt lat="47.86903" lon="2.11717">
        <ele>110</ele>
        <time>2016-10-30T09:16:44.000Z</time>
      </trkpt>
      <trkpt lat="47.86905" lon="2.11709">
        <ele>108</ele>
        <time>2016-10-30T09:16:45.000Z</time>
      </trkpt>
      <trkpt lat="47.86907" lon="2.11702">
        <ele>109</ele>
        <time>2016-10-30T09:16:46.000Z</time>
      </trkpt>
      <trkpt lat="47.86908" lon="2.11694">
        <ele>111</ele>
        <time>2016-10-30T09:16:47.000Z</time>
      </trkpt>
      <trkpt lat="47.8691" lon="2.11687">
        <ele>110</ele>
        <time>2016-10-30T09:16:48.000Z</time>
      </trkpt>
      <trkpt lat="47.86911" lon="2.11679">
        <ele>111</ele>
        <time>2016-10-30T09:16:49.000Z</time>
      </trkpt>
      <trkpt lat="47.86913" lon="2.11671">
        <ele>112</ele>
        <time>2016-10-30T09:16:50.000Z</time>
      </trkpt>
      <trkpt lat="47.86915" lon="2.11664">
        <ele>112</ele>
        <time>2016-10-30T09:16:51.000Z</time>
      </trkpt>
      <trkpt lat="47.86917" lon="2.11656">
        <ele>113</ele>
        <time>2016-10-30T09:16:52.000Z</time>
      </trkpt>
      <trkpt lat="47.86919" lon="2.11649">
        <ele>114</ele>
        <time>2016-10-30T09:16:53.000Z</time>
      </trkpt>
      <trkpt lat="47.86921" lon="2.11642">
        <ele>115</ele>
        <time>2016-10-30T09:16:54.000Z</time>
      </trkpt>
      <trkpt lat="47.86923" lon="2.11635">
        <ele>116</ele>
        <time>2016-10-30T09:16:55.000Z</time>
      </trkpt>
      <trkpt lat="47.86925" lon="2.11627">
        <ele>117</ele>
        <time>2016-10-30T09:16:56.000Z</time>
      </trkpt>
      <trkpt lat="47.86927" lon="2.11619">
        <ele>118</ele>
        <time>2016-10-30T09:16:57.000Z</time>
      </trkpt>
      <trkpt lat="47.8693" lon="2.1161">
        <ele>116</ele>
        <time>2016-10-30T09:16:58.000Z</time>
      </trkpt>
      <trkpt lat="47.86932" lon="2.11601">
        <ele>115</ele>
        <time>2016-10-30T09:16:59.000Z</time>
      </trkpt>
      <trkpt lat="47.86934" lon="2.11592">
        <ele>113</ele>
        <time>2016-10-30T09:17:00.000Z</time>
      </trkpt>
      <trkpt lat="47.86935" lon="2.11583">
        <ele>112</ele>
        <time>2016-10-30T09:17:01.000Z</time>
      </trkpt>
      <trkpt lat="47.86937" lon="2.11573">
        <ele>112</ele>
        <time>2016-10-30T09:17:02.000Z</time>
      </trkpt>
      <trkpt lat="47.86938" lon="2.11564">
        <ele>111</ele>
        <time>2016-10-30T09:17:03.000Z</time>
      </trkpt>
      <trkpt lat="47.8694" lon="2.11555">
        <ele>111</ele>
        <time>2016-10-30T09:17:04.000Z</time>
      </trkpt>
      <trkpt lat="47.86941" lon="2.11546">
        <ele>109</ele>
        <time>2016-10-30T09:17:05.000Z</time>
      </trkpt>
      <trkpt lat="47.86942" lon="2.11537">
        <ele>109</ele>
        <time>2016-10-30T09:17:06.000Z</time>
      </trkpt>
      <trkpt lat="47.86943" lon="2.11527">
        <ele>108</ele>
        <time>2016-10-30T09:17:07.000Z</time>
      </trkpt>
      <trkpt lat="47.86944" lon="2.11518">
        <ele>108</ele>
        <time>2016-10-30T09:17:08.000Z</time>
      </trkpt>
      <trkpt lat="47.86945" lon="2.11509">
        <ele>108</ele>
        <time>2016-10-30T09:17:09.000Z</time>
      </trkpt>
      <trkpt lat="47.86945" lon="2.11501">
        <ele>108</ele>
        <time>2016-10-30T09:17:10.000Z</time>
      </trkpt>
      <trkpt lat="47.86945" lon="2.11492">
        <ele>107</ele>
        <time>2016-10-30T09:17:11.000Z</time>
      </trkpt>
      <trkpt lat="47.86946" lon="2.11483">
        <ele>107</ele>
        <time>2016-10-30T09:17:12.000Z</time>
      </trkpt>
      <trkpt lat="47.86946" lon="2.11473">
        <ele>105</ele>
        <time>2016-10-30T09:17:13.000Z</time>
      </trkpt>
      <trkpt lat="47.86947" lon="2.11464">
        <ele>105</ele>
        <time>2016-10-30T09:17:14.000Z</time>
      </trkpt>
      <trkpt lat="47.86948" lon="2.11456">
        <ele>104</ele>
        <time>2016-10-30T09:17:15.000Z</time>
      </trkpt>
      <trkpt lat="47.86949" lon="2.11447">
        <ele>104</ele>
        <time>2016-10-30T09:17:16.000Z</time>
      </trkpt>
      <trkpt lat="47.8695" lon="2.11438">
        <ele>104</ele>
        <time>2016-10-30T09:17:17.000Z</time>
      </trkpt>
      <trkpt lat="47.86952" lon="2.11429">
        <ele>103</ele>
        <time>2016-10-30T09:17:18.000Z</time>
      </trkpt>
      <trkpt lat="47.86953" lon="2.11419">
        <ele>102</ele>
        <time>2016-10-30T09:17:19.000Z</time>
      </trkpt>
      <trkpt lat="47.86954" lon="2.11408">
        <ele>102</ele>
        <time>2016-10-30T09:17:20.000Z</time>
      </trkpt>
      <trkpt lat="47.86956" lon="2.11397">
        <ele>102</ele>
        <time>2016-10-30T09:17:21.000Z</time>
      </trkpt>
      <trkpt lat="47.86958" lon="2.11386">
        <ele>103</ele>
        <time>2016-10-30T09:17:22.000Z</time>
      </trkpt>
      <trkpt lat="47.8696" lon="2.11376">
        <ele>103</ele>
        <time>2016-10-30T09:17:23.000Z</time>
      </trkpt>
      <trkpt lat="47.86961" lon="2.11367">
        <ele>104</ele>
        <time>2016-10-30T09:17:24.000Z</time>
      </trkpt>
      <trkpt lat="47.86963" lon="2.11358">
        <ele>105</ele>
        <time>2016-10-30T09:17:25.000Z</time>
      </trkpt>
      <trkpt lat="47.86964" lon="2.11349">
        <ele>105</ele>
        <time>2016-10-30T09:17:26.000Z</time>
      </trkpt>
      <trkpt lat="47.86965" lon="2.11339">
        <ele>106</ele>
        <time>2016-10-30T09:17:27.000Z</time>
      </trkpt>
      <trkpt lat="47.86965" lon="2.11331">
        <ele>106</ele>
        <time>2016-10-30T09:17:28.000Z</time>
      </trkpt>
      <trkpt lat="47.86966" lon="2.11322">
        <ele>106</ele>
        <time>2016-10-30T09:17:29.000Z</time>
      </trkpt>
      <trkpt lat="47.86966" lon="2.11314">
        <ele>106</ele>
        <time>2016-10-30T09:17:30.000Z</time>
      </trkpt>
      <trkpt lat="47.86967" lon="2.11304">
        <ele>106</ele>
        <time>2016-10-30T09:17:31.000Z</time>
      </trkpt>
      <trkpt lat="47.86968" lon="2.11295">
        <ele>106</ele>
        <time>2016-10-30T09:17:32.000Z</time>
      </trkpt>
      <trkpt lat="47.8697" lon="2.11286">
        <ele>106</ele>
        <time>2016-10-30T09:17:33.000Z</time>
      </trkpt>
      <trkpt lat="47.86971" lon="2.11277">
        <ele>106</ele>
        <time>2016-10-30T09:17:34.000Z</time>
      </trkpt>
      <trkpt lat="47.86971" lon="2.11268">
        <ele>106</ele>
        <time>2016-10-30T09:17:35.000Z</time>
      </trkpt>
      <trkpt lat="47.86972" lon="2.11259">
        <ele>106</ele>
        <time>2016-10-30T09:17:36.000Z</time>
      </trkpt>
      <trkpt lat="47.86973" lon="2.11251">
        <ele>106</ele>
        <time>2016-10-30T09:17:37.000Z</time>
      </trkpt>
      <trkpt lat="47.86973" lon="2.11243">
        <ele>106</ele>
        <time>2016-10-30T09:17:38.000Z</time>
      </trkpt>
      <trkpt lat="47.86974" lon="2.11234">
        <ele>107</ele>
        <time>2016-10-30T09:17:39.000Z</time>
      </trkpt>
      <trkpt lat="47.86974" lon="2.11226">
        <ele>107</ele>
        <time>2016-10-30T09:17:40.000Z</time>
      </trkpt>
      <trkpt lat="47.86976" lon="2.11217">
        <ele>106</ele>
        <time>2016-10-30T09:17:41.000Z</time>
      </trkpt>
      <trkpt lat="47.86977" lon="2.11208">
        <ele>106</ele>
        <time>2016-10-30T09:17:42.000Z</time>
      </trkpt>
      <trkpt lat="47.86978" lon="2.112">
        <ele>105</ele>
        <time>2016-10-30T09:17:43.000Z</time>
      </trkpt>
      <trkpt lat="47.8698" lon="2.11191">
        <ele>105</ele>
        <time>2016-10-30T09:17:44.000Z</time>
      </trkpt>
      <trkpt lat="47.86981" lon="2.11183">
        <ele>106</ele>
        <time>2016-10-30T09:17:45.000Z</time>
      </trkpt>
      <trkpt lat="47.86982" lon="2.11174">
        <ele>107</ele>
        <time>2016-10-30T09:17:46.000Z</time>
      </trkpt>
      <trkpt lat="47.86984" lon="2.11166">
        <ele>106</ele>
        <time>2016-10-30T09:17:47.000Z</time>
      </trkpt>
      <trkpt lat="47.86984" lon="2.11156">
        <ele>105</ele>
        <time>2016-10-30T09:17:48.000Z</time>
      </trkpt>
      <trkpt lat="47.86985" lon="2.11147">
        <ele>105</ele>
        <time>2016-10-30T09:17:49.000Z</time>
      </trkpt>
      <trkpt lat="47.86986" lon="2.11138">
        <ele>106</ele>
        <time>2016-10-30T09:17:50.000Z</time>
      </trkpt>
      <trkpt lat="47.86986" lon="2.11129">
        <ele>106</ele>
        <time>2016-10-30T09:17:51.000Z</time>
      </trkpt>
      <trkpt lat="47.86987" lon="2.1112">
        <ele>106</ele>
        <time>2016-10-30T09:17:52.000Z</time>
      </trkpt>
      <trkpt lat="47.86987" lon="2.11111">
        <ele>105</ele>
        <time>2016-10-30T09:17:53.000Z</time>
      </trkpt>
      <trkpt lat="47.86988" lon="2.11103">
        <ele>105</ele>
        <time>2016-10-30T09:17:54.000Z</time>
      </trkpt>
      <trkpt lat="47.86988" lon="2.11095">
        <ele>105</ele>
        <time>2016-10-30T09:17:55.000Z</time>
      </trkpt>
      <trkpt lat="47.86988" lon="2.11085">
        <ele>104</ele>
        <time>2016-10-30T09:17:56.000Z</time>
      </trkpt>
      <trkpt lat="47.86988" lon="2.11075">
        <ele>104</ele>
        <time>2016-10-30T09:17:57.000Z</time>
      </trkpt>
      <trkpt lat="47.86988" lon="2.11064">
        <ele>105</ele>
        <time>2016-10-30T09:17:58.000Z</time>
      </trkpt>
      <trkpt lat="47.86989" lon="2.11054">
        <ele>105</ele>
        <time>2016-10-30T09:17:59.000Z</time>
      </trkpt>
      <trkpt lat="47.86989" lon="2.11045">
        <ele>105</ele>
        <time>2016-10-30T09:18:00.000Z</time>
      </trkpt>
      <trkpt lat="47.86988" lon="2.11036">
        <ele>106</ele>
        <time>2016-10-30T09:18:01.000Z</time>
      </trkpt>
      <trkpt lat="47.86988" lon="2.11027">
        <ele>106</ele>
        <time>2016-10-30T09:18:02.000Z</time>
      </trkpt>
      <trkpt lat="47.86988" lon="2.11019">
        <ele>106</ele>
        <time>2016-10-30T09:18:03.000Z</time>
      </trkpt>
      <trkpt lat="47.86989" lon="2.11011">
        <ele>107</ele>
        <time>2016-10-30T09:18:04.000Z</time>
      </trkpt>
      <trkpt lat="47.86989" lon="2.11002">
        <ele>107</ele>
        <time>2016-10-30T09:18:05.000Z</time>
      </trkpt>
      <trkpt lat="47.8699" lon="2.10993">
        <ele>107</ele>
        <time>2016-10-30T09:18:06.000Z</time>
      </trkpt>
      <trkpt lat="47.86991" lon="2.10985">
        <ele>108</ele>
        <time>2016-10-30T09:18:07.000Z</time>
      </trkpt>
      <trkpt lat="47.86993" lon="2.10976">
        <ele>108</ele>
        <time>2016-10-30T09:18:08.000Z</time>
      </trkpt>
      <trkpt lat="47.86994" lon="2.10969">
        <ele>109</ele>
        <time>2016-10-30T09:18:09.000Z</time>
      </trkpt>
      <trkpt lat="47.86995" lon="2.10962">
        <ele>109</ele>
        <time>2016-10-30T09:18:10.000Z</time>
      </trkpt>
      <trkpt lat="47.86996" lon="2.10956">
        <ele>109</ele>
        <time>2016-10-30T09:18:11.000Z</time>
      </trkpt>
      <trkpt lat="47.86996" lon="2.10951">
        <ele>110</ele>
        <time>2016-10-30T09:18:12.000Z</time>
      </trkpt>
      <trkpt lat="47.86996" lon="2.10945">
        <ele>109</ele>
        <time>2016-10-30T09:18:13.000Z</time>
      </trkpt>
      <trkpt lat="47.86995" lon="2.10939">
        <ele>108</ele>
        <time>2016-10-30T09:18:14.000Z</time>
      </trkpt>
      <trkpt lat="47.86995" lon="2.10933">
        <ele>108</ele>
        <time>2016-10-30T09:18:15.000Z</time>
      </trkpt>
      <trkpt lat="47.86994" lon="2.10927">
        <ele>107</ele>
        <time>2016-10-30T09:18:16.000Z</time>
      </trkpt>
      <trkpt lat="47.86993" lon="2.1092">
        <ele>106</ele>
        <time>2016-10-30T09:18:17.000Z</time>
      </trkpt>
      <trkpt lat="47.86991" lon="2.10913">
        <ele>106</ele>
        <time>2016-10-30T09:18:18.000Z</time>
      </trkpt>
      <trkpt lat="47.86989" lon="2.10906">
        <ele>105</ele>
        <time>2016-10-30T09:18:19.000Z</time>
      </trkpt>
      <trkpt lat="47.86989" lon="2.109">
        <ele>105</ele>
        <time>2016-10-30T09:18:20.000Z</time>
      </trkpt>
      <trkpt lat="47.86988" lon="2.10893">
        <ele>105</ele>
        <time>2016-10-30T09:18:21.000Z</time>
      </trkpt>
      <trkpt lat="47.86989" lon="2.10887">
        <ele>105</ele>
        <time>2016-10-30T09:18:22.000Z</time>
      </trkpt>
      <trkpt lat="47.86989" lon="2.10881">
        <ele>105</ele>
        <time>2016-10-30T09:18:23.000Z</time>
      </trkpt>
      <trkpt lat="47.86989" lon="2.10875">
        <ele>104</ele>
        <time>2016-10-30T09:18:24.000Z</time>
      </trkpt>
      <trkpt lat="47.86989" lon="2.10867">
        <ele>102</ele>
        <time>2016-10-30T09:18:25.000Z</time>
      </trkpt>
      <trkpt lat="47.86989" lon="2.1086">
        <ele>102</ele>
        <time>2016-10-30T09:18:26.000Z</time>
      </trkpt>
      <trkpt lat="47.8699" lon="2.10852">
        <ele>103</ele>
        <time>2016-10-30T09:18:27.000Z</time>
      </trkpt>
      <trkpt lat="47.86991" lon="2.10844">
        <ele>105</ele>
        <time>2016-10-30T09:18:28.000Z</time>
      </trkpt>
      <trkpt lat="47.86992" lon="2.10836">
        <ele>107</ele>
        <time>2016-10-30T09:18:29.000Z</time>
      </trkpt>
      <trkpt lat="47.86993" lon="2.10828">
        <ele>107</ele>
        <time>2016-10-30T09:18:30.000Z</time>
      </trkpt>
      <trkpt lat="47.86993" lon="2.10821">
        <ele>106</ele>
        <time>2016-10-30T09:18:31.000Z</time>
      </trkpt>
      <trkpt lat="47.86993" lon="2.10814">
        <ele>106</ele>
        <time>2016-10-30T09:18:32.000Z</time>
      </trkpt>
      <trkpt lat="47.86993" lon="2.10807">
        <ele>107</ele>
        <time>2016-10-30T09:18:33.000Z</time>
      </trkpt>
      <trkpt lat="47.86994" lon="2.10801">
        <ele>107</ele>
        <time>2016-10-30T09:18:34.000Z</time>
      </trkpt>
      <trkpt lat="47.86995" lon="2.10796">
        <ele>108</ele>
        <time>2016-10-30T09:18:35.000Z</time>
      </trkpt>
      <trkpt lat="47.86996" lon="2.10791">
        <ele>107</ele>
        <time>2016-10-30T09:18:36.000Z</time>
      </trkpt>
      <trkpt lat="47.86997" lon="2.10785">
        <ele>105</ele>
        <time>2016-10-30T09:18:37.000Z</time>
      </trkpt>
      <trkpt lat="47.86998" lon="2.10777">
        <ele>104</ele>
        <time>2016-10-30T09:18:38.000Z</time>
      </trkpt>
      <trkpt lat="47.87" lon="2.10769">
        <ele>104</ele>
        <time>2016-10-30T09:18:39.000Z</time>
      </trkpt>
      <trkpt lat="47.87001" lon="2.10761">
        <ele>103</ele>
        <time>2016-10-30T09:18:40.000Z</time>
      </trkpt>
      <trkpt lat="47.87002" lon="2.10754">
        <ele>103</ele>
        <time>2016-10-30T09:18:41.000Z</time>
      </trkpt>
      <trkpt lat="47.87003" lon="2.10747">
        <ele>102</ele>
        <time>2016-10-30T09:18:42.000Z</time>
      </trkpt>
      <trkpt lat="47.87005" lon="2.1074">
        <ele>102</ele>
        <time>2016-10-30T09:18:43.000Z</time>
      </trkpt>
      <trkpt lat="47.87006" lon="2.10733">
        <ele>101</ele>
        <time>2016-10-30T09:18:44.000Z</time>
      </trkpt>
      <trkpt lat="47.87007" lon="2.10725">
        <ele>100</ele>
        <time>2016-10-30T09:18:45.000Z</time>
      </trkpt>
      <trkpt lat="47.87008" lon="2.10716">
        <ele>99</ele>
        <time>2016-10-30T09:18:46.000Z</time>
      </trkpt>
      <trkpt lat="47.87007" lon="2.10706">
        <ele>98</ele>
        <time>2016-10-30T09:18:47.000Z</time>
      </trkpt>
      <trkpt lat="47.87007" lon="2.10697">
        <ele>98</ele>
        <time>2016-10-30T09:18:48.000Z</time>
      </trkpt>
      <trkpt lat="47.87006" lon="2.10689">
        <ele>98</ele>
        <time>2016-10-30T09:18:49.000Z</time>
      </trkpt>
      <trkpt lat="47.87006" lon="2.10681">
        <ele>97</ele>
        <time>2016-10-30T09:18:50.000Z</time>
      </trkpt>
      <trkpt lat="47.87006" lon="2.10673">
        <ele>97</ele>
        <time>2016-10-30T09:18:51.000Z</time>
      </trkpt>
      <trkpt lat="47.87007" lon="2.10665">
        <ele>97</ele>
        <time>2016-10-30T09:18:52.000Z</time>
      </trkpt>
      <trkpt lat="47.87007" lon="2.10657">
        <ele>99</ele>
        <time>2016-10-30T09:18:53.000Z</time>
      </trkpt>
      <trkpt lat="47.87007" lon="2.10649">
        <ele>100</ele>
        <time>2016-10-30T09:18:54.000Z</time>
      </trkpt>
      <trkpt lat="47.87007" lon="2.1064">
        <ele>100</ele>
        <time>2016-10-30T09:18:55.000Z</time>
      </trkpt>
      <trkpt lat="47.87007" lon="2.10632">
        <ele>100</ele>
        <time>2016-10-30T09:18:56.000Z</time>
      </trkpt>
      <trkpt lat="47.87006" lon="2.10623">
        <ele>100</ele>
        <time>2016-10-30T09:18:57.000Z</time>
      </trkpt>
      <trkpt lat="47.87006" lon="2.10615">
        <ele>100</ele>
        <time>2016-10-30T09:18:58.000Z</time>
      </trkpt>
      <trkpt lat="47.87007" lon="2.10606">
        <ele>101</ele>
        <time>2016-10-30T09:18:59.000Z</time>
      </trkpt>
      <trkpt lat="47.87007" lon="2.10597">
        <ele>101</ele>
        <time>2016-10-30T09:19:00.000Z</time>
      </trkpt>
      <trkpt lat="47.87007" lon="2.10589">
        <ele>102</ele>
        <time>2016-10-30T09:19:01.000Z</time>
      </trkpt>
      <trkpt lat="47.87007" lon="2.10581">
        <ele>100</ele>
        <time>2016-10-30T09:19:02.000Z</time>
      </trkpt>
      <trkpt lat="47.87007" lon="2.10573">
        <ele>100</ele>
        <time>2016-10-30T09:19:03.000Z</time>
      </trkpt>
      <trkpt lat="47.87008" lon="2.10565">
        <ele>99</ele>
        <time>2016-10-30T09:19:04.000Z</time>
      </trkpt>
      <trkpt lat="47.87009" lon="2.10556">
        <ele>100</ele>
        <time>2016-10-30T09:19:05.000Z</time>
      </trkpt>
      <trkpt lat="47.87009" lon="2.10548">
        <ele>100</ele>
        <time>2016-10-30T09:19:06.000Z</time>
      </trkpt>
      <trkpt lat="47.8701" lon="2.10539">
        <ele>101</ele>
        <time>2016-10-30T09:19:07.000Z</time>
      </trkpt>
      <trkpt lat="47.87011" lon="2.1053">
        <ele>101</ele>
        <time>2016-10-30T09:19:08.000Z</time>
      </trkpt>
      <trkpt lat="47.87011" lon="2.10521">
        <ele>101</ele>
        <time>2016-10-30T09:19:09.000Z</time>
      </trkpt>
      <trkpt lat="47.87012" lon="2.10512">
        <ele>101</ele>
        <time>2016-10-30T09:19:10.000Z</time>
      </trkpt>
      <trkpt lat="47.87013" lon="2.10504">
        <ele>99</ele>
        <time>2016-10-30T09:19:11.000Z</time>
      </trkpt>
      <trkpt lat="47.87013" lon="2.10495">
        <ele>98</ele>
        <time>2016-10-30T09:19:12.000Z</time>
      </trkpt>
      <trkpt lat="47.87013" lon="2.10487">
        <ele>98</ele>
        <time>2016-10-30T09:19:13.000Z</time>
      </trkpt>
      <trkpt lat="47.87013" lon="2.10478">
        <ele>99</ele>
        <time>2016-10-30T09:19:14.000Z</time>
      </trkpt>
      <trkpt lat="47.87012" lon="2.1047">
        <ele>99</ele>
        <time>2016-10-30T09:19:15.000Z</time>
      </trkpt>
      <trkpt lat="47.87011" lon="2.10461">
        <ele>98</ele>
        <time>2016-10-30T09:19:16.000Z</time>
      </trkpt>
      <trkpt lat="47.87011" lon="2.10452">
        <ele>99</ele>
        <time>2016-10-30T09:19:17.000Z</time>
      </trkpt>
      <trkpt lat="47.87011" lon="2.10443">
        <ele>98</ele>
        <time>2016-10-30T09:19:18.000Z</time>
      </trkpt>
      <trkpt lat="47.87011" lon="2.10434">
        <ele>98</ele>
        <time>2016-10-30T09:19:19.000Z</time>
      </trkpt>
      <trkpt lat="47.87011" lon="2.10424">
        <ele>98</ele>
        <time>2016-10-30T09:19:20.000Z</time>
      </trkpt>
      <trkpt lat="47.8701" lon="2.10416">
        <ele>99</ele>
        <time>2016-10-30T09:19:21.000Z</time>
      </trkpt>
      <trkpt lat="47.8701" lon="2.10407">
        <ele>98</ele>
        <time>2016-10-30T09:19:22.000Z</time>
      </trkpt>
      <trkpt lat="47.8701" lon="2.10397">
        <ele>98</ele>
        <time>2016-10-30T09:19:23.000Z</time>
      </trkpt>
      <trkpt lat="47.8701" lon="2.10388">
        <ele>99</ele>
        <time>2016-10-30T09:19:24.000Z</time>
      </trkpt>
      <trkpt lat="47.8701" lon="2.10378">
        <ele>99</ele>
        <time>2016-10-30T09:19:25.000Z</time>
      </trkpt>
      <trkpt lat="47.8701" lon="2.10369">
        <ele>99</ele>
        <time>2016-10-30T09:19:26.000Z</time>
      </trkpt>
      <trkpt lat="47.8701" lon="2.10359">
        <ele>99</ele>
        <time>2016-10-30T09:19:27.000Z</time>
      </trkpt>
      <trkpt lat="47.8701" lon="2.1035">
        <ele>98</ele>
        <time>2016-10-30T09:19:28.000Z</time>
      </trkpt>
      <trkpt lat="47.8701" lon="2.10342">
        <ele>98</ele>
        <time>2016-10-30T09:19:29.000Z</time>
      </trkpt>
      <trkpt lat="47.8701" lon="2.10333">
        <ele>97</ele>
        <time>2016-10-30T09:19:30.000Z</time>
      </trkpt>
      <trkpt lat="47.87011" lon="2.10325">
        <ele>98</ele>
        <time>2016-10-30T09:19:31.000Z</time>
      </trkpt>
      <trkpt lat="47.87011" lon="2.10316">
        <ele>99</ele>
        <time>2016-10-30T09:19:32.000Z</time>
      </trkpt>
      <trkpt lat="47.87011" lon="2.10307">
        <ele>97</ele>
        <time>2016-10-30T09:19:33.000Z</time>
      </trkpt>
      <trkpt lat="47.87011" lon="2.10297">
        <ele>96</ele>
        <time>2016-10-30T09:19:34.000Z</time>
      </trkpt>
      <trkpt lat="47.87011" lon="2.10286">
        <ele>96</ele>
        <time>2016-10-30T09:19:35.000Z</time>
      </trkpt>
      <trkpt lat="47.8701" lon="2.10275">
        <ele>95</ele>
        <time>2016-10-30T09:19:36.000Z</time>
      </trkpt>
      <trkpt lat="47.8701" lon="2.10265">
        <ele>94</ele>
        <time>2016-10-30T09:19:37.000Z</time>
      </trkpt>
      <trkpt lat="47.8701" lon="2.10257">
        <ele>93</ele>
        <time>2016-10-30T09:19:38.000Z</time>
      </trkpt>
      <trkpt lat="47.87009" lon="2.10248">
        <ele>93</ele>
        <time>2016-10-30T09:19:39.000Z</time>
      </trkpt>
      <trkpt lat="47.87009" lon="2.1024">
        <ele>94</ele>
        <time>2016-10-30T09:19:40.000Z</time>
      </trkpt>
      <trkpt lat="47.87009" lon="2.1023">
        <ele>93</ele>
        <time>2016-10-30T09:19:41.000Z</time>
      </trkpt>
      <trkpt lat="47.87009" lon="2.10221">
        <ele>93</ele>
        <time>2016-10-30T09:19:42.000Z</time>
      </trkpt>
      <trkpt lat="47.87009" lon="2.1021">
        <ele>94</ele>
        <time>2016-10-30T09:19:43.000Z</time>
      </trkpt>
      <trkpt lat="47.8701" lon="2.10199">
        <ele>95</ele>
        <time>2016-10-30T09:19:44.000Z</time>
      </trkpt>
      <trkpt lat="47.87012" lon="2.10189">
        <ele>95</ele>
        <time>2016-10-30T09:19:45.000Z</time>
      </trkpt>
      <trkpt lat="47.87012" lon="2.10179">
        <ele>95</ele>
        <time>2016-10-30T09:19:46.000Z</time>
      </trkpt>
      <trkpt lat="47.87012" lon="2.1017">
        <ele>95</ele>
        <time>2016-10-30T09:19:47.000Z</time>
      </trkpt>
      <trkpt lat="47.87012" lon="2.10162">
        <ele>96</ele>
        <time>2016-10-30T09:19:48.000Z</time>
      </trkpt>
      <trkpt lat="47.87011" lon="2.10154">
        <ele>97</ele>
        <time>2016-10-30T09:19:49.000Z</time>
      </trkpt>
      <trkpt lat="47.8701" lon="2.10145">
        <ele>97</ele>
        <time>2016-10-30T09:19:50.000Z</time>
      </trkpt>
      <trkpt lat="47.87009" lon="2.10136">
        <ele>98</ele>
        <time>2016-10-30T09:19:51.000Z</time>
      </trkpt>
      <trkpt lat="47.87009" lon="2.10127">
        <ele>98</ele>
        <time>2016-10-30T09:19:52.000Z</time>
      </trkpt>
      <trkpt lat="47.87009" lon="2.10117">
        <ele>97</ele>
        <time>2016-10-30T09:19:53.000Z</time>
      </trkpt>
      <trkpt lat="47.87008" lon="2.10107">
        <ele>97</ele>
        <time>2016-10-30T09:19:54.000Z</time>
      </trkpt>
      <trkpt lat="47.87007" lon="2.10095">
        <ele>97</ele>
        <time>2016-10-30T09:19:55.000Z</time>
      </trkpt>
      <trkpt lat="47.87007" lon="2.10084">
        <ele>97</ele>
        <time>2016-10-30T09:19:56.000Z</time>
      </trkpt>
      <trkpt lat="47.87006" lon="2.10072">
        <ele>98</ele>
        <time>2016-10-30T09:19:57.000Z</time>
      </trkpt>
      <trkpt lat="47.87005" lon="2.10061">
        <ele>98</ele>
        <time>2016-10-30T09:19:58.000Z</time>
      </trkpt>
      <trkpt lat="47.87005" lon="2.1005">
        <ele>98</ele>
        <time>2016-10-30T09:19:59.000Z</time>
      </trkpt>
      <trkpt lat="47.87004" lon="2.1004">
        <ele>98</ele>
        <time>2016-10-30T09:20:00.000Z</time>
      </trkpt>
      <trkpt lat="47.87004" lon="2.10029">
        <ele>99</ele>
        <time>2016-10-30T09:20:01.000Z</time>
      </trkpt>
      <trkpt lat="47.87003" lon="2.10019">
        <ele>99</ele>
        <time>2016-10-30T09:20:02.000Z</time>
      </trkpt>
      <trkpt lat="47.87003" lon="2.10009">
        <ele>99</ele>
        <time>2016-10-30T09:20:03.000Z</time>
      </trkpt>
      <trkpt lat="47.87003" lon="2.09999">
        <ele>99</ele>
        <time>2016-10-30T09:20:04.000Z</time>
      </trkpt>
      <trkpt lat="47.87002" lon="2.0999">
        <ele>99</ele>
        <time>2016-10-30T09:20:05.000Z</time>
      </trkpt>
      <trkpt lat="47.87002" lon="2.0998">
        <ele>99</ele>
        <time>2016-10-30T09:20:06.000Z</time>
      </trkpt>
      <trkpt lat="47.87001" lon="2.09971">
        <ele>99</ele>
        <time>2016-10-30T09:20:07.000Z</time>
      </trkpt>
      <trkpt lat="47.87" lon="2.09962">
        <ele>99</ele>
        <time>2016-10-30T09:20:08.000Z</time>
      </trkpt>
      <trkpt lat="47.86998" lon="2.09953">
        <ele>99</ele>
        <time>2016-10-30T09:20:09.000Z</time>
      </trkpt>
      <trkpt lat="47.86997" lon="2.09945">
        <ele>99</ele>
        <time>2016-10-30T09:20:10.000Z</time>
      </trkpt>
      <trkpt lat="47.86995" lon="2.09936">
        <ele>100</ele>
        <time>2016-10-30T09:20:11.000Z</time>
      </trkpt>
      <trkpt lat="47.86993" lon="2.09928">
        <ele>100</ele>
        <time>2016-10-30T09:20:12.000Z</time>
      </trkpt>
      <trkpt lat="47.86992" lon="2.09921">
        <ele>101</ele>
        <time>2016-10-30T09:20:13.000Z</time>
      </trkpt>
      <trkpt lat="47.86991" lon="2.09914">
        <ele>101</ele>
        <time>2016-10-30T09:20:14.000Z</time>
      </trkpt>
      <trkpt lat="47.86991" lon="2.09908">
        <ele>101</ele>
        <time>2016-10-30T09:20:15.000Z</time>
      </trkpt>
      <trkpt lat="47.86991" lon="2.09901">
        <ele>101</ele>
        <time>2016-10-30T09:20:16.000Z</time>
      </trkpt>
      <trkpt lat="47.86991" lon="2.09895">
        <ele>102</ele>
        <time>2016-10-30T09:20:17.000Z</time>
      </trkpt>
      <trkpt lat="47.86991" lon="2.09888">
        <ele>101</ele>
        <time>2016-10-30T09:20:18.000Z</time>
      </trkpt>
      <trkpt lat="47.86991" lon="2.09881">
        <ele>101</ele>
        <time>2016-10-30T09:20:19.000Z</time>
      </trkpt>
      <trkpt lat="47.86991" lon="2.09874">
        <ele>101</ele>
        <time>2016-10-30T09:20:20.000Z</time>
      </trkpt>
      <trkpt lat="47.86991" lon="2.09866">
        <ele>101</ele>
        <time>2016-10-30T09:20:21.000Z</time>
      </trkpt>
      <trkpt lat="47.8699" lon="2.09859">
        <ele>101</ele>
        <time>2016-10-30T09:20:22.000Z</time>
      </trkpt>
      <trkpt lat="47.8699" lon="2.09851">
        <ele>101</ele>
        <time>2016-10-30T09:20:23.000Z</time>
      </trkpt>
      <trkpt lat="47.86991" lon="2.09843">
        <ele>101</ele>
        <time>2016-10-30T09:20:24.000Z</time>
      </trkpt>
      <trkpt lat="47.86991" lon="2.09835">
        <ele>101</ele>
        <time>2016-10-30T09:20:25.000Z</time>
      </trkpt>
      <trkpt lat="47.8699" lon="2.09826">
        <ele>101</ele>
        <time>2016-10-30T09:20:26.000Z</time>
      </trkpt>
      <trkpt lat="47.8699" lon="2.09818">
        <ele>101</ele>
        <time>2016-10-30T09:20:27.000Z</time>
      </trkpt>
      <trkpt lat="47.8699" lon="2.09809">
        <ele>101</ele>
        <time>2016-10-30T09:20:28.000Z</time>
      </trkpt>
      <trkpt lat="47.86989" lon="2.09801">
        <ele>101</ele>
        <time>2016-10-30T09:20:29.000Z</time>
      </trkpt>
      <trkpt lat="47.86989" lon="2.09792">
        <ele>101</ele>
        <time>2016-10-30T09:20:30.000Z</time>
      </trkpt>
      <trkpt lat="47.86989" lon="2.09784">
        <ele>101</ele>
        <time>2016-10-30T09:20:31.000Z</time>
      </trkpt>
      <trkpt lat="47.86989" lon="2.09776">
        <ele>101</ele>
        <time>2016-10-30T09:20:32.000Z</time>
      </trkpt>
      <trkpt lat="47.86989" lon="2.09768">
        <ele>101</ele>
        <time>2016-10-30T09:20:33.000Z</time>
      </trkpt>
      <trkpt lat="47.86988" lon="2.09761">
        <ele>101</ele>
        <time>2016-10-30T09:20:34.000Z</time>
      </trkpt>
      <trkpt lat="47.86988" lon="2.09754">
        <ele>101</ele>
        <time>2016-10-30T09:20:35.000Z</time>
      </trkpt>
      <trkpt lat="47.86988" lon="2.09747">
        <ele>101</ele>
        <time>2016-10-30T09:20:36.000Z</time>
      </trkpt>
      <trkpt lat="47.86987" lon="2.09741">
        <ele>101</ele>
        <time>2016-10-30T09:20:37.000Z</time>
      </trkpt>
      <trkpt lat="47.86987" lon="2.09735">
        <ele>101</ele>
        <time>2016-10-30T09:20:38.000Z</time>
      </trkpt>
      <trkpt lat="47.86986" lon="2.09729">
        <ele>101</ele>
        <time>2016-10-30T09:20:39.000Z</time>
      </trkpt>
      <trkpt lat="47.86986" lon="2.09723">
        <ele>101</ele>
        <time>2016-10-30T09:20:40.000Z</time>
      </trkpt>
      <trkpt lat="47.86985" lon="2.09718">
        <ele>100</ele>
        <time>2016-10-30T09:20:41.000Z</time>
      </trkpt>
      <trkpt lat="47.86984" lon="2.09713">
        <ele>100</ele>
        <time>2016-10-30T09:20:42.000Z</time>
      </trkpt>
      <trkpt lat="47.86984" lon="2.09708">
        <ele>100</ele>
        <time>2016-10-30T09:20:43.000Z</time>
      </trkpt>
      <trkpt lat="47.86984" lon="2.09703">
        <ele>100</ele>
        <time>2016-10-30T09:20:44.000Z</time>
      </trkpt>
      <trkpt lat="47.86984" lon="2.09698">
        <ele>100</ele>
        <time>2016-10-30T09:20:45.000Z</time>
      </trkpt>
      <trkpt lat="47.86983" lon="2.09693">
        <ele>100</ele>
        <time>2016-10-30T09:20:46.000Z</time>
      </trkpt>
      <trkpt lat="47.86983" lon="2.09687">
        <ele>100</ele>
        <time>2016-10-30T09:20:47.000Z</time>
      </trkpt>
      <trkpt lat="47.86983" lon="2.09681">
        <ele>101</ele>
        <time>2016-10-30T09:20:48.000Z</time>
      </trkpt>
      <trkpt lat="47.86983" lon="2.09675">
        <ele>100</ele>
        <time>2016-10-30T09:20:49.000Z</time>
      </trkpt>
      <trkpt lat="47.86983" lon="2.0967">
        <ele>101</ele>
        <time>2016-10-30T09:20:50.000Z</time>
      </trkpt>
      <trkpt lat="47.86983" lon="2.09664">
        <ele>100</ele>
        <time>2016-10-30T09:20:51.000Z</time>
      </trkpt>
      <trkpt lat="47.86983" lon="2.09659">
        <ele>100</ele>
        <time>2016-10-30T09:20:52.000Z</time>
      </trkpt>
      <trkpt lat="47.86983" lon="2.09653">
        <ele>100</ele>
        <time>2016-10-30T09:20:53.000Z</time>
      </trkpt>
      <trkpt lat="47.86983" lon="2.09647">
        <ele>99</ele>
        <time>2016-10-30T09:20:54.000Z</time>
      </trkpt>
      <trkpt lat="47.86983" lon="2.0964">
        <ele>98</ele>
        <time>2016-10-30T09:20:55.000Z</time>
      </trkpt>
      <trkpt lat="47.86982" lon="2.09634">
        <ele>98</ele>
        <time>2016-10-30T09:20:56.000Z</time>
      </trkpt>
      <trkpt lat="47.86982" lon="2.09628">
        <ele>98</ele>
        <time>2016-10-30T09:20:57.000Z</time>
      </trkpt>
      <trkpt lat="47.86982" lon="2.09622">
        <ele>98</ele>
        <time>2016-10-30T09:20:58.000Z</time>
      </trkpt>
      <trkpt lat="47.86981" lon="2.09616">
        <ele>97</ele>
        <time>2016-10-30T09:20:59.000Z</time>
      </trkpt>
      <trkpt lat="47.86981" lon="2.0961">
        <ele>97</ele>
        <time>2016-10-30T09:21:00.000Z</time>
      </trkpt>
      <trkpt lat="47.86981" lon="2.09604">
        <ele>97</ele>
        <time>2016-10-30T09:21:01.000Z</time>
      </trkpt>
      <trkpt lat="47.86981" lon="2.09597">
        <ele>97</ele>
        <time>2016-10-30T09:21:02.000Z</time>
      </trkpt>
      <trkpt lat="47.86981" lon="2.0959">
        <ele>98</ele>
        <time>2016-10-30T09:21:03.000Z</time>
      </trkpt>
      <trkpt lat="47.86981" lon="2.09583">
        <ele>98</ele>
        <time>2016-10-30T09:21:04.000Z</time>
      </trkpt>
      <trkpt lat="47.86981" lon="2.09576">
        <ele>98</ele>
        <time>2016-10-30T09:21:05.000Z</time>
      </trkpt>
      <trkpt lat="47.86981" lon="2.09568">
        <ele>99</ele>
        <time>2016-10-30T09:21:06.000Z</time>
      </trkpt>
      <trkpt lat="47.86982" lon="2.09561">
        <ele>99</ele>
        <time>2016-10-30T09:21:07.000Z</time>
      </trkpt>
      <trkpt lat="47.86982" lon="2.09553">
        <ele>100</ele>
        <time>2016-10-30T09:21:08.000Z</time>
      </trkpt>
      <trkpt lat="47.86982" lon="2.09546">
        <ele>100</ele>
        <time>2016-10-30T09:21:09.000Z</time>
      </trkpt>
      <trkpt lat="47.86982" lon="2.09537">
        <ele>99</ele>
        <time>2016-10-30T09:21:10.000Z</time>
      </trkpt>
      <trkpt lat="47.86982" lon="2.09529">
        <ele>99</ele>
        <time>2016-10-30T09:21:11.000Z</time>
      </trkpt>
      <trkpt lat="47.86982" lon="2.09521">
        <ele>99</ele>
        <time>2016-10-30T09:21:12.000Z</time>
      </trkpt>
      <trkpt lat="47.86982" lon="2.09512">
        <ele>99</ele>
        <time>2016-10-30T09:21:13.000Z</time>
      </trkpt>
      <trkpt lat="47.86982" lon="2.09504">
        <ele>99</ele>
        <time>2016-10-30T09:21:14.000Z</time>
      </trkpt>
      <trkpt lat="47.86982" lon="2.09496">
        <ele>99</ele>
        <time>2016-10-30T09:21:15.000Z</time>
      </trkpt>
      <trkpt lat="47.86982" lon="2.09488">
        <ele>99</ele>
        <time>2016-10-30T09:21:16.000Z</time>
      </trkpt>
      <trkpt lat="47.86982" lon="2.0948">
        <ele>99</ele>
        <time>2016-10-30T09:21:17.000Z</time>
      </trkpt>
      <trkpt lat="47.86982" lon="2.09474">
        <ele>99</ele>
        <time>2016-10-30T09:21:18.000Z</time>
      </trkpt>
      <trkpt lat="47.86981" lon="2.09468">
        <ele>99</ele>
        <time>2016-10-30T09:21:19.000Z</time>
      </trkpt>
      <trkpt lat="47.8698" lon="2.09463">
        <ele>99</ele>
        <time>2016-10-30T09:21:20.000Z</time>
      </trkpt>
      <trkpt lat="47.86978" lon="2.09459">
        <ele>99</ele>
        <time>2016-10-30T09:21:21.000Z</time>
      </trkpt>
      <trkpt lat="47.86975" lon="2.09455">
        <ele>99</ele>
        <time>2016-10-30T09:21:22.000Z</time>
      </trkpt>
      <trkpt lat="47.86973" lon="2.09452">
        <ele>99</ele>
        <time>2016-10-30T09:21:23.000Z</time>
      </trkpt>
      <trkpt lat="47.86971" lon="2.09448">
        <ele>99</ele>
        <time>2016-10-30T09:21:24.000Z</time>
      </trkpt>
      <trkpt lat="47.86969" lon="2.09443">
        <ele>100</ele>
        <time>2016-10-30T09:21:25.000Z</time>
      </trkpt>
      <trkpt lat="47.86968" lon="2.09437">
        <ele>100</ele>
        <time>2016-10-30T09:21:26.000Z</time>
      </trkpt>
      <trkpt lat="47.86968" lon="2.0943">
        <ele>100</ele>
        <time>2016-10-30T09:21:27.000Z</time>
      </trkpt>
      <trkpt lat="47.86968" lon="2.09423">
        <ele>100</ele>
        <time>2016-10-30T09:21:28.000Z</time>
      </trkpt>
      <trkpt lat="47.86969" lon="2.09417">
        <ele>100</ele>
        <time>2016-10-30T09:21:29.000Z</time>
      </trkpt>
      <trkpt lat="47.86969" lon="2.09411">
        <ele>100</ele>
        <time>2016-10-30T09:21:30.000Z</time>
      </trkpt>
      <trkpt lat="47.86969" lon="2.09405">
        <ele>100</ele>
        <time>2016-10-30T09:21:31.000Z</time>
      </trkpt>
      <trkpt lat="47.86967" lon="2.09397">
        <ele>98</ele>
        <time>2016-10-30T09:21:32.000Z</time>
      </trkpt>
      <trkpt lat="47.86966" lon="2.0939">
        <ele>97</ele>
        <time>2016-10-30T09:21:33.000Z</time>
      </trkpt>
      <trkpt lat="47.86965" lon="2.09383">
        <ele>99</ele>
        <time>2016-10-30T09:21:34.000Z</time>
      </trkpt>
      <trkpt lat="47.86965" lon="2.09374">
        <ele>99</ele>
        <time>2016-10-30T09:21:35.000Z</time>
      </trkpt>
      <trkpt lat="47.86965" lon="2.09366">
        <ele>99</ele>
        <time>2016-10-30T09:21:36.000Z</time>
      </trkpt>
      <trkpt lat="47.86965" lon="2.09357">
        <ele>98</ele>
        <time>2016-10-30T09:21:37.000Z</time>
      </trkpt>
      <trkpt lat="47.86964" lon="2.09349">
        <ele>98</ele>
        <time>2016-10-30T09:21:38.000Z</time>
      </trkpt>
      <trkpt lat="47.86963" lon="2.0934">
        <ele>99</ele>
        <time>2016-10-30T09:21:39.000Z</time>
      </trkpt>
      <trkpt lat="47.86964" lon="2.09333">
        <ele>99</ele>
        <time>2016-10-30T09:21:40.000Z</time>
      </trkpt>
      <trkpt lat="47.86964" lon="2.09325">
        <ele>99</ele>
        <time>2016-10-30T09:21:41.000Z</time>
      </trkpt>
      <trkpt lat="47.86964" lon="2.09318">
        <ele>100</ele>
        <time>2016-10-30T09:21:42.000Z</time>
      </trkpt>
      <trkpt lat="47.86962" lon="2.09313">
        <ele>100</ele>
        <time>2016-10-30T09:21:43.000Z</time>
      </trkpt>
      <trkpt lat="47.86961" lon="2.09309">
        <ele>101</ele>
        <time>2016-10-30T09:21:44.000Z</time>
      </trkpt>
      <trkpt lat="47.86959" lon="2.09306">
        <ele>101</ele>
        <time>2016-10-30T09:21:45.000Z</time>
      </trkpt>
      <trkpt lat="47.86959" lon="2.09302">
        <ele>103</ele>
        <time>2016-10-30T09:21:46.000Z</time>
      </trkpt>
      <trkpt lat="47.86959" lon="2.09296">
        <ele>105</ele>
        <time>2016-10-30T09:21:47.000Z</time>
      </trkpt>
      <trkpt lat="47.8696" lon="2.09291">
        <ele>105</ele>
        <time>2016-10-30T09:21:48.000Z</time>
      </trkpt>
      <trkpt lat="47.86961" lon="2.09286">
        <ele>104</ele>
        <time>2016-10-30T09:21:49.000Z</time>
      </trkpt>
      <trkpt lat="47.86961" lon="2.0928">
        <ele>105</ele>
        <time>2016-10-30T09:21:50.000Z</time>
      </trkpt>
      <trkpt lat="47.86961" lon="2.09275">
        <ele>105</ele>
        <time>2016-10-30T09:21:51.000Z</time>
      </trkpt>
      <trkpt lat="47.8696" lon="2.0927">
        <ele>105</ele>
        <time>2016-10-30T09:21:52.000Z</time>
      </trkpt>
      <trkpt lat="47.8696" lon="2.09265">
        <ele>105</ele>
        <time>2016-10-30T09:21:53.000Z</time>
      </trkpt>
      <trkpt lat="47.8696" lon="2.09261">
        <ele>105</ele>
        <time>2016-10-30T09:21:54.000Z</time>
      </trkpt>
      <trkpt lat="47.8696" lon="2.09256">
        <ele>105</ele>
        <time>2016-10-30T09:21:55.000Z</time>
      </trkpt>
      <trkpt lat="47.86959" lon="2.09251">
        <ele>106</ele>
        <time>2016-10-30T09:21:56.000Z</time>
      </trkpt>
      <trkpt lat="47.86958" lon="2.09246">
        <ele>105</ele>
        <time>2016-10-30T09:21:57.000Z</time>
      </trkpt>
      <trkpt lat="47.86957" lon="2.09242">
        <ele>105</ele>
        <time>2016-10-30T09:21:58.000Z</time>
      </trkpt>
      <trkpt lat="47.86956" lon="2.09238">
        <ele>104</ele>
        <time>2016-10-30T09:21:59.000Z</time>
      </trkpt>
      <trkpt lat="47.86956" lon="2.09233">
        <ele>103</ele>
        <time>2016-10-30T09:22:00.000Z</time>
      </trkpt>
      <trkpt lat="47.86955" lon="2.09228">
        <ele>102</ele>
        <time>2016-10-30T09:22:01.000Z</time>
      </trkpt>
      <trkpt lat="47.86955" lon="2.09222">
        <ele>102</ele>
        <time>2016-10-30T09:22:02.000Z</time>
      </trkpt>
      <trkpt lat="47.86955" lon="2.09216">
        <ele>103</ele>
        <time>2016-10-30T09:22:03.000Z</time>
      </trkpt>
      <trkpt lat="47.86955" lon="2.0921">
        <ele>104</ele>
        <time>2016-10-30T09:22:04.000Z</time>
      </trkpt>
      <trkpt lat="47.86955" lon="2.09203">
        <ele>103</ele>
        <time>2016-10-30T09:22:05.000Z</time>
      </trkpt>
      <trkpt lat="47.86956" lon="2.09196">
        <ele>103</ele>
        <time>2016-10-30T09:22:06.000Z</time>
      </trkpt>
      <trkpt lat="47.86958" lon="2.09188">
        <ele>103</ele>
        <time>2016-10-30T09:22:07.000Z</time>
      </trkpt>
      <trkpt lat="47.86959" lon="2.0918">
        <ele>102</ele>
        <time>2016-10-30T09:22:08.000Z</time>
      </trkpt>
      <trkpt lat="47.86959" lon="2.09172">
        <ele>102</ele>
        <time>2016-10-30T09:22:09.000Z</time>
      </trkpt>
      <trkpt lat="47.86958" lon="2.09165">
        <ele>101</ele>
        <time>2016-10-30T09:22:10.000Z</time>
      </trkpt>
      <trkpt lat="47.86958" lon="2.09159">
        <ele>101</ele>
        <time>2016-10-30T09:22:11.000Z</time>
      </trkpt>
      <trkpt lat="47.86959" lon="2.09153">
        <ele>101</ele>
        <time>2016-10-30T09:22:12.000Z</time>
      </trkpt>
      <trkpt lat="47.8696" lon="2.09148">
        <ele>100</ele>
        <time>2016-10-30T09:22:13.000Z</time>
      </trkpt>
      <trkpt lat="47.86963" lon="2.09144">
        <ele>100</ele>
        <time>2016-10-30T09:22:14.000Z</time>
      </trkpt>
      <trkpt lat="47.86966" lon="2.0914">
        <ele>100</ele>
        <time>2016-10-30T09:22:15.000Z</time>
      </trkpt>
      <trkpt lat="47.86968" lon="2.09135">
        <ele>100</ele>
        <time>2016-10-30T09:22:16.000Z</time>
      </trkpt>
      <trkpt lat="47.86969" lon="2.09128">
        <ele>100</ele>
        <time>2016-10-30T09:22:17.000Z</time>
      </trkpt>
      <trkpt lat="47.86969" lon="2.09122">
        <ele>100</ele>
        <time>2016-10-30T09:22:18.000Z</time>
      </trkpt>
      <trkpt lat="47.8697" lon="2.09115">
        <ele>100</ele>
        <time>2016-10-30T09:22:19.000Z</time>
      </trkpt>
      <trkpt lat="47.8697" lon="2.09108">
        <ele>100</ele>
        <time>2016-10-30T09:22:20.000Z</time>
      </trkpt>
      <trkpt lat="47.86971" lon="2.09102">
        <ele>100</ele>
        <time>2016-10-30T09:22:21.000Z</time>
      </trkpt>
      <trkpt lat="47.86971" lon="2.09095">
        <ele>100</ele>
        <time>2016-10-30T09:22:22.000Z</time>
      </trkpt>
      <trkpt lat="47.86971" lon="2.0909">
        <ele>100</ele>
        <time>2016-10-30T09:22:23.000Z</time>
      </trkpt>
      <trkpt lat="47.86971" lon="2.09084">
        <ele>100</ele>
        <time>2016-10-30T09:22:24.000Z</time>
      </trkpt>
      <trkpt lat="47.86972" lon="2.09078">
        <ele>100</ele>
        <time>2016-10-30T09:22:25.000Z</time>
      </trkpt>
      <trkpt lat="47.86973" lon="2.09072">
        <ele>101</ele>
        <time>2016-10-30T09:22:26.000Z</time>
      </trkpt>
      <trkpt lat="47.86974" lon="2.09065">
        <ele>101</ele>
        <time>2016-10-30T09:22:27.000Z</time>
      </trkpt>
      <trkpt lat="47.86975" lon="2.09058">
        <ele>100</ele>
        <time>2016-10-30T09:22:28.000Z</time>
      </trkpt>
      <trkpt lat="47.86975" lon="2.09051">
        <ele>100</ele>
        <time>2016-10-30T09:22:29.000Z</time>
      </trkpt>
      <trkpt lat="47.86976" lon="2.09044">
        <ele>100</ele>
        <time>2016-10-30T09:22:30.000Z</time>
      </trkpt>
      <trkpt lat="47.86976" lon="2.09037">
        <ele>100</ele>
        <time>2016-10-30T09:22:31.000Z</time>
      </trkpt>
      <trkpt lat="47.86977" lon="2.0903">
        <ele>101</ele>
        <time>2016-10-30T09:22:32.000Z</time>
      </trkpt>
      <trkpt lat="47.86977" lon="2.09023">
        <ele>101</ele>
        <time>2016-10-30T09:22:33.000Z</time>
      </trkpt>
      <trkpt lat="47.86978" lon="2.09016">
        <ele>100</ele>
        <time>2016-10-30T09:22:34.000Z</time>
      </trkpt>
      <trkpt lat="47.86977" lon="2.09009">
        <ele>100</ele>
        <time>2016-10-30T09:22:35.000Z</time>
      </trkpt>
      <trkpt lat="47.86977" lon="2.09002">
        <ele>100</ele>
        <time>2016-10-30T09:22:36.000Z</time>
      </trkpt>
      <trkpt lat="47.86977" lon="2.08995">
        <ele>100</ele>
        <time>2016-10-30T09:22:37.000Z</time>
      </trkpt>
      <trkpt lat="47.86976" lon="2.08989">
        <ele>100</ele>
        <time>2016-10-30T09:22:38.000Z</time>
      </trkpt>
      <trkpt lat="47.86975" lon="2.08984">
        <ele>100</ele>
        <time>2016-10-30T09:22:39.000Z</time>
      </trkpt>
      <trkpt lat="47.86973" lon="2.08982">
        <ele>101</ele>
        <time>2016-10-30T09:22:40.000Z</time>
      </trkpt>
      <trkpt lat="47.86971" lon="2.08981">
        <ele>101</ele>
        <time>2016-10-30T09:22:41.000Z</time>
      </trkpt>
      <trkpt lat="47.86968" lon="2.08982">
        <ele>101</ele>
        <time>2016-10-30T09:22:42.000Z</time>
      </trkpt>
      <trkpt lat="47.86966" lon="2.08983">
        <ele>102</ele>
        <time>2016-10-30T09:22:43.000Z</time>
      </trkpt>
      <trkpt lat="47.86963" lon="2.08985">
        <ele>102</ele>
        <time>2016-10-30T09:22:44.000Z</time>
      </trkpt>
      <trkpt lat="47.8696" lon="2.08987">
        <ele>102</ele>
        <time>2016-10-30T09:22:45.000Z</time>
      </trkpt>
      <trkpt lat="47.86956" lon="2.08989">
        <ele>103</ele>
        <time>2016-10-30T09:22:46.000Z</time>
      </trkpt>
      <trkpt lat="47.86952" lon="2.0899">
        <ele>102</ele>
        <time>2016-10-30T09:22:47.000Z</time>
      </trkpt>
      <trkpt lat="47.86947" lon="2.08993">
        <ele>103</ele>
        <time>2016-10-30T09:22:48.000Z</time>
      </trkpt>
      <trkpt lat="47.86942" lon="2.08996">
        <ele>103</ele>
        <time>2016-10-30T09:22:49.000Z</time>
      </trkpt>
      <trkpt lat="47.86938" lon="2.08998">
        <ele>103</ele>
        <time>2016-10-30T09:22:50.000Z</time>
      </trkpt>
      <trkpt lat="47.86933" lon="2.09001">
        <ele>102</ele>
        <time>2016-10-30T09:22:51.000Z</time>
      </trkpt>
      <trkpt lat="47.86928" lon="2.09005">
        <ele>102</ele>
        <time>2016-10-30T09:22:52.000Z</time>
      </trkpt>
      <trkpt lat="47.86923" lon="2.09008">
        <ele>101</ele>
        <time>2016-10-30T09:22:53.000Z</time>
      </trkpt>
      <trkpt lat="47.86918" lon="2.09012">
        <ele>101</ele>
        <time>2016-10-30T09:22:54.000Z</time>
      </trkpt>
      <trkpt lat="47.86913" lon="2.09015">
        <ele>100</ele>
        <time>2016-10-30T09:22:55.000Z</time>
      </trkpt>
      <trkpt lat="47.86908" lon="2.09017">
        <ele>99</ele>
        <time>2016-10-30T09:22:56.000Z</time>
      </trkpt>
      <trkpt lat="47.86904" lon="2.09016">
        <ele>97</ele>
        <time>2016-10-30T09:22:57.000Z</time>
      </trkpt>
      <trkpt lat="47.869" lon="2.09013">
        <ele>97</ele>
        <time>2016-10-30T09:22:58.000Z</time>
      </trkpt>
      <trkpt lat="47.86897" lon="2.09008">
        <ele>96</ele>
        <time>2016-10-30T09:22:59.000Z</time>
      </trkpt>
      <trkpt lat="47.86894" lon="2.09002">
        <ele>96</ele>
        <time>2016-10-30T09:23:00.000Z</time>
      </trkpt>
      <trkpt lat="47.86892" lon="2.08996">
        <ele>97</ele>
        <time>2016-10-30T09:23:01.000Z</time>
      </trkpt>
      <trkpt lat="47.8689" lon="2.0899">
        <ele>97</ele>
        <time>2016-10-30T09:23:02.000Z</time>
      </trkpt>
      <trkpt lat="47.86887" lon="2.08983">
        <ele>97</ele>
        <time>2016-10-30T09:23:03.000Z</time>
      </trkpt>
      <trkpt lat="47.86885" lon="2.08976">
        <ele>98</ele>
        <time>2016-10-30T09:23:04.000Z</time>
      </trkpt>
      <trkpt lat="47.86883" lon="2.0897">
        <ele>98</ele>
        <time>2016-10-30T09:23:05.000Z</time>
      </trkpt>
      <trkpt lat="47.8688" lon="2.08963">
        <ele>98</ele>
        <time>2016-10-30T09:23:06.000Z</time>
      </trkpt>
      <trkpt lat="47.86878" lon="2.08957">
        <ele>98</ele>
        <time>2016-10-30T09:23:07.000Z</time>
      </trkpt>
      <trkpt lat="47.86876" lon="2.0895">
        <ele>98</ele>
        <time>2016-10-30T09:23:08.000Z</time>
      </trkpt>
      <trkpt lat="47.86874" lon="2.08944">
        <ele>98</ele>
        <time>2016-10-30T09:23:09.000Z</time>
      </trkpt>
      <trkpt lat="47.86872" lon="2.08938">
        <ele>98</ele>
        <time>2016-10-30T09:23:10.000Z</time>
      </trkpt>
      <trkpt lat="47.8687" lon="2.08931">
        <ele>98</ele>
        <time>2016-10-30T09:23:11.000Z</time>
      </trkpt>
      <trkpt lat="47.86868" lon="2.08925">
        <ele>98</ele>
        <time>2016-10-30T09:23:12.000Z</time>
      </trkpt>
      <trkpt lat="47.86866" lon="2.08919">
        <ele>98</ele>
        <time>2016-10-30T09:23:13.000Z</time>
      </trkpt>
      <trkpt lat="47.86864" lon="2.08914">
        <ele>98</ele>
        <time>2016-10-30T09:23:14.000Z</time>
      </trkpt>
      <trkpt lat="47.86862" lon="2.08908">
        <ele>98</ele>
        <time>2016-10-30T09:23:15.000Z</time>
      </trkpt>
      <trkpt lat="47.8686" lon="2.08902">
        <ele>98</ele>
        <time>2016-10-30T09:23:16.000Z</time>
      </trkpt>
      <trkpt lat="47.86858" lon="2.08895">
        <ele>98</ele>
        <time>2016-10-30T09:23:17.000Z</time>
      </trkpt>
      <trkpt lat="47.86856" lon="2.08889">
        <ele>98</ele>
        <time>2016-10-30T09:23:18.000Z</time>
      </trkpt>
      <trkpt lat="47.86854" lon="2.08883">
        <ele>98</ele>
        <time>2016-10-30T09:23:19.000Z</time>
      </trkpt>
      <trkpt lat="47.86853" lon="2.08877">
        <ele>98</ele>
        <time>2016-10-30T09:23:20.000Z</time>
      </trkpt>
      <trkpt lat="47.86854" lon="2.08872">
        <ele>100</ele>
        <time>2016-10-30T09:23:21.000Z</time>
      </trkpt>
      <trkpt lat="47.86855" lon="2.08866">
        <ele>101</ele>
        <time>2016-10-30T09:23:22.000Z</time>
      </trkpt>
      <trkpt lat="47.86856" lon="2.0886">
        <ele>100</ele>
        <time>2016-10-30T09:23:23.000Z</time>
      </trkpt>
      <trkpt lat="47.86858" lon="2.08854">
        <ele>101</ele>
        <time>2016-10-30T09:23:24.000Z</time>
      </trkpt>
      <trkpt lat="47.86861" lon="2.08848">
        <ele>101</ele>
        <time>2016-10-30T09:23:25.000Z</time>
      </trkpt>
      <trkpt lat="47.86864" lon="2.08843">
        <ele>102</ele>
        <time>2016-10-30T09:23:26.000Z</time>
      </trkpt>
      <trkpt lat="47.86867" lon="2.08839">
        <ele>102</ele>
        <time>2016-10-30T09:23:27.000Z</time>
      </trkpt>
      <trkpt lat="47.8687" lon="2.08834">
        <ele>102</ele>
        <time>2016-10-30T09:23:28.000Z</time>
      </trkpt>
      <trkpt lat="47.86873" lon="2.08829">
        <ele>103</ele>
        <time>2016-10-30T09:23:29.000Z</time>
      </trkpt>
      <trkpt lat="47.86876" lon="2.08824">
        <ele>103</ele>
        <time>2016-10-30T09:23:30.000Z</time>
      </trkpt>
      <trkpt lat="47.8688" lon="2.08819">
        <ele>104</ele>
        <time>2016-10-30T09:23:31.000Z</time>
      </trkpt>
      <trkpt lat="47.86883" lon="2.08815">
        <ele>103</ele>
        <time>2016-10-30T09:23:32.000Z</time>
      </trkpt>
      <trkpt lat="47.86885" lon="2.0881">
        <ele>103</ele>
        <time>2016-10-30T09:23:33.000Z</time>
      </trkpt>
      <trkpt lat="47.86886" lon="2.08806">
        <ele>106</ele>
        <time>2016-10-30T09:23:34.000Z</time>
      </trkpt>
      <trkpt lat="47.86885" lon="2.08801">
        <ele>106</ele>
        <time>2016-10-30T09:23:35.000Z</time>
      </trkpt>
      <trkpt lat="47.86882" lon="2.08797">
        <ele>105</ele>
        <time>2016-10-30T09:23:36.000Z</time>
      </trkpt>
      <trkpt lat="47.86879" lon="2.0879">
        <ele>105</ele>
        <time>2016-10-30T09:23:37.000Z</time>
      </trkpt>
      <trkpt lat="47.86875" lon="2.08784">
        <ele>105</ele>
        <time>2016-10-30T09:23:38.000Z</time>
      </trkpt>
      <trkpt lat="47.86871" lon="2.08777">
        <ele>104</ele>
        <time>2016-10-30T09:23:39.000Z</time>
      </trkpt>
      <trkpt lat="47.86868" lon="2.08771">
        <ele>104</ele>
        <time>2016-10-30T09:23:40.000Z</time>
      </trkpt>
      <trkpt lat="47.86865" lon="2.08765">
        <ele>104</ele>
        <time>2016-10-30T09:23:41.000Z</time>
      </trkpt>
      <trkpt lat="47.86862" lon="2.08759">
        <ele>104</ele>
        <time>2016-10-30T09:23:42.000Z</time>
      </trkpt>
      <trkpt lat="47.86858" lon="2.08754">
        <ele>104</ele>
        <time>2016-10-30T09:23:43.000Z</time>
      </trkpt>
      <trkpt lat="47.86855" lon="2.08748">
        <ele>104</ele>
        <time>2016-10-30T09:23:44.000Z</time>
      </trkpt>
      <trkpt lat="47.86853" lon="2.08742">
        <ele>104</ele>
        <time>2016-10-30T09:23:45.000Z</time>
      </trkpt>
      <trkpt lat="47.86851" lon="2.08736">
        <ele>104</ele>
        <time>2016-10-30T09:23:46.000Z</time>
      </trkpt>
      <trkpt lat="47.86851" lon="2.0873">
        <ele>103</ele>
        <time>2016-10-30T09:23:47.000Z</time>
      </trkpt>
      <trkpt lat="47.86852" lon="2.08723">
        <ele>104</ele>
        <time>2016-10-30T09:23:48.000Z</time>
      </trkpt>
      <trkpt lat="47.86854" lon="2.08717">
        <ele>104</ele>
        <time>2016-10-30T09:23:49.000Z</time>
      </trkpt>
      <trkpt lat="47.86856" lon="2.08712">
        <ele>105</ele>
        <time>2016-10-30T09:23:50.000Z</time>
      </trkpt>
      <trkpt lat="47.86858" lon="2.08706">
        <ele>105</ele>
        <time>2016-10-30T09:23:51.000Z</time>
      </trkpt>
      <trkpt lat="47.8686" lon="2.087">
        <ele>105</ele>
        <time>2016-10-30T09:23:52.000Z</time>
      </trkpt>
      <trkpt lat="47.86861" lon="2.08694">
        <ele>106</ele>
        <time>2016-10-30T09:23:53.000Z</time>
      </trkpt>
      <trkpt lat="47.86862" lon="2.08688">
        <ele>106</ele>
        <time>2016-10-30T09:23:54.000Z</time>
      </trkpt>
      <trkpt lat="47.86863" lon="2.08681">
        <ele>106</ele>
        <time>2016-10-30T09:23:55.000Z</time>
      </trkpt>
      <trkpt lat="47.86863" lon="2.08674">
        <ele>107</ele>
        <time>2016-10-30T09:23:56.000Z</time>
      </trkpt>
      <trkpt lat="47.86864" lon="2.08668">
        <ele>107</ele>
        <time>2016-10-30T09:23:57.000Z</time>
      </trkpt>
      <trkpt lat="47.86865" lon="2.08662">
        <ele>107</ele>
        <time>2016-10-30T09:23:58.000Z</time>
      </trkpt>
      <trkpt lat="47.86867" lon="2.08656">
        <ele>107</ele>
        <time>2016-10-30T09:23:59.000Z</time>
      </trkpt>
      <trkpt lat="47.8687" lon="2.08651">
        <ele>108</ele>
        <time>2016-10-30T09:24:00.000Z</time>
      </trkpt>
      <trkpt lat="47.86873" lon="2.08646">
        <ele>108</ele>
        <time>2016-10-30T09:24:01.000Z</time>
      </trkpt>
      <trkpt lat="47.86876" lon="2.08641">
        <ele>108</ele>
        <time>2016-10-30T09:24:02.000Z</time>
      </trkpt>
      <trkpt lat="47.86879" lon="2.08636">
        <ele>108</ele>
        <time>2016-10-30T09:24:03.000Z</time>
      </trkpt>
      <trkpt lat="47.86882" lon="2.08631">
        <ele>108</ele>
        <time>2016-10-30T09:24:04.000Z</time>
      </trkpt>
      <trkpt lat="47.86886" lon="2.08626">
        <ele>108</ele>
        <time>2016-10-30T09:24:05.000Z</time>
      </trkpt>
      <trkpt lat="47.86889" lon="2.08622">
        <ele>108</ele>
        <time>2016-10-30T09:24:06.000Z</time>
      </trkpt>
      <trkpt lat="47.86892" lon="2.08617">
        <ele>108</ele>
        <time>2016-10-30T09:24:07.000Z</time>
      </trkpt>
      <trkpt lat="47.86896" lon="2.08612">
        <ele>108</ele>
        <time>2016-10-30T09:24:08.000Z</time>
      </trkpt>
      <trkpt lat="47.86899" lon="2.08608">
        <ele>108</ele>
        <time>2016-10-30T09:24:09.000Z</time>
      </trkpt>
      <trkpt lat="47.86902" lon="2.08604">
        <ele>108</ele>
        <time>2016-10-30T09:24:10.000Z</time>
      </trkpt>
      <trkpt lat="47.86905" lon="2.08599">
        <ele>108</ele>
        <time>2016-10-30T09:24:11.000Z</time>
      </trkpt>
      <trkpt lat="47.86908" lon="2.08594">
        <ele>107</ele>
        <time>2016-10-30T09:24:12.000Z</time>
      </trkpt>
      <trkpt lat="47.86912" lon="2.08589">
        <ele>107</ele>
        <time>2016-10-30T09:24:13.000Z</time>
      </trkpt>
      <trkpt lat="47.86915" lon="2.08584">
        <ele>107</ele>
        <time>2016-10-30T09:24:14.000Z</time>
      </trkpt>
      <trkpt lat="47.86919" lon="2.08579">
        <ele>106</ele>
        <time>2016-10-30T09:24:15.000Z</time>
      </trkpt>
      <trkpt lat="47.86922" lon="2.08573">
        <ele>106</ele>
        <time>2016-10-30T09:24:16.000Z</time>
      </trkpt>
      <trkpt lat="47.86924" lon="2.08568">
        <ele>105</ele>
        <time>2016-10-30T09:24:17.000Z</time>
      </trkpt>
      <trkpt lat="47.86926" lon="2.08563">
        <ele>105</ele>
        <time>2016-10-30T09:24:18.000Z</time>
      </trkpt>
      <trkpt lat="47.86927" lon="2.08557">
        <ele>105</ele>
        <time>2016-10-30T09:24:19.000Z</time>
      </trkpt>
      <trkpt lat="47.86929" lon="2.08552">
        <ele>105</ele>
        <time>2016-10-30T09:24:20.000Z</time>
      </trkpt>
      <trkpt lat="47.86931" lon="2.08547">
        <ele>105</ele>
        <time>2016-10-30T09:24:21.000Z</time>
      </trkpt>
      <trkpt lat="47.86933" lon="2.08542">
        <ele>104</ele>
        <time>2016-10-30T09:24:22.000Z</time>
      </trkpt>
      <trkpt lat="47.86936" lon="2.08538">
        <ele>104</ele>
        <time>2016-10-30T09:24:23.000Z</time>
      </trkpt>
      <trkpt lat="47.86939" lon="2.08533">
        <ele>105</ele>
        <time>2016-10-30T09:24:24.000Z</time>
      </trkpt>
      <trkpt lat="47.86941" lon="2.08529">
        <ele>105</ele>
        <time>2016-10-30T09:24:25.000Z</time>
      </trkpt>
      <trkpt lat="47.86943" lon="2.08525">
        <ele>106</ele>
        <time>2016-10-30T09:24:26.000Z</time>
      </trkpt>
      <trkpt lat="47.86945" lon="2.08521">
        <ele>106</ele>
        <time>2016-10-30T09:24:27.000Z</time>
      </trkpt>
      <trkpt lat="47.86947" lon="2.08517">
        <ele>107</ele>
        <time>2016-10-30T09:24:28.000Z</time>
      </trkpt>
      <trkpt lat="47.8695" lon="2.08513">
        <ele>108</ele>
        <time>2016-10-30T09:24:29.000Z</time>
      </trkpt>
      <trkpt lat="47.86952" lon="2.08507">
        <ele>106</ele>
        <time>2016-10-30T09:24:30.000Z</time>
      </trkpt>
      <trkpt lat="47.86954" lon="2.085">
        <ele>105</ele>
        <time>2016-10-30T09:24:31.000Z</time>
      </trkpt>
      <trkpt lat="47.86955" lon="2.08492">
        <ele>106</ele>
        <time>2016-10-30T09:24:32.000Z</time>
      </trkpt>
      <trkpt lat="47.86955" lon="2.08486">
        <ele>105</ele>
        <time>2016-10-30T09:24:33.000Z</time>
      </trkpt>
      <trkpt lat="47.86954" lon="2.0848">
        <ele>104</ele>
        <time>2016-10-30T09:24:34.000Z</time>
      </trkpt>
      <trkpt lat="47.86953" lon="2.08474">
        <ele>104</ele>
        <time>2016-10-30T09:24:35.000Z</time>
      </trkpt>
      <trkpt lat="47.86953" lon="2.08467">
        <ele>102</ele>
        <time>2016-10-30T09:24:36.000Z</time>
      </trkpt>
      <trkpt lat="47.86953" lon="2.08461">
        <ele>101</ele>
        <time>2016-10-30T09:24:37.000Z</time>
      </trkpt>
      <trkpt lat="47.86954" lon="2.08454">
        <ele>100</ele>
        <time>2016-10-30T09:24:38.000Z</time>
      </trkpt>
      <trkpt lat="47.86954" lon="2.08448">
        <ele>99</ele>
        <time>2016-10-30T09:24:39.000Z</time>
      </trkpt>
      <trkpt lat="47.86954" lon="2.08442">
        <ele>98</ele>
        <time>2016-10-30T09:24:40.000Z</time>
      </trkpt>
      <trkpt lat="47.86954" lon="2.08436">
        <ele>98</ele>
        <time>2016-10-30T09:24:41.000Z</time>
      </trkpt>
      <trkpt lat="47.86953" lon="2.0843">
        <ele>97</ele>
        <time>2016-10-30T09:24:42.000Z</time>
      </trkpt>
      <trkpt lat="47.86953" lon="2.08423">
        <ele>97</ele>
        <time>2016-10-30T09:24:43.000Z</time>
      </trkpt>
      <trkpt lat="47.86953" lon="2.08418">
        <ele>97</ele>
        <time>2016-10-30T09:24:44.000Z</time>
      </trkpt>
      <trkpt lat="47.86953" lon="2.08412">
        <ele>97</ele>
        <time>2016-10-30T09:24:45.000Z</time>
      </trkpt>
      <trkpt lat="47.86953" lon="2.08406">
        <ele>98</ele>
        <time>2016-10-30T09:24:46.000Z</time>
      </trkpt>
      <trkpt lat="47.86953" lon="2.08401">
        <ele>99</ele>
        <time>2016-10-30T09:24:47.000Z</time>
      </trkpt>
      <trkpt lat="47.86953" lon="2.08395">
        <ele>99</ele>
        <time>2016-10-30T09:24:48.000Z</time>
      </trkpt>
      <trkpt lat="47.86954" lon="2.08389">
        <ele>99</ele>
        <time>2016-10-30T09:24:49.000Z</time>
      </trkpt>
      <trkpt lat="47.86954" lon="2.08383">
        <ele>99</ele>
        <time>2016-10-30T09:24:50.000Z</time>
      </trkpt>
      <trkpt lat="47.86954" lon="2.08377">
        <ele>98</ele>
        <time>2016-10-30T09:24:51.000Z</time>
      </trkpt>
      <trkpt lat="47.86954" lon="2.08371">
        <ele>98</ele>
        <time>2016-10-30T09:24:52.000Z</time>
      </trkpt>
      <trkpt lat="47.86953" lon="2.08365">
        <ele>98</ele>
        <time>2016-10-30T09:24:53.000Z</time>
      </trkpt>
      <trkpt lat="47.86953" lon="2.08359">
        <ele>98</ele>
        <time>2016-10-30T09:24:54.000Z</time>
      </trkpt>
      <trkpt lat="47.86952" lon="2.08353">
        <ele>98</ele>
        <time>2016-10-30T09:24:55.000Z</time>
      </trkpt>
      <trkpt lat="47.86952" lon="2.08346">
        <ele>98</ele>
        <time>2016-10-30T09:24:56.000Z</time>
      </trkpt>
      <trkpt lat="47.86952" lon="2.0834">
        <ele>99</ele>
        <time>2016-10-30T09:24:57.000Z</time>
      </trkpt>
      <trkpt lat="47.86951" lon="2.08334">
        <ele>99</ele>
        <time>2016-10-30T09:24:58.000Z</time>
      </trkpt>
      <trkpt lat="47.86951" lon="2.08327">
        <ele>98</ele>
        <time>2016-10-30T09:24:59.000Z</time>
      </trkpt>
      <trkpt lat="47.86951" lon="2.0832">
        <ele>98</ele>
        <time>2016-10-30T09:25:00.000Z</time>
      </trkpt>
      <trkpt lat="47.8695" lon="2.08313">
        <ele>97</ele>
        <time>2016-10-30T09:25:01.000Z</time>
      </trkpt>
      <trkpt lat="47.8695" lon="2.08305">
        <ele>97</ele>
        <time>2016-10-30T09:25:02.000Z</time>
      </trkpt>
      <trkpt lat="47.86949" lon="2.08298">
        <ele>96</ele>
        <time>2016-10-30T09:25:03.000Z</time>
      </trkpt>
      <trkpt lat="47.86949" lon="2.0829">
        <ele>96</ele>
        <time>2016-10-30T09:25:04.000Z</time>
      </trkpt>
      <trkpt lat="47.86949" lon="2.08283">
        <ele>96</ele>
        <time>2016-10-30T09:25:05.000Z</time>
      </trkpt>
      <trkpt lat="47.86949" lon="2.08275">
        <ele>95</ele>
        <time>2016-10-30T09:25:06.000Z</time>
      </trkpt>
      <trkpt lat="47.86948" lon="2.08268">
        <ele>95</ele>
        <time>2016-10-30T09:25:07.000Z</time>
      </trkpt>
      <trkpt lat="47.86948" lon="2.0826">
        <ele>95</ele>
        <time>2016-10-30T09:25:08.000Z</time>
      </trkpt>
      <trkpt lat="47.86947" lon="2.08253">
        <ele>94</ele>
        <time>2016-10-30T09:25:09.000Z</time>
      </trkpt>
      <trkpt lat="47.86946" lon="2.08246">
        <ele>94</ele>
        <time>2016-10-30T09:25:10.000Z</time>
      </trkpt>
      <trkpt lat="47.86946" lon="2.08239">
        <ele>94</ele>
        <time>2016-10-30T09:25:11.000Z</time>
      </trkpt>
      <trkpt lat="47.86945" lon="2.08232">
        <ele>95</ele>
        <time>2016-10-30T09:25:12.000Z</time>
      </trkpt>
      <trkpt lat="47.86945" lon="2.08224">
        <ele>95</ele>
        <time>2016-10-30T09:25:13.000Z</time>
      </trkpt>
      <trkpt lat="47.86944" lon="2.08217">
        <ele>95</ele>
        <time>2016-10-30T09:25:14.000Z</time>
      </trkpt>
      <trkpt lat="47.86944" lon="2.08209">
        <ele>94</ele>
        <time>2016-10-30T09:25:15.000Z</time>
      </trkpt>
      <trkpt lat="47.86943" lon="2.08201">
        <ele>96</ele>
        <time>2016-10-30T09:25:16.000Z</time>
      </trkpt>
      <trkpt lat="47.86942" lon="2.08193">
        <ele>96</ele>
        <time>2016-10-30T09:25:17.000Z</time>
      </trkpt>
      <trkpt lat="47.86941" lon="2.08185">
        <ele>97</ele>
        <time>2016-10-30T09:25:18.000Z</time>
      </trkpt>
      <trkpt lat="47.8694" lon="2.08177">
        <ele>97</ele>
        <time>2016-10-30T09:25:19.000Z</time>
      </trkpt>
      <trkpt lat="47.86939" lon="2.0817">
        <ele>97</ele>
        <time>2016-10-30T09:25:20.000Z</time>
      </trkpt>
      <trkpt lat="47.86938" lon="2.08162">
        <ele>97</ele>
        <time>2016-10-30T09:25:21.000Z</time>
      </trkpt>
      <trkpt lat="47.86937" lon="2.08155">
        <ele>97</ele>
        <time>2016-10-30T09:25:22.000Z</time>
      </trkpt>
      <trkpt lat="47.86936" lon="2.08148">
        <ele>96</ele>
        <time>2016-10-30T09:25:23.000Z</time>
      </trkpt>
      <trkpt lat="47.86935" lon="2.08141">
        <ele>96</ele>
        <time>2016-10-30T09:25:24.000Z</time>
      </trkpt>
      <trkpt lat="47.86934" lon="2.08134">
        <ele>96</ele>
        <time>2016-10-30T09:25:25.000Z</time>
      </trkpt>
      <trkpt lat="47.86933" lon="2.08127">
        <ele>96</ele>
        <time>2016-10-30T09:25:26.000Z</time>
      </trkpt>
      <trkpt lat="47.86933" lon="2.08119">
        <ele>96</ele>
        <time>2016-10-30T09:25:27.000Z</time>
      </trkpt>
      <trkpt lat="47.86933" lon="2.08111">
        <ele>97</ele>
        <time>2016-10-30T09:25:28.000Z</time>
      </trkpt>
      <trkpt lat="47.86932" lon="2.08104">
        <ele>96</ele>
        <time>2016-10-30T09:25:29.000Z</time>
      </trkpt>
      <trkpt lat="47.86932" lon="2.08097">
        <ele>96</ele>
        <time>2016-10-30T09:25:30.000Z</time>
      </trkpt>
      <trkpt lat="47.86931" lon="2.08089">
        <ele>96</ele>
        <time>2016-10-30T09:25:31.000Z</time>
      </trkpt>
      <trkpt lat="47.86931" lon="2.08081">
        <ele>96</ele>
        <time>2016-10-30T09:25:32.000Z</time>
      </trkpt>
      <trkpt lat="47.86931" lon="2.08074">
        <ele>95</ele>
        <time>2016-10-30T09:25:33.000Z</time>
      </trkpt>
      <trkpt lat="47.8693" lon="2.08066">
        <ele>96</ele>
        <time>2016-10-30T09:25:34.000Z</time>
      </trkpt>
      <trkpt lat="47.8693" lon="2.08058">
        <ele>96</ele>
        <time>2016-10-30T09:25:35.000Z</time>
      </trkpt>
      <trkpt lat="47.86929" lon="2.0805">
        <ele>97</ele>
        <time>2016-10-30T09:25:36.000Z</time>
      </trkpt>
      <trkpt lat="47.86928" lon="2.08043">
        <ele>97</ele>
        <time>2016-10-30T09:25:37.000Z</time>
      </trkpt>
      <trkpt lat="47.86928" lon="2.08035">
        <ele>98</ele>
        <time>2016-10-30T09:25:38.000Z</time>
      </trkpt>
      <trkpt lat="47.86928" lon="2.08028">
        <ele>98</ele>
        <time>2016-10-30T09:25:39.000Z</time>
      </trkpt>
      <trkpt lat="47.86928" lon="2.08021">
        <ele>99</ele>
        <time>2016-10-30T09:25:40.000Z</time>
      </trkpt>
      <trkpt lat="47.86928" lon="2.08013">
        <ele>98</ele>
        <time>2016-10-30T09:25:41.000Z</time>
      </trkpt>
      <trkpt lat="47.86928" lon="2.08005">
        <ele>99</ele>
        <time>2016-10-30T09:25:42.000Z</time>
      </trkpt>
      <trkpt lat="47.86927" lon="2.07997">
        <ele>99</ele>
        <time>2016-10-30T09:25:43.000Z</time>
      </trkpt>
      <trkpt lat="47.86927" lon="2.07989">
        <ele>99</ele>
        <time>2016-10-30T09:25:44.000Z</time>
      </trkpt>
      <trkpt lat="47.86926" lon="2.07981">
        <ele>99</ele>
        <time>2016-10-30T09:25:45.000Z</time>
      </trkpt>
      <trkpt lat="47.86925" lon="2.07973">
        <ele>99</ele>
        <time>2016-10-30T09:25:46.000Z</time>
      </trkpt>
      <trkpt lat="47.86925" lon="2.07966">
        <ele>99</ele>
        <time>2016-10-30T09:25:47.000Z</time>
      </trkpt>
      <trkpt lat="47.86924" lon="2.07958">
        <ele>99</ele>
        <time>2016-10-30T09:25:48.000Z</time>
      </trkpt>
      <trkpt lat="47.86924" lon="2.0795">
        <ele>98</ele>
        <time>2016-10-30T09:25:49.000Z</time>
      </trkpt>
      <trkpt lat="47.86923" lon="2.07943">
        <ele>98</ele>
        <time>2016-10-30T09:25:50.000Z</time>
      </trkpt>
      <trkpt lat="47.86923" lon="2.07935">
        <ele>97</ele>
        <time>2016-10-30T09:25:51.000Z</time>
      </trkpt>
      <trkpt lat="47.86922" lon="2.07928">
        <ele>97</ele>
        <time>2016-10-30T09:25:52.000Z</time>
      </trkpt>
      <trkpt lat="47.86922" lon="2.07921">
        <ele>96</ele>
        <time>2016-10-30T09:25:53.000Z</time>
      </trkpt>
      <trkpt lat="47.86922" lon="2.07914">
        <ele>96</ele>
        <time>2016-10-30T09:25:54.000Z</time>
      </trkpt>
      <trkpt lat="47.86922" lon="2.07908">
        <ele>94</ele>
        <time>2016-10-30T09:25:55.000Z</time>
      </trkpt>
      <trkpt lat="47.86922" lon="2.07901">
        <ele>94</ele>
        <time>2016-10-30T09:25:56.000Z</time>
      </trkpt>
      <trkpt lat="47.86921" lon="2.07893">
        <ele>94</ele>
        <time>2016-10-30T09:25:57.000Z</time>
      </trkpt>
      <trkpt lat="47.8692" lon="2.07887">
        <ele>94</ele>
        <time>2016-10-30T09:25:58.000Z</time>
      </trkpt>
      <trkpt lat="47.86919" lon="2.0788">
        <ele>93</ele>
        <time>2016-10-30T09:25:59.000Z</time>
      </trkpt>
      <trkpt lat="47.86918" lon="2.07872">
        <ele>94</ele>
        <time>2016-10-30T09:26:00.000Z</time>
      </trkpt>
      <trkpt lat="47.86917" lon="2.07865">
        <ele>94</ele>
        <time>2016-10-30T09:26:01.000Z</time>
      </trkpt>
      <trkpt lat="47.86916" lon="2.07858">
        <ele>94</ele>
        <time>2016-10-30T09:26:02.000Z</time>
      </trkpt>
      <trkpt lat="47.86915" lon="2.07851">
        <ele>94</ele>
        <time>2016-10-30T09:26:03.000Z</time>
      </trkpt>
      <trkpt lat="47.86914" lon="2.07844">
        <ele>94</ele>
        <time>2016-10-30T09:26:04.000Z</time>
      </trkpt>
      <trkpt lat="47.86912" lon="2.07836">
        <ele>94</ele>
        <time>2016-10-30T09:26:05.000Z</time>
      </trkpt>
      <trkpt lat="47.86912" lon="2.07829">
        <ele>91</ele>
        <time>2016-10-30T09:26:06.000Z</time>
      </trkpt>
      <trkpt lat="47.86911" lon="2.07821">
        <ele>92</ele>
        <time>2016-10-30T09:26:07.000Z</time>
      </trkpt>
      <trkpt lat="47.8691" lon="2.07814">
        <ele>90</ele>
        <time>2016-10-30T09:26:08.000Z</time>
      </trkpt>
      <trkpt lat="47.86909" lon="2.07806">
        <ele>89</ele>
        <time>2016-10-30T09:26:09.000Z</time>
      </trkpt>
      <trkpt lat="47.86909" lon="2.07799">
        <ele>87</ele>
        <time>2016-10-30T09:26:10.000Z</time>
      </trkpt>
      <trkpt lat="47.86909" lon="2.07791">
        <ele>87</ele>
        <time>2016-10-30T09:26:11.000Z</time>
      </trkpt>
      <trkpt lat="47.86909" lon="2.07782">
        <ele>87</ele>
        <time>2016-10-30T09:26:12.000Z</time>
      </trkpt>
      <trkpt lat="47.86908" lon="2.07774">
        <ele>87</ele>
        <time>2016-10-30T09:26:13.000Z</time>
      </trkpt>
      <trkpt lat="47.86907" lon="2.07766">
        <ele>88</ele>
        <time>2016-10-30T09:26:14.000Z</time>
      </trkpt>
      <trkpt lat="47.86905" lon="2.07758">
        <ele>90</ele>
        <time>2016-10-30T09:26:15.000Z</time>
      </trkpt>
      <trkpt lat="47.86903" lon="2.0775">
        <ele>92</ele>
        <time>2016-10-30T09:26:16.000Z</time>
      </trkpt>
      <trkpt lat="47.86902" lon="2.07741">
        <ele>92</ele>
        <time>2016-10-30T09:26:17.000Z</time>
      </trkpt>
      <trkpt lat="47.86901" lon="2.07733">
        <ele>92</ele>
        <time>2016-10-30T09:26:18.000Z</time>
      </trkpt>
      <trkpt lat="47.86901" lon="2.07726">
        <ele>93</ele>
        <time>2016-10-30T09:26:19.000Z</time>
      </trkpt>
      <trkpt lat="47.869" lon="2.07718">
        <ele>92</ele>
        <time>2016-10-30T09:26:20.000Z</time>
      </trkpt>
      <trkpt lat="47.86898" lon="2.07711">
        <ele>92</ele>
        <time>2016-10-30T09:26:21.000Z</time>
      </trkpt>
      <trkpt lat="47.86897" lon="2.07704">
        <ele>92</ele>
        <time>2016-10-30T09:26:22.000Z</time>
      </trkpt>
      <trkpt lat="47.86896" lon="2.07697">
        <ele>92</ele>
        <time>2016-10-30T09:26:23.000Z</time>
      </trkpt>
      <trkpt lat="47.86896" lon="2.07689">
        <ele>91</ele>
        <time>2016-10-30T09:26:24.000Z</time>
      </trkpt>
      <trkpt lat="47.86896" lon="2.07682">
        <ele>91</ele>
        <time>2016-10-30T09:26:25.000Z</time>
      </trkpt>
      <trkpt lat="47.86895" lon="2.07674">
        <ele>91</ele>
        <time>2016-10-30T09:26:26.000Z</time>
      </trkpt>
      <trkpt lat="47.86895" lon="2.07667">
        <ele>91</ele>
        <time>2016-10-30T09:26:27.000Z</time>
      </trkpt>
      <trkpt lat="47.86895" lon="2.0766">
        <ele>92</ele>
        <time>2016-10-30T09:26:28.000Z</time>
      </trkpt>
      <trkpt lat="47.86894" lon="2.07653">
        <ele>92</ele>
        <time>2016-10-30T09:26:29.000Z</time>
      </trkpt>
      <trkpt lat="47.86894" lon="2.07646">
        <ele>92</ele>
        <time>2016-10-30T09:26:30.000Z</time>
      </trkpt>
      <trkpt lat="47.86893" lon="2.0764">
        <ele>92</ele>
        <time>2016-10-30T09:26:31.000Z</time>
      </trkpt>
      <trkpt lat="47.86893" lon="2.07633">
        <ele>93</ele>
        <time>2016-10-30T09:26:32.000Z</time>
      </trkpt>
      <trkpt lat="47.86893" lon="2.07625">
        <ele>93</ele>
        <time>2016-10-30T09:26:33.000Z</time>
      </trkpt>
      <trkpt lat="47.86893" lon="2.07618">
        <ele>93</ele>
        <time>2016-10-30T09:26:34.000Z</time>
      </trkpt>
      <trkpt lat="47.86893" lon="2.0761">
        <ele>92</ele>
        <time>2016-10-30T09:26:35.000Z</time>
      </trkpt>
      <trkpt lat="47.86893" lon="2.07603">
        <ele>93</ele>
        <time>2016-10-30T09:26:36.000Z</time>
      </trkpt>
      <trkpt lat="47.86893" lon="2.07595">
        <ele>94</ele>
        <time>2016-10-30T09:26:37.000Z</time>
      </trkpt>
      <trkpt lat="47.86892" lon="2.07588">
        <ele>94</ele>
        <time>2016-10-30T09:26:38.000Z</time>
      </trkpt>
      <trkpt lat="47.86892" lon="2.07581">
        <ele>94</ele>
        <time>2016-10-30T09:26:39.000Z</time>
      </trkpt>
      <trkpt lat="47.86891" lon="2.07574">
        <ele>94</ele>
        <time>2016-10-30T09:26:40.000Z</time>
      </trkpt>
      <trkpt lat="47.8689" lon="2.07568">
        <ele>94</ele>
        <time>2016-10-30T09:26:41.000Z</time>
      </trkpt>
      <trkpt lat="47.86889" lon="2.07562">
        <ele>94</ele>
        <time>2016-10-30T09:26:42.000Z</time>
      </trkpt>
      <trkpt lat="47.86888" lon="2.07555">
        <ele>94</ele>
        <time>2016-10-30T09:26:43.000Z</time>
      </trkpt>
      <trkpt lat="47.86887" lon="2.07547">
        <ele>94</ele>
        <time>2016-10-30T09:26:44.000Z</time>
      </trkpt>
      <trkpt lat="47.86886" lon="2.07538">
        <ele>94</ele>
        <time>2016-10-30T09:26:45.000Z</time>
      </trkpt>
      <trkpt lat="47.86884" lon="2.07529">
        <ele>95</ele>
        <time>2016-10-30T09:26:46.000Z</time>
      </trkpt>
      <trkpt lat="47.86882" lon="2.0752">
        <ele>95</ele>
        <time>2016-10-30T09:26:47.000Z</time>
      </trkpt>
      <trkpt lat="47.8688" lon="2.07512">
        <ele>95</ele>
        <time>2016-10-30T09:26:48.000Z</time>
      </trkpt>
      <trkpt lat="47.86878" lon="2.07504">
        <ele>95</ele>
        <time>2016-10-30T09:26:49.000Z</time>
      </trkpt>
      <trkpt lat="47.86876" lon="2.07497">
        <ele>94</ele>
        <time>2016-10-30T09:26:50.000Z</time>
      </trkpt>
      <trkpt lat="47.86874" lon="2.0749">
        <ele>93</ele>
        <time>2016-10-30T09:26:51.000Z</time>
      </trkpt>
      <trkpt lat="47.86873" lon="2.07483">
        <ele>93</ele>
        <time>2016-10-30T09:26:52.000Z</time>
      </trkpt>
      <trkpt lat="47.86871" lon="2.07476">
        <ele>94</ele>
        <time>2016-10-30T09:26:53.000Z</time>
      </trkpt>
      <trkpt lat="47.8687" lon="2.07468">
        <ele>95</ele>
        <time>2016-10-30T09:26:54.000Z</time>
      </trkpt>
      <trkpt lat="47.86868" lon="2.0746">
        <ele>95</ele>
        <time>2016-10-30T09:26:55.000Z</time>
      </trkpt>
      <trkpt lat="47.86867" lon="2.07452">
        <ele>95</ele>
        <time>2016-10-30T09:26:56.000Z</time>
      </trkpt>
      <trkpt lat="47.86866" lon="2.07445">
        <ele>96</ele>
        <time>2016-10-30T09:26:57.000Z</time>
      </trkpt>
      <trkpt lat="47.86865" lon="2.07439">
        <ele>96</ele>
        <time>2016-10-30T09:26:58.000Z</time>
      </trkpt>
      <trkpt lat="47.86863" lon="2.07433">
        <ele>96</ele>
        <time>2016-10-30T09:26:59.000Z</time>
      </trkpt>
      <trkpt lat="47.86863" lon="2.07426">
        <ele>95</ele>
        <time>2016-10-30T09:27:00.000Z</time>
      </trkpt>
      <trkpt lat="47.86862" lon="2.0742">
        <ele>95</ele>
        <time>2016-10-30T09:27:01.000Z</time>
      </trkpt>
      <trkpt lat="47.86861" lon="2.07414">
        <ele>96</ele>
        <time>2016-10-30T09:27:02.000Z</time>
      </trkpt>
      <trkpt lat="47.8686" lon="2.07408">
        <ele>96</ele>
        <time>2016-10-30T09:27:03.000Z</time>
      </trkpt>
      <trkpt lat="47.86858" lon="2.07402">
        <ele>96</ele>
        <time>2016-10-30T09:27:04.000Z</time>
      </trkpt>
      <trkpt lat="47.86857" lon="2.07397">
        <ele>97</ele>
        <time>2016-10-30T09:27:05.000Z</time>
      </trkpt>
      <trkpt lat="47.86856" lon="2.07392">
        <ele>97</ele>
        <time>2016-10-30T09:27:06.000Z</time>
      </trkpt>
      <trkpt lat="47.86855" lon="2.07385">
        <ele>97</ele>
        <time>2016-10-30T09:27:07.000Z</time>
      </trkpt>
      <trkpt lat="47.86855" lon="2.07379">
        <ele>96</ele>
        <time>2016-10-30T09:27:08.000Z</time>
      </trkpt>
      <trkpt lat="47.86855" lon="2.07372">
        <ele>97</ele>
        <time>2016-10-30T09:27:09.000Z</time>
      </trkpt>
      <trkpt lat="47.86855" lon="2.07365">
        <ele>96</ele>
        <time>2016-10-30T09:27:10.000Z</time>
      </trkpt>
      <trkpt lat="47.86854" lon="2.07357">
        <ele>96</ele>
        <time>2016-10-30T09:27:11.000Z</time>
      </trkpt>
      <trkpt lat="47.86853" lon="2.07349">
        <ele>96</ele>
        <time>2016-10-30T09:27:12.000Z</time>
      </trkpt>
      <trkpt lat="47.86853" lon="2.0734">
        <ele>95</ele>
        <time>2016-10-30T09:27:13.000Z</time>
      </trkpt>
      <trkpt lat="47.86852" lon="2.07331">
        <ele>96</ele>
        <time>2016-10-30T09:27:14.000Z</time>
      </trkpt>
      <trkpt lat="47.86852" lon="2.07322">
        <ele>96</ele>
        <time>2016-10-30T09:27:15.000Z</time>
      </trkpt>
      <trkpt lat="47.86852" lon="2.07313">
        <ele>96</ele>
        <time>2016-10-30T09:27:16.000Z</time>
      </trkpt>
      <trkpt lat="47.86852" lon="2.07305">
        <ele>97</ele>
        <time>2016-10-30T09:27:17.000Z</time>
      </trkpt>
      <trkpt lat="47.86851" lon="2.07297">
        <ele>96</ele>
        <time>2016-10-30T09:27:18.000Z</time>
      </trkpt>
      <trkpt lat="47.86851" lon="2.07289">
        <ele>98</ele>
        <time>2016-10-30T09:27:19.000Z</time>
      </trkpt>
      <trkpt lat="47.8685" lon="2.07281">
        <ele>98</ele>
        <time>2016-10-30T09:27:20.000Z</time>
      </trkpt>
      <trkpt lat="47.86849" lon="2.07274">
        <ele>98</ele>
        <time>2016-10-30T09:27:21.000Z</time>
      </trkpt>
      <trkpt lat="47.86849" lon="2.07268">
        <ele>98</ele>
        <time>2016-10-30T09:27:22.000Z</time>
      </trkpt>
      <trkpt lat="47.86848" lon="2.07261">
        <ele>98</ele>
        <time>2016-10-30T09:27:23.000Z</time>
      </trkpt>
      <trkpt lat="47.86847" lon="2.07253">
        <ele>98</ele>
        <time>2016-10-30T09:27:24.000Z</time>
      </trkpt>
      <trkpt lat="47.86846" lon="2.07245">
        <ele>98</ele>
        <time>2016-10-30T09:27:25.000Z</time>
      </trkpt>
      <trkpt lat="47.86845" lon="2.07238">
        <ele>99</ele>
        <time>2016-10-30T09:27:26.000Z</time>
      </trkpt>
      <trkpt lat="47.86845" lon="2.07231">
        <ele>98</ele>
        <time>2016-10-30T09:27:27.000Z</time>
      </trkpt>
      <trkpt lat="47.86845" lon="2.07224">
        <ele>98</ele>
        <time>2016-10-30T09:27:28.000Z</time>
      </trkpt>
      <trkpt lat="47.86845" lon="2.07215">
        <ele>97</ele>
        <time>2016-10-30T09:27:29.000Z</time>
      </trkpt>
      <trkpt lat="47.86844" lon="2.07206">
        <ele>97</ele>
        <time>2016-10-30T09:27:30.000Z</time>
      </trkpt>
      <trkpt lat="47.86844" lon="2.07197">
        <ele>96</ele>
        <time>2016-10-30T09:27:31.000Z</time>
      </trkpt>
      <trkpt lat="47.86844" lon="2.07188">
        <ele>96</ele>
        <time>2016-10-30T09:27:32.000Z</time>
      </trkpt>
      <trkpt lat="47.86843" lon="2.07179">
        <ele>96</ele>
        <time>2016-10-30T09:27:33.000Z</time>
      </trkpt>
      <trkpt lat="47.86842" lon="2.0717">
        <ele>97</ele>
        <time>2016-10-30T09:27:34.000Z</time>
      </trkpt>
      <trkpt lat="47.86841" lon="2.0716">
        <ele>96</ele>
        <time>2016-10-30T09:27:35.000Z</time>
      </trkpt>
      <trkpt lat="47.86839" lon="2.0715">
        <ele>96</ele>
        <time>2016-10-30T09:27:36.000Z</time>
      </trkpt>
      <trkpt lat="47.86839" lon="2.0714">
        <ele>95</ele>
        <time>2016-10-30T09:27:37.000Z</time>
      </trkpt>
      <trkpt lat="47.86838" lon="2.0713">
        <ele>95</ele>
        <time>2016-10-30T09:27:38.000Z</time>
      </trkpt>
      <trkpt lat="47.86838" lon="2.07121">
        <ele>96</ele>
        <time>2016-10-30T09:27:39.000Z</time>
      </trkpt>
      <trkpt lat="47.86837" lon="2.07112">
        <ele>96</ele>
        <time>2016-10-30T09:27:40.000Z</time>
      </trkpt>
      <trkpt lat="47.86836" lon="2.07104">
        <ele>95</ele>
        <time>2016-10-30T09:27:41.000Z</time>
      </trkpt>
      <trkpt lat="47.86834" lon="2.07096">
        <ele>95</ele>
        <time>2016-10-30T09:27:42.000Z</time>
      </trkpt>
      <trkpt lat="47.86833" lon="2.07088">
        <ele>95</ele>
        <time>2016-10-30T09:27:43.000Z</time>
      </trkpt>
      <trkpt lat="47.86831" lon="2.07081">
        <ele>95</ele>
        <time>2016-10-30T09:27:44.000Z</time>
      </trkpt>
      <trkpt lat="47.8683" lon="2.07072">
        <ele>95</ele>
        <time>2016-10-30T09:27:45.000Z</time>
      </trkpt>
      <trkpt lat="47.8683" lon="2.07063">
        <ele>96</ele>
        <time>2016-10-30T09:27:46.000Z</time>
      </trkpt>
      <trkpt lat="47.86829" lon="2.07054">
        <ele>96</ele>
        <time>2016-10-30T09:27:47.000Z</time>
      </trkpt>
      <trkpt lat="47.86827" lon="2.07045">
        <ele>96</ele>
        <time>2016-10-30T09:27:48.000Z</time>
      </trkpt>
      <trkpt lat="47.86826" lon="2.07037">
        <ele>96</ele>
        <time>2016-10-30T09:27:49.000Z</time>
      </trkpt>
      <trkpt lat="47.86824" lon="2.07028">
        <ele>96</ele>
        <time>2016-10-30T09:27:50.000Z</time>
      </trkpt>
      <trkpt lat="47.86823" lon="2.0702">
        <ele>96</ele>
        <time>2016-10-30T09:27:51.000Z</time>
      </trkpt>
      <trkpt lat="47.86821" lon="2.07012">
        <ele>97</ele>
        <time>2016-10-30T09:27:52.000Z</time>
      </trkpt>
      <trkpt lat="47.86819" lon="2.07004">
        <ele>97</ele>
        <time>2016-10-30T09:27:53.000Z</time>
      </trkpt>
      <trkpt lat="47.86817" lon="2.06997">
        <ele>97</ele>
        <time>2016-10-30T09:27:54.000Z</time>
      </trkpt>
      <trkpt lat="47.86815" lon="2.0699">
        <ele>97</ele>
        <time>2016-10-30T09:27:55.000Z</time>
      </trkpt>
      <trkpt lat="47.86813" lon="2.06982">
        <ele>97</ele>
        <time>2016-10-30T09:27:56.000Z</time>
      </trkpt>
      <trkpt lat="47.86811" lon="2.06974">
        <ele>97</ele>
        <time>2016-10-30T09:27:57.000Z</time>
      </trkpt>
      <trkpt lat="47.86809" lon="2.06965">
        <ele>96</ele>
        <time>2016-10-30T09:27:58.000Z</time>
      </trkpt>
      <trkpt lat="47.86807" lon="2.06957">
        <ele>97</ele>
        <time>2016-10-30T09:27:59.000Z</time>
      </trkpt>
      <trkpt lat="47.86806" lon="2.06949">
        <ele>96</ele>
        <time>2016-10-30T09:28:00.000Z</time>
      </trkpt>
      <trkpt lat="47.86804" lon="2.06941">
        <ele>96</ele>
        <time>2016-10-30T09:28:01.000Z</time>
      </trkpt>
      <trkpt lat="47.86801" lon="2.06934">
        <ele>96</ele>
        <time>2016-10-30T09:28:02.000Z</time>
      </trkpt>
      <trkpt lat="47.86798" lon="2.06926">
        <ele>96</ele>
        <time>2016-10-30T09:28:03.000Z</time>
      </trkpt>
      <trkpt lat="47.86796" lon="2.06918">
        <ele>97</ele>
        <time>2016-10-30T09:28:04.000Z</time>
      </trkpt>
      <trkpt lat="47.86794" lon="2.06909">
        <ele>97</ele>
        <time>2016-10-30T09:28:05.000Z</time>
      </trkpt>
      <trkpt lat="47.86792" lon="2.06901">
        <ele>96</ele>
        <time>2016-10-30T09:28:06.000Z</time>
      </trkpt>
      <trkpt lat="47.8679" lon="2.06892">
        <ele>97</ele>
        <time>2016-10-30T09:28:07.000Z</time>
      </trkpt>
      <trkpt lat="47.86788" lon="2.06884">
        <ele>97</ele>
        <time>2016-10-30T09:28:08.000Z</time>
      </trkpt>
      <trkpt lat="47.86786" lon="2.06875">
        <ele>96</ele>
        <time>2016-10-30T09:28:09.000Z</time>
      </trkpt>
      <trkpt lat="47.86785" lon="2.06866">
        <ele>97</ele>
        <time>2016-10-30T09:28:10.000Z</time>
      </trkpt>
      <trkpt lat="47.86784" lon="2.06857">
        <ele>97</ele>
        <time>2016-10-30T09:28:11.000Z</time>
      </trkpt>
      <trkpt lat="47.86783" lon="2.06848">
        <ele>98</ele>
        <time>2016-10-30T09:28:12.000Z</time>
      </trkpt>
      <trkpt lat="47.86781" lon="2.06839">
        <ele>99</ele>
        <time>2016-10-30T09:28:13.000Z</time>
      </trkpt>
      <trkpt lat="47.86779" lon="2.06831">
        <ele>99</ele>
        <time>2016-10-30T09:28:14.000Z</time>
      </trkpt>
      <trkpt lat="47.86777" lon="2.06823">
        <ele>99</ele>
        <time>2016-10-30T09:28:15.000Z</time>
      </trkpt>
      <trkpt lat="47.86775" lon="2.06815">
        <ele>99</ele>
        <time>2016-10-30T09:28:16.000Z</time>
      </trkpt>
      <trkpt lat="47.86773" lon="2.06808">
        <ele>99</ele>
        <time>2016-10-30T09:28:17.000Z</time>
      </trkpt>
      <trkpt lat="47.86771" lon="2.068">
        <ele>99</ele>
        <time>2016-10-30T09:28:18.000Z</time>
      </trkpt>
      <trkpt lat="47.86768" lon="2.06792">
        <ele>99</ele>
        <time>2016-10-30T09:28:19.000Z</time>
      </trkpt>
      <trkpt lat="47.86766" lon="2.06784">
        <ele>99</ele>
        <time>2016-10-30T09:28:20.000Z</time>
      </trkpt>
      <trkpt lat="47.86763" lon="2.06777">
        <ele>98</ele>
        <time>2016-10-30T09:28:21.000Z</time>
      </trkpt>
      <trkpt lat="47.86761" lon="2.06769">
        <ele>97</ele>
        <time>2016-10-30T09:28:22.000Z</time>
      </trkpt>
      <trkpt lat="47.86758" lon="2.06762">
        <ele>98</ele>
        <time>2016-10-30T09:28:23.000Z</time>
      </trkpt>
      <trkpt lat="47.86755" lon="2.06755">
        <ele>98</ele>
        <time>2016-10-30T09:28:24.000Z</time>
      </trkpt>
      <trkpt lat="47.86752" lon="2.06747">
        <ele>98</ele>
        <time>2016-10-30T09:28:25.000Z</time>
      </trkpt>
      <trkpt lat="47.86749" lon="2.06739">
        <ele>98</ele>
        <time>2016-10-30T09:28:26.000Z</time>
      </trkpt>
      <trkpt lat="47.86746" lon="2.06731">
        <ele>98</ele>
        <time>2016-10-30T09:28:27.000Z</time>
      </trkpt>
      <trkpt lat="47.86744" lon="2.06723">
        <ele>98</ele>
        <time>2016-10-30T09:28:28.000Z</time>
      </trkpt>
      <trkpt lat="47.86742" lon="2.06715">
        <ele>98</ele>
        <time>2016-10-30T09:28:29.000Z</time>
      </trkpt>
      <trkpt lat="47.86739" lon="2.06708">
        <ele>98</ele>
        <time>2016-10-30T09:28:30.000Z</time>
      </trkpt>
      <trkpt lat="47.86737" lon="2.067">
        <ele>97</ele>
        <time>2016-10-30T09:28:31.000Z</time>
      </trkpt>
      <trkpt lat="47.86734" lon="2.06692">
        <ele>98</ele>
        <time>2016-10-30T09:28:32.000Z</time>
      </trkpt>
      <trkpt lat="47.86732" lon="2.06685">
        <ele>99</ele>
        <time>2016-10-30T09:28:33.000Z</time>
      </trkpt>
      <trkpt lat="47.8673" lon="2.06678">
        <ele>99</ele>
        <time>2016-10-30T09:28:34.000Z</time>
      </trkpt>
      <trkpt lat="47.86728" lon="2.06671">
        <ele>98</ele>
        <time>2016-10-30T09:28:35.000Z</time>
      </trkpt>
      <trkpt lat="47.86726" lon="2.06663">
        <ele>99</ele>
        <time>2016-10-30T09:28:36.000Z</time>
      </trkpt>
      <trkpt lat="47.86724" lon="2.06655">
        <ele>99</ele>
        <time>2016-10-30T09:28:37.000Z</time>
      </trkpt>
      <trkpt lat="47.86722" lon="2.06647">
        <ele>99</ele>
        <time>2016-10-30T09:28:38.000Z</time>
      </trkpt>
      <trkpt lat="47.86719" lon="2.06639">
        <ele>100</ele>
        <time>2016-10-30T09:28:39.000Z</time>
      </trkpt>
      <trkpt lat="47.86717" lon="2.06631">
        <ele>101</ele>
        <time>2016-10-30T09:28:40.000Z</time>
      </trkpt>
      <trkpt lat="47.86716" lon="2.06623">
        <ele>102</ele>
        <time>2016-10-30T09:28:41.000Z</time>
      </trkpt>
      <trkpt lat="47.86714" lon="2.06615">
        <ele>102</ele>
        <time>2016-10-30T09:28:42.000Z</time>
      </trkpt>
      <trkpt lat="47.86712" lon="2.06608">
        <ele>102</ele>
        <time>2016-10-30T09:28:43.000Z</time>
      </trkpt>
      <trkpt lat="47.8671" lon="2.06601">
        <ele>103</ele>
        <time>2016-10-30T09:28:44.000Z</time>
      </trkpt>
      <trkpt lat="47.86707" lon="2.06594">
        <ele>103</ele>
        <time>2016-10-30T09:28:45.000Z</time>
      </trkpt>
      <trkpt lat="47.86704" lon="2.06587">
        <ele>104</ele>
        <time>2016-10-30T09:28:46.000Z</time>
      </trkpt>
      <trkpt lat="47.86701" lon="2.0658">
        <ele>104</ele>
        <time>2016-10-30T09:28:47.000Z</time>
      </trkpt>
      <trkpt lat="47.86698" lon="2.06572">
        <ele>102</ele>
        <time>2016-10-30T09:28:48.000Z</time>
      </trkpt>
      <trkpt lat="47.86695" lon="2.06564">
        <ele>102</ele>
        <time>2016-10-30T09:28:49.000Z</time>
      </trkpt>
      <trkpt lat="47.86693" lon="2.06556">
        <ele>101</ele>
        <time>2016-10-30T09:28:50.000Z</time>
      </trkpt>
      <trkpt lat="47.8669" lon="2.06548">
        <ele>101</ele>
        <time>2016-10-30T09:28:51.000Z</time>
      </trkpt>
      <trkpt lat="47.86686" lon="2.06539">
        <ele>101</ele>
        <time>2016-10-30T09:28:52.000Z</time>
      </trkpt>
      <trkpt lat="47.86683" lon="2.06531">
        <ele>100</ele>
        <time>2016-10-30T09:28:53.000Z</time>
      </trkpt>
      <trkpt lat="47.86679" lon="2.06523">
        <ele>100</ele>
        <time>2016-10-30T09:28:54.000Z</time>
      </trkpt>
      <trkpt lat="47.86675" lon="2.06515">
        <ele>101</ele>
        <time>2016-10-30T09:28:55.000Z</time>
      </trkpt>
      <trkpt lat="47.8667" lon="2.06506">
        <ele>101</ele>
        <time>2016-10-30T09:28:56.000Z</time>
      </trkpt>
      <trkpt lat="47.86664" lon="2.06497">
        <ele>99</ele>
        <time>2016-10-30T09:28:57.000Z</time>
      </trkpt>
      <trkpt lat="47.86658" lon="2.06488">
        <ele>99</ele>
        <time>2016-10-30T09:28:58.000Z</time>
      </trkpt>
      <trkpt lat="47.86653" lon="2.0648">
        <ele>99</ele>
        <time>2016-10-30T09:28:59.000Z</time>
      </trkpt>
      <trkpt lat="47.86649" lon="2.06472">
        <ele>99</ele>
        <time>2016-10-30T09:29:00.000Z</time>
      </trkpt>
      <trkpt lat="47.86645" lon="2.06465">
        <ele>99</ele>
        <time>2016-10-30T09:29:01.000Z</time>
      </trkpt>
      <trkpt lat="47.86642" lon="2.06457">
        <ele>99</ele>
        <time>2016-10-30T09:29:02.000Z</time>
      </trkpt>
      <trkpt lat="47.86638" lon="2.0645">
        <ele>99</ele>
        <time>2016-10-30T09:29:03.000Z</time>
      </trkpt>
      <trkpt lat="47.86634" lon="2.06443">
        <ele>99</ele>
        <time>2016-10-30T09:29:04.000Z</time>
      </trkpt>
      <trkpt lat="47.8663" lon="2.06436">
        <ele>99</ele>
        <time>2016-10-30T09:29:05.000Z</time>
      </trkpt>
      <trkpt lat="47.86626" lon="2.0643">
        <ele>98</ele>
        <time>2016-10-30T09:29:06.000Z</time>
      </trkpt>
      <trkpt lat="47.86622" lon="2.06425">
        <ele>99</ele>
        <time>2016-10-30T09:29:07.000Z</time>
      </trkpt>
      <trkpt lat="47.86617" lon="2.06419">
        <ele>99</ele>
        <time>2016-10-30T09:29:08.000Z</time>
      </trkpt>
      <trkpt lat="47.86613" lon="2.06414">
        <ele>98</ele>
        <time>2016-10-30T09:29:09.000Z</time>
      </trkpt>
      <trkpt lat="47.86608" lon="2.06408">
        <ele>98</ele>
        <time>2016-10-30T09:29:10.000Z</time>
      </trkpt>
      <trkpt lat="47.86604" lon="2.06402">
        <ele>97</ele>
        <time>2016-10-30T09:29:11.000Z</time>
      </trkpt>
      <trkpt lat="47.86601" lon="2.06396">
        <ele>97</ele>
        <time>2016-10-30T09:29:12.000Z</time>
      </trkpt>
      <trkpt lat="47.86598" lon="2.06388">
        <ele>96</ele>
        <time>2016-10-30T09:29:13.000Z</time>
      </trkpt>
      <trkpt lat="47.86596" lon="2.0638">
        <ele>96</ele>
        <time>2016-10-30T09:29:14.000Z</time>
      </trkpt>
      <trkpt lat="47.86593" lon="2.06372">
        <ele>95</ele>
        <time>2016-10-30T09:29:15.000Z</time>
      </trkpt>
      <trkpt lat="47.8659" lon="2.06363">
        <ele>95</ele>
        <time>2016-10-30T09:29:16.000Z</time>
      </trkpt>
      <trkpt lat="47.86587" lon="2.06354">
        <ele>95</ele>
        <time>2016-10-30T09:29:17.000Z</time>
      </trkpt>
      <trkpt lat="47.86584" lon="2.06345">
        <ele>96</ele>
        <time>2016-10-30T09:29:18.000Z</time>
      </trkpt>
      <trkpt lat="47.86582" lon="2.06337">
        <ele>96</ele>
        <time>2016-10-30T09:29:19.000Z</time>
      </trkpt>
      <trkpt lat="47.86579" lon="2.06331">
        <ele>97</ele>
        <time>2016-10-30T09:29:20.000Z</time>
      </trkpt>
      <trkpt lat="47.86577" lon="2.06326">
        <ele>98</ele>
        <time>2016-10-30T09:29:21.000Z</time>
      </trkpt>
      <trkpt lat="47.86575" lon="2.06323">
        <ele>98</ele>
        <time>2016-10-30T09:29:22.000Z</time>
      </trkpt>
      <trkpt lat="47.86573" lon="2.06319">
        <ele>99</ele>
        <time>2016-10-30T09:29:23.000Z</time>
      </trkpt>
      <trkpt lat="47.8657" lon="2.06316">
        <ele>99</ele>
        <time>2016-10-30T09:29:24.000Z</time>
      </trkpt>
      <trkpt lat="47.86568" lon="2.06312">
        <ele>99</ele>
        <time>2016-10-30T09:29:25.000Z</time>
      </trkpt>
      <trkpt lat="47.86565" lon="2.06308">
        <ele>99</ele>
        <time>2016-10-30T09:29:26.000Z</time>
      </trkpt>
      <trkpt lat="47.86563" lon="2.06304">
        <ele>99</ele>
        <time>2016-10-30T09:29:27.000Z</time>
      </trkpt>
      <trkpt lat="47.8656" lon="2.06299">
        <ele>99</ele>
        <time>2016-10-30T09:29:28.000Z</time>
      </trkpt>
      <trkpt lat="47.86558" lon="2.06294">
        <ele>99</ele>
        <time>2016-10-30T09:29:29.000Z</time>
      </trkpt>
      <trkpt lat="47.86556" lon="2.06289">
        <ele>99</ele>
        <time>2016-10-30T09:29:30.000Z</time>
      </trkpt>
      <trkpt lat="47.86554" lon="2.06283">
        <ele>99</ele>
        <time>2016-10-30T09:29:31.000Z</time>
      </trkpt>
      <trkpt lat="47.86551" lon="2.06277">
        <ele>99</ele>
        <time>2016-10-30T09:29:32.000Z</time>
      </trkpt>
      <trkpt lat="47.86549" lon="2.06271">
        <ele>98</ele>
        <time>2016-10-30T09:29:33.000Z</time>
      </trkpt>
      <trkpt lat="47.86547" lon="2.06265">
        <ele>98</ele>
        <time>2016-10-30T09:29:34.000Z</time>
      </trkpt>
      <trkpt lat="47.86545" lon="2.06258">
        <ele>98</ele>
        <time>2016-10-30T09:29:35.000Z</time>
      </trkpt>
      <trkpt lat="47.86542" lon="2.06252">
        <ele>98</ele>
        <time>2016-10-30T09:29:36.000Z</time>
      </trkpt>
      <trkpt lat="47.86539" lon="2.06246">
        <ele>98</ele>
        <time>2016-10-30T09:29:37.000Z</time>
      </trkpt>
      <trkpt lat="47.86536" lon="2.06241">
        <ele>98</ele>
        <time>2016-10-30T09:29:38.000Z</time>
      </trkpt>
      <trkpt lat="47.86533" lon="2.06235">
        <ele>98</ele>
        <time>2016-10-30T09:29:39.000Z</time>
      </trkpt>
      <trkpt lat="47.8653" lon="2.06229">
        <ele>98</ele>
        <time>2016-10-30T09:29:40.000Z</time>
      </trkpt>
      <trkpt lat="47.86528" lon="2.06222">
        <ele>98</ele>
        <time>2016-10-30T09:29:41.000Z</time>
      </trkpt>
      <trkpt lat="47.86525" lon="2.06216">
        <ele>97</ele>
        <time>2016-10-30T09:29:42.000Z</time>
      </trkpt>
      <trkpt lat="47.86522" lon="2.06209">
        <ele>97</ele>
        <time>2016-10-30T09:29:43.000Z</time>
      </trkpt>
      <trkpt lat="47.86519" lon="2.06203">
        <ele>97</ele>
        <time>2016-10-30T09:29:44.000Z</time>
      </trkpt>
      <trkpt lat="47.86516" lon="2.06196">
        <ele>96</ele>
        <time>2016-10-30T09:29:45.000Z</time>
      </trkpt>
      <trkpt lat="47.86512" lon="2.0619">
        <ele>97</ele>
        <time>2016-10-30T09:29:46.000Z</time>
      </trkpt>
      <trkpt lat="47.86509" lon="2.06183">
        <ele>96</ele>
        <time>2016-10-30T09:29:47.000Z</time>
      </trkpt>
      <trkpt lat="47.86505" lon="2.06176">
        <ele>96</ele>
        <time>2016-10-30T09:29:48.000Z</time>
      </trkpt>
      <trkpt lat="47.86503" lon="2.06169">
        <ele>96</ele>
        <time>2016-10-30T09:29:49.000Z</time>
      </trkpt>
      <trkpt lat="47.865" lon="2.06161">
        <ele>97</ele>
        <time>2016-10-30T09:29:50.000Z</time>
      </trkpt>
      <trkpt lat="47.86498" lon="2.06153">
        <ele>97</ele>
        <time>2016-10-30T09:29:51.000Z</time>
      </trkpt>
      <trkpt lat="47.86496" lon="2.06145">
        <ele>97</ele>
        <time>2016-10-30T09:29:52.000Z</time>
      </trkpt>
      <trkpt lat="47.86494" lon="2.06138">
        <ele>97</ele>
        <time>2016-10-30T09:29:53.000Z</time>
      </trkpt>
      <trkpt lat="47.86491" lon="2.06131">
        <ele>97</ele>
        <time>2016-10-30T09:29:54.000Z</time>
      </trkpt>
      <trkpt lat="47.86488" lon="2.06124">
        <ele>97</ele>
        <time>2016-10-30T09:29:55.000Z</time>
      </trkpt>
      <trkpt lat="47.86485" lon="2.06117">
        <ele>97</ele>
        <time>2016-10-30T09:29:56.000Z</time>
      </trkpt>
      <trkpt lat="47.86482" lon="2.06111">
        <ele>97</ele>
        <time>2016-10-30T09:29:57.000Z</time>
      </trkpt>
      <trkpt lat="47.86479" lon="2.06105">
        <ele>97</ele>
        <time>2016-10-30T09:29:58.000Z</time>
      </trkpt>
      <trkpt lat="47.86476" lon="2.061">
        <ele>97</ele>
        <time>2016-10-30T09:29:59.000Z</time>
      </trkpt>
      <trkpt lat="47.86473" lon="2.06094">
        <ele>97</ele>
        <time>2016-10-30T09:30:00.000Z</time>
      </trkpt>
      <trkpt lat="47.8647" lon="2.06089">
        <ele>97</ele>
        <time>2016-10-30T09:30:01.000Z</time>
      </trkpt>
      <trkpt lat="47.86467" lon="2.06083">
        <ele>97</ele>
        <time>2016-10-30T09:30:02.000Z</time>
      </trkpt>
      <trkpt lat="47.86464" lon="2.06077">
        <ele>97</ele>
        <time>2016-10-30T09:30:03.000Z</time>
      </trkpt>
      <trkpt lat="47.86461" lon="2.06071">
        <ele>97</ele>
        <time>2016-10-30T09:30:04.000Z</time>
      </trkpt>
      <trkpt lat="47.86458" lon="2.06065">
        <ele>98</ele>
        <time>2016-10-30T09:30:05.000Z</time>
      </trkpt>
      <trkpt lat="47.86455" lon="2.0606">
        <ele>97</ele>
        <time>2016-10-30T09:30:06.000Z</time>
      </trkpt>
      <trkpt lat="47.86452" lon="2.06054">
        <ele>97</ele>
        <time>2016-10-30T09:30:07.000Z</time>
      </trkpt>
      <trkpt lat="47.86449" lon="2.06048">
        <ele>97</ele>
        <time>2016-10-30T09:30:08.000Z</time>
      </trkpt>
      <trkpt lat="47.86446" lon="2.06042">
        <ele>97</ele>
        <time>2016-10-30T09:30:09.000Z</time>
      </trkpt>
      <trkpt lat="47.86443" lon="2.06036">
        <ele>97</ele>
        <time>2016-10-30T09:30:10.000Z</time>
      </trkpt>
      <trkpt lat="47.86439" lon="2.0603">
        <ele>97</ele>
        <time>2016-10-30T09:30:11.000Z</time>
      </trkpt>
      <trkpt lat="47.86436" lon="2.06024">
        <ele>96</ele>
        <time>2016-10-30T09:30:12.000Z</time>
      </trkpt>
      <trkpt lat="47.86433" lon="2.06019">
        <ele>97</ele>
        <time>2016-10-30T09:30:13.000Z</time>
      </trkpt>
      <trkpt lat="47.8643" lon="2.06013">
        <ele>97</ele>
        <time>2016-10-30T09:30:14.000Z</time>
      </trkpt>
      <trkpt lat="47.86427" lon="2.06007">
        <ele>97</ele>
        <time>2016-10-30T09:30:15.000Z</time>
      </trkpt>
      <trkpt lat="47.86424" lon="2.06002">
        <ele>96</ele>
        <time>2016-10-30T09:30:16.000Z</time>
      </trkpt>
      <trkpt lat="47.86421" lon="2.05997">
        <ele>96</ele>
        <time>2016-10-30T09:30:17.000Z</time>
      </trkpt>
      <trkpt lat="47.86418" lon="2.05992">
        <ele>96</ele>
        <time>2016-10-30T09:30:18.000Z</time>
      </trkpt>
      <trkpt lat="47.86415" lon="2.05987">
        <ele>96</ele>
        <time>2016-10-30T09:30:19.000Z</time>
      </trkpt>
      <trkpt lat="47.86411" lon="2.05981">
        <ele>95</ele>
        <time>2016-10-30T09:30:20.000Z</time>
      </trkpt>
      <trkpt lat="47.86408" lon="2.05976">
        <ele>96</ele>
        <time>2016-10-30T09:30:21.000Z</time>
      </trkpt>
      <trkpt lat="47.86404" lon="2.05971">
        <ele>95</ele>
        <time>2016-10-30T09:30:22.000Z</time>
      </trkpt>
      <trkpt lat="47.864" lon="2.05966">
        <ele>96</ele>
        <time>2016-10-30T09:30:23.000Z</time>
      </trkpt>
      <trkpt lat="47.86396" lon="2.05961">
        <ele>96</ele>
        <time>2016-10-30T09:30:24.000Z</time>
      </trkpt>
      <trkpt lat="47.86392" lon="2.05956">
        <ele>95</ele>
        <time>2016-10-30T09:30:25.000Z</time>
      </trkpt>
      <trkpt lat="47.86388" lon="2.05951">
        <ele>95</ele>
        <time>2016-10-30T09:30:26.000Z</time>
      </trkpt>
      <trkpt lat="47.86385" lon="2.05946">
        <ele>95</ele>
        <time>2016-10-30T09:30:27.000Z</time>
      </trkpt>
      <trkpt lat="47.86381" lon="2.05941">
        <ele>95</ele>
        <time>2016-10-30T09:30:28.000Z</time>
      </trkpt>
      <trkpt lat="47.86377" lon="2.05936">
        <ele>95</ele>
        <time>2016-10-30T09:30:29.000Z</time>
      </trkpt>
      <trkpt lat="47.86373" lon="2.0593">
        <ele>95</ele>
        <time>2016-10-30T09:30:30.000Z</time>
      </trkpt>
      <trkpt lat="47.86369" lon="2.05924">
        <ele>95</ele>
        <time>2016-10-30T09:30:31.000Z</time>
      </trkpt>
      <trkpt lat="47.86364" lon="2.05919">
        <ele>95</ele>
        <time>2016-10-30T09:30:32.000Z</time>
      </trkpt>
      <trkpt lat="47.8636" lon="2.05914">
        <ele>95</ele>
        <time>2016-10-30T09:30:33.000Z</time>
      </trkpt>
      <trkpt lat="47.86356" lon="2.05909">
        <ele>95</ele>
        <time>2016-10-30T09:30:34.000Z</time>
      </trkpt>
      <trkpt lat="47.86351" lon="2.05903">
        <ele>95</ele>
        <time>2016-10-30T09:30:35.000Z</time>
      </trkpt>
      <trkpt lat="47.86347" lon="2.05898">
        <ele>95</ele>
        <time>2016-10-30T09:30:36.000Z</time>
      </trkpt>
      <trkpt lat="47.86342" lon="2.05894">
        <ele>94</ele>
        <time>2016-10-30T09:30:37.000Z</time>
      </trkpt>
      <trkpt lat="47.86338" lon="2.0589">
        <ele>94</ele>
        <time>2016-10-30T09:30:38.000Z</time>
      </trkpt>
      <trkpt lat="47.86334" lon="2.05886">
        <ele>94</ele>
        <time>2016-10-30T09:30:39.000Z</time>
      </trkpt>
      <trkpt lat="47.86331" lon="2.05881">
        <ele>93</ele>
        <time>2016-10-30T09:30:40.000Z</time>
      </trkpt>
      <trkpt lat="47.86327" lon="2.05877">
        <ele>93</ele>
        <time>2016-10-30T09:30:41.000Z</time>
      </trkpt>
      <trkpt lat="47.86322" lon="2.05871">
        <ele>93</ele>
        <time>2016-10-30T09:30:42.000Z</time>
      </trkpt>
      <trkpt lat="47.86317" lon="2.05866">
        <ele>93</ele>
        <time>2016-10-30T09:30:43.000Z</time>
      </trkpt>
      <trkpt lat="47.86313" lon="2.05861">
        <ele>93</ele>
        <time>2016-10-30T09:30:44.000Z</time>
      </trkpt>
      <trkpt lat="47.86308" lon="2.05855">
        <ele>93</ele>
        <time>2016-10-30T09:30:45.000Z</time>
      </trkpt>
      <trkpt lat="47.86304" lon="2.0585">
        <ele>93</ele>
        <time>2016-10-30T09:30:46.000Z</time>
      </trkpt>
      <trkpt lat="47.863" lon="2.05844">
        <ele>94</ele>
        <time>2016-10-30T09:30:47.000Z</time>
      </trkpt>
      <trkpt lat="47.86295" lon="2.05838">
        <ele>94</ele>
        <time>2016-10-30T09:30:48.000Z</time>
      </trkpt>
      <trkpt lat="47.86291" lon="2.05832">
        <ele>95</ele>
        <time>2016-10-30T09:30:49.000Z</time>
      </trkpt>
      <trkpt lat="47.86286" lon="2.05825">
        <ele>96</ele>
        <time>2016-10-30T09:30:50.000Z</time>
      </trkpt>
      <trkpt lat="47.86282" lon="2.05819">
        <ele>96</ele>
        <time>2016-10-30T09:30:51.000Z</time>
      </trkpt>
      <trkpt lat="47.86279" lon="2.05812">
        <ele>96</ele>
        <time>2016-10-30T09:30:52.000Z</time>
      </trkpt>
      <trkpt lat="47.86275" lon="2.05806">
        <ele>96</ele>
        <time>2016-10-30T09:30:53.000Z</time>
      </trkpt>
      <trkpt lat="47.86271" lon="2.058">
        <ele>96</ele>
        <time>2016-10-30T09:30:54.000Z</time>
      </trkpt>
      <trkpt lat="47.86266" lon="2.05794">
        <ele>96</ele>
        <time>2016-10-30T09:30:55.000Z</time>
      </trkpt>
      <trkpt lat="47.86261" lon="2.05788">
        <ele>97</ele>
        <time>2016-10-30T09:30:56.000Z</time>
      </trkpt>
      <trkpt lat="47.86255" lon="2.05783">
        <ele>97</ele>
        <time>2016-10-30T09:30:57.000Z</time>
      </trkpt>
      <trkpt lat="47.8625" lon="2.05778">
        <ele>96</ele>
        <time>2016-10-30T09:30:58.000Z</time>
      </trkpt>
      <trkpt lat="47.86245" lon="2.05774">
        <ele>96</ele>
        <time>2016-10-30T09:30:59.000Z</time>
      </trkpt>
      <trkpt lat="47.86239" lon="2.0577">
        <ele>96</ele>
        <time>2016-10-30T09:31:00.000Z</time>
      </trkpt>
      <trkpt lat="47.86234" lon="2.05766">
        <ele>96</ele>
        <time>2016-10-30T09:31:01.000Z</time>
      </trkpt>
      <trkpt lat="47.86228" lon="2.05762">
        <ele>96</ele>
        <time>2016-10-30T09:31:02.000Z</time>
      </trkpt>
      <trkpt lat="47.86223" lon="2.05758">
        <ele>96</ele>
        <time>2016-10-30T09:31:03.000Z</time>
      </trkpt>
      <trkpt lat="47.86217" lon="2.05754">
        <ele>97</ele>
        <time>2016-10-30T09:31:04.000Z</time>
      </trkpt>
      <trkpt lat="47.86212" lon="2.0575">
        <ele>97</ele>
        <time>2016-10-30T09:31:05.000Z</time>
      </trkpt>
      <trkpt lat="47.86207" lon="2.05745">
        <ele>97</ele>
        <time>2016-10-30T09:31:06.000Z</time>
      </trkpt>
      <trkpt lat="47.86202" lon="2.0574">
        <ele>97</ele>
        <time>2016-10-30T09:31:07.000Z</time>
      </trkpt>
      <trkpt lat="47.86197" lon="2.05736">
        <ele>97</ele>
        <time>2016-10-30T09:31:08.000Z</time>
      </trkpt>
      <trkpt lat="47.86192" lon="2.05731">
        <ele>97</ele>
        <time>2016-10-30T09:31:09.000Z</time>
      </trkpt>
      <trkpt lat="47.86187" lon="2.05727">
        <ele>97</ele>
        <time>2016-10-30T09:31:10.000Z</time>
      </trkpt>
      <trkpt lat="47.86181" lon="2.05723">
        <ele>95</ele>
        <time>2016-10-30T09:31:11.000Z</time>
      </trkpt>
      <trkpt lat="47.86177" lon="2.05719">
        <ele>95</ele>
        <time>2016-10-30T09:31:12.000Z</time>
      </trkpt>
      <trkpt lat="47.86172" lon="2.05715">
        <ele>96</ele>
        <time>2016-10-30T09:31:13.000Z</time>
      </trkpt>
      <trkpt lat="47.86167" lon="2.05711">
        <ele>97</ele>
        <time>2016-10-30T09:31:14.000Z</time>
      </trkpt>
      <trkpt lat="47.86162" lon="2.05707">
        <ele>97</ele>
        <time>2016-10-30T09:31:15.000Z</time>
      </trkpt>
      <trkpt lat="47.86158" lon="2.05704">
        <ele>98</ele>
        <time>2016-10-30T09:31:16.000Z</time>
      </trkpt>
      <trkpt lat="47.86153" lon="2.057">
        <ele>98</ele>
        <time>2016-10-30T09:31:17.000Z</time>
      </trkpt>
      <trkpt lat="47.86149" lon="2.05696">
        <ele>97</ele>
        <time>2016-10-30T09:31:18.000Z</time>
      </trkpt>
      <trkpt lat="47.86144" lon="2.05692">
        <ele>97</ele>
        <time>2016-10-30T09:31:19.000Z</time>
      </trkpt>
      <trkpt lat="47.8614" lon="2.05687">
        <ele>98</ele>
        <time>2016-10-30T09:31:20.000Z</time>
      </trkpt>
      <trkpt lat="47.86135" lon="2.05682">
        <ele>97</ele>
        <time>2016-10-30T09:31:21.000Z</time>
      </trkpt>
      <trkpt lat="47.8613" lon="2.05676">
        <ele>98</ele>
        <time>2016-10-30T09:31:22.000Z</time>
      </trkpt>
      <trkpt lat="47.86126" lon="2.0567">
        <ele>97</ele>
        <time>2016-10-30T09:31:23.000Z</time>
      </trkpt>
      <trkpt lat="47.86121" lon="2.05665">
        <ele>98</ele>
        <time>2016-10-30T09:31:24.000Z</time>
      </trkpt>
      <trkpt lat="47.86116" lon="2.0566">
        <ele>98</ele>
        <time>2016-10-30T09:31:25.000Z</time>
      </trkpt>
      <trkpt lat="47.86111" lon="2.05654">
        <ele>98</ele>
        <time>2016-10-30T09:31:26.000Z</time>
      </trkpt>
      <trkpt lat="47.86106" lon="2.05649">
        <ele>99</ele>
        <time>2016-10-30T09:31:27.000Z</time>
      </trkpt>
      <trkpt lat="47.86101" lon="2.05644">
        <ele>100</ele>
        <time>2016-10-30T09:31:28.000Z</time>
      </trkpt>
      <trkpt lat="47.86096" lon="2.05639">
        <ele>101</ele>
        <time>2016-10-30T09:31:29.000Z</time>
      </trkpt>
      <trkpt lat="47.86091" lon="2.05635">
        <ele>101</ele>
        <time>2016-10-30T09:31:30.000Z</time>
      </trkpt>
      <trkpt lat="47.86085" lon="2.05631">
        <ele>101</ele>
        <time>2016-10-30T09:31:31.000Z</time>
      </trkpt>
      <trkpt lat="47.8608" lon="2.05626">
        <ele>102</ele>
        <time>2016-10-30T09:31:32.000Z</time>
      </trkpt>
      <trkpt lat="47.86075" lon="2.05621">
        <ele>102</ele>
        <time>2016-10-30T09:31:33.000Z</time>
      </trkpt>
      <trkpt lat="47.8607" lon="2.05616">
        <ele>103</ele>
        <time>2016-10-30T09:31:34.000Z</time>
      </trkpt>
      <trkpt lat="47.86065" lon="2.0561">
        <ele>103</ele>
        <time>2016-10-30T09:31:35.000Z</time>
      </trkpt>
      <trkpt lat="47.86061" lon="2.05605">
        <ele>103</ele>
        <time>2016-10-30T09:31:36.000Z</time>
      </trkpt>
      <trkpt lat="47.86057" lon="2.05599">
        <ele>103</ele>
        <time>2016-10-30T09:31:37.000Z</time>
      </trkpt>
      <trkpt lat="47.86052" lon="2.05592">
        <ele>103</ele>
        <time>2016-10-30T09:31:38.000Z</time>
      </trkpt>
      <trkpt lat="47.86046" lon="2.05585">
        <ele>103</ele>
        <time>2016-10-30T09:31:39.000Z</time>
      </trkpt>
      <trkpt lat="47.86039" lon="2.05577">
        <ele>103</ele>
        <time>2016-10-30T09:31:40.000Z</time>
      </trkpt>
      <trkpt lat="47.86033" lon="2.05571">
        <ele>102</ele>
        <time>2016-10-30T09:31:41.000Z</time>
      </trkpt>
      <trkpt lat="47.86028" lon="2.05565">
        <ele>103</ele>
        <time>2016-10-30T09:31:42.000Z</time>
      </trkpt>
      <trkpt lat="47.86023" lon="2.05559">
        <ele>103</ele>
        <time>2016-10-30T09:31:43.000Z</time>
      </trkpt>
      <trkpt lat="47.86018" lon="2.05554">
        <ele>103</ele>
        <time>2016-10-30T09:31:44.000Z</time>
      </trkpt>
      <trkpt lat="47.86013" lon="2.05548">
        <ele>103</ele>
        <time>2016-10-30T09:31:45.000Z</time>
      </trkpt>
      <trkpt lat="47.86008" lon="2.05542">
        <ele>103</ele>
        <time>2016-10-30T09:31:46.000Z</time>
      </trkpt>
      <trkpt lat="47.86003" lon="2.05536">
        <ele>103</ele>
        <time>2016-10-30T09:31:47.000Z</time>
      </trkpt>
      <trkpt lat="47.85998" lon="2.0553">
        <ele>103</ele>
        <time>2016-10-30T09:31:48.000Z</time>
      </trkpt>
      <trkpt lat="47.85993" lon="2.05524">
        <ele>103</ele>
        <time>2016-10-30T09:31:49.000Z</time>
      </trkpt>
      <trkpt lat="47.85989" lon="2.05518">
        <ele>103</ele>
        <time>2016-10-30T09:31:50.000Z</time>
      </trkpt>
      <trkpt lat="47.85984" lon="2.05513">
        <ele>103</ele>
        <time>2016-10-30T09:31:51.000Z</time>
      </trkpt>
      <trkpt lat="47.85979" lon="2.05508">
        <ele>103</ele>
        <time>2016-10-30T09:31:52.000Z</time>
      </trkpt>
      <trkpt lat="47.85975" lon="2.05503">
        <ele>104</ele>
        <time>2016-10-30T09:31:53.000Z</time>
      </trkpt>
      <trkpt lat="47.8597" lon="2.05498">
        <ele>102</ele>
        <time>2016-10-30T09:31:54.000Z</time>
      </trkpt>
      <trkpt lat="47.85965" lon="2.05494">
        <ele>101</ele>
        <time>2016-10-30T09:31:55.000Z</time>
      </trkpt>
      <trkpt lat="47.8596" lon="2.05489">
        <ele>101</ele>
        <time>2016-10-30T09:31:56.000Z</time>
      </trkpt>
      <trkpt lat="47.85955" lon="2.05484">
        <ele>101</ele>
        <time>2016-10-30T09:31:57.000Z</time>
      </trkpt>
      <trkpt lat="47.85951" lon="2.0548">
        <ele>100</ele>
        <time>2016-10-30T09:31:58.000Z</time>
      </trkpt>
      <trkpt lat="47.85947" lon="2.05476">
        <ele>99</ele>
        <time>2016-10-30T09:31:59.000Z</time>
      </trkpt>
      <trkpt lat="47.85942" lon="2.05472">
        <ele>100</ele>
        <time>2016-10-30T09:32:00.000Z</time>
      </trkpt>
      <trkpt lat="47.85938" lon="2.05468">
        <ele>99</ele>
        <time>2016-10-30T09:32:01.000Z</time>
      </trkpt>
      <trkpt lat="47.85933" lon="2.05465">
        <ele>98</ele>
        <time>2016-10-30T09:32:02.000Z</time>
      </trkpt>
      <trkpt lat="47.85928" lon="2.05461">
        <ele>98</ele>
        <time>2016-10-30T09:32:03.000Z</time>
      </trkpt>
      <trkpt lat="47.85924" lon="2.05458">
        <ele>98</ele>
        <time>2016-10-30T09:32:04.000Z</time>
      </trkpt>
      <trkpt lat="47.8592" lon="2.05454">
        <ele>98</ele>
        <time>2016-10-30T09:32:05.000Z</time>
      </trkpt>
      <trkpt lat="47.85915" lon="2.05451">
        <ele>98</ele>
        <time>2016-10-30T09:32:06.000Z</time>
      </trkpt>
      <trkpt lat="47.85911" lon="2.05447">
        <ele>99</ele>
        <time>2016-10-30T09:32:07.000Z</time>
      </trkpt>
      <trkpt lat="47.85906" lon="2.05444">
        <ele>100</ele>
        <time>2016-10-30T09:32:08.000Z</time>
      </trkpt>
      <trkpt lat="47.859" lon="2.05439">
        <ele>100</ele>
        <time>2016-10-30T09:32:09.000Z</time>
      </trkpt>
      <trkpt lat="47.85895" lon="2.05435">
        <ele>99</ele>
        <time>2016-10-30T09:32:10.000Z</time>
      </trkpt>
      <trkpt lat="47.85891" lon="2.0543">
        <ele>98</ele>
        <time>2016-10-30T09:32:11.000Z</time>
      </trkpt>
      <trkpt lat="47.85887" lon="2.05425">
        <ele>98</ele>
        <time>2016-10-30T09:32:12.000Z</time>
      </trkpt>
      <trkpt lat="47.85882" lon="2.0542">
        <ele>99</ele>
        <time>2016-10-30T09:32:13.000Z</time>
      </trkpt>
      <trkpt lat="47.85877" lon="2.05415">
        <ele>98</ele>
        <time>2016-10-30T09:32:14.000Z</time>
      </trkpt>
      <trkpt lat="47.85873" lon="2.0541">
        <ele>98</ele>
        <time>2016-10-30T09:32:15.000Z</time>
      </trkpt>
      <trkpt lat="47.85869" lon="2.05404">
        <ele>98</ele>
        <time>2016-10-30T09:32:16.000Z</time>
      </trkpt>
      <trkpt lat="47.85864" lon="2.05398">
        <ele>97</ele>
        <time>2016-10-30T09:32:17.000Z</time>
      </trkpt>
      <trkpt lat="47.8586" lon="2.05391">
        <ele>97</ele>
        <time>2016-10-30T09:32:18.000Z</time>
      </trkpt>
      <trkpt lat="47.85855" lon="2.05385">
        <ele>97</ele>
        <time>2016-10-30T09:32:19.000Z</time>
      </trkpt>
      <trkpt lat="47.85851" lon="2.05378">
        <ele>97</ele>
        <time>2016-10-30T09:32:20.000Z</time>
      </trkpt>
      <trkpt lat="47.85847" lon="2.0537">
        <ele>96</ele>
        <time>2016-10-30T09:32:21.000Z</time>
      </trkpt>
      <trkpt lat="47.85842" lon="2.05363">
        <ele>96</ele>
        <time>2016-10-30T09:32:22.000Z</time>
      </trkpt>
      <trkpt lat="47.85838" lon="2.05355">
        <ele>97</ele>
        <time>2016-10-30T09:32:23.000Z</time>
      </trkpt>
      <trkpt lat="47.85834" lon="2.05348">
        <ele>96</ele>
        <time>2016-10-30T09:32:24.000Z</time>
      </trkpt>
      <trkpt lat="47.8583" lon="2.05341">
        <ele>96</ele>
        <time>2016-10-30T09:32:25.000Z</time>
      </trkpt>
      <trkpt lat="47.85825" lon="2.05335">
        <ele>96</ele>
        <time>2016-10-30T09:32:26.000Z</time>
      </trkpt>
      <trkpt lat="47.85821" lon="2.05329">
        <ele>96</ele>
        <time>2016-10-30T09:32:27.000Z</time>
      </trkpt>
      <trkpt lat="47.85816" lon="2.05322">
        <ele>96</ele>
        <time>2016-10-30T09:32:28.000Z</time>
      </trkpt>
      <trkpt lat="47.85812" lon="2.05317">
        <ele>96</ele>
        <time>2016-10-30T09:32:29.000Z</time>
      </trkpt>
      <trkpt lat="47.85808" lon="2.05311">
        <ele>95</ele>
        <time>2016-10-30T09:32:30.000Z</time>
      </trkpt>
      <trkpt lat="47.85804" lon="2.05305">
        <ele>95</ele>
        <time>2016-10-30T09:32:31.000Z</time>
      </trkpt>
      <trkpt lat="47.858" lon="2.05299">
        <ele>95</ele>
        <time>2016-10-30T09:32:32.000Z</time>
      </trkpt>
      <trkpt lat="47.85795" lon="2.05293">
        <ele>94</ele>
        <time>2016-10-30T09:32:33.000Z</time>
      </trkpt>
      <trkpt lat="47.85791" lon="2.05286">
        <ele>93</ele>
        <time>2016-10-30T09:32:34.000Z</time>
      </trkpt>
      <trkpt lat="47.85787" lon="2.05279">
        <ele>91</ele>
        <time>2016-10-30T09:32:35.000Z</time>
      </trkpt>
      <trkpt lat="47.85783" lon="2.05271">
        <ele>92</ele>
        <time>2016-10-30T09:32:36.000Z</time>
      </trkpt>
      <trkpt lat="47.85778" lon="2.05264">
        <ele>91</ele>
        <time>2016-10-30T09:32:37.000Z</time>
      </trkpt>
      <trkpt lat="47.85774" lon="2.05256">
        <ele>92</ele>
        <time>2016-10-30T09:32:38.000Z</time>
      </trkpt>
      <trkpt lat="47.85769" lon="2.05249">
        <ele>92</ele>
        <time>2016-10-30T09:32:39.000Z</time>
      </trkpt>
      <trkpt lat="47.85764" lon="2.05241">
        <ele>92</ele>
        <time>2016-10-30T09:32:40.000Z</time>
      </trkpt>
      <trkpt lat="47.8576" lon="2.05234">
        <ele>93</ele>
        <time>2016-10-30T09:32:41.000Z</time>
      </trkpt>
      <trkpt lat="47.85755" lon="2.05226">
        <ele>93</ele>
        <time>2016-10-30T09:32:42.000Z</time>
      </trkpt>
      <trkpt lat="47.8575" lon="2.05218">
        <ele>94</ele>
        <time>2016-10-30T09:32:43.000Z</time>
      </trkpt>
      <trkpt lat="47.85746" lon="2.0521">
        <ele>94</ele>
        <time>2016-10-30T09:32:44.000Z</time>
      </trkpt>
      <trkpt lat="47.85742" lon="2.05202">
        <ele>95</ele>
        <time>2016-10-30T09:32:45.000Z</time>
      </trkpt>
      <trkpt lat="47.85738" lon="2.05194">
        <ele>95</ele>
        <time>2016-10-30T09:32:46.000Z</time>
      </trkpt>
      <trkpt lat="47.85734" lon="2.05187">
        <ele>95</ele>
        <time>2016-10-30T09:32:47.000Z</time>
      </trkpt>
      <trkpt lat="47.85729" lon="2.05179">
        <ele>96</ele>
        <time>2016-10-30T09:32:48.000Z</time>
      </trkpt>
      <trkpt lat="47.85723" lon="2.05172">
        <ele>97</ele>
        <time>2016-10-30T09:32:49.000Z</time>
      </trkpt>
      <trkpt lat="47.85717" lon="2.05166">
        <ele>97</ele>
        <time>2016-10-30T09:32:50.000Z</time>
      </trkpt>
      <trkpt lat="47.85712" lon="2.05159">
        <ele>97</ele>
        <time>2016-10-30T09:32:51.000Z</time>
      </trkpt>
      <trkpt lat="47.85707" lon="2.05152">
        <ele>97</ele>
        <time>2016-10-30T09:32:52.000Z</time>
      </trkpt>
      <trkpt lat="47.85702" lon="2.05145">
        <ele>97</ele>
        <time>2016-10-30T09:32:53.000Z</time>
      </trkpt>
      <trkpt lat="47.85696" lon="2.0514">
        <ele>98</ele>
        <time>2016-10-30T09:32:54.000Z</time>
      </trkpt>
      <trkpt lat="47.85691" lon="2.05136">
        <ele>97</ele>
        <time>2016-10-30T09:32:55.000Z</time>
      </trkpt>
      <trkpt lat="47.85685" lon="2.05133">
        <ele>98</ele>
        <time>2016-10-30T09:32:56.000Z</time>
      </trkpt>
      <trkpt lat="47.8568" lon="2.0513">
        <ele>98</ele>
        <time>2016-10-30T09:32:57.000Z</time>
      </trkpt>
      <trkpt lat="47.85674" lon="2.05126">
        <ele>98</ele>
        <time>2016-10-30T09:32:58.000Z</time>
      </trkpt>
      <trkpt lat="47.8567" lon="2.05122">
        <ele>98</ele>
        <time>2016-10-30T09:32:59.000Z</time>
      </trkpt>
      <trkpt lat="47.85665" lon="2.05117">
        <ele>98</ele>
        <time>2016-10-30T09:33:00.000Z</time>
      </trkpt>
      <trkpt lat="47.85661" lon="2.05113">
        <ele>98</ele>
        <time>2016-10-30T09:33:01.000Z</time>
      </trkpt>
      <trkpt lat="47.85656" lon="2.05107">
        <ele>98</ele>
        <time>2016-10-30T09:33:02.000Z</time>
      </trkpt>
      <trkpt lat="47.85653" lon="2.05101">
        <ele>97</ele>
        <time>2016-10-30T09:33:03.000Z</time>
      </trkpt>
      <trkpt lat="47.8565" lon="2.05094">
        <ele>96</ele>
        <time>2016-10-30T09:33:04.000Z</time>
      </trkpt>
      <trkpt lat="47.85646" lon="2.05087">
        <ele>97</ele>
        <time>2016-10-30T09:33:05.000Z</time>
      </trkpt>
      <trkpt lat="47.85642" lon="2.05081">
        <ele>96</ele>
        <time>2016-10-30T09:33:06.000Z</time>
      </trkpt>
      <trkpt lat="47.85637" lon="2.05075">
        <ele>97</ele>
        <time>2016-10-30T09:33:07.000Z</time>
      </trkpt>
      <trkpt lat="47.85633" lon="2.05071">
        <ele>96</ele>
        <time>2016-10-30T09:33:08.000Z</time>
      </trkpt>
      <trkpt lat="47.85628" lon="2.05066">
        <ele>97</ele>
        <time>2016-10-30T09:33:09.000Z</time>
      </trkpt>
      <trkpt lat="47.85623" lon="2.05062">
        <ele>97</ele>
        <time>2016-10-30T09:33:10.000Z</time>
      </trkpt>
      <trkpt lat="47.85619" lon="2.05056">
        <ele>97</ele>
        <time>2016-10-30T09:33:11.000Z</time>
      </trkpt>
      <trkpt lat="47.85615" lon="2.05051">
        <ele>97</ele>
        <time>2016-10-30T09:33:12.000Z</time>
      </trkpt>
      <trkpt lat="47.85612" lon="2.05045">
        <ele>97</ele>
        <time>2016-10-30T09:33:13.000Z</time>
      </trkpt>
      <trkpt lat="47.85609" lon="2.05038">
        <ele>96</ele>
        <time>2016-10-30T09:33:14.000Z</time>
      </trkpt>
      <trkpt lat="47.85607" lon="2.05031">
        <ele>96</ele>
        <time>2016-10-30T09:33:15.000Z</time>
      </trkpt>
      <trkpt lat="47.85605" lon="2.05025">
        <ele>96</ele>
        <time>2016-10-30T09:33:16.000Z</time>
      </trkpt>
      <trkpt lat="47.85602" lon="2.05018">
        <ele>96</ele>
        <time>2016-10-30T09:33:17.000Z</time>
      </trkpt>
      <trkpt lat="47.856" lon="2.05011">
        <ele>95</ele>
        <time>2016-10-30T09:33:18.000Z</time>
      </trkpt>
      <trkpt lat="47.85597" lon="2.05005">
        <ele>96</ele>
        <time>2016-10-30T09:33:19.000Z</time>
      </trkpt>
      <trkpt lat="47.85594" lon="2.05">
        <ele>96</ele>
        <time>2016-10-30T09:33:20.000Z</time>
      </trkpt>
      <trkpt lat="47.8559" lon="2.04995">
        <ele>96</ele>
        <time>2016-10-30T09:33:21.000Z</time>
      </trkpt>
      <trkpt lat="47.85585" lon="2.04991">
        <ele>96</ele>
        <time>2016-10-30T09:33:22.000Z</time>
      </trkpt>
      <trkpt lat="47.85579" lon="2.04987">
        <ele>97</ele>
        <time>2016-10-30T09:33:23.000Z</time>
      </trkpt>
      <trkpt lat="47.85575" lon="2.04982">
        <ele>97</ele>
        <time>2016-10-30T09:33:24.000Z</time>
      </trkpt>
      <trkpt lat="47.85571" lon="2.04976">
        <ele>97</ele>
        <time>2016-10-30T09:33:25.000Z</time>
      </trkpt>
      <trkpt lat="47.85568" lon="2.04971">
        <ele>97</ele>
        <time>2016-10-30T09:33:26.000Z</time>
      </trkpt>
      <trkpt lat="47.85564" lon="2.04966">
        <ele>98</ele>
        <time>2016-10-30T09:33:27.000Z</time>
      </trkpt>
      <trkpt lat="47.85561" lon="2.0496">
        <ele>97</ele>
        <time>2016-10-30T09:33:28.000Z</time>
      </trkpt>
      <trkpt lat="47.85559" lon="2.04953">
        <ele>97</ele>
        <time>2016-10-30T09:33:29.000Z</time>
      </trkpt>
      <trkpt lat="47.85558" lon="2.04947">
        <ele>96</ele>
        <time>2016-10-30T09:33:30.000Z</time>
      </trkpt>
      <trkpt lat="47.85556" lon="2.04941">
        <ele>96</ele>
        <time>2016-10-30T09:33:31.000Z</time>
      </trkpt>
      <trkpt lat="47.85554" lon="2.04936">
        <ele>96</ele>
        <time>2016-10-30T09:33:32.000Z</time>
      </trkpt>
      <trkpt lat="47.85552" lon="2.04931">
        <ele>95</ele>
        <time>2016-10-30T09:33:33.000Z</time>
      </trkpt>
      <trkpt lat="47.85549" lon="2.04926">
        <ele>95</ele>
        <time>2016-10-30T09:33:34.000Z</time>
      </trkpt>
      <trkpt lat="47.85546" lon="2.0492">
        <ele>94</ele>
        <time>2016-10-30T09:33:35.000Z</time>
      </trkpt>
      <trkpt lat="47.85544" lon="2.04914">
        <ele>94</ele>
        <time>2016-10-30T09:33:36.000Z</time>
      </trkpt>
      <trkpt lat="47.85543" lon="2.04907">
        <ele>93</ele>
        <time>2016-10-30T09:33:37.000Z</time>
      </trkpt>
      <trkpt lat="47.85542" lon="2.049">
        <ele>94</ele>
        <time>2016-10-30T09:33:38.000Z</time>
      </trkpt>
      <trkpt lat="47.8554" lon="2.04892">
        <ele>94</ele>
        <time>2016-10-30T09:33:39.000Z</time>
      </trkpt>
      <trkpt lat="47.85538" lon="2.04885">
        <ele>93</ele>
        <time>2016-10-30T09:33:40.000Z</time>
      </trkpt>
      <trkpt lat="47.85537" lon="2.04878">
        <ele>92</ele>
        <time>2016-10-30T09:33:41.000Z</time>
      </trkpt>
      <trkpt lat="47.85534" lon="2.04871">
        <ele>92</ele>
        <time>2016-10-30T09:33:42.000Z</time>
      </trkpt>
      <trkpt lat="47.85532" lon="2.04865">
        <ele>92</ele>
        <time>2016-10-30T09:33:43.000Z</time>
      </trkpt>
      <trkpt lat="47.85529" lon="2.04858">
        <ele>94</ele>
        <time>2016-10-30T09:33:44.000Z</time>
      </trkpt>
      <trkpt lat="47.85526" lon="2.04851">
        <ele>94</ele>
        <time>2016-10-30T09:33:45.000Z</time>
      </trkpt>
      <trkpt lat="47.85522" lon="2.04844">
        <ele>93</ele>
        <time>2016-10-30T09:33:46.000Z</time>
      </trkpt>
      <trkpt lat="47.85518" lon="2.04838">
        <ele>94</ele>
        <time>2016-10-30T09:33:47.000Z</time>
      </trkpt>
      <trkpt lat="47.85514" lon="2.0483">
        <ele>95</ele>
        <time>2016-10-30T09:33:48.000Z</time>
      </trkpt>
      <trkpt lat="47.85509" lon="2.04823">
        <ele>95</ele>
        <time>2016-10-30T09:33:49.000Z</time>
      </trkpt>
      <trkpt lat="47.85506" lon="2.04815">
        <ele>96</ele>
        <time>2016-10-30T09:33:50.000Z</time>
      </trkpt>
      <trkpt lat="47.85502" lon="2.04808">
        <ele>96</ele>
        <time>2016-10-30T09:33:51.000Z</time>
      </trkpt>
      <trkpt lat="47.85499" lon="2.04801">
        <ele>96</ele>
        <time>2016-10-30T09:33:52.000Z</time>
      </trkpt>
      <trkpt lat="47.85495" lon="2.04794">
        <ele>96</ele>
        <time>2016-10-30T09:33:53.000Z</time>
      </trkpt>
      <trkpt lat="47.85491" lon="2.04787">
        <ele>95</ele>
        <time>2016-10-30T09:33:54.000Z</time>
      </trkpt>
      <trkpt lat="47.85487" lon="2.04781">
        <ele>95</ele>
        <time>2016-10-30T09:33:55.000Z</time>
      </trkpt>
      <trkpt lat="47.85483" lon="2.04774">
        <ele>96</ele>
        <time>2016-10-30T09:33:56.000Z</time>
      </trkpt>
      <trkpt lat="47.85479" lon="2.04768">
        <ele>96</ele>
        <time>2016-10-30T09:33:57.000Z</time>
      </trkpt>
      <trkpt lat="47.85475" lon="2.04761">
        <ele>96</ele>
        <time>2016-10-30T09:33:58.000Z</time>
      </trkpt>
      <trkpt lat="47.85472" lon="2.04754">
        <ele>96</ele>
        <time>2016-10-30T09:33:59.000Z</time>
      </trkpt>
      <trkpt lat="47.85469" lon="2.04747">
        <ele>96</ele>
        <time>2016-10-30T09:34:00.000Z</time>
      </trkpt>
      <trkpt lat="47.85465" lon="2.0474">
        <ele>96</ele>
        <time>2016-10-30T09:34:01.000Z</time>
      </trkpt>
      <trkpt lat="47.85462" lon="2.04733">
        <ele>96</ele>
        <time>2016-10-30T09:34:02.000Z</time>
      </trkpt>
      <trkpt lat="47.85459" lon="2.04726">
        <ele>96</ele>
        <time>2016-10-30T09:34:03.000Z</time>
      </trkpt>
      <trkpt lat="47.85456" lon="2.04719">
        <ele>96</ele>
        <time>2016-10-30T09:34:04.000Z</time>
      </trkpt>
      <trkpt lat="47.85453" lon="2.04712">
        <ele>96</ele>
        <time>2016-10-30T09:34:05.000Z</time>
      </trkpt>
      <trkpt lat="47.8545" lon="2.04705">
        <ele>97</ele>
        <time>2016-10-30T09:34:06.000Z</time>
      </trkpt>
      <trkpt lat="47.85447" lon="2.04699">
        <ele>97</ele>
        <time>2016-10-30T09:34:07.000Z</time>
      </trkpt>
      <trkpt lat="47.85444" lon="2.04691">
        <ele>97</ele>
        <time>2016-10-30T09:34:08.000Z</time>
      </trkpt>
      <trkpt lat="47.8544" lon="2.04684">
        <ele>97</ele>
        <time>2016-10-30T09:34:09.000Z</time>
      </trkpt>
      <trkpt lat="47.85437" lon="2.04677">
        <ele>97</ele>
        <time>2016-10-30T09:34:10.000Z</time>
      </trkpt>
      <trkpt lat="47.85434" lon="2.0467">
        <ele>97</ele>
        <time>2016-10-30T09:34:11.000Z</time>
      </trkpt>
      <trkpt lat="47.85431" lon="2.04662">
        <ele>97</ele>
        <time>2016-10-30T09:34:12.000Z</time>
      </trkpt>
      <trkpt lat="47.85429" lon="2.04655">
        <ele>98</ele>
        <time>2016-10-30T09:34:13.000Z</time>
      </trkpt>
      <trkpt lat="47.85426" lon="2.04649">
        <ele>97</ele>
        <time>2016-10-30T09:34:14.000Z</time>
      </trkpt>
      <trkpt lat="47.85424" lon="2.04642">
        <ele>98</ele>
        <time>2016-10-30T09:34:15.000Z</time>
      </trkpt>
      <trkpt lat="47.85422" lon="2.04635">
        <ele>97</ele>
        <time>2016-10-30T09:34:16.000Z</time>
      </trkpt>
      <trkpt lat="47.85419" lon="2.04628">
        <ele>97</ele>
        <time>2016-10-30T09:34:17.000Z</time>
      </trkpt>
      <trkpt lat="47.85416" lon="2.0462">
        <ele>97</ele>
        <time>2016-10-30T09:34:18.000Z</time>
      </trkpt>
      <trkpt lat="47.85412" lon="2.04613">
        <ele>97</ele>
        <time>2016-10-30T09:34:19.000Z</time>
      </trkpt>
      <trkpt lat="47.85409" lon="2.04605">
        <ele>97</ele>
        <time>2016-10-30T09:34:20.000Z</time>
      </trkpt>
      <trkpt lat="47.85406" lon="2.04597">
        <ele>97</ele>
        <time>2016-10-30T09:34:21.000Z</time>
      </trkpt>
      <trkpt lat="47.85403" lon="2.0459">
        <ele>96</ele>
        <time>2016-10-30T09:34:22.000Z</time>
      </trkpt>
      <trkpt lat="47.854" lon="2.04582">
        <ele>97</ele>
        <time>2016-10-30T09:34:23.000Z</time>
      </trkpt>
      <trkpt lat="47.85398" lon="2.04574">
        <ele>97</ele>
        <time>2016-10-30T09:34:24.000Z</time>
      </trkpt>
      <trkpt lat="47.85395" lon="2.04567">
        <ele>97</ele>
        <time>2016-10-30T09:34:25.000Z</time>
      </trkpt>
      <trkpt lat="47.85393" lon="2.04559">
        <ele>97</ele>
        <time>2016-10-30T09:34:26.000Z</time>
      </trkpt>
      <trkpt lat="47.85391" lon="2.04551">
        <ele>97</ele>
        <time>2016-10-30T09:34:27.000Z</time>
      </trkpt>
      <trkpt lat="47.85389" lon="2.04542">
        <ele>97</ele>
        <time>2016-10-30T09:34:28.000Z</time>
      </trkpt>
      <trkpt lat="47.85387" lon="2.04534">
        <ele>98</ele>
        <time>2016-10-30T09:34:29.000Z</time>
      </trkpt>
      <trkpt lat="47.85384" lon="2.04527">
        <ele>98</ele>
        <time>2016-10-30T09:34:30.000Z</time>
      </trkpt>
      <trkpt lat="47.85382" lon="2.0452">
        <ele>98</ele>
        <time>2016-10-30T09:34:31.000Z</time>
      </trkpt>
      <trkpt lat="47.85379" lon="2.04513">
        <ele>97</ele>
        <time>2016-10-30T09:34:32.000Z</time>
      </trkpt>
      <trkpt lat="47.85376" lon="2.04506">
        <ele>97</ele>
        <time>2016-10-30T09:34:33.000Z</time>
      </trkpt>
      <trkpt lat="47.85373" lon="2.04499">
        <ele>97</ele>
        <time>2016-10-30T09:34:34.000Z</time>
      </trkpt>
      <trkpt lat="47.85371" lon="2.04493">
        <ele>97</ele>
        <time>2016-10-30T09:34:35.000Z</time>
      </trkpt>
      <trkpt lat="47.85368" lon="2.04486">
        <ele>98</ele>
        <time>2016-10-30T09:34:36.000Z</time>
      </trkpt>
      <trkpt lat="47.85366" lon="2.04479">
        <ele>98</ele>
        <time>2016-10-30T09:34:37.000Z</time>
      </trkpt>
      <trkpt lat="47.85363" lon="2.04471">
        <ele>98</ele>
        <time>2016-10-30T09:34:38.000Z</time>
      </trkpt>
      <trkpt lat="47.85361" lon="2.04463">
        <ele>98</ele>
        <time>2016-10-30T09:34:39.000Z</time>
      </trkpt>
      <trkpt lat="47.85358" lon="2.04455">
        <ele>98</ele>
        <time>2016-10-30T09:34:40.000Z</time>
      </trkpt>
      <trkpt lat="47.85356" lon="2.04447">
        <ele>98</ele>
        <time>2016-10-30T09:34:41.000Z</time>
      </trkpt>
      <trkpt lat="47.85354" lon="2.04439">
        <ele>98</ele>
        <time>2016-10-30T09:34:42.000Z</time>
      </trkpt>
      <trkpt lat="47.85352" lon="2.04431">
        <ele>98</ele>
        <time>2016-10-30T09:34:43.000Z</time>
      </trkpt>
      <trkpt lat="47.85349" lon="2.04423">
        <ele>98</ele>
        <time>2016-10-30T09:34:44.000Z</time>
      </trkpt>
      <trkpt lat="47.85347" lon="2.04415">
        <ele>97</ele>
        <time>2016-10-30T09:34:45.000Z</time>
      </trkpt>
      <trkpt lat="47.85345" lon="2.04408">
        <ele>97</ele>
        <time>2016-10-30T09:34:46.000Z</time>
      </trkpt>
      <trkpt lat="47.85343" lon="2.044">
        <ele>97</ele>
        <time>2016-10-30T09:34:47.000Z</time>
      </trkpt>
      <trkpt lat="47.85341" lon="2.04393">
        <ele>96</ele>
        <time>2016-10-30T09:34:48.000Z</time>
      </trkpt>
      <trkpt lat="47.85339" lon="2.04385">
        <ele>96</ele>
        <time>2016-10-30T09:34:49.000Z</time>
      </trkpt>
      <trkpt lat="47.85337" lon="2.04377">
        <ele>95</ele>
        <time>2016-10-30T09:34:50.000Z</time>
      </trkpt>
      <trkpt lat="47.85336" lon="2.04369">
        <ele>95</ele>
        <time>2016-10-30T09:34:51.000Z</time>
      </trkpt>
      <trkpt lat="47.85334" lon="2.04361">
        <ele>95</ele>
        <time>2016-10-30T09:34:52.000Z</time>
      </trkpt>
      <trkpt lat="47.85333" lon="2.04352">
        <ele>95</ele>
        <time>2016-10-30T09:34:53.000Z</time>
      </trkpt>
      <trkpt lat="47.85331" lon="2.04343">
        <ele>95</ele>
        <time>2016-10-30T09:34:54.000Z</time>
      </trkpt>
      <trkpt lat="47.85329" lon="2.04335">
        <ele>94</ele>
        <time>2016-10-30T09:34:55.000Z</time>
      </trkpt>
      <trkpt lat="47.85327" lon="2.04327">
        <ele>95</ele>
        <time>2016-10-30T09:34:56.000Z</time>
      </trkpt>
      <trkpt lat="47.85325" lon="2.04319">
        <ele>96</ele>
        <time>2016-10-30T09:34:57.000Z</time>
      </trkpt>
      <trkpt lat="47.85322" lon="2.04311">
        <ele>95</ele>
        <time>2016-10-30T09:34:58.000Z</time>
      </trkpt>
      <trkpt lat="47.85318" lon="2.04304">
        <ele>96</ele>
        <time>2016-10-30T09:34:59.000Z</time>
      </trkpt>
      <trkpt lat="47.85314" lon="2.04297">
        <ele>95</ele>
        <time>2016-10-30T09:35:00.000Z</time>
      </trkpt>
      <trkpt lat="47.8531" lon="2.04292">
        <ele>96</ele>
        <time>2016-10-30T09:35:01.000Z</time>
      </trkpt>
      <trkpt lat="47.85307" lon="2.04287">
        <ele>95</ele>
        <time>2016-10-30T09:35:02.000Z</time>
      </trkpt>
      <trkpt lat="47.85304" lon="2.04282">
        <ele>96</ele>
        <time>2016-10-30T09:35:03.000Z</time>
      </trkpt>
      <trkpt lat="47.85301" lon="2.04277">
        <ele>97</ele>
        <time>2016-10-30T09:35:04.000Z</time>
      </trkpt>
      <trkpt lat="47.853" lon="2.04272">
        <ele>97</ele>
        <time>2016-10-30T09:35:05.000Z</time>
      </trkpt>
      <trkpt lat="47.85299" lon="2.04267">
        <ele>97</ele>
        <time>2016-10-30T09:35:06.000Z</time>
      </trkpt>
      <trkpt lat="47.85298" lon="2.04262">
        <ele>98</ele>
        <time>2016-10-30T09:35:07.000Z</time>
      </trkpt>
      <trkpt lat="47.85297" lon="2.04258">
        <ele>97</ele>
        <time>2016-10-30T09:35:08.000Z</time>
      </trkpt>
      <trkpt lat="47.85296" lon="2.04253">
        <ele>98</ele>
        <time>2016-10-30T09:35:09.000Z</time>
      </trkpt>
      <trkpt lat="47.85296" lon="2.04248">
        <ele>98</ele>
        <time>2016-10-30T09:35:10.000Z</time>
      </trkpt>
      <trkpt lat="47.85295" lon="2.04242">
        <ele>98</ele>
        <time>2016-10-30T09:35:11.000Z</time>
      </trkpt>
      <trkpt lat="47.85295" lon="2.04236">
        <ele>98</ele>
        <time>2016-10-30T09:35:12.000Z</time>
      </trkpt>
      <trkpt lat="47.85296" lon="2.04229">
        <ele>98</ele>
        <time>2016-10-30T09:35:13.000Z</time>
      </trkpt>
      <trkpt lat="47.85296" lon="2.04222">
        <ele>98</ele>
        <time>2016-10-30T09:35:14.000Z</time>
      </trkpt>
      <trkpt lat="47.85297" lon="2.04215">
        <ele>98</ele>
        <time>2016-10-30T09:35:15.000Z</time>
      </trkpt>
      <trkpt lat="47.85297" lon="2.04208">
        <ele>98</ele>
        <time>2016-10-30T09:35:16.000Z</time>
      </trkpt>
      <trkpt lat="47.85297" lon="2.042">
        <ele>98</ele>
        <time>2016-10-30T09:35:17.000Z</time>
      </trkpt>
      <trkpt lat="47.85298" lon="2.04193">
        <ele>98</ele>
        <time>2016-10-30T09:35:18.000Z</time>
      </trkpt>
      <trkpt lat="47.85298" lon="2.04185">
        <ele>98</ele>
        <time>2016-10-30T09:35:19.000Z</time>
      </trkpt>
      <trkpt lat="47.85297" lon="2.04177">
        <ele>98</ele>
        <time>2016-10-30T09:35:20.000Z</time>
      </trkpt>
      <trkpt lat="47.85297" lon="2.04169">
        <ele>98</ele>
        <time>2016-10-30T09:35:21.000Z</time>
      </trkpt>
      <trkpt lat="47.85297" lon="2.0416">
        <ele>98</ele>
        <time>2016-10-30T09:35:22.000Z</time>
      </trkpt>
      <trkpt lat="47.85298" lon="2.04152">
        <ele>98</ele>
        <time>2016-10-30T09:35:23.000Z</time>
      </trkpt>
      <trkpt lat="47.85298" lon="2.04144">
        <ele>98</ele>
        <time>2016-10-30T09:35:24.000Z</time>
      </trkpt>
      <trkpt lat="47.85298" lon="2.04136">
        <ele>98</ele>
        <time>2016-10-30T09:35:25.000Z</time>
      </trkpt>
      <trkpt lat="47.85298" lon="2.04127">
        <ele>98</ele>
        <time>2016-10-30T09:35:26.000Z</time>
      </trkpt>
      <trkpt lat="47.85298" lon="2.0412">
        <ele>98</ele>
        <time>2016-10-30T09:35:27.000Z</time>
      </trkpt>
      <trkpt lat="47.85299" lon="2.04112">
        <ele>98</ele>
        <time>2016-10-30T09:35:28.000Z</time>
      </trkpt>
      <trkpt lat="47.85299" lon="2.04105">
        <ele>98</ele>
        <time>2016-10-30T09:35:29.000Z</time>
      </trkpt>
      <trkpt lat="47.85299" lon="2.04098">
        <ele>98</ele>
        <time>2016-10-30T09:35:30.000Z</time>
      </trkpt>
      <trkpt lat="47.85299" lon="2.04092">
        <ele>98</ele>
        <time>2016-10-30T09:35:31.000Z</time>
      </trkpt>
      <trkpt lat="47.853" lon="2.04085">
        <ele>98</ele>
        <time>2016-10-30T09:35:32.000Z</time>
      </trkpt>
      <trkpt lat="47.853" lon="2.04077">
        <ele>98</ele>
        <time>2016-10-30T09:35:33.000Z</time>
      </trkpt>
      <trkpt lat="47.853" lon="2.0407">
        <ele>97</ele>
        <time>2016-10-30T09:35:34.000Z</time>
      </trkpt>
      <trkpt lat="47.853" lon="2.04062">
        <ele>97</ele>
        <time>2016-10-30T09:35:35.000Z</time>
      </trkpt>
      <trkpt lat="47.853" lon="2.04055">
        <ele>97</ele>
        <time>2016-10-30T09:35:36.000Z</time>
      </trkpt>
      <trkpt lat="47.85301" lon="2.04047">
        <ele>97</ele>
        <time>2016-10-30T09:35:37.000Z</time>
      </trkpt>
      <trkpt lat="47.85301" lon="2.0404">
        <ele>97</ele>
        <time>2016-10-30T09:35:38.000Z</time>
      </trkpt>
      <trkpt lat="47.85301" lon="2.04032">
        <ele>97</ele>
        <time>2016-10-30T09:35:39.000Z</time>
      </trkpt>
      <trkpt lat="47.85302" lon="2.04025">
        <ele>97</ele>
        <time>2016-10-30T09:35:40.000Z</time>
      </trkpt>
      <trkpt lat="47.85302" lon="2.04018">
        <ele>97</ele>
        <time>2016-10-30T09:35:41.000Z</time>
      </trkpt>
      <trkpt lat="47.85303" lon="2.04011">
        <ele>96</ele>
        <time>2016-10-30T09:35:42.000Z</time>
      </trkpt>
      <trkpt lat="47.85303" lon="2.04004">
        <ele>97</ele>
        <time>2016-10-30T09:35:43.000Z</time>
      </trkpt>
      <trkpt lat="47.85303" lon="2.03996">
        <ele>97</ele>
        <time>2016-10-30T09:35:44.000Z</time>
      </trkpt>
      <trkpt lat="47.85303" lon="2.03989">
        <ele>97</ele>
        <time>2016-10-30T09:35:45.000Z</time>
      </trkpt>
      <trkpt lat="47.85303" lon="2.03981">
        <ele>97</ele>
        <time>2016-10-30T09:35:46.000Z</time>
      </trkpt>
      <trkpt lat="47.85303" lon="2.03973">
        <ele>96</ele>
        <time>2016-10-30T09:35:47.000Z</time>
      </trkpt>
      <trkpt lat="47.85303" lon="2.03966">
        <ele>96</ele>
        <time>2016-10-30T09:35:48.000Z</time>
      </trkpt>
      <trkpt lat="47.85304" lon="2.03958">
        <ele>96</ele>
        <time>2016-10-30T09:35:49.000Z</time>
      </trkpt>
      <trkpt lat="47.85304" lon="2.0395">
        <ele>96</ele>
        <time>2016-10-30T09:35:50.000Z</time>
      </trkpt>
      <trkpt lat="47.85304" lon="2.03942">
        <ele>96</ele>
        <time>2016-10-30T09:35:51.000Z</time>
      </trkpt>
      <trkpt lat="47.85305" lon="2.03934">
        <ele>96</ele>
        <time>2016-10-30T09:35:52.000Z</time>
      </trkpt>
      <trkpt lat="47.85306" lon="2.03927">
        <ele>97</ele>
        <time>2016-10-30T09:35:53.000Z</time>
      </trkpt>
      <trkpt lat="47.85307" lon="2.03919">
        <ele>97</ele>
        <time>2016-10-30T09:35:54.000Z</time>
      </trkpt>
      <trkpt lat="47.85308" lon="2.03911">
        <ele>98</ele>
        <time>2016-10-30T09:35:55.000Z</time>
      </trkpt>
      <trkpt lat="47.85309" lon="2.03903">
        <ele>98</ele>
        <time>2016-10-30T09:35:56.000Z</time>
      </trkpt>
      <trkpt lat="47.85309" lon="2.03895">
        <ele>98</ele>
        <time>2016-10-30T09:35:57.000Z</time>
      </trkpt>
      <trkpt lat="47.8531" lon="2.03888">
        <ele>98</ele>
        <time>2016-10-30T09:35:58.000Z</time>
      </trkpt>
      <trkpt lat="47.8531" lon="2.03881">
        <ele>98</ele>
        <time>2016-10-30T09:35:59.000Z</time>
      </trkpt>
      <trkpt lat="47.8531" lon="2.03874">
        <ele>98</ele>
        <time>2016-10-30T09:36:00.000Z</time>
      </trkpt>
      <trkpt lat="47.85311" lon="2.03868">
        <ele>98</ele>
        <time>2016-10-30T09:36:01.000Z</time>
      </trkpt>
      <trkpt lat="47.85312" lon="2.03861">
        <ele>98</ele>
        <time>2016-10-30T09:36:02.000Z</time>
      </trkpt>
      <trkpt lat="47.85313" lon="2.03854">
        <ele>98</ele>
        <time>2016-10-30T09:36:03.000Z</time>
      </trkpt>
      <trkpt lat="47.85314" lon="2.03847">
        <ele>99</ele>
        <time>2016-10-30T09:36:04.000Z</time>
      </trkpt>
      <trkpt lat="47.85315" lon="2.03841">
        <ele>99</ele>
        <time>2016-10-30T09:36:05.000Z</time>
      </trkpt>
      <trkpt lat="47.85316" lon="2.03834">
        <ele>99</ele>
        <time>2016-10-30T09:36:06.000Z</time>
      </trkpt>
      <trkpt lat="47.85317" lon="2.03828">
        <ele>100</ele>
        <time>2016-10-30T09:36:07.000Z</time>
      </trkpt>
      <trkpt lat="47.85319" lon="2.03822">
        <ele>100</ele>
        <time>2016-10-30T09:36:08.000Z</time>
      </trkpt>
      <trkpt lat="47.85319" lon="2.03816">
        <ele>101</ele>
        <time>2016-10-30T09:36:09.000Z</time>
      </trkpt>
      <trkpt lat="47.8532" lon="2.03811">
        <ele>101</ele>
        <time>2016-10-30T09:36:10.000Z</time>
      </trkpt>
      <trkpt lat="47.85321" lon="2.03807">
        <ele>102</ele>
        <time>2016-10-30T09:36:11.000Z</time>
      </trkpt>
      <trkpt lat="47.85322" lon="2.03803">
        <ele>102</ele>
        <time>2016-10-30T09:36:12.000Z</time>
      </trkpt>
      <trkpt lat="47.85322" lon="2.03801">
        <ele>102</ele>
        <time>2016-10-30T09:36:13.000Z</time>
      </trkpt>
      <trkpt lat="47.85321" lon="2.03799">
        <ele>102</ele>
        <time>2016-10-30T09:36:14.000Z</time>
      </trkpt>
      <trkpt lat="47.8532" lon="2.03797">
        <ele>102</ele>
        <time>2016-10-30T09:36:15.000Z</time>
      </trkpt>
      <trkpt lat="47.85319" lon="2.03798">
        <ele>101</ele>
        <time>2016-10-30T09:36:16.000Z</time>
      </trkpt>
      <trkpt lat="47.85317" lon="2.03799">
        <ele>101</ele>
        <time>2016-10-30T09:36:17.000Z</time>
      </trkpt>
      <trkpt lat="47.85316" lon="2.03803">
        <ele>102</ele>
        <time>2016-10-30T09:36:18.000Z</time>
      </trkpt>
      <trkpt lat="47.85315" lon="2.03806">
        <ele>102</ele>
        <time>2016-10-30T09:36:19.000Z</time>
      </trkpt>
      <trkpt lat="47.85314" lon="2.03811">
        <ele>102</ele>
        <time>2016-10-30T09:36:20.000Z</time>
      </trkpt>
      <trkpt lat="47.85313" lon="2.03815">
        <ele>102</ele>
        <time>2016-10-30T09:36:21.000Z</time>
      </trkpt>
      <trkpt lat="47.85311" lon="2.0382">
        <ele>102</ele>
        <time>2016-10-30T09:36:22.000Z</time>
      </trkpt>
      <trkpt lat="47.85309" lon="2.03825">
        <ele>102</ele>
        <time>2016-10-30T09:36:23.000Z</time>
      </trkpt>
      <trkpt lat="47.85307" lon="2.0383">
        <ele>102</ele>
        <time>2016-10-30T09:36:24.000Z</time>
      </trkpt>
      <trkpt lat="47.85306" lon="2.03835">
        <ele>102</ele>
        <time>2016-10-30T09:36:25.000Z</time>
      </trkpt>
      <trkpt lat="47.85304" lon="2.0384">
        <ele>102</ele>
        <time>2016-10-30T09:36:26.000Z</time>
      </trkpt>
      <trkpt lat="47.85302" lon="2.03846">
        <ele>102</ele>
        <time>2016-10-30T09:36:27.000Z</time>
      </trkpt>
      <trkpt lat="47.853" lon="2.03851">
        <ele>102</ele>
        <time>2016-10-30T09:36:28.000Z</time>
      </trkpt>
      <trkpt lat="47.85298" lon="2.03857">
        <ele>102</ele>
        <time>2016-10-30T09:36:29.000Z</time>
      </trkpt>
      <trkpt lat="47.85297" lon="2.03863">
        <ele>102</ele>
        <time>2016-10-30T09:36:30.000Z</time>
      </trkpt>
      <trkpt lat="47.85295" lon="2.03869">
        <ele>102</ele>
        <time>2016-10-30T09:36:31.000Z</time>
      </trkpt>
      <trkpt lat="47.85293" lon="2.03875">
        <ele>102</ele>
        <time>2016-10-30T09:36:32.000Z</time>
      </trkpt>
      <trkpt lat="47.85291" lon="2.03881">
        <ele>102</ele>
        <time>2016-10-30T09:36:33.000Z</time>
      </trkpt>
      <trkpt lat="47.85289" lon="2.03887">
        <ele>102</ele>
        <time>2016-10-30T09:36:34.000Z</time>
      </trkpt>
      <trkpt lat="47.85288" lon="2.03893">
        <ele>102</ele>
        <time>2016-10-30T09:36:35.000Z</time>
      </trkpt>
      <trkpt lat="47.85286" lon="2.03899">
        <ele>102</ele>
        <time>2016-10-30T09:36:36.000Z</time>
      </trkpt>
      <trkpt lat="47.85285" lon="2.03906">
        <ele>102</ele>
        <time>2016-10-30T09:36:37.000Z</time>
      </trkpt>
      <trkpt lat="47.85284" lon="2.03913">
        <ele>102</ele>
        <time>2016-10-30T09:36:38.000Z</time>
      </trkpt>
      <trkpt lat="47.85282" lon="2.0392">
        <ele>102</ele>
        <time>2016-10-30T09:36:39.000Z</time>
      </trkpt>
      <trkpt lat="47.85282" lon="2.03927">
        <ele>102</ele>
        <time>2016-10-30T09:36:40.000Z</time>
      </trkpt>
      <trkpt lat="47.85281" lon="2.03935">
        <ele>102</ele>
        <time>2016-10-30T09:36:41.000Z</time>
      </trkpt>
      <trkpt lat="47.85281" lon="2.03943">
        <ele>102</ele>
        <time>2016-10-30T09:36:42.000Z</time>
      </trkpt>
      <trkpt lat="47.8528" lon="2.03951">
        <ele>102</ele>
        <time>2016-10-30T09:36:43.000Z</time>
      </trkpt>
      <trkpt lat="47.8528" lon="2.03959">
        <ele>102</ele>
        <time>2016-10-30T09:36:44.000Z</time>
      </trkpt>
      <trkpt lat="47.8528" lon="2.03966">
        <ele>102</ele>
        <time>2016-10-30T09:36:45.000Z</time>
      </trkpt>
      <trkpt lat="47.85279" lon="2.03974">
        <ele>102</ele>
        <time>2016-10-30T09:36:46.000Z</time>
      </trkpt>
      <trkpt lat="47.85279" lon="2.03981">
        <ele>102</ele>
        <time>2016-10-30T09:36:47.000Z</time>
      </trkpt>
      <trkpt lat="47.85279" lon="2.03987">
        <ele>102</ele>
        <time>2016-10-30T09:36:48.000Z</time>
      </trkpt>
      <trkpt lat="47.85279" lon="2.03994">
        <ele>102</ele>
        <time>2016-10-30T09:36:49.000Z</time>
      </trkpt>
      <trkpt lat="47.85279" lon="2.04">
        <ele>102</ele>
        <time>2016-10-30T09:36:50.000Z</time>
      </trkpt>
      <trkpt lat="47.85279" lon="2.04007">
        <ele>102</ele>
        <time>2016-10-30T09:36:51.000Z</time>
      </trkpt>
      <trkpt lat="47.85279" lon="2.04014">
        <ele>102</ele>
        <time>2016-10-30T09:36:52.000Z</time>
      </trkpt>
      <trkpt lat="47.85278" lon="2.0402">
        <ele>102</ele>
        <time>2016-10-30T09:36:53.000Z</time>
      </trkpt>
      <trkpt lat="47.85278" lon="2.04026">
        <ele>102</ele>
        <time>2016-10-30T09:36:54.000Z</time>
      </trkpt>
      <trkpt lat="47.85278" lon="2.04032">
        <ele>102</ele>
        <time>2016-10-30T09:36:55.000Z</time>
      </trkpt>
      <trkpt lat="47.85278" lon="2.04038">
        <ele>102</ele>
        <time>2016-10-30T09:36:56.000Z</time>
      </trkpt>
      <trkpt lat="47.85279" lon="2.04044">
        <ele>102</ele>
        <time>2016-10-30T09:36:57.000Z</time>
      </trkpt>
      <trkpt lat="47.85279" lon="2.0405">
        <ele>102</ele>
        <time>2016-10-30T09:36:58.000Z</time>
      </trkpt>
      <trkpt lat="47.85279" lon="2.04057">
        <ele>102</ele>
        <time>2016-10-30T09:36:59.000Z</time>
      </trkpt>
      <trkpt lat="47.85278" lon="2.04063">
        <ele>102</ele>
        <time>2016-10-30T09:37:00.000Z</time>
      </trkpt>
      <trkpt lat="47.85278" lon="2.04069">
        <ele>102</ele>
        <time>2016-10-30T09:37:01.000Z</time>
      </trkpt>
      <trkpt lat="47.85278" lon="2.04075">
        <ele>102</ele>
        <time>2016-10-30T09:37:02.000Z</time>
      </trkpt>
      <trkpt lat="47.85278" lon="2.04081">
        <ele>102</ele>
        <time>2016-10-30T09:37:03.000Z</time>
      </trkpt>
      <trkpt lat="47.85278" lon="2.04088">
        <ele>101</ele>
        <time>2016-10-30T09:37:04.000Z</time>
      </trkpt>
      <trkpt lat="47.85277" lon="2.04094">
        <ele>101</ele>
        <time>2016-10-30T09:37:05.000Z</time>
      </trkpt>
      <trkpt lat="47.85277" lon="2.041">
        <ele>101</ele>
        <time>2016-10-30T09:37:06.000Z</time>
      </trkpt>
      <trkpt lat="47.85277" lon="2.04106">
        <ele>101</ele>
        <time>2016-10-30T09:37:07.000Z</time>
      </trkpt>
      <trkpt lat="47.85278" lon="2.04111">
        <ele>101</ele>
        <time>2016-10-30T09:37:08.000Z</time>
      </trkpt>
      <trkpt lat="47.85278" lon="2.04117">
        <ele>102</ele>
        <time>2016-10-30T09:37:09.000Z</time>
      </trkpt>
      <trkpt lat="47.85278" lon="2.04123">
        <ele>102</ele>
        <time>2016-10-30T09:37:10.000Z</time>
      </trkpt>
      <trkpt lat="47.85277" lon="2.04129">
        <ele>102</ele>
        <time>2016-10-30T09:37:11.000Z</time>
      </trkpt>
      <trkpt lat="47.85277" lon="2.04136">
        <ele>102</ele>
        <time>2016-10-30T09:37:12.000Z</time>
      </trkpt>
      <trkpt lat="47.85277" lon="2.04143">
        <ele>102</ele>
        <time>2016-10-30T09:37:13.000Z</time>
      </trkpt>
      <trkpt lat="47.85277" lon="2.0415">
        <ele>102</ele>
        <time>2016-10-30T09:37:14.000Z</time>
      </trkpt>
      <trkpt lat="47.85277" lon="2.04158">
        <ele>102</ele>
        <time>2016-10-30T09:37:15.000Z</time>
      </trkpt>
      <trkpt lat="47.85276" lon="2.04166">
        <ele>102</ele>
        <time>2016-10-30T09:37:16.000Z</time>
      </trkpt>
      <trkpt lat="47.85276" lon="2.04174">
        <ele>102</ele>
        <time>2016-10-30T09:37:17.000Z</time>
      </trkpt>
      <trkpt lat="47.85276" lon="2.04182">
        <ele>102</ele>
        <time>2016-10-30T09:37:18.000Z</time>
      </trkpt>
      <trkpt lat="47.85276" lon="2.04189">
        <ele>102</ele>
        <time>2016-10-30T09:37:19.000Z</time>
      </trkpt>
      <trkpt lat="47.85276" lon="2.04197">
        <ele>102</ele>
        <time>2016-10-30T09:37:20.000Z</time>
      </trkpt>
      <trkpt lat="47.85276" lon="2.04205">
        <ele>102</ele>
        <time>2016-10-30T09:37:21.000Z</time>
      </trkpt>
      <trkpt lat="47.85276" lon="2.04213">
        <ele>102</ele>
        <time>2016-10-30T09:37:22.000Z</time>
      </trkpt>
      <trkpt lat="47.85276" lon="2.04221">
        <ele>102</ele>
        <time>2016-10-30T09:37:23.000Z</time>
      </trkpt>
      <trkpt lat="47.85276" lon="2.04229">
        <ele>102</ele>
        <time>2016-10-30T09:37:24.000Z</time>
      </trkpt>
      <trkpt lat="47.85276" lon="2.04237">
        <ele>102</ele>
        <time>2016-10-30T09:37:25.000Z</time>
      </trkpt>
      <trkpt lat="47.85276" lon="2.04245">
        <ele>102</ele>
        <time>2016-10-30T09:37:26.000Z</time>
      </trkpt>
      <trkpt lat="47.85276" lon="2.04253">
        <ele>101</ele>
        <time>2016-10-30T09:37:27.000Z</time>
      </trkpt>
      <trkpt lat="47.85277" lon="2.04261">
        <ele>101</ele>
        <time>2016-10-30T09:37:28.000Z</time>
      </trkpt>
      <trkpt lat="47.85277" lon="2.0427">
        <ele>101</ele>
        <time>2016-10-30T09:37:29.000Z</time>
      </trkpt>
      <trkpt lat="47.85277" lon="2.04278">
        <ele>101</ele>
        <time>2016-10-30T09:37:30.000Z</time>
      </trkpt>
      <trkpt lat="47.85278" lon="2.04286">
        <ele>101</ele>
        <time>2016-10-30T09:37:31.000Z</time>
      </trkpt>
      <trkpt lat="47.85278" lon="2.04294">
        <ele>101</ele>
        <time>2016-10-30T09:37:32.000Z</time>
      </trkpt>
      <trkpt lat="47.85279" lon="2.04303">
        <ele>101</ele>
        <time>2016-10-30T09:37:33.000Z</time>
      </trkpt>
      <trkpt lat="47.85279" lon="2.04311">
        <ele>101</ele>
        <time>2016-10-30T09:37:34.000Z</time>
      </trkpt>
      <trkpt lat="47.8528" lon="2.0432">
        <ele>101</ele>
        <time>2016-10-30T09:37:35.000Z</time>
      </trkpt>
      <trkpt lat="47.85281" lon="2.04328">
        <ele>101</ele>
        <time>2016-10-30T09:37:36.000Z</time>
      </trkpt>
      <trkpt lat="47.85282" lon="2.04336">
        <ele>101</ele>
        <time>2016-10-30T09:37:37.000Z</time>
      </trkpt>
      <trkpt lat="47.85284" lon="2.04344">
        <ele>101</ele>
        <time>2016-10-30T09:37:38.000Z</time>
      </trkpt>
      <trkpt lat="47.85285" lon="2.04351">
        <ele>101</ele>
        <time>2016-10-30T09:37:39.000Z</time>
      </trkpt>
      <trkpt lat="47.85286" lon="2.04359">
        <ele>101</ele>
        <time>2016-10-30T09:37:40.000Z</time>
      </trkpt>
      <trkpt lat="47.85287" lon="2.04366">
        <ele>101</ele>
        <time>2016-10-30T09:37:41.000Z</time>
      </trkpt>
      <trkpt lat="47.85288" lon="2.04373">
        <ele>101</ele>
        <time>2016-10-30T09:37:42.000Z</time>
      </trkpt>
      <trkpt lat="47.85289" lon="2.0438">
        <ele>101</ele>
        <time>2016-10-30T09:37:43.000Z</time>
      </trkpt>
      <trkpt lat="47.85289" lon="2.04387">
        <ele>101</ele>
        <time>2016-10-30T09:37:44.000Z</time>
      </trkpt>
      <trkpt lat="47.8529" lon="2.04394">
        <ele>101</ele>
        <time>2016-10-30T09:37:45.000Z</time>
      </trkpt>
      <trkpt lat="47.85291" lon="2.04401">
        <ele>101</ele>
        <time>2016-10-30T09:37:46.000Z</time>
      </trkpt>
      <trkpt lat="47.85292" lon="2.04408">
        <ele>101</ele>
        <time>2016-10-30T09:37:47.000Z</time>
      </trkpt>
      <trkpt lat="47.85294" lon="2.04414">
        <ele>101</ele>
        <time>2016-10-30T09:37:48.000Z</time>
      </trkpt>
      <trkpt lat="47.85295" lon="2.04421">
        <ele>101</ele>
        <time>2016-10-30T09:37:49.000Z</time>
      </trkpt>
      <trkpt lat="47.85296" lon="2.04428">
        <ele>101</ele>
        <time>2016-10-30T09:37:50.000Z</time>
      </trkpt>
      <trkpt lat="47.85297" lon="2.04435">
        <ele>101</ele>
        <time>2016-10-30T09:37:51.000Z</time>
      </trkpt>
      <trkpt lat="47.85298" lon="2.04441">
        <ele>100</ele>
        <time>2016-10-30T09:37:52.000Z</time>
      </trkpt>
      <trkpt lat="47.85299" lon="2.04448">
        <ele>100</ele>
        <time>2016-10-30T09:37:53.000Z</time>
      </trkpt>
      <trkpt lat="47.85299" lon="2.04455">
        <ele>100</ele>
        <time>2016-10-30T09:37:54.000Z</time>
      </trkpt>
      <trkpt lat="47.853" lon="2.04461">
        <ele>100</ele>
        <time>2016-10-30T09:37:55.000Z</time>
      </trkpt>
      <trkpt lat="47.85301" lon="2.04468">
        <ele>100</ele>
        <time>2016-10-30T09:37:56.000Z</time>
      </trkpt>
      <trkpt lat="47.85302" lon="2.04474">
        <ele>100</ele>
        <time>2016-10-30T09:37:57.000Z</time>
      </trkpt>
      <trkpt lat="47.85303" lon="2.04481">
        <ele>100</ele>
        <time>2016-10-30T09:37:58.000Z</time>
      </trkpt>
      <trkpt lat="47.85304" lon="2.04487">
        <ele>100</ele>
        <time>2016-10-30T09:37:59.000Z</time>
      </trkpt>
      <trkpt lat="47.85306" lon="2.04494">
        <ele>100</ele>
        <time>2016-10-30T09:38:00.000Z</time>
      </trkpt>
      <trkpt lat="47.85307" lon="2.045">
        <ele>100</ele>
        <time>2016-10-30T09:38:01.000Z</time>
      </trkpt>
      <trkpt lat="47.85307" lon="2.04507">
        <ele>100</ele>
        <time>2016-10-30T09:38:02.000Z</time>
      </trkpt>
      <trkpt lat="47.85308" lon="2.04513">
        <ele>100</ele>
        <time>2016-10-30T09:38:03.000Z</time>
      </trkpt>
      <trkpt lat="47.85309" lon="2.0452">
        <ele>100</ele>
        <time>2016-10-30T09:38:04.000Z</time>
      </trkpt>
      <trkpt lat="47.8531" lon="2.04527">
        <ele>100</ele>
        <time>2016-10-30T09:38:05.000Z</time>
      </trkpt>
      <trkpt lat="47.85311" lon="2.04533">
        <ele>100</ele>
        <time>2016-10-30T09:38:06.000Z</time>
      </trkpt>
      <trkpt lat="47.85312" lon="2.04539">
        <ele>100</ele>
        <time>2016-10-30T09:38:07.000Z</time>
      </trkpt>
      <trkpt lat="47.85313" lon="2.04546">
        <ele>100</ele>
        <time>2016-10-30T09:38:08.000Z</time>
      </trkpt>
      <trkpt lat="47.85314" lon="2.04552">
        <ele>100</ele>
        <time>2016-10-30T09:38:09.000Z</time>
      </trkpt>
      <trkpt lat="47.85315" lon="2.04559">
        <ele>100</ele>
        <time>2016-10-30T09:38:10.000Z</time>
      </trkpt>
      <trkpt lat="47.85316" lon="2.04565">
        <ele>100</ele>
        <time>2016-10-30T09:38:11.000Z</time>
      </trkpt>
      <trkpt lat="47.85316" lon="2.04572">
        <ele>100</ele>
        <time>2016-10-30T09:38:12.000Z</time>
      </trkpt>
      <trkpt lat="47.85317" lon="2.04578">
        <ele>100</ele>
        <time>2016-10-30T09:38:13.000Z</time>
      </trkpt>
      <trkpt lat="47.85318" lon="2.04585">
        <ele>100</ele>
        <time>2016-10-30T09:38:14.000Z</time>
      </trkpt>
      <trkpt lat="47.85319" lon="2.04591">
        <ele>100</ele>
        <time>2016-10-30T09:38:15.000Z</time>
      </trkpt>
      <trkpt lat="47.8532" lon="2.04597">
        <ele>100</ele>
        <time>2016-10-30T09:38:16.000Z</time>
      </trkpt>
      <trkpt lat="47.85321" lon="2.04604">
        <ele>100</ele>
        <time>2016-10-30T09:38:17.000Z</time>
      </trkpt>
      <trkpt lat="47.85322" lon="2.0461">
        <ele>99</ele>
        <time>2016-10-30T09:38:18.000Z</time>
      </trkpt>
      <trkpt lat="47.85323" lon="2.04617">
        <ele>99</ele>
        <time>2016-10-30T09:38:19.000Z</time>
      </trkpt>
      <trkpt lat="47.85324" lon="2.04623">
        <ele>99</ele>
        <time>2016-10-30T09:38:20.000Z</time>
      </trkpt>
      <trkpt lat="47.85325" lon="2.04629">
        <ele>99</ele>
        <time>2016-10-30T09:38:21.000Z</time>
      </trkpt>
      <trkpt lat="47.85326" lon="2.04636">
        <ele>99</ele>
        <time>2016-10-30T09:38:22.000Z</time>
      </trkpt>
      <trkpt lat="47.85327" lon="2.04642">
        <ele>99</ele>
        <time>2016-10-30T09:38:23.000Z</time>
      </trkpt>
      <trkpt lat="47.85328" lon="2.04649">
        <ele>99</ele>
        <time>2016-10-30T09:38:24.000Z</time>
      </trkpt>
      <trkpt lat="47.85329" lon="2.04655">
        <ele>99</ele>
        <time>2016-10-30T09:38:25.000Z</time>
      </trkpt>
      <trkpt lat="47.8533" lon="2.04662">
        <ele>99</ele>
        <time>2016-10-30T09:38:26.000Z</time>
      </trkpt>
      <trkpt lat="47.85331" lon="2.04668">
        <ele>99</ele>
        <time>2016-10-30T09:38:27.000Z</time>
      </trkpt>
      <trkpt lat="47.85332" lon="2.04675">
        <ele>99</ele>
        <time>2016-10-30T09:38:28.000Z</time>
      </trkpt>
      <trkpt lat="47.85332" lon="2.04681">
        <ele>99</ele>
        <time>2016-10-30T09:38:29.000Z</time>
      </trkpt>
      <trkpt lat="47.85333" lon="2.04688">
        <ele>99</ele>
        <time>2016-10-30T09:38:30.000Z</time>
      </trkpt>
      <trkpt lat="47.85334" lon="2.04695">
        <ele>99</ele>
        <time>2016-10-30T09:38:31.000Z</time>
      </trkpt>
      <trkpt lat="47.85335" lon="2.04701">
        <ele>99</ele>
        <time>2016-10-30T09:38:32.000Z</time>
      </trkpt>
      <trkpt lat="47.85336" lon="2.04707">
        <ele>99</ele>
        <time>2016-10-30T09:38:33.000Z</time>
      </trkpt>
      <trkpt lat="47.85337" lon="2.04714">
        <ele>100</ele>
        <time>2016-10-30T09:38:34.000Z</time>
      </trkpt>
      <trkpt lat="47.85337" lon="2.0472">
        <ele>100</ele>
        <time>2016-10-30T09:38:35.000Z</time>
      </trkpt>
      <trkpt lat="47.85338" lon="2.04727">
        <ele>100</ele>
        <time>2016-10-30T09:38:36.000Z</time>
      </trkpt>
      <trkpt lat="47.85338" lon="2.04733">
        <ele>100</ele>
        <time>2016-10-30T09:38:37.000Z</time>
      </trkpt>
      <trkpt lat="47.85339" lon="2.04739">
        <ele>100</ele>
        <time>2016-10-30T09:38:38.000Z</time>
      </trkpt>
      <trkpt lat="47.85339" lon="2.04746">
        <ele>100</ele>
        <time>2016-10-30T09:38:39.000Z</time>
      </trkpt>
      <trkpt lat="47.8534" lon="2.04752">
        <ele>100</ele>
        <time>2016-10-30T09:38:40.000Z</time>
      </trkpt>
      <trkpt lat="47.8534" lon="2.04759">
        <ele>100</ele>
        <time>2016-10-30T09:38:41.000Z</time>
      </trkpt>
      <trkpt lat="47.85341" lon="2.04766">
        <ele>100</ele>
        <time>2016-10-30T09:38:42.000Z</time>
      </trkpt>
      <trkpt lat="47.85342" lon="2.04772">
        <ele>100</ele>
        <time>2016-10-30T09:38:43.000Z</time>
      </trkpt>
      <trkpt lat="47.85342" lon="2.04779">
        <ele>100</ele>
        <time>2016-10-30T09:38:44.000Z</time>
      </trkpt>
      <trkpt lat="47.85343" lon="2.04785">
        <ele>100</ele>
        <time>2016-10-30T09:38:45.000Z</time>
      </trkpt>
      <trkpt lat="47.85343" lon="2.04792">
        <ele>101</ele>
        <time>2016-10-30T09:38:46.000Z</time>
      </trkpt>
      <trkpt lat="47.85344" lon="2.04799">
        <ele>101</ele>
        <time>2016-10-30T09:38:47.000Z</time>
      </trkpt>
      <trkpt lat="47.85344" lon="2.04806">
        <ele>101</ele>
        <time>2016-10-30T09:38:48.000Z</time>
      </trkpt>
      <trkpt lat="47.85345" lon="2.04812">
        <ele>101</ele>
        <time>2016-10-30T09:38:49.000Z</time>
      </trkpt>
      <trkpt lat="47.85345" lon="2.04819">
        <ele>101</ele>
        <time>2016-10-30T09:38:50.000Z</time>
      </trkpt>
      <trkpt lat="47.85346" lon="2.04825">
        <ele>101</ele>
        <time>2016-10-30T09:38:51.000Z</time>
      </trkpt>
      <trkpt lat="47.85347" lon="2.04832">
        <ele>100</ele>
        <time>2016-10-30T09:38:52.000Z</time>
      </trkpt>
      <trkpt lat="47.85348" lon="2.04838">
        <ele>100</ele>
        <time>2016-10-30T09:38:53.000Z</time>
      </trkpt>
      <trkpt lat="47.85348" lon="2.04845">
        <ele>100</ele>
        <time>2016-10-30T09:38:54.000Z</time>
      </trkpt>
      <trkpt lat="47.85349" lon="2.04851">
        <ele>100</ele>
        <time>2016-10-30T09:38:55.000Z</time>
      </trkpt>
      <trkpt lat="47.8535" lon="2.04858">
        <ele>100</ele>
        <time>2016-10-30T09:38:56.000Z</time>
      </trkpt>
      <trkpt lat="47.85351" lon="2.04864">
        <ele>100</ele>
        <time>2016-10-30T09:38:57.000Z</time>
      </trkpt>
      <trkpt lat="47.85351" lon="2.04871">
        <ele>100</ele>
        <time>2016-10-30T09:38:58.000Z</time>
      </trkpt>
      <trkpt lat="47.85352" lon="2.04877">
        <ele>100</ele>
        <time>2016-10-30T09:38:59.000Z</time>
      </trkpt>
      <trkpt lat="47.85353" lon="2.04884">
        <ele>100</ele>
        <time>2016-10-30T09:39:00.000Z</time>
      </trkpt>
      <trkpt lat="47.85355" lon="2.0489">
        <ele>100</ele>
        <time>2016-10-30T09:39:01.000Z</time>
      </trkpt>
      <trkpt lat="47.85356" lon="2.04896">
        <ele>100</ele>
        <time>2016-10-30T09:39:02.000Z</time>
      </trkpt>
      <trkpt lat="47.85357" lon="2.04903">
        <ele>100</ele>
        <time>2016-10-30T09:39:03.000Z</time>
      </trkpt>
      <trkpt lat="47.85358" lon="2.04909">
        <ele>100</ele>
        <time>2016-10-30T09:39:04.000Z</time>
      </trkpt>
      <trkpt lat="47.85359" lon="2.04916">
        <ele>100</ele>
        <time>2016-10-30T09:39:05.000Z</time>
      </trkpt>
      <trkpt lat="47.8536" lon="2.04922">
        <ele>101</ele>
        <time>2016-10-30T09:39:06.000Z</time>
      </trkpt>
      <trkpt lat="47.85361" lon="2.04929">
        <ele>101</ele>
        <time>2016-10-30T09:39:07.000Z</time>
      </trkpt>
      <trkpt lat="47.85363" lon="2.04936">
        <ele>101</ele>
        <time>2016-10-30T09:39:08.000Z</time>
      </trkpt>
      <trkpt lat="47.85364" lon="2.04943">
        <ele>101</ele>
        <time>2016-10-30T09:39:09.000Z</time>
      </trkpt>
      <trkpt lat="47.85365" lon="2.04949">
        <ele>101</ele>
        <time>2016-10-30T09:39:10.000Z</time>
      </trkpt>
      <trkpt lat="47.85366" lon="2.04956">
        <ele>101</ele>
        <time>2016-10-30T09:39:11.000Z</time>
      </trkpt>
      <trkpt lat="47.85368" lon="2.04963">
        <ele>101</ele>
        <time>2016-10-30T09:39:12.000Z</time>
      </trkpt>
      <trkpt lat="47.85369" lon="2.04969">
        <ele>101</ele>
        <time>2016-10-30T09:39:13.000Z</time>
      </trkpt>
      <trkpt lat="47.85371" lon="2.04976">
        <ele>101</ele>
        <time>2016-10-30T09:39:14.000Z</time>
      </trkpt>
      <trkpt lat="47.85372" lon="2.04983">
        <ele>101</ele>
        <time>2016-10-30T09:39:15.000Z</time>
      </trkpt>
      <trkpt lat="47.85374" lon="2.0499">
        <ele>101</ele>
        <time>2016-10-30T09:39:16.000Z</time>
      </trkpt>
      <trkpt lat="47.85375" lon="2.04997">
        <ele>101</ele>
        <time>2016-10-30T09:39:17.000Z</time>
      </trkpt>
      <trkpt lat="47.85377" lon="2.05004">
        <ele>101</ele>
        <time>2016-10-30T09:39:18.000Z</time>
      </trkpt>
      <trkpt lat="47.85378" lon="2.05011">
        <ele>101</ele>
        <time>2016-10-30T09:39:19.000Z</time>
      </trkpt>
      <trkpt lat="47.8538" lon="2.05018">
        <ele>101</ele>
        <time>2016-10-30T09:39:20.000Z</time>
      </trkpt>
      <trkpt lat="47.85381" lon="2.05024">
        <ele>102</ele>
        <time>2016-10-30T09:39:21.000Z</time>
      </trkpt>
      <trkpt lat="47.85383" lon="2.05031">
        <ele>102</ele>
        <time>2016-10-30T09:39:22.000Z</time>
      </trkpt>
      <trkpt lat="47.85384" lon="2.05038">
        <ele>102</ele>
        <time>2016-10-30T09:39:23.000Z</time>
      </trkpt>
      <trkpt lat="47.85386" lon="2.05045">
        <ele>102</ele>
        <time>2016-10-30T09:39:24.000Z</time>
      </trkpt>
      <trkpt lat="47.85387" lon="2.05052">
        <ele>102</ele>
        <time>2016-10-30T09:39:25.000Z</time>
      </trkpt>
      <trkpt lat="47.85388" lon="2.05059">
        <ele>102</ele>
        <time>2016-10-30T09:39:26.000Z</time>
      </trkpt>
      <trkpt lat="47.8539" lon="2.05066">
        <ele>101</ele>
        <time>2016-10-30T09:39:27.000Z</time>
      </trkpt>
      <trkpt lat="47.85391" lon="2.05073">
        <ele>101</ele>
        <time>2016-10-30T09:39:28.000Z</time>
      </trkpt>
      <trkpt lat="47.85393" lon="2.0508">
        <ele>101</ele>
        <time>2016-10-30T09:39:29.000Z</time>
      </trkpt>
      <trkpt lat="47.85394" lon="2.05087">
        <ele>101</ele>
        <time>2016-10-30T09:39:30.000Z</time>
      </trkpt>
      <trkpt lat="47.85396" lon="2.05094">
        <ele>102</ele>
        <time>2016-10-30T09:39:31.000Z</time>
      </trkpt>
      <trkpt lat="47.85398" lon="2.051">
        <ele>102</ele>
        <time>2016-10-30T09:39:32.000Z</time>
      </trkpt>
      <trkpt lat="47.85399" lon="2.05107">
        <ele>101</ele>
        <time>2016-10-30T09:39:33.000Z</time>
      </trkpt>
      <trkpt lat="47.85401" lon="2.05114">
        <ele>101</ele>
        <time>2016-10-30T09:39:34.000Z</time>
      </trkpt>
      <trkpt lat="47.85403" lon="2.0512">
        <ele>101</ele>
        <time>2016-10-30T09:39:35.000Z</time>
      </trkpt>
      <trkpt lat="47.85405" lon="2.05127">
        <ele>101</ele>
        <time>2016-10-30T09:39:36.000Z</time>
      </trkpt>
      <trkpt lat="47.85407" lon="2.05134">
        <ele>101</ele>
        <time>2016-10-30T09:39:37.000Z</time>
      </trkpt>
      <trkpt lat="47.85409" lon="2.05141">
        <ele>101</ele>
        <time>2016-10-30T09:39:38.000Z</time>
      </trkpt>
      <trkpt lat="47.85412" lon="2.05147">
        <ele>101</ele>
        <time>2016-10-30T09:39:39.000Z</time>
      </trkpt>
      <trkpt lat="47.85414" lon="2.05154">
        <ele>101</ele>
        <time>2016-10-30T09:39:40.000Z</time>
      </trkpt>
      <trkpt lat="47.85417" lon="2.0516">
        <ele>101</ele>
        <time>2016-10-30T09:39:41.000Z</time>
      </trkpt>
      <trkpt lat="47.85419" lon="2.05167">
        <ele>101</ele>
        <time>2016-10-30T09:39:42.000Z</time>
      </trkpt>
      <trkpt lat="47.85422" lon="2.05174">
        <ele>101</ele>
        <time>2016-10-30T09:39:43.000Z</time>
      </trkpt>
      <trkpt lat="47.85424" lon="2.0518">
        <ele>101</ele>
        <time>2016-10-30T09:39:44.000Z</time>
      </trkpt>
      <trkpt lat="47.85427" lon="2.05187">
        <ele>101</ele>
        <time>2016-10-30T09:39:45.000Z</time>
      </trkpt>
      <trkpt lat="47.85429" lon="2.05193">
        <ele>101</ele>
        <time>2016-10-30T09:39:46.000Z</time>
      </trkpt>
      <trkpt lat="47.85431" lon="2.052">
        <ele>100</ele>
        <time>2016-10-30T09:39:47.000Z</time>
      </trkpt>
      <trkpt lat="47.85433" lon="2.05207">
        <ele>100</ele>
        <time>2016-10-30T09:39:48.000Z</time>
      </trkpt>
      <trkpt lat="47.85435" lon="2.05214">
        <ele>100</ele>
        <time>2016-10-30T09:39:49.000Z</time>
      </trkpt>
      <trkpt lat="47.85437" lon="2.05221">
        <ele>100</ele>
        <time>2016-10-30T09:39:50.000Z</time>
      </trkpt>
      <trkpt lat="47.85438" lon="2.05228">
        <ele>100</ele>
        <time>2016-10-30T09:39:51.000Z</time>
      </trkpt>
      <trkpt lat="47.8544" lon="2.05236">
        <ele>100</ele>
        <time>2016-10-30T09:39:52.000Z</time>
      </trkpt>
      <trkpt lat="47.85441" lon="2.05243">
        <ele>100</ele>
        <time>2016-10-30T09:39:53.000Z</time>
      </trkpt>
      <trkpt lat="47.85442" lon="2.0525">
        <ele>100</ele>
        <time>2016-10-30T09:39:54.000Z</time>
      </trkpt>
      <trkpt lat="47.85443" lon="2.05257">
        <ele>100</ele>
        <time>2016-10-30T09:39:55.000Z</time>
      </trkpt>
      <trkpt lat="47.85444" lon="2.05264">
        <ele>100</ele>
        <time>2016-10-30T09:39:56.000Z</time>
      </trkpt>
      <trkpt lat="47.85445" lon="2.05272">
        <ele>101</ele>
        <time>2016-10-30T09:39:57.000Z</time>
      </trkpt>
      <trkpt lat="47.85445" lon="2.05279">
        <ele>101</ele>
        <time>2016-10-30T09:39:58.000Z</time>
      </trkpt>
      <trkpt lat="47.85446" lon="2.05287">
        <ele>101</ele>
        <time>2016-10-30T09:39:59.000Z</time>
      </trkpt>
      <trkpt lat="47.85446" lon="2.05296">
        <ele>101</ele>
        <time>2016-10-30T09:40:00.000Z</time>
      </trkpt>
      <trkpt lat="47.85447" lon="2.05304">
        <ele>101</ele>
        <time>2016-10-30T09:40:01.000Z</time>
      </trkpt>
      <trkpt lat="47.85448" lon="2.05313">
        <ele>101</ele>
        <time>2016-10-30T09:40:02.000Z</time>
      </trkpt>
      <trkpt lat="47.85448" lon="2.05322">
        <ele>101</ele>
        <time>2016-10-30T09:40:03.000Z</time>
      </trkpt>
      <trkpt lat="47.85449" lon="2.0533">
        <ele>101</ele>
        <time>2016-10-30T09:40:04.000Z</time>
      </trkpt>
      <trkpt lat="47.85449" lon="2.05339">
        <ele>101</ele>
        <time>2016-10-30T09:40:05.000Z</time>
      </trkpt>
      <trkpt lat="47.85449" lon="2.05348">
        <ele>101</ele>
        <time>2016-10-30T09:40:06.000Z</time>
      </trkpt>
      <trkpt lat="47.85449" lon="2.05356">
        <ele>101</ele>
        <time>2016-10-30T09:40:07.000Z</time>
      </trkpt>
      <trkpt lat="47.85449" lon="2.05365">
        <ele>101</ele>
        <time>2016-10-30T09:40:08.000Z</time>
      </trkpt>
      <trkpt lat="47.8545" lon="2.05373">
        <ele>101</ele>
        <time>2016-10-30T09:40:09.000Z</time>
      </trkpt>
      <trkpt lat="47.8545" lon="2.05381">
        <ele>101</ele>
        <time>2016-10-30T09:40:10.000Z</time>
      </trkpt>
      <trkpt lat="47.85451" lon="2.0539">
        <ele>101</ele>
        <time>2016-10-30T09:40:11.000Z</time>
      </trkpt>
      <trkpt lat="47.85451" lon="2.05398">
        <ele>101</ele>
        <time>2016-10-30T09:40:12.000Z</time>
      </trkpt>
      <trkpt lat="47.85451" lon="2.05406">
        <ele>101</ele>
        <time>2016-10-30T09:40:13.000Z</time>
      </trkpt>
      <trkpt lat="47.85452" lon="2.05414">
        <ele>101</ele>
        <time>2016-10-30T09:40:14.000Z</time>
      </trkpt>
      <trkpt lat="47.85452" lon="2.05422">
        <ele>101</ele>
        <time>2016-10-30T09:40:15.000Z</time>
      </trkpt>
      <trkpt lat="47.85452" lon="2.0543">
        <ele>101</ele>
        <time>2016-10-30T09:40:16.000Z</time>
      </trkpt>
      <trkpt lat="47.85452" lon="2.05438">
        <ele>101</ele>
        <time>2016-10-30T09:40:17.000Z</time>
      </trkpt>
      <trkpt lat="47.85453" lon="2.05446">
        <ele>101</ele>
        <time>2016-10-30T09:40:18.000Z</time>
      </trkpt>
      <trkpt lat="47.85453" lon="2.05455">
        <ele>101</ele>
        <time>2016-10-30T09:40:19.000Z</time>
      </trkpt>
      <trkpt lat="47.85454" lon="2.05463">
        <ele>101</ele>
        <time>2016-10-30T09:40:20.000Z</time>
      </trkpt>
      <trkpt lat="47.85454" lon="2.05472">
        <ele>101</ele>
        <time>2016-10-30T09:40:21.000Z</time>
      </trkpt>
      <trkpt lat="47.85455" lon="2.05481">
        <ele>101</ele>
        <time>2016-10-30T09:40:22.000Z</time>
      </trkpt>
      <trkpt lat="47.85456" lon="2.0549">
        <ele>101</ele>
        <time>2016-10-30T09:40:23.000Z</time>
      </trkpt>
      <trkpt lat="47.85456" lon="2.055">
        <ele>101</ele>
        <time>2016-10-30T09:40:24.000Z</time>
      </trkpt>
      <trkpt lat="47.85457" lon="2.05509">
        <ele>101</ele>
        <time>2016-10-30T09:40:25.000Z</time>
      </trkpt>
      <trkpt lat="47.85457" lon="2.05519">
        <ele>101</ele>
        <time>2016-10-30T09:40:26.000Z</time>
      </trkpt>
      <trkpt lat="47.85458" lon="2.05528">
        <ele>101</ele>
        <time>2016-10-30T09:40:27.000Z</time>
      </trkpt>
      <trkpt lat="47.85458" lon="2.05537">
        <ele>101</ele>
        <time>2016-10-30T09:40:28.000Z</time>
      </trkpt>
      <trkpt lat="47.85459" lon="2.05546">
        <ele>101</ele>
        <time>2016-10-30T09:40:29.000Z</time>
      </trkpt>
      <trkpt lat="47.85459" lon="2.05555">
        <ele>101</ele>
        <time>2016-10-30T09:40:30.000Z</time>
      </trkpt>
      <trkpt lat="47.8546" lon="2.05564">
        <ele>101</ele>
        <time>2016-10-30T09:40:31.000Z</time>
      </trkpt>
      <trkpt lat="47.85461" lon="2.05574">
        <ele>101</ele>
        <time>2016-10-30T09:40:32.000Z</time>
      </trkpt>
      <trkpt lat="47.85461" lon="2.05583">
        <ele>101</ele>
        <time>2016-10-30T09:40:33.000Z</time>
      </trkpt>
      <trkpt lat="47.85461" lon="2.05593">
        <ele>101</ele>
        <time>2016-10-30T09:40:34.000Z</time>
      </trkpt>
      <trkpt lat="47.85462" lon="2.05602">
        <ele>101</ele>
        <time>2016-10-30T09:40:35.000Z</time>
      </trkpt>
      <trkpt lat="47.85462" lon="2.05611">
        <ele>101</ele>
        <time>2016-10-30T09:40:36.000Z</time>
      </trkpt>
      <trkpt lat="47.85463" lon="2.05621">
        <ele>101</ele>
        <time>2016-10-30T09:40:37.000Z</time>
      </trkpt>
      <trkpt lat="47.85463" lon="2.05629">
        <ele>101</ele>
        <time>2016-10-30T09:40:38.000Z</time>
      </trkpt>
      <trkpt lat="47.85464" lon="2.05638">
        <ele>101</ele>
        <time>2016-10-30T09:40:39.000Z</time>
      </trkpt>
      <trkpt lat="47.85464" lon="2.05647">
        <ele>101</ele>
        <time>2016-10-30T09:40:40.000Z</time>
      </trkpt>
      <trkpt lat="47.85465" lon="2.05655">
        <ele>101</ele>
        <time>2016-10-30T09:40:41.000Z</time>
      </trkpt>
      <trkpt lat="47.85465" lon="2.05664">
        <ele>101</ele>
        <time>2016-10-30T09:40:42.000Z</time>
      </trkpt>
      <trkpt lat="47.85465" lon="2.05673">
        <ele>101</ele>
        <time>2016-10-30T09:40:43.000Z</time>
      </trkpt>
      <trkpt lat="47.85466" lon="2.05682">
        <ele>101</ele>
        <time>2016-10-30T09:40:44.000Z</time>
      </trkpt>
      <trkpt lat="47.85466" lon="2.05691">
        <ele>101</ele>
        <time>2016-10-30T09:40:45.000Z</time>
      </trkpt>
      <trkpt lat="47.85467" lon="2.05699">
        <ele>101</ele>
        <time>2016-10-30T09:40:46.000Z</time>
      </trkpt>
      <trkpt lat="47.85467" lon="2.05708">
        <ele>101</ele>
        <time>2016-10-30T09:40:47.000Z</time>
      </trkpt>
      <trkpt lat="47.85468" lon="2.05717">
        <ele>101</ele>
        <time>2016-10-30T09:40:48.000Z</time>
      </trkpt>
      <trkpt lat="47.85468" lon="2.05727">
        <ele>101</ele>
        <time>2016-10-30T09:40:49.000Z</time>
      </trkpt>
      <trkpt lat="47.85468" lon="2.05736">
        <ele>101</ele>
        <time>2016-10-30T09:40:50.000Z</time>
      </trkpt>
      <trkpt lat="47.85469" lon="2.05745">
        <ele>101</ele>
        <time>2016-10-30T09:40:51.000Z</time>
      </trkpt>
      <trkpt lat="47.85469" lon="2.05754">
        <ele>101</ele>
        <time>2016-10-30T09:40:52.000Z</time>
      </trkpt>
      <trkpt lat="47.85469" lon="2.05763">
        <ele>101</ele>
        <time>2016-10-30T09:40:53.000Z</time>
      </trkpt>
      <trkpt lat="47.8547" lon="2.05773">
        <ele>101</ele>
        <time>2016-10-30T09:40:54.000Z</time>
      </trkpt>
      <trkpt lat="47.8547" lon="2.05782">
        <ele>101</ele>
        <time>2016-10-30T09:40:55.000Z</time>
      </trkpt>
      <trkpt lat="47.85471" lon="2.05791">
        <ele>101</ele>
        <time>2016-10-30T09:40:56.000Z</time>
      </trkpt>
      <trkpt lat="47.85471" lon="2.05801">
        <ele>101</ele>
        <time>2016-10-30T09:40:57.000Z</time>
      </trkpt>
      <trkpt lat="47.85472" lon="2.0581">
        <ele>101</ele>
        <time>2016-10-30T09:40:58.000Z</time>
      </trkpt>
      <trkpt lat="47.85472" lon="2.0582">
        <ele>101</ele>
        <time>2016-10-30T09:40:59.000Z</time>
      </trkpt>
      <trkpt lat="47.85473" lon="2.05829">
        <ele>100</ele>
        <time>2016-10-30T09:41:00.000Z</time>
      </trkpt>
      <trkpt lat="47.85473" lon="2.05839">
        <ele>101</ele>
        <time>2016-10-30T09:41:01.000Z</time>
      </trkpt>
      <trkpt lat="47.85474" lon="2.05848">
        <ele>101</ele>
        <time>2016-10-30T09:41:02.000Z</time>
      </trkpt>
      <trkpt lat="47.85475" lon="2.05857">
        <ele>101</ele>
        <time>2016-10-30T09:41:03.000Z</time>
      </trkpt>
      <trkpt lat="47.85475" lon="2.05866">
        <ele>101</ele>
        <time>2016-10-30T09:41:04.000Z</time>
      </trkpt>
      <trkpt lat="47.85476" lon="2.05875">
        <ele>101</ele>
        <time>2016-10-30T09:41:05.000Z</time>
      </trkpt>
      <trkpt lat="47.85476" lon="2.05883">
        <ele>101</ele>
        <time>2016-10-30T09:41:06.000Z</time>
      </trkpt>
      <trkpt lat="47.85477" lon="2.05892">
        <ele>101</ele>
        <time>2016-10-30T09:41:07.000Z</time>
      </trkpt>
      <trkpt lat="47.85477" lon="2.05901">
        <ele>101</ele>
        <time>2016-10-30T09:41:08.000Z</time>
      </trkpt>
      <trkpt lat="47.85478" lon="2.0591">
        <ele>101</ele>
        <time>2016-10-30T09:41:09.000Z</time>
      </trkpt>
      <trkpt lat="47.85479" lon="2.05919">
        <ele>101</ele>
        <time>2016-10-30T09:41:10.000Z</time>
      </trkpt>
      <trkpt lat="47.8548" lon="2.05929">
        <ele>101</ele>
        <time>2016-10-30T09:41:11.000Z</time>
      </trkpt>
      <trkpt lat="47.85481" lon="2.05938">
        <ele>101</ele>
        <time>2016-10-30T09:41:12.000Z</time>
      </trkpt>
      <trkpt lat="47.85482" lon="2.05947">
        <ele>101</ele>
        <time>2016-10-30T09:41:13.000Z</time>
      </trkpt>
      <trkpt lat="47.85484" lon="2.05957">
        <ele>101</ele>
        <time>2016-10-30T09:41:14.000Z</time>
      </trkpt>
      <trkpt lat="47.85485" lon="2.05966">
        <ele>101</ele>
        <time>2016-10-30T09:41:15.000Z</time>
      </trkpt>
      <trkpt lat="47.85487" lon="2.05975">
        <ele>101</ele>
        <time>2016-10-30T09:41:16.000Z</time>
      </trkpt>
      <trkpt lat="47.85489" lon="2.05985">
        <ele>101</ele>
        <time>2016-10-30T09:41:17.000Z</time>
      </trkpt>
      <trkpt lat="47.85491" lon="2.05993">
        <ele>101</ele>
        <time>2016-10-30T09:41:18.000Z</time>
      </trkpt>
      <trkpt lat="47.85494" lon="2.06002">
        <ele>101</ele>
        <time>2016-10-30T09:41:19.000Z</time>
      </trkpt>
      <trkpt lat="47.85496" lon="2.06011">
        <ele>101</ele>
        <time>2016-10-30T09:41:20.000Z</time>
      </trkpt>
      <trkpt lat="47.85498" lon="2.0602">
        <ele>101</ele>
        <time>2016-10-30T09:41:21.000Z</time>
      </trkpt>
      <trkpt lat="47.85501" lon="2.06028">
        <ele>101</ele>
        <time>2016-10-30T09:41:22.000Z</time>
      </trkpt>
      <trkpt lat="47.85504" lon="2.06037">
        <ele>101</ele>
        <time>2016-10-30T09:41:23.000Z</time>
      </trkpt>
      <trkpt lat="47.85507" lon="2.06045">
        <ele>101</ele>
        <time>2016-10-30T09:41:24.000Z</time>
      </trkpt>
      <trkpt lat="47.8551" lon="2.06053">
        <ele>101</ele>
        <time>2016-10-30T09:41:25.000Z</time>
      </trkpt>
      <trkpt lat="47.85513" lon="2.06061">
        <ele>101</ele>
        <time>2016-10-30T09:41:26.000Z</time>
      </trkpt>
      <trkpt lat="47.85517" lon="2.0607">
        <ele>101</ele>
        <time>2016-10-30T09:41:27.000Z</time>
      </trkpt>
      <trkpt lat="47.8552" lon="2.06078">
        <ele>101</ele>
        <time>2016-10-30T09:41:28.000Z</time>
      </trkpt>
      <trkpt lat="47.85524" lon="2.06086">
        <ele>101</ele>
        <time>2016-10-30T09:41:29.000Z</time>
      </trkpt>
      <trkpt lat="47.85528" lon="2.06094">
        <ele>101</ele>
        <time>2016-10-30T09:41:30.000Z</time>
      </trkpt>
      <trkpt lat="47.85531" lon="2.06102">
        <ele>101</ele>
        <time>2016-10-30T09:41:31.000Z</time>
      </trkpt>
      <trkpt lat="47.85535" lon="2.06111">
        <ele>101</ele>
        <time>2016-10-30T09:41:32.000Z</time>
      </trkpt>
      <trkpt lat="47.85539" lon="2.06119">
        <ele>101</ele>
        <time>2016-10-30T09:41:33.000Z</time>
      </trkpt>
      <trkpt lat="47.85542" lon="2.06127">
        <ele>101</ele>
        <time>2016-10-30T09:41:34.000Z</time>
      </trkpt>
      <trkpt lat="47.85546" lon="2.06136">
        <ele>101</ele>
        <time>2016-10-30T09:41:35.000Z</time>
      </trkpt>
      <trkpt lat="47.8555" lon="2.06144">
        <ele>101</ele>
        <time>2016-10-30T09:41:36.000Z</time>
      </trkpt>
      <trkpt lat="47.85554" lon="2.06152">
        <ele>102</ele>
        <time>2016-10-30T09:41:37.000Z</time>
      </trkpt>
      <trkpt lat="47.85557" lon="2.0616">
        <ele>102</ele>
        <time>2016-10-30T09:41:38.000Z</time>
      </trkpt>
      <trkpt lat="47.85561" lon="2.06169">
        <ele>102</ele>
        <time>2016-10-30T09:41:39.000Z</time>
      </trkpt>
      <trkpt lat="47.85565" lon="2.06177">
        <ele>102</ele>
        <time>2016-10-30T09:41:40.000Z</time>
      </trkpt>
      <trkpt lat="47.85568" lon="2.06185">
        <ele>102</ele>
        <time>2016-10-30T09:41:41.000Z</time>
      </trkpt>
      <trkpt lat="47.85572" lon="2.06194">
        <ele>102</ele>
        <time>2016-10-30T09:41:42.000Z</time>
      </trkpt>
      <trkpt lat="47.85576" lon="2.06202">
        <ele>102</ele>
        <time>2016-10-30T09:41:43.000Z</time>
      </trkpt>
      <trkpt lat="47.8558" lon="2.0621">
        <ele>102</ele>
        <time>2016-10-30T09:41:44.000Z</time>
      </trkpt>
      <trkpt lat="47.85584" lon="2.06219">
        <ele>102</ele>
        <time>2016-10-30T09:41:45.000Z</time>
      </trkpt>
      <trkpt lat="47.85587" lon="2.06228">
        <ele>102</ele>
        <time>2016-10-30T09:41:46.000Z</time>
      </trkpt>
      <trkpt lat="47.85591" lon="2.06237">
        <ele>102</ele>
        <time>2016-10-30T09:41:47.000Z</time>
      </trkpt>
      <trkpt lat="47.85594" lon="2.06246">
        <ele>102</ele>
        <time>2016-10-30T09:41:48.000Z</time>
      </trkpt>
      <trkpt lat="47.85597" lon="2.06255">
        <ele>102</ele>
        <time>2016-10-30T09:41:49.000Z</time>
      </trkpt>
      <trkpt lat="47.856" lon="2.06264">
        <ele>102</ele>
        <time>2016-10-30T09:41:50.000Z</time>
      </trkpt>
      <trkpt lat="47.85603" lon="2.06273">
        <ele>102</ele>
        <time>2016-10-30T09:41:51.000Z</time>
      </trkpt>
      <trkpt lat="47.85606" lon="2.06282">
        <ele>102</ele>
        <time>2016-10-30T09:41:52.000Z</time>
      </trkpt>
      <trkpt lat="47.85609" lon="2.06291">
        <ele>102</ele>
        <time>2016-10-30T09:41:53.000Z</time>
      </trkpt>
      <trkpt lat="47.85612" lon="2.06301">
        <ele>102</ele>
        <time>2016-10-30T09:41:54.000Z</time>
      </trkpt>
      <trkpt lat="47.85615" lon="2.06311">
        <ele>102</ele>
        <time>2016-10-30T09:41:55.000Z</time>
      </trkpt>
      <trkpt lat="47.85618" lon="2.06321">
        <ele>102</ele>
        <time>2016-10-30T09:41:56.000Z</time>
      </trkpt>
      <trkpt lat="47.85621" lon="2.0633">
        <ele>102</ele>
        <time>2016-10-30T09:41:57.000Z</time>
      </trkpt>
      <trkpt lat="47.85624" lon="2.0634">
        <ele>102</ele>
        <time>2016-10-30T09:41:58.000Z</time>
      </trkpt>
      <trkpt lat="47.85627" lon="2.0635">
        <ele>102</ele>
        <time>2016-10-30T09:41:59.000Z</time>
      </trkpt>
      <trkpt lat="47.8563" lon="2.0636">
        <ele>102</ele>
        <time>2016-10-30T09:42:00.000Z</time>
      </trkpt>
      <trkpt lat="47.85633" lon="2.0637">
        <ele>102</ele>
        <time>2016-10-30T09:42:01.000Z</time>
      </trkpt>
      <trkpt lat="47.85636" lon="2.06379">
        <ele>102</ele>
        <time>2016-10-30T09:42:02.000Z</time>
      </trkpt>
      <trkpt lat="47.85639" lon="2.06389">
        <ele>102</ele>
        <time>2016-10-30T09:42:03.000Z</time>
      </trkpt>
      <trkpt lat="47.85642" lon="2.06399">
        <ele>102</ele>
        <time>2016-10-30T09:42:04.000Z</time>
      </trkpt>
      <trkpt lat="47.85645" lon="2.06409">
        <ele>102</ele>
        <time>2016-10-30T09:42:05.000Z</time>
      </trkpt>
      <trkpt lat="47.85649" lon="2.06418">
        <ele>102</ele>
        <time>2016-10-30T09:42:06.000Z</time>
      </trkpt>
      <trkpt lat="47.85652" lon="2.06428">
        <ele>102</ele>
        <time>2016-10-30T09:42:07.000Z</time>
      </trkpt>
      <trkpt lat="47.85655" lon="2.06438">
        <ele>102</ele>
        <time>2016-10-30T09:42:08.000Z</time>
      </trkpt>
      <trkpt lat="47.85658" lon="2.06449">
        <ele>102</ele>
        <time>2016-10-30T09:42:09.000Z</time>
      </trkpt>
      <trkpt lat="47.85661" lon="2.06459">
        <ele>102</ele>
        <time>2016-10-30T09:42:10.000Z</time>
      </trkpt>
      <trkpt lat="47.85664" lon="2.06468">
        <ele>102</ele>
        <time>2016-10-30T09:42:11.000Z</time>
      </trkpt>
      <trkpt lat="47.85667" lon="2.06477">
        <ele>102</ele>
        <time>2016-10-30T09:42:12.000Z</time>
      </trkpt>
      <trkpt lat="47.85668" lon="2.06487">
        <ele>103</ele>
        <time>2016-10-30T09:42:13.000Z</time>
      </trkpt>
      <trkpt lat="47.85669" lon="2.06496">
        <ele>102</ele>
        <time>2016-10-30T09:42:14.000Z</time>
      </trkpt>
      <trkpt lat="47.8567" lon="2.06506">
        <ele>101</ele>
        <time>2016-10-30T09:42:15.000Z</time>
      </trkpt>
      <trkpt lat="47.8567" lon="2.06517">
        <ele>100</ele>
        <time>2016-10-30T09:42:16.000Z</time>
      </trkpt>
      <trkpt lat="47.8567" lon="2.06528">
        <ele>100</ele>
        <time>2016-10-30T09:42:17.000Z</time>
      </trkpt>
      <trkpt lat="47.85671" lon="2.06539">
        <ele>100</ele>
        <time>2016-10-30T09:42:18.000Z</time>
      </trkpt>
      <trkpt lat="47.85671" lon="2.0655">
        <ele>99</ele>
        <time>2016-10-30T09:42:19.000Z</time>
      </trkpt>
      <trkpt lat="47.85671" lon="2.06561">
        <ele>99</ele>
        <time>2016-10-30T09:42:20.000Z</time>
      </trkpt>
      <trkpt lat="47.85671" lon="2.06572">
        <ele>99</ele>
        <time>2016-10-30T09:42:21.000Z</time>
      </trkpt>
      <trkpt lat="47.8567" lon="2.06581">
        <ele>99</ele>
        <time>2016-10-30T09:42:22.000Z</time>
      </trkpt>
      <trkpt lat="47.85669" lon="2.06591">
        <ele>99</ele>
        <time>2016-10-30T09:42:23.000Z</time>
      </trkpt>
      <trkpt lat="47.85668" lon="2.06599">
        <ele>99</ele>
        <time>2016-10-30T09:42:24.000Z</time>
      </trkpt>
      <trkpt lat="47.85667" lon="2.06608">
        <ele>99</ele>
        <time>2016-10-30T09:42:25.000Z</time>
      </trkpt>
      <trkpt lat="47.85667" lon="2.06615">
        <ele>99</ele>
        <time>2016-10-30T09:42:26.000Z</time>
      </trkpt>
      <trkpt lat="47.85666" lon="2.06622">
        <ele>99</ele>
        <time>2016-10-30T09:42:27.000Z</time>
      </trkpt>
      <trkpt lat="47.85666" lon="2.06628">
        <ele>99</ele>
        <time>2016-10-30T09:42:28.000Z</time>
      </trkpt>
      <trkpt lat="47.85665" lon="2.06635">
        <ele>99</ele>
        <time>2016-10-30T09:42:29.000Z</time>
      </trkpt>
      <trkpt lat="47.85665" lon="2.06641">
        <ele>99</ele>
        <time>2016-10-30T09:42:30.000Z</time>
      </trkpt>
      <trkpt lat="47.85664" lon="2.06647">
        <ele>99</ele>
        <time>2016-10-30T09:42:31.000Z</time>
      </trkpt>
      <trkpt lat="47.85663" lon="2.06652">
        <ele>99</ele>
        <time>2016-10-30T09:42:32.000Z</time>
      </trkpt>
      <trkpt lat="47.85662" lon="2.06657">
        <ele>99</ele>
        <time>2016-10-30T09:42:33.000Z</time>
      </trkpt>
      <trkpt lat="47.8566" lon="2.0666">
        <ele>99</ele>
        <time>2016-10-30T09:42:34.000Z</time>
      </trkpt>
      <trkpt lat="47.85657" lon="2.06662">
        <ele>99</ele>
        <time>2016-10-30T09:42:35.000Z</time>
      </trkpt>
      <trkpt lat="47.85654" lon="2.06661">
        <ele>99</ele>
        <time>2016-10-30T09:42:36.000Z</time>
      </trkpt>
      <trkpt lat="47.85651" lon="2.0666">
        <ele>99</ele>
        <time>2016-10-30T09:42:37.000Z</time>
      </trkpt>
      <trkpt lat="47.85648" lon="2.0666">
        <ele>99</ele>
        <time>2016-10-30T09:42:38.000Z</time>
      </trkpt>
      <trkpt lat="47.85644" lon="2.06659">
        <ele>99</ele>
        <time>2016-10-30T09:42:39.000Z</time>
      </trkpt>
      <trkpt lat="47.8564" lon="2.06658">
        <ele>99</ele>
        <time>2016-10-30T09:42:40.000Z</time>
      </trkpt>
      <trkpt lat="47.85636" lon="2.06657">
        <ele>99</ele>
        <time>2016-10-30T09:42:41.000Z</time>
      </trkpt>
      <trkpt lat="47.85631" lon="2.06656">
        <ele>99</ele>
        <time>2016-10-30T09:42:42.000Z</time>
      </trkpt>
      <trkpt lat="47.85626" lon="2.06655">
        <ele>99</ele>
        <time>2016-10-30T09:42:43.000Z</time>
      </trkpt>
      <trkpt lat="47.85621" lon="2.06655">
        <ele>99</ele>
        <time>2016-10-30T09:42:44.000Z</time>
      </trkpt>
      <trkpt lat="47.85616" lon="2.06654">
        <ele>99</ele>
        <time>2016-10-30T09:42:45.000Z</time>
      </trkpt>
      <trkpt lat="47.85612" lon="2.06654">
        <ele>99</ele>
        <time>2016-10-30T09:42:46.000Z</time>
      </trkpt>
      <trkpt lat="47.85607" lon="2.06653">
        <ele>99</ele>
        <time>2016-10-30T09:42:47.000Z</time>
      </trkpt>
      <trkpt lat="47.85602" lon="2.06653">
        <ele>99</ele>
        <time>2016-10-30T09:42:48.000Z</time>
      </trkpt>
      <trkpt lat="47.85597" lon="2.06652">
        <ele>99</ele>
        <time>2016-10-30T09:42:49.000Z</time>
      </trkpt>
      <trkpt lat="47.85591" lon="2.06651">
        <ele>99</ele>
        <time>2016-10-30T09:42:50.000Z</time>
      </trkpt>
      <trkpt lat="47.85586" lon="2.06651">
        <ele>99</ele>
        <time>2016-10-30T09:42:51.000Z</time>
      </trkpt>
      <trkpt lat="47.85581" lon="2.0665">
        <ele>99</ele>
        <time>2016-10-30T09:42:52.000Z</time>
      </trkpt>
      <trkpt lat="47.85575" lon="2.06649">
        <ele>99</ele>
        <time>2016-10-30T09:42:53.000Z</time>
      </trkpt>
      <trkpt lat="47.8557" lon="2.06649">
        <ele>99</ele>
        <time>2016-10-30T09:42:54.000Z</time>
      </trkpt>
      <trkpt lat="47.85565" lon="2.06648">
        <ele>99</ele>
        <time>2016-10-30T09:42:55.000Z</time>
      </trkpt>
      <trkpt lat="47.85559" lon="2.06647">
        <ele>99</ele>
        <time>2016-10-30T09:42:56.000Z</time>
      </trkpt>
      <trkpt lat="47.85554" lon="2.06647">
        <ele>99</ele>
        <time>2016-10-30T09:42:57.000Z</time>
      </trkpt>
      <trkpt lat="47.85548" lon="2.06646">
        <ele>99</ele>
        <time>2016-10-30T09:42:58.000Z</time>
      </trkpt>
      <trkpt lat="47.85543" lon="2.06645">
        <ele>99</ele>
        <time>2016-10-30T09:42:59.000Z</time>
      </trkpt>
      <trkpt lat="47.85537" lon="2.06644">
        <ele>99</ele>
        <time>2016-10-30T09:43:00.000Z</time>
      </trkpt>
      <trkpt lat="47.85532" lon="2.06643">
        <ele>99</ele>
        <time>2016-10-30T09:43:01.000Z</time>
      </trkpt>
      <trkpt lat="47.85527" lon="2.06642">
        <ele>99</ele>
        <time>2016-10-30T09:43:02.000Z</time>
      </trkpt>
      <trkpt lat="47.85522" lon="2.06642">
        <ele>99</ele>
        <time>2016-10-30T09:43:03.000Z</time>
      </trkpt>
      <trkpt lat="47.85517" lon="2.06641">
        <ele>99</ele>
        <time>2016-10-30T09:43:04.000Z</time>
      </trkpt>
      <trkpt lat="47.85513" lon="2.0664">
        <ele>99</ele>
        <time>2016-10-30T09:43:05.000Z</time>
      </trkpt>
      <trkpt lat="47.85508" lon="2.0664">
        <ele>99</ele>
        <time>2016-10-30T09:43:06.000Z</time>
      </trkpt>
      <trkpt lat="47.85503" lon="2.06639">
        <ele>99</ele>
        <time>2016-10-30T09:43:07.000Z</time>
      </trkpt>
      <trkpt lat="47.85499" lon="2.06639">
        <ele>99</ele>
        <time>2016-10-30T09:43:08.000Z</time>
      </trkpt>
      <trkpt lat="47.85494" lon="2.06638">
        <ele>99</ele>
        <time>2016-10-30T09:43:09.000Z</time>
      </trkpt>
      <trkpt lat="47.85489" lon="2.06637">
        <ele>99</ele>
        <time>2016-10-30T09:43:10.000Z</time>
      </trkpt>
      <trkpt lat="47.85484" lon="2.06636">
        <ele>99</ele>
        <time>2016-10-30T09:43:11.000Z</time>
      </trkpt>
      <trkpt lat="47.85479" lon="2.06635">
        <ele>99</ele>
        <time>2016-10-30T09:43:12.000Z</time>
      </trkpt>
      <trkpt lat="47.85474" lon="2.06634">
        <ele>99</ele>
        <time>2016-10-30T09:43:13.000Z</time>
      </trkpt>
      <trkpt lat="47.85468" lon="2.06633">
        <ele>99</ele>
        <time>2016-10-30T09:43:14.000Z</time>
      </trkpt>
      <trkpt lat="47.85463" lon="2.06632">
        <ele>99</ele>
        <time>2016-10-30T09:43:15.000Z</time>
      </trkpt>
      <trkpt lat="47.85458" lon="2.06631">
        <ele>99</ele>
        <time>2016-10-30T09:43:16.000Z</time>
      </trkpt>
      <trkpt lat="47.85452" lon="2.06631">
        <ele>99</ele>
        <time>2016-10-30T09:43:17.000Z</time>
      </trkpt>
      <trkpt lat="47.85447" lon="2.0663">
        <ele>99</ele>
        <time>2016-10-30T09:43:18.000Z</time>
      </trkpt>
      <trkpt lat="47.85442" lon="2.06629">
        <ele>99</ele>
        <time>2016-10-30T09:43:19.000Z</time>
      </trkpt>
      <trkpt lat="47.85436" lon="2.06628">
        <ele>99</ele>
        <time>2016-10-30T09:43:20.000Z</time>
      </trkpt>
      <trkpt lat="47.85431" lon="2.06627">
        <ele>99</ele>
        <time>2016-10-30T09:43:21.000Z</time>
      </trkpt>
      <trkpt lat="47.85425" lon="2.06626">
        <ele>99</ele>
        <time>2016-10-30T09:43:22.000Z</time>
      </trkpt>
      <trkpt lat="47.85419" lon="2.06626">
        <ele>99</ele>
        <time>2016-10-30T09:43:23.000Z</time>
      </trkpt>
      <trkpt lat="47.85414" lon="2.06625">
        <ele>99</ele>
        <time>2016-10-30T09:43:24.000Z</time>
      </trkpt>
      <trkpt lat="47.85408" lon="2.06624">
        <ele>99</ele>
        <time>2016-10-30T09:43:25.000Z</time>
      </trkpt>
      <trkpt lat="47.85402" lon="2.06623">
        <ele>99</ele>
        <time>2016-10-30T09:43:26.000Z</time>
      </trkpt>
      <trkpt lat="47.85396" lon="2.06622">
        <ele>99</ele>
        <time>2016-10-30T09:43:27.000Z</time>
      </trkpt>
      <trkpt lat="47.85391" lon="2.06621">
        <ele>99</ele>
        <time>2016-10-30T09:43:28.000Z</time>
      </trkpt>
      <trkpt lat="47.85385" lon="2.0662">
        <ele>99</ele>
        <time>2016-10-30T09:43:29.000Z</time>
      </trkpt>
      <trkpt lat="47.85379" lon="2.06619">
        <ele>99</ele>
        <time>2016-10-30T09:43:30.000Z</time>
      </trkpt>
      <trkpt lat="47.85373" lon="2.06618">
        <ele>99</ele>
        <time>2016-10-30T09:43:31.000Z</time>
      </trkpt>
      <trkpt lat="47.85368" lon="2.06617">
        <ele>99</ele>
        <time>2016-10-30T09:43:32.000Z</time>
      </trkpt>
      <trkpt lat="47.85362" lon="2.06616">
        <ele>99</ele>
        <time>2016-10-30T09:43:33.000Z</time>
      </trkpt>
      <trkpt lat="47.85356" lon="2.06616">
        <ele>99</ele>
        <time>2016-10-30T09:43:34.000Z</time>
      </trkpt>
      <trkpt lat="47.8535" lon="2.06615">
        <ele>99</ele>
        <time>2016-10-30T09:43:35.000Z</time>
      </trkpt>
      <trkpt lat="47.85343" lon="2.06614">
        <ele>99</ele>
        <time>2016-10-30T09:43:36.000Z</time>
      </trkpt>
      <trkpt lat="47.85337" lon="2.06613">
        <ele>99</ele>
        <time>2016-10-30T09:43:37.000Z</time>
      </trkpt>
      <trkpt lat="47.8533" lon="2.06612">
        <ele>99</ele>
        <time>2016-10-30T09:43:38.000Z</time>
      </trkpt>
      <trkpt lat="47.85323" lon="2.06611">
        <ele>99</ele>
        <time>2016-10-30T09:43:39.000Z</time>
      </trkpt>
      <trkpt lat="47.85316" lon="2.06611">
        <ele>99</ele>
        <time>2016-10-30T09:43:40.000Z</time>
      </trkpt>
      <trkpt lat="47.85309" lon="2.0661">
        <ele>99</ele>
        <time>2016-10-30T09:43:41.000Z</time>
      </trkpt>
      <trkpt lat="47.85302" lon="2.06609">
        <ele>99</ele>
        <time>2016-10-30T09:43:42.000Z</time>
      </trkpt>
      <trkpt lat="47.85296" lon="2.06608">
        <ele>99</ele>
        <time>2016-10-30T09:43:43.000Z</time>
      </trkpt>
      <trkpt lat="47.85289" lon="2.06607">
        <ele>99</ele>
        <time>2016-10-30T09:43:44.000Z</time>
      </trkpt>
      <trkpt lat="47.85283" lon="2.06606">
        <ele>99</ele>
        <time>2016-10-30T09:43:45.000Z</time>
      </trkpt>
      <trkpt lat="47.85276" lon="2.06605">
        <ele>99</ele>
        <time>2016-10-30T09:43:46.000Z</time>
      </trkpt>
      <trkpt lat="47.8527" lon="2.06605">
        <ele>99</ele>
        <time>2016-10-30T09:43:47.000Z</time>
      </trkpt>
      <trkpt lat="47.85263" lon="2.06604">
        <ele>99</ele>
        <time>2016-10-30T09:43:48.000Z</time>
      </trkpt>
      <trkpt lat="47.85257" lon="2.06604">
        <ele>99</ele>
        <time>2016-10-30T09:43:49.000Z</time>
      </trkpt>
      <trkpt lat="47.85251" lon="2.06603">
        <ele>99</ele>
        <time>2016-10-30T09:43:50.000Z</time>
      </trkpt>
      <trkpt lat="47.85244" lon="2.06602">
        <ele>99</ele>
        <time>2016-10-30T09:43:51.000Z</time>
      </trkpt>
      <trkpt lat="47.85238" lon="2.06601">
        <ele>99</ele>
        <time>2016-10-30T09:43:52.000Z</time>
      </trkpt>
      <trkpt lat="47.85232" lon="2.066">
        <ele>99</ele>
        <time>2016-10-30T09:43:53.000Z</time>
      </trkpt>
      <trkpt lat="47.85227" lon="2.06599">
        <ele>99</ele>
        <time>2016-10-30T09:43:54.000Z</time>
      </trkpt>
      <trkpt lat="47.85221" lon="2.06598">
        <ele>99</ele>
        <time>2016-10-30T09:43:55.000Z</time>
      </trkpt>
      <trkpt lat="47.85215" lon="2.06597">
        <ele>99</ele>
        <time>2016-10-30T09:43:56.000Z</time>
      </trkpt>
      <trkpt lat="47.85209" lon="2.06596">
        <ele>99</ele>
        <time>2016-10-30T09:43:57.000Z</time>
      </trkpt>
      <trkpt lat="47.85203" lon="2.06595">
        <ele>99</ele>
        <time>2016-10-30T09:43:58.000Z</time>
      </trkpt>
      <trkpt lat="47.85197" lon="2.06594">
        <ele>99</ele>
        <time>2016-10-30T09:43:59.000Z</time>
      </trkpt>
      <trkpt lat="47.85191" lon="2.06593">
        <ele>99</ele>
        <time>2016-10-30T09:44:00.000Z</time>
      </trkpt>
      <trkpt lat="47.85185" lon="2.06593">
        <ele>99</ele>
        <time>2016-10-30T09:44:01.000Z</time>
      </trkpt>
      <trkpt lat="47.85178" lon="2.06593">
        <ele>99</ele>
        <time>2016-10-30T09:44:02.000Z</time>
      </trkpt>
      <trkpt lat="47.85172" lon="2.06593">
        <ele>99</ele>
        <time>2016-10-30T09:44:03.000Z</time>
      </trkpt>
      <trkpt lat="47.85166" lon="2.06594">
        <ele>99</ele>
        <time>2016-10-30T09:44:04.000Z</time>
      </trkpt>
      <trkpt lat="47.8516" lon="2.06596">
        <ele>99</ele>
        <time>2016-10-30T09:44:05.000Z</time>
      </trkpt>
      <trkpt lat="47.85154" lon="2.06598">
        <ele>100</ele>
        <time>2016-10-30T09:44:06.000Z</time>
      </trkpt>
      <trkpt lat="47.85149" lon="2.066">
        <ele>100</ele>
        <time>2016-10-30T09:44:07.000Z</time>
      </trkpt>
      <trkpt lat="47.85143" lon="2.06602">
        <ele>100</ele>
        <time>2016-10-30T09:44:08.000Z</time>
      </trkpt>
      <trkpt lat="47.85137" lon="2.06605">
        <ele>101</ele>
        <time>2016-10-30T09:44:09.000Z</time>
      </trkpt>
      <trkpt lat="47.85132" lon="2.06607">
        <ele>101</ele>
        <time>2016-10-30T09:44:10.000Z</time>
      </trkpt>
      <trkpt lat="47.85127" lon="2.06609">
        <ele>102</ele>
        <time>2016-10-30T09:44:11.000Z</time>
      </trkpt>
      <trkpt lat="47.85122" lon="2.06612">
        <ele>102</ele>
        <time>2016-10-30T09:44:12.000Z</time>
      </trkpt>
      <trkpt lat="47.85117" lon="2.06614">
        <ele>102</ele>
        <time>2016-10-30T09:44:13.000Z</time>
      </trkpt>
      <trkpt lat="47.85113" lon="2.06615">
        <ele>102</ele>
        <time>2016-10-30T09:44:14.000Z</time>
      </trkpt>
      <trkpt lat="47.85108" lon="2.06617">
        <ele>102</ele>
        <time>2016-10-30T09:44:15.000Z</time>
      </trkpt>
      <trkpt lat="47.85104" lon="2.06619">
        <ele>102</ele>
        <time>2016-10-30T09:44:16.000Z</time>
      </trkpt>
      <trkpt lat="47.85099" lon="2.0662">
        <ele>102</ele>
        <time>2016-10-30T09:44:17.000Z</time>
      </trkpt>
      <trkpt lat="47.85095" lon="2.06621">
        <ele>101</ele>
        <time>2016-10-30T09:44:18.000Z</time>
      </trkpt>
      <trkpt lat="47.8509" lon="2.06622">
        <ele>101</ele>
        <time>2016-10-30T09:44:19.000Z</time>
      </trkpt>
      <trkpt lat="47.85086" lon="2.06622">
        <ele>100</ele>
        <time>2016-10-30T09:44:20.000Z</time>
      </trkpt>
      <trkpt lat="47.85081" lon="2.06622">
        <ele>100</ele>
        <time>2016-10-30T09:44:21.000Z</time>
      </trkpt>
      <trkpt lat="47.85077" lon="2.0662">
        <ele>100</ele>
        <time>2016-10-30T09:44:22.000Z</time>
      </trkpt>
      <trkpt lat="47.85073" lon="2.06618">
        <ele>100</ele>
        <time>2016-10-30T09:44:23.000Z</time>
      </trkpt>
      <trkpt lat="47.85069" lon="2.06616">
        <ele>100</ele>
        <time>2016-10-30T09:44:24.000Z</time>
      </trkpt>
      <trkpt lat="47.85066" lon="2.06614">
        <ele>100</ele>
        <time>2016-10-30T09:44:25.000Z</time>
      </trkpt>
      <trkpt lat="47.85064" lon="2.06612">
        <ele>100</ele>
        <time>2016-10-30T09:44:26.000Z</time>
      </trkpt>
      <trkpt lat="47.85063" lon="2.0661">
        <ele>100</ele>
        <time>2016-10-30T09:44:27.000Z</time>
      </trkpt>
      <trkpt lat="47.85062" lon="2.06609">
        <ele>100</ele>
        <time>2016-10-30T09:44:28.000Z</time>
      </trkpt>
      <trkpt lat="47.85061" lon="2.06608">
        <ele>100</ele>
        <time>2016-10-30T09:44:29.000Z</time>
      </trkpt>
      <trkpt lat="47.85061" lon="2.06607">
        <ele>100</ele>
        <time>2016-10-30T09:44:30.000Z</time>
      </trkpt>
      <trkpt lat="47.85061" lon="2.06608">
        <ele>100</ele>
        <time>2016-10-30T09:44:31.000Z</time>
      </trkpt>
      <trkpt lat="47.85061" lon="2.06608">
        <ele>100</ele>
        <time>2016-10-30T09:44:32.000Z</time>
      </trkpt>
      <trkpt lat="47.85061" lon="2.06608">
        <ele>100</ele>
        <time>2016-10-30T09:44:33.000Z</time>
      </trkpt>
      <trkpt lat="47.85061" lon="2.06608">
        <ele>100</ele>
        <time>2016-10-30T09:44:34.000Z</time>
      </trkpt>
      <trkpt lat="47.8506" lon="2.06608">
        <ele>100</ele>
        <time>2016-10-30T09:44:35.000Z</time>
      </trkpt>
      <trkpt lat="47.8506" lon="2.06608">
        <ele>100</ele>
        <time>2016-10-30T09:44:36.000Z</time>
      </trkpt>
      <trkpt lat="47.8506" lon="2.06608">
        <ele>100</ele>
        <time>2016-10-30T09:44:37.000Z</time>
      </trkpt>
      <trkpt lat="47.8506" lon="2.06608">
        <ele>100</ele>
        <time>2016-10-30T09:44:38.000Z</time>
      </trkpt>
      <trkpt lat="47.8506" lon="2.06608">
        <ele>100</ele>
        <time>2016-10-30T09:44:39.000Z</time>
      </trkpt>
      <trkpt lat="47.8506" lon="2.06607">
        <ele>100</ele>
        <time>2016-10-30T09:44:40.000Z</time>
      </trkpt>
      <trkpt lat="47.85058" lon="2.06605">
        <ele>100</ele>
        <time>2016-10-30T09:44:41.000Z</time>
      </trkpt>
      <trkpt lat="47.85057" lon="2.06603">
        <ele>100</ele>
        <time>2016-10-30T09:44:42.000Z</time>
      </trkpt>
      <trkpt lat="47.85056" lon="2.066">
        <ele>100</ele>
        <time>2016-10-30T09:44:43.000Z</time>
      </trkpt>
      <trkpt lat="47.85054" lon="2.06597">
        <ele>100</ele>
        <time>2016-10-30T09:44:44.000Z</time>
      </trkpt>
      <trkpt lat="47.85053" lon="2.06592">
        <ele>100</ele>
        <time>2016-10-30T09:44:45.000Z</time>
      </trkpt>
      <trkpt lat="47.85053" lon="2.06587">
        <ele>100</ele>
        <time>2016-10-30T09:44:46.000Z</time>
      </trkpt>
      <trkpt lat="47.85052" lon="2.06582">
        <ele>100</ele>
        <time>2016-10-30T09:44:47.000Z</time>
      </trkpt>
      <trkpt lat="47.85051" lon="2.06577">
        <ele>99</ele>
        <time>2016-10-30T09:44:48.000Z</time>
      </trkpt>
      <trkpt lat="47.85049" lon="2.06572">
        <ele>99</ele>
        <time>2016-10-30T09:44:49.000Z</time>
      </trkpt>
      <trkpt lat="47.85046" lon="2.06569">
        <ele>100</ele>
        <time>2016-10-30T09:44:50.000Z</time>
      </trkpt>
      <trkpt lat="47.85043" lon="2.06568">
        <ele>100</ele>
        <time>2016-10-30T09:44:51.000Z</time>
      </trkpt>
      <trkpt lat="47.85039" lon="2.06567">
        <ele>100</ele>
        <time>2016-10-30T09:44:52.000Z</time>
      </trkpt>
      <trkpt lat="47.85035" lon="2.06567">
        <ele>99</ele>
        <time>2016-10-30T09:44:53.000Z</time>
      </trkpt>
      <trkpt lat="47.85031" lon="2.06567">
        <ele>99</ele>
        <time>2016-10-30T09:44:54.000Z</time>
      </trkpt>
      <trkpt lat="47.85026" lon="2.06567">
        <ele>99</ele>
        <time>2016-10-30T09:44:55.000Z</time>
      </trkpt>
      <trkpt lat="47.85021" lon="2.06567">
        <ele>99</ele>
        <time>2016-10-30T09:44:56.000Z</time>
      </trkpt>
      <trkpt lat="47.85016" lon="2.06567">
        <ele>99</ele>
        <time>2016-10-30T09:44:57.000Z</time>
      </trkpt>
      <trkpt lat="47.85011" lon="2.06566">
        <ele>99</ele>
        <time>2016-10-30T09:44:58.000Z</time>
      </trkpt>
      <trkpt lat="47.85005" lon="2.06566">
        <ele>99</ele>
        <time>2016-10-30T09:44:59.000Z</time>
      </trkpt>
      <trkpt lat="47.85" lon="2.06565">
        <ele>99</ele>
        <time>2016-10-30T09:45:00.000Z</time>
      </trkpt>
      <trkpt lat="47.84995" lon="2.06564">
        <ele>99</ele>
        <time>2016-10-30T09:45:01.000Z</time>
      </trkpt>
      <trkpt lat="47.8499" lon="2.06564">
        <ele>98</ele>
        <time>2016-10-30T09:45:02.000Z</time>
      </trkpt>
      <trkpt lat="47.84985" lon="2.06564">
        <ele>98</ele>
        <time>2016-10-30T09:45:03.000Z</time>
      </trkpt>
      <trkpt lat="47.84981" lon="2.06566">
        <ele>98</ele>
        <time>2016-10-30T09:45:04.000Z</time>
      </trkpt>
      <trkpt lat="47.84977" lon="2.0657">
        <ele>99</ele>
        <time>2016-10-30T09:45:05.000Z</time>
      </trkpt>
      <trkpt lat="47.84974" lon="2.06576">
        <ele>98</ele>
        <time>2016-10-30T09:45:06.000Z</time>
      </trkpt>
      <trkpt lat="47.84973" lon="2.06583">
        <ele>98</ele>
        <time>2016-10-30T09:45:07.000Z</time>
      </trkpt>
      <trkpt lat="47.84972" lon="2.0659">
        <ele>98</ele>
        <time>2016-10-30T09:45:08.000Z</time>
      </trkpt>
      <trkpt lat="47.84971" lon="2.06598">
        <ele>98</ele>
        <time>2016-10-30T09:45:09.000Z</time>
      </trkpt>
      <trkpt lat="47.84971" lon="2.06605">
        <ele>98</ele>
        <time>2016-10-30T09:45:10.000Z</time>
      </trkpt>
      <trkpt lat="47.84971" lon="2.06612">
        <ele>98</ele>
        <time>2016-10-30T09:45:11.000Z</time>
      </trkpt>
      <trkpt lat="47.84971" lon="2.0662">
        <ele>98</ele>
        <time>2016-10-30T09:45:12.000Z</time>
      </trkpt>
      <trkpt lat="47.84971" lon="2.06628">
        <ele>98</ele>
        <time>2016-10-30T09:45:13.000Z</time>
      </trkpt>
      <trkpt lat="47.84972" lon="2.06635">
        <ele>98</ele>
        <time>2016-10-30T09:45:14.000Z</time>
      </trkpt>
      <trkpt lat="47.84972" lon="2.06643">
        <ele>98</ele>
        <time>2016-10-30T09:45:15.000Z</time>
      </trkpt>
      <trkpt lat="47.84972" lon="2.06651">
        <ele>97</ele>
        <time>2016-10-30T09:45:16.000Z</time>
      </trkpt>
      <trkpt lat="47.84972" lon="2.06659">
        <ele>97</ele>
        <time>2016-10-30T09:45:17.000Z</time>
      </trkpt>
      <trkpt lat="47.84972" lon="2.06667">
        <ele>97</ele>
        <time>2016-10-30T09:45:18.000Z</time>
      </trkpt>
      <trkpt lat="47.84972" lon="2.06675">
        <ele>98</ele>
        <time>2016-10-30T09:45:19.000Z</time>
      </trkpt>
      <trkpt lat="47.84972" lon="2.06683">
        <ele>98</ele>
        <time>2016-10-30T09:45:20.000Z</time>
      </trkpt>
      <trkpt lat="47.84972" lon="2.06691">
        <ele>98</ele>
        <time>2016-10-30T09:45:21.000Z</time>
      </trkpt>
      <trkpt lat="47.84972" lon="2.06698">
        <ele>98</ele>
        <time>2016-10-30T09:45:22.000Z</time>
      </trkpt>
      <trkpt lat="47.84972" lon="2.06706">
        <ele>98</ele>
        <time>2016-10-30T09:45:23.000Z</time>
      </trkpt>
      <trkpt lat="47.84972" lon="2.06713">
        <ele>98</ele>
        <time>2016-10-30T09:45:24.000Z</time>
      </trkpt>
      <trkpt lat="47.84972" lon="2.06721">
        <ele>98</ele>
        <time>2016-10-30T09:45:25.000Z</time>
      </trkpt>
      <trkpt lat="47.84972" lon="2.06728">
        <ele>98</ele>
        <time>2016-10-30T09:45:26.000Z</time>
      </trkpt>
      <trkpt lat="47.84972" lon="2.06735">
        <ele>98</ele>
        <time>2016-10-30T09:45:27.000Z</time>
      </trkpt>
      <trkpt lat="47.84972" lon="2.06743">
        <ele>98</ele>
        <time>2016-10-30T09:45:28.000Z</time>
      </trkpt>
      <trkpt lat="47.84972" lon="2.0675">
        <ele>98</ele>
        <time>2016-10-30T09:45:29.000Z</time>
      </trkpt>
      <trkpt lat="47.84971" lon="2.06757">
        <ele>98</ele>
        <time>2016-10-30T09:45:30.000Z</time>
      </trkpt>
      <trkpt lat="47.84971" lon="2.06764">
        <ele>98</ele>
        <time>2016-10-30T09:45:31.000Z</time>
      </trkpt>
      <trkpt lat="47.8497" lon="2.06771">
        <ele>98</ele>
        <time>2016-10-30T09:45:32.000Z</time>
      </trkpt>
      <trkpt lat="47.8497" lon="2.06778">
        <ele>98</ele>
        <time>2016-10-30T09:45:33.000Z</time>
      </trkpt>
      <trkpt lat="47.8497" lon="2.06785">
        <ele>98</ele>
        <time>2016-10-30T09:45:34.000Z</time>
      </trkpt>
      <trkpt lat="47.8497" lon="2.06793">
        <ele>99</ele>
        <time>2016-10-30T09:45:35.000Z</time>
      </trkpt>
      <trkpt lat="47.8497" lon="2.068">
        <ele>99</ele>
        <time>2016-10-30T09:45:36.000Z</time>
      </trkpt>
      <trkpt lat="47.8497" lon="2.06808">
        <ele>99</ele>
        <time>2016-10-30T09:45:37.000Z</time>
      </trkpt>
      <trkpt lat="47.8497" lon="2.06816">
        <ele>99</ele>
        <time>2016-10-30T09:45:38.000Z</time>
      </trkpt>
      <trkpt lat="47.8497" lon="2.06823">
        <ele>99</ele>
        <time>2016-10-30T09:45:39.000Z</time>
      </trkpt>
      <trkpt lat="47.84969" lon="2.06831">
        <ele>99</ele>
        <time>2016-10-30T09:45:40.000Z</time>
      </trkpt>
      <trkpt lat="47.84969" lon="2.06839">
        <ele>99</ele>
        <time>2016-10-30T09:45:41.000Z</time>
      </trkpt>
      <trkpt lat="47.84969" lon="2.06847">
        <ele>99</ele>
        <time>2016-10-30T09:45:42.000Z</time>
      </trkpt>
      <trkpt lat="47.84969" lon="2.06855">
        <ele>99</ele>
        <time>2016-10-30T09:45:43.000Z</time>
      </trkpt>
      <trkpt lat="47.84969" lon="2.06862">
        <ele>99</ele>
        <time>2016-10-30T09:45:44.000Z</time>
      </trkpt>
      <trkpt lat="47.84968" lon="2.0687">
        <ele>99</ele>
        <time>2016-10-30T09:45:45.000Z</time>
      </trkpt>
      <trkpt lat="47.84968" lon="2.06878">
        <ele>99</ele>
        <time>2016-10-30T09:45:46.000Z</time>
      </trkpt>
      <trkpt lat="47.84967" lon="2.06886">
        <ele>98</ele>
        <time>2016-10-30T09:45:47.000Z</time>
      </trkpt>
      <trkpt lat="47.84966" lon="2.06893">
        <ele>98</ele>
        <time>2016-10-30T09:45:48.000Z</time>
      </trkpt>
      <trkpt lat="47.84965" lon="2.06901">
        <ele>98</ele>
        <time>2016-10-30T09:45:49.000Z</time>
      </trkpt>
      <trkpt lat="47.84964" lon="2.06908">
        <ele>99</ele>
        <time>2016-10-30T09:45:50.000Z</time>
      </trkpt>
      <trkpt lat="47.84962" lon="2.06916">
        <ele>99</ele>
        <time>2016-10-30T09:45:51.000Z</time>
      </trkpt>
      <trkpt lat="47.84961" lon="2.06923">
        <ele>99</ele>
        <time>2016-10-30T09:45:52.000Z</time>
      </trkpt>
      <trkpt lat="47.84959" lon="2.06931">
        <ele>99</ele>
        <time>2016-10-30T09:45:53.000Z</time>
      </trkpt>
      <trkpt lat="47.84957" lon="2.06938">
        <ele>99</ele>
        <time>2016-10-30T09:45:54.000Z</time>
      </trkpt>
      <trkpt lat="47.84955" lon="2.06945">
        <ele>99</ele>
        <time>2016-10-30T09:45:55.000Z</time>
      </trkpt>
      <trkpt lat="47.84953" lon="2.06952">
        <ele>99</ele>
        <time>2016-10-30T09:45:56.000Z</time>
      </trkpt>
      <trkpt lat="47.84952" lon="2.0696">
        <ele>99</ele>
        <time>2016-10-30T09:45:57.000Z</time>
      </trkpt>
      <trkpt lat="47.8495" lon="2.06967">
        <ele>99</ele>
        <time>2016-10-30T09:45:58.000Z</time>
      </trkpt>
      <trkpt lat="47.84948" lon="2.06974">
        <ele>99</ele>
        <time>2016-10-30T09:45:59.000Z</time>
      </trkpt>
      <trkpt lat="47.84946" lon="2.06981">
        <ele>99</ele>
        <time>2016-10-30T09:46:00.000Z</time>
      </trkpt>
      <trkpt lat="47.84944" lon="2.06988">
        <ele>99</ele>
        <time>2016-10-30T09:46:01.000Z</time>
      </trkpt>
      <trkpt lat="47.84942" lon="2.06995">
        <ele>99</ele>
        <time>2016-10-30T09:46:02.000Z</time>
      </trkpt>
      <trkpt lat="47.8494" lon="2.07002">
        <ele>99</ele>
        <time>2016-10-30T09:46:03.000Z</time>
      </trkpt>
      <trkpt lat="47.84938" lon="2.07009">
        <ele>99</ele>
        <time>2016-10-30T09:46:04.000Z</time>
      </trkpt>
      <trkpt lat="47.84936" lon="2.07016">
        <ele>99</ele>
        <time>2016-10-30T09:46:05.000Z</time>
      </trkpt>
      <trkpt lat="47.84933" lon="2.07023">
        <ele>99</ele>
        <time>2016-10-30T09:46:06.000Z</time>
      </trkpt>
      <trkpt lat="47.84931" lon="2.0703">
        <ele>99</ele>
        <time>2016-10-30T09:46:07.000Z</time>
      </trkpt>
      <trkpt lat="47.84929" lon="2.07037">
        <ele>99</ele>
        <time>2016-10-30T09:46:08.000Z</time>
      </trkpt>
      <trkpt lat="47.84927" lon="2.07044">
        <ele>99</ele>
        <time>2016-10-30T09:46:09.000Z</time>
      </trkpt>
      <trkpt lat="47.84925" lon="2.07051">
        <ele>99</ele>
        <time>2016-10-30T09:46:10.000Z</time>
      </trkpt>
      <trkpt lat="47.84923" lon="2.07058">
        <ele>99</ele>
        <time>2016-10-30T09:46:11.000Z</time>
      </trkpt>
      <trkpt lat="47.84921" lon="2.07065">
        <ele>99</ele>
        <time>2016-10-30T09:46:12.000Z</time>
      </trkpt>
      <trkpt lat="47.84919" lon="2.07072">
        <ele>99</ele>
        <time>2016-10-30T09:46:13.000Z</time>
      </trkpt>
      <trkpt lat="47.84917" lon="2.07078">
        <ele>99</ele>
        <time>2016-10-30T09:46:14.000Z</time>
      </trkpt>
      <trkpt lat="47.84915" lon="2.07085">
        <ele>99</ele>
        <time>2016-10-30T09:46:15.000Z</time>
      </trkpt>
      <trkpt lat="47.84913" lon="2.07092">
        <ele>99</ele>
        <time>2016-10-30T09:46:16.000Z</time>
      </trkpt>
      <trkpt lat="47.84911" lon="2.07099">
        <ele>99</ele>
        <time>2016-10-30T09:46:17.000Z</time>
      </trkpt>
      <trkpt lat="47.84909" lon="2.07106">
        <ele>99</ele>
        <time>2016-10-30T09:46:18.000Z</time>
      </trkpt>
      <trkpt lat="47.84908" lon="2.07113">
        <ele>99</ele>
        <time>2016-10-30T09:46:19.000Z</time>
      </trkpt>
      <trkpt lat="47.84906" lon="2.0712">
        <ele>99</ele>
        <time>2016-10-30T09:46:20.000Z</time>
      </trkpt>
      <trkpt lat="47.84904" lon="2.07127">
        <ele>99</ele>
        <time>2016-10-30T09:46:21.000Z</time>
      </trkpt>
      <trkpt lat="47.84902" lon="2.07134">
        <ele>99</ele>
        <time>2016-10-30T09:46:22.000Z</time>
      </trkpt>
      <trkpt lat="47.849" lon="2.07141">
        <ele>99</ele>
        <time>2016-10-30T09:46:23.000Z</time>
      </trkpt>
      <trkpt lat="47.84898" lon="2.07147">
        <ele>99</ele>
        <time>2016-10-30T09:46:24.000Z</time>
      </trkpt>
      <trkpt lat="47.84896" lon="2.07154">
        <ele>99</ele>
        <time>2016-10-30T09:46:25.000Z</time>
      </trkpt>
      <trkpt lat="47.84894" lon="2.07161">
        <ele>99</ele>
        <time>2016-10-30T09:46:26.000Z</time>
      </trkpt>
      <trkpt lat="47.84892" lon="2.07168">
        <ele>99</ele>
        <time>2016-10-30T09:46:27.000Z</time>
      </trkpt>
      <trkpt lat="47.84891" lon="2.07175">
        <ele>99</ele>
        <time>2016-10-30T09:46:28.000Z</time>
      </trkpt>
      <trkpt lat="47.84889" lon="2.07182">
        <ele>99</ele>
        <time>2016-10-30T09:46:29.000Z</time>
      </trkpt>
      <trkpt lat="47.84887" lon="2.07189">
        <ele>99</ele>
        <time>2016-10-30T09:46:30.000Z</time>
      </trkpt>
      <trkpt lat="47.84885" lon="2.07196">
        <ele>99</ele>
        <time>2016-10-30T09:46:31.000Z</time>
      </trkpt>
      <trkpt lat="47.84883" lon="2.07204">
        <ele>99</ele>
        <time>2016-10-30T09:46:32.000Z</time>
      </trkpt>
      <trkpt lat="47.84882" lon="2.07211">
        <ele>99</ele>
        <time>2016-10-30T09:46:33.000Z</time>
      </trkpt>
      <trkpt lat="47.8488" lon="2.07218">
        <ele>99</ele>
        <time>2016-10-30T09:46:34.000Z</time>
      </trkpt>
      <trkpt lat="47.84878" lon="2.07225">
        <ele>99</ele>
        <time>2016-10-30T09:46:35.000Z</time>
      </trkpt>
      <trkpt lat="47.84877" lon="2.07231">
        <ele>99</ele>
        <time>2016-10-30T09:46:36.000Z</time>
      </trkpt>
      <trkpt lat="47.84875" lon="2.07237">
        <ele>99</ele>
        <time>2016-10-30T09:46:37.000Z</time>
      </trkpt>
      <trkpt lat="47.84874" lon="2.07243">
        <ele>99</ele>
        <time>2016-10-30T09:46:38.000Z</time>
      </trkpt>
      <trkpt lat="47.84873" lon="2.07249">
        <ele>99</ele>
        <time>2016-10-30T09:46:39.000Z</time>
      </trkpt>
      <trkpt lat="47.84872" lon="2.07255">
        <ele>99</ele>
        <time>2016-10-30T09:46:40.000Z</time>
      </trkpt>
      <trkpt lat="47.84871" lon="2.0726">
        <ele>99</ele>
        <time>2016-10-30T09:46:41.000Z</time>
      </trkpt>
      <trkpt lat="47.8487" lon="2.07266">
        <ele>99</ele>
        <time>2016-10-30T09:46:42.000Z</time>
      </trkpt>
      <trkpt lat="47.84869" lon="2.07271">
        <ele>100</ele>
        <time>2016-10-30T09:46:43.000Z</time>
      </trkpt>
      <trkpt lat="47.84867" lon="2.07275">
        <ele>100</ele>
        <time>2016-10-30T09:46:44.000Z</time>
      </trkpt>
      <trkpt lat="47.84865" lon="2.07278">
        <ele>101</ele>
        <time>2016-10-30T09:46:45.000Z</time>
      </trkpt>
      <trkpt lat="47.84862" lon="2.07277">
        <ele>100</ele>
        <time>2016-10-30T09:46:46.000Z</time>
      </trkpt>
      <trkpt lat="47.84858" lon="2.07273">
        <ele>99</ele>
        <time>2016-10-30T09:46:47.000Z</time>
      </trkpt>
      <trkpt lat="47.84854" lon="2.07269">
        <ele>99</ele>
        <time>2016-10-30T09:46:48.000Z</time>
      </trkpt>
      <trkpt lat="47.8485" lon="2.07264">
        <ele>99</ele>
        <time>2016-10-30T09:46:49.000Z</time>
      </trkpt>
      <trkpt lat="47.84846" lon="2.07259">
        <ele>99</ele>
        <time>2016-10-30T09:46:50.000Z</time>
      </trkpt>
      <trkpt lat="47.84842" lon="2.07253">
        <ele>99</ele>
        <time>2016-10-30T09:46:51.000Z</time>
      </trkpt>
      <trkpt lat="47.84838" lon="2.07248">
        <ele>99</ele>
        <time>2016-10-30T09:46:52.000Z</time>
      </trkpt>
      <trkpt lat="47.84833" lon="2.07243">
        <ele>99</ele>
        <time>2016-10-30T09:46:53.000Z</time>
      </trkpt>
      <trkpt lat="47.84829" lon="2.07237">
        <ele>99</ele>
        <time>2016-10-30T09:46:54.000Z</time>
      </trkpt>
      <trkpt lat="47.84824" lon="2.07232">
        <ele>99</ele>
        <time>2016-10-30T09:46:55.000Z</time>
      </trkpt>
      <trkpt lat="47.8482" lon="2.07226">
        <ele>99</ele>
        <time>2016-10-30T09:46:56.000Z</time>
      </trkpt>
      <trkpt lat="47.84815" lon="2.0722">
        <ele>99</ele>
        <time>2016-10-30T09:46:57.000Z</time>
      </trkpt>
      <trkpt lat="47.84811" lon="2.07215">
        <ele>99</ele>
        <time>2016-10-30T09:46:58.000Z</time>
      </trkpt>
      <trkpt lat="47.84806" lon="2.07209">
        <ele>99</ele>
        <time>2016-10-30T09:46:59.000Z</time>
      </trkpt>
      <trkpt lat="47.84801" lon="2.07204">
        <ele>99</ele>
        <time>2016-10-30T09:47:00.000Z</time>
      </trkpt>
      <trkpt lat="47.84797" lon="2.07198">
        <ele>99</ele>
        <time>2016-10-30T09:47:01.000Z</time>
      </trkpt>
      <trkpt lat="47.84792" lon="2.07192">
        <ele>99</ele>
        <time>2016-10-30T09:47:02.000Z</time>
      </trkpt>
      <trkpt lat="47.84788" lon="2.07187">
        <ele>99</ele>
        <time>2016-10-30T09:47:03.000Z</time>
      </trkpt>
      <trkpt lat="47.84783" lon="2.07181">
        <ele>99</ele>
        <time>2016-10-30T09:47:04.000Z</time>
      </trkpt>
      <trkpt lat="47.84779" lon="2.07176">
        <ele>99</ele>
        <time>2016-10-30T09:47:05.000Z</time>
      </trkpt>
      <trkpt lat="47.84774" lon="2.0717">
        <ele>99</ele>
        <time>2016-10-30T09:47:06.000Z</time>
      </trkpt>
      <trkpt lat="47.84769" lon="2.07166">
        <ele>99</ele>
        <time>2016-10-30T09:47:07.000Z</time>
      </trkpt>
      <trkpt lat="47.84764" lon="2.07162">
        <ele>100</ele>
        <time>2016-10-30T09:47:08.000Z</time>
      </trkpt>
      <trkpt lat="47.84759" lon="2.07158">
        <ele>100</ele>
        <time>2016-10-30T09:47:09.000Z</time>
      </trkpt>
      <trkpt lat="47.84753" lon="2.07156">
        <ele>100</ele>
        <time>2016-10-30T09:47:10.000Z</time>
      </trkpt>
      <trkpt lat="47.84748" lon="2.07153">
        <ele>100</ele>
        <time>2016-10-30T09:47:11.000Z</time>
      </trkpt>
      <trkpt lat="47.84742" lon="2.07151">
        <ele>100</ele>
        <time>2016-10-30T09:47:12.000Z</time>
      </trkpt>
      <trkpt lat="47.84736" lon="2.07148">
        <ele>100</ele>
        <time>2016-10-30T09:47:13.000Z</time>
      </trkpt>
      <trkpt lat="47.8473" lon="2.07146">
        <ele>100</ele>
        <time>2016-10-30T09:47:14.000Z</time>
      </trkpt>
      <trkpt lat="47.84724" lon="2.07144">
        <ele>100</ele>
        <time>2016-10-30T09:47:15.000Z</time>
      </trkpt>
      <trkpt lat="47.84718" lon="2.07141">
        <ele>100</ele>
        <time>2016-10-30T09:47:16.000Z</time>
      </trkpt>
      <trkpt lat="47.84712" lon="2.07139">
        <ele>100</ele>
        <time>2016-10-30T09:47:17.000Z</time>
      </trkpt>
      <trkpt lat="47.84706" lon="2.07137">
        <ele>100</ele>
        <time>2016-10-30T09:47:18.000Z</time>
      </trkpt>
      <trkpt lat="47.847" lon="2.07135">
        <ele>100</ele>
        <time>2016-10-30T09:47:19.000Z</time>
      </trkpt>
      <trkpt lat="47.84694" lon="2.07133">
        <ele>100</ele>
        <time>2016-10-30T09:47:20.000Z</time>
      </trkpt>
      <trkpt lat="47.84688" lon="2.07131">
        <ele>100</ele>
        <time>2016-10-30T09:47:21.000Z</time>
      </trkpt>
      <trkpt lat="47.84682" lon="2.07129">
        <ele>99</ele>
        <time>2016-10-30T09:47:22.000Z</time>
      </trkpt>
      <trkpt lat="47.84675" lon="2.07127">
        <ele>100</ele>
        <time>2016-10-30T09:47:23.000Z</time>
      </trkpt>
      <trkpt lat="47.84669" lon="2.07125">
        <ele>100</ele>
        <time>2016-10-30T09:47:24.000Z</time>
      </trkpt>
      <trkpt lat="47.84663" lon="2.07123">
        <ele>100</ele>
        <time>2016-10-30T09:47:25.000Z</time>
      </trkpt>
      <trkpt lat="47.84657" lon="2.07121">
        <ele>100</ele>
        <time>2016-10-30T09:47:26.000Z</time>
      </trkpt>
      <trkpt lat="47.84651" lon="2.07119">
        <ele>100</ele>
        <time>2016-10-30T09:47:27.000Z</time>
      </trkpt>
      <trkpt lat="47.84644" lon="2.07118">
        <ele>100</ele>
        <time>2016-10-30T09:47:28.000Z</time>
      </trkpt>
      <trkpt lat="47.84638" lon="2.07116">
        <ele>100</ele>
        <time>2016-10-30T09:47:29.000Z</time>
      </trkpt>
      <trkpt lat="47.84632" lon="2.07115">
        <ele>100</ele>
        <time>2016-10-30T09:47:30.000Z</time>
      </trkpt>
      <trkpt lat="47.84626" lon="2.07113">
        <ele>99</ele>
        <time>2016-10-30T09:47:31.000Z</time>
      </trkpt>
      <trkpt lat="47.8462" lon="2.07111">
        <ele>99</ele>
        <time>2016-10-30T09:47:32.000Z</time>
      </trkpt>
      <trkpt lat="47.84614" lon="2.07109">
        <ele>99</ele>
        <time>2016-10-30T09:47:33.000Z</time>
      </trkpt>
      <trkpt lat="47.84608" lon="2.07108">
        <ele>99</ele>
        <time>2016-10-30T09:47:34.000Z</time>
      </trkpt>
      <trkpt lat="47.84602" lon="2.07106">
        <ele>99</ele>
        <time>2016-10-30T09:47:35.000Z</time>
      </trkpt>
      <trkpt lat="47.84596" lon="2.07105">
        <ele>99</ele>
        <time>2016-10-30T09:47:36.000Z</time>
      </trkpt>
      <trkpt lat="47.84589" lon="2.07103">
        <ele>99</ele>
        <time>2016-10-30T09:47:37.000Z</time>
      </trkpt>
      <trkpt lat="47.84583" lon="2.07101">
        <ele>99</ele>
        <time>2016-10-30T09:47:38.000Z</time>
      </trkpt>
      <trkpt lat="47.84576" lon="2.07099">
        <ele>99</ele>
        <time>2016-10-30T09:47:39.000Z</time>
      </trkpt>
      <trkpt lat="47.84569" lon="2.07097">
        <ele>99</ele>
        <time>2016-10-30T09:47:40.000Z</time>
      </trkpt>
      <trkpt lat="47.84561" lon="2.07095">
        <ele>99</ele>
        <time>2016-10-30T09:47:41.000Z</time>
      </trkpt>
      <trkpt lat="47.84554" lon="2.07093">
        <ele>99</ele>
        <time>2016-10-30T09:47:42.000Z</time>
      </trkpt>
      <trkpt lat="47.84546" lon="2.07091">
        <ele>99</ele>
        <time>2016-10-30T09:47:43.000Z</time>
      </trkpt>
      <trkpt lat="47.84539" lon="2.07089">
        <ele>99</ele>
        <time>2016-10-30T09:47:44.000Z</time>
      </trkpt>
      <trkpt lat="47.84531" lon="2.07087">
        <ele>99</ele>
        <time>2016-10-30T09:47:45.000Z</time>
      </trkpt>
      <trkpt lat="47.84524" lon="2.07085">
        <ele>99</ele>
        <time>2016-10-30T09:47:46.000Z</time>
      </trkpt>
      <trkpt lat="47.84516" lon="2.07083">
        <ele>99</ele>
        <time>2016-10-30T09:47:47.000Z</time>
      </trkpt>
      <trkpt lat="47.84508" lon="2.07081">
        <ele>99</ele>
        <time>2016-10-30T09:47:48.000Z</time>
      </trkpt>
      <trkpt lat="47.84501" lon="2.07079">
        <ele>99</ele>
        <time>2016-10-30T09:47:49.000Z</time>
      </trkpt>
      <trkpt lat="47.84493" lon="2.07077">
        <ele>99</ele>
        <time>2016-10-30T09:47:50.000Z</time>
      </trkpt>
      <trkpt lat="47.84486" lon="2.07075">
        <ele>99</ele>
        <time>2016-10-30T09:47:51.000Z</time>
      </trkpt>
      <trkpt lat="47.84478" lon="2.07073">
        <ele>99</ele>
        <time>2016-10-30T09:47:52.000Z</time>
      </trkpt>
      <trkpt lat="47.84471" lon="2.07071">
        <ele>98</ele>
        <time>2016-10-30T09:47:53.000Z</time>
      </trkpt>
      <trkpt lat="47.84463" lon="2.07068">
        <ele>98</ele>
        <time>2016-10-30T09:47:54.000Z</time>
      </trkpt>
      <trkpt lat="47.84456" lon="2.07067">
        <ele>98</ele>
        <time>2016-10-30T09:47:55.000Z</time>
      </trkpt>
      <trkpt lat="47.84449" lon="2.07065">
        <ele>98</ele>
        <time>2016-10-30T09:47:56.000Z</time>
      </trkpt>
      <trkpt lat="47.84442" lon="2.07063">
        <ele>98</ele>
        <time>2016-10-30T09:47:57.000Z</time>
      </trkpt>
      <trkpt lat="47.84435" lon="2.07061">
        <ele>98</ele>
        <time>2016-10-30T09:47:58.000Z</time>
      </trkpt>
      <trkpt lat="47.84428" lon="2.07059">
        <ele>98</ele>
        <time>2016-10-30T09:47:59.000Z</time>
      </trkpt>
      <trkpt lat="47.84421" lon="2.07057">
        <ele>99</ele>
        <time>2016-10-30T09:48:00.000Z</time>
      </trkpt>
      <trkpt lat="47.84414" lon="2.07055">
        <ele>99</ele>
        <time>2016-10-30T09:48:01.000Z</time>
      </trkpt>
      <trkpt lat="47.84407" lon="2.07053">
        <ele>99</ele>
        <time>2016-10-30T09:48:02.000Z</time>
      </trkpt>
      <trkpt lat="47.844" lon="2.07052">
        <ele>99</ele>
        <time>2016-10-30T09:48:03.000Z</time>
      </trkpt>
      <trkpt lat="47.84393" lon="2.0705">
        <ele>99</ele>
        <time>2016-10-30T09:48:04.000Z</time>
      </trkpt>
      <trkpt lat="47.84386" lon="2.07048">
        <ele>99</ele>
        <time>2016-10-30T09:48:05.000Z</time>
      </trkpt>
      <trkpt lat="47.8438" lon="2.07046">
        <ele>99</ele>
        <time>2016-10-30T09:48:06.000Z</time>
      </trkpt>
      <trkpt lat="47.84373" lon="2.07044">
        <ele>99</ele>
        <time>2016-10-30T09:48:07.000Z</time>
      </trkpt>
      <trkpt lat="47.84367" lon="2.07042">
        <ele>99</ele>
        <time>2016-10-30T09:48:08.000Z</time>
      </trkpt>
      <trkpt lat="47.8436" lon="2.0704">
        <ele>99</ele>
        <time>2016-10-30T09:48:09.000Z</time>
      </trkpt>
      <trkpt lat="47.84354" lon="2.07038">
        <ele>99</ele>
        <time>2016-10-30T09:48:10.000Z</time>
      </trkpt>
      <trkpt lat="47.84347" lon="2.07036">
        <ele>99</ele>
        <time>2016-10-30T09:48:11.000Z</time>
      </trkpt>
      <trkpt lat="47.84341" lon="2.07034">
        <ele>99</ele>
        <time>2016-10-30T09:48:12.000Z</time>
      </trkpt>
      <trkpt lat="47.84334" lon="2.07032">
        <ele>99</ele>
        <time>2016-10-30T09:48:13.000Z</time>
      </trkpt>
      <trkpt lat="47.84327" lon="2.0703">
        <ele>99</ele>
        <time>2016-10-30T09:48:14.000Z</time>
      </trkpt>
      <trkpt lat="47.8432" lon="2.07028">
        <ele>99</ele>
        <time>2016-10-30T09:48:15.000Z</time>
      </trkpt>
      <trkpt lat="47.84313" lon="2.07026">
        <ele>99</ele>
        <time>2016-10-30T09:48:16.000Z</time>
      </trkpt>
      <trkpt lat="47.84306" lon="2.07025">
        <ele>99</ele>
        <time>2016-10-30T09:48:17.000Z</time>
      </trkpt>
      <trkpt lat="47.84299" lon="2.07023">
        <ele>99</ele>
        <time>2016-10-30T09:48:18.000Z</time>
      </trkpt>
      <trkpt lat="47.84293" lon="2.07021">
        <ele>99</ele>
        <time>2016-10-30T09:48:19.000Z</time>
      </trkpt>
      <trkpt lat="47.84287" lon="2.07018">
        <ele>99</ele>
        <time>2016-10-30T09:48:20.000Z</time>
      </trkpt>
      <trkpt lat="47.8428" lon="2.07016">
        <ele>99</ele>
        <time>2016-10-30T09:48:21.000Z</time>
      </trkpt>
      <trkpt lat="47.84274" lon="2.07013">
        <ele>99</ele>
        <time>2016-10-30T09:48:22.000Z</time>
      </trkpt>
      <trkpt lat="47.84268" lon="2.0701">
        <ele>99</ele>
        <time>2016-10-30T09:48:23.000Z</time>
      </trkpt>
      <trkpt lat="47.84262" lon="2.07007">
        <ele>99</ele>
        <time>2016-10-30T09:48:24.000Z</time>
      </trkpt>
      <trkpt lat="47.84256" lon="2.07004">
        <ele>99</ele>
        <time>2016-10-30T09:48:25.000Z</time>
      </trkpt>
      <trkpt lat="47.84249" lon="2.07001">
        <ele>98</ele>
        <time>2016-10-30T09:48:26.000Z</time>
      </trkpt>
      <trkpt lat="47.84243" lon="2.06999">
        <ele>99</ele>
        <time>2016-10-30T09:48:27.000Z</time>
      </trkpt>
      <trkpt lat="47.84237" lon="2.06996">
        <ele>99</ele>
        <time>2016-10-30T09:48:28.000Z</time>
      </trkpt>
      <trkpt lat="47.8423" lon="2.06994">
        <ele>99</ele>
        <time>2016-10-30T09:48:29.000Z</time>
      </trkpt>
      <trkpt lat="47.84224" lon="2.06992">
        <ele>99</ele>
        <time>2016-10-30T09:48:30.000Z</time>
      </trkpt>
      <trkpt lat="47.84218" lon="2.0699">
        <ele>99</ele>
        <time>2016-10-30T09:48:31.000Z</time>
      </trkpt>
      <trkpt lat="47.84213" lon="2.06988">
        <ele>99</ele>
        <time>2016-10-30T09:48:32.000Z</time>
      </trkpt>
      <trkpt lat="47.84207" lon="2.06986">
        <ele>99</ele>
        <time>2016-10-30T09:48:33.000Z</time>
      </trkpt>
      <trkpt lat="47.84201" lon="2.06984">
        <ele>99</ele>
        <time>2016-10-30T09:48:34.000Z</time>
      </trkpt>
      <trkpt lat="47.84195" lon="2.06982">
        <ele>99</ele>
        <time>2016-10-30T09:48:35.000Z</time>
      </trkpt>
      <trkpt lat="47.84189" lon="2.0698">
        <ele>99</ele>
        <time>2016-10-30T09:48:36.000Z</time>
      </trkpt>
      <trkpt lat="47.84184" lon="2.06979">
        <ele>99</ele>
        <time>2016-10-30T09:48:37.000Z</time>
      </trkpt>
      <trkpt lat="47.84178" lon="2.06977">
        <ele>99</ele>
        <time>2016-10-30T09:48:38.000Z</time>
      </trkpt>
      <trkpt lat="47.84172" lon="2.06975">
        <ele>99</ele>
        <time>2016-10-30T09:48:39.000Z</time>
      </trkpt>
      <trkpt lat="47.84166" lon="2.06973">
        <ele>99</ele>
        <time>2016-10-30T09:48:40.000Z</time>
      </trkpt>
      <trkpt lat="47.84161" lon="2.06971">
        <ele>99</ele>
        <time>2016-10-30T09:48:41.000Z</time>
      </trkpt>
      <trkpt lat="47.84155" lon="2.06969">
        <ele>99</ele>
        <time>2016-10-30T09:48:42.000Z</time>
      </trkpt>
      <trkpt lat="47.84149" lon="2.06967">
        <ele>99</ele>
        <time>2016-10-30T09:48:43.000Z</time>
      </trkpt>
      <trkpt lat="47.84144" lon="2.06965">
        <ele>99</ele>
        <time>2016-10-30T09:48:44.000Z</time>
      </trkpt>
      <trkpt lat="47.84138" lon="2.06963">
        <ele>99</ele>
        <time>2016-10-30T09:48:45.000Z</time>
      </trkpt>
      <trkpt lat="47.84132" lon="2.06961">
        <ele>99</ele>
        <time>2016-10-30T09:48:46.000Z</time>
      </trkpt>
      <trkpt lat="47.84127" lon="2.0696">
        <ele>99</ele>
        <time>2016-10-30T09:48:47.000Z</time>
      </trkpt>
      <trkpt lat="47.84121" lon="2.06958">
        <ele>99</ele>
        <time>2016-10-30T09:48:48.000Z</time>
      </trkpt>
      <trkpt lat="47.84115" lon="2.06956">
        <ele>99</ele>
        <time>2016-10-30T09:48:49.000Z</time>
      </trkpt>
      <trkpt lat="47.8411" lon="2.06954">
        <ele>99</ele>
        <time>2016-10-30T09:48:50.000Z</time>
      </trkpt>
      <trkpt lat="47.84104" lon="2.06952">
        <ele>99</ele>
        <time>2016-10-30T09:48:51.000Z</time>
      </trkpt>
      <trkpt lat="47.84098" lon="2.0695">
        <ele>99</ele>
        <time>2016-10-30T09:48:52.000Z</time>
      </trkpt>
      <trkpt lat="47.84093" lon="2.06948">
        <ele>99</ele>
        <time>2016-10-30T09:48:53.000Z</time>
      </trkpt>
      <trkpt lat="47.84087" lon="2.06946">
        <ele>99</ele>
        <time>2016-10-30T09:48:54.000Z</time>
      </trkpt>
      <trkpt lat="47.84082" lon="2.06945">
        <ele>99</ele>
        <time>2016-10-30T09:48:55.000Z</time>
      </trkpt>
      <trkpt lat="47.84076" lon="2.06943">
        <ele>99</ele>
        <time>2016-10-30T09:48:56.000Z</time>
      </trkpt>
      <trkpt lat="47.84071" lon="2.06941">
        <ele>99</ele>
        <time>2016-10-30T09:48:57.000Z</time>
      </trkpt>
      <trkpt lat="47.84065" lon="2.06939">
        <ele>99</ele>
        <time>2016-10-30T09:48:58.000Z</time>
      </trkpt>
      <trkpt lat="47.8406" lon="2.06938">
        <ele>99</ele>
        <time>2016-10-30T09:48:59.000Z</time>
      </trkpt>
      <trkpt lat="47.84054" lon="2.06936">
        <ele>99</ele>
        <time>2016-10-30T09:49:00.000Z</time>
      </trkpt>
      <trkpt lat="47.84049" lon="2.06935">
        <ele>99</ele>
        <time>2016-10-30T09:49:01.000Z</time>
      </trkpt>
      <trkpt lat="47.84044" lon="2.06933">
        <ele>99</ele>
        <time>2016-10-30T09:49:02.000Z</time>
      </trkpt>
      <trkpt lat="47.84038" lon="2.06931">
        <ele>99</ele>
        <time>2016-10-30T09:49:03.000Z</time>
      </trkpt>
      <trkpt lat="47.84033" lon="2.0693">
        <ele>99</ele>
        <time>2016-10-30T09:49:04.000Z</time>
      </trkpt>
      <trkpt lat="47.84027" lon="2.06928">
        <ele>99</ele>
        <time>2016-10-30T09:49:05.000Z</time>
      </trkpt>
      <trkpt lat="47.84022" lon="2.06926">
        <ele>99</ele>
        <time>2016-10-30T09:49:06.000Z</time>
      </trkpt>
      <trkpt lat="47.84016" lon="2.06924">
        <ele>99</ele>
        <time>2016-10-30T09:49:07.000Z</time>
      </trkpt>
      <trkpt lat="47.84011" lon="2.06922">
        <ele>99</ele>
        <time>2016-10-30T09:49:08.000Z</time>
      </trkpt>
      <trkpt lat="47.84006" lon="2.06919">
        <ele>99</ele>
        <time>2016-10-30T09:49:09.000Z</time>
      </trkpt>
      <trkpt lat="47.84001" lon="2.06917">
        <ele>99</ele>
        <time>2016-10-30T09:49:10.000Z</time>
      </trkpt>
      <trkpt lat="47.83996" lon="2.06914">
        <ele>99</ele>
        <time>2016-10-30T09:49:11.000Z</time>
      </trkpt>
      <trkpt lat="47.8399" lon="2.06913">
        <ele>98</ele>
        <time>2016-10-30T09:49:12.000Z</time>
      </trkpt>
      <trkpt lat="47.83985" lon="2.06911">
        <ele>98</ele>
        <time>2016-10-30T09:49:13.000Z</time>
      </trkpt>
      <trkpt lat="47.83979" lon="2.06909">
        <ele>98</ele>
        <time>2016-10-30T09:49:14.000Z</time>
      </trkpt>
      <trkpt lat="47.83974" lon="2.06907">
        <ele>98</ele>
        <time>2016-10-30T09:49:15.000Z</time>
      </trkpt>
      <trkpt lat="47.83969" lon="2.06905">
        <ele>98</ele>
        <time>2016-10-30T09:49:16.000Z</time>
      </trkpt>
      <trkpt lat="47.83963" lon="2.06903">
        <ele>98</ele>
        <time>2016-10-30T09:49:17.000Z</time>
      </trkpt>
      <trkpt lat="47.83957" lon="2.06901">
        <ele>98</ele>
        <time>2016-10-30T09:49:18.000Z</time>
      </trkpt>
      <trkpt lat="47.83952" lon="2.069">
        <ele>98</ele>
        <time>2016-10-30T09:49:19.000Z</time>
      </trkpt>
      <trkpt lat="47.83946" lon="2.06898">
        <ele>98</ele>
        <time>2016-10-30T09:49:20.000Z</time>
      </trkpt>
      <trkpt lat="47.8394" lon="2.06896">
        <ele>98</ele>
        <time>2016-10-30T09:49:21.000Z</time>
      </trkpt>
      <trkpt lat="47.83935" lon="2.06895">
        <ele>98</ele>
        <time>2016-10-30T09:49:22.000Z</time>
      </trkpt>
      <trkpt lat="47.83929" lon="2.06894">
        <ele>98</ele>
        <time>2016-10-30T09:49:23.000Z</time>
      </trkpt>
      <trkpt lat="47.83924" lon="2.06893">
        <ele>98</ele>
        <time>2016-10-30T09:49:24.000Z</time>
      </trkpt>
      <trkpt lat="47.83919" lon="2.06892">
        <ele>98</ele>
        <time>2016-10-30T09:49:25.000Z</time>
      </trkpt>
      <trkpt lat="47.83913" lon="2.06891">
        <ele>98</ele>
        <time>2016-10-30T09:49:26.000Z</time>
      </trkpt>
      <trkpt lat="47.83907" lon="2.0689">
        <ele>98</ele>
        <time>2016-10-30T09:49:27.000Z</time>
      </trkpt>
      <trkpt lat="47.83902" lon="2.0689">
        <ele>98</ele>
        <time>2016-10-30T09:49:28.000Z</time>
      </trkpt>
      <trkpt lat="47.83896" lon="2.06889">
        <ele>98</ele>
        <time>2016-10-30T09:49:29.000Z</time>
      </trkpt>
      <trkpt lat="47.8389" lon="2.06887">
        <ele>98</ele>
        <time>2016-10-30T09:49:30.000Z</time>
      </trkpt>
      <trkpt lat="47.83885" lon="2.06886">
        <ele>98</ele>
        <time>2016-10-30T09:49:31.000Z</time>
      </trkpt>
      <trkpt lat="47.83879" lon="2.06885">
        <ele>98</ele>
        <time>2016-10-30T09:49:32.000Z</time>
      </trkpt>
      <trkpt lat="47.83873" lon="2.06883">
        <ele>98</ele>
        <time>2016-10-30T09:49:33.000Z</time>
      </trkpt>
      <trkpt lat="47.83868" lon="2.06882">
        <ele>98</ele>
        <time>2016-10-30T09:49:34.000Z</time>
      </trkpt>
      <trkpt lat="47.83862" lon="2.06881">
        <ele>97</ele>
        <time>2016-10-30T09:49:35.000Z</time>
      </trkpt>
      <trkpt lat="47.83856" lon="2.06879">
        <ele>97</ele>
        <time>2016-10-30T09:49:36.000Z</time>
      </trkpt>
      <trkpt lat="47.8385" lon="2.06878">
        <ele>98</ele>
        <time>2016-10-30T09:49:37.000Z</time>
      </trkpt>
      <trkpt lat="47.83845" lon="2.06876">
        <ele>98</ele>
        <time>2016-10-30T09:49:38.000Z</time>
      </trkpt>
      <trkpt lat="47.83839" lon="2.06875">
        <ele>98</ele>
        <time>2016-10-30T09:49:39.000Z</time>
      </trkpt>
      <trkpt lat="47.83834" lon="2.06873">
        <ele>98</ele>
        <time>2016-10-30T09:49:40.000Z</time>
      </trkpt>
      <trkpt lat="47.83828" lon="2.06871">
        <ele>98</ele>
        <time>2016-10-30T09:49:41.000Z</time>
      </trkpt>
      <trkpt lat="47.83823" lon="2.06868">
        <ele>98</ele>
        <time>2016-10-30T09:49:42.000Z</time>
      </trkpt>
      <trkpt lat="47.83819" lon="2.06866">
        <ele>98</ele>
        <time>2016-10-30T09:49:43.000Z</time>
      </trkpt>
      <trkpt lat="47.83814" lon="2.06863">
        <ele>99</ele>
        <time>2016-10-30T09:49:44.000Z</time>
      </trkpt>
      <trkpt lat="47.8381" lon="2.0686">
        <ele>99</ele>
        <time>2016-10-30T09:49:45.000Z</time>
      </trkpt>
      <trkpt lat="47.83806" lon="2.06856">
        <ele>99</ele>
        <time>2016-10-30T09:49:46.000Z</time>
      </trkpt>
      <trkpt lat="47.83802" lon="2.06853">
        <ele>99</ele>
        <time>2016-10-30T09:49:47.000Z</time>
      </trkpt>
      <trkpt lat="47.83797" lon="2.06849">
        <ele>99</ele>
        <time>2016-10-30T09:49:48.000Z</time>
      </trkpt>
      <trkpt lat="47.83793" lon="2.06845">
        <ele>99</ele>
        <time>2016-10-30T09:49:49.000Z</time>
      </trkpt>
      <trkpt lat="47.83788" lon="2.06841">
        <ele>99</ele>
        <time>2016-10-30T09:49:50.000Z</time>
      </trkpt>
      <trkpt lat="47.83784" lon="2.06838">
        <ele>99</ele>
        <time>2016-10-30T09:49:51.000Z</time>
      </trkpt>
      <trkpt lat="47.83779" lon="2.06833">
        <ele>99</ele>
        <time>2016-10-30T09:49:52.000Z</time>
      </trkpt>
      <trkpt lat="47.83774" lon="2.06829">
        <ele>99</ele>
        <time>2016-10-30T09:49:53.000Z</time>
      </trkpt>
      <trkpt lat="47.8377" lon="2.06825">
        <ele>99</ele>
        <time>2016-10-30T09:49:54.000Z</time>
      </trkpt>
      <trkpt lat="47.83765" lon="2.06821">
        <ele>99</ele>
        <time>2016-10-30T09:49:55.000Z</time>
      </trkpt>
      <trkpt lat="47.8376" lon="2.06816">
        <ele>99</ele>
        <time>2016-10-30T09:49:56.000Z</time>
      </trkpt>
      <trkpt lat="47.83756" lon="2.06812">
        <ele>99</ele>
        <time>2016-10-30T09:49:57.000Z</time>
      </trkpt>
      <trkpt lat="47.83751" lon="2.06808">
        <ele>99</ele>
        <time>2016-10-30T09:49:58.000Z</time>
      </trkpt>
      <trkpt lat="47.83746" lon="2.06804">
        <ele>99</ele>
        <time>2016-10-30T09:49:59.000Z</time>
      </trkpt>
      <trkpt lat="47.83742" lon="2.068">
        <ele>99</ele>
        <time>2016-10-30T09:50:00.000Z</time>
      </trkpt>
      <trkpt lat="47.83737" lon="2.06795">
        <ele>99</ele>
        <time>2016-10-30T09:50:01.000Z</time>
      </trkpt>
      <trkpt lat="47.83732" lon="2.06791">
        <ele>99</ele>
        <time>2016-10-30T09:50:02.000Z</time>
      </trkpt>
      <trkpt lat="47.83727" lon="2.06787">
        <ele>99</ele>
        <time>2016-10-30T09:50:03.000Z</time>
      </trkpt>
      <trkpt lat="47.83723" lon="2.06783">
        <ele>99</ele>
        <time>2016-10-30T09:50:04.000Z</time>
      </trkpt>
      <trkpt lat="47.83718" lon="2.06778">
        <ele>99</ele>
        <time>2016-10-30T09:50:05.000Z</time>
      </trkpt>
      <trkpt lat="47.83714" lon="2.06774">
        <ele>99</ele>
        <time>2016-10-30T09:50:06.000Z</time>
      </trkpt>
      <trkpt lat="47.83709" lon="2.0677">
        <ele>99</ele>
        <time>2016-10-30T09:50:07.000Z</time>
      </trkpt>
      <trkpt lat="47.83704" lon="2.06766">
        <ele>99</ele>
        <time>2016-10-30T09:50:08.000Z</time>
      </trkpt>
      <trkpt lat="47.837" lon="2.06762">
        <ele>99</ele>
        <time>2016-10-30T09:50:09.000Z</time>
      </trkpt>
      <trkpt lat="47.83696" lon="2.06758">
        <ele>99</ele>
        <time>2016-10-30T09:50:10.000Z</time>
      </trkpt>
      <trkpt lat="47.83692" lon="2.06754">
        <ele>99</ele>
        <time>2016-10-30T09:50:11.000Z</time>
      </trkpt>
      <trkpt lat="47.83688" lon="2.0675">
        <ele>99</ele>
        <time>2016-10-30T09:50:12.000Z</time>
      </trkpt>
      <trkpt lat="47.83684" lon="2.06747">
        <ele>99</ele>
        <time>2016-10-30T09:50:13.000Z</time>
      </trkpt>
      <trkpt lat="47.8368" lon="2.06743">
        <ele>99</ele>
        <time>2016-10-30T09:50:14.000Z</time>
      </trkpt>
      <trkpt lat="47.83677" lon="2.0674">
        <ele>99</ele>
        <time>2016-10-30T09:50:15.000Z</time>
      </trkpt>
      <trkpt lat="47.83673" lon="2.06737">
        <ele>99</ele>
        <time>2016-10-30T09:50:16.000Z</time>
      </trkpt>
      <trkpt lat="47.8367" lon="2.06734">
        <ele>99</ele>
        <time>2016-10-30T09:50:17.000Z</time>
      </trkpt>
      <trkpt lat="47.83667" lon="2.06731">
        <ele>99</ele>
        <time>2016-10-30T09:50:18.000Z</time>
      </trkpt>
      <trkpt lat="47.83663" lon="2.06728">
        <ele>99</ele>
        <time>2016-10-30T09:50:19.000Z</time>
      </trkpt>
      <trkpt lat="47.8366" lon="2.06725">
        <ele>99</ele>
        <time>2016-10-30T09:50:20.000Z</time>
      </trkpt>
      <trkpt lat="47.83657" lon="2.06722">
        <ele>99</ele>
        <time>2016-10-30T09:50:21.000Z</time>
      </trkpt>
      <trkpt lat="47.83653" lon="2.06718">
        <ele>99</ele>
        <time>2016-10-30T09:50:22.000Z</time>
      </trkpt>
      <trkpt lat="47.83649" lon="2.06715">
        <ele>99</ele>
        <time>2016-10-30T09:50:23.000Z</time>
      </trkpt>
      <trkpt lat="47.83645" lon="2.06711">
        <ele>99</ele>
        <time>2016-10-30T09:50:24.000Z</time>
      </trkpt>
      <trkpt lat="47.83641" lon="2.06708">
        <ele>99</ele>
        <time>2016-10-30T09:50:25.000Z</time>
      </trkpt>
      <trkpt lat="47.83637" lon="2.06704">
        <ele>99</ele>
        <time>2016-10-30T09:50:26.000Z</time>
      </trkpt>
      <trkpt lat="47.83633" lon="2.06701">
        <ele>99</ele>
        <time>2016-10-30T09:50:27.000Z</time>
      </trkpt>
      <trkpt lat="47.83629" lon="2.06697">
        <ele>99</ele>
        <time>2016-10-30T09:50:28.000Z</time>
      </trkpt>
      <trkpt lat="47.83626" lon="2.06693">
        <ele>99</ele>
        <time>2016-10-30T09:50:29.000Z</time>
      </trkpt>
      <trkpt lat="47.83622" lon="2.06689">
        <ele>99</ele>
        <time>2016-10-30T09:50:30.000Z</time>
      </trkpt>
      <trkpt lat="47.83617" lon="2.06686">
        <ele>99</ele>
        <time>2016-10-30T09:50:31.000Z</time>
      </trkpt>
      <trkpt lat="47.83613" lon="2.06682">
        <ele>99</ele>
        <time>2016-10-30T09:50:32.000Z</time>
      </trkpt>
      <trkpt lat="47.83609" lon="2.06678">
        <ele>99</ele>
        <time>2016-10-30T09:50:33.000Z</time>
      </trkpt>
      <trkpt lat="47.83605" lon="2.06674">
        <ele>99</ele>
        <time>2016-10-30T09:50:34.000Z</time>
      </trkpt>
      <trkpt lat="47.83601" lon="2.0667">
        <ele>99</ele>
        <time>2016-10-30T09:50:35.000Z</time>
      </trkpt>
      <trkpt lat="47.83596" lon="2.06666">
        <ele>99</ele>
        <time>2016-10-30T09:50:36.000Z</time>
      </trkpt>
      <trkpt lat="47.83592" lon="2.06662">
        <ele>99</ele>
        <time>2016-10-30T09:50:37.000Z</time>
      </trkpt>
      <trkpt lat="47.83587" lon="2.06659">
        <ele>99</ele>
        <time>2016-10-30T09:50:38.000Z</time>
      </trkpt>
      <trkpt lat="47.83583" lon="2.06656">
        <ele>99</ele>
        <time>2016-10-30T09:50:39.000Z</time>
      </trkpt>
      <trkpt lat="47.83578" lon="2.06653">
        <ele>99</ele>
        <time>2016-10-30T09:50:40.000Z</time>
      </trkpt>
      <trkpt lat="47.83574" lon="2.06651">
        <ele>99</ele>
        <time>2016-10-30T09:50:41.000Z</time>
      </trkpt>
      <trkpt lat="47.83569" lon="2.06648">
        <ele>99</ele>
        <time>2016-10-30T09:50:42.000Z</time>
      </trkpt>
      <trkpt lat="47.83565" lon="2.06646">
        <ele>99</ele>
        <time>2016-10-30T09:50:43.000Z</time>
      </trkpt>
      <trkpt lat="47.8356" lon="2.06643">
        <ele>99</ele>
        <time>2016-10-30T09:50:44.000Z</time>
      </trkpt>
      <trkpt lat="47.83555" lon="2.06641">
        <ele>99</ele>
        <time>2016-10-30T09:50:45.000Z</time>
      </trkpt>
      <trkpt lat="47.83551" lon="2.06638">
        <ele>99</ele>
        <time>2016-10-30T09:50:46.000Z</time>
      </trkpt>
      <trkpt lat="47.83546" lon="2.06636">
        <ele>99</ele>
        <time>2016-10-30T09:50:47.000Z</time>
      </trkpt>
      <trkpt lat="47.83542" lon="2.06634">
        <ele>99</ele>
        <time>2016-10-30T09:50:48.000Z</time>
      </trkpt>
      <trkpt lat="47.83538" lon="2.06632">
        <ele>99</ele>
        <time>2016-10-30T09:50:49.000Z</time>
      </trkpt>
      <trkpt lat="47.83534" lon="2.0663">
        <ele>99</ele>
        <time>2016-10-30T09:50:50.000Z</time>
      </trkpt>
      <trkpt lat="47.8353" lon="2.06628">
        <ele>99</ele>
        <time>2016-10-30T09:50:51.000Z</time>
      </trkpt>
      <trkpt lat="47.83526" lon="2.06625">
        <ele>99</ele>
        <time>2016-10-30T09:50:52.000Z</time>
      </trkpt>
      <trkpt lat="47.83521" lon="2.06623">
        <ele>99</ele>
        <time>2016-10-30T09:50:53.000Z</time>
      </trkpt>
      <trkpt lat="47.83517" lon="2.0662">
        <ele>99</ele>
        <time>2016-10-30T09:50:54.000Z</time>
      </trkpt>
      <trkpt lat="47.83512" lon="2.06618">
        <ele>99</ele>
        <time>2016-10-30T09:50:55.000Z</time>
      </trkpt>
      <trkpt lat="47.83508" lon="2.06615">
        <ele>99</ele>
        <time>2016-10-30T09:50:56.000Z</time>
      </trkpt>
      <trkpt lat="47.83503" lon="2.06613">
        <ele>99</ele>
        <time>2016-10-30T09:50:57.000Z</time>
      </trkpt>
      <trkpt lat="47.83499" lon="2.0661">
        <ele>99</ele>
        <time>2016-10-30T09:50:58.000Z</time>
      </trkpt>
      <trkpt lat="47.83494" lon="2.06608">
        <ele>99</ele>
        <time>2016-10-30T09:50:59.000Z</time>
      </trkpt>
      <trkpt lat="47.8349" lon="2.06606">
        <ele>99</ele>
        <time>2016-10-30T09:51:00.000Z</time>
      </trkpt>
      <trkpt lat="47.83485" lon="2.06603">
        <ele>99</ele>
        <time>2016-10-30T09:51:01.000Z</time>
      </trkpt>
      <trkpt lat="47.8348" lon="2.06601">
        <ele>99</ele>
        <time>2016-10-30T09:51:02.000Z</time>
      </trkpt>
      <trkpt lat="47.83475" lon="2.06598">
        <ele>99</ele>
        <time>2016-10-30T09:51:03.000Z</time>
      </trkpt>
      <trkpt lat="47.83471" lon="2.06595">
        <ele>99</ele>
        <time>2016-10-30T09:51:04.000Z</time>
      </trkpt>
      <trkpt lat="47.83466" lon="2.06593">
        <ele>99</ele>
        <time>2016-10-30T09:51:05.000Z</time>
      </trkpt>
      <trkpt lat="47.83461" lon="2.0659">
        <ele>98</ele>
        <time>2016-10-30T09:51:06.000Z</time>
      </trkpt>
      <trkpt lat="47.83456" lon="2.06587">
        <ele>98</ele>
        <time>2016-10-30T09:51:07.000Z</time>
      </trkpt>
      <trkpt lat="47.83451" lon="2.06585">
        <ele>98</ele>
        <time>2016-10-30T09:51:08.000Z</time>
      </trkpt>
      <trkpt lat="47.83446" lon="2.06582">
        <ele>99</ele>
        <time>2016-10-30T09:51:09.000Z</time>
      </trkpt>
      <trkpt lat="47.8344" lon="2.06579">
        <ele>98</ele>
        <time>2016-10-30T09:51:10.000Z</time>
      </trkpt>
      <trkpt lat="47.83435" lon="2.06576">
        <ele>98</ele>
        <time>2016-10-30T09:51:11.000Z</time>
      </trkpt>
      <trkpt lat="47.8343" lon="2.06574">
        <ele>98</ele>
        <time>2016-10-30T09:51:12.000Z</time>
      </trkpt>
      <trkpt lat="47.83424" lon="2.06571">
        <ele>97</ele>
        <time>2016-10-30T09:51:13.000Z</time>
      </trkpt>
      <trkpt lat="47.83419" lon="2.06568">
        <ele>97</ele>
        <time>2016-10-30T09:51:14.000Z</time>
      </trkpt>
      <trkpt lat="47.83414" lon="2.06565">
        <ele>97</ele>
        <time>2016-10-30T09:51:15.000Z</time>
      </trkpt>
      <trkpt lat="47.83409" lon="2.06562">
        <ele>97</ele>
        <time>2016-10-30T09:51:16.000Z</time>
      </trkpt>
      <trkpt lat="47.83403" lon="2.06559">
        <ele>96</ele>
        <time>2016-10-30T09:51:17.000Z</time>
      </trkpt>
      <trkpt lat="47.83398" lon="2.06555">
        <ele>96</ele>
        <time>2016-10-30T09:51:18.000Z</time>
      </trkpt>
      <trkpt lat="47.83393" lon="2.06552">
        <ele>96</ele>
        <time>2016-10-30T09:51:19.000Z</time>
      </trkpt>
      <trkpt lat="47.83389" lon="2.06548">
        <ele>97</ele>
        <time>2016-10-30T09:51:20.000Z</time>
      </trkpt>
      <trkpt lat="47.83384" lon="2.06543">
        <ele>97</ele>
        <time>2016-10-30T09:51:21.000Z</time>
      </trkpt>
      <trkpt lat="47.83379" lon="2.06539">
        <ele>96</ele>
        <time>2016-10-30T09:51:22.000Z</time>
      </trkpt>
      <trkpt lat="47.83374" lon="2.06535">
        <ele>97</ele>
        <time>2016-10-30T09:51:23.000Z</time>
      </trkpt>
      <trkpt lat="47.8337" lon="2.06531">
        <ele>97</ele>
        <time>2016-10-30T09:51:24.000Z</time>
      </trkpt>
      <trkpt lat="47.83365" lon="2.06526">
        <ele>97</ele>
        <time>2016-10-30T09:51:25.000Z</time>
      </trkpt>
      <trkpt lat="47.8336" lon="2.06522">
        <ele>97</ele>
        <time>2016-10-30T09:51:26.000Z</time>
      </trkpt>
      <trkpt lat="47.83355" lon="2.06518">
        <ele>97</ele>
        <time>2016-10-30T09:51:27.000Z</time>
      </trkpt>
      <trkpt lat="47.83351" lon="2.06513">
        <ele>96</ele>
        <time>2016-10-30T09:51:28.000Z</time>
      </trkpt>
      <trkpt lat="47.83346" lon="2.06509">
        <ele>96</ele>
        <time>2016-10-30T09:51:29.000Z</time>
      </trkpt>
      <trkpt lat="47.83341" lon="2.06505">
        <ele>95</ele>
        <time>2016-10-30T09:51:30.000Z</time>
      </trkpt>
      <trkpt lat="47.83337" lon="2.065">
        <ele>95</ele>
        <time>2016-10-30T09:51:31.000Z</time>
      </trkpt>
      <trkpt lat="47.83332" lon="2.06496">
        <ele>96</ele>
        <time>2016-10-30T09:51:32.000Z</time>
      </trkpt>
      <trkpt lat="47.83327" lon="2.06491">
        <ele>95</ele>
        <time>2016-10-30T09:51:33.000Z</time>
      </trkpt>
      <trkpt lat="47.83322" lon="2.06487">
        <ele>95</ele>
        <time>2016-10-30T09:51:34.000Z</time>
      </trkpt>
      <trkpt lat="47.83317" lon="2.06482">
        <ele>96</ele>
        <time>2016-10-30T09:51:35.000Z</time>
      </trkpt>
      <trkpt lat="47.83311" lon="2.06478">
        <ele>96</ele>
        <time>2016-10-30T09:51:36.000Z</time>
      </trkpt>
      <trkpt lat="47.83306" lon="2.06474">
        <ele>96</ele>
        <time>2016-10-30T09:51:37.000Z</time>
      </trkpt>
      <trkpt lat="47.83301" lon="2.06469">
        <ele>96</ele>
        <time>2016-10-30T09:51:38.000Z</time>
      </trkpt>
      <trkpt lat="47.83296" lon="2.06465">
        <ele>96</ele>
        <time>2016-10-30T09:51:39.000Z</time>
      </trkpt>
      <trkpt lat="47.83291" lon="2.06461">
        <ele>96</ele>
        <time>2016-10-30T09:51:40.000Z</time>
      </trkpt>
      <trkpt lat="47.83286" lon="2.06456">
        <ele>96</ele>
        <time>2016-10-30T09:51:41.000Z</time>
      </trkpt>
      <trkpt lat="47.83281" lon="2.06452">
        <ele>97</ele>
        <time>2016-10-30T09:51:42.000Z</time>
      </trkpt>
      <trkpt lat="47.83276" lon="2.06448">
        <ele>97</ele>
        <time>2016-10-30T09:51:43.000Z</time>
      </trkpt>
      <trkpt lat="47.83272" lon="2.06444">
        <ele>98</ele>
        <time>2016-10-30T09:51:44.000Z</time>
      </trkpt>
      <trkpt lat="47.83267" lon="2.0644">
        <ele>98</ele>
        <time>2016-10-30T09:51:45.000Z</time>
      </trkpt>
      <trkpt lat="47.83262" lon="2.06436">
        <ele>99</ele>
        <time>2016-10-30T09:51:46.000Z</time>
      </trkpt>
      <trkpt lat="47.83258" lon="2.06432">
        <ele>99</ele>
        <time>2016-10-30T09:51:47.000Z</time>
      </trkpt>
      <trkpt lat="47.83253" lon="2.06429">
        <ele>99</ele>
        <time>2016-10-30T09:51:48.000Z</time>
      </trkpt>
      <trkpt lat="47.83249" lon="2.06426">
        <ele>99</ele>
        <time>2016-10-30T09:51:49.000Z</time>
      </trkpt>
      <trkpt lat="47.83245" lon="2.06422">
        <ele>99</ele>
        <time>2016-10-30T09:51:50.000Z</time>
      </trkpt>
      <trkpt lat="47.83242" lon="2.06419">
        <ele>99</ele>
        <time>2016-10-30T09:51:51.000Z</time>
      </trkpt>
      <trkpt lat="47.83238" lon="2.06415">
        <ele>99</ele>
        <time>2016-10-30T09:51:52.000Z</time>
      </trkpt>
      <trkpt lat="47.83234" lon="2.06412">
        <ele>99</ele>
        <time>2016-10-30T09:51:53.000Z</time>
      </trkpt>
      <trkpt lat="47.83231" lon="2.0641">
        <ele>99</ele>
        <time>2016-10-30T09:51:54.000Z</time>
      </trkpt>
      <trkpt lat="47.83229" lon="2.06408">
        <ele>100</ele>
        <time>2016-10-30T09:51:55.000Z</time>
      </trkpt>
      <trkpt lat="47.83227" lon="2.06406">
        <ele>100</ele>
        <time>2016-10-30T09:51:56.000Z</time>
      </trkpt>
      <trkpt lat="47.83226" lon="2.06405">
        <ele>100</ele>
        <time>2016-10-30T09:51:57.000Z</time>
      </trkpt>
      <trkpt lat="47.83226" lon="2.06405">
        <ele>100</ele>
        <time>2016-10-30T09:51:58.000Z</time>
      </trkpt>
      <trkpt lat="47.83225" lon="2.06405">
        <ele>100</ele>
        <time>2016-10-30T09:51:59.000Z</time>
      </trkpt>
      <trkpt lat="47.83225" lon="2.06404">
        <ele>100</ele>
        <time>2016-10-30T09:52:00.000Z</time>
      </trkpt>
      <trkpt lat="47.83225" lon="2.06404">
        <ele>100</ele>
        <time>2016-10-30T09:52:01.000Z</time>
      </trkpt>
      <trkpt lat="47.83225" lon="2.06404">
        <ele>100</ele>
        <time>2016-10-30T09:52:02.000Z</time>
      </trkpt>
      <trkpt lat="47.83225" lon="2.06404">
        <ele>100</ele>
        <time>2016-10-30T09:52:03.000Z</time>
      </trkpt>
      <trkpt lat="47.83225" lon="2.06404">
        <ele>100</ele>
        <time>2016-10-30T09:52:04.000Z</time>
      </trkpt>
      <trkpt lat="47.83225" lon="2.06404">
        <ele>100</ele>
        <time>2016-10-30T09:52:05.000Z</time>
      </trkpt>
      <trkpt lat="47.83225" lon="2.06404">
        <ele>100</ele>
        <time>2016-10-30T09:52:06.000Z</time>
      </trkpt>
      <trkpt lat="47.83225" lon="2.06404">
        <ele>100</ele>
        <time>2016-10-30T09:52:07.000Z</time>
      </trkpt>
      <trkpt lat="47.83225" lon="2.06404">
        <ele>100</ele>
        <time>2016-10-30T09:52:08.000Z</time>
      </trkpt>
      <trkpt lat="47.83225" lon="2.06404">
        <ele>100</ele>
        <time>2016-10-30T09:52:09.000Z</time>
      </trkpt>
      <trkpt lat="47.83225" lon="2.06405">
        <ele>100</ele>
        <time>2016-10-30T09:52:10.000Z</time>
      </trkpt>
      <trkpt lat="47.83225" lon="2.06405">
        <ele>100</ele>
        <time>2016-10-30T09:52:11.000Z</time>
      </trkpt>
      <trkpt lat="47.83225" lon="2.06405">
        <ele>100</ele>
        <time>2016-10-30T09:52:12.000Z</time>
      </trkpt>
      <trkpt lat="47.83225" lon="2.06405">
        <ele>100</ele>
        <time>2016-10-30T09:52:13.000Z</time>
      </trkpt>
      <trkpt lat="47.83225" lon="2.06405">
        <ele>100</ele>
        <time>2016-10-30T09:52:14.000Z</time>
      </trkpt>
      <trkpt lat="47.83225" lon="2.06405">
        <ele>100</ele>
        <time>2016-10-30T09:52:15.000Z</time>
      </trkpt>
      <trkpt lat="47.83225" lon="2.06405">
        <ele>100</ele>
        <time>2016-10-30T09:52:16.000Z</time>
      </trkpt>
      <trkpt lat="47.83225" lon="2.06405">
        <ele>100</ele>
        <time>2016-10-30T09:52:17.000Z</time>
      </trkpt>
      <trkpt lat="47.83225" lon="2.06405">
        <ele>100</ele>
        <time>2016-10-30T09:52:18.000Z</time>
      </trkpt>
      <trkpt lat="47.83225" lon="2.06405">
        <ele>101</ele>
        <time>2016-10-30T09:52:19.000Z</time>
      </trkpt>
      <trkpt lat="47.83225" lon="2.06405">
        <ele>100</ele>
        <time>2016-10-30T09:52:20.000Z</time>
      </trkpt>
      <trkpt lat="47.83225" lon="2.06405">
        <ele>100</ele>
        <time>2016-10-30T09:52:21.000Z</time>
      </trkpt>
      <trkpt lat="47.83225" lon="2.06405">
        <ele>100</ele>
        <time>2016-10-30T09:52:22.000Z</time>
      </trkpt>
      <trkpt lat="47.83225" lon="2.06405">
        <ele>100</ele>
        <time>2016-10-30T09:52:23.000Z</time>
      </trkpt>
      <trkpt lat="47.83226" lon="2.06405">
        <ele>100</ele>
        <time>2016-10-30T09:52:24.000Z</time>
      </trkpt>
      <trkpt lat="47.83226" lon="2.06405">
        <ele>100</ele>
        <time>2016-10-30T09:52:25.000Z</time>
      </trkpt>
      <trkpt lat="47.83226" lon="2.06405">
        <ele>99</ele>
        <time>2016-10-30T09:52:26.000Z</time>
      </trkpt>
      <trkpt lat="47.83226" lon="2.06405">
        <ele>100</ele>
        <time>2016-10-30T09:52:27.000Z</time>
      </trkpt>
      <trkpt lat="47.83226" lon="2.06405">
        <ele>100</ele>
        <time>2016-10-30T09:52:28.000Z</time>
      </trkpt>
      <trkpt lat="47.83226" lon="2.06405">
        <ele>99</ele>
        <time>2016-10-30T09:52:29.000Z</time>
      </trkpt>
      <trkpt lat="47.83226" lon="2.06405">
        <ele>99</ele>
        <time>2016-10-30T09:52:30.000Z</time>
      </trkpt>
      <trkpt lat="47.83226" lon="2.06405">
        <ele>99</ele>
        <time>2016-10-30T09:52:31.000Z</time>
      </trkpt>
      <trkpt lat="47.83226" lon="2.06405">
        <ele>99</ele>
        <time>2016-10-30T09:52:32.000Z</time>
      </trkpt>
      <trkpt lat="47.83226" lon="2.06405">
        <ele>99</ele>
        <time>2016-10-30T09:52:33.000Z</time>
      </trkpt>
      <trkpt lat="47.83226" lon="2.06405">
        <ele>99</ele>
        <time>2016-10-30T09:52:34.000Z</time>
      </trkpt>
      <trkpt lat="47.83226" lon="2.06405">
        <ele>99</ele>
        <time>2016-10-30T09:52:35.000Z</time>
      </trkpt>
      <trkpt lat="47.83226" lon="2.06405">
        <ele>99</ele>
        <time>2016-10-30T09:52:36.000Z</time>
      </trkpt>
      <trkpt lat="47.83226" lon="2.06404">
        <ele>99</ele>
        <time>2016-10-30T09:52:37.000Z</time>
      </trkpt>
      <trkpt lat="47.83226" lon="2.06404">
        <ele>99</ele>
        <time>2016-10-30T09:52:38.000Z</time>
      </trkpt>
      <trkpt lat="47.83226" lon="2.06404">
        <ele>99</ele>
        <time>2016-10-30T09:52:39.000Z</time>
      </trkpt>
      <trkpt lat="47.83226" lon="2.06404">
        <ele>99</ele>
        <time>2016-10-30T09:52:40.000Z</time>
      </trkpt>
      <trkpt lat="47.83226" lon="2.06404">
        <ele>99</ele>
        <time>2016-10-30T09:52:41.000Z</time>
      </trkpt>
      <trkpt lat="47.83226" lon="2.06404">
        <ele>99</ele>
        <time>2016-10-30T09:52:42.000Z</time>
      </trkpt>
      <trkpt lat="47.83226" lon="2.06404">
        <ele>100</ele>
        <time>2016-10-30T09:52:43.000Z</time>
      </trkpt>
      <trkpt lat="47.83226" lon="2.06404">
        <ele>100</ele>
        <time>2016-10-30T09:52:44.000Z</time>
      </trkpt>
      <trkpt lat="47.83226" lon="2.06404">
        <ele>100</ele>
        <time>2016-10-30T09:52:45.000Z</time>
      </trkpt>
      <trkpt lat="47.83226" lon="2.06404">
        <ele>100</ele>
        <time>2016-10-30T09:52:46.000Z</time>
      </trkpt>
      <trkpt lat="47.83225" lon="2.06404">
        <ele>100</ele>
        <time>2016-10-30T09:52:47.000Z</time>
      </trkpt>
      <trkpt lat="47.83225" lon="2.06404">
        <ele>100</ele>
        <time>2016-10-30T09:52:48.000Z</time>
      </trkpt>
      <trkpt lat="47.83225" lon="2.06404">
        <ele>100</ele>
        <time>2016-10-30T09:52:49.000Z</time>
      </trkpt>
      <trkpt lat="47.83225" lon="2.06404">
        <ele>100</ele>
        <time>2016-10-30T09:52:50.000Z</time>
      </trkpt>
      <trkpt lat="47.83225" lon="2.06404">
        <ele>100</ele>
        <time>2016-10-30T09:52:51.000Z</time>
      </trkpt>
      <trkpt lat="47.83225" lon="2.06404">
        <ele>100</ele>
        <time>2016-10-30T09:52:52.000Z</time>
      </trkpt>
      <trkpt lat="47.83225" lon="2.06404">
        <ele>100</ele>
        <time>2016-10-30T09:52:53.000Z</time>
      </trkpt>
      <trkpt lat="47.83225" lon="2.06404">
        <ele>100</ele>
        <time>2016-10-30T09:52:54.000Z</time>
      </trkpt>
      <trkpt lat="47.83225" lon="2.06404">
        <ele>100</ele>
        <time>2016-10-30T09:52:55.000Z</time>
      </trkpt>
      <trkpt lat="47.83225" lon="2.06404">
        <ele>100</ele>
        <time>2016-10-30T09:52:56.000Z</time>
      </trkpt>
      <trkpt lat="47.83225" lon="2.06404">
        <ele>100</ele>
        <time>2016-10-30T09:52:57.000Z</time>
      </trkpt>
      <trkpt lat="47.83225" lon="2.06404">
        <ele>100</ele>
        <time>2016-10-30T09:52:58.000Z</time>
      </trkpt>
      <trkpt lat="47.83225" lon="2.06404">
        <ele>100</ele>
        <time>2016-10-30T09:52:59.000Z</time>
      </trkpt>
      <trkpt lat="47.83225" lon="2.06404">
        <ele>100</ele>
        <time>2016-10-30T09:53:00.000Z</time>
      </trkpt>
      <trkpt lat="47.83225" lon="2.06404">
        <ele>100</ele>
        <time>2016-10-30T09:53:01.000Z</time>
      </trkpt>
      <trkpt lat="47.83225" lon="2.06403">
        <ele>100</ele>
        <time>2016-10-30T09:53:02.000Z</time>
      </trkpt>
      <trkpt lat="47.83224" lon="2.06401">
        <ele>100</ele>
        <time>2016-10-30T09:53:03.000Z</time>
      </trkpt>
      <trkpt lat="47.83224" lon="2.06399">
        <ele>100</ele>
        <time>2016-10-30T09:53:04.000Z</time>
      </trkpt>
      <trkpt lat="47.83225" lon="2.06396">
        <ele>100</ele>
        <time>2016-10-30T09:53:05.000Z</time>
      </trkpt>
      <trkpt lat="47.83225" lon="2.06394">
        <ele>101</ele>
        <time>2016-10-30T09:53:06.000Z</time>
      </trkpt>
      <trkpt lat="47.83226" lon="2.06391">
        <ele>101</ele>
        <time>2016-10-30T09:53:07.000Z</time>
      </trkpt>
      <trkpt lat="47.83227" lon="2.06388">
        <ele>101</ele>
        <time>2016-10-30T09:53:08.000Z</time>
      </trkpt>
      <trkpt lat="47.83228" lon="2.06384">
        <ele>101</ele>
        <time>2016-10-30T09:53:09.000Z</time>
      </trkpt>
      <trkpt lat="47.83229" lon="2.0638">
        <ele>101</ele>
        <time>2016-10-30T09:53:10.000Z</time>
      </trkpt>
      <trkpt lat="47.8323" lon="2.06376">
        <ele>102</ele>
        <time>2016-10-30T09:53:11.000Z</time>
      </trkpt>
      <trkpt lat="47.83231" lon="2.06372">
        <ele>102</ele>
        <time>2016-10-30T09:53:12.000Z</time>
      </trkpt>
      <trkpt lat="47.83233" lon="2.06368">
        <ele>102</ele>
        <time>2016-10-30T09:53:13.000Z</time>
      </trkpt>
      <trkpt lat="47.83234" lon="2.06364">
        <ele>102</ele>
        <time>2016-10-30T09:53:14.000Z</time>
      </trkpt>
      <trkpt lat="47.83235" lon="2.06359">
        <ele>102</ele>
        <time>2016-10-30T09:53:15.000Z</time>
      </trkpt>
      <trkpt lat="47.83236" lon="2.06355">
        <ele>102</ele>
        <time>2016-10-30T09:53:16.000Z</time>
      </trkpt>
      <trkpt lat="47.83238" lon="2.06351">
        <ele>103</ele>
        <time>2016-10-30T09:53:17.000Z</time>
      </trkpt>
      <trkpt lat="47.83239" lon="2.06347">
        <ele>103</ele>
        <time>2016-10-30T09:53:18.000Z</time>
      </trkpt>
      <trkpt lat="47.83241" lon="2.06343">
        <ele>102</ele>
        <time>2016-10-30T09:53:19.000Z</time>
      </trkpt>
      <trkpt lat="47.83242" lon="2.06338">
        <ele>102</ele>
        <time>2016-10-30T09:53:20.000Z</time>
      </trkpt>
      <trkpt lat="47.83243" lon="2.06334">
        <ele>101</ele>
        <time>2016-10-30T09:53:21.000Z</time>
      </trkpt>
      <trkpt lat="47.83245" lon="2.06329">
        <ele>100</ele>
        <time>2016-10-30T09:53:22.000Z</time>
      </trkpt>
      <trkpt lat="47.83246" lon="2.06325">
        <ele>100</ele>
        <time>2016-10-30T09:53:23.000Z</time>
      </trkpt>
      <trkpt lat="47.83247" lon="2.0632">
        <ele>100</ele>
        <time>2016-10-30T09:53:24.000Z</time>
      </trkpt>
      <trkpt lat="47.83249" lon="2.06316">
        <ele>100</ele>
        <time>2016-10-30T09:53:25.000Z</time>
      </trkpt>
      <trkpt lat="47.8325" lon="2.06311">
        <ele>100</ele>
        <time>2016-10-30T09:53:26.000Z</time>
      </trkpt>
      <trkpt lat="47.83251" lon="2.06307">
        <ele>101</ele>
        <time>2016-10-30T09:53:27.000Z</time>
      </trkpt>
      <trkpt lat="47.83252" lon="2.06302">
        <ele>101</ele>
        <time>2016-10-30T09:53:28.000Z</time>
      </trkpt>
      <trkpt lat="47.83252" lon="2.06298">
        <ele>101</ele>
        <time>2016-10-30T09:53:29.000Z</time>
      </trkpt>
      <trkpt lat="47.83251" lon="2.06294">
        <ele>102</ele>
        <time>2016-10-30T09:53:30.000Z</time>
      </trkpt>
      <trkpt lat="47.83249" lon="2.06292">
        <ele>103</ele>
        <time>2016-10-30T09:53:31.000Z</time>
      </trkpt>
      <trkpt lat="47.83246" lon="2.06291">
        <ele>102</ele>
        <time>2016-10-30T09:53:32.000Z</time>
      </trkpt>
      <trkpt lat="47.83243" lon="2.0629">
        <ele>101</ele>
        <time>2016-10-30T09:53:33.000Z</time>
      </trkpt>
      <trkpt lat="47.83239" lon="2.0629">
        <ele>101</ele>
        <time>2016-10-30T09:53:34.000Z</time>
      </trkpt>
      <trkpt lat="47.83236" lon="2.06291">
        <ele>101</ele>
        <time>2016-10-30T09:53:35.000Z</time>
      </trkpt>
      <trkpt lat="47.83232" lon="2.0629">
        <ele>101</ele>
        <time>2016-10-30T09:53:36.000Z</time>
      </trkpt>
      <trkpt lat="47.83228" lon="2.0629">
        <ele>101</ele>
        <time>2016-10-30T09:53:37.000Z</time>
      </trkpt>
      <trkpt lat="47.83225" lon="2.0629">
        <ele>101</ele>
        <time>2016-10-30T09:53:38.000Z</time>
      </trkpt>
      <trkpt lat="47.83221" lon="2.06289">
        <ele>100</ele>
        <time>2016-10-30T09:53:39.000Z</time>
      </trkpt>
      <trkpt lat="47.83217" lon="2.06289">
        <ele>100</ele>
        <time>2016-10-30T09:53:40.000Z</time>
      </trkpt>
      <trkpt lat="47.83213" lon="2.06288">
        <ele>101</ele>
        <time>2016-10-30T09:53:41.000Z</time>
      </trkpt>
      <trkpt lat="47.83209" lon="2.06286">
        <ele>101</ele>
        <time>2016-10-30T09:53:42.000Z</time>
      </trkpt>
      <trkpt lat="47.83205" lon="2.06285">
        <ele>101</ele>
        <time>2016-10-30T09:53:43.000Z</time>
      </trkpt>
      <trkpt lat="47.832" lon="2.06284">
        <ele>101</ele>
        <time>2016-10-30T09:53:44.000Z</time>
      </trkpt>
      <trkpt lat="47.83196" lon="2.06282">
        <ele>100</ele>
        <time>2016-10-30T09:53:45.000Z</time>
      </trkpt>
      <trkpt lat="47.83191" lon="2.0628">
        <ele>100</ele>
        <time>2016-10-30T09:53:46.000Z</time>
      </trkpt>
      <trkpt lat="47.83187" lon="2.06278">
        <ele>100</ele>
        <time>2016-10-30T09:53:47.000Z</time>
      </trkpt>
      <trkpt lat="47.83182" lon="2.06276">
        <ele>100</ele>
        <time>2016-10-30T09:53:48.000Z</time>
      </trkpt>
      <trkpt lat="47.83178" lon="2.06275">
        <ele>100</ele>
        <time>2016-10-30T09:53:49.000Z</time>
      </trkpt>
      <trkpt lat="47.83173" lon="2.06273">
        <ele>100</ele>
        <time>2016-10-30T09:53:50.000Z</time>
      </trkpt>
      <trkpt lat="47.83168" lon="2.06271">
        <ele>100</ele>
        <time>2016-10-30T09:53:51.000Z</time>
      </trkpt>
      <trkpt lat="47.83164" lon="2.06269">
        <ele>100</ele>
        <time>2016-10-30T09:53:52.000Z</time>
      </trkpt>
      <trkpt lat="47.83159" lon="2.06268">
        <ele>100</ele>
        <time>2016-10-30T09:53:53.000Z</time>
      </trkpt>
      <trkpt lat="47.83154" lon="2.06266">
        <ele>100</ele>
        <time>2016-10-30T09:53:54.000Z</time>
      </trkpt>
      <trkpt lat="47.8315" lon="2.06264">
        <ele>100</ele>
        <time>2016-10-30T09:53:55.000Z</time>
      </trkpt>
      <trkpt lat="47.83145" lon="2.06261">
        <ele>100</ele>
        <time>2016-10-30T09:53:56.000Z</time>
      </trkpt>
      <trkpt lat="47.83141" lon="2.06259">
        <ele>100</ele>
        <time>2016-10-30T09:53:57.000Z</time>
      </trkpt>
      <trkpt lat="47.83136" lon="2.06256">
        <ele>100</ele>
        <time>2016-10-30T09:53:58.000Z</time>
      </trkpt>
      <trkpt lat="47.83131" lon="2.06253">
        <ele>100</ele>
        <time>2016-10-30T09:53:59.000Z</time>
      </trkpt>
      <trkpt lat="47.83126" lon="2.0625">
        <ele>100</ele>
        <time>2016-10-30T09:54:00.000Z</time>
      </trkpt>
      <trkpt lat="47.83121" lon="2.06247">
        <ele>99</ele>
        <time>2016-10-30T09:54:01.000Z</time>
      </trkpt>
      <trkpt lat="47.83116" lon="2.06244">
        <ele>99</ele>
        <time>2016-10-30T09:54:02.000Z</time>
      </trkpt>
      <trkpt lat="47.83111" lon="2.06241">
        <ele>99</ele>
        <time>2016-10-30T09:54:03.000Z</time>
      </trkpt>
      <trkpt lat="47.83106" lon="2.06238">
        <ele>99</ele>
        <time>2016-10-30T09:54:04.000Z</time>
      </trkpt>
      <trkpt lat="47.83101" lon="2.06234">
        <ele>99</ele>
        <time>2016-10-30T09:54:05.000Z</time>
      </trkpt>
      <trkpt lat="47.83095" lon="2.06231">
        <ele>99</ele>
        <time>2016-10-30T09:54:06.000Z</time>
      </trkpt>
      <trkpt lat="47.8309" lon="2.06227">
        <ele>99</ele>
        <time>2016-10-30T09:54:07.000Z</time>
      </trkpt>
      <trkpt lat="47.83085" lon="2.06224">
        <ele>99</ele>
        <time>2016-10-30T09:54:08.000Z</time>
      </trkpt>
      <trkpt lat="47.8308" lon="2.0622">
        <ele>99</ele>
        <time>2016-10-30T09:54:09.000Z</time>
      </trkpt>
      <trkpt lat="47.83075" lon="2.06216">
        <ele>99</ele>
        <time>2016-10-30T09:54:10.000Z</time>
      </trkpt>
      <trkpt lat="47.8307" lon="2.06212">
        <ele>99</ele>
        <time>2016-10-30T09:54:11.000Z</time>
      </trkpt>
      <trkpt lat="47.83065" lon="2.06209">
        <ele>99</ele>
        <time>2016-10-30T09:54:12.000Z</time>
      </trkpt>
      <trkpt lat="47.8306" lon="2.06205">
        <ele>99</ele>
        <time>2016-10-30T09:54:13.000Z</time>
      </trkpt>
      <trkpt lat="47.83055" lon="2.06202">
        <ele>99</ele>
        <time>2016-10-30T09:54:14.000Z</time>
      </trkpt>
      <trkpt lat="47.8305" lon="2.06198">
        <ele>99</ele>
        <time>2016-10-30T09:54:15.000Z</time>
      </trkpt>
      <trkpt lat="47.83045" lon="2.06194">
        <ele>99</ele>
        <time>2016-10-30T09:54:16.000Z</time>
      </trkpt>
      <trkpt lat="47.8304" lon="2.0619">
        <ele>99</ele>
        <time>2016-10-30T09:54:17.000Z</time>
      </trkpt>
      <trkpt lat="47.83036" lon="2.06186">
        <ele>99</ele>
        <time>2016-10-30T09:54:18.000Z</time>
      </trkpt>
      <trkpt lat="47.83031" lon="2.06182">
        <ele>99</ele>
        <time>2016-10-30T09:54:19.000Z</time>
      </trkpt>
      <trkpt lat="47.83026" lon="2.06178">
        <ele>99</ele>
        <time>2016-10-30T09:54:20.000Z</time>
      </trkpt>
      <trkpt lat="47.83021" lon="2.06175">
        <ele>99</ele>
        <time>2016-10-30T09:54:21.000Z</time>
      </trkpt>
      <trkpt lat="47.83016" lon="2.06171">
        <ele>98</ele>
        <time>2016-10-30T09:54:22.000Z</time>
      </trkpt>
      <trkpt lat="47.8301" lon="2.06168">
        <ele>99</ele>
        <time>2016-10-30T09:54:23.000Z</time>
      </trkpt>
      <trkpt lat="47.83005" lon="2.06165">
        <ele>98</ele>
        <time>2016-10-30T09:54:24.000Z</time>
      </trkpt>
      <trkpt lat="47.83" lon="2.06162">
        <ele>99</ele>
        <time>2016-10-30T09:54:25.000Z</time>
      </trkpt>
      <trkpt lat="47.82994" lon="2.06159">
        <ele>99</ele>
        <time>2016-10-30T09:54:26.000Z</time>
      </trkpt>
      <trkpt lat="47.82989" lon="2.06157">
        <ele>99</ele>
        <time>2016-10-30T09:54:27.000Z</time>
      </trkpt>
      <trkpt lat="47.82984" lon="2.06154">
        <ele>99</ele>
        <time>2016-10-30T09:54:28.000Z</time>
      </trkpt>
      <trkpt lat="47.82979" lon="2.06151">
        <ele>99</ele>
        <time>2016-10-30T09:54:29.000Z</time>
      </trkpt>
      <trkpt lat="47.82974" lon="2.06149">
        <ele>99</ele>
        <time>2016-10-30T09:54:30.000Z</time>
      </trkpt>
      <trkpt lat="47.82968" lon="2.06146">
        <ele>99</ele>
        <time>2016-10-30T09:54:31.000Z</time>
      </trkpt>
      <trkpt lat="47.82963" lon="2.06143">
        <ele>99</ele>
        <time>2016-10-30T09:54:32.000Z</time>
      </trkpt>
      <trkpt lat="47.82958" lon="2.0614">
        <ele>99</ele>
        <time>2016-10-30T09:54:33.000Z</time>
      </trkpt>
      <trkpt lat="47.82952" lon="2.06138">
        <ele>99</ele>
        <time>2016-10-30T09:54:34.000Z</time>
      </trkpt>
      <trkpt lat="47.82947" lon="2.06135">
        <ele>99</ele>
        <time>2016-10-30T09:54:35.000Z</time>
      </trkpt>
      <trkpt lat="47.82942" lon="2.06132">
        <ele>99</ele>
        <time>2016-10-30T09:54:36.000Z</time>
      </trkpt>
      <trkpt lat="47.82936" lon="2.06129">
        <ele>99</ele>
        <time>2016-10-30T09:54:37.000Z</time>
      </trkpt>
      <trkpt lat="47.82931" lon="2.06126">
        <ele>99</ele>
        <time>2016-10-30T09:54:38.000Z</time>
      </trkpt>
      <trkpt lat="47.82926" lon="2.06123">
        <ele>99</ele>
        <time>2016-10-30T09:54:39.000Z</time>
      </trkpt>
      <trkpt lat="47.82921" lon="2.0612">
        <ele>99</ele>
        <time>2016-10-30T09:54:40.000Z</time>
      </trkpt>
      <trkpt lat="47.82916" lon="2.06117">
        <ele>99</ele>
        <time>2016-10-30T09:54:41.000Z</time>
      </trkpt>
      <trkpt lat="47.8291" lon="2.06115">
        <ele>99</ele>
        <time>2016-10-30T09:54:42.000Z</time>
      </trkpt>
      <trkpt lat="47.82905" lon="2.06112">
        <ele>99</ele>
        <time>2016-10-30T09:54:43.000Z</time>
      </trkpt>
      <trkpt lat="47.829" lon="2.06109">
        <ele>99</ele>
        <time>2016-10-30T09:54:44.000Z</time>
      </trkpt>
      <trkpt lat="47.82895" lon="2.06106">
        <ele>99</ele>
        <time>2016-10-30T09:54:45.000Z</time>
      </trkpt>
      <trkpt lat="47.82889" lon="2.06103">
        <ele>99</ele>
        <time>2016-10-30T09:54:46.000Z</time>
      </trkpt>
      <trkpt lat="47.82884" lon="2.061">
        <ele>99</ele>
        <time>2016-10-30T09:54:47.000Z</time>
      </trkpt>
      <trkpt lat="47.82879" lon="2.06097">
        <ele>99</ele>
        <time>2016-10-30T09:54:48.000Z</time>
      </trkpt>
      <trkpt lat="47.82874" lon="2.06094">
        <ele>99</ele>
        <time>2016-10-30T09:54:49.000Z</time>
      </trkpt>
      <trkpt lat="47.82869" lon="2.06091">
        <ele>99</ele>
        <time>2016-10-30T09:54:50.000Z</time>
      </trkpt>
      <trkpt lat="47.82864" lon="2.06087">
        <ele>99</ele>
        <time>2016-10-30T09:54:51.000Z</time>
      </trkpt>
      <trkpt lat="47.82859" lon="2.06084">
        <ele>99</ele>
        <time>2016-10-30T09:54:52.000Z</time>
      </trkpt>
      <trkpt lat="47.82854" lon="2.06081">
        <ele>99</ele>
        <time>2016-10-30T09:54:53.000Z</time>
      </trkpt>
      <trkpt lat="47.82849" lon="2.06078">
        <ele>99</ele>
        <time>2016-10-30T09:54:54.000Z</time>
      </trkpt>
      <trkpt lat="47.82844" lon="2.06074">
        <ele>99</ele>
        <time>2016-10-30T09:54:55.000Z</time>
      </trkpt>
      <trkpt lat="47.82839" lon="2.06071">
        <ele>99</ele>
        <time>2016-10-30T09:54:56.000Z</time>
      </trkpt>
      <trkpt lat="47.82834" lon="2.06068">
        <ele>99</ele>
        <time>2016-10-30T09:54:57.000Z</time>
      </trkpt>
      <trkpt lat="47.82829" lon="2.06064">
        <ele>99</ele>
        <time>2016-10-30T09:54:58.000Z</time>
      </trkpt>
      <trkpt lat="47.82824" lon="2.06061">
        <ele>99</ele>
        <time>2016-10-30T09:54:59.000Z</time>
      </trkpt>
      <trkpt lat="47.82819" lon="2.06058">
        <ele>99</ele>
        <time>2016-10-30T09:55:00.000Z</time>
      </trkpt>
      <trkpt lat="47.82814" lon="2.06054">
        <ele>99</ele>
        <time>2016-10-30T09:55:01.000Z</time>
      </trkpt>
      <trkpt lat="47.82809" lon="2.06051">
        <ele>99</ele>
        <time>2016-10-30T09:55:02.000Z</time>
      </trkpt>
      <trkpt lat="47.82803" lon="2.06048">
        <ele>99</ele>
        <time>2016-10-30T09:55:03.000Z</time>
      </trkpt>
      <trkpt lat="47.82798" lon="2.06045">
        <ele>99</ele>
        <time>2016-10-30T09:55:04.000Z</time>
      </trkpt>
      <trkpt lat="47.82793" lon="2.06042">
        <ele>99</ele>
        <time>2016-10-30T09:55:05.000Z</time>
      </trkpt>
      <trkpt lat="47.82788" lon="2.06039">
        <ele>99</ele>
        <time>2016-10-30T09:55:06.000Z</time>
      </trkpt>
      <trkpt lat="47.82783" lon="2.06036">
        <ele>99</ele>
        <time>2016-10-30T09:55:07.000Z</time>
      </trkpt>
      <trkpt lat="47.82778" lon="2.06033">
        <ele>98</ele>
        <time>2016-10-30T09:55:08.000Z</time>
      </trkpt>
      <trkpt lat="47.82772" lon="2.06029">
        <ele>98</ele>
        <time>2016-10-30T09:55:09.000Z</time>
      </trkpt>
      <trkpt lat="47.82767" lon="2.06026">
        <ele>98</ele>
        <time>2016-10-30T09:55:10.000Z</time>
      </trkpt>
      <trkpt lat="47.82762" lon="2.06023">
        <ele>98</ele>
        <time>2016-10-30T09:55:11.000Z</time>
      </trkpt>
      <trkpt lat="47.82757" lon="2.06019">
        <ele>98</ele>
        <time>2016-10-30T09:55:12.000Z</time>
      </trkpt>
      <trkpt lat="47.82752" lon="2.06016">
        <ele>98</ele>
        <time>2016-10-30T09:55:13.000Z</time>
      </trkpt>
      <trkpt lat="47.82746" lon="2.06012">
        <ele>98</ele>
        <time>2016-10-30T09:55:14.000Z</time>
      </trkpt>
      <trkpt lat="47.82741" lon="2.06008">
        <ele>98</ele>
        <time>2016-10-30T09:55:15.000Z</time>
      </trkpt>
      <trkpt lat="47.82736" lon="2.06005">
        <ele>98</ele>
        <time>2016-10-30T09:55:16.000Z</time>
      </trkpt>
      <trkpt lat="47.82731" lon="2.06001">
        <ele>98</ele>
        <time>2016-10-30T09:55:17.000Z</time>
      </trkpt>
      <trkpt lat="47.82726" lon="2.05998">
        <ele>98</ele>
        <time>2016-10-30T09:55:18.000Z</time>
      </trkpt>
      <trkpt lat="47.82721" lon="2.05995">
        <ele>98</ele>
        <time>2016-10-30T09:55:19.000Z</time>
      </trkpt>
      <trkpt lat="47.82716" lon="2.05991">
        <ele>98</ele>
        <time>2016-10-30T09:55:20.000Z</time>
      </trkpt>
      <trkpt lat="47.82711" lon="2.05988">
        <ele>98</ele>
        <time>2016-10-30T09:55:21.000Z</time>
      </trkpt>
      <trkpt lat="47.82706" lon="2.05984">
        <ele>98</ele>
        <time>2016-10-30T09:55:22.000Z</time>
      </trkpt>
      <trkpt lat="47.82701" lon="2.05981">
        <ele>98</ele>
        <time>2016-10-30T09:55:23.000Z</time>
      </trkpt>
      <trkpt lat="47.82696" lon="2.05978">
        <ele>98</ele>
        <time>2016-10-30T09:55:24.000Z</time>
      </trkpt>
      <trkpt lat="47.82691" lon="2.05975">
        <ele>98</ele>
        <time>2016-10-30T09:55:25.000Z</time>
      </trkpt>
      <trkpt lat="47.82686" lon="2.05971">
        <ele>98</ele>
        <time>2016-10-30T09:55:26.000Z</time>
      </trkpt>
      <trkpt lat="47.82681" lon="2.05968">
        <ele>98</ele>
        <time>2016-10-30T09:55:27.000Z</time>
      </trkpt>
      <trkpt lat="47.82676" lon="2.05965">
        <ele>98</ele>
        <time>2016-10-30T09:55:28.000Z</time>
      </trkpt>
      <trkpt lat="47.82672" lon="2.05962">
        <ele>98</ele>
        <time>2016-10-30T09:55:29.000Z</time>
      </trkpt>
      <trkpt lat="47.82667" lon="2.05959">
        <ele>98</ele>
        <time>2016-10-30T09:55:30.000Z</time>
      </trkpt>
      <trkpt lat="47.82662" lon="2.05956">
        <ele>98</ele>
        <time>2016-10-30T09:55:31.000Z</time>
      </trkpt>
      <trkpt lat="47.82658" lon="2.05954">
        <ele>98</ele>
        <time>2016-10-30T09:55:32.000Z</time>
      </trkpt>
      <trkpt lat="47.82654" lon="2.05952">
        <ele>98</ele>
        <time>2016-10-30T09:55:33.000Z</time>
      </trkpt>
      <trkpt lat="47.82649" lon="2.05951">
        <ele>98</ele>
        <time>2016-10-30T09:55:34.000Z</time>
      </trkpt>
      <trkpt lat="47.82645" lon="2.0595">
        <ele>98</ele>
        <time>2016-10-30T09:55:35.000Z</time>
      </trkpt>
      <trkpt lat="47.8264" lon="2.0595">
        <ele>98</ele>
        <time>2016-10-30T09:55:36.000Z</time>
      </trkpt>
      <trkpt lat="47.82635" lon="2.0595">
        <ele>98</ele>
        <time>2016-10-30T09:55:37.000Z</time>
      </trkpt>
      <trkpt lat="47.8263" lon="2.0595">
        <ele>98</ele>
        <time>2016-10-30T09:55:38.000Z</time>
      </trkpt>
      <trkpt lat="47.82626" lon="2.0595">
        <ele>98</ele>
        <time>2016-10-30T09:55:39.000Z</time>
      </trkpt>
      <trkpt lat="47.82621" lon="2.0595">
        <ele>98</ele>
        <time>2016-10-30T09:55:40.000Z</time>
      </trkpt>
      <trkpt lat="47.82616" lon="2.0595">
        <ele>98</ele>
        <time>2016-10-30T09:55:41.000Z</time>
      </trkpt>
      <trkpt lat="47.82611" lon="2.0595">
        <ele>98</ele>
        <time>2016-10-30T09:55:42.000Z</time>
      </trkpt>
      <trkpt lat="47.82606" lon="2.0595">
        <ele>98</ele>
        <time>2016-10-30T09:55:43.000Z</time>
      </trkpt>
      <trkpt lat="47.82601" lon="2.0595">
        <ele>98</ele>
        <time>2016-10-30T09:55:44.000Z</time>
      </trkpt>
      <trkpt lat="47.82596" lon="2.0595">
        <ele>98</ele>
        <time>2016-10-30T09:55:45.000Z</time>
      </trkpt>
      <trkpt lat="47.82592" lon="2.0595">
        <ele>98</ele>
        <time>2016-10-30T09:55:46.000Z</time>
      </trkpt>
      <trkpt lat="47.82587" lon="2.0595">
        <ele>98</ele>
        <time>2016-10-30T09:55:47.000Z</time>
      </trkpt>
      <trkpt lat="47.82582" lon="2.0595">
        <ele>98</ele>
        <time>2016-10-30T09:55:48.000Z</time>
      </trkpt>
      <trkpt lat="47.82578" lon="2.0595">
        <ele>98</ele>
        <time>2016-10-30T09:55:49.000Z</time>
      </trkpt>
      <trkpt lat="47.82574" lon="2.0595">
        <ele>98</ele>
        <time>2016-10-30T09:55:50.000Z</time>
      </trkpt>
      <trkpt lat="47.82569" lon="2.0595">
        <ele>98</ele>
        <time>2016-10-30T09:55:51.000Z</time>
      </trkpt>
      <trkpt lat="47.82565" lon="2.0595">
        <ele>98</ele>
        <time>2016-10-30T09:55:52.000Z</time>
      </trkpt>
      <trkpt lat="47.8256" lon="2.0595">
        <ele>98</ele>
        <time>2016-10-30T09:55:53.000Z</time>
      </trkpt>
      <trkpt lat="47.82556" lon="2.05949">
        <ele>98</ele>
        <time>2016-10-30T09:55:54.000Z</time>
      </trkpt>
      <trkpt lat="47.82552" lon="2.05949">
        <ele>98</ele>
        <time>2016-10-30T09:55:55.000Z</time>
      </trkpt>
      <trkpt lat="47.82548" lon="2.05948">
        <ele>98</ele>
        <time>2016-10-30T09:55:56.000Z</time>
      </trkpt>
      <trkpt lat="47.82545" lon="2.05948">
        <ele>98</ele>
        <time>2016-10-30T09:55:57.000Z</time>
      </trkpt>
      <trkpt lat="47.82541" lon="2.05948">
        <ele>98</ele>
        <time>2016-10-30T09:55:58.000Z</time>
      </trkpt>
      <trkpt lat="47.82538" lon="2.05948">
        <ele>98</ele>
        <time>2016-10-30T09:55:59.000Z</time>
      </trkpt>
      <trkpt lat="47.82534" lon="2.05948">
        <ele>98</ele>
        <time>2016-10-30T09:56:00.000Z</time>
      </trkpt>
      <trkpt lat="47.82531" lon="2.05948">
        <ele>98</ele>
        <time>2016-10-30T09:56:01.000Z</time>
      </trkpt>
      <trkpt lat="47.82528" lon="2.05948">
        <ele>98</ele>
        <time>2016-10-30T09:56:02.000Z</time>
      </trkpt>
      <trkpt lat="47.82524" lon="2.05948">
        <ele>98</ele>
        <time>2016-10-30T09:56:03.000Z</time>
      </trkpt>
      <trkpt lat="47.82521" lon="2.05948">
        <ele>98</ele>
        <time>2016-10-30T09:56:04.000Z</time>
      </trkpt>
      <trkpt lat="47.82518" lon="2.05948">
        <ele>98</ele>
        <time>2016-10-30T09:56:05.000Z</time>
      </trkpt>
      <trkpt lat="47.82514" lon="2.05948">
        <ele>98</ele>
        <time>2016-10-30T09:56:06.000Z</time>
      </trkpt>
      <trkpt lat="47.82511" lon="2.05948">
        <ele>98</ele>
        <time>2016-10-30T09:56:07.000Z</time>
      </trkpt>
      <trkpt lat="47.82507" lon="2.05948">
        <ele>98</ele>
        <time>2016-10-30T09:56:08.000Z</time>
      </trkpt>
      <trkpt lat="47.82504" lon="2.05947">
        <ele>98</ele>
        <time>2016-10-30T09:56:09.000Z</time>
      </trkpt>
      <trkpt lat="47.825" lon="2.05947">
        <ele>98</ele>
        <time>2016-10-30T09:56:10.000Z</time>
      </trkpt>
      <trkpt lat="47.82496" lon="2.05947">
        <ele>98</ele>
        <time>2016-10-30T09:56:11.000Z</time>
      </trkpt>
      <trkpt lat="47.82492" lon="2.05947">
        <ele>98</ele>
        <time>2016-10-30T09:56:12.000Z</time>
      </trkpt>
      <trkpt lat="47.82488" lon="2.05947">
        <ele>98</ele>
        <time>2016-10-30T09:56:13.000Z</time>
      </trkpt>
      <trkpt lat="47.82485" lon="2.05947">
        <ele>98</ele>
        <time>2016-10-30T09:56:14.000Z</time>
      </trkpt>
      <trkpt lat="47.82481" lon="2.05947">
        <ele>98</ele>
        <time>2016-10-30T09:56:15.000Z</time>
      </trkpt>
      <trkpt lat="47.82477" lon="2.05947">
        <ele>98</ele>
        <time>2016-10-30T09:56:16.000Z</time>
      </trkpt>
      <trkpt lat="47.82473" lon="2.05947">
        <ele>98</ele>
        <time>2016-10-30T09:56:17.000Z</time>
      </trkpt>
      <trkpt lat="47.82469" lon="2.05947">
        <ele>98</ele>
        <time>2016-10-30T09:56:18.000Z</time>
      </trkpt>
      <trkpt lat="47.82466" lon="2.05948">
        <ele>98</ele>
        <time>2016-10-30T09:56:19.000Z</time>
      </trkpt>
      <trkpt lat="47.82461" lon="2.05948">
        <ele>98</ele>
        <time>2016-10-30T09:56:20.000Z</time>
      </trkpt>
      <trkpt lat="47.82457" lon="2.05948">
        <ele>98</ele>
        <time>2016-10-30T09:56:21.000Z</time>
      </trkpt>
      <trkpt lat="47.82452" lon="2.05948">
        <ele>98</ele>
        <time>2016-10-30T09:56:22.000Z</time>
      </trkpt>
      <trkpt lat="47.82448" lon="2.05948">
        <ele>98</ele>
        <time>2016-10-30T09:56:23.000Z</time>
      </trkpt>
      <trkpt lat="47.82443" lon="2.05948">
        <ele>98</ele>
        <time>2016-10-30T09:56:24.000Z</time>
      </trkpt>
      <trkpt lat="47.82439" lon="2.05948">
        <ele>98</ele>
        <time>2016-10-30T09:56:25.000Z</time>
      </trkpt>
      <trkpt lat="47.82434" lon="2.05948">
        <ele>98</ele>
        <time>2016-10-30T09:56:26.000Z</time>
      </trkpt>
      <trkpt lat="47.8243" lon="2.05947">
        <ele>98</ele>
        <time>2016-10-30T09:56:27.000Z</time>
      </trkpt>
      <trkpt lat="47.82426" lon="2.05947">
        <ele>98</ele>
        <time>2016-10-30T09:56:28.000Z</time>
      </trkpt>
      <trkpt lat="47.82422" lon="2.05947">
        <ele>98</ele>
        <time>2016-10-30T09:56:29.000Z</time>
      </trkpt>
      <trkpt lat="47.82418" lon="2.05947">
        <ele>98</ele>
        <time>2016-10-30T09:56:30.000Z</time>
      </trkpt>
      <trkpt lat="47.82414" lon="2.05947">
        <ele>98</ele>
        <time>2016-10-30T09:56:31.000Z</time>
      </trkpt>
      <trkpt lat="47.8241" lon="2.05947">
        <ele>98</ele>
        <time>2016-10-30T09:56:32.000Z</time>
      </trkpt>
      <trkpt lat="47.82406" lon="2.05947">
        <ele>98</ele>
        <time>2016-10-30T09:56:33.000Z</time>
      </trkpt>
      <trkpt lat="47.82402" lon="2.05947">
        <ele>98</ele>
        <time>2016-10-30T09:56:34.000Z</time>
      </trkpt>
      <trkpt lat="47.82398" lon="2.05947">
        <ele>98</ele>
        <time>2016-10-30T09:56:35.000Z</time>
      </trkpt>
      <trkpt lat="47.82394" lon="2.05946">
        <ele>98</ele>
        <time>2016-10-30T09:56:36.000Z</time>
      </trkpt>
      <trkpt lat="47.8239" lon="2.05946">
        <ele>98</ele>
        <time>2016-10-30T09:56:37.000Z</time>
      </trkpt>
      <trkpt lat="47.82386" lon="2.05946">
        <ele>98</ele>
        <time>2016-10-30T09:56:38.000Z</time>
      </trkpt>
      <trkpt lat="47.82381" lon="2.05946">
        <ele>99</ele>
        <time>2016-10-30T09:56:39.000Z</time>
      </trkpt>
      <trkpt lat="47.82377" lon="2.05946">
        <ele>99</ele>
        <time>2016-10-30T09:56:40.000Z</time>
      </trkpt>
      <trkpt lat="47.82373" lon="2.05946">
        <ele>99</ele>
        <time>2016-10-30T09:56:41.000Z</time>
      </trkpt>
      <trkpt lat="47.82369" lon="2.05946">
        <ele>99</ele>
        <time>2016-10-30T09:56:42.000Z</time>
      </trkpt>
      <trkpt lat="47.82365" lon="2.05946">
        <ele>99</ele>
        <time>2016-10-30T09:56:43.000Z</time>
      </trkpt>
      <trkpt lat="47.82361" lon="2.05946">
        <ele>99</ele>
        <time>2016-10-30T09:56:44.000Z</time>
      </trkpt>
      <trkpt lat="47.82357" lon="2.05946">
        <ele>99</ele>
        <time>2016-10-30T09:56:45.000Z</time>
      </trkpt>
      <trkpt lat="47.82353" lon="2.05947">
        <ele>99</ele>
        <time>2016-10-30T09:56:46.000Z</time>
      </trkpt>
      <trkpt lat="47.82349" lon="2.05947">
        <ele>99</ele>
        <time>2016-10-30T09:56:47.000Z</time>
      </trkpt>
      <trkpt lat="47.82346" lon="2.05947">
        <ele>99</ele>
        <time>2016-10-30T09:56:48.000Z</time>
      </trkpt>
      <trkpt lat="47.82342" lon="2.05947">
        <ele>99</ele>
        <time>2016-10-30T09:56:49.000Z</time>
      </trkpt>
      <trkpt lat="47.82338" lon="2.05947">
        <ele>99</ele>
        <time>2016-10-30T09:56:50.000Z</time>
      </trkpt>
      <trkpt lat="47.82335" lon="2.05947">
        <ele>99</ele>
        <time>2016-10-30T09:56:51.000Z</time>
      </trkpt>
      <trkpt lat="47.82331" lon="2.05947">
        <ele>99</ele>
        <time>2016-10-30T09:56:52.000Z</time>
      </trkpt>
      <trkpt lat="47.82327" lon="2.05947">
        <ele>99</ele>
        <time>2016-10-30T09:56:53.000Z</time>
      </trkpt>
      <trkpt lat="47.82323" lon="2.05947">
        <ele>99</ele>
        <time>2016-10-30T09:56:54.000Z</time>
      </trkpt>
      <trkpt lat="47.82319" lon="2.05947">
        <ele>99</ele>
        <time>2016-10-30T09:56:55.000Z</time>
      </trkpt>
      <trkpt lat="47.82316" lon="2.05947">
        <ele>99</ele>
        <time>2016-10-30T09:56:56.000Z</time>
      </trkpt>
      <trkpt lat="47.82312" lon="2.05947">
        <ele>99</ele>
        <time>2016-10-30T09:56:57.000Z</time>
      </trkpt>
      <trkpt lat="47.82309" lon="2.05946">
        <ele>99</ele>
        <time>2016-10-30T09:56:58.000Z</time>
      </trkpt>
      <trkpt lat="47.82306" lon="2.05946">
        <ele>99</ele>
        <time>2016-10-30T09:56:59.000Z</time>
      </trkpt>
      <trkpt lat="47.82302" lon="2.05946">
        <ele>99</ele>
        <time>2016-10-30T09:57:00.000Z</time>
      </trkpt>
      <trkpt lat="47.82299" lon="2.05946">
        <ele>99</ele>
        <time>2016-10-30T09:57:01.000Z</time>
      </trkpt>
      <trkpt lat="47.82296" lon="2.05947">
        <ele>99</ele>
        <time>2016-10-30T09:57:02.000Z</time>
      </trkpt>
      <trkpt lat="47.82293" lon="2.05947">
        <ele>99</ele>
        <time>2016-10-30T09:57:03.000Z</time>
      </trkpt>
      <trkpt lat="47.8229" lon="2.05947">
        <ele>99</ele>
        <time>2016-10-30T09:57:04.000Z</time>
      </trkpt>
      <trkpt lat="47.82286" lon="2.05948">
        <ele>99</ele>
        <time>2016-10-30T09:57:05.000Z</time>
      </trkpt>
      <trkpt lat="47.82283" lon="2.05948">
        <ele>99</ele>
        <time>2016-10-30T09:57:06.000Z</time>
      </trkpt>
      <trkpt lat="47.8228" lon="2.05948">
        <ele>99</ele>
        <time>2016-10-30T09:57:07.000Z</time>
      </trkpt>
      <trkpt lat="47.82277" lon="2.05947">
        <ele>98</ele>
        <time>2016-10-30T09:57:08.000Z</time>
      </trkpt>
      <trkpt lat="47.82274" lon="2.05945">
        <ele>98</ele>
        <time>2016-10-30T09:57:09.000Z</time>
      </trkpt>
      <trkpt lat="47.82272" lon="2.05942">
        <ele>98</ele>
        <time>2016-10-30T09:57:10.000Z</time>
      </trkpt>
      <trkpt lat="47.8227" lon="2.05938">
        <ele>98</ele>
        <time>2016-10-30T09:57:11.000Z</time>
      </trkpt>
      <trkpt lat="47.82269" lon="2.05934">
        <ele>98</ele>
        <time>2016-10-30T09:57:12.000Z</time>
      </trkpt>
      <trkpt lat="47.82268" lon="2.05929">
        <ele>98</ele>
        <time>2016-10-30T09:57:13.000Z</time>
      </trkpt>
      <trkpt lat="47.82267" lon="2.05924">
        <ele>99</ele>
        <time>2016-10-30T09:57:14.000Z</time>
      </trkpt>
      <trkpt lat="47.82266" lon="2.05919">
        <ele>98</ele>
        <time>2016-10-30T09:57:15.000Z</time>
      </trkpt>
      <trkpt lat="47.82265" lon="2.05914">
        <ele>98</ele>
        <time>2016-10-30T09:57:16.000Z</time>
      </trkpt>
      <trkpt lat="47.82264" lon="2.05908">
        <ele>98</ele>
        <time>2016-10-30T09:57:17.000Z</time>
      </trkpt>
      <trkpt lat="47.82263" lon="2.05902">
        <ele>98</ele>
        <time>2016-10-30T09:57:18.000Z</time>
      </trkpt>
      <trkpt lat="47.82262" lon="2.05897">
        <ele>98</ele>
        <time>2016-10-30T09:57:19.000Z</time>
      </trkpt>
      <trkpt lat="47.82262" lon="2.05891">
        <ele>99</ele>
        <time>2016-10-30T09:57:20.000Z</time>
      </trkpt>
      <trkpt lat="47.82261" lon="2.05885">
        <ele>98</ele>
        <time>2016-10-30T09:57:21.000Z</time>
      </trkpt>
      <trkpt lat="47.8226" lon="2.05879">
        <ele>98</ele>
        <time>2016-10-30T09:57:22.000Z</time>
      </trkpt>
      <trkpt lat="47.82259" lon="2.05873">
        <ele>98</ele>
        <time>2016-10-30T09:57:23.000Z</time>
      </trkpt>
      <trkpt lat="47.82259" lon="2.05868">
        <ele>98</ele>
        <time>2016-10-30T09:57:24.000Z</time>
      </trkpt>
      <trkpt lat="47.82258" lon="2.05862">
        <ele>99</ele>
        <time>2016-10-30T09:57:25.000Z</time>
      </trkpt>
      <trkpt lat="47.82257" lon="2.05856">
        <ele>99</ele>
        <time>2016-10-30T09:57:26.000Z</time>
      </trkpt>
      <trkpt lat="47.82257" lon="2.0585">
        <ele>99</ele>
        <time>2016-10-30T09:57:27.000Z</time>
      </trkpt>
      <trkpt lat="47.82256" lon="2.05845">
        <ele>99</ele>
        <time>2016-10-30T09:57:28.000Z</time>
      </trkpt>
      <trkpt lat="47.82255" lon="2.05839">
        <ele>99</ele>
        <time>2016-10-30T09:57:29.000Z</time>
      </trkpt>
      <trkpt lat="47.82254" lon="2.05834">
        <ele>99</ele>
        <time>2016-10-30T09:57:30.000Z</time>
      </trkpt>
      <trkpt lat="47.82254" lon="2.05828">
        <ele>99</ele>
        <time>2016-10-30T09:57:31.000Z</time>
      </trkpt>
      <trkpt lat="47.82253" lon="2.05822">
        <ele>98</ele>
        <time>2016-10-30T09:57:32.000Z</time>
      </trkpt>
      <trkpt lat="47.82252" lon="2.05816">
        <ele>99</ele>
        <time>2016-10-30T09:57:33.000Z</time>
      </trkpt>
      <trkpt lat="47.82251" lon="2.0581">
        <ele>99</ele>
        <time>2016-10-30T09:57:34.000Z</time>
      </trkpt>
      <trkpt lat="47.82249" lon="2.05805">
        <ele>99</ele>
        <time>2016-10-30T09:57:35.000Z</time>
      </trkpt>
      <trkpt lat="47.82248" lon="2.05799">
        <ele>99</ele>
        <time>2016-10-30T09:57:36.000Z</time>
      </trkpt>
      <trkpt lat="47.82247" lon="2.05793">
        <ele>98</ele>
        <time>2016-10-30T09:57:37.000Z</time>
      </trkpt>
      <trkpt lat="47.82246" lon="2.05787">
        <ele>98</ele>
        <time>2016-10-30T09:57:38.000Z</time>
      </trkpt>
      <trkpt lat="47.82245" lon="2.05781">
        <ele>99</ele>
        <time>2016-10-30T09:57:39.000Z</time>
      </trkpt>
      <trkpt lat="47.82244" lon="2.05774">
        <ele>98</ele>
        <time>2016-10-30T09:57:40.000Z</time>
      </trkpt>
      <trkpt lat="47.82244" lon="2.05768">
        <ele>99</ele>
        <time>2016-10-30T09:57:41.000Z</time>
      </trkpt>
      <trkpt lat="47.82243" lon="2.05762">
        <ele>98</ele>
        <time>2016-10-30T09:57:42.000Z</time>
      </trkpt>
      <trkpt lat="47.82242" lon="2.05756">
        <ele>98</ele>
        <time>2016-10-30T09:57:43.000Z</time>
      </trkpt>
      <trkpt lat="47.82241" lon="2.05749">
        <ele>98</ele>
        <time>2016-10-30T09:57:44.000Z</time>
      </trkpt>
      <trkpt lat="47.82239" lon="2.05743">
        <ele>98</ele>
        <time>2016-10-30T09:57:45.000Z</time>
      </trkpt>
      <trkpt lat="47.82238" lon="2.05737">
        <ele>98</ele>
        <time>2016-10-30T09:57:46.000Z</time>
      </trkpt>
      <trkpt lat="47.82237" lon="2.0573">
        <ele>98</ele>
        <time>2016-10-30T09:57:47.000Z</time>
      </trkpt>
      <trkpt lat="47.82236" lon="2.05724">
        <ele>98</ele>
        <time>2016-10-30T09:57:48.000Z</time>
      </trkpt>
      <trkpt lat="47.82235" lon="2.05717">
        <ele>98</ele>
        <time>2016-10-30T09:57:49.000Z</time>
      </trkpt>
      <trkpt lat="47.82234" lon="2.0571">
        <ele>98</ele>
        <time>2016-10-30T09:57:50.000Z</time>
      </trkpt>
      <trkpt lat="47.82233" lon="2.05703">
        <ele>98</ele>
        <time>2016-10-30T09:57:51.000Z</time>
      </trkpt>
      <trkpt lat="47.82232" lon="2.05697">
        <ele>98</ele>
        <time>2016-10-30T09:57:52.000Z</time>
      </trkpt>
      <trkpt lat="47.82231" lon="2.0569">
        <ele>98</ele>
        <time>2016-10-30T09:57:53.000Z</time>
      </trkpt>
      <trkpt lat="47.8223" lon="2.05683">
        <ele>98</ele>
        <time>2016-10-30T09:57:54.000Z</time>
      </trkpt>
      <trkpt lat="47.82229" lon="2.05677">
        <ele>98</ele>
        <time>2016-10-30T09:57:55.000Z</time>
      </trkpt>
      <trkpt lat="47.82229" lon="2.0567">
        <ele>98</ele>
        <time>2016-10-30T09:57:56.000Z</time>
      </trkpt>
      <trkpt lat="47.82228" lon="2.05663">
        <ele>98</ele>
        <time>2016-10-30T09:57:57.000Z</time>
      </trkpt>
      <trkpt lat="47.82227" lon="2.05656">
        <ele>98</ele>
        <time>2016-10-30T09:57:58.000Z</time>
      </trkpt>
      <trkpt lat="47.82227" lon="2.05649">
        <ele>98</ele>
        <time>2016-10-30T09:57:59.000Z</time>
      </trkpt>
      <trkpt lat="47.82226" lon="2.05642">
        <ele>98</ele>
        <time>2016-10-30T09:58:00.000Z</time>
      </trkpt>
      <trkpt lat="47.82225" lon="2.05636">
        <ele>98</ele>
        <time>2016-10-30T09:58:01.000Z</time>
      </trkpt>
      <trkpt lat="47.82224" lon="2.05629">
        <ele>98</ele>
        <time>2016-10-30T09:58:02.000Z</time>
      </trkpt>
      <trkpt lat="47.82224" lon="2.05622">
        <ele>98</ele>
        <time>2016-10-30T09:58:03.000Z</time>
      </trkpt>
      <trkpt lat="47.82223" lon="2.05616">
        <ele>98</ele>
        <time>2016-10-30T09:58:04.000Z</time>
      </trkpt>
      <trkpt lat="47.82222" lon="2.05609">
        <ele>99</ele>
        <time>2016-10-30T09:58:05.000Z</time>
      </trkpt>
      <trkpt lat="47.82222" lon="2.05602">
        <ele>98</ele>
        <time>2016-10-30T09:58:06.000Z</time>
      </trkpt>
      <trkpt lat="47.82221" lon="2.05595">
        <ele>98</ele>
        <time>2016-10-30T09:58:07.000Z</time>
      </trkpt>
      <trkpt lat="47.8222" lon="2.05588">
        <ele>98</ele>
        <time>2016-10-30T09:58:08.000Z</time>
      </trkpt>
      <trkpt lat="47.82219" lon="2.05581">
        <ele>98</ele>
        <time>2016-10-30T09:58:09.000Z</time>
      </trkpt>
      <trkpt lat="47.82218" lon="2.05574">
        <ele>98</ele>
        <time>2016-10-30T09:58:10.000Z</time>
      </trkpt>
      <trkpt lat="47.82217" lon="2.05568">
        <ele>98</ele>
        <time>2016-10-30T09:58:11.000Z</time>
      </trkpt>
      <trkpt lat="47.82216" lon="2.05561">
        <ele>98</ele>
        <time>2016-10-30T09:58:12.000Z</time>
      </trkpt>
      <trkpt lat="47.82214" lon="2.05554">
        <ele>99</ele>
        <time>2016-10-30T09:58:13.000Z</time>
      </trkpt>
      <trkpt lat="47.82212" lon="2.05549">
        <ele>99</ele>
        <time>2016-10-30T09:58:14.000Z</time>
      </trkpt>
      <trkpt lat="47.8221" lon="2.05544">
        <ele>98</ele>
        <time>2016-10-30T09:58:15.000Z</time>
      </trkpt>
      <trkpt lat="47.82207" lon="2.0554">
        <ele>98</ele>
        <time>2016-10-30T09:58:16.000Z</time>
      </trkpt>
      <trkpt lat="47.82203" lon="2.05538">
        <ele>99</ele>
        <time>2016-10-30T09:58:17.000Z</time>
      </trkpt>
      <trkpt lat="47.82199" lon="2.05536">
        <ele>99</ele>
        <time>2016-10-30T09:58:18.000Z</time>
      </trkpt>
      <trkpt lat="47.82195" lon="2.05535">
        <ele>98</ele>
        <time>2016-10-30T09:58:19.000Z</time>
      </trkpt>
      <trkpt lat="47.8219" lon="2.05535">
        <ele>98</ele>
        <time>2016-10-30T09:58:20.000Z</time>
      </trkpt>
      <trkpt lat="47.82185" lon="2.05534">
        <ele>98</ele>
        <time>2016-10-30T09:58:21.000Z</time>
      </trkpt>
      <trkpt lat="47.82181" lon="2.05534">
        <ele>98</ele>
        <time>2016-10-30T09:58:22.000Z</time>
      </trkpt>
      <trkpt lat="47.82176" lon="2.05533">
        <ele>98</ele>
        <time>2016-10-30T09:58:23.000Z</time>
      </trkpt>
      <trkpt lat="47.82172" lon="2.05533">
        <ele>98</ele>
        <time>2016-10-30T09:58:24.000Z</time>
      </trkpt>
      <trkpt lat="47.82168" lon="2.05532">
        <ele>98</ele>
        <time>2016-10-30T09:58:25.000Z</time>
      </trkpt>
      <trkpt lat="47.82164" lon="2.05532">
        <ele>98</ele>
        <time>2016-10-30T09:58:26.000Z</time>
      </trkpt>
      <trkpt lat="47.82159" lon="2.05531">
        <ele>98</ele>
        <time>2016-10-30T09:58:27.000Z</time>
      </trkpt>
      <trkpt lat="47.82155" lon="2.05531">
        <ele>98</ele>
        <time>2016-10-30T09:58:28.000Z</time>
      </trkpt>
      <trkpt lat="47.8215" lon="2.0553">
        <ele>98</ele>
        <time>2016-10-30T09:58:29.000Z</time>
      </trkpt>
      <trkpt lat="47.82146" lon="2.05529">
        <ele>98</ele>
        <time>2016-10-30T09:58:30.000Z</time>
      </trkpt>
      <trkpt lat="47.82141" lon="2.05529">
        <ele>98</ele>
        <time>2016-10-30T09:58:31.000Z</time>
      </trkpt>
      <trkpt lat="47.82137" lon="2.05529">
        <ele>98</ele>
        <time>2016-10-30T09:58:32.000Z</time>
      </trkpt>
      <trkpt lat="47.82132" lon="2.05528">
        <ele>98</ele>
        <time>2016-10-30T09:58:33.000Z</time>
      </trkpt>
      <trkpt lat="47.82128" lon="2.05527">
        <ele>98</ele>
        <time>2016-10-30T09:58:34.000Z</time>
      </trkpt>
      <trkpt lat="47.82123" lon="2.05527">
        <ele>98</ele>
        <time>2016-10-30T09:58:35.000Z</time>
      </trkpt>
      <trkpt lat="47.82119" lon="2.05526">
        <ele>98</ele>
        <time>2016-10-30T09:58:36.000Z</time>
      </trkpt>
      <trkpt lat="47.82114" lon="2.05525">
        <ele>98</ele>
        <time>2016-10-30T09:58:37.000Z</time>
      </trkpt>
      <trkpt lat="47.8211" lon="2.05525">
        <ele>98</ele>
        <time>2016-10-30T09:58:38.000Z</time>
      </trkpt>
      <trkpt lat="47.82106" lon="2.05524">
        <ele>98</ele>
        <time>2016-10-30T09:58:39.000Z</time>
      </trkpt>
      <trkpt lat="47.82101" lon="2.05524">
        <ele>99</ele>
        <time>2016-10-30T09:58:40.000Z</time>
      </trkpt>
      <trkpt lat="47.82097" lon="2.05523">
        <ele>98</ele>
        <time>2016-10-30T09:58:41.000Z</time>
      </trkpt>
      <trkpt lat="47.82093" lon="2.05522">
        <ele>98</ele>
        <time>2016-10-30T09:58:42.000Z</time>
      </trkpt>
      <trkpt lat="47.82088" lon="2.05522">
        <ele>98</ele>
        <time>2016-10-30T09:58:43.000Z</time>
      </trkpt>
      <trkpt lat="47.82084" lon="2.05521">
        <ele>99</ele>
        <time>2016-10-30T09:58:44.000Z</time>
      </trkpt>
      <trkpt lat="47.8208" lon="2.05521">
        <ele>98</ele>
        <time>2016-10-30T09:58:45.000Z</time>
      </trkpt>
      <trkpt lat="47.82076" lon="2.05521">
        <ele>99</ele>
        <time>2016-10-30T09:58:46.000Z</time>
      </trkpt>
      <trkpt lat="47.82072" lon="2.0552">
        <ele>99</ele>
        <time>2016-10-30T09:58:47.000Z</time>
      </trkpt>
      <trkpt lat="47.82068" lon="2.0552">
        <ele>99</ele>
        <time>2016-10-30T09:58:48.000Z</time>
      </trkpt>
      <trkpt lat="47.82064" lon="2.05519">
        <ele>99</ele>
        <time>2016-10-30T09:58:49.000Z</time>
      </trkpt>
      <trkpt lat="47.8206" lon="2.05519">
        <ele>99</ele>
        <time>2016-10-30T09:58:50.000Z</time>
      </trkpt>
      <trkpt lat="47.82056" lon="2.05518">
        <ele>99</ele>
        <time>2016-10-30T09:58:51.000Z</time>
      </trkpt>
      <trkpt lat="47.82052" lon="2.05518">
        <ele>99</ele>
        <time>2016-10-30T09:58:52.000Z</time>
      </trkpt>
      <trkpt lat="47.82048" lon="2.05517">
        <ele>99</ele>
        <time>2016-10-30T09:58:53.000Z</time>
      </trkpt>
      <trkpt lat="47.82044" lon="2.05517">
        <ele>98</ele>
        <time>2016-10-30T09:58:54.000Z</time>
      </trkpt>
      <trkpt lat="47.8204" lon="2.05516">
        <ele>99</ele>
        <time>2016-10-30T09:58:55.000Z</time>
      </trkpt>
      <trkpt lat="47.82037" lon="2.05516">
        <ele>98</ele>
        <time>2016-10-30T09:58:56.000Z</time>
      </trkpt>
      <trkpt lat="47.82033" lon="2.05515">
        <ele>98</ele>
        <time>2016-10-30T09:58:57.000Z</time>
      </trkpt>
      <trkpt lat="47.82029" lon="2.05515">
        <ele>98</ele>
        <time>2016-10-30T09:58:58.000Z</time>
      </trkpt>
      <trkpt lat="47.82025" lon="2.05514">
        <ele>98</ele>
        <time>2016-10-30T09:58:59.000Z</time>
      </trkpt>
      <trkpt lat="47.82022" lon="2.05514">
        <ele>98</ele>
        <time>2016-10-30T09:59:00.000Z</time>
      </trkpt>
      <trkpt lat="47.82019" lon="2.05513">
        <ele>98</ele>
        <time>2016-10-30T09:59:01.000Z</time>
      </trkpt>
      <trkpt lat="47.82016" lon="2.05513">
        <ele>98</ele>
        <time>2016-10-30T09:59:02.000Z</time>
      </trkpt>
      <trkpt lat="47.82014" lon="2.05512">
        <ele>98</ele>
        <time>2016-10-30T09:59:03.000Z</time>
      </trkpt>
      <trkpt lat="47.82013" lon="2.05511">
        <ele>98</ele>
        <time>2016-10-30T09:59:04.000Z</time>
      </trkpt>
      <trkpt lat="47.82011" lon="2.05511">
        <ele>98</ele>
        <time>2016-10-30T09:59:05.000Z</time>
      </trkpt>
      <trkpt lat="47.8201" lon="2.05511">
        <ele>99</ele>
        <time>2016-10-30T09:59:06.000Z</time>
      </trkpt>
      <trkpt lat="47.82009" lon="2.05512">
        <ele>99</ele>
        <time>2016-10-30T09:59:07.000Z</time>
      </trkpt>
      <trkpt lat="47.82009" lon="2.05513">
        <ele>99</ele>
        <time>2016-10-30T09:59:08.000Z</time>
      </trkpt>
      <trkpt lat="47.82008" lon="2.05513">
        <ele>99</ele>
        <time>2016-10-30T09:59:09.000Z</time>
      </trkpt>
      <trkpt lat="47.82008" lon="2.05512">
        <ele>99</ele>
        <time>2016-10-30T09:59:10.000Z</time>
      </trkpt>
      <trkpt lat="47.82007" lon="2.05512">
        <ele>100</ele>
        <time>2016-10-30T09:59:11.000Z</time>
      </trkpt>
      <trkpt lat="47.82006" lon="2.0551">
        <ele>100</ele>
        <time>2016-10-30T09:59:12.000Z</time>
      </trkpt>
      <trkpt lat="47.82005" lon="2.05509">
        <ele>100</ele>
        <time>2016-10-30T09:59:13.000Z</time>
      </trkpt>
      <trkpt lat="47.82004" lon="2.05508">
        <ele>100</ele>
        <time>2016-10-30T09:59:14.000Z</time>
      </trkpt>
      <trkpt lat="47.82001" lon="2.05508">
        <ele>100</ele>
        <time>2016-10-30T09:59:15.000Z</time>
      </trkpt>
      <trkpt lat="47.81999" lon="2.05509">
        <ele>99</ele>
        <time>2016-10-30T09:59:16.000Z</time>
      </trkpt>
      <trkpt lat="47.81997" lon="2.05511">
        <ele>99</ele>
        <time>2016-10-30T09:59:17.000Z</time>
      </trkpt>
      <trkpt lat="47.81995" lon="2.05513">
        <ele>99</ele>
        <time>2016-10-30T09:59:18.000Z</time>
      </trkpt>
      <trkpt lat="47.81994" lon="2.05516">
        <ele>99</ele>
        <time>2016-10-30T09:59:19.000Z</time>
      </trkpt>
      <trkpt lat="47.81992" lon="2.0552">
        <ele>99</ele>
        <time>2016-10-30T09:59:20.000Z</time>
      </trkpt>
      <trkpt lat="47.8199" lon="2.05523">
        <ele>99</ele>
        <time>2016-10-30T09:59:21.000Z</time>
      </trkpt>
      <trkpt lat="47.81988" lon="2.05527">
        <ele>99</ele>
        <time>2016-10-30T09:59:22.000Z</time>
      </trkpt>
      <trkpt lat="47.81985" lon="2.0553">
        <ele>98</ele>
        <time>2016-10-30T09:59:23.000Z</time>
      </trkpt>
      <trkpt lat="47.81983" lon="2.05534">
        <ele>98</ele>
        <time>2016-10-30T09:59:24.000Z</time>
      </trkpt>
      <trkpt lat="47.81981" lon="2.05539">
        <ele>98</ele>
        <time>2016-10-30T09:59:25.000Z</time>
      </trkpt>
      <trkpt lat="47.81979" lon="2.05543">
        <ele>98</ele>
        <time>2016-10-30T09:59:26.000Z</time>
      </trkpt>
      <trkpt lat="47.81976" lon="2.05548">
        <ele>98</ele>
        <time>2016-10-30T09:59:27.000Z</time>
      </trkpt>
      <trkpt lat="47.81973" lon="2.05553">
        <ele>98</ele>
        <time>2016-10-30T09:59:28.000Z</time>
      </trkpt>
      <trkpt lat="47.8197" lon="2.05558">
        <ele>98</ele>
        <time>2016-10-30T09:59:29.000Z</time>
      </trkpt>
      <trkpt lat="47.81967" lon="2.05563">
        <ele>98</ele>
        <time>2016-10-30T09:59:30.000Z</time>
      </trkpt>
      <trkpt lat="47.81964" lon="2.05568">
        <ele>98</ele>
        <time>2016-10-30T09:59:31.000Z</time>
      </trkpt>
      <trkpt lat="47.81961" lon="2.05574">
        <ele>98</ele>
        <time>2016-10-30T09:59:32.000Z</time>
      </trkpt>
      <trkpt lat="47.81958" lon="2.0558">
        <ele>98</ele>
        <time>2016-10-30T09:59:33.000Z</time>
      </trkpt>
      <trkpt lat="47.81955" lon="2.05586">
        <ele>98</ele>
        <time>2016-10-30T09:59:34.000Z</time>
      </trkpt>
      <trkpt lat="47.81952" lon="2.05591">
        <ele>98</ele>
        <time>2016-10-30T09:59:35.000Z</time>
      </trkpt>
      <trkpt lat="47.81949" lon="2.05597">
        <ele>98</ele>
        <time>2016-10-30T09:59:36.000Z</time>
      </trkpt>
      <trkpt lat="47.81946" lon="2.05603">
        <ele>98</ele>
        <time>2016-10-30T09:59:37.000Z</time>
      </trkpt>
      <trkpt lat="47.81943" lon="2.05609">
        <ele>98</ele>
        <time>2016-10-30T09:59:38.000Z</time>
      </trkpt>
      <trkpt lat="47.8194" lon="2.05615">
        <ele>98</ele>
        <time>2016-10-30T09:59:39.000Z</time>
      </trkpt>
      <trkpt lat="47.81936" lon="2.05622">
        <ele>98</ele>
        <time>2016-10-30T09:59:40.000Z</time>
      </trkpt>
      <trkpt lat="47.81933" lon="2.05629">
        <ele>99</ele>
        <time>2016-10-30T09:59:41.000Z</time>
      </trkpt>
      <trkpt lat="47.8193" lon="2.05635">
        <ele>99</ele>
        <time>2016-10-30T09:59:42.000Z</time>
      </trkpt>
      <trkpt lat="47.81926" lon="2.05642">
        <ele>99</ele>
        <time>2016-10-30T09:59:43.000Z</time>
      </trkpt>
      <trkpt lat="47.81922" lon="2.05648">
        <ele>98</ele>
        <time>2016-10-30T09:59:44.000Z</time>
      </trkpt>
      <trkpt lat="47.81919" lon="2.05655">
        <ele>99</ele>
        <time>2016-10-30T09:59:45.000Z</time>
      </trkpt>
      <trkpt lat="47.81915" lon="2.05662">
        <ele>99</ele>
        <time>2016-10-30T09:59:46.000Z</time>
      </trkpt>
      <trkpt lat="47.81912" lon="2.05669">
        <ele>99</ele>
        <time>2016-10-30T09:59:47.000Z</time>
      </trkpt>
      <trkpt lat="47.81908" lon="2.05676">
        <ele>99</ele>
        <time>2016-10-30T09:59:48.000Z</time>
      </trkpt>
      <trkpt lat="47.81904" lon="2.05683">
        <ele>99</ele>
        <time>2016-10-30T09:59:49.000Z</time>
      </trkpt>
      <trkpt lat="47.81901" lon="2.0569">
        <ele>99</ele>
        <time>2016-10-30T09:59:50.000Z</time>
      </trkpt>
      <trkpt lat="47.81897" lon="2.05696">
        <ele>99</ele>
        <time>2016-10-30T09:59:51.000Z</time>
      </trkpt>
      <trkpt lat="47.81894" lon="2.05703">
        <ele>99</ele>
        <time>2016-10-30T09:59:52.000Z</time>
      </trkpt>
      <trkpt lat="47.8189" lon="2.0571">
        <ele>98</ele>
        <time>2016-10-30T09:59:53.000Z</time>
      </trkpt>
      <trkpt lat="47.81887" lon="2.05716">
        <ele>98</ele>
        <time>2016-10-30T09:59:54.000Z</time>
      </trkpt>
      <trkpt lat="47.81884" lon="2.05723">
        <ele>98</ele>
        <time>2016-10-30T09:59:55.000Z</time>
      </trkpt>
      <trkpt lat="47.8188" lon="2.0573">
        <ele>99</ele>
        <time>2016-10-30T09:59:56.000Z</time>
      </trkpt>
      <trkpt lat="47.81877" lon="2.05736">
        <ele>99</ele>
        <time>2016-10-30T09:59:57.000Z</time>
      </trkpt>
      <trkpt lat="47.81874" lon="2.05742">
        <ele>99</ele>
        <time>2016-10-30T09:59:58.000Z</time>
      </trkpt>
      <trkpt lat="47.81869" lon="2.05746">
        <ele>99</ele>
        <time>2016-10-30T09:59:59.000Z</time>
      </trkpt>
      <trkpt lat="47.81865" lon="2.05748">
        <ele>99</ele>
        <time>2016-10-30T10:00:00.000Z</time>
      </trkpt>
      <trkpt lat="47.8186" lon="2.05748">
        <ele>99</ele>
        <time>2016-10-30T10:00:01.000Z</time>
      </trkpt>
      <trkpt lat="47.81854" lon="2.05747">
        <ele>99</ele>
        <time>2016-10-30T10:00:02.000Z</time>
      </trkpt>
      <trkpt lat="47.81849" lon="2.05745">
        <ele>99</ele>
        <time>2016-10-30T10:00:03.000Z</time>
      </trkpt>
      <trkpt lat="47.81843" lon="2.05743">
        <ele>99</ele>
        <time>2016-10-30T10:00:04.000Z</time>
      </trkpt>
      <trkpt lat="47.81838" lon="2.05741">
        <ele>99</ele>
        <time>2016-10-30T10:00:05.000Z</time>
      </trkpt>
      <trkpt lat="47.81832" lon="2.05739">
        <ele>99</ele>
        <time>2016-10-30T10:00:06.000Z</time>
      </trkpt>
      <trkpt lat="47.81826" lon="2.05737">
        <ele>99</ele>
        <time>2016-10-30T10:00:07.000Z</time>
      </trkpt>
      <trkpt lat="47.81821" lon="2.05735">
        <ele>99</ele>
        <time>2016-10-30T10:00:08.000Z</time>
      </trkpt>
      <trkpt lat="47.81815" lon="2.05733">
        <ele>99</ele>
        <time>2016-10-30T10:00:09.000Z</time>
      </trkpt>
      <trkpt lat="47.8181" lon="2.05732">
        <ele>99</ele>
        <time>2016-10-30T10:00:10.000Z</time>
      </trkpt>
      <trkpt lat="47.81805" lon="2.0573">
        <ele>99</ele>
        <time>2016-10-30T10:00:11.000Z</time>
      </trkpt>
      <trkpt lat="47.81799" lon="2.05728">
        <ele>99</ele>
        <time>2016-10-30T10:00:12.000Z</time>
      </trkpt>
      <trkpt lat="47.81793" lon="2.05727">
        <ele>99</ele>
        <time>2016-10-30T10:00:13.000Z</time>
      </trkpt>
      <trkpt lat="47.81788" lon="2.05725">
        <ele>99</ele>
        <time>2016-10-30T10:00:14.000Z</time>
      </trkpt>
      <trkpt lat="47.81783" lon="2.05723">
        <ele>99</ele>
        <time>2016-10-30T10:00:15.000Z</time>
      </trkpt>
      <trkpt lat="47.81777" lon="2.05721">
        <ele>99</ele>
        <time>2016-10-30T10:00:16.000Z</time>
      </trkpt>
      <trkpt lat="47.81772" lon="2.05719">
        <ele>99</ele>
        <time>2016-10-30T10:00:17.000Z</time>
      </trkpt>
      <trkpt lat="47.81766" lon="2.05717">
        <ele>99</ele>
        <time>2016-10-30T10:00:18.000Z</time>
      </trkpt>
      <trkpt lat="47.81761" lon="2.05715">
        <ele>99</ele>
        <time>2016-10-30T10:00:19.000Z</time>
      </trkpt>
      <trkpt lat="47.81755" lon="2.05714">
        <ele>98</ele>
        <time>2016-10-30T10:00:20.000Z</time>
      </trkpt>
      <trkpt lat="47.8175" lon="2.05712">
        <ele>98</ele>
        <time>2016-10-30T10:00:21.000Z</time>
      </trkpt>
      <trkpt lat="47.81744" lon="2.0571">
        <ele>98</ele>
        <time>2016-10-30T10:00:22.000Z</time>
      </trkpt>
      <trkpt lat="47.81739" lon="2.05708">
        <ele>98</ele>
        <time>2016-10-30T10:00:23.000Z</time>
      </trkpt>
      <trkpt lat="47.81734" lon="2.05706">
        <ele>98</ele>
        <time>2016-10-30T10:00:24.000Z</time>
      </trkpt>
      <trkpt lat="47.81729" lon="2.05705">
        <ele>98</ele>
        <time>2016-10-30T10:00:25.000Z</time>
      </trkpt>
      <trkpt lat="47.81724" lon="2.05706">
        <ele>98</ele>
        <time>2016-10-30T10:00:26.000Z</time>
      </trkpt>
      <trkpt lat="47.81719" lon="2.05709">
        <ele>98</ele>
        <time>2016-10-30T10:00:27.000Z</time>
      </trkpt>
      <trkpt lat="47.81716" lon="2.05713">
        <ele>98</ele>
        <time>2016-10-30T10:00:28.000Z</time>
      </trkpt>
      <trkpt lat="47.81714" lon="2.05719">
        <ele>98</ele>
        <time>2016-10-30T10:00:29.000Z</time>
      </trkpt>
      <trkpt lat="47.81712" lon="2.05726">
        <ele>98</ele>
        <time>2016-10-30T10:00:30.000Z</time>
      </trkpt>
      <trkpt lat="47.81711" lon="2.05734">
        <ele>98</ele>
        <time>2016-10-30T10:00:31.000Z</time>
      </trkpt>
      <trkpt lat="47.81709" lon="2.05742">
        <ele>98</ele>
        <time>2016-10-30T10:00:32.000Z</time>
      </trkpt>
      <trkpt lat="47.81708" lon="2.0575">
        <ele>98</ele>
        <time>2016-10-30T10:00:33.000Z</time>
      </trkpt>
      <trkpt lat="47.81707" lon="2.05758">
        <ele>98</ele>
        <time>2016-10-30T10:00:34.000Z</time>
      </trkpt>
      <trkpt lat="47.81706" lon="2.05766">
        <ele>98</ele>
        <time>2016-10-30T10:00:35.000Z</time>
      </trkpt>
      <trkpt lat="47.81705" lon="2.05774">
        <ele>99</ele>
        <time>2016-10-30T10:00:36.000Z</time>
      </trkpt>
      <trkpt lat="47.81704" lon="2.05782">
        <ele>99</ele>
        <time>2016-10-30T10:00:37.000Z</time>
      </trkpt>
      <trkpt lat="47.81703" lon="2.0579">
        <ele>98</ele>
        <time>2016-10-30T10:00:38.000Z</time>
      </trkpt>
      <trkpt lat="47.81702" lon="2.05798">
        <ele>98</ele>
        <time>2016-10-30T10:00:39.000Z</time>
      </trkpt>
      <trkpt lat="47.81701" lon="2.05805">
        <ele>98</ele>
        <time>2016-10-30T10:00:40.000Z</time>
      </trkpt>
      <trkpt lat="47.817" lon="2.05813">
        <ele>98</ele>
        <time>2016-10-30T10:00:41.000Z</time>
      </trkpt>
      <trkpt lat="47.81699" lon="2.05821">
        <ele>98</ele>
        <time>2016-10-30T10:00:42.000Z</time>
      </trkpt>
      <trkpt lat="47.81697" lon="2.05829">
        <ele>98</ele>
        <time>2016-10-30T10:00:43.000Z</time>
      </trkpt>
      <trkpt lat="47.81696" lon="2.05837">
        <ele>99</ele>
        <time>2016-10-30T10:00:44.000Z</time>
      </trkpt>
      <trkpt lat="47.81695" lon="2.05845">
        <ele>99</ele>
        <time>2016-10-30T10:00:45.000Z</time>
      </trkpt>
      <trkpt lat="47.81694" lon="2.05852">
        <ele>98</ele>
        <time>2016-10-30T10:00:46.000Z</time>
      </trkpt>
      <trkpt lat="47.81694" lon="2.05859">
        <ele>98</ele>
        <time>2016-10-30T10:00:47.000Z</time>
      </trkpt>
      <trkpt lat="47.81695" lon="2.05866">
        <ele>98</ele>
        <time>2016-10-30T10:00:48.000Z</time>
      </trkpt>
      <trkpt lat="47.81696" lon="2.05873">
        <ele>98</ele>
        <time>2016-10-30T10:00:49.000Z</time>
      </trkpt>
      <trkpt lat="47.81696" lon="2.05881">
        <ele>98</ele>
        <time>2016-10-30T10:00:50.000Z</time>
      </trkpt>
      <trkpt lat="47.81697" lon="2.05888">
        <ele>98</ele>
        <time>2016-10-30T10:00:51.000Z</time>
      </trkpt>
      <trkpt lat="47.81698" lon="2.05894">
        <ele>97</ele>
        <time>2016-10-30T10:00:52.000Z</time>
      </trkpt>
      <trkpt lat="47.81699" lon="2.05901">
        <ele>97</ele>
        <time>2016-10-30T10:00:53.000Z</time>
      </trkpt>
      <trkpt lat="47.81699" lon="2.05909">
        <ele>98</ele>
        <time>2016-10-30T10:00:54.000Z</time>
      </trkpt>
      <trkpt lat="47.817" lon="2.05917">
        <ele>98</ele>
        <time>2016-10-30T10:00:55.000Z</time>
      </trkpt>
      <trkpt lat="47.81702" lon="2.05925">
        <ele>99</ele>
        <time>2016-10-30T10:00:56.000Z</time>
      </trkpt>
      <trkpt lat="47.81703" lon="2.05934">
        <ele>99</ele>
        <time>2016-10-30T10:00:57.000Z</time>
      </trkpt>
      <trkpt lat="47.81704" lon="2.05941">
        <ele>99</ele>
        <time>2016-10-30T10:00:58.000Z</time>
      </trkpt>
      <trkpt lat="47.81705" lon="2.05949">
        <ele>100</ele>
        <time>2016-10-30T10:00:59.000Z</time>
      </trkpt>
      <trkpt lat="47.81706" lon="2.05957">
        <ele>100</ele>
        <time>2016-10-30T10:01:00.000Z</time>
      </trkpt>
      <trkpt lat="47.81706" lon="2.05965">
        <ele>100</ele>
        <time>2016-10-30T10:01:01.000Z</time>
      </trkpt>
      <trkpt lat="47.81707" lon="2.05973">
        <ele>101</ele>
        <time>2016-10-30T10:01:02.000Z</time>
      </trkpt>
      <trkpt lat="47.81708" lon="2.05982">
        <ele>100</ele>
        <time>2016-10-30T10:01:03.000Z</time>
      </trkpt>
      <trkpt lat="47.8171" lon="2.0599">
        <ele>99</ele>
        <time>2016-10-30T10:01:04.000Z</time>
      </trkpt>
      <trkpt lat="47.81711" lon="2.05999">
        <ele>99</ele>
        <time>2016-10-30T10:01:05.000Z</time>
      </trkpt>
      <trkpt lat="47.81712" lon="2.06007">
        <ele>99</ele>
        <time>2016-10-30T10:01:06.000Z</time>
      </trkpt>
      <trkpt lat="47.81713" lon="2.06016">
        <ele>98</ele>
        <time>2016-10-30T10:01:07.000Z</time>
      </trkpt>
      <trkpt lat="47.81713" lon="2.06024">
        <ele>98</ele>
        <time>2016-10-30T10:01:08.000Z</time>
      </trkpt>
      <trkpt lat="47.81714" lon="2.06031">
        <ele>97</ele>
        <time>2016-10-30T10:01:09.000Z</time>
      </trkpt>
      <trkpt lat="47.81714" lon="2.06039">
        <ele>97</ele>
        <time>2016-10-30T10:01:10.000Z</time>
      </trkpt>
      <trkpt lat="47.81715" lon="2.06047">
        <ele>97</ele>
        <time>2016-10-30T10:01:11.000Z</time>
      </trkpt>
      <trkpt lat="47.81716" lon="2.06055">
        <ele>97</ele>
        <time>2016-10-30T10:01:12.000Z</time>
      </trkpt>
      <trkpt lat="47.81718" lon="2.06064">
        <ele>96</ele>
        <time>2016-10-30T10:01:13.000Z</time>
      </trkpt>
      <trkpt lat="47.81719" lon="2.06073">
        <ele>96</ele>
        <time>2016-10-30T10:01:14.000Z</time>
      </trkpt>
      <trkpt lat="47.8172" lon="2.06081">
        <ele>95</ele>
        <time>2016-10-30T10:01:15.000Z</time>
      </trkpt>
      <trkpt lat="47.81721" lon="2.06089">
        <ele>95</ele>
        <time>2016-10-30T10:01:16.000Z</time>
      </trkpt>
      <trkpt lat="47.81721" lon="2.06097">
        <ele>94</ele>
        <time>2016-10-30T10:01:17.000Z</time>
      </trkpt>
      <trkpt lat="47.81722" lon="2.06105">
        <ele>94</ele>
        <time>2016-10-30T10:01:18.000Z</time>
      </trkpt>
      <trkpt lat="47.81723" lon="2.06113">
        <ele>94</ele>
        <time>2016-10-30T10:01:19.000Z</time>
      </trkpt>
      <trkpt lat="47.81725" lon="2.06122">
        <ele>94</ele>
        <time>2016-10-30T10:01:20.000Z</time>
      </trkpt>
      <trkpt lat="47.81726" lon="2.06131">
        <ele>93</ele>
        <time>2016-10-30T10:01:21.000Z</time>
      </trkpt>
      <trkpt lat="47.81728" lon="2.06141">
        <ele>93</ele>
        <time>2016-10-30T10:01:22.000Z</time>
      </trkpt>
      <trkpt lat="47.81729" lon="2.0615">
        <ele>93</ele>
        <time>2016-10-30T10:01:23.000Z</time>
      </trkpt>
      <trkpt lat="47.81731" lon="2.06159">
        <ele>94</ele>
        <time>2016-10-30T10:01:24.000Z</time>
      </trkpt>
      <trkpt lat="47.81733" lon="2.06168">
        <ele>94</ele>
        <time>2016-10-30T10:01:25.000Z</time>
      </trkpt>
      <trkpt lat="47.81735" lon="2.06178">
        <ele>95</ele>
        <time>2016-10-30T10:01:26.000Z</time>
      </trkpt>
      <trkpt lat="47.81738" lon="2.06187">
        <ele>96</ele>
        <time>2016-10-30T10:01:27.000Z</time>
      </trkpt>
      <trkpt lat="47.8174" lon="2.06196">
        <ele>97</ele>
        <time>2016-10-30T10:01:28.000Z</time>
      </trkpt>
      <trkpt lat="47.81741" lon="2.06205">
        <ele>98</ele>
        <time>2016-10-30T10:01:29.000Z</time>
      </trkpt>
      <trkpt lat="47.81741" lon="2.06213">
        <ele>98</ele>
        <time>2016-10-30T10:01:30.000Z</time>
      </trkpt>
      <trkpt lat="47.81741" lon="2.06221">
        <ele>98</ele>
        <time>2016-10-30T10:01:31.000Z</time>
      </trkpt>
      <trkpt lat="47.81739" lon="2.06228">
        <ele>99</ele>
        <time>2016-10-30T10:01:32.000Z</time>
      </trkpt>
      <trkpt lat="47.81737" lon="2.06235">
        <ele>99</ele>
        <time>2016-10-30T10:01:33.000Z</time>
      </trkpt>
      <trkpt lat="47.81735" lon="2.06241">
        <ele>99</ele>
        <time>2016-10-30T10:01:34.000Z</time>
      </trkpt>
      <trkpt lat="47.81732" lon="2.06247">
        <ele>99</ele>
        <time>2016-10-30T10:01:35.000Z</time>
      </trkpt>
      <trkpt lat="47.81729" lon="2.06253">
        <ele>99</ele>
        <time>2016-10-30T10:01:36.000Z</time>
      </trkpt>
      <trkpt lat="47.81726" lon="2.06258">
        <ele>99</ele>
        <time>2016-10-30T10:01:37.000Z</time>
      </trkpt>
      <trkpt lat="47.81723" lon="2.06263">
        <ele>99</ele>
        <time>2016-10-30T10:01:38.000Z</time>
      </trkpt>
      <trkpt lat="47.8172" lon="2.06268">
        <ele>99</ele>
        <time>2016-10-30T10:01:39.000Z</time>
      </trkpt>
      <trkpt lat="47.81717" lon="2.06274">
        <ele>99</ele>
        <time>2016-10-30T10:01:40.000Z</time>
      </trkpt>
      <trkpt lat="47.81714" lon="2.06279">
        <ele>99</ele>
        <time>2016-10-30T10:01:41.000Z</time>
      </trkpt>
      <trkpt lat="47.81711" lon="2.06284">
        <ele>99</ele>
        <time>2016-10-30T10:01:42.000Z</time>
      </trkpt>
      <trkpt lat="47.81707" lon="2.06288">
        <ele>100</ele>
        <time>2016-10-30T10:01:43.000Z</time>
      </trkpt>
      <trkpt lat="47.81704" lon="2.06293">
        <ele>100</ele>
        <time>2016-10-30T10:01:44.000Z</time>
      </trkpt>
      <trkpt lat="47.81701" lon="2.06298">
        <ele>100</ele>
        <time>2016-10-30T10:01:45.000Z</time>
      </trkpt>
      <trkpt lat="47.81698" lon="2.06303">
        <ele>100</ele>
        <time>2016-10-30T10:01:46.000Z</time>
      </trkpt>
      <trkpt lat="47.81695" lon="2.06309">
        <ele>100</ele>
        <time>2016-10-30T10:01:47.000Z</time>
      </trkpt>
      <trkpt lat="47.81692" lon="2.06314">
        <ele>100</ele>
        <time>2016-10-30T10:01:48.000Z</time>
      </trkpt>
      <trkpt lat="47.81688" lon="2.06319">
        <ele>100</ele>
        <time>2016-10-30T10:01:49.000Z</time>
      </trkpt>
      <trkpt lat="47.81685" lon="2.06324">
        <ele>100</ele>
        <time>2016-10-30T10:01:50.000Z</time>
      </trkpt>
      <trkpt lat="47.81681" lon="2.06329">
        <ele>100</ele>
        <time>2016-10-30T10:01:51.000Z</time>
      </trkpt>
      <trkpt lat="47.81677" lon="2.06334">
        <ele>100</ele>
        <time>2016-10-30T10:01:52.000Z</time>
      </trkpt>
      <trkpt lat="47.81674" lon="2.06339">
        <ele>100</ele>
        <time>2016-10-30T10:01:53.000Z</time>
      </trkpt>
      <trkpt lat="47.8167" lon="2.06344">
        <ele>100</ele>
        <time>2016-10-30T10:01:54.000Z</time>
      </trkpt>
      <trkpt lat="47.81667" lon="2.0635">
        <ele>100</ele>
        <time>2016-10-30T10:01:55.000Z</time>
      </trkpt>
      <trkpt lat="47.81664" lon="2.06355">
        <ele>100</ele>
        <time>2016-10-30T10:01:56.000Z</time>
      </trkpt>
      <trkpt lat="47.8166" lon="2.06361">
        <ele>100</ele>
        <time>2016-10-30T10:01:57.000Z</time>
      </trkpt>
      <trkpt lat="47.81657" lon="2.06366">
        <ele>100</ele>
        <time>2016-10-30T10:01:58.000Z</time>
      </trkpt>
      <trkpt lat="47.81654" lon="2.06371">
        <ele>100</ele>
        <time>2016-10-30T10:01:59.000Z</time>
      </trkpt>
      <trkpt lat="47.8165" lon="2.06376">
        <ele>100</ele>
        <time>2016-10-30T10:02:00.000Z</time>
      </trkpt>
      <trkpt lat="47.81647" lon="2.06382">
        <ele>100</ele>
        <time>2016-10-30T10:02:01.000Z</time>
      </trkpt>
      <trkpt lat="47.81644" lon="2.06387">
        <ele>100</ele>
        <time>2016-10-30T10:02:02.000Z</time>
      </trkpt>
      <trkpt lat="47.8164" lon="2.06392">
        <ele>100</ele>
        <time>2016-10-30T10:02:03.000Z</time>
      </trkpt>
      <trkpt lat="47.81637" lon="2.06397">
        <ele>100</ele>
        <time>2016-10-30T10:02:04.000Z</time>
      </trkpt>
      <trkpt lat="47.81634" lon="2.06402">
        <ele>100</ele>
        <time>2016-10-30T10:02:05.000Z</time>
      </trkpt>
      <trkpt lat="47.81631" lon="2.06408">
        <ele>100</ele>
        <time>2016-10-30T10:02:06.000Z</time>
      </trkpt>
      <trkpt lat="47.81627" lon="2.06413">
        <ele>100</ele>
        <time>2016-10-30T10:02:07.000Z</time>
      </trkpt>
      <trkpt lat="47.81624" lon="2.06418">
        <ele>100</ele>
        <time>2016-10-30T10:02:08.000Z</time>
      </trkpt>
      <trkpt lat="47.81621" lon="2.06424">
        <ele>100</ele>
        <time>2016-10-30T10:02:09.000Z</time>
      </trkpt>
      <trkpt lat="47.81618" lon="2.06429">
        <ele>100</ele>
        <time>2016-10-30T10:02:10.000Z</time>
      </trkpt>
      <trkpt lat="47.81615" lon="2.06434">
        <ele>100</ele>
        <time>2016-10-30T10:02:11.000Z</time>
      </trkpt>
      <trkpt lat="47.81612" lon="2.06439">
        <ele>100</ele>
        <time>2016-10-30T10:02:12.000Z</time>
      </trkpt>
      <trkpt lat="47.81608" lon="2.06444">
        <ele>100</ele>
        <time>2016-10-30T10:02:13.000Z</time>
      </trkpt>
      <trkpt lat="47.81605" lon="2.06449">
        <ele>100</ele>
        <time>2016-10-30T10:02:14.000Z</time>
      </trkpt>
      <trkpt lat="47.81603" lon="2.06453">
        <ele>100</ele>
        <time>2016-10-30T10:02:15.000Z</time>
      </trkpt>
      <trkpt lat="47.816" lon="2.06457">
        <ele>100</ele>
        <time>2016-10-30T10:02:16.000Z</time>
      </trkpt>
      <trkpt lat="47.81597" lon="2.06462">
        <ele>100</ele>
        <time>2016-10-30T10:02:17.000Z</time>
      </trkpt>
      <trkpt lat="47.81594" lon="2.06466">
        <ele>100</ele>
        <time>2016-10-30T10:02:18.000Z</time>
      </trkpt>
      <trkpt lat="47.81592" lon="2.0647">
        <ele>100</ele>
        <time>2016-10-30T10:02:19.000Z</time>
      </trkpt>
      <trkpt lat="47.81589" lon="2.06475">
        <ele>100</ele>
        <time>2016-10-30T10:02:20.000Z</time>
      </trkpt>
      <trkpt lat="47.81586" lon="2.06479">
        <ele>100</ele>
        <time>2016-10-30T10:02:21.000Z</time>
      </trkpt>
      <trkpt lat="47.81583" lon="2.06484">
        <ele>100</ele>
        <time>2016-10-30T10:02:22.000Z</time>
      </trkpt>
      <trkpt lat="47.8158" lon="2.06489">
        <ele>100</ele>
        <time>2016-10-30T10:02:23.000Z</time>
      </trkpt>
      <trkpt lat="47.81577" lon="2.06494">
        <ele>100</ele>
        <time>2016-10-30T10:02:24.000Z</time>
      </trkpt>
      <trkpt lat="47.81574" lon="2.06499">
        <ele>100</ele>
        <time>2016-10-30T10:02:25.000Z</time>
      </trkpt>
      <trkpt lat="47.81571" lon="2.06504">
        <ele>100</ele>
        <time>2016-10-30T10:02:26.000Z</time>
      </trkpt>
      <trkpt lat="47.81568" lon="2.06509">
        <ele>100</ele>
        <time>2016-10-30T10:02:27.000Z</time>
      </trkpt>
      <trkpt lat="47.81565" lon="2.06514">
        <ele>100</ele>
        <time>2016-10-30T10:02:28.000Z</time>
      </trkpt>
      <trkpt lat="47.81562" lon="2.06519">
        <ele>100</ele>
        <time>2016-10-30T10:02:29.000Z</time>
      </trkpt>
      <trkpt lat="47.81558" lon="2.06524">
        <ele>100</ele>
        <time>2016-10-30T10:02:30.000Z</time>
      </trkpt>
      <trkpt lat="47.81555" lon="2.06529">
        <ele>100</ele>
        <time>2016-10-30T10:02:31.000Z</time>
      </trkpt>
      <trkpt lat="47.81552" lon="2.06533">
        <ele>100</ele>
        <time>2016-10-30T10:02:32.000Z</time>
      </trkpt>
      <trkpt lat="47.81549" lon="2.06538">
        <ele>100</ele>
        <time>2016-10-30T10:02:33.000Z</time>
      </trkpt>
      <trkpt lat="47.81546" lon="2.06543">
        <ele>100</ele>
        <time>2016-10-30T10:02:34.000Z</time>
      </trkpt>
      <trkpt lat="47.81543" lon="2.06548">
        <ele>100</ele>
        <time>2016-10-30T10:02:35.000Z</time>
      </trkpt>
      <trkpt lat="47.8154" lon="2.06553">
        <ele>100</ele>
        <time>2016-10-30T10:02:36.000Z</time>
      </trkpt>
      <trkpt lat="47.81537" lon="2.06558">
        <ele>100</ele>
        <time>2016-10-30T10:02:37.000Z</time>
      </trkpt>
      <trkpt lat="47.81534" lon="2.06563">
        <ele>100</ele>
        <time>2016-10-30T10:02:38.000Z</time>
      </trkpt>
      <trkpt lat="47.81531" lon="2.06568">
        <ele>100</ele>
        <time>2016-10-30T10:02:39.000Z</time>
      </trkpt>
      <trkpt lat="47.81528" lon="2.06573">
        <ele>100</ele>
        <time>2016-10-30T10:02:40.000Z</time>
      </trkpt>
      <trkpt lat="47.81525" lon="2.06578">
        <ele>100</ele>
        <time>2016-10-30T10:02:41.000Z</time>
      </trkpt>
      <trkpt lat="47.81522" lon="2.06582">
        <ele>100</ele>
        <time>2016-10-30T10:02:42.000Z</time>
      </trkpt>
      <trkpt lat="47.81519" lon="2.06588">
        <ele>100</ele>
        <time>2016-10-30T10:02:43.000Z</time>
      </trkpt>
      <trkpt lat="47.81515" lon="2.06593">
        <ele>100</ele>
        <time>2016-10-30T10:02:44.000Z</time>
      </trkpt>
      <trkpt lat="47.81512" lon="2.06598">
        <ele>100</ele>
        <time>2016-10-30T10:02:45.000Z</time>
      </trkpt>
      <trkpt lat="47.81509" lon="2.06602">
        <ele>100</ele>
        <time>2016-10-30T10:02:46.000Z</time>
      </trkpt>
      <trkpt lat="47.81506" lon="2.06607">
        <ele>100</ele>
        <time>2016-10-30T10:02:47.000Z</time>
      </trkpt>
      <trkpt lat="47.81503" lon="2.06612">
        <ele>100</ele>
        <time>2016-10-30T10:02:48.000Z</time>
      </trkpt>
      <trkpt lat="47.815" lon="2.06617">
        <ele>99</ele>
        <time>2016-10-30T10:02:49.000Z</time>
      </trkpt>
      <trkpt lat="47.81496" lon="2.06621">
        <ele>99</ele>
        <time>2016-10-30T10:02:50.000Z</time>
      </trkpt>
      <trkpt lat="47.81493" lon="2.06626">
        <ele>99</ele>
        <time>2016-10-30T10:02:51.000Z</time>
      </trkpt>
      <trkpt lat="47.8149" lon="2.06631">
        <ele>99</ele>
        <time>2016-10-30T10:02:52.000Z</time>
      </trkpt>
      <trkpt lat="47.81487" lon="2.06635">
        <ele>99</ele>
        <time>2016-10-30T10:02:53.000Z</time>
      </trkpt>
      <trkpt lat="47.81484" lon="2.0664">
        <ele>99</ele>
        <time>2016-10-30T10:02:54.000Z</time>
      </trkpt>
      <trkpt lat="47.8148" lon="2.06644">
        <ele>99</ele>
        <time>2016-10-30T10:02:55.000Z</time>
      </trkpt>
      <trkpt lat="47.81477" lon="2.06649">
        <ele>99</ele>
        <time>2016-10-30T10:02:56.000Z</time>
      </trkpt>
      <trkpt lat="47.81473" lon="2.06653">
        <ele>99</ele>
        <time>2016-10-30T10:02:57.000Z</time>
      </trkpt>
      <trkpt lat="47.8147" lon="2.06657">
        <ele>99</ele>
        <time>2016-10-30T10:02:58.000Z</time>
      </trkpt>
      <trkpt lat="47.81466" lon="2.06661">
        <ele>99</ele>
        <time>2016-10-30T10:02:59.000Z</time>
      </trkpt>
      <trkpt lat="47.81463" lon="2.06665">
        <ele>99</ele>
        <time>2016-10-30T10:03:00.000Z</time>
      </trkpt>
      <trkpt lat="47.81459" lon="2.0667">
        <ele>99</ele>
        <time>2016-10-30T10:03:01.000Z</time>
      </trkpt>
      <trkpt lat="47.81455" lon="2.06674">
        <ele>99</ele>
        <time>2016-10-30T10:03:02.000Z</time>
      </trkpt>
      <trkpt lat="47.81452" lon="2.06678">
        <ele>99</ele>
        <time>2016-10-30T10:03:03.000Z</time>
      </trkpt>
      <trkpt lat="47.81448" lon="2.06683">
        <ele>99</ele>
        <time>2016-10-30T10:03:04.000Z</time>
      </trkpt>
      <trkpt lat="47.81445" lon="2.06688">
        <ele>99</ele>
        <time>2016-10-30T10:03:05.000Z</time>
      </trkpt>
      <trkpt lat="47.81441" lon="2.06693">
        <ele>99</ele>
        <time>2016-10-30T10:03:06.000Z</time>
      </trkpt>
      <trkpt lat="47.81438" lon="2.06698">
        <ele>99</ele>
        <time>2016-10-30T10:03:07.000Z</time>
      </trkpt>
      <trkpt lat="47.81435" lon="2.06703">
        <ele>99</ele>
        <time>2016-10-30T10:03:08.000Z</time>
      </trkpt>
      <trkpt lat="47.81432" lon="2.06708">
        <ele>99</ele>
        <time>2016-10-30T10:03:09.000Z</time>
      </trkpt>
      <trkpt lat="47.81429" lon="2.06713">
        <ele>99</ele>
        <time>2016-10-30T10:03:10.000Z</time>
      </trkpt>
      <trkpt lat="47.81426" lon="2.06718">
        <ele>99</ele>
        <time>2016-10-30T10:03:11.000Z</time>
      </trkpt>
      <trkpt lat="47.81423" lon="2.06724">
        <ele>99</ele>
        <time>2016-10-30T10:03:12.000Z</time>
      </trkpt>
      <trkpt lat="47.81421" lon="2.06729">
        <ele>99</ele>
        <time>2016-10-30T10:03:13.000Z</time>
      </trkpt>
      <trkpt lat="47.81418" lon="2.06735">
        <ele>99</ele>
        <time>2016-10-30T10:03:14.000Z</time>
      </trkpt>
      <trkpt lat="47.81416" lon="2.06741">
        <ele>99</ele>
        <time>2016-10-30T10:03:15.000Z</time>
      </trkpt>
      <trkpt lat="47.81414" lon="2.06746">
        <ele>99</ele>
        <time>2016-10-30T10:03:16.000Z</time>
      </trkpt>
      <trkpt lat="47.81412" lon="2.06752">
        <ele>99</ele>
        <time>2016-10-30T10:03:17.000Z</time>
      </trkpt>
      <trkpt lat="47.81409" lon="2.06758">
        <ele>99</ele>
        <time>2016-10-30T10:03:18.000Z</time>
      </trkpt>
      <trkpt lat="47.81407" lon="2.06764">
        <ele>99</ele>
        <time>2016-10-30T10:03:19.000Z</time>
      </trkpt>
      <trkpt lat="47.81405" lon="2.0677">
        <ele>99</ele>
        <time>2016-10-30T10:03:20.000Z</time>
      </trkpt>
      <trkpt lat="47.81403" lon="2.06776">
        <ele>99</ele>
        <time>2016-10-30T10:03:21.000Z</time>
      </trkpt>
      <trkpt lat="47.81401" lon="2.06783">
        <ele>99</ele>
        <time>2016-10-30T10:03:22.000Z</time>
      </trkpt>
      <trkpt lat="47.814" lon="2.06789">
        <ele>99</ele>
        <time>2016-10-30T10:03:23.000Z</time>
      </trkpt>
      <trkpt lat="47.81398" lon="2.06795">
        <ele>99</ele>
        <time>2016-10-30T10:03:24.000Z</time>
      </trkpt>
      <trkpt lat="47.81396" lon="2.06801">
        <ele>99</ele>
        <time>2016-10-30T10:03:25.000Z</time>
      </trkpt>
      <trkpt lat="47.81395" lon="2.06808">
        <ele>99</ele>
        <time>2016-10-30T10:03:26.000Z</time>
      </trkpt>
      <trkpt lat="47.81393" lon="2.06813">
        <ele>99</ele>
        <time>2016-10-30T10:03:27.000Z</time>
      </trkpt>
      <trkpt lat="47.81391" lon="2.06819">
        <ele>99</ele>
        <time>2016-10-30T10:03:28.000Z</time>
      </trkpt>
      <trkpt lat="47.81389" lon="2.06825">
        <ele>99</ele>
        <time>2016-10-30T10:03:29.000Z</time>
      </trkpt>
      <trkpt lat="47.81387" lon="2.06831">
        <ele>99</ele>
        <time>2016-10-30T10:03:30.000Z</time>
      </trkpt>
      <trkpt lat="47.81386" lon="2.06836">
        <ele>100</ele>
        <time>2016-10-30T10:03:31.000Z</time>
      </trkpt>
      <trkpt lat="47.81384" lon="2.06842">
        <ele>100</ele>
        <time>2016-10-30T10:03:32.000Z</time>
      </trkpt>
      <trkpt lat="47.81382" lon="2.06848">
        <ele>100</ele>
        <time>2016-10-30T10:03:33.000Z</time>
      </trkpt>
      <trkpt lat="47.8138" lon="2.06853">
        <ele>100</ele>
        <time>2016-10-30T10:03:34.000Z</time>
      </trkpt>
      <trkpt lat="47.81378" lon="2.06859">
        <ele>100</ele>
        <time>2016-10-30T10:03:35.000Z</time>
      </trkpt>
      <trkpt lat="47.81377" lon="2.06865">
        <ele>100</ele>
        <time>2016-10-30T10:03:36.000Z</time>
      </trkpt>
      <trkpt lat="47.81375" lon="2.06871">
        <ele>99</ele>
        <time>2016-10-30T10:03:37.000Z</time>
      </trkpt>
      <trkpt lat="47.81373" lon="2.06877">
        <ele>99</ele>
        <time>2016-10-30T10:03:38.000Z</time>
      </trkpt>
      <trkpt lat="47.81371" lon="2.06882">
        <ele>99</ele>
        <time>2016-10-30T10:03:39.000Z</time>
      </trkpt>
      <trkpt lat="47.8137" lon="2.06888">
        <ele>100</ele>
        <time>2016-10-30T10:03:40.000Z</time>
      </trkpt>
      <trkpt lat="47.81368" lon="2.06893">
        <ele>100</ele>
        <time>2016-10-30T10:03:41.000Z</time>
      </trkpt>
      <trkpt lat="47.81366" lon="2.06899">
        <ele>100</ele>
        <time>2016-10-30T10:03:42.000Z</time>
      </trkpt>
      <trkpt lat="47.81364" lon="2.06904">
        <ele>100</ele>
        <time>2016-10-30T10:03:43.000Z</time>
      </trkpt>
      <trkpt lat="47.81362" lon="2.0691">
        <ele>100</ele>
        <time>2016-10-30T10:03:44.000Z</time>
      </trkpt>
      <trkpt lat="47.8136" lon="2.06916">
        <ele>100</ele>
        <time>2016-10-30T10:03:45.000Z</time>
      </trkpt>
      <trkpt lat="47.81359" lon="2.06922">
        <ele>100</ele>
        <time>2016-10-30T10:03:46.000Z</time>
      </trkpt>
      <trkpt lat="47.81357" lon="2.06928">
        <ele>100</ele>
        <time>2016-10-30T10:03:47.000Z</time>
      </trkpt>
      <trkpt lat="47.81355" lon="2.06934">
        <ele>100</ele>
        <time>2016-10-30T10:03:48.000Z</time>
      </trkpt>
      <trkpt lat="47.81353" lon="2.0694">
        <ele>100</ele>
        <time>2016-10-30T10:03:49.000Z</time>
      </trkpt>
      <trkpt lat="47.81351" lon="2.06946">
        <ele>100</ele>
        <time>2016-10-30T10:03:50.000Z</time>
      </trkpt>
      <trkpt lat="47.81349" lon="2.06953">
        <ele>100</ele>
        <time>2016-10-30T10:03:51.000Z</time>
      </trkpt>
      <trkpt lat="47.81348" lon="2.06959">
        <ele>100</ele>
        <time>2016-10-30T10:03:52.000Z</time>
      </trkpt>
      <trkpt lat="47.81346" lon="2.06965">
        <ele>100</ele>
        <time>2016-10-30T10:03:53.000Z</time>
      </trkpt>
      <trkpt lat="47.81344" lon="2.06971">
        <ele>100</ele>
        <time>2016-10-30T10:03:54.000Z</time>
      </trkpt>
      <trkpt lat="47.81342" lon="2.06978">
        <ele>100</ele>
        <time>2016-10-30T10:03:55.000Z</time>
      </trkpt>
      <trkpt lat="47.8134" lon="2.06984">
        <ele>100</ele>
        <time>2016-10-30T10:03:56.000Z</time>
      </trkpt>
      <trkpt lat="47.81337" lon="2.0699">
        <ele>100</ele>
        <time>2016-10-30T10:03:57.000Z</time>
      </trkpt>
      <trkpt lat="47.81336" lon="2.06997">
        <ele>100</ele>
        <time>2016-10-30T10:03:58.000Z</time>
      </trkpt>
      <trkpt lat="47.81334" lon="2.07002">
        <ele>100</ele>
        <time>2016-10-30T10:03:59.000Z</time>
      </trkpt>
      <trkpt lat="47.81332" lon="2.07008">
        <ele>100</ele>
        <time>2016-10-30T10:04:00.000Z</time>
      </trkpt>
      <trkpt lat="47.8133" lon="2.07013">
        <ele>100</ele>
        <time>2016-10-30T10:04:01.000Z</time>
      </trkpt>
      <trkpt lat="47.81329" lon="2.07018">
        <ele>100</ele>
        <time>2016-10-30T10:04:02.000Z</time>
      </trkpt>
      <trkpt lat="47.81327" lon="2.07023">
        <ele>100</ele>
        <time>2016-10-30T10:04:03.000Z</time>
      </trkpt>
      <trkpt lat="47.81326" lon="2.07029">
        <ele>100</ele>
        <time>2016-10-30T10:04:04.000Z</time>
      </trkpt>
      <trkpt lat="47.81324" lon="2.07036">
        <ele>100</ele>
        <time>2016-10-30T10:04:05.000Z</time>
      </trkpt>
      <trkpt lat="47.81322" lon="2.07042">
        <ele>100</ele>
        <time>2016-10-30T10:04:06.000Z</time>
      </trkpt>
      <trkpt lat="47.81321" lon="2.07048">
        <ele>100</ele>
        <time>2016-10-30T10:04:07.000Z</time>
      </trkpt>
      <trkpt lat="47.81319" lon="2.07053">
        <ele>100</ele>
        <time>2016-10-30T10:04:08.000Z</time>
      </trkpt>
      <trkpt lat="47.81317" lon="2.07059">
        <ele>100</ele>
        <time>2016-10-30T10:04:09.000Z</time>
      </trkpt>
      <trkpt lat="47.81316" lon="2.07065">
        <ele>100</ele>
        <time>2016-10-30T10:04:10.000Z</time>
      </trkpt>
      <trkpt lat="47.81314" lon="2.0707">
        <ele>100</ele>
        <time>2016-10-30T10:04:11.000Z</time>
      </trkpt>
      <trkpt lat="47.81312" lon="2.07076">
        <ele>100</ele>
        <time>2016-10-30T10:04:12.000Z</time>
      </trkpt>
      <trkpt lat="47.8131" lon="2.07081">
        <ele>100</ele>
        <time>2016-10-30T10:04:13.000Z</time>
      </trkpt>
      <trkpt lat="47.81308" lon="2.07087">
        <ele>100</ele>
        <time>2016-10-30T10:04:14.000Z</time>
      </trkpt>
      <trkpt lat="47.81306" lon="2.07092">
        <ele>100</ele>
        <time>2016-10-30T10:04:15.000Z</time>
      </trkpt>
      <trkpt lat="47.81304" lon="2.07098">
        <ele>100</ele>
        <time>2016-10-30T10:04:16.000Z</time>
      </trkpt>
      <trkpt lat="47.81303" lon="2.07104">
        <ele>100</ele>
        <time>2016-10-30T10:04:17.000Z</time>
      </trkpt>
      <trkpt lat="47.81301" lon="2.0711">
        <ele>100</ele>
        <time>2016-10-30T10:04:18.000Z</time>
      </trkpt>
      <trkpt lat="47.81299" lon="2.07116">
        <ele>100</ele>
        <time>2016-10-30T10:04:19.000Z</time>
      </trkpt>
      <trkpt lat="47.81297" lon="2.07122">
        <ele>100</ele>
        <time>2016-10-30T10:04:20.000Z</time>
      </trkpt>
      <trkpt lat="47.81295" lon="2.07128">
        <ele>100</ele>
        <time>2016-10-30T10:04:21.000Z</time>
      </trkpt>
      <trkpt lat="47.81293" lon="2.07134">
        <ele>100</ele>
        <time>2016-10-30T10:04:22.000Z</time>
      </trkpt>
      <trkpt lat="47.81291" lon="2.0714">
        <ele>100</ele>
        <time>2016-10-30T10:04:23.000Z</time>
      </trkpt>
      <trkpt lat="47.81289" lon="2.07147">
        <ele>100</ele>
        <time>2016-10-30T10:04:24.000Z</time>
      </trkpt>
      <trkpt lat="47.81288" lon="2.07153">
        <ele>100</ele>
        <time>2016-10-30T10:04:25.000Z</time>
      </trkpt>
      <trkpt lat="47.81286" lon="2.07159">
        <ele>100</ele>
        <time>2016-10-30T10:04:26.000Z</time>
      </trkpt>
      <trkpt lat="47.81284" lon="2.07164">
        <ele>100</ele>
        <time>2016-10-30T10:04:27.000Z</time>
      </trkpt>
      <trkpt lat="47.81282" lon="2.07169">
        <ele>100</ele>
        <time>2016-10-30T10:04:28.000Z</time>
      </trkpt>
      <trkpt lat="47.8128" lon="2.07174">
        <ele>100</ele>
        <time>2016-10-30T10:04:29.000Z</time>
      </trkpt>
      <trkpt lat="47.81279" lon="2.07179">
        <ele>101</ele>
        <time>2016-10-30T10:04:30.000Z</time>
      </trkpt>
      <trkpt lat="47.81278" lon="2.07183">
        <ele>101</ele>
        <time>2016-10-30T10:04:31.000Z</time>
      </trkpt>
      <trkpt lat="47.81279" lon="2.07188">
        <ele>101</ele>
        <time>2016-10-30T10:04:32.000Z</time>
      </trkpt>
      <trkpt lat="47.8128" lon="2.07191">
        <ele>101</ele>
        <time>2016-10-30T10:04:33.000Z</time>
      </trkpt>
      <trkpt lat="47.81282" lon="2.07194">
        <ele>101</ele>
        <time>2016-10-30T10:04:34.000Z</time>
      </trkpt>
      <trkpt lat="47.81285" lon="2.07197">
        <ele>101</ele>
        <time>2016-10-30T10:04:35.000Z</time>
      </trkpt>
      <trkpt lat="47.81289" lon="2.07198">
        <ele>101</ele>
        <time>2016-10-30T10:04:36.000Z</time>
      </trkpt>
      <trkpt lat="47.81293" lon="2.07199">
        <ele>101</ele>
        <time>2016-10-30T10:04:37.000Z</time>
      </trkpt>
      <trkpt lat="47.81297" lon="2.072">
        <ele>101</ele>
        <time>2016-10-30T10:04:38.000Z</time>
      </trkpt>
      <trkpt lat="47.81301" lon="2.07201">
        <ele>101</ele>
        <time>2016-10-30T10:04:39.000Z</time>
      </trkpt>
      <trkpt lat="47.81305" lon="2.07202">
        <ele>101</ele>
        <time>2016-10-30T10:04:40.000Z</time>
      </trkpt>
      <trkpt lat="47.8131" lon="2.07203">
        <ele>100</ele>
        <time>2016-10-30T10:04:41.000Z</time>
      </trkpt>
      <trkpt lat="47.81314" lon="2.07204">
        <ele>100</ele>
        <time>2016-10-30T10:04:42.000Z</time>
      </trkpt>
      <trkpt lat="47.81319" lon="2.07205">
        <ele>100</ele>
        <time>2016-10-30T10:04:43.000Z</time>
      </trkpt>
      <trkpt lat="47.81323" lon="2.07206">
        <ele>100</ele>
        <time>2016-10-30T10:04:44.000Z</time>
      </trkpt>
      <trkpt lat="47.81328" lon="2.07207">
        <ele>100</ele>
        <time>2016-10-30T10:04:45.000Z</time>
      </trkpt>
      <trkpt lat="47.81333" lon="2.07209">
        <ele>100</ele>
        <time>2016-10-30T10:04:46.000Z</time>
      </trkpt>
      <trkpt lat="47.81338" lon="2.0721">
        <ele>100</ele>
        <time>2016-10-30T10:04:47.000Z</time>
      </trkpt>
      <trkpt lat="47.81342" lon="2.07211">
        <ele>100</ele>
        <time>2016-10-30T10:04:48.000Z</time>
      </trkpt>
      <trkpt lat="47.81347" lon="2.07212">
        <ele>100</ele>
        <time>2016-10-30T10:04:49.000Z</time>
      </trkpt>
      <trkpt lat="47.81351" lon="2.07213">
        <ele>100</ele>
        <time>2016-10-30T10:04:50.000Z</time>
      </trkpt>
      <trkpt lat="47.81356" lon="2.07214">
        <ele>100</ele>
        <time>2016-10-30T10:04:51.000Z</time>
      </trkpt>
      <trkpt lat="47.81361" lon="2.07216">
        <ele>100</ele>
        <time>2016-10-30T10:04:52.000Z</time>
      </trkpt>
      <trkpt lat="47.81365" lon="2.07217">
        <ele>100</ele>
        <time>2016-10-30T10:04:53.000Z</time>
      </trkpt>
      <trkpt lat="47.8137" lon="2.07218">
        <ele>99</ele>
        <time>2016-10-30T10:04:54.000Z</time>
      </trkpt>
      <trkpt lat="47.81375" lon="2.07219">
        <ele>100</ele>
        <time>2016-10-30T10:04:55.000Z</time>
      </trkpt>
      <trkpt lat="47.8138" lon="2.0722">
        <ele>99</ele>
        <time>2016-10-30T10:04:56.000Z</time>
      </trkpt>
      <trkpt lat="47.81384" lon="2.07222">
        <ele>99</ele>
        <time>2016-10-30T10:04:57.000Z</time>
      </trkpt>
      <trkpt lat="47.81389" lon="2.07223">
        <ele>99</ele>
        <time>2016-10-30T10:04:58.000Z</time>
      </trkpt>
      <trkpt lat="47.81394" lon="2.07225">
        <ele>99</ele>
        <time>2016-10-30T10:04:59.000Z</time>
      </trkpt>
      <trkpt lat="47.81399" lon="2.07226">
        <ele>100</ele>
        <time>2016-10-30T10:05:00.000Z</time>
      </trkpt>
      <trkpt lat="47.81404" lon="2.07227">
        <ele>100</ele>
        <time>2016-10-30T10:05:01.000Z</time>
      </trkpt>
      <trkpt lat="47.81408" lon="2.07228">
        <ele>100</ele>
        <time>2016-10-30T10:05:02.000Z</time>
      </trkpt>
      <trkpt lat="47.81413" lon="2.07229">
        <ele>100</ele>
        <time>2016-10-30T10:05:03.000Z</time>
      </trkpt>
      <trkpt lat="47.81418" lon="2.0723">
        <ele>99</ele>
        <time>2016-10-30T10:05:04.000Z</time>
      </trkpt>
      <trkpt lat="47.81423" lon="2.07231">
        <ele>99</ele>
        <time>2016-10-30T10:05:05.000Z</time>
      </trkpt>
      <trkpt lat="47.81428" lon="2.07232">
        <ele>100</ele>
        <time>2016-10-30T10:05:06.000Z</time>
      </trkpt>
      <trkpt lat="47.81433" lon="2.07233">
        <ele>100</ele>
        <time>2016-10-30T10:05:07.000Z</time>
      </trkpt>
      <trkpt lat="47.81438" lon="2.07234">
        <ele>100</ele>
        <time>2016-10-30T10:05:08.000Z</time>
      </trkpt>
      <trkpt lat="47.81442" lon="2.07236">
        <ele>99</ele>
        <time>2016-10-30T10:05:09.000Z</time>
      </trkpt>
      <trkpt lat="47.81447" lon="2.07237">
        <ele>99</ele>
        <time>2016-10-30T10:05:10.000Z</time>
      </trkpt>
      <trkpt lat="47.81452" lon="2.07238">
        <ele>99</ele>
        <time>2016-10-30T10:05:11.000Z</time>
      </trkpt>
      <trkpt lat="47.81457" lon="2.07239">
        <ele>99</ele>
        <time>2016-10-30T10:05:12.000Z</time>
      </trkpt>
      <trkpt lat="47.81461" lon="2.0724">
        <ele>99</ele>
        <time>2016-10-30T10:05:13.000Z</time>
      </trkpt>
      <trkpt lat="47.81466" lon="2.07241">
        <ele>99</ele>
        <time>2016-10-30T10:05:14.000Z</time>
      </trkpt>
      <trkpt lat="47.8147" lon="2.07242">
        <ele>99</ele>
        <time>2016-10-30T10:05:15.000Z</time>
      </trkpt>
      <trkpt lat="47.81475" lon="2.07244">
        <ele>99</ele>
        <time>2016-10-30T10:05:16.000Z</time>
      </trkpt>
      <trkpt lat="47.8148" lon="2.07245">
        <ele>99</ele>
        <time>2016-10-30T10:05:17.000Z</time>
      </trkpt>
      <trkpt lat="47.81484" lon="2.07247">
        <ele>99</ele>
        <time>2016-10-30T10:05:18.000Z</time>
      </trkpt>
      <trkpt lat="47.81489" lon="2.07248">
        <ele>99</ele>
        <time>2016-10-30T10:05:19.000Z</time>
      </trkpt>
      <trkpt lat="47.81494" lon="2.0725">
        <ele>99</ele>
        <time>2016-10-30T10:05:20.000Z</time>
      </trkpt>
      <trkpt lat="47.81498" lon="2.07251">
        <ele>99</ele>
        <time>2016-10-30T10:05:21.000Z</time>
      </trkpt>
      <trkpt lat="47.81503" lon="2.07252">
        <ele>99</ele>
        <time>2016-10-30T10:05:22.000Z</time>
      </trkpt>
      <trkpt lat="47.81508" lon="2.07253">
        <ele>99</ele>
        <time>2016-10-30T10:05:23.000Z</time>
      </trkpt>
      <trkpt lat="47.81513" lon="2.07255">
        <ele>99</ele>
        <time>2016-10-30T10:05:24.000Z</time>
      </trkpt>
      <trkpt lat="47.81518" lon="2.07256">
        <ele>99</ele>
        <time>2016-10-30T10:05:25.000Z</time>
      </trkpt>
      <trkpt lat="47.81523" lon="2.07258">
        <ele>99</ele>
        <time>2016-10-30T10:05:26.000Z</time>
      </trkpt>
      <trkpt lat="47.81528" lon="2.07259">
        <ele>99</ele>
        <time>2016-10-30T10:05:27.000Z</time>
      </trkpt>
      <trkpt lat="47.81532" lon="2.07261">
        <ele>99</ele>
        <time>2016-10-30T10:05:28.000Z</time>
      </trkpt>
      <trkpt lat="47.81537" lon="2.07262">
        <ele>99</ele>
        <time>2016-10-30T10:05:29.000Z</time>
      </trkpt>
      <trkpt lat="47.81541" lon="2.07263">
        <ele>99</ele>
        <time>2016-10-30T10:05:30.000Z</time>
      </trkpt>
      <trkpt lat="47.81546" lon="2.07264">
        <ele>99</ele>
        <time>2016-10-30T10:05:31.000Z</time>
      </trkpt>
      <trkpt lat="47.8155" lon="2.07264">
        <ele>99</ele>
        <time>2016-10-30T10:05:32.000Z</time>
      </trkpt>
      <trkpt lat="47.81554" lon="2.07265">
        <ele>99</ele>
        <time>2016-10-30T10:05:33.000Z</time>
      </trkpt>
      <trkpt lat="47.81558" lon="2.07266">
        <ele>99</ele>
        <time>2016-10-30T10:05:34.000Z</time>
      </trkpt>
      <trkpt lat="47.81563" lon="2.07267">
        <ele>99</ele>
        <time>2016-10-30T10:05:35.000Z</time>
      </trkpt>
      <trkpt lat="47.81567" lon="2.07268">
        <ele>99</ele>
        <time>2016-10-30T10:05:36.000Z</time>
      </trkpt>
      <trkpt lat="47.81571" lon="2.07269">
        <ele>99</ele>
        <time>2016-10-30T10:05:37.000Z</time>
      </trkpt>
      <trkpt lat="47.81574" lon="2.07271">
        <ele>99</ele>
        <time>2016-10-30T10:05:38.000Z</time>
      </trkpt>
      <trkpt lat="47.81578" lon="2.07272">
        <ele>99</ele>
        <time>2016-10-30T10:05:39.000Z</time>
      </trkpt>
      <trkpt lat="47.81582" lon="2.07273">
        <ele>99</ele>
        <time>2016-10-30T10:05:40.000Z</time>
      </trkpt>
      <trkpt lat="47.81586" lon="2.07274">
        <ele>99</ele>
        <time>2016-10-30T10:05:41.000Z</time>
      </trkpt>
      <trkpt lat="47.8159" lon="2.07274">
        <ele>99</ele>
        <time>2016-10-30T10:05:42.000Z</time>
      </trkpt>
      <trkpt lat="47.81594" lon="2.07274">
        <ele>99</ele>
        <time>2016-10-30T10:05:43.000Z</time>
      </trkpt>
      <trkpt lat="47.81599" lon="2.07275">
        <ele>99</ele>
        <time>2016-10-30T10:05:44.000Z</time>
      </trkpt>
      <trkpt lat="47.81603" lon="2.07276">
        <ele>99</ele>
        <time>2016-10-30T10:05:45.000Z</time>
      </trkpt>
      <trkpt lat="47.81607" lon="2.07277">
        <ele>99</ele>
        <time>2016-10-30T10:05:46.000Z</time>
      </trkpt>
      <trkpt lat="47.81612" lon="2.07278">
        <ele>99</ele>
        <time>2016-10-30T10:05:47.000Z</time>
      </trkpt>
      <trkpt lat="47.81616" lon="2.07279">
        <ele>99</ele>
        <time>2016-10-30T10:05:48.000Z</time>
      </trkpt>
      <trkpt lat="47.8162" lon="2.0728">
        <ele>99</ele>
        <time>2016-10-30T10:05:49.000Z</time>
      </trkpt>
      <trkpt lat="47.81624" lon="2.07281">
        <ele>99</ele>
        <time>2016-10-30T10:05:50.000Z</time>
      </trkpt>
      <trkpt lat="47.81628" lon="2.07282">
        <ele>99</ele>
        <time>2016-10-30T10:05:51.000Z</time>
      </trkpt>
      <trkpt lat="47.81632" lon="2.07283">
        <ele>100</ele>
        <time>2016-10-30T10:05:52.000Z</time>
      </trkpt>
      <trkpt lat="47.81636" lon="2.07284">
        <ele>100</ele>
        <time>2016-10-30T10:05:53.000Z</time>
      </trkpt>
      <trkpt lat="47.81639" lon="2.07285">
        <ele>99</ele>
        <time>2016-10-30T10:05:54.000Z</time>
      </trkpt>
      <trkpt lat="47.81643" lon="2.07286">
        <ele>99</ele>
        <time>2016-10-30T10:05:55.000Z</time>
      </trkpt>
      <trkpt lat="47.81647" lon="2.07287">
        <ele>99</ele>
        <time>2016-10-30T10:05:56.000Z</time>
      </trkpt>
      <trkpt lat="47.81651" lon="2.07288">
        <ele>99</ele>
        <time>2016-10-30T10:05:57.000Z</time>
      </trkpt>
      <trkpt lat="47.81655" lon="2.07289">
        <ele>99</ele>
        <time>2016-10-30T10:05:58.000Z</time>
      </trkpt>
      <trkpt lat="47.81659" lon="2.07291">
        <ele>99</ele>
        <time>2016-10-30T10:05:59.000Z</time>
      </trkpt>
      <trkpt lat="47.81663" lon="2.07292">
        <ele>99</ele>
        <time>2016-10-30T10:06:00.000Z</time>
      </trkpt>
      <trkpt lat="47.81668" lon="2.07293">
        <ele>99</ele>
        <time>2016-10-30T10:06:01.000Z</time>
      </trkpt>
      <trkpt lat="47.81672" lon="2.07294">
        <ele>99</ele>
        <time>2016-10-30T10:06:02.000Z</time>
      </trkpt>
      <trkpt lat="47.81677" lon="2.07295">
        <ele>99</ele>
        <time>2016-10-30T10:06:03.000Z</time>
      </trkpt>
      <trkpt lat="47.81681" lon="2.07297">
        <ele>99</ele>
        <time>2016-10-30T10:06:04.000Z</time>
      </trkpt>
      <trkpt lat="47.81686" lon="2.07298">
        <ele>99</ele>
        <time>2016-10-30T10:06:05.000Z</time>
      </trkpt>
      <trkpt lat="47.8169" lon="2.07299">
        <ele>99</ele>
        <time>2016-10-30T10:06:06.000Z</time>
      </trkpt>
      <trkpt lat="47.81695" lon="2.073">
        <ele>99</ele>
        <time>2016-10-30T10:06:07.000Z</time>
      </trkpt>
      <trkpt lat="47.817" lon="2.07302">
        <ele>99</ele>
        <time>2016-10-30T10:06:08.000Z</time>
      </trkpt>
      <trkpt lat="47.81704" lon="2.07303">
        <ele>99</ele>
        <time>2016-10-30T10:06:09.000Z</time>
      </trkpt>
      <trkpt lat="47.81708" lon="2.07304">
        <ele>99</ele>
        <time>2016-10-30T10:06:10.000Z</time>
      </trkpt>
      <trkpt lat="47.81713" lon="2.07305">
        <ele>99</ele>
        <time>2016-10-30T10:06:11.000Z</time>
      </trkpt>
      <trkpt lat="47.81717" lon="2.07306">
        <ele>99</ele>
        <time>2016-10-30T10:06:12.000Z</time>
      </trkpt>
      <trkpt lat="47.81722" lon="2.07307">
        <ele>99</ele>
        <time>2016-10-30T10:06:13.000Z</time>
      </trkpt>
      <trkpt lat="47.81726" lon="2.07309">
        <ele>99</ele>
        <time>2016-10-30T10:06:14.000Z</time>
      </trkpt>
      <trkpt lat="47.81731" lon="2.0731">
        <ele>99</ele>
        <time>2016-10-30T10:06:15.000Z</time>
      </trkpt>
      <trkpt lat="47.81735" lon="2.07311">
        <ele>99</ele>
        <time>2016-10-30T10:06:16.000Z</time>
      </trkpt>
      <trkpt lat="47.8174" lon="2.07312">
        <ele>99</ele>
        <time>2016-10-30T10:06:17.000Z</time>
      </trkpt>
      <trkpt lat="47.81744" lon="2.07313">
        <ele>99</ele>
        <time>2016-10-30T10:06:18.000Z</time>
      </trkpt>
      <trkpt lat="47.81749" lon="2.07314">
        <ele>99</ele>
        <time>2016-10-30T10:06:19.000Z</time>
      </trkpt>
      <trkpt lat="47.81754" lon="2.07315">
        <ele>99</ele>
        <time>2016-10-30T10:06:20.000Z</time>
      </trkpt>
      <trkpt lat="47.81759" lon="2.07316">
        <ele>99</ele>
        <time>2016-10-30T10:06:21.000Z</time>
      </trkpt>
      <trkpt lat="47.81763" lon="2.07317">
        <ele>99</ele>
        <time>2016-10-30T10:06:22.000Z</time>
      </trkpt>
      <trkpt lat="47.81768" lon="2.07319">
        <ele>99</ele>
        <time>2016-10-30T10:06:23.000Z</time>
      </trkpt>
      <trkpt lat="47.81772" lon="2.0732">
        <ele>99</ele>
        <time>2016-10-30T10:06:24.000Z</time>
      </trkpt>
      <trkpt lat="47.81777" lon="2.07321">
        <ele>99</ele>
        <time>2016-10-30T10:06:25.000Z</time>
      </trkpt>
      <trkpt lat="47.81781" lon="2.07322">
        <ele>99</ele>
        <time>2016-10-30T10:06:26.000Z</time>
      </trkpt>
      <trkpt lat="47.81785" lon="2.07323">
        <ele>100</ele>
        <time>2016-10-30T10:06:27.000Z</time>
      </trkpt>
      <trkpt lat="47.8179" lon="2.07324">
        <ele>100</ele>
        <time>2016-10-30T10:06:28.000Z</time>
      </trkpt>
      <trkpt lat="47.81794" lon="2.07325">
        <ele>100</ele>
        <time>2016-10-30T10:06:29.000Z</time>
      </trkpt>
      <trkpt lat="47.81799" lon="2.07326">
        <ele>100</ele>
        <time>2016-10-30T10:06:30.000Z</time>
      </trkpt>
      <trkpt lat="47.81803" lon="2.07327">
        <ele>100</ele>
        <time>2016-10-30T10:06:31.000Z</time>
      </trkpt>
      <trkpt lat="47.81808" lon="2.07329">
        <ele>100</ele>
        <time>2016-10-30T10:06:32.000Z</time>
      </trkpt>
      <trkpt lat="47.81812" lon="2.0733">
        <ele>100</ele>
        <time>2016-10-30T10:06:33.000Z</time>
      </trkpt>
      <trkpt lat="47.81817" lon="2.07331">
        <ele>100</ele>
        <time>2016-10-30T10:06:34.000Z</time>
      </trkpt>
      <trkpt lat="47.81821" lon="2.07332">
        <ele>100</ele>
        <time>2016-10-30T10:06:35.000Z</time>
      </trkpt>
      <trkpt lat="47.81825" lon="2.07333">
        <ele>100</ele>
        <time>2016-10-30T10:06:36.000Z</time>
      </trkpt>
      <trkpt lat="47.8183" lon="2.07334">
        <ele>100</ele>
        <time>2016-10-30T10:06:37.000Z</time>
      </trkpt>
      <trkpt lat="47.81834" lon="2.07335">
        <ele>100</ele>
        <time>2016-10-30T10:06:38.000Z</time>
      </trkpt>
      <trkpt lat="47.81838" lon="2.07337">
        <ele>100</ele>
        <time>2016-10-30T10:06:39.000Z</time>
      </trkpt>
      <trkpt lat="47.81843" lon="2.07339">
        <ele>100</ele>
        <time>2016-10-30T10:06:40.000Z</time>
      </trkpt>
      <trkpt lat="47.81847" lon="2.07342">
        <ele>100</ele>
        <time>2016-10-30T10:06:41.000Z</time>
      </trkpt>
      <trkpt lat="47.8185" lon="2.07345">
        <ele>100</ele>
        <time>2016-10-30T10:06:42.000Z</time>
      </trkpt>
      <trkpt lat="47.81854" lon="2.0735">
        <ele>100</ele>
        <time>2016-10-30T10:06:43.000Z</time>
      </trkpt>
      <trkpt lat="47.81857" lon="2.07355">
        <ele>100</ele>
        <time>2016-10-30T10:06:44.000Z</time>
      </trkpt>
      <trkpt lat="47.8186" lon="2.0736">
        <ele>100</ele>
        <time>2016-10-30T10:06:45.000Z</time>
      </trkpt>
      <trkpt lat="47.81862" lon="2.07365">
        <ele>100</ele>
        <time>2016-10-30T10:06:46.000Z</time>
      </trkpt>
      <trkpt lat="47.81865" lon="2.0737">
        <ele>100</ele>
        <time>2016-10-30T10:06:47.000Z</time>
      </trkpt>
      <trkpt lat="47.81868" lon="2.07375">
        <ele>100</ele>
        <time>2016-10-30T10:06:48.000Z</time>
      </trkpt>
      <trkpt lat="47.8187" lon="2.07381">
        <ele>100</ele>
        <time>2016-10-30T10:06:49.000Z</time>
      </trkpt>
      <trkpt lat="47.81872" lon="2.07386">
        <ele>100</ele>
        <time>2016-10-30T10:06:50.000Z</time>
      </trkpt>
      <trkpt lat="47.81875" lon="2.07391">
        <ele>100</ele>
        <time>2016-10-30T10:06:51.000Z</time>
      </trkpt>
      <trkpt lat="47.81877" lon="2.07396">
        <ele>100</ele>
        <time>2016-10-30T10:06:52.000Z</time>
      </trkpt>
      <trkpt lat="47.81879" lon="2.07401">
        <ele>100</ele>
        <time>2016-10-30T10:06:53.000Z</time>
      </trkpt>
      <trkpt lat="47.81882" lon="2.07406">
        <ele>100</ele>
        <time>2016-10-30T10:06:54.000Z</time>
      </trkpt>
      <trkpt lat="47.81884" lon="2.07412">
        <ele>100</ele>
        <time>2016-10-30T10:06:55.000Z</time>
      </trkpt>
      <trkpt lat="47.81887" lon="2.07417">
        <ele>100</ele>
        <time>2016-10-30T10:06:56.000Z</time>
      </trkpt>
      <trkpt lat="47.81889" lon="2.07422">
        <ele>100</ele>
        <time>2016-10-30T10:06:57.000Z</time>
      </trkpt>
      <trkpt lat="47.81891" lon="2.07427">
        <ele>100</ele>
        <time>2016-10-30T10:06:58.000Z</time>
      </trkpt>
      <trkpt lat="47.81894" lon="2.07432">
        <ele>100</ele>
        <time>2016-10-30T10:06:59.000Z</time>
      </trkpt>
      <trkpt lat="47.81896" lon="2.07438">
        <ele>100</ele>
        <time>2016-10-30T10:07:00.000Z</time>
      </trkpt>
      <trkpt lat="47.81898" lon="2.07443">
        <ele>100</ele>
        <time>2016-10-30T10:07:01.000Z</time>
      </trkpt>
      <trkpt lat="47.81901" lon="2.07448">
        <ele>100</ele>
        <time>2016-10-30T10:07:02.000Z</time>
      </trkpt>
      <trkpt lat="47.81903" lon="2.07454">
        <ele>100</ele>
        <time>2016-10-30T10:07:03.000Z</time>
      </trkpt>
      <trkpt lat="47.81906" lon="2.07459">
        <ele>100</ele>
        <time>2016-10-30T10:07:04.000Z</time>
      </trkpt>
      <trkpt lat="47.81908" lon="2.07464">
        <ele>100</ele>
        <time>2016-10-30T10:07:05.000Z</time>
      </trkpt>
      <trkpt lat="47.8191" lon="2.0747">
        <ele>100</ele>
        <time>2016-10-30T10:07:06.000Z</time>
      </trkpt>
      <trkpt lat="47.81913" lon="2.07475">
        <ele>100</ele>
        <time>2016-10-30T10:07:07.000Z</time>
      </trkpt>
      <trkpt lat="47.81915" lon="2.0748">
        <ele>100</ele>
        <time>2016-10-30T10:07:08.000Z</time>
      </trkpt>
      <trkpt lat="47.81918" lon="2.07486">
        <ele>100</ele>
        <time>2016-10-30T10:07:09.000Z</time>
      </trkpt>
      <trkpt lat="47.81921" lon="2.07491">
        <ele>100</ele>
        <time>2016-10-30T10:07:10.000Z</time>
      </trkpt>
      <trkpt lat="47.81923" lon="2.07496">
        <ele>100</ele>
        <time>2016-10-30T10:07:11.000Z</time>
      </trkpt>
      <trkpt lat="47.81926" lon="2.07502">
        <ele>100</ele>
        <time>2016-10-30T10:07:12.000Z</time>
      </trkpt>
      <trkpt lat="47.81928" lon="2.07507">
        <ele>100</ele>
        <time>2016-10-30T10:07:13.000Z</time>
      </trkpt>
      <trkpt lat="47.81931" lon="2.07513">
        <ele>100</ele>
        <time>2016-10-30T10:07:14.000Z</time>
      </trkpt>
      <trkpt lat="47.81933" lon="2.07519">
        <ele>100</ele>
        <time>2016-10-30T10:07:15.000Z</time>
      </trkpt>
      <trkpt lat="47.81936" lon="2.07524">
        <ele>100</ele>
        <time>2016-10-30T10:07:16.000Z</time>
      </trkpt>
      <trkpt lat="47.81938" lon="2.0753">
        <ele>100</ele>
        <time>2016-10-30T10:07:17.000Z</time>
      </trkpt>
      <trkpt lat="47.81941" lon="2.07535">
        <ele>100</ele>
        <time>2016-10-30T10:07:18.000Z</time>
      </trkpt>
      <trkpt lat="47.81943" lon="2.07541">
        <ele>100</ele>
        <time>2016-10-30T10:07:19.000Z</time>
      </trkpt>
      <trkpt lat="47.81946" lon="2.07546">
        <ele>100</ele>
        <time>2016-10-30T10:07:20.000Z</time>
      </trkpt>
      <trkpt lat="47.81949" lon="2.07552">
        <ele>100</ele>
        <time>2016-10-30T10:07:21.000Z</time>
      </trkpt>
      <trkpt lat="47.81951" lon="2.07558">
        <ele>100</ele>
        <time>2016-10-30T10:07:22.000Z</time>
      </trkpt>
      <trkpt lat="47.81954" lon="2.07563">
        <ele>100</ele>
        <time>2016-10-30T10:07:23.000Z</time>
      </trkpt>
      <trkpt lat="47.81957" lon="2.07569">
        <ele>100</ele>
        <time>2016-10-30T10:07:24.000Z</time>
      </trkpt>
      <trkpt lat="47.81959" lon="2.07574">
        <ele>100</ele>
        <time>2016-10-30T10:07:25.000Z</time>
      </trkpt>
      <trkpt lat="47.81962" lon="2.0758">
        <ele>100</ele>
        <time>2016-10-30T10:07:26.000Z</time>
      </trkpt>
      <trkpt lat="47.81965" lon="2.07586">
        <ele>101</ele>
        <time>2016-10-30T10:07:27.000Z</time>
      </trkpt>
      <trkpt lat="47.81968" lon="2.07591">
        <ele>101</ele>
        <time>2016-10-30T10:07:28.000Z</time>
      </trkpt>
      <trkpt lat="47.8197" lon="2.07597">
        <ele>101</ele>
        <time>2016-10-30T10:07:29.000Z</time>
      </trkpt>
      <trkpt lat="47.81973" lon="2.07603">
        <ele>100</ele>
        <time>2016-10-30T10:07:30.000Z</time>
      </trkpt>
      <trkpt lat="47.81976" lon="2.07608">
        <ele>101</ele>
        <time>2016-10-30T10:07:31.000Z</time>
      </trkpt>
      <trkpt lat="47.81978" lon="2.07614">
        <ele>101</ele>
        <time>2016-10-30T10:07:32.000Z</time>
      </trkpt>
      <trkpt lat="47.81981" lon="2.0762">
        <ele>101</ele>
        <time>2016-10-30T10:07:33.000Z</time>
      </trkpt>
      <trkpt lat="47.81984" lon="2.07625">
        <ele>101</ele>
        <time>2016-10-30T10:07:34.000Z</time>
      </trkpt>
      <trkpt lat="47.81987" lon="2.07631">
        <ele>100</ele>
        <time>2016-10-30T10:07:35.000Z</time>
      </trkpt>
      <trkpt lat="47.81989" lon="2.07636">
        <ele>100</ele>
        <time>2016-10-30T10:07:36.000Z</time>
      </trkpt>
      <trkpt lat="47.81992" lon="2.07641">
        <ele>100</ele>
        <time>2016-10-30T10:07:37.000Z</time>
      </trkpt>
      <trkpt lat="47.81994" lon="2.07647">
        <ele>100</ele>
        <time>2016-10-30T10:07:38.000Z</time>
      </trkpt>
      <trkpt lat="47.81997" lon="2.07652">
        <ele>100</ele>
        <time>2016-10-30T10:07:39.000Z</time>
      </trkpt>
      <trkpt lat="47.81999" lon="2.07658">
        <ele>100</ele>
        <time>2016-10-30T10:07:40.000Z</time>
      </trkpt>
      <trkpt lat="47.82002" lon="2.07663">
        <ele>101</ele>
        <time>2016-10-30T10:07:41.000Z</time>
      </trkpt>
      <trkpt lat="47.82004" lon="2.07668">
        <ele>101</ele>
        <time>2016-10-30T10:07:42.000Z</time>
      </trkpt>
      <trkpt lat="47.82007" lon="2.07674">
        <ele>101</ele>
        <time>2016-10-30T10:07:43.000Z</time>
      </trkpt>
      <trkpt lat="47.82009" lon="2.07679">
        <ele>101</ele>
        <time>2016-10-30T10:07:44.000Z</time>
      </trkpt>
      <trkpt lat="47.82012" lon="2.07684">
        <ele>101</ele>
        <time>2016-10-30T10:07:45.000Z</time>
      </trkpt>
      <trkpt lat="47.82014" lon="2.0769">
        <ele>101</ele>
        <time>2016-10-30T10:07:46.000Z</time>
      </trkpt>
      <trkpt lat="47.82017" lon="2.07695">
        <ele>101</ele>
        <time>2016-10-30T10:07:47.000Z</time>
      </trkpt>
      <trkpt lat="47.82019" lon="2.077">
        <ele>101</ele>
        <time>2016-10-30T10:07:48.000Z</time>
      </trkpt>
      <trkpt lat="47.82021" lon="2.07704">
        <ele>101</ele>
        <time>2016-10-30T10:07:49.000Z</time>
      </trkpt>
      <trkpt lat="47.82024" lon="2.07709">
        <ele>101</ele>
        <time>2016-10-30T10:07:50.000Z</time>
      </trkpt>
      <trkpt lat="47.82026" lon="2.07714">
        <ele>101</ele>
        <time>2016-10-30T10:07:51.000Z</time>
      </trkpt>
      <trkpt lat="47.82028" lon="2.07718">
        <ele>101</ele>
        <time>2016-10-30T10:07:52.000Z</time>
      </trkpt>
      <trkpt lat="47.8203" lon="2.07723">
        <ele>101</ele>
        <time>2016-10-30T10:07:53.000Z</time>
      </trkpt>
      <trkpt lat="47.82032" lon="2.07726">
        <ele>101</ele>
        <time>2016-10-30T10:07:54.000Z</time>
      </trkpt>
      <trkpt lat="47.82034" lon="2.0773">
        <ele>101</ele>
        <time>2016-10-30T10:07:55.000Z</time>
      </trkpt>
      <trkpt lat="47.82036" lon="2.07734">
        <ele>101</ele>
        <time>2016-10-30T10:07:56.000Z</time>
      </trkpt>
      <trkpt lat="47.82038" lon="2.07739">
        <ele>101</ele>
        <time>2016-10-30T10:07:57.000Z</time>
      </trkpt>
      <trkpt lat="47.8204" lon="2.07744">
        <ele>101</ele>
        <time>2016-10-30T10:07:58.000Z</time>
      </trkpt>
      <trkpt lat="47.82043" lon="2.07749">
        <ele>101</ele>
        <time>2016-10-30T10:07:59.000Z</time>
      </trkpt>
      <trkpt lat="47.82045" lon="2.07754">
        <ele>101</ele>
        <time>2016-10-30T10:08:00.000Z</time>
      </trkpt>
      <trkpt lat="47.82047" lon="2.07758">
        <ele>101</ele>
        <time>2016-10-30T10:08:01.000Z</time>
      </trkpt>
      <trkpt lat="47.82049" lon="2.07763">
        <ele>101</ele>
        <time>2016-10-30T10:08:02.000Z</time>
      </trkpt>
      <trkpt lat="47.8205" lon="2.07768">
        <ele>101</ele>
        <time>2016-10-30T10:08:03.000Z</time>
      </trkpt>
      <trkpt lat="47.82052" lon="2.07772">
        <ele>101</ele>
        <time>2016-10-30T10:08:04.000Z</time>
      </trkpt>
      <trkpt lat="47.82054" lon="2.07777">
        <ele>100</ele>
        <time>2016-10-30T10:08:05.000Z</time>
      </trkpt>
      <trkpt lat="47.82056" lon="2.07781">
        <ele>100</ele>
        <time>2016-10-30T10:08:06.000Z</time>
      </trkpt>
      <trkpt lat="47.82057" lon="2.07785">
        <ele>101</ele>
        <time>2016-10-30T10:08:07.000Z</time>
      </trkpt>
      <trkpt lat="47.82059" lon="2.0779">
        <ele>101</ele>
        <time>2016-10-30T10:08:08.000Z</time>
      </trkpt>
      <trkpt lat="47.8206" lon="2.07795">
        <ele>101</ele>
        <time>2016-10-30T10:08:09.000Z</time>
      </trkpt>
      <trkpt lat="47.82061" lon="2.078">
        <ele>101</ele>
        <time>2016-10-30T10:08:10.000Z</time>
      </trkpt>
      <trkpt lat="47.82062" lon="2.07805">
        <ele>101</ele>
        <time>2016-10-30T10:08:11.000Z</time>
      </trkpt>
      <trkpt lat="47.82063" lon="2.0781">
        <ele>101</ele>
        <time>2016-10-30T10:08:12.000Z</time>
      </trkpt>
      <trkpt lat="47.82065" lon="2.07815">
        <ele>101</ele>
        <time>2016-10-30T10:08:13.000Z</time>
      </trkpt>
      <trkpt lat="47.82066" lon="2.0782">
        <ele>101</ele>
        <time>2016-10-30T10:08:14.000Z</time>
      </trkpt>
      <trkpt lat="47.82067" lon="2.07825">
        <ele>100</ele>
        <time>2016-10-30T10:08:15.000Z</time>
      </trkpt>
      <trkpt lat="47.82069" lon="2.07829">
        <ele>100</ele>
        <time>2016-10-30T10:08:16.000Z</time>
      </trkpt>
      <trkpt lat="47.82071" lon="2.07834">
        <ele>100</ele>
        <time>2016-10-30T10:08:17.000Z</time>
      </trkpt>
      <trkpt lat="47.82073" lon="2.07839">
        <ele>100</ele>
        <time>2016-10-30T10:08:18.000Z</time>
      </trkpt>
      <trkpt lat="47.82075" lon="2.07843">
        <ele>100</ele>
        <time>2016-10-30T10:08:19.000Z</time>
      </trkpt>
      <trkpt lat="47.82077" lon="2.07848">
        <ele>100</ele>
        <time>2016-10-30T10:08:20.000Z</time>
      </trkpt>
      <trkpt lat="47.82079" lon="2.07853">
        <ele>100</ele>
        <time>2016-10-30T10:08:21.000Z</time>
      </trkpt>
      <trkpt lat="47.82081" lon="2.07858">
        <ele>100</ele>
        <time>2016-10-30T10:08:22.000Z</time>
      </trkpt>
      <trkpt lat="47.82082" lon="2.07863">
        <ele>100</ele>
        <time>2016-10-30T10:08:23.000Z</time>
      </trkpt>
      <trkpt lat="47.82084" lon="2.07868">
        <ele>100</ele>
        <time>2016-10-30T10:08:24.000Z</time>
      </trkpt>
      <trkpt lat="47.82086" lon="2.07873">
        <ele>100</ele>
        <time>2016-10-30T10:08:25.000Z</time>
      </trkpt>
      <trkpt lat="47.82087" lon="2.07879">
        <ele>100</ele>
        <time>2016-10-30T10:08:26.000Z</time>
      </trkpt>
      <trkpt lat="47.82089" lon="2.07884">
        <ele>100</ele>
        <time>2016-10-30T10:08:27.000Z</time>
      </trkpt>
      <trkpt lat="47.8209" lon="2.07889">
        <ele>100</ele>
        <time>2016-10-30T10:08:28.000Z</time>
      </trkpt>
      <trkpt lat="47.82092" lon="2.07894">
        <ele>100</ele>
        <time>2016-10-30T10:08:29.000Z</time>
      </trkpt>
      <trkpt lat="47.82093" lon="2.079">
        <ele>100</ele>
        <time>2016-10-30T10:08:30.000Z</time>
      </trkpt>
      <trkpt lat="47.82094" lon="2.07906">
        <ele>100</ele>
        <time>2016-10-30T10:08:31.000Z</time>
      </trkpt>
      <trkpt lat="47.82095" lon="2.07912">
        <ele>100</ele>
        <time>2016-10-30T10:08:32.000Z</time>
      </trkpt>
      <trkpt lat="47.82096" lon="2.07918">
        <ele>100</ele>
        <time>2016-10-30T10:08:33.000Z</time>
      </trkpt>
      <trkpt lat="47.82097" lon="2.07924">
        <ele>100</ele>
        <time>2016-10-30T10:08:34.000Z</time>
      </trkpt>
      <trkpt lat="47.82097" lon="2.07931">
        <ele>100</ele>
        <time>2016-10-30T10:08:35.000Z</time>
      </trkpt>
      <trkpt lat="47.82098" lon="2.07937">
        <ele>100</ele>
        <time>2016-10-30T10:08:36.000Z</time>
      </trkpt>
      <trkpt lat="47.82098" lon="2.07944">
        <ele>100</ele>
        <time>2016-10-30T10:08:37.000Z</time>
      </trkpt>
      <trkpt lat="47.82098" lon="2.0795">
        <ele>100</ele>
        <time>2016-10-30T10:08:38.000Z</time>
      </trkpt>
      <trkpt lat="47.82099" lon="2.07957">
        <ele>100</ele>
        <time>2016-10-30T10:08:39.000Z</time>
      </trkpt>
      <trkpt lat="47.82099" lon="2.07963">
        <ele>100</ele>
        <time>2016-10-30T10:08:40.000Z</time>
      </trkpt>
      <trkpt lat="47.82099" lon="2.0797">
        <ele>100</ele>
        <time>2016-10-30T10:08:41.000Z</time>
      </trkpt>
      <trkpt lat="47.82099" lon="2.07977">
        <ele>100</ele>
        <time>2016-10-30T10:08:42.000Z</time>
      </trkpt>
      <trkpt lat="47.821" lon="2.07984">
        <ele>100</ele>
        <time>2016-10-30T10:08:43.000Z</time>
      </trkpt>
      <trkpt lat="47.821" lon="2.0799">
        <ele>100</ele>
        <time>2016-10-30T10:08:44.000Z</time>
      </trkpt>
      <trkpt lat="47.821" lon="2.07997">
        <ele>100</ele>
        <time>2016-10-30T10:08:45.000Z</time>
      </trkpt>
      <trkpt lat="47.821" lon="2.08004">
        <ele>100</ele>
        <time>2016-10-30T10:08:46.000Z</time>
      </trkpt>
      <trkpt lat="47.821" lon="2.08011">
        <ele>100</ele>
        <time>2016-10-30T10:08:47.000Z</time>
      </trkpt>
      <trkpt lat="47.82101" lon="2.08017">
        <ele>100</ele>
        <time>2016-10-30T10:08:48.000Z</time>
      </trkpt>
      <trkpt lat="47.82101" lon="2.08024">
        <ele>100</ele>
        <time>2016-10-30T10:08:49.000Z</time>
      </trkpt>
      <trkpt lat="47.82102" lon="2.08031">
        <ele>100</ele>
        <time>2016-10-30T10:08:50.000Z</time>
      </trkpt>
      <trkpt lat="47.82102" lon="2.08038">
        <ele>100</ele>
        <time>2016-10-30T10:08:51.000Z</time>
      </trkpt>
      <trkpt lat="47.82103" lon="2.08045">
        <ele>100</ele>
        <time>2016-10-30T10:08:52.000Z</time>
      </trkpt>
      <trkpt lat="47.82103" lon="2.08051">
        <ele>100</ele>
        <time>2016-10-30T10:08:53.000Z</time>
      </trkpt>
      <trkpt lat="47.82104" lon="2.08058">
        <ele>101</ele>
        <time>2016-10-30T10:08:54.000Z</time>
      </trkpt>
      <trkpt lat="47.82105" lon="2.08065">
        <ele>101</ele>
        <time>2016-10-30T10:08:55.000Z</time>
      </trkpt>
      <trkpt lat="47.82106" lon="2.08072">
        <ele>101</ele>
        <time>2016-10-30T10:08:56.000Z</time>
      </trkpt>
      <trkpt lat="47.82107" lon="2.08078">
        <ele>101</ele>
        <time>2016-10-30T10:08:57.000Z</time>
      </trkpt>
      <trkpt lat="47.82109" lon="2.08085">
        <ele>101</ele>
        <time>2016-10-30T10:08:58.000Z</time>
      </trkpt>
      <trkpt lat="47.8211" lon="2.08091">
        <ele>101</ele>
        <time>2016-10-30T10:08:59.000Z</time>
      </trkpt>
      <trkpt lat="47.82112" lon="2.08097">
        <ele>101</ele>
        <time>2016-10-30T10:09:00.000Z</time>
      </trkpt>
      <trkpt lat="47.82114" lon="2.08103">
        <ele>101</ele>
        <time>2016-10-30T10:09:01.000Z</time>
      </trkpt>
      <trkpt lat="47.82116" lon="2.08109">
        <ele>101</ele>
        <time>2016-10-30T10:09:02.000Z</time>
      </trkpt>
      <trkpt lat="47.82119" lon="2.08115">
        <ele>101</ele>
        <time>2016-10-30T10:09:03.000Z</time>
      </trkpt>
      <trkpt lat="47.82121" lon="2.08121">
        <ele>101</ele>
        <time>2016-10-30T10:09:04.000Z</time>
      </trkpt>
      <trkpt lat="47.82123" lon="2.08127">
        <ele>101</ele>
        <time>2016-10-30T10:09:05.000Z</time>
      </trkpt>
      <trkpt lat="47.82126" lon="2.08132">
        <ele>101</ele>
        <time>2016-10-30T10:09:06.000Z</time>
      </trkpt>
      <trkpt lat="47.82128" lon="2.08138">
        <ele>101</ele>
        <time>2016-10-30T10:09:07.000Z</time>
      </trkpt>
      <trkpt lat="47.82131" lon="2.08144">
        <ele>101</ele>
        <time>2016-10-30T10:09:08.000Z</time>
      </trkpt>
      <trkpt lat="47.82133" lon="2.0815">
        <ele>101</ele>
        <time>2016-10-30T10:09:09.000Z</time>
      </trkpt>
      <trkpt lat="47.82136" lon="2.08155">
        <ele>101</ele>
        <time>2016-10-30T10:09:10.000Z</time>
      </trkpt>
      <trkpt lat="47.82139" lon="2.08161">
        <ele>101</ele>
        <time>2016-10-30T10:09:11.000Z</time>
      </trkpt>
      <trkpt lat="47.82141" lon="2.08167">
        <ele>101</ele>
        <time>2016-10-30T10:09:12.000Z</time>
      </trkpt>
      <trkpt lat="47.82144" lon="2.08172">
        <ele>101</ele>
        <time>2016-10-30T10:09:13.000Z</time>
      </trkpt>
      <trkpt lat="47.82146" lon="2.08178">
        <ele>101</ele>
        <time>2016-10-30T10:09:14.000Z</time>
      </trkpt>
      <trkpt lat="47.82149" lon="2.08184">
        <ele>101</ele>
        <time>2016-10-30T10:09:15.000Z</time>
      </trkpt>
      <trkpt lat="47.82151" lon="2.0819">
        <ele>101</ele>
        <time>2016-10-30T10:09:16.000Z</time>
      </trkpt>
      <trkpt lat="47.82154" lon="2.08196">
        <ele>101</ele>
        <time>2016-10-30T10:09:17.000Z</time>
      </trkpt>
      <trkpt lat="47.82157" lon="2.08202">
        <ele>101</ele>
        <time>2016-10-30T10:09:18.000Z</time>
      </trkpt>
      <trkpt lat="47.82159" lon="2.08207">
        <ele>101</ele>
        <time>2016-10-30T10:09:19.000Z</time>
      </trkpt>
      <trkpt lat="47.82162" lon="2.08213">
        <ele>101</ele>
        <time>2016-10-30T10:09:20.000Z</time>
      </trkpt>
      <trkpt lat="47.82165" lon="2.08219">
        <ele>101</ele>
        <time>2016-10-30T10:09:21.000Z</time>
      </trkpt>
      <trkpt lat="47.82167" lon="2.08224">
        <ele>101</ele>
        <time>2016-10-30T10:09:22.000Z</time>
      </trkpt>
      <trkpt lat="47.8217" lon="2.0823">
        <ele>101</ele>
        <time>2016-10-30T10:09:23.000Z</time>
      </trkpt>
      <trkpt lat="47.82172" lon="2.08236">
        <ele>101</ele>
        <time>2016-10-30T10:09:24.000Z</time>
      </trkpt>
      <trkpt lat="47.82175" lon="2.08241">
        <ele>101</ele>
        <time>2016-10-30T10:09:25.000Z</time>
      </trkpt>
      <trkpt lat="47.82178" lon="2.08247">
        <ele>101</ele>
        <time>2016-10-30T10:09:26.000Z</time>
      </trkpt>
      <trkpt lat="47.82181" lon="2.08251">
        <ele>101</ele>
        <time>2016-10-30T10:09:27.000Z</time>
      </trkpt>
      <trkpt lat="47.82183" lon="2.08256">
        <ele>101</ele>
        <time>2016-10-30T10:09:28.000Z</time>
      </trkpt>
      <trkpt lat="47.82185" lon="2.0826">
        <ele>101</ele>
        <time>2016-10-30T10:09:29.000Z</time>
      </trkpt>
      <trkpt lat="47.82187" lon="2.08264">
        <ele>101</ele>
        <time>2016-10-30T10:09:30.000Z</time>
      </trkpt>
      <trkpt lat="47.82189" lon="2.08268">
        <ele>101</ele>
        <time>2016-10-30T10:09:31.000Z</time>
      </trkpt>
      <trkpt lat="47.82191" lon="2.08271">
        <ele>101</ele>
        <time>2016-10-30T10:09:32.000Z</time>
      </trkpt>
      <trkpt lat="47.82193" lon="2.08276">
        <ele>101</ele>
        <time>2016-10-30T10:09:33.000Z</time>
      </trkpt>
      <trkpt lat="47.82194" lon="2.0828">
        <ele>101</ele>
        <time>2016-10-30T10:09:34.000Z</time>
      </trkpt>
      <trkpt lat="47.82196" lon="2.08285">
        <ele>101</ele>
        <time>2016-10-30T10:09:35.000Z</time>
      </trkpt>
      <trkpt lat="47.82199" lon="2.08289">
        <ele>101</ele>
        <time>2016-10-30T10:09:36.000Z</time>
      </trkpt>
      <trkpt lat="47.82201" lon="2.08294">
        <ele>101</ele>
        <time>2016-10-30T10:09:37.000Z</time>
      </trkpt>
      <trkpt lat="47.82203" lon="2.08299">
        <ele>101</ele>
        <time>2016-10-30T10:09:38.000Z</time>
      </trkpt>
      <trkpt lat="47.82206" lon="2.08304">
        <ele>101</ele>
        <time>2016-10-30T10:09:39.000Z</time>
      </trkpt>
      <trkpt lat="47.82208" lon="2.08309">
        <ele>101</ele>
        <time>2016-10-30T10:09:40.000Z</time>
      </trkpt>
      <trkpt lat="47.8221" lon="2.08315">
        <ele>101</ele>
        <time>2016-10-30T10:09:41.000Z</time>
      </trkpt>
      <trkpt lat="47.82212" lon="2.0832">
        <ele>101</ele>
        <time>2016-10-30T10:09:42.000Z</time>
      </trkpt>
      <trkpt lat="47.82215" lon="2.08325">
        <ele>101</ele>
        <time>2016-10-30T10:09:43.000Z</time>
      </trkpt>
      <trkpt lat="47.82217" lon="2.08331">
        <ele>102</ele>
        <time>2016-10-30T10:09:44.000Z</time>
      </trkpt>
      <trkpt lat="47.8222" lon="2.08336">
        <ele>102</ele>
        <time>2016-10-30T10:09:45.000Z</time>
      </trkpt>
      <trkpt lat="47.82222" lon="2.08341">
        <ele>102</ele>
        <time>2016-10-30T10:09:46.000Z</time>
      </trkpt>
      <trkpt lat="47.82225" lon="2.08346">
        <ele>102</ele>
        <time>2016-10-30T10:09:47.000Z</time>
      </trkpt>
      <trkpt lat="47.82227" lon="2.08352">
        <ele>102</ele>
        <time>2016-10-30T10:09:48.000Z</time>
      </trkpt>
      <trkpt lat="47.8223" lon="2.08357">
        <ele>101</ele>
        <time>2016-10-30T10:09:49.000Z</time>
      </trkpt>
      <trkpt lat="47.82232" lon="2.08362">
        <ele>101</ele>
        <time>2016-10-30T10:09:50.000Z</time>
      </trkpt>
      <trkpt lat="47.82235" lon="2.08367">
        <ele>101</ele>
        <time>2016-10-30T10:09:51.000Z</time>
      </trkpt>
      <trkpt lat="47.82237" lon="2.08372">
        <ele>102</ele>
        <time>2016-10-30T10:09:52.000Z</time>
      </trkpt>
      <trkpt lat="47.82239" lon="2.08377">
        <ele>102</ele>
        <time>2016-10-30T10:09:53.000Z</time>
      </trkpt>
      <trkpt lat="47.82241" lon="2.08382">
        <ele>101</ele>
        <time>2016-10-30T10:09:54.000Z</time>
      </trkpt>
      <trkpt lat="47.82243" lon="2.08386">
        <ele>101</ele>
        <time>2016-10-30T10:09:55.000Z</time>
      </trkpt>
      <trkpt lat="47.82246" lon="2.0839">
        <ele>102</ele>
        <time>2016-10-30T10:09:56.000Z</time>
      </trkpt>
      <trkpt lat="47.82248" lon="2.08394">
        <ele>102</ele>
        <time>2016-10-30T10:09:57.000Z</time>
      </trkpt>
      <trkpt lat="47.82249" lon="2.08398">
        <ele>102</ele>
        <time>2016-10-30T10:09:58.000Z</time>
      </trkpt>
      <trkpt lat="47.82251" lon="2.08401">
        <ele>102</ele>
        <time>2016-10-30T10:09:59.000Z</time>
      </trkpt>
      <trkpt lat="47.82252" lon="2.08405">
        <ele>102</ele>
        <time>2016-10-30T10:10:00.000Z</time>
      </trkpt>
      <trkpt lat="47.82254" lon="2.08408">
        <ele>102</ele>
        <time>2016-10-30T10:10:01.000Z</time>
      </trkpt>
      <trkpt lat="47.82256" lon="2.08412">
        <ele>102</ele>
        <time>2016-10-30T10:10:02.000Z</time>
      </trkpt>
      <trkpt lat="47.82258" lon="2.08416">
        <ele>102</ele>
        <time>2016-10-30T10:10:03.000Z</time>
      </trkpt>
      <trkpt lat="47.82259" lon="2.0842">
        <ele>102</ele>
        <time>2016-10-30T10:10:04.000Z</time>
      </trkpt>
      <trkpt lat="47.82261" lon="2.08424">
        <ele>102</ele>
        <time>2016-10-30T10:10:05.000Z</time>
      </trkpt>
      <trkpt lat="47.82263" lon="2.08427">
        <ele>102</ele>
        <time>2016-10-30T10:10:06.000Z</time>
      </trkpt>
      <trkpt lat="47.82265" lon="2.08431">
        <ele>102</ele>
        <time>2016-10-30T10:10:07.000Z</time>
      </trkpt>
      <trkpt lat="47.82267" lon="2.08435">
        <ele>102</ele>
        <time>2016-10-30T10:10:08.000Z</time>
      </trkpt>
      <trkpt lat="47.82268" lon="2.08439">
        <ele>102</ele>
        <time>2016-10-30T10:10:09.000Z</time>
      </trkpt>
      <trkpt lat="47.8227" lon="2.08443">
        <ele>102</ele>
        <time>2016-10-30T10:10:10.000Z</time>
      </trkpt>
      <trkpt lat="47.82271" lon="2.08447">
        <ele>102</ele>
        <time>2016-10-30T10:10:11.000Z</time>
      </trkpt>
      <trkpt lat="47.82273" lon="2.0845">
        <ele>102</ele>
        <time>2016-10-30T10:10:12.000Z</time>
      </trkpt>
      <trkpt lat="47.82275" lon="2.08454">
        <ele>102</ele>
        <time>2016-10-30T10:10:13.000Z</time>
      </trkpt>
      <trkpt lat="47.82277" lon="2.08459">
        <ele>102</ele>
        <time>2016-10-30T10:10:14.000Z</time>
      </trkpt>
      <trkpt lat="47.82279" lon="2.08463">
        <ele>102</ele>
        <time>2016-10-30T10:10:15.000Z</time>
      </trkpt>
      <trkpt lat="47.82281" lon="2.08467">
        <ele>102</ele>
        <time>2016-10-30T10:10:16.000Z</time>
      </trkpt>
      <trkpt lat="47.82283" lon="2.08472">
        <ele>102</ele>
        <time>2016-10-30T10:10:17.000Z</time>
      </trkpt>
      <trkpt lat="47.82286" lon="2.08476">
        <ele>102</ele>
        <time>2016-10-30T10:10:18.000Z</time>
      </trkpt>
      <trkpt lat="47.82288" lon="2.08482">
        <ele>102</ele>
        <time>2016-10-30T10:10:19.000Z</time>
      </trkpt>
      <trkpt lat="47.8229" lon="2.08487">
        <ele>102</ele>
        <time>2016-10-30T10:10:20.000Z</time>
      </trkpt>
      <trkpt lat="47.82293" lon="2.08492">
        <ele>102</ele>
        <time>2016-10-30T10:10:21.000Z</time>
      </trkpt>
      <trkpt lat="47.82295" lon="2.08497">
        <ele>102</ele>
        <time>2016-10-30T10:10:22.000Z</time>
      </trkpt>
      <trkpt lat="47.82297" lon="2.08502">
        <ele>102</ele>
        <time>2016-10-30T10:10:23.000Z</time>
      </trkpt>
      <trkpt lat="47.823" lon="2.08508">
        <ele>101</ele>
        <time>2016-10-30T10:10:24.000Z</time>
      </trkpt>
      <trkpt lat="47.82302" lon="2.08513">
        <ele>101</ele>
        <time>2016-10-30T10:10:25.000Z</time>
      </trkpt>
      <trkpt lat="47.82304" lon="2.08518">
        <ele>101</ele>
        <time>2016-10-30T10:10:26.000Z</time>
      </trkpt>
      <trkpt lat="47.82307" lon="2.08523">
        <ele>101</ele>
        <time>2016-10-30T10:10:27.000Z</time>
      </trkpt>
      <trkpt lat="47.82309" lon="2.08529">
        <ele>101</ele>
        <time>2016-10-30T10:10:28.000Z</time>
      </trkpt>
      <trkpt lat="47.82312" lon="2.08534">
        <ele>101</ele>
        <time>2016-10-30T10:10:29.000Z</time>
      </trkpt>
      <trkpt lat="47.82314" lon="2.08539">
        <ele>101</ele>
        <time>2016-10-30T10:10:30.000Z</time>
      </trkpt>
      <trkpt lat="47.82317" lon="2.08544">
        <ele>101</ele>
        <time>2016-10-30T10:10:31.000Z</time>
      </trkpt>
      <trkpt lat="47.82319" lon="2.0855">
        <ele>101</ele>
        <time>2016-10-30T10:10:32.000Z</time>
      </trkpt>
      <trkpt lat="47.82322" lon="2.08555">
        <ele>101</ele>
        <time>2016-10-30T10:10:33.000Z</time>
      </trkpt>
      <trkpt lat="47.82324" lon="2.08561">
        <ele>101</ele>
        <time>2016-10-30T10:10:34.000Z</time>
      </trkpt>
      <trkpt lat="47.82327" lon="2.08566">
        <ele>101</ele>
        <time>2016-10-30T10:10:35.000Z</time>
      </trkpt>
      <trkpt lat="47.82329" lon="2.08571">
        <ele>101</ele>
        <time>2016-10-30T10:10:36.000Z</time>
      </trkpt>
      <trkpt lat="47.82331" lon="2.08577">
        <ele>101</ele>
        <time>2016-10-30T10:10:37.000Z</time>
      </trkpt>
      <trkpt lat="47.82333" lon="2.08582">
        <ele>101</ele>
        <time>2016-10-30T10:10:38.000Z</time>
      </trkpt>
      <trkpt lat="47.82336" lon="2.08587">
        <ele>101</ele>
        <time>2016-10-30T10:10:39.000Z</time>
      </trkpt>
      <trkpt lat="47.82338" lon="2.08592">
        <ele>101</ele>
        <time>2016-10-30T10:10:40.000Z</time>
      </trkpt>
      <trkpt lat="47.82341" lon="2.08598">
        <ele>101</ele>
        <time>2016-10-30T10:10:41.000Z</time>
      </trkpt>
      <trkpt lat="47.82343" lon="2.08603">
        <ele>101</ele>
        <time>2016-10-30T10:10:42.000Z</time>
      </trkpt>
      <trkpt lat="47.82346" lon="2.08609">
        <ele>101</ele>
        <time>2016-10-30T10:10:43.000Z</time>
      </trkpt>
      <trkpt lat="47.82348" lon="2.08614">
        <ele>101</ele>
        <time>2016-10-30T10:10:44.000Z</time>
      </trkpt>
      <trkpt lat="47.82351" lon="2.08619">
        <ele>101</ele>
        <time>2016-10-30T10:10:45.000Z</time>
      </trkpt>
      <trkpt lat="47.82353" lon="2.08625">
        <ele>101</ele>
        <time>2016-10-30T10:10:46.000Z</time>
      </trkpt>
      <trkpt lat="47.82356" lon="2.0863">
        <ele>101</ele>
        <time>2016-10-30T10:10:47.000Z</time>
      </trkpt>
      <trkpt lat="47.82358" lon="2.08635">
        <ele>101</ele>
        <time>2016-10-30T10:10:48.000Z</time>
      </trkpt>
      <trkpt lat="47.82361" lon="2.0864">
        <ele>101</ele>
        <time>2016-10-30T10:10:49.000Z</time>
      </trkpt>
      <trkpt lat="47.82363" lon="2.08646">
        <ele>101</ele>
        <time>2016-10-30T10:10:50.000Z</time>
      </trkpt>
      <trkpt lat="47.82365" lon="2.08651">
        <ele>101</ele>
        <time>2016-10-30T10:10:51.000Z</time>
      </trkpt>
      <trkpt lat="47.82368" lon="2.08656">
        <ele>101</ele>
        <time>2016-10-30T10:10:52.000Z</time>
      </trkpt>
      <trkpt lat="47.8237" lon="2.08662">
        <ele>101</ele>
        <time>2016-10-30T10:10:53.000Z</time>
      </trkpt>
      <trkpt lat="47.82373" lon="2.08667">
        <ele>102</ele>
        <time>2016-10-30T10:10:54.000Z</time>
      </trkpt>
      <trkpt lat="47.82375" lon="2.08672">
        <ele>102</ele>
        <time>2016-10-30T10:10:55.000Z</time>
      </trkpt>
      <trkpt lat="47.82378" lon="2.08678">
        <ele>102</ele>
        <time>2016-10-30T10:10:56.000Z</time>
      </trkpt>
      <trkpt lat="47.8238" lon="2.08683">
        <ele>102</ele>
        <time>2016-10-30T10:10:57.000Z</time>
      </trkpt>
      <trkpt lat="47.82383" lon="2.08688">
        <ele>102</ele>
        <time>2016-10-30T10:10:58.000Z</time>
      </trkpt>
      <trkpt lat="47.82385" lon="2.08694">
        <ele>102</ele>
        <time>2016-10-30T10:10:59.000Z</time>
      </trkpt>
      <trkpt lat="47.82388" lon="2.08699">
        <ele>102</ele>
        <time>2016-10-30T10:11:00.000Z</time>
      </trkpt>
      <trkpt lat="47.8239" lon="2.08705">
        <ele>102</ele>
        <time>2016-10-30T10:11:01.000Z</time>
      </trkpt>
      <trkpt lat="47.82393" lon="2.0871">
        <ele>102</ele>
        <time>2016-10-30T10:11:02.000Z</time>
      </trkpt>
      <trkpt lat="47.82395" lon="2.08716">
        <ele>102</ele>
        <time>2016-10-30T10:11:03.000Z</time>
      </trkpt>
      <trkpt lat="47.82398" lon="2.08721">
        <ele>102</ele>
        <time>2016-10-30T10:11:04.000Z</time>
      </trkpt>
      <trkpt lat="47.824" lon="2.08726">
        <ele>102</ele>
        <time>2016-10-30T10:11:05.000Z</time>
      </trkpt>
      <trkpt lat="47.82403" lon="2.08731">
        <ele>102</ele>
        <time>2016-10-30T10:11:06.000Z</time>
      </trkpt>
      <trkpt lat="47.82405" lon="2.08736">
        <ele>102</ele>
        <time>2016-10-30T10:11:07.000Z</time>
      </trkpt>
      <trkpt lat="47.82408" lon="2.08742">
        <ele>102</ele>
        <time>2016-10-30T10:11:08.000Z</time>
      </trkpt>
      <trkpt lat="47.8241" lon="2.08747">
        <ele>102</ele>
        <time>2016-10-30T10:11:09.000Z</time>
      </trkpt>
      <trkpt lat="47.82413" lon="2.08752">
        <ele>102</ele>
        <time>2016-10-30T10:11:10.000Z</time>
      </trkpt>
      <trkpt lat="47.82415" lon="2.08758">
        <ele>102</ele>
        <time>2016-10-30T10:11:11.000Z</time>
      </trkpt>
      <trkpt lat="47.82417" lon="2.08763">
        <ele>102</ele>
        <time>2016-10-30T10:11:12.000Z</time>
      </trkpt>
      <trkpt lat="47.82419" lon="2.08769">
        <ele>102</ele>
        <time>2016-10-30T10:11:13.000Z</time>
      </trkpt>
      <trkpt lat="47.82422" lon="2.08774">
        <ele>102</ele>
        <time>2016-10-30T10:11:14.000Z</time>
      </trkpt>
      <trkpt lat="47.82425" lon="2.0878">
        <ele>102</ele>
        <time>2016-10-30T10:11:15.000Z</time>
      </trkpt>
      <trkpt lat="47.82427" lon="2.08785">
        <ele>102</ele>
        <time>2016-10-30T10:11:16.000Z</time>
      </trkpt>
      <trkpt lat="47.8243" lon="2.0879">
        <ele>102</ele>
        <time>2016-10-30T10:11:17.000Z</time>
      </trkpt>
      <trkpt lat="47.82432" lon="2.08796">
        <ele>102</ele>
        <time>2016-10-30T10:11:18.000Z</time>
      </trkpt>
      <trkpt lat="47.82435" lon="2.08801">
        <ele>102</ele>
        <time>2016-10-30T10:11:19.000Z</time>
      </trkpt>
      <trkpt lat="47.82437" lon="2.08807">
        <ele>102</ele>
        <time>2016-10-30T10:11:20.000Z</time>
      </trkpt>
      <trkpt lat="47.8244" lon="2.08812">
        <ele>102</ele>
        <time>2016-10-30T10:11:21.000Z</time>
      </trkpt>
      <trkpt lat="47.82442" lon="2.08817">
        <ele>102</ele>
        <time>2016-10-30T10:11:22.000Z</time>
      </trkpt>
      <trkpt lat="47.82445" lon="2.08823">
        <ele>102</ele>
        <time>2016-10-30T10:11:23.000Z</time>
      </trkpt>
      <trkpt lat="47.82447" lon="2.08828">
        <ele>102</ele>
        <time>2016-10-30T10:11:24.000Z</time>
      </trkpt>
      <trkpt lat="47.82449" lon="2.08833">
        <ele>102</ele>
        <time>2016-10-30T10:11:25.000Z</time>
      </trkpt>
      <trkpt lat="47.82452" lon="2.08839">
        <ele>102</ele>
        <time>2016-10-30T10:11:26.000Z</time>
      </trkpt>
      <trkpt lat="47.82455" lon="2.08844">
        <ele>102</ele>
        <time>2016-10-30T10:11:27.000Z</time>
      </trkpt>
      <trkpt lat="47.82457" lon="2.0885">
        <ele>102</ele>
        <time>2016-10-30T10:11:28.000Z</time>
      </trkpt>
      <trkpt lat="47.8246" lon="2.08855">
        <ele>102</ele>
        <time>2016-10-30T10:11:29.000Z</time>
      </trkpt>
      <trkpt lat="47.82462" lon="2.08861">
        <ele>102</ele>
        <time>2016-10-30T10:11:30.000Z</time>
      </trkpt>
      <trkpt lat="47.82465" lon="2.08866">
        <ele>102</ele>
        <time>2016-10-30T10:11:31.000Z</time>
      </trkpt>
      <trkpt lat="47.82468" lon="2.08872">
        <ele>102</ele>
        <time>2016-10-30T10:11:32.000Z</time>
      </trkpt>
      <trkpt lat="47.8247" lon="2.08877">
        <ele>102</ele>
        <time>2016-10-30T10:11:33.000Z</time>
      </trkpt>
      <trkpt lat="47.82472" lon="2.08882">
        <ele>102</ele>
        <time>2016-10-30T10:11:34.000Z</time>
      </trkpt>
      <trkpt lat="47.82475" lon="2.08888">
        <ele>102</ele>
        <time>2016-10-30T10:11:35.000Z</time>
      </trkpt>
      <trkpt lat="47.82477" lon="2.08894">
        <ele>102</ele>
        <time>2016-10-30T10:11:36.000Z</time>
      </trkpt>
      <trkpt lat="47.8248" lon="2.08899">
        <ele>102</ele>
        <time>2016-10-30T10:11:37.000Z</time>
      </trkpt>
      <trkpt lat="47.82483" lon="2.08905">
        <ele>102</ele>
        <time>2016-10-30T10:11:38.000Z</time>
      </trkpt>
      <trkpt lat="47.82485" lon="2.0891">
        <ele>102</ele>
        <time>2016-10-30T10:11:39.000Z</time>
      </trkpt>
      <trkpt lat="47.82488" lon="2.08916">
        <ele>102</ele>
        <time>2016-10-30T10:11:40.000Z</time>
      </trkpt>
      <trkpt lat="47.8249" lon="2.08922">
        <ele>102</ele>
        <time>2016-10-30T10:11:41.000Z</time>
      </trkpt>
      <trkpt lat="47.82493" lon="2.08928">
        <ele>102</ele>
        <time>2016-10-30T10:11:42.000Z</time>
      </trkpt>
      <trkpt lat="47.82496" lon="2.08933">
        <ele>102</ele>
        <time>2016-10-30T10:11:43.000Z</time>
      </trkpt>
      <trkpt lat="47.82498" lon="2.08939">
        <ele>102</ele>
        <time>2016-10-30T10:11:44.000Z</time>
      </trkpt>
      <trkpt lat="47.82501" lon="2.08945">
        <ele>102</ele>
        <time>2016-10-30T10:11:45.000Z</time>
      </trkpt>
      <trkpt lat="47.82503" lon="2.0895">
        <ele>102</ele>
        <time>2016-10-30T10:11:46.000Z</time>
      </trkpt>
      <trkpt lat="47.82506" lon="2.08956">
        <ele>102</ele>
        <time>2016-10-30T10:11:47.000Z</time>
      </trkpt>
      <trkpt lat="47.82508" lon="2.08961">
        <ele>102</ele>
        <time>2016-10-30T10:11:48.000Z</time>
      </trkpt>
      <trkpt lat="47.82511" lon="2.08967">
        <ele>102</ele>
        <time>2016-10-30T10:11:49.000Z</time>
      </trkpt>
      <trkpt lat="47.82514" lon="2.08972">
        <ele>102</ele>
        <time>2016-10-30T10:11:50.000Z</time>
      </trkpt>
      <trkpt lat="47.82516" lon="2.08978">
        <ele>101</ele>
        <time>2016-10-30T10:11:51.000Z</time>
      </trkpt>
      <trkpt lat="47.82519" lon="2.08984">
        <ele>101</ele>
        <time>2016-10-30T10:11:52.000Z</time>
      </trkpt>
      <trkpt lat="47.82521" lon="2.08989">
        <ele>101</ele>
        <time>2016-10-30T10:11:53.000Z</time>
      </trkpt>
      <trkpt lat="47.82524" lon="2.08995">
        <ele>101</ele>
        <time>2016-10-30T10:11:54.000Z</time>
      </trkpt>
      <trkpt lat="47.82526" lon="2.09">
        <ele>101</ele>
        <time>2016-10-30T10:11:55.000Z</time>
      </trkpt>
      <trkpt lat="47.82529" lon="2.09005">
        <ele>101</ele>
        <time>2016-10-30T10:11:56.000Z</time>
      </trkpt>
      <trkpt lat="47.82531" lon="2.09011">
        <ele>101</ele>
        <time>2016-10-30T10:11:57.000Z</time>
      </trkpt>
      <trkpt lat="47.82534" lon="2.09016">
        <ele>101</ele>
        <time>2016-10-30T10:11:58.000Z</time>
      </trkpt>
      <trkpt lat="47.82537" lon="2.09022">
        <ele>101</ele>
        <time>2016-10-30T10:11:59.000Z</time>
      </trkpt>
      <trkpt lat="47.82539" lon="2.09027">
        <ele>101</ele>
        <time>2016-10-30T10:12:00.000Z</time>
      </trkpt>
      <trkpt lat="47.82542" lon="2.09033">
        <ele>101</ele>
        <time>2016-10-30T10:12:01.000Z</time>
      </trkpt>
      <trkpt lat="47.82544" lon="2.09039">
        <ele>101</ele>
        <time>2016-10-30T10:12:02.000Z</time>
      </trkpt>
      <trkpt lat="47.82547" lon="2.09044">
        <ele>101</ele>
        <time>2016-10-30T10:12:03.000Z</time>
      </trkpt>
      <trkpt lat="47.8255" lon="2.0905">
        <ele>101</ele>
        <time>2016-10-30T10:12:04.000Z</time>
      </trkpt>
      <trkpt lat="47.82552" lon="2.09056">
        <ele>101</ele>
        <time>2016-10-30T10:12:05.000Z</time>
      </trkpt>
      <trkpt lat="47.82555" lon="2.09061">
        <ele>101</ele>
        <time>2016-10-30T10:12:06.000Z</time>
      </trkpt>
      <trkpt lat="47.82557" lon="2.09066">
        <ele>101</ele>
        <time>2016-10-30T10:12:07.000Z</time>
      </trkpt>
      <trkpt lat="47.8256" lon="2.09071">
        <ele>101</ele>
        <time>2016-10-30T10:12:08.000Z</time>
      </trkpt>
      <trkpt lat="47.82562" lon="2.09076">
        <ele>101</ele>
        <time>2016-10-30T10:12:09.000Z</time>
      </trkpt>
      <trkpt lat="47.82564" lon="2.09081">
        <ele>101</ele>
        <time>2016-10-30T10:12:10.000Z</time>
      </trkpt>
      <trkpt lat="47.82567" lon="2.09086">
        <ele>101</ele>
        <time>2016-10-30T10:12:11.000Z</time>
      </trkpt>
      <trkpt lat="47.82569" lon="2.09091">
        <ele>101</ele>
        <time>2016-10-30T10:12:12.000Z</time>
      </trkpt>
      <trkpt lat="47.82571" lon="2.09096">
        <ele>101</ele>
        <time>2016-10-30T10:12:13.000Z</time>
      </trkpt>
      <trkpt lat="47.82574" lon="2.09102">
        <ele>101</ele>
        <time>2016-10-30T10:12:14.000Z</time>
      </trkpt>
      <trkpt lat="47.82576" lon="2.09107">
        <ele>101</ele>
        <time>2016-10-30T10:12:15.000Z</time>
      </trkpt>
      <trkpt lat="47.82579" lon="2.09113">
        <ele>101</ele>
        <time>2016-10-30T10:12:16.000Z</time>
      </trkpt>
      <trkpt lat="47.82581" lon="2.09118">
        <ele>101</ele>
        <time>2016-10-30T10:12:17.000Z</time>
      </trkpt>
      <trkpt lat="47.82583" lon="2.09124">
        <ele>101</ele>
        <time>2016-10-30T10:12:18.000Z</time>
      </trkpt>
      <trkpt lat="47.82584" lon="2.09129">
        <ele>101</ele>
        <time>2016-10-30T10:12:19.000Z</time>
      </trkpt>
      <trkpt lat="47.82585" lon="2.09135">
        <ele>101</ele>
        <time>2016-10-30T10:12:20.000Z</time>
      </trkpt>
      <trkpt lat="47.82586" lon="2.09141">
        <ele>101</ele>
        <time>2016-10-30T10:12:21.000Z</time>
      </trkpt>
      <trkpt lat="47.82587" lon="2.09147">
        <ele>101</ele>
        <time>2016-10-30T10:12:22.000Z</time>
      </trkpt>
      <trkpt lat="47.82587" lon="2.09153">
        <ele>101</ele>
        <time>2016-10-30T10:12:23.000Z</time>
      </trkpt>
      <trkpt lat="47.82587" lon="2.09159">
        <ele>101</ele>
        <time>2016-10-30T10:12:24.000Z</time>
      </trkpt>
      <trkpt lat="47.82587" lon="2.09165">
        <ele>101</ele>
        <time>2016-10-30T10:12:25.000Z</time>
      </trkpt>
      <trkpt lat="47.82587" lon="2.09172">
        <ele>101</ele>
        <time>2016-10-30T10:12:26.000Z</time>
      </trkpt>
      <trkpt lat="47.82587" lon="2.09178">
        <ele>101</ele>
        <time>2016-10-30T10:12:27.000Z</time>
      </trkpt>
      <trkpt lat="47.82587" lon="2.09183">
        <ele>101</ele>
        <time>2016-10-30T10:12:28.000Z</time>
      </trkpt>
      <trkpt lat="47.82587" lon="2.0919">
        <ele>101</ele>
        <time>2016-10-30T10:12:29.000Z</time>
      </trkpt>
      <trkpt lat="47.82587" lon="2.09196">
        <ele>101</ele>
        <time>2016-10-30T10:12:30.000Z</time>
      </trkpt>
      <trkpt lat="47.82588" lon="2.09202">
        <ele>101</ele>
        <time>2016-10-30T10:12:31.000Z</time>
      </trkpt>
      <trkpt lat="47.82588" lon="2.09208">
        <ele>101</ele>
        <time>2016-10-30T10:12:32.000Z</time>
      </trkpt>
      <trkpt lat="47.82588" lon="2.09214">
        <ele>101</ele>
        <time>2016-10-30T10:12:33.000Z</time>
      </trkpt>
      <trkpt lat="47.82588" lon="2.0922">
        <ele>101</ele>
        <time>2016-10-30T10:12:34.000Z</time>
      </trkpt>
      <trkpt lat="47.82589" lon="2.09227">
        <ele>101</ele>
        <time>2016-10-30T10:12:35.000Z</time>
      </trkpt>
      <trkpt lat="47.82589" lon="2.09233">
        <ele>101</ele>
        <time>2016-10-30T10:12:36.000Z</time>
      </trkpt>
      <trkpt lat="47.8259" lon="2.09239">
        <ele>101</ele>
        <time>2016-10-30T10:12:37.000Z</time>
      </trkpt>
      <trkpt lat="47.8259" lon="2.09245">
        <ele>101</ele>
        <time>2016-10-30T10:12:38.000Z</time>
      </trkpt>
      <trkpt lat="47.82591" lon="2.09252">
        <ele>101</ele>
        <time>2016-10-30T10:12:39.000Z</time>
      </trkpt>
      <trkpt lat="47.82591" lon="2.09258">
        <ele>101</ele>
        <time>2016-10-30T10:12:40.000Z</time>
      </trkpt>
      <trkpt lat="47.82592" lon="2.09264">
        <ele>101</ele>
        <time>2016-10-30T10:12:41.000Z</time>
      </trkpt>
      <trkpt lat="47.82592" lon="2.0927">
        <ele>101</ele>
        <time>2016-10-30T10:12:42.000Z</time>
      </trkpt>
      <trkpt lat="47.82593" lon="2.09277">
        <ele>101</ele>
        <time>2016-10-30T10:12:43.000Z</time>
      </trkpt>
      <trkpt lat="47.82593" lon="2.09283">
        <ele>101</ele>
        <time>2016-10-30T10:12:44.000Z</time>
      </trkpt>
      <trkpt lat="47.82594" lon="2.09289">
        <ele>101</ele>
        <time>2016-10-30T10:12:45.000Z</time>
      </trkpt>
      <trkpt lat="47.82594" lon="2.09295">
        <ele>101</ele>
        <time>2016-10-30T10:12:46.000Z</time>
      </trkpt>
      <trkpt lat="47.82595" lon="2.09301">
        <ele>101</ele>
        <time>2016-10-30T10:12:47.000Z</time>
      </trkpt>
      <trkpt lat="47.82595" lon="2.09307">
        <ele>101</ele>
        <time>2016-10-30T10:12:48.000Z</time>
      </trkpt>
      <trkpt lat="47.82596" lon="2.09313">
        <ele>101</ele>
        <time>2016-10-30T10:12:49.000Z</time>
      </trkpt>
      <trkpt lat="47.82596" lon="2.0932">
        <ele>101</ele>
        <time>2016-10-30T10:12:50.000Z</time>
      </trkpt>
      <trkpt lat="47.82596" lon="2.09326">
        <ele>101</ele>
        <time>2016-10-30T10:12:51.000Z</time>
      </trkpt>
      <trkpt lat="47.82597" lon="2.09332">
        <ele>101</ele>
        <time>2016-10-30T10:12:52.000Z</time>
      </trkpt>
      <trkpt lat="47.82597" lon="2.09339">
        <ele>101</ele>
        <time>2016-10-30T10:12:53.000Z</time>
      </trkpt>
      <trkpt lat="47.82598" lon="2.09345">
        <ele>101</ele>
        <time>2016-10-30T10:12:54.000Z</time>
      </trkpt>
      <trkpt lat="47.82598" lon="2.09352">
        <ele>101</ele>
        <time>2016-10-30T10:12:55.000Z</time>
      </trkpt>
      <trkpt lat="47.82599" lon="2.09358">
        <ele>101</ele>
        <time>2016-10-30T10:12:56.000Z</time>
      </trkpt>
      <trkpt lat="47.82599" lon="2.09365">
        <ele>101</ele>
        <time>2016-10-30T10:12:57.000Z</time>
      </trkpt>
      <trkpt lat="47.826" lon="2.09371">
        <ele>101</ele>
        <time>2016-10-30T10:12:58.000Z</time>
      </trkpt>
      <trkpt lat="47.82601" lon="2.09378">
        <ele>101</ele>
        <time>2016-10-30T10:12:59.000Z</time>
      </trkpt>
      <trkpt lat="47.82601" lon="2.09384">
        <ele>101</ele>
        <time>2016-10-30T10:13:00.000Z</time>
      </trkpt>
      <trkpt lat="47.82602" lon="2.09391">
        <ele>101</ele>
        <time>2016-10-30T10:13:01.000Z</time>
      </trkpt>
      <trkpt lat="47.82602" lon="2.09397">
        <ele>101</ele>
        <time>2016-10-30T10:13:02.000Z</time>
      </trkpt>
      <trkpt lat="47.82603" lon="2.09404">
        <ele>101</ele>
        <time>2016-10-30T10:13:03.000Z</time>
      </trkpt>
      <trkpt lat="47.82603" lon="2.0941">
        <ele>101</ele>
        <time>2016-10-30T10:13:04.000Z</time>
      </trkpt>
      <trkpt lat="47.82603" lon="2.09416">
        <ele>101</ele>
        <time>2016-10-30T10:13:05.000Z</time>
      </trkpt>
      <trkpt lat="47.82604" lon="2.09423">
        <ele>101</ele>
        <time>2016-10-30T10:13:06.000Z</time>
      </trkpt>
      <trkpt lat="47.82604" lon="2.09429">
        <ele>101</ele>
        <time>2016-10-30T10:13:07.000Z</time>
      </trkpt>
      <trkpt lat="47.82605" lon="2.09435">
        <ele>101</ele>
        <time>2016-10-30T10:13:08.000Z</time>
      </trkpt>
      <trkpt lat="47.82605" lon="2.09441">
        <ele>101</ele>
        <time>2016-10-30T10:13:09.000Z</time>
      </trkpt>
      <trkpt lat="47.82606" lon="2.09448">
        <ele>101</ele>
        <time>2016-10-30T10:13:10.000Z</time>
      </trkpt>
      <trkpt lat="47.82606" lon="2.09454">
        <ele>101</ele>
        <time>2016-10-30T10:13:11.000Z</time>
      </trkpt>
      <trkpt lat="47.82607" lon="2.09461">
        <ele>101</ele>
        <time>2016-10-30T10:13:12.000Z</time>
      </trkpt>
      <trkpt lat="47.82607" lon="2.09467">
        <ele>101</ele>
        <time>2016-10-30T10:13:13.000Z</time>
      </trkpt>
      <trkpt lat="47.82607" lon="2.09474">
        <ele>101</ele>
        <time>2016-10-30T10:13:14.000Z</time>
      </trkpt>
      <trkpt lat="47.82608" lon="2.0948">
        <ele>101</ele>
        <time>2016-10-30T10:13:15.000Z</time>
      </trkpt>
      <trkpt lat="47.82608" lon="2.09487">
        <ele>101</ele>
        <time>2016-10-30T10:13:16.000Z</time>
      </trkpt>
      <trkpt lat="47.82608" lon="2.09494">
        <ele>101</ele>
        <time>2016-10-30T10:13:17.000Z</time>
      </trkpt>
      <trkpt lat="47.82607" lon="2.095">
        <ele>101</ele>
        <time>2016-10-30T10:13:18.000Z</time>
      </trkpt>
      <trkpt lat="47.82607" lon="2.09507">
        <ele>101</ele>
        <time>2016-10-30T10:13:19.000Z</time>
      </trkpt>
      <trkpt lat="47.82606" lon="2.09513">
        <ele>101</ele>
        <time>2016-10-30T10:13:20.000Z</time>
      </trkpt>
      <trkpt lat="47.82605" lon="2.0952">
        <ele>101</ele>
        <time>2016-10-30T10:13:21.000Z</time>
      </trkpt>
      <trkpt lat="47.82604" lon="2.09526">
        <ele>101</ele>
        <time>2016-10-30T10:13:22.000Z</time>
      </trkpt>
      <trkpt lat="47.82603" lon="2.09532">
        <ele>101</ele>
        <time>2016-10-30T10:13:23.000Z</time>
      </trkpt>
      <trkpt lat="47.82602" lon="2.09538">
        <ele>101</ele>
        <time>2016-10-30T10:13:24.000Z</time>
      </trkpt>
      <trkpt lat="47.82601" lon="2.09545">
        <ele>101</ele>
        <time>2016-10-30T10:13:25.000Z</time>
      </trkpt>
      <trkpt lat="47.826" lon="2.09551">
        <ele>101</ele>
        <time>2016-10-30T10:13:26.000Z</time>
      </trkpt>
      <trkpt lat="47.82599" lon="2.09558">
        <ele>101</ele>
        <time>2016-10-30T10:13:27.000Z</time>
      </trkpt>
      <trkpt lat="47.82598" lon="2.09564">
        <ele>101</ele>
        <time>2016-10-30T10:13:28.000Z</time>
      </trkpt>
      <trkpt lat="47.82597" lon="2.0957">
        <ele>101</ele>
        <time>2016-10-30T10:13:29.000Z</time>
      </trkpt>
      <trkpt lat="47.82596" lon="2.09576">
        <ele>101</ele>
        <time>2016-10-30T10:13:30.000Z</time>
      </trkpt>
      <trkpt lat="47.82595" lon="2.09583">
        <ele>101</ele>
        <time>2016-10-30T10:13:31.000Z</time>
      </trkpt>
      <trkpt lat="47.82593" lon="2.09589">
        <ele>101</ele>
        <time>2016-10-30T10:13:32.000Z</time>
      </trkpt>
      <trkpt lat="47.82592" lon="2.09595">
        <ele>101</ele>
        <time>2016-10-30T10:13:33.000Z</time>
      </trkpt>
      <trkpt lat="47.82591" lon="2.09601">
        <ele>101</ele>
        <time>2016-10-30T10:13:34.000Z</time>
      </trkpt>
      <trkpt lat="47.8259" lon="2.09608">
        <ele>101</ele>
        <time>2016-10-30T10:13:35.000Z</time>
      </trkpt>
      <trkpt lat="47.82588" lon="2.09614">
        <ele>101</ele>
        <time>2016-10-30T10:13:36.000Z</time>
      </trkpt>
      <trkpt lat="47.82587" lon="2.0962">
        <ele>101</ele>
        <time>2016-10-30T10:13:37.000Z</time>
      </trkpt>
      <trkpt lat="47.82585" lon="2.09626">
        <ele>101</ele>
        <time>2016-10-30T10:13:38.000Z</time>
      </trkpt>
      <trkpt lat="47.82584" lon="2.09632">
        <ele>101</ele>
        <time>2016-10-30T10:13:39.000Z</time>
      </trkpt>
      <trkpt lat="47.82582" lon="2.09638">
        <ele>101</ele>
        <time>2016-10-30T10:13:40.000Z</time>
      </trkpt>
      <trkpt lat="47.82581" lon="2.09645">
        <ele>101</ele>
        <time>2016-10-30T10:13:41.000Z</time>
      </trkpt>
      <trkpt lat="47.82579" lon="2.09651">
        <ele>101</ele>
        <time>2016-10-30T10:13:42.000Z</time>
      </trkpt>
      <trkpt lat="47.82577" lon="2.09657">
        <ele>101</ele>
        <time>2016-10-30T10:13:43.000Z</time>
      </trkpt>
      <trkpt lat="47.82576" lon="2.09663">
        <ele>101</ele>
        <time>2016-10-30T10:13:44.000Z</time>
      </trkpt>
      <trkpt lat="47.82574" lon="2.09668">
        <ele>101</ele>
        <time>2016-10-30T10:13:45.000Z</time>
      </trkpt>
      <trkpt lat="47.82573" lon="2.09674">
        <ele>101</ele>
        <time>2016-10-30T10:13:46.000Z</time>
      </trkpt>
      <trkpt lat="47.82571" lon="2.0968">
        <ele>101</ele>
        <time>2016-10-30T10:13:47.000Z</time>
      </trkpt>
      <trkpt lat="47.8257" lon="2.09685">
        <ele>101</ele>
        <time>2016-10-30T10:13:48.000Z</time>
      </trkpt>
      <trkpt lat="47.82569" lon="2.0969">
        <ele>101</ele>
        <time>2016-10-30T10:13:49.000Z</time>
      </trkpt>
      <trkpt lat="47.82567" lon="2.09695">
        <ele>101</ele>
        <time>2016-10-30T10:13:50.000Z</time>
      </trkpt>
      <trkpt lat="47.82566" lon="2.09699">
        <ele>101</ele>
        <time>2016-10-30T10:13:51.000Z</time>
      </trkpt>
      <trkpt lat="47.82564" lon="2.09703">
        <ele>101</ele>
        <time>2016-10-30T10:13:52.000Z</time>
      </trkpt>
      <trkpt lat="47.82562" lon="2.09707">
        <ele>101</ele>
        <time>2016-10-30T10:13:53.000Z</time>
      </trkpt>
      <trkpt lat="47.82561" lon="2.09711">
        <ele>101</ele>
        <time>2016-10-30T10:13:54.000Z</time>
      </trkpt>
      <trkpt lat="47.82559" lon="2.09714">
        <ele>101</ele>
        <time>2016-10-30T10:13:55.000Z</time>
      </trkpt>
      <trkpt lat="47.82557" lon="2.09718">
        <ele>101</ele>
        <time>2016-10-30T10:13:56.000Z</time>
      </trkpt>
      <trkpt lat="47.82555" lon="2.09723">
        <ele>101</ele>
        <time>2016-10-30T10:13:57.000Z</time>
      </trkpt>
      <trkpt lat="47.82552" lon="2.09727">
        <ele>102</ele>
        <time>2016-10-30T10:13:58.000Z</time>
      </trkpt>
      <trkpt lat="47.8255" lon="2.09732">
        <ele>102</ele>
        <time>2016-10-30T10:13:59.000Z</time>
      </trkpt>
      <trkpt lat="47.82548" lon="2.09736">
        <ele>102</ele>
        <time>2016-10-30T10:14:00.000Z</time>
      </trkpt>
      <trkpt lat="47.82546" lon="2.09741">
        <ele>102</ele>
        <time>2016-10-30T10:14:01.000Z</time>
      </trkpt>
      <trkpt lat="47.82544" lon="2.09746">
        <ele>102</ele>
        <time>2016-10-30T10:14:02.000Z</time>
      </trkpt>
      <trkpt lat="47.82542" lon="2.0975">
        <ele>101</ele>
        <time>2016-10-30T10:14:03.000Z</time>
      </trkpt>
      <trkpt lat="47.8254" lon="2.09755">
        <ele>102</ele>
        <time>2016-10-30T10:14:04.000Z</time>
      </trkpt>
      <trkpt lat="47.82539" lon="2.0976">
        <ele>102</ele>
        <time>2016-10-30T10:14:05.000Z</time>
      </trkpt>
      <trkpt lat="47.82538" lon="2.09764">
        <ele>102</ele>
        <time>2016-10-30T10:14:06.000Z</time>
      </trkpt>
      <trkpt lat="47.82537" lon="2.09768">
        <ele>102</ele>
        <time>2016-10-30T10:14:07.000Z</time>
      </trkpt>
      <trkpt lat="47.82536" lon="2.09771">
        <ele>102</ele>
        <time>2016-10-30T10:14:08.000Z</time>
      </trkpt>
      <trkpt lat="47.82535" lon="2.09776">
        <ele>102</ele>
        <time>2016-10-30T10:14:09.000Z</time>
      </trkpt>
      <trkpt lat="47.82533" lon="2.0978">
        <ele>102</ele>
        <time>2016-10-30T10:14:10.000Z</time>
      </trkpt>
      <trkpt lat="47.82531" lon="2.09785">
        <ele>102</ele>
        <time>2016-10-30T10:14:11.000Z</time>
      </trkpt>
      <trkpt lat="47.8253" lon="2.0979">
        <ele>102</ele>
        <time>2016-10-30T10:14:12.000Z</time>
      </trkpt>
      <trkpt lat="47.82528" lon="2.09795">
        <ele>102</ele>
        <time>2016-10-30T10:14:13.000Z</time>
      </trkpt>
      <trkpt lat="47.82526" lon="2.09799">
        <ele>102</ele>
        <time>2016-10-30T10:14:14.000Z</time>
      </trkpt>
      <trkpt lat="47.82524" lon="2.09804">
        <ele>102</ele>
        <time>2016-10-30T10:14:15.000Z</time>
      </trkpt>
      <trkpt lat="47.82522" lon="2.09809">
        <ele>102</ele>
        <time>2016-10-30T10:14:16.000Z</time>
      </trkpt>
      <trkpt lat="47.8252" lon="2.09813">
        <ele>102</ele>
        <time>2016-10-30T10:14:17.000Z</time>
      </trkpt>
      <trkpt lat="47.82518" lon="2.09818">
        <ele>102</ele>
        <time>2016-10-30T10:14:18.000Z</time>
      </trkpt>
      <trkpt lat="47.82517" lon="2.09822">
        <ele>102</ele>
        <time>2016-10-30T10:14:19.000Z</time>
      </trkpt>
      <trkpt lat="47.82515" lon="2.09826">
        <ele>102</ele>
        <time>2016-10-30T10:14:20.000Z</time>
      </trkpt>
      <trkpt lat="47.82513" lon="2.09831">
        <ele>102</ele>
        <time>2016-10-30T10:14:21.000Z</time>
      </trkpt>
      <trkpt lat="47.82512" lon="2.09835">
        <ele>102</ele>
        <time>2016-10-30T10:14:22.000Z</time>
      </trkpt>
      <trkpt lat="47.8251" lon="2.0984">
        <ele>102</ele>
        <time>2016-10-30T10:14:23.000Z</time>
      </trkpt>
      <trkpt lat="47.82508" lon="2.09844">
        <ele>102</ele>
        <time>2016-10-30T10:14:24.000Z</time>
      </trkpt>
      <trkpt lat="47.82506" lon="2.09849">
        <ele>102</ele>
        <time>2016-10-30T10:14:25.000Z</time>
      </trkpt>
      <trkpt lat="47.82505" lon="2.09853">
        <ele>102</ele>
        <time>2016-10-30T10:14:26.000Z</time>
      </trkpt>
      <trkpt lat="47.82503" lon="2.09858">
        <ele>102</ele>
        <time>2016-10-30T10:14:27.000Z</time>
      </trkpt>
      <trkpt lat="47.82502" lon="2.09863">
        <ele>102</ele>
        <time>2016-10-30T10:14:28.000Z</time>
      </trkpt>
      <trkpt lat="47.825" lon="2.09867">
        <ele>102</ele>
        <time>2016-10-30T10:14:29.000Z</time>
      </trkpt>
      <trkpt lat="47.82498" lon="2.09872">
        <ele>102</ele>
        <time>2016-10-30T10:14:30.000Z</time>
      </trkpt>
      <trkpt lat="47.82497" lon="2.09877">
        <ele>102</ele>
        <time>2016-10-30T10:14:31.000Z</time>
      </trkpt>
      <trkpt lat="47.82495" lon="2.09882">
        <ele>102</ele>
        <time>2016-10-30T10:14:32.000Z</time>
      </trkpt>
      <trkpt lat="47.82493" lon="2.09887">
        <ele>102</ele>
        <time>2016-10-30T10:14:33.000Z</time>
      </trkpt>
      <trkpt lat="47.8249" lon="2.09892">
        <ele>102</ele>
        <time>2016-10-30T10:14:34.000Z</time>
      </trkpt>
      <trkpt lat="47.82488" lon="2.09898">
        <ele>102</ele>
        <time>2016-10-30T10:14:35.000Z</time>
      </trkpt>
      <trkpt lat="47.82486" lon="2.09904">
        <ele>102</ele>
        <time>2016-10-30T10:14:36.000Z</time>
      </trkpt>
      <trkpt lat="47.82484" lon="2.0991">
        <ele>102</ele>
        <time>2016-10-30T10:14:37.000Z</time>
      </trkpt>
      <trkpt lat="47.82482" lon="2.09916">
        <ele>102</ele>
        <time>2016-10-30T10:14:38.000Z</time>
      </trkpt>
      <trkpt lat="47.8248" lon="2.09921">
        <ele>102</ele>
        <time>2016-10-30T10:14:39.000Z</time>
      </trkpt>
      <trkpt lat="47.82478" lon="2.09927">
        <ele>102</ele>
        <time>2016-10-30T10:14:40.000Z</time>
      </trkpt>
      <trkpt lat="47.82476" lon="2.09933">
        <ele>102</ele>
        <time>2016-10-30T10:14:41.000Z</time>
      </trkpt>
      <trkpt lat="47.82474" lon="2.09939">
        <ele>102</ele>
        <time>2016-10-30T10:14:42.000Z</time>
      </trkpt>
      <trkpt lat="47.82472" lon="2.09945">
        <ele>102</ele>
        <time>2016-10-30T10:14:43.000Z</time>
      </trkpt>
      <trkpt lat="47.8247" lon="2.0995">
        <ele>102</ele>
        <time>2016-10-30T10:14:44.000Z</time>
      </trkpt>
      <trkpt lat="47.82468" lon="2.09955">
        <ele>102</ele>
        <time>2016-10-30T10:14:45.000Z</time>
      </trkpt>
      <trkpt lat="47.82466" lon="2.09961">
        <ele>102</ele>
        <time>2016-10-30T10:14:46.000Z</time>
      </trkpt>
      <trkpt lat="47.82464" lon="2.09965">
        <ele>102</ele>
        <time>2016-10-30T10:14:47.000Z</time>
      </trkpt>
      <trkpt lat="47.82462" lon="2.0997">
        <ele>102</ele>
        <time>2016-10-30T10:14:48.000Z</time>
      </trkpt>
      <trkpt lat="47.8246" lon="2.09975">
        <ele>102</ele>
        <time>2016-10-30T10:14:49.000Z</time>
      </trkpt>
      <trkpt lat="47.82459" lon="2.0998">
        <ele>102</ele>
        <time>2016-10-30T10:14:50.000Z</time>
      </trkpt>
      <trkpt lat="47.82456" lon="2.09986">
        <ele>102</ele>
        <time>2016-10-30T10:14:51.000Z</time>
      </trkpt>
      <trkpt lat="47.82454" lon="2.09992">
        <ele>102</ele>
        <time>2016-10-30T10:14:52.000Z</time>
      </trkpt>
      <trkpt lat="47.82451" lon="2.09998">
        <ele>102</ele>
        <time>2016-10-30T10:14:53.000Z</time>
      </trkpt>
      <trkpt lat="47.82449" lon="2.10004">
        <ele>102</ele>
        <time>2016-10-30T10:14:54.000Z</time>
      </trkpt>
      <trkpt lat="47.82446" lon="2.1001">
        <ele>102</ele>
        <time>2016-10-30T10:14:55.000Z</time>
      </trkpt>
      <trkpt lat="47.82444" lon="2.10016">
        <ele>102</ele>
        <time>2016-10-30T10:14:56.000Z</time>
      </trkpt>
      <trkpt lat="47.82441" lon="2.10022">
        <ele>102</ele>
        <time>2016-10-30T10:14:57.000Z</time>
      </trkpt>
      <trkpt lat="47.82439" lon="2.10028">
        <ele>102</ele>
        <time>2016-10-30T10:14:58.000Z</time>
      </trkpt>
      <trkpt lat="47.82436" lon="2.10034">
        <ele>102</ele>
        <time>2016-10-30T10:14:59.000Z</time>
      </trkpt>
      <trkpt lat="47.82433" lon="2.10039">
        <ele>102</ele>
        <time>2016-10-30T10:15:00.000Z</time>
      </trkpt>
      <trkpt lat="47.8243" lon="2.10044">
        <ele>102</ele>
        <time>2016-10-30T10:15:01.000Z</time>
      </trkpt>
      <trkpt lat="47.82427" lon="2.1005">
        <ele>102</ele>
        <time>2016-10-30T10:15:02.000Z</time>
      </trkpt>
      <trkpt lat="47.82424" lon="2.10056">
        <ele>102</ele>
        <time>2016-10-30T10:15:03.000Z</time>
      </trkpt>
      <trkpt lat="47.82422" lon="2.10062">
        <ele>102</ele>
        <time>2016-10-30T10:15:04.000Z</time>
      </trkpt>
      <trkpt lat="47.82419" lon="2.10068">
        <ele>102</ele>
        <time>2016-10-30T10:15:05.000Z</time>
      </trkpt>
      <trkpt lat="47.82416" lon="2.10075">
        <ele>102</ele>
        <time>2016-10-30T10:15:06.000Z</time>
      </trkpt>
      <trkpt lat="47.82412" lon="2.10081">
        <ele>102</ele>
        <time>2016-10-30T10:15:07.000Z</time>
      </trkpt>
      <trkpt lat="47.82409" lon="2.10086">
        <ele>102</ele>
        <time>2016-10-30T10:15:08.000Z</time>
      </trkpt>
      <trkpt lat="47.82406" lon="2.10092">
        <ele>102</ele>
        <time>2016-10-30T10:15:09.000Z</time>
      </trkpt>
      <trkpt lat="47.82403" lon="2.10097">
        <ele>102</ele>
        <time>2016-10-30T10:15:10.000Z</time>
      </trkpt>
      <trkpt lat="47.824" lon="2.10103">
        <ele>102</ele>
        <time>2016-10-30T10:15:11.000Z</time>
      </trkpt>
      <trkpt lat="47.82397" lon="2.10108">
        <ele>102</ele>
        <time>2016-10-30T10:15:12.000Z</time>
      </trkpt>
      <trkpt lat="47.82394" lon="2.10113">
        <ele>103</ele>
        <time>2016-10-30T10:15:13.000Z</time>
      </trkpt>
      <trkpt lat="47.82392" lon="2.10118">
        <ele>103</ele>
        <time>2016-10-30T10:15:14.000Z</time>
      </trkpt>
      <trkpt lat="47.82389" lon="2.10123">
        <ele>103</ele>
        <time>2016-10-30T10:15:15.000Z</time>
      </trkpt>
      <trkpt lat="47.82386" lon="2.10128">
        <ele>103</ele>
        <time>2016-10-30T10:15:16.000Z</time>
      </trkpt>
      <trkpt lat="47.82383" lon="2.10134">
        <ele>103</ele>
        <time>2016-10-30T10:15:17.000Z</time>
      </trkpt>
      <trkpt lat="47.8238" lon="2.10139">
        <ele>102</ele>
        <time>2016-10-30T10:15:18.000Z</time>
      </trkpt>
      <trkpt lat="47.82377" lon="2.10144">
        <ele>102</ele>
        <time>2016-10-30T10:15:19.000Z</time>
      </trkpt>
      <trkpt lat="47.82374" lon="2.10149">
        <ele>102</ele>
        <time>2016-10-30T10:15:20.000Z</time>
      </trkpt>
      <trkpt lat="47.82371" lon="2.10155">
        <ele>102</ele>
        <time>2016-10-30T10:15:21.000Z</time>
      </trkpt>
      <trkpt lat="47.82367" lon="2.1016">
        <ele>102</ele>
        <time>2016-10-30T10:15:22.000Z</time>
      </trkpt>
      <trkpt lat="47.82364" lon="2.10165">
        <ele>102</ele>
        <time>2016-10-30T10:15:23.000Z</time>
      </trkpt>
      <trkpt lat="47.8236" lon="2.1017">
        <ele>102</ele>
        <time>2016-10-30T10:15:24.000Z</time>
      </trkpt>
      <trkpt lat="47.82357" lon="2.10175">
        <ele>102</ele>
        <time>2016-10-30T10:15:25.000Z</time>
      </trkpt>
      <trkpt lat="47.82353" lon="2.1018">
        <ele>102</ele>
        <time>2016-10-30T10:15:26.000Z</time>
      </trkpt>
      <trkpt lat="47.8235" lon="2.10185">
        <ele>102</ele>
        <time>2016-10-30T10:15:27.000Z</time>
      </trkpt>
      <trkpt lat="47.82346" lon="2.1019">
        <ele>102</ele>
        <time>2016-10-30T10:15:28.000Z</time>
      </trkpt>
      <trkpt lat="47.82343" lon="2.10195">
        <ele>102</ele>
        <time>2016-10-30T10:15:29.000Z</time>
      </trkpt>
      <trkpt lat="47.82339" lon="2.102">
        <ele>102</ele>
        <time>2016-10-30T10:15:30.000Z</time>
      </trkpt>
      <trkpt lat="47.82335" lon="2.10205">
        <ele>102</ele>
        <time>2016-10-30T10:15:31.000Z</time>
      </trkpt>
      <trkpt lat="47.82332" lon="2.1021">
        <ele>102</ele>
        <time>2016-10-30T10:15:32.000Z</time>
      </trkpt>
      <trkpt lat="47.82328" lon="2.10215">
        <ele>102</ele>
        <time>2016-10-30T10:15:33.000Z</time>
      </trkpt>
      <trkpt lat="47.82325" lon="2.10221">
        <ele>102</ele>
        <time>2016-10-30T10:15:34.000Z</time>
      </trkpt>
      <trkpt lat="47.82321" lon="2.10226">
        <ele>102</ele>
        <time>2016-10-30T10:15:35.000Z</time>
      </trkpt>
      <trkpt lat="47.82317" lon="2.10231">
        <ele>102</ele>
        <time>2016-10-30T10:15:36.000Z</time>
      </trkpt>
      <trkpt lat="47.82313" lon="2.10236">
        <ele>102</ele>
        <time>2016-10-30T10:15:37.000Z</time>
      </trkpt>
      <trkpt lat="47.8231" lon="2.10241">
        <ele>102</ele>
        <time>2016-10-30T10:15:38.000Z</time>
      </trkpt>
      <trkpt lat="47.82306" lon="2.10246">
        <ele>102</ele>
        <time>2016-10-30T10:15:39.000Z</time>
      </trkpt>
      <trkpt lat="47.82303" lon="2.10251">
        <ele>102</ele>
        <time>2016-10-30T10:15:40.000Z</time>
      </trkpt>
      <trkpt lat="47.82299" lon="2.10256">
        <ele>102</ele>
        <time>2016-10-30T10:15:41.000Z</time>
      </trkpt>
      <trkpt lat="47.82295" lon="2.10261">
        <ele>102</ele>
        <time>2016-10-30T10:15:42.000Z</time>
      </trkpt>
      <trkpt lat="47.82292" lon="2.10266">
        <ele>102</ele>
        <time>2016-10-30T10:15:43.000Z</time>
      </trkpt>
      <trkpt lat="47.82288" lon="2.10271">
        <ele>102</ele>
        <time>2016-10-30T10:15:44.000Z</time>
      </trkpt>
      <trkpt lat="47.82284" lon="2.10276">
        <ele>102</ele>
        <time>2016-10-30T10:15:45.000Z</time>
      </trkpt>
      <trkpt lat="47.82281" lon="2.10281">
        <ele>102</ele>
        <time>2016-10-30T10:15:46.000Z</time>
      </trkpt>
      <trkpt lat="47.82277" lon="2.10286">
        <ele>102</ele>
        <time>2016-10-30T10:15:47.000Z</time>
      </trkpt>
      <trkpt lat="47.82273" lon="2.10291">
        <ele>102</ele>
        <time>2016-10-30T10:15:48.000Z</time>
      </trkpt>
      <trkpt lat="47.82269" lon="2.10296">
        <ele>102</ele>
        <time>2016-10-30T10:15:49.000Z</time>
      </trkpt>
      <trkpt lat="47.82266" lon="2.10302">
        <ele>102</ele>
        <time>2016-10-30T10:15:50.000Z</time>
      </trkpt>
      <trkpt lat="47.82262" lon="2.10307">
        <ele>102</ele>
        <time>2016-10-30T10:15:51.000Z</time>
      </trkpt>
      <trkpt lat="47.82258" lon="2.10313">
        <ele>102</ele>
        <time>2016-10-30T10:15:52.000Z</time>
      </trkpt>
      <trkpt lat="47.82254" lon="2.10318">
        <ele>102</ele>
        <time>2016-10-30T10:15:53.000Z</time>
      </trkpt>
      <trkpt lat="47.8225" lon="2.10323">
        <ele>102</ele>
        <time>2016-10-30T10:15:54.000Z</time>
      </trkpt>
      <trkpt lat="47.82246" lon="2.10329">
        <ele>102</ele>
        <time>2016-10-30T10:15:55.000Z</time>
      </trkpt>
      <trkpt lat="47.82242" lon="2.10335">
        <ele>102</ele>
        <time>2016-10-30T10:15:56.000Z</time>
      </trkpt>
      <trkpt lat="47.82238" lon="2.1034">
        <ele>102</ele>
        <time>2016-10-30T10:15:57.000Z</time>
      </trkpt>
      <trkpt lat="47.82234" lon="2.10346">
        <ele>102</ele>
        <time>2016-10-30T10:15:58.000Z</time>
      </trkpt>
      <trkpt lat="47.8223" lon="2.10351">
        <ele>102</ele>
        <time>2016-10-30T10:15:59.000Z</time>
      </trkpt>
      <trkpt lat="47.82227" lon="2.10356">
        <ele>102</ele>
        <time>2016-10-30T10:16:00.000Z</time>
      </trkpt>
      <trkpt lat="47.82223" lon="2.10362">
        <ele>102</ele>
        <time>2016-10-30T10:16:01.000Z</time>
      </trkpt>
      <trkpt lat="47.82219" lon="2.10367">
        <ele>102</ele>
        <time>2016-10-30T10:16:02.000Z</time>
      </trkpt>
      <trkpt lat="47.82215" lon="2.10373">
        <ele>102</ele>
        <time>2016-10-30T10:16:03.000Z</time>
      </trkpt>
      <trkpt lat="47.82211" lon="2.10378">
        <ele>102</ele>
        <time>2016-10-30T10:16:04.000Z</time>
      </trkpt>
      <trkpt lat="47.82207" lon="2.10384">
        <ele>102</ele>
        <time>2016-10-30T10:16:05.000Z</time>
      </trkpt>
      <trkpt lat="47.82203" lon="2.10389">
        <ele>102</ele>
        <time>2016-10-30T10:16:06.000Z</time>
      </trkpt>
      <trkpt lat="47.82199" lon="2.10394">
        <ele>102</ele>
        <time>2016-10-30T10:16:07.000Z</time>
      </trkpt>
      <trkpt lat="47.82195" lon="2.10399">
        <ele>102</ele>
        <time>2016-10-30T10:16:08.000Z</time>
      </trkpt>
      <trkpt lat="47.82192" lon="2.10404">
        <ele>102</ele>
        <time>2016-10-30T10:16:09.000Z</time>
      </trkpt>
      <trkpt lat="47.82189" lon="2.10408">
        <ele>102</ele>
        <time>2016-10-30T10:16:10.000Z</time>
      </trkpt>
      <trkpt lat="47.82185" lon="2.10413">
        <ele>102</ele>
        <time>2016-10-30T10:16:11.000Z</time>
      </trkpt>
      <trkpt lat="47.82182" lon="2.10418">
        <ele>102</ele>
        <time>2016-10-30T10:16:12.000Z</time>
      </trkpt>
      <trkpt lat="47.82178" lon="2.10423">
        <ele>102</ele>
        <time>2016-10-30T10:16:13.000Z</time>
      </trkpt>
      <trkpt lat="47.82175" lon="2.10428">
        <ele>102</ele>
        <time>2016-10-30T10:16:14.000Z</time>
      </trkpt>
      <trkpt lat="47.82171" lon="2.10432">
        <ele>102</ele>
        <time>2016-10-30T10:16:15.000Z</time>
      </trkpt>
      <trkpt lat="47.82168" lon="2.10437">
        <ele>102</ele>
        <time>2016-10-30T10:16:16.000Z</time>
      </trkpt>
      <trkpt lat="47.82165" lon="2.10441">
        <ele>102</ele>
        <time>2016-10-30T10:16:17.000Z</time>
      </trkpt>
      <trkpt lat="47.82163" lon="2.10445">
        <ele>102</ele>
        <time>2016-10-30T10:16:18.000Z</time>
      </trkpt>
      <trkpt lat="47.8216" lon="2.10449">
        <ele>102</ele>
        <time>2016-10-30T10:16:19.000Z</time>
      </trkpt>
      <trkpt lat="47.82158" lon="2.10452">
        <ele>102</ele>
        <time>2016-10-30T10:16:20.000Z</time>
      </trkpt>
      <trkpt lat="47.82155" lon="2.10456">
        <ele>102</ele>
        <time>2016-10-30T10:16:21.000Z</time>
      </trkpt>
      <trkpt lat="47.82153" lon="2.10459">
        <ele>102</ele>
        <time>2016-10-30T10:16:22.000Z</time>
      </trkpt>
      <trkpt lat="47.82151" lon="2.10462">
        <ele>102</ele>
        <time>2016-10-30T10:16:23.000Z</time>
      </trkpt>
      <trkpt lat="47.82148" lon="2.10465">
        <ele>102</ele>
        <time>2016-10-30T10:16:24.000Z</time>
      </trkpt>
      <trkpt lat="47.82146" lon="2.10468">
        <ele>102</ele>
        <time>2016-10-30T10:16:25.000Z</time>
      </trkpt>
      <trkpt lat="47.82143" lon="2.10472">
        <ele>102</ele>
        <time>2016-10-30T10:16:26.000Z</time>
      </trkpt>
      <trkpt lat="47.8214" lon="2.10475">
        <ele>102</ele>
        <time>2016-10-30T10:16:27.000Z</time>
      </trkpt>
      <trkpt lat="47.82137" lon="2.10479">
        <ele>102</ele>
        <time>2016-10-30T10:16:28.000Z</time>
      </trkpt>
      <trkpt lat="47.82135" lon="2.10483">
        <ele>102</ele>
        <time>2016-10-30T10:16:29.000Z</time>
      </trkpt>
      <trkpt lat="47.82132" lon="2.10487">
        <ele>102</ele>
        <time>2016-10-30T10:16:30.000Z</time>
      </trkpt>
      <trkpt lat="47.82129" lon="2.10491">
        <ele>102</ele>
        <time>2016-10-30T10:16:31.000Z</time>
      </trkpt>
      <trkpt lat="47.82126" lon="2.10495">
        <ele>102</ele>
        <time>2016-10-30T10:16:32.000Z</time>
      </trkpt>
      <trkpt lat="47.82123" lon="2.10498">
        <ele>102</ele>
        <time>2016-10-30T10:16:33.000Z</time>
      </trkpt>
      <trkpt lat="47.8212" lon="2.10502">
        <ele>102</ele>
        <time>2016-10-30T10:16:34.000Z</time>
      </trkpt>
      <trkpt lat="47.82117" lon="2.10506">
        <ele>102</ele>
        <time>2016-10-30T10:16:35.000Z</time>
      </trkpt>
      <trkpt lat="47.82115" lon="2.1051">
        <ele>102</ele>
        <time>2016-10-30T10:16:36.000Z</time>
      </trkpt>
      <trkpt lat="47.82112" lon="2.10514">
        <ele>102</ele>
        <time>2016-10-30T10:16:37.000Z</time>
      </trkpt>
      <trkpt lat="47.82109" lon="2.10518">
        <ele>102</ele>
        <time>2016-10-30T10:16:38.000Z</time>
      </trkpt>
      <trkpt lat="47.82105" lon="2.10522">
        <ele>102</ele>
        <time>2016-10-30T10:16:39.000Z</time>
      </trkpt>
      <trkpt lat="47.82102" lon="2.10527">
        <ele>102</ele>
        <time>2016-10-30T10:16:40.000Z</time>
      </trkpt>
      <trkpt lat="47.82099" lon="2.10531">
        <ele>102</ele>
        <time>2016-10-30T10:16:41.000Z</time>
      </trkpt>
      <trkpt lat="47.82096" lon="2.10536">
        <ele>102</ele>
        <time>2016-10-30T10:16:42.000Z</time>
      </trkpt>
      <trkpt lat="47.82093" lon="2.1054">
        <ele>102</ele>
        <time>2016-10-30T10:16:43.000Z</time>
      </trkpt>
      <trkpt lat="47.82089" lon="2.10544">
        <ele>102</ele>
        <time>2016-10-30T10:16:44.000Z</time>
      </trkpt>
      <trkpt lat="47.82086" lon="2.10549">
        <ele>102</ele>
        <time>2016-10-30T10:16:45.000Z</time>
      </trkpt>
      <trkpt lat="47.82083" lon="2.10553">
        <ele>102</ele>
        <time>2016-10-30T10:16:46.000Z</time>
      </trkpt>
      <trkpt lat="47.8208" lon="2.10558">
        <ele>102</ele>
        <time>2016-10-30T10:16:47.000Z</time>
      </trkpt>
      <trkpt lat="47.82077" lon="2.10562">
        <ele>102</ele>
        <time>2016-10-30T10:16:48.000Z</time>
      </trkpt>
      <trkpt lat="47.82074" lon="2.10566">
        <ele>102</ele>
        <time>2016-10-30T10:16:49.000Z</time>
      </trkpt>
      <trkpt lat="47.82071" lon="2.1057">
        <ele>102</ele>
        <time>2016-10-30T10:16:50.000Z</time>
      </trkpt>
      <trkpt lat="47.82068" lon="2.10574">
        <ele>102</ele>
        <time>2016-10-30T10:16:51.000Z</time>
      </trkpt>
      <trkpt lat="47.82065" lon="2.10577">
        <ele>102</ele>
        <time>2016-10-30T10:16:52.000Z</time>
      </trkpt>
      <trkpt lat="47.82062" lon="2.10581">
        <ele>102</ele>
        <time>2016-10-30T10:16:53.000Z</time>
      </trkpt>
      <trkpt lat="47.82059" lon="2.10586">
        <ele>102</ele>
        <time>2016-10-30T10:16:54.000Z</time>
      </trkpt>
      <trkpt lat="47.82056" lon="2.1059">
        <ele>102</ele>
        <time>2016-10-30T10:16:55.000Z</time>
      </trkpt>
      <trkpt lat="47.82053" lon="2.10594">
        <ele>102</ele>
        <time>2016-10-30T10:16:56.000Z</time>
      </trkpt>
      <trkpt lat="47.8205" lon="2.10599">
        <ele>102</ele>
        <time>2016-10-30T10:16:57.000Z</time>
      </trkpt>
      <trkpt lat="47.82046" lon="2.10603">
        <ele>102</ele>
        <time>2016-10-30T10:16:58.000Z</time>
      </trkpt>
      <trkpt lat="47.82043" lon="2.10608">
        <ele>102</ele>
        <time>2016-10-30T10:16:59.000Z</time>
      </trkpt>
      <trkpt lat="47.8204" lon="2.10612">
        <ele>102</ele>
        <time>2016-10-30T10:17:00.000Z</time>
      </trkpt>
      <trkpt lat="47.82036" lon="2.10617">
        <ele>102</ele>
        <time>2016-10-30T10:17:01.000Z</time>
      </trkpt>
      <trkpt lat="47.82033" lon="2.10622">
        <ele>102</ele>
        <time>2016-10-30T10:17:02.000Z</time>
      </trkpt>
      <trkpt lat="47.8203" lon="2.10626">
        <ele>102</ele>
        <time>2016-10-30T10:17:03.000Z</time>
      </trkpt>
      <trkpt lat="47.82026" lon="2.10631">
        <ele>102</ele>
        <time>2016-10-30T10:17:04.000Z</time>
      </trkpt>
      <trkpt lat="47.82023" lon="2.10636">
        <ele>102</ele>
        <time>2016-10-30T10:17:05.000Z</time>
      </trkpt>
      <trkpt lat="47.82019" lon="2.10641">
        <ele>102</ele>
        <time>2016-10-30T10:17:06.000Z</time>
      </trkpt>
      <trkpt lat="47.82016" lon="2.10645">
        <ele>102</ele>
        <time>2016-10-30T10:17:07.000Z</time>
      </trkpt>
      <trkpt lat="47.82013" lon="2.1065">
        <ele>102</ele>
        <time>2016-10-30T10:17:08.000Z</time>
      </trkpt>
      <trkpt lat="47.82009" lon="2.10654">
        <ele>102</ele>
        <time>2016-10-30T10:17:09.000Z</time>
      </trkpt>
      <trkpt lat="47.82006" lon="2.10659">
        <ele>102</ele>
        <time>2016-10-30T10:17:10.000Z</time>
      </trkpt>
      <trkpt lat="47.82002" lon="2.10663">
        <ele>102</ele>
        <time>2016-10-30T10:17:11.000Z</time>
      </trkpt>
      <trkpt lat="47.81999" lon="2.10668">
        <ele>102</ele>
        <time>2016-10-30T10:17:12.000Z</time>
      </trkpt>
      <trkpt lat="47.81995" lon="2.10673">
        <ele>102</ele>
        <time>2016-10-30T10:17:13.000Z</time>
      </trkpt>
      <trkpt lat="47.81992" lon="2.10677">
        <ele>102</ele>
        <time>2016-10-30T10:17:14.000Z</time>
      </trkpt>
      <trkpt lat="47.81989" lon="2.10681">
        <ele>103</ele>
        <time>2016-10-30T10:17:15.000Z</time>
      </trkpt>
      <trkpt lat="47.81986" lon="2.10685">
        <ele>103</ele>
        <time>2016-10-30T10:17:16.000Z</time>
      </trkpt>
      <trkpt lat="47.81983" lon="2.1069">
        <ele>103</ele>
        <time>2016-10-30T10:17:17.000Z</time>
      </trkpt>
      <trkpt lat="47.8198" lon="2.10694">
        <ele>103</ele>
        <time>2016-10-30T10:17:18.000Z</time>
      </trkpt>
      <trkpt lat="47.81977" lon="2.10698">
        <ele>103</ele>
        <time>2016-10-30T10:17:19.000Z</time>
      </trkpt>
      <trkpt lat="47.81974" lon="2.10703">
        <ele>103</ele>
        <time>2016-10-30T10:17:20.000Z</time>
      </trkpt>
      <trkpt lat="47.8197" lon="2.10707">
        <ele>103</ele>
        <time>2016-10-30T10:17:21.000Z</time>
      </trkpt>
      <trkpt lat="47.81967" lon="2.10712">
        <ele>103</ele>
        <time>2016-10-30T10:17:22.000Z</time>
      </trkpt>
      <trkpt lat="47.81964" lon="2.10717">
        <ele>103</ele>
        <time>2016-10-30T10:17:23.000Z</time>
      </trkpt>
      <trkpt lat="47.8196" lon="2.10722">
        <ele>103</ele>
        <time>2016-10-30T10:17:24.000Z</time>
      </trkpt>
      <trkpt lat="47.81957" lon="2.10727">
        <ele>103</ele>
        <time>2016-10-30T10:17:25.000Z</time>
      </trkpt>
      <trkpt lat="47.81954" lon="2.10732">
        <ele>103</ele>
        <time>2016-10-30T10:17:26.000Z</time>
      </trkpt>
      <trkpt lat="47.81951" lon="2.10737">
        <ele>103</ele>
        <time>2016-10-30T10:17:27.000Z</time>
      </trkpt>
      <trkpt lat="47.81948" lon="2.10742">
        <ele>103</ele>
        <time>2016-10-30T10:17:28.000Z</time>
      </trkpt>
      <trkpt lat="47.81946" lon="2.10748">
        <ele>103</ele>
        <time>2016-10-30T10:17:29.000Z</time>
      </trkpt>
      <trkpt lat="47.81943" lon="2.10753">
        <ele>103</ele>
        <time>2016-10-30T10:17:30.000Z</time>
      </trkpt>
      <trkpt lat="47.81941" lon="2.10759">
        <ele>103</ele>
        <time>2016-10-30T10:17:31.000Z</time>
      </trkpt>
      <trkpt lat="47.81938" lon="2.10765">
        <ele>103</ele>
        <time>2016-10-30T10:17:32.000Z</time>
      </trkpt>
      <trkpt lat="47.81936" lon="2.10771">
        <ele>103</ele>
        <time>2016-10-30T10:17:33.000Z</time>
      </trkpt>
      <trkpt lat="47.81934" lon="2.10777">
        <ele>103</ele>
        <time>2016-10-30T10:17:34.000Z</time>
      </trkpt>
      <trkpt lat="47.81933" lon="2.10784">
        <ele>103</ele>
        <time>2016-10-30T10:17:35.000Z</time>
      </trkpt>
      <trkpt lat="47.81931" lon="2.1079">
        <ele>103</ele>
        <time>2016-10-30T10:17:36.000Z</time>
      </trkpt>
      <trkpt lat="47.81929" lon="2.10797">
        <ele>103</ele>
        <time>2016-10-30T10:17:37.000Z</time>
      </trkpt>
      <trkpt lat="47.81927" lon="2.10804">
        <ele>103</ele>
        <time>2016-10-30T10:17:38.000Z</time>
      </trkpt>
      <trkpt lat="47.81925" lon="2.10811">
        <ele>103</ele>
        <time>2016-10-30T10:17:39.000Z</time>
      </trkpt>
      <trkpt lat="47.81924" lon="2.10817">
        <ele>103</ele>
        <time>2016-10-30T10:17:40.000Z</time>
      </trkpt>
      <trkpt lat="47.81923" lon="2.10823">
        <ele>103</ele>
        <time>2016-10-30T10:17:41.000Z</time>
      </trkpt>
      <trkpt lat="47.81921" lon="2.10829">
        <ele>103</ele>
        <time>2016-10-30T10:17:42.000Z</time>
      </trkpt>
      <trkpt lat="47.8192" lon="2.10836">
        <ele>103</ele>
        <time>2016-10-30T10:17:43.000Z</time>
      </trkpt>
      <trkpt lat="47.81918" lon="2.10842">
        <ele>103</ele>
        <time>2016-10-30T10:17:44.000Z</time>
      </trkpt>
      <trkpt lat="47.81917" lon="2.10848">
        <ele>103</ele>
        <time>2016-10-30T10:17:45.000Z</time>
      </trkpt>
      <trkpt lat="47.81915" lon="2.10855">
        <ele>103</ele>
        <time>2016-10-30T10:17:46.000Z</time>
      </trkpt>
      <trkpt lat="47.81914" lon="2.10861">
        <ele>103</ele>
        <time>2016-10-30T10:17:47.000Z</time>
      </trkpt>
      <trkpt lat="47.81913" lon="2.10867">
        <ele>103</ele>
        <time>2016-10-30T10:17:48.000Z</time>
      </trkpt>
      <trkpt lat="47.81911" lon="2.10874">
        <ele>103</ele>
        <time>2016-10-30T10:17:49.000Z</time>
      </trkpt>
      <trkpt lat="47.8191" lon="2.1088">
        <ele>103</ele>
        <time>2016-10-30T10:17:50.000Z</time>
      </trkpt>
      <trkpt lat="47.81908" lon="2.10887">
        <ele>103</ele>
        <time>2016-10-30T10:17:51.000Z</time>
      </trkpt>
      <trkpt lat="47.81906" lon="2.10893">
        <ele>103</ele>
        <time>2016-10-30T10:17:52.000Z</time>
      </trkpt>
      <trkpt lat="47.81905" lon="2.109">
        <ele>103</ele>
        <time>2016-10-30T10:17:53.000Z</time>
      </trkpt>
      <trkpt lat="47.81903" lon="2.10906">
        <ele>103</ele>
        <time>2016-10-30T10:17:54.000Z</time>
      </trkpt>
      <trkpt lat="47.81901" lon="2.10913">
        <ele>103</ele>
        <time>2016-10-30T10:17:55.000Z</time>
      </trkpt>
      <trkpt lat="47.81899" lon="2.10919">
        <ele>103</ele>
        <time>2016-10-30T10:17:56.000Z</time>
      </trkpt>
      <trkpt lat="47.81897" lon="2.10926">
        <ele>103</ele>
        <time>2016-10-30T10:17:57.000Z</time>
      </trkpt>
      <trkpt lat="47.81895" lon="2.10932">
        <ele>103</ele>
        <time>2016-10-30T10:17:58.000Z</time>
      </trkpt>
      <trkpt lat="47.81893" lon="2.10939">
        <ele>103</ele>
        <time>2016-10-30T10:17:59.000Z</time>
      </trkpt>
      <trkpt lat="47.81891" lon="2.10946">
        <ele>103</ele>
        <time>2016-10-30T10:18:00.000Z</time>
      </trkpt>
      <trkpt lat="47.81889" lon="2.10952">
        <ele>103</ele>
        <time>2016-10-30T10:18:01.000Z</time>
      </trkpt>
      <trkpt lat="47.81887" lon="2.10958">
        <ele>103</ele>
        <time>2016-10-30T10:18:02.000Z</time>
      </trkpt>
      <trkpt lat="47.81885" lon="2.10965">
        <ele>102</ele>
        <time>2016-10-30T10:18:03.000Z</time>
      </trkpt>
      <trkpt lat="47.81882" lon="2.10971">
        <ele>102</ele>
        <time>2016-10-30T10:18:04.000Z</time>
      </trkpt>
      <trkpt lat="47.8188" lon="2.10977">
        <ele>102</ele>
        <time>2016-10-30T10:18:05.000Z</time>
      </trkpt>
      <trkpt lat="47.81878" lon="2.10984">
        <ele>103</ele>
        <time>2016-10-30T10:18:06.000Z</time>
      </trkpt>
      <trkpt lat="47.81875" lon="2.10991">
        <ele>103</ele>
        <time>2016-10-30T10:18:07.000Z</time>
      </trkpt>
      <trkpt lat="47.81873" lon="2.10998">
        <ele>103</ele>
        <time>2016-10-30T10:18:08.000Z</time>
      </trkpt>
      <trkpt lat="47.8187" lon="2.11004">
        <ele>103</ele>
        <time>2016-10-30T10:18:09.000Z</time>
      </trkpt>
      <trkpt lat="47.81868" lon="2.11011">
        <ele>103</ele>
        <time>2016-10-30T10:18:10.000Z</time>
      </trkpt>
      <trkpt lat="47.81866" lon="2.11018">
        <ele>103</ele>
        <time>2016-10-30T10:18:11.000Z</time>
      </trkpt>
      <trkpt lat="47.81863" lon="2.11025">
        <ele>103</ele>
        <time>2016-10-30T10:18:12.000Z</time>
      </trkpt>
      <trkpt lat="47.81861" lon="2.11031">
        <ele>103</ele>
        <time>2016-10-30T10:18:13.000Z</time>
      </trkpt>
      <trkpt lat="47.81858" lon="2.11038">
        <ele>103</ele>
        <time>2016-10-30T10:18:14.000Z</time>
      </trkpt>
      <trkpt lat="47.81856" lon="2.11045">
        <ele>103</ele>
        <time>2016-10-30T10:18:15.000Z</time>
      </trkpt>
      <trkpt lat="47.81853" lon="2.11051">
        <ele>103</ele>
        <time>2016-10-30T10:18:16.000Z</time>
      </trkpt>
      <trkpt lat="47.81851" lon="2.11058">
        <ele>103</ele>
        <time>2016-10-30T10:18:17.000Z</time>
      </trkpt>
      <trkpt lat="47.81848" lon="2.11064">
        <ele>103</ele>
        <time>2016-10-30T10:18:18.000Z</time>
      </trkpt>
      <trkpt lat="47.81846" lon="2.11071">
        <ele>103</ele>
        <time>2016-10-30T10:18:19.000Z</time>
      </trkpt>
      <trkpt lat="47.81843" lon="2.11078">
        <ele>103</ele>
        <time>2016-10-30T10:18:20.000Z</time>
      </trkpt>
      <trkpt lat="47.81841" lon="2.11084">
        <ele>103</ele>
        <time>2016-10-30T10:18:21.000Z</time>
      </trkpt>
      <trkpt lat="47.81839" lon="2.11091">
        <ele>103</ele>
        <time>2016-10-30T10:18:22.000Z</time>
      </trkpt>
      <trkpt lat="47.81836" lon="2.11097">
        <ele>103</ele>
        <time>2016-10-30T10:18:23.000Z</time>
      </trkpt>
      <trkpt lat="47.81834" lon="2.11104">
        <ele>103</ele>
        <time>2016-10-30T10:18:24.000Z</time>
      </trkpt>
      <trkpt lat="47.81831" lon="2.1111">
        <ele>103</ele>
        <time>2016-10-30T10:18:25.000Z</time>
      </trkpt>
      <trkpt lat="47.81829" lon="2.11116">
        <ele>103</ele>
        <time>2016-10-30T10:18:26.000Z</time>
      </trkpt>
      <trkpt lat="47.81826" lon="2.11123">
        <ele>103</ele>
        <time>2016-10-30T10:18:27.000Z</time>
      </trkpt>
      <trkpt lat="47.81824" lon="2.11129">
        <ele>104</ele>
        <time>2016-10-30T10:18:28.000Z</time>
      </trkpt>
      <trkpt lat="47.81821" lon="2.11136">
        <ele>104</ele>
        <time>2016-10-30T10:18:29.000Z</time>
      </trkpt>
      <trkpt lat="47.81819" lon="2.11142">
        <ele>104</ele>
        <time>2016-10-30T10:18:30.000Z</time>
      </trkpt>
      <trkpt lat="47.81816" lon="2.11149">
        <ele>104</ele>
        <time>2016-10-30T10:18:31.000Z</time>
      </trkpt>
      <trkpt lat="47.81814" lon="2.11155">
        <ele>104</ele>
        <time>2016-10-30T10:18:32.000Z</time>
      </trkpt>
      <trkpt lat="47.81811" lon="2.11162">
        <ele>103</ele>
        <time>2016-10-30T10:18:33.000Z</time>
      </trkpt>
      <trkpt lat="47.81809" lon="2.11168">
        <ele>103</ele>
        <time>2016-10-30T10:18:34.000Z</time>
      </trkpt>
      <trkpt lat="47.81806" lon="2.11175">
        <ele>104</ele>
        <time>2016-10-30T10:18:35.000Z</time>
      </trkpt>
      <trkpt lat="47.81804" lon="2.11182">
        <ele>104</ele>
        <time>2016-10-30T10:18:36.000Z</time>
      </trkpt>
      <trkpt lat="47.81801" lon="2.11189">
        <ele>104</ele>
        <time>2016-10-30T10:18:37.000Z</time>
      </trkpt>
      <trkpt lat="47.81798" lon="2.11195">
        <ele>103</ele>
        <time>2016-10-30T10:18:38.000Z</time>
      </trkpt>
      <trkpt lat="47.81795" lon="2.11202">
        <ele>103</ele>
        <time>2016-10-30T10:18:39.000Z</time>
      </trkpt>
      <trkpt lat="47.81793" lon="2.11209">
        <ele>104</ele>
        <time>2016-10-30T10:18:40.000Z</time>
      </trkpt>
      <trkpt lat="47.8179" lon="2.11216">
        <ele>104</ele>
        <time>2016-10-30T10:18:41.000Z</time>
      </trkpt>
      <trkpt lat="47.81787" lon="2.11222">
        <ele>104</ele>
        <time>2016-10-30T10:18:42.000Z</time>
      </trkpt>
      <trkpt lat="47.81785" lon="2.11229">
        <ele>104</ele>
        <time>2016-10-30T10:18:43.000Z</time>
      </trkpt>
      <trkpt lat="47.81782" lon="2.11235">
        <ele>104</ele>
        <time>2016-10-30T10:18:44.000Z</time>
      </trkpt>
      <trkpt lat="47.81779" lon="2.11242">
        <ele>104</ele>
        <time>2016-10-30T10:18:45.000Z</time>
      </trkpt>
      <trkpt lat="47.81777" lon="2.11249">
        <ele>104</ele>
        <time>2016-10-30T10:18:46.000Z</time>
      </trkpt>
      <trkpt lat="47.81774" lon="2.11256">
        <ele>104</ele>
        <time>2016-10-30T10:18:47.000Z</time>
      </trkpt>
      <trkpt lat="47.81772" lon="2.11263">
        <ele>104</ele>
        <time>2016-10-30T10:18:48.000Z</time>
      </trkpt>
      <trkpt lat="47.81769" lon="2.11269">
        <ele>104</ele>
        <time>2016-10-30T10:18:49.000Z</time>
      </trkpt>
      <trkpt lat="47.81766" lon="2.11276">
        <ele>104</ele>
        <time>2016-10-30T10:18:50.000Z</time>
      </trkpt>
      <trkpt lat="47.81763" lon="2.11283">
        <ele>104</ele>
        <time>2016-10-30T10:18:51.000Z</time>
      </trkpt>
      <trkpt lat="47.81761" lon="2.11289">
        <ele>103</ele>
        <time>2016-10-30T10:18:52.000Z</time>
      </trkpt>
      <trkpt lat="47.81758" lon="2.11296">
        <ele>103</ele>
        <time>2016-10-30T10:18:53.000Z</time>
      </trkpt>
      <trkpt lat="47.81756" lon="2.11302">
        <ele>103</ele>
        <time>2016-10-30T10:18:54.000Z</time>
      </trkpt>
      <trkpt lat="47.81753" lon="2.11308">
        <ele>103</ele>
        <time>2016-10-30T10:18:55.000Z</time>
      </trkpt>
      <trkpt lat="47.81751" lon="2.11315">
        <ele>103</ele>
        <time>2016-10-30T10:18:56.000Z</time>
      </trkpt>
      <trkpt lat="47.81748" lon="2.11321">
        <ele>103</ele>
        <time>2016-10-30T10:18:57.000Z</time>
      </trkpt>
      <trkpt lat="47.81745" lon="2.11328">
        <ele>103</ele>
        <time>2016-10-30T10:18:58.000Z</time>
      </trkpt>
      <trkpt lat="47.81743" lon="2.11335">
        <ele>103</ele>
        <time>2016-10-30T10:18:59.000Z</time>
      </trkpt>
      <trkpt lat="47.8174" lon="2.11342">
        <ele>103</ele>
        <time>2016-10-30T10:19:00.000Z</time>
      </trkpt>
      <trkpt lat="47.81737" lon="2.11349">
        <ele>103</ele>
        <time>2016-10-30T10:19:01.000Z</time>
      </trkpt>
      <trkpt lat="47.81734" lon="2.11356">
        <ele>103</ele>
        <time>2016-10-30T10:19:02.000Z</time>
      </trkpt>
      <trkpt lat="47.81732" lon="2.11363">
        <ele>103</ele>
        <time>2016-10-30T10:19:03.000Z</time>
      </trkpt>
      <trkpt lat="47.81729" lon="2.11369">
        <ele>103</ele>
        <time>2016-10-30T10:19:04.000Z</time>
      </trkpt>
      <trkpt lat="47.81726" lon="2.11376">
        <ele>103</ele>
        <time>2016-10-30T10:19:05.000Z</time>
      </trkpt>
      <trkpt lat="47.81723" lon="2.11383">
        <ele>102</ele>
        <time>2016-10-30T10:19:06.000Z</time>
      </trkpt>
      <trkpt lat="47.8172" lon="2.11389">
        <ele>103</ele>
        <time>2016-10-30T10:19:07.000Z</time>
      </trkpt>
      <trkpt lat="47.81717" lon="2.11395">
        <ele>102</ele>
        <time>2016-10-30T10:19:08.000Z</time>
      </trkpt>
      <trkpt lat="47.81714" lon="2.11401">
        <ele>102</ele>
        <time>2016-10-30T10:19:09.000Z</time>
      </trkpt>
      <trkpt lat="47.81711" lon="2.11407">
        <ele>103</ele>
        <time>2016-10-30T10:19:10.000Z</time>
      </trkpt>
      <trkpt lat="47.81707" lon="2.11412">
        <ele>103</ele>
        <time>2016-10-30T10:19:11.000Z</time>
      </trkpt>
      <trkpt lat="47.81704" lon="2.11417">
        <ele>103</ele>
        <time>2016-10-30T10:19:12.000Z</time>
      </trkpt>
      <trkpt lat="47.817" lon="2.11423">
        <ele>103</ele>
        <time>2016-10-30T10:19:13.000Z</time>
      </trkpt>
      <trkpt lat="47.81697" lon="2.11428">
        <ele>103</ele>
        <time>2016-10-30T10:19:14.000Z</time>
      </trkpt>
      <trkpt lat="47.81693" lon="2.11433">
        <ele>102</ele>
        <time>2016-10-30T10:19:15.000Z</time>
      </trkpt>
      <trkpt lat="47.81689" lon="2.11439">
        <ele>102</ele>
        <time>2016-10-30T10:19:16.000Z</time>
      </trkpt>
      <trkpt lat="47.81685" lon="2.11444">
        <ele>103</ele>
        <time>2016-10-30T10:19:17.000Z</time>
      </trkpt>
      <trkpt lat="47.81681" lon="2.1145">
        <ele>103</ele>
        <time>2016-10-30T10:19:18.000Z</time>
      </trkpt>
      <trkpt lat="47.81677" lon="2.11455">
        <ele>103</ele>
        <time>2016-10-30T10:19:19.000Z</time>
      </trkpt>
      <trkpt lat="47.81673" lon="2.11461">
        <ele>103</ele>
        <time>2016-10-30T10:19:20.000Z</time>
      </trkpt>
      <trkpt lat="47.81669" lon="2.11467">
        <ele>103</ele>
        <time>2016-10-30T10:19:21.000Z</time>
      </trkpt>
      <trkpt lat="47.81665" lon="2.11472">
        <ele>103</ele>
        <time>2016-10-30T10:19:22.000Z</time>
      </trkpt>
      <trkpt lat="47.81661" lon="2.11478">
        <ele>104</ele>
        <time>2016-10-30T10:19:23.000Z</time>
      </trkpt>
      <trkpt lat="47.81657" lon="2.11483">
        <ele>104</ele>
        <time>2016-10-30T10:19:24.000Z</time>
      </trkpt>
      <trkpt lat="47.81652" lon="2.11489">
        <ele>104</ele>
        <time>2016-10-30T10:19:25.000Z</time>
      </trkpt>
      <trkpt lat="47.81648" lon="2.11494">
        <ele>104</ele>
        <time>2016-10-30T10:19:26.000Z</time>
      </trkpt>
      <trkpt lat="47.81644" lon="2.115">
        <ele>104</ele>
        <time>2016-10-30T10:19:27.000Z</time>
      </trkpt>
      <trkpt lat="47.81641" lon="2.11505">
        <ele>104</ele>
        <time>2016-10-30T10:19:28.000Z</time>
      </trkpt>
      <trkpt lat="47.81637" lon="2.11511">
        <ele>104</ele>
        <time>2016-10-30T10:19:29.000Z</time>
      </trkpt>
      <trkpt lat="47.81633" lon="2.11516">
        <ele>104</ele>
        <time>2016-10-30T10:19:30.000Z</time>
      </trkpt>
      <trkpt lat="47.81629" lon="2.11521">
        <ele>104</ele>
        <time>2016-10-30T10:19:31.000Z</time>
      </trkpt>
      <trkpt lat="47.81625" lon="2.11527">
        <ele>105</ele>
        <time>2016-10-30T10:19:32.000Z</time>
      </trkpt>
      <trkpt lat="47.81622" lon="2.11533">
        <ele>105</ele>
        <time>2016-10-30T10:19:33.000Z</time>
      </trkpt>
      <trkpt lat="47.81618" lon="2.11538">
        <ele>105</ele>
        <time>2016-10-30T10:19:34.000Z</time>
      </trkpt>
      <trkpt lat="47.81614" lon="2.11544">
        <ele>105</ele>
        <time>2016-10-30T10:19:35.000Z</time>
      </trkpt>
      <trkpt lat="47.8161" lon="2.1155">
        <ele>104</ele>
        <time>2016-10-30T10:19:36.000Z</time>
      </trkpt>
      <trkpt lat="47.81606" lon="2.11556">
        <ele>104</ele>
        <time>2016-10-30T10:19:37.000Z</time>
      </trkpt>
      <trkpt lat="47.81602" lon="2.11562">
        <ele>104</ele>
        <time>2016-10-30T10:19:38.000Z</time>
      </trkpt>
      <trkpt lat="47.81598" lon="2.11568">
        <ele>104</ele>
        <time>2016-10-30T10:19:39.000Z</time>
      </trkpt>
      <trkpt lat="47.81594" lon="2.11574">
        <ele>104</ele>
        <time>2016-10-30T10:19:40.000Z</time>
      </trkpt>
      <trkpt lat="47.8159" lon="2.1158">
        <ele>103</ele>
        <time>2016-10-30T10:19:41.000Z</time>
      </trkpt>
      <trkpt lat="47.81586" lon="2.11585">
        <ele>103</ele>
        <time>2016-10-30T10:19:42.000Z</time>
      </trkpt>
      <trkpt lat="47.81582" lon="2.11591">
        <ele>103</ele>
        <time>2016-10-30T10:19:43.000Z</time>
      </trkpt>
      <trkpt lat="47.81579" lon="2.11596">
        <ele>103</ele>
        <time>2016-10-30T10:19:44.000Z</time>
      </trkpt>
      <trkpt lat="47.81575" lon="2.11602">
        <ele>103</ele>
        <time>2016-10-30T10:19:45.000Z</time>
      </trkpt>
      <trkpt lat="47.8157" lon="2.11607">
        <ele>103</ele>
        <time>2016-10-30T10:19:46.000Z</time>
      </trkpt>
      <trkpt lat="47.81566" lon="2.11613">
        <ele>103</ele>
        <time>2016-10-30T10:19:47.000Z</time>
      </trkpt>
      <trkpt lat="47.81562" lon="2.11619">
        <ele>103</ele>
        <time>2016-10-30T10:19:48.000Z</time>
      </trkpt>
      <trkpt lat="47.81558" lon="2.11625">
        <ele>103</ele>
        <time>2016-10-30T10:19:49.000Z</time>
      </trkpt>
      <trkpt lat="47.81554" lon="2.11632">
        <ele>102</ele>
        <time>2016-10-30T10:19:50.000Z</time>
      </trkpt>
      <trkpt lat="47.8155" lon="2.11638">
        <ele>102</ele>
        <time>2016-10-30T10:19:51.000Z</time>
      </trkpt>
      <trkpt lat="47.81545" lon="2.11644">
        <ele>102</ele>
        <time>2016-10-30T10:19:52.000Z</time>
      </trkpt>
      <trkpt lat="47.81541" lon="2.1165">
        <ele>102</ele>
        <time>2016-10-30T10:19:53.000Z</time>
      </trkpt>
      <trkpt lat="47.81537" lon="2.11655">
        <ele>102</ele>
        <time>2016-10-30T10:19:54.000Z</time>
      </trkpt>
      <trkpt lat="47.81533" lon="2.11661">
        <ele>102</ele>
        <time>2016-10-30T10:19:55.000Z</time>
      </trkpt>
      <trkpt lat="47.81529" lon="2.11667">
        <ele>102</ele>
        <time>2016-10-30T10:19:56.000Z</time>
      </trkpt>
      <trkpt lat="47.81524" lon="2.11673">
        <ele>102</ele>
        <time>2016-10-30T10:19:57.000Z</time>
      </trkpt>
      <trkpt lat="47.81521" lon="2.11679">
        <ele>102</ele>
        <time>2016-10-30T10:19:58.000Z</time>
      </trkpt>
      <trkpt lat="47.81517" lon="2.11685">
        <ele>102</ele>
        <time>2016-10-30T10:19:59.000Z</time>
      </trkpt>
      <trkpt lat="47.81513" lon="2.11691">
        <ele>102</ele>
        <time>2016-10-30T10:20:00.000Z</time>
      </trkpt>
      <trkpt lat="47.81509" lon="2.11698">
        <ele>102</ele>
        <time>2016-10-30T10:20:01.000Z</time>
      </trkpt>
      <trkpt lat="47.81506" lon="2.11704">
        <ele>102</ele>
        <time>2016-10-30T10:20:02.000Z</time>
      </trkpt>
      <trkpt lat="47.81502" lon="2.1171">
        <ele>102</ele>
        <time>2016-10-30T10:20:03.000Z</time>
      </trkpt>
      <trkpt lat="47.81499" lon="2.11717">
        <ele>102</ele>
        <time>2016-10-30T10:20:04.000Z</time>
      </trkpt>
      <trkpt lat="47.81496" lon="2.11723">
        <ele>102</ele>
        <time>2016-10-30T10:20:05.000Z</time>
      </trkpt>
      <trkpt lat="47.81492" lon="2.1173">
        <ele>102</ele>
        <time>2016-10-30T10:20:06.000Z</time>
      </trkpt>
      <trkpt lat="47.81489" lon="2.11737">
        <ele>101</ele>
        <time>2016-10-30T10:20:07.000Z</time>
      </trkpt>
      <trkpt lat="47.81486" lon="2.11743">
        <ele>101</ele>
        <time>2016-10-30T10:20:08.000Z</time>
      </trkpt>
      <trkpt lat="47.81482" lon="2.1175">
        <ele>101</ele>
        <time>2016-10-30T10:20:09.000Z</time>
      </trkpt>
      <trkpt lat="47.81479" lon="2.11756">
        <ele>102</ele>
        <time>2016-10-30T10:20:10.000Z</time>
      </trkpt>
      <trkpt lat="47.81475" lon="2.11763">
        <ele>102</ele>
        <time>2016-10-30T10:20:11.000Z</time>
      </trkpt>
      <trkpt lat="47.81472" lon="2.11769">
        <ele>102</ele>
        <time>2016-10-30T10:20:12.000Z</time>
      </trkpt>
      <trkpt lat="47.81468" lon="2.11775">
        <ele>102</ele>
        <time>2016-10-30T10:20:13.000Z</time>
      </trkpt>
      <trkpt lat="47.81465" lon="2.11782">
        <ele>102</ele>
        <time>2016-10-30T10:20:14.000Z</time>
      </trkpt>
      <trkpt lat="47.81462" lon="2.11788">
        <ele>102</ele>
        <time>2016-10-30T10:20:15.000Z</time>
      </trkpt>
      <trkpt lat="47.81458" lon="2.11794">
        <ele>102</ele>
        <time>2016-10-30T10:20:16.000Z</time>
      </trkpt>
      <trkpt lat="47.81455" lon="2.118">
        <ele>102</ele>
        <time>2016-10-30T10:20:17.000Z</time>
      </trkpt>
      <trkpt lat="47.81451" lon="2.11806">
        <ele>102</ele>
        <time>2016-10-30T10:20:18.000Z</time>
      </trkpt>
      <trkpt lat="47.81448" lon="2.11812">
        <ele>102</ele>
        <time>2016-10-30T10:20:19.000Z</time>
      </trkpt>
      <trkpt lat="47.81444" lon="2.11818">
        <ele>102</ele>
        <time>2016-10-30T10:20:20.000Z</time>
      </trkpt>
      <trkpt lat="47.81441" lon="2.11823">
        <ele>102</ele>
        <time>2016-10-30T10:20:21.000Z</time>
      </trkpt>
      <trkpt lat="47.81437" lon="2.11828">
        <ele>102</ele>
        <time>2016-10-30T10:20:22.000Z</time>
      </trkpt>
      <trkpt lat="47.81434" lon="2.11833">
        <ele>102</ele>
        <time>2016-10-30T10:20:23.000Z</time>
      </trkpt>
      <trkpt lat="47.8143" lon="2.11838">
        <ele>103</ele>
        <time>2016-10-30T10:20:24.000Z</time>
      </trkpt>
      <trkpt lat="47.81425" lon="2.11842">
        <ele>103</ele>
        <time>2016-10-30T10:20:25.000Z</time>
      </trkpt>
      <trkpt lat="47.81421" lon="2.11847">
        <ele>103</ele>
        <time>2016-10-30T10:20:26.000Z</time>
      </trkpt>
      <trkpt lat="47.81417" lon="2.11852">
        <ele>103</ele>
        <time>2016-10-30T10:20:27.000Z</time>
      </trkpt>
      <trkpt lat="47.81412" lon="2.11856">
        <ele>103</ele>
        <time>2016-10-30T10:20:28.000Z</time>
      </trkpt>
      <trkpt lat="47.81408" lon="2.11861">
        <ele>103</ele>
        <time>2016-10-30T10:20:29.000Z</time>
      </trkpt>
      <trkpt lat="47.81403" lon="2.11865">
        <ele>103</ele>
        <time>2016-10-30T10:20:30.000Z</time>
      </trkpt>
      <trkpt lat="47.81399" lon="2.11869">
        <ele>103</ele>
        <time>2016-10-30T10:20:31.000Z</time>
      </trkpt>
      <trkpt lat="47.81395" lon="2.11873">
        <ele>103</ele>
        <time>2016-10-30T10:20:32.000Z</time>
      </trkpt>
      <trkpt lat="47.81391" lon="2.11877">
        <ele>103</ele>
        <time>2016-10-30T10:20:33.000Z</time>
      </trkpt>
      <trkpt lat="47.81387" lon="2.11881">
        <ele>103</ele>
        <time>2016-10-30T10:20:34.000Z</time>
      </trkpt>
      <trkpt lat="47.81382" lon="2.11886">
        <ele>103</ele>
        <time>2016-10-30T10:20:35.000Z</time>
      </trkpt>
      <trkpt lat="47.81378" lon="2.1189">
        <ele>103</ele>
        <time>2016-10-30T10:20:36.000Z</time>
      </trkpt>
      <trkpt lat="47.81374" lon="2.11895">
        <ele>103</ele>
        <time>2016-10-30T10:20:37.000Z</time>
      </trkpt>
      <trkpt lat="47.81369" lon="2.11899">
        <ele>103</ele>
        <time>2016-10-30T10:20:38.000Z</time>
      </trkpt>
      <trkpt lat="47.81365" lon="2.11903">
        <ele>103</ele>
        <time>2016-10-30T10:20:39.000Z</time>
      </trkpt>
      <trkpt lat="47.81361" lon="2.11908">
        <ele>103</ele>
        <time>2016-10-30T10:20:40.000Z</time>
      </trkpt>
      <trkpt lat="47.81356" lon="2.11912">
        <ele>103</ele>
        <time>2016-10-30T10:20:41.000Z</time>
      </trkpt>
      <trkpt lat="47.81352" lon="2.11917">
        <ele>103</ele>
        <time>2016-10-30T10:20:42.000Z</time>
      </trkpt>
      <trkpt lat="47.81347" lon="2.11921">
        <ele>103</ele>
        <time>2016-10-30T10:20:43.000Z</time>
      </trkpt>
      <trkpt lat="47.81343" lon="2.11925">
        <ele>103</ele>
        <time>2016-10-30T10:20:44.000Z</time>
      </trkpt>
      <trkpt lat="47.81338" lon="2.1193">
        <ele>103</ele>
        <time>2016-10-30T10:20:45.000Z</time>
      </trkpt>
      <trkpt lat="47.81334" lon="2.11934">
        <ele>103</ele>
        <time>2016-10-30T10:20:46.000Z</time>
      </trkpt>
      <trkpt lat="47.81329" lon="2.11938">
        <ele>103</ele>
        <time>2016-10-30T10:20:47.000Z</time>
      </trkpt>
      <trkpt lat="47.81325" lon="2.11942">
        <ele>103</ele>
        <time>2016-10-30T10:20:48.000Z</time>
      </trkpt>
      <trkpt lat="47.81321" lon="2.11947">
        <ele>103</ele>
        <time>2016-10-30T10:20:49.000Z</time>
      </trkpt>
      <trkpt lat="47.81316" lon="2.11951">
        <ele>103</ele>
        <time>2016-10-30T10:20:50.000Z</time>
      </trkpt>
      <trkpt lat="47.81312" lon="2.11956">
        <ele>103</ele>
        <time>2016-10-30T10:20:51.000Z</time>
      </trkpt>
      <trkpt lat="47.81307" lon="2.1196">
        <ele>103</ele>
        <time>2016-10-30T10:20:52.000Z</time>
      </trkpt>
      <trkpt lat="47.81303" lon="2.11964">
        <ele>103</ele>
        <time>2016-10-30T10:20:53.000Z</time>
      </trkpt>
      <trkpt lat="47.81298" lon="2.11968">
        <ele>103</ele>
        <time>2016-10-30T10:20:54.000Z</time>
      </trkpt>
      <trkpt lat="47.81294" lon="2.11972">
        <ele>103</ele>
        <time>2016-10-30T10:20:55.000Z</time>
      </trkpt>
      <trkpt lat="47.8129" lon="2.11977">
        <ele>103</ele>
        <time>2016-10-30T10:20:56.000Z</time>
      </trkpt>
      <trkpt lat="47.81285" lon="2.11981">
        <ele>103</ele>
        <time>2016-10-30T10:20:57.000Z</time>
      </trkpt>
      <trkpt lat="47.81281" lon="2.11985">
        <ele>103</ele>
        <time>2016-10-30T10:20:58.000Z</time>
      </trkpt>
      <trkpt lat="47.81277" lon="2.11989">
        <ele>104</ele>
        <time>2016-10-30T10:20:59.000Z</time>
      </trkpt>
      <trkpt lat="47.81272" lon="2.11993">
        <ele>104</ele>
        <time>2016-10-30T10:21:00.000Z</time>
      </trkpt>
      <trkpt lat="47.81268" lon="2.11997">
        <ele>104</ele>
        <time>2016-10-30T10:21:01.000Z</time>
      </trkpt>
      <trkpt lat="47.81264" lon="2.12002">
        <ele>104</ele>
        <time>2016-10-30T10:21:02.000Z</time>
      </trkpt>
      <trkpt lat="47.81259" lon="2.12006">
        <ele>104</ele>
        <time>2016-10-30T10:21:03.000Z</time>
      </trkpt>
      <trkpt lat="47.81255" lon="2.1201">
        <ele>104</ele>
        <time>2016-10-30T10:21:04.000Z</time>
      </trkpt>
      <trkpt lat="47.8125" lon="2.12014">
        <ele>104</ele>
        <time>2016-10-30T10:21:05.000Z</time>
      </trkpt>
      <trkpt lat="47.81246" lon="2.12019">
        <ele>103</ele>
        <time>2016-10-30T10:21:06.000Z</time>
      </trkpt>
      <trkpt lat="47.81242" lon="2.12023">
        <ele>103</ele>
        <time>2016-10-30T10:21:07.000Z</time>
      </trkpt>
      <trkpt lat="47.81237" lon="2.12027">
        <ele>103</ele>
        <time>2016-10-30T10:21:08.000Z</time>
      </trkpt>
      <trkpt lat="47.81233" lon="2.12032">
        <ele>103</ele>
        <time>2016-10-30T10:21:09.000Z</time>
      </trkpt>
      <trkpt lat="47.81228" lon="2.12036">
        <ele>103</ele>
        <time>2016-10-30T10:21:10.000Z</time>
      </trkpt>
      <trkpt lat="47.81224" lon="2.12041">
        <ele>103</ele>
        <time>2016-10-30T10:21:11.000Z</time>
      </trkpt>
      <trkpt lat="47.81219" lon="2.12045">
        <ele>103</ele>
        <time>2016-10-30T10:21:12.000Z</time>
      </trkpt>
      <trkpt lat="47.81215" lon="2.12049">
        <ele>103</ele>
        <time>2016-10-30T10:21:13.000Z</time>
      </trkpt>
      <trkpt lat="47.8121" lon="2.12054">
        <ele>103</ele>
        <time>2016-10-30T10:21:14.000Z</time>
      </trkpt>
      <trkpt lat="47.81206" lon="2.12058">
        <ele>103</ele>
        <time>2016-10-30T10:21:15.000Z</time>
      </trkpt>
      <trkpt lat="47.81201" lon="2.12062">
        <ele>103</ele>
        <time>2016-10-30T10:21:16.000Z</time>
      </trkpt>
      <trkpt lat="47.81197" lon="2.12067">
        <ele>103</ele>
        <time>2016-10-30T10:21:17.000Z</time>
      </trkpt>
      <trkpt lat="47.81192" lon="2.12071">
        <ele>104</ele>
        <time>2016-10-30T10:21:18.000Z</time>
      </trkpt>
      <trkpt lat="47.81187" lon="2.12076">
        <ele>104</ele>
        <time>2016-10-30T10:21:19.000Z</time>
      </trkpt>
      <trkpt lat="47.81183" lon="2.1208">
        <ele>104</ele>
        <time>2016-10-30T10:21:20.000Z</time>
      </trkpt>
      <trkpt lat="47.81178" lon="2.12085">
        <ele>103</ele>
        <time>2016-10-30T10:21:21.000Z</time>
      </trkpt>
      <trkpt lat="47.81174" lon="2.12089">
        <ele>103</ele>
        <time>2016-10-30T10:21:22.000Z</time>
      </trkpt>
      <trkpt lat="47.8117" lon="2.12093">
        <ele>103</ele>
        <time>2016-10-30T10:21:23.000Z</time>
      </trkpt>
      <trkpt lat="47.81165" lon="2.12098">
        <ele>103</ele>
        <time>2016-10-30T10:21:24.000Z</time>
      </trkpt>
      <trkpt lat="47.81161" lon="2.12102">
        <ele>103</ele>
        <time>2016-10-30T10:21:25.000Z</time>
      </trkpt>
      <trkpt lat="47.81157" lon="2.12106">
        <ele>103</ele>
        <time>2016-10-30T10:21:26.000Z</time>
      </trkpt>
      <trkpt lat="47.81152" lon="2.12111">
        <ele>103</ele>
        <time>2016-10-30T10:21:27.000Z</time>
      </trkpt>
      <trkpt lat="47.81148" lon="2.12116">
        <ele>103</ele>
        <time>2016-10-30T10:21:28.000Z</time>
      </trkpt>
      <trkpt lat="47.81143" lon="2.1212">
        <ele>103</ele>
        <time>2016-10-30T10:21:29.000Z</time>
      </trkpt>
      <trkpt lat="47.81138" lon="2.12124">
        <ele>103</ele>
        <time>2016-10-30T10:21:30.000Z</time>
      </trkpt>
      <trkpt lat="47.81134" lon="2.12129">
        <ele>103</ele>
        <time>2016-10-30T10:21:31.000Z</time>
      </trkpt>
      <trkpt lat="47.8113" lon="2.12133">
        <ele>103</ele>
        <time>2016-10-30T10:21:32.000Z</time>
      </trkpt>
      <trkpt lat="47.81125" lon="2.12137">
        <ele>103</ele>
        <time>2016-10-30T10:21:33.000Z</time>
      </trkpt>
      <trkpt lat="47.81121" lon="2.12142">
        <ele>103</ele>
        <time>2016-10-30T10:21:34.000Z</time>
      </trkpt>
      <trkpt lat="47.81116" lon="2.12146">
        <ele>103</ele>
        <time>2016-10-30T10:21:35.000Z</time>
      </trkpt>
      <trkpt lat="47.81112" lon="2.1215">
        <ele>103</ele>
        <time>2016-10-30T10:21:36.000Z</time>
      </trkpt>
      <trkpt lat="47.81107" lon="2.12155">
        <ele>103</ele>
        <time>2016-10-30T10:21:37.000Z</time>
      </trkpt>
      <trkpt lat="47.81103" lon="2.12159">
        <ele>103</ele>
        <time>2016-10-30T10:21:38.000Z</time>
      </trkpt>
      <trkpt lat="47.81098" lon="2.12163">
        <ele>103</ele>
        <time>2016-10-30T10:21:39.000Z</time>
      </trkpt>
      <trkpt lat="47.81094" lon="2.12167">
        <ele>103</ele>
        <time>2016-10-30T10:21:40.000Z</time>
      </trkpt>
      <trkpt lat="47.8109" lon="2.12171">
        <ele>103</ele>
        <time>2016-10-30T10:21:41.000Z</time>
      </trkpt>
      <trkpt lat="47.81086" lon="2.12175">
        <ele>103</ele>
        <time>2016-10-30T10:21:42.000Z</time>
      </trkpt>
      <trkpt lat="47.81081" lon="2.12179">
        <ele>103</ele>
        <time>2016-10-30T10:21:43.000Z</time>
      </trkpt>
      <trkpt lat="47.81077" lon="2.12183">
        <ele>103</ele>
        <time>2016-10-30T10:21:44.000Z</time>
      </trkpt>
      <trkpt lat="47.81073" lon="2.12187">
        <ele>103</ele>
        <time>2016-10-30T10:21:45.000Z</time>
      </trkpt>
      <trkpt lat="47.81069" lon="2.12192">
        <ele>103</ele>
        <time>2016-10-30T10:21:46.000Z</time>
      </trkpt>
      <trkpt lat="47.81065" lon="2.12196">
        <ele>103</ele>
        <time>2016-10-30T10:21:47.000Z</time>
      </trkpt>
      <trkpt lat="47.8106" lon="2.122">
        <ele>103</ele>
        <time>2016-10-30T10:21:48.000Z</time>
      </trkpt>
      <trkpt lat="47.81056" lon="2.12205">
        <ele>103</ele>
        <time>2016-10-30T10:21:49.000Z</time>
      </trkpt>
      <trkpt lat="47.81052" lon="2.1221">
        <ele>103</ele>
        <time>2016-10-30T10:21:50.000Z</time>
      </trkpt>
      <trkpt lat="47.81048" lon="2.12215">
        <ele>103</ele>
        <time>2016-10-30T10:21:51.000Z</time>
      </trkpt>
      <trkpt lat="47.81044" lon="2.1222">
        <ele>103</ele>
        <time>2016-10-30T10:21:52.000Z</time>
      </trkpt>
      <trkpt lat="47.81041" lon="2.12226">
        <ele>103</ele>
        <time>2016-10-30T10:21:53.000Z</time>
      </trkpt>
      <trkpt lat="47.81037" lon="2.12232">
        <ele>103</ele>
        <time>2016-10-30T10:21:54.000Z</time>
      </trkpt>
      <trkpt lat="47.81034" lon="2.12237">
        <ele>103</ele>
        <time>2016-10-30T10:21:55.000Z</time>
      </trkpt>
      <trkpt lat="47.81031" lon="2.12243">
        <ele>103</ele>
        <time>2016-10-30T10:21:56.000Z</time>
      </trkpt>
      <trkpt lat="47.81028" lon="2.12249">
        <ele>103</ele>
        <time>2016-10-30T10:21:57.000Z</time>
      </trkpt>
      <trkpt lat="47.81026" lon="2.12255">
        <ele>103</ele>
        <time>2016-10-30T10:21:58.000Z</time>
      </trkpt>
      <trkpt lat="47.81023" lon="2.12261">
        <ele>103</ele>
        <time>2016-10-30T10:21:59.000Z</time>
      </trkpt>
      <trkpt lat="47.8102" lon="2.12268">
        <ele>103</ele>
        <time>2016-10-30T10:22:00.000Z</time>
      </trkpt>
      <trkpt lat="47.81017" lon="2.12274">
        <ele>103</ele>
        <time>2016-10-30T10:22:01.000Z</time>
      </trkpt>
      <trkpt lat="47.81015" lon="2.1228">
        <ele>103</ele>
        <time>2016-10-30T10:22:02.000Z</time>
      </trkpt>
      <trkpt lat="47.81012" lon="2.12286">
        <ele>103</ele>
        <time>2016-10-30T10:22:03.000Z</time>
      </trkpt>
      <trkpt lat="47.81009" lon="2.12292">
        <ele>103</ele>
        <time>2016-10-30T10:22:04.000Z</time>
      </trkpt>
      <trkpt lat="47.81007" lon="2.12298">
        <ele>103</ele>
        <time>2016-10-30T10:22:05.000Z</time>
      </trkpt>
      <trkpt lat="47.81004" lon="2.12304">
        <ele>103</ele>
        <time>2016-10-30T10:22:06.000Z</time>
      </trkpt>
      <trkpt lat="47.81001" lon="2.12309">
        <ele>103</ele>
        <time>2016-10-30T10:22:07.000Z</time>
      </trkpt>
      <trkpt lat="47.80999" lon="2.12315">
        <ele>103</ele>
        <time>2016-10-30T10:22:08.000Z</time>
      </trkpt>
      <trkpt lat="47.80996" lon="2.12321">
        <ele>103</ele>
        <time>2016-10-30T10:22:09.000Z</time>
      </trkpt>
      <trkpt lat="47.80993" lon="2.12327">
        <ele>103</ele>
        <time>2016-10-30T10:22:10.000Z</time>
      </trkpt>
      <trkpt lat="47.80991" lon="2.12333">
        <ele>102</ele>
        <time>2016-10-30T10:22:11.000Z</time>
      </trkpt>
      <trkpt lat="47.80988" lon="2.12339">
        <ele>102</ele>
        <time>2016-10-30T10:22:12.000Z</time>
      </trkpt>
      <trkpt lat="47.80986" lon="2.12344">
        <ele>103</ele>
        <time>2016-10-30T10:22:13.000Z</time>
      </trkpt>
      <trkpt lat="47.80983" lon="2.1235">
        <ele>103</ele>
        <time>2016-10-30T10:22:14.000Z</time>
      </trkpt>
      <trkpt lat="47.80981" lon="2.12355">
        <ele>102</ele>
        <time>2016-10-30T10:22:15.000Z</time>
      </trkpt>
      <trkpt lat="47.80979" lon="2.12361">
        <ele>101</ele>
        <time>2016-10-30T10:22:16.000Z</time>
      </trkpt>
      <trkpt lat="47.80976" lon="2.12366">
        <ele>101</ele>
        <time>2016-10-30T10:22:17.000Z</time>
      </trkpt>
      <trkpt lat="47.80974" lon="2.12372">
        <ele>100</ele>
        <time>2016-10-30T10:22:18.000Z</time>
      </trkpt>
      <trkpt lat="47.80971" lon="2.12377">
        <ele>100</ele>
        <time>2016-10-30T10:22:19.000Z</time>
      </trkpt>
      <trkpt lat="47.80968" lon="2.12383">
        <ele>100</ele>
        <time>2016-10-30T10:22:20.000Z</time>
      </trkpt>
      <trkpt lat="47.80965" lon="2.12389">
        <ele>99</ele>
        <time>2016-10-30T10:22:21.000Z</time>
      </trkpt>
      <trkpt lat="47.80962" lon="2.12395">
        <ele>100</ele>
        <time>2016-10-30T10:22:22.000Z</time>
      </trkpt>
      <trkpt lat="47.8096" lon="2.12401">
        <ele>100</ele>
        <time>2016-10-30T10:22:23.000Z</time>
      </trkpt>
      <trkpt lat="47.80957" lon="2.12407">
        <ele>99</ele>
        <time>2016-10-30T10:22:24.000Z</time>
      </trkpt>
      <trkpt lat="47.80955" lon="2.12413">
        <ele>99</ele>
        <time>2016-10-30T10:22:25.000Z</time>
      </trkpt>
      <trkpt lat="47.80952" lon="2.12419">
        <ele>99</ele>
        <time>2016-10-30T10:22:26.000Z</time>
      </trkpt>
      <trkpt lat="47.8095" lon="2.12424">
        <ele>98</ele>
        <time>2016-10-30T10:22:27.000Z</time>
      </trkpt>
      <trkpt lat="47.80948" lon="2.1243">
        <ele>98</ele>
        <time>2016-10-30T10:22:28.000Z</time>
      </trkpt>
      <trkpt lat="47.80945" lon="2.12436">
        <ele>98</ele>
        <time>2016-10-30T10:22:29.000Z</time>
      </trkpt>
      <trkpt lat="47.80942" lon="2.12441">
        <ele>98</ele>
        <time>2016-10-30T10:22:30.000Z</time>
      </trkpt>
      <trkpt lat="47.80939" lon="2.12447">
        <ele>97</ele>
        <time>2016-10-30T10:22:31.000Z</time>
      </trkpt>
      <trkpt lat="47.80936" lon="2.12452">
        <ele>98</ele>
        <time>2016-10-30T10:22:32.000Z</time>
      </trkpt>
      <trkpt lat="47.80933" lon="2.12458">
        <ele>98</ele>
        <time>2016-10-30T10:22:33.000Z</time>
      </trkpt>
      <trkpt lat="47.80931" lon="2.12464">
        <ele>99</ele>
        <time>2016-10-30T10:22:34.000Z</time>
      </trkpt>
      <trkpt lat="47.80928" lon="2.1247">
        <ele>99</ele>
        <time>2016-10-30T10:22:35.000Z</time>
      </trkpt>
      <trkpt lat="47.80926" lon="2.12477">
        <ele>99</ele>
        <time>2016-10-30T10:22:36.000Z</time>
      </trkpt>
      <trkpt lat="47.80924" lon="2.12483">
        <ele>99</ele>
        <time>2016-10-30T10:22:37.000Z</time>
      </trkpt>
      <trkpt lat="47.80921" lon="2.12489">
        <ele>99</ele>
        <time>2016-10-30T10:22:38.000Z</time>
      </trkpt>
      <trkpt lat="47.80918" lon="2.12496">
        <ele>98</ele>
        <time>2016-10-30T10:22:39.000Z</time>
      </trkpt>
      <trkpt lat="47.80915" lon="2.12502">
        <ele>98</ele>
        <time>2016-10-30T10:22:40.000Z</time>
      </trkpt>
      <trkpt lat="47.80912" lon="2.12508">
        <ele>98</ele>
        <time>2016-10-30T10:22:41.000Z</time>
      </trkpt>
      <trkpt lat="47.80909" lon="2.12515">
        <ele>99</ele>
        <time>2016-10-30T10:22:42.000Z</time>
      </trkpt>
      <trkpt lat="47.80905" lon="2.12522">
        <ele>100</ele>
        <time>2016-10-30T10:22:43.000Z</time>
      </trkpt>
      <trkpt lat="47.80901" lon="2.12529">
        <ele>100</ele>
        <time>2016-10-30T10:22:44.000Z</time>
      </trkpt>
      <trkpt lat="47.80898" lon="2.12536">
        <ele>100</ele>
        <time>2016-10-30T10:22:45.000Z</time>
      </trkpt>
      <trkpt lat="47.80895" lon="2.12542">
        <ele>100</ele>
        <time>2016-10-30T10:22:46.000Z</time>
      </trkpt>
      <trkpt lat="47.80892" lon="2.12549">
        <ele>100</ele>
        <time>2016-10-30T10:22:47.000Z</time>
      </trkpt>
      <trkpt lat="47.80889" lon="2.12555">
        <ele>100</ele>
        <time>2016-10-30T10:22:48.000Z</time>
      </trkpt>
      <trkpt lat="47.80886" lon="2.12562">
        <ele>100</ele>
        <time>2016-10-30T10:22:49.000Z</time>
      </trkpt>
      <trkpt lat="47.80883" lon="2.12568">
        <ele>100</ele>
        <time>2016-10-30T10:22:50.000Z</time>
      </trkpt>
      <trkpt lat="47.8088" lon="2.12575">
        <ele>99</ele>
        <time>2016-10-30T10:22:51.000Z</time>
      </trkpt>
      <trkpt lat="47.80877" lon="2.12582">
        <ele>101</ele>
        <time>2016-10-30T10:22:52.000Z</time>
      </trkpt>
      <trkpt lat="47.80874" lon="2.12589">
        <ele>101</ele>
        <time>2016-10-30T10:22:53.000Z</time>
      </trkpt>
      <trkpt lat="47.8087" lon="2.12596">
        <ele>101</ele>
        <time>2016-10-30T10:22:54.000Z</time>
      </trkpt>
      <trkpt lat="47.80867" lon="2.12603">
        <ele>102</ele>
        <time>2016-10-30T10:22:55.000Z</time>
      </trkpt>
      <trkpt lat="47.80864" lon="2.12609">
        <ele>102</ele>
        <time>2016-10-30T10:22:56.000Z</time>
      </trkpt>
      <trkpt lat="47.80861" lon="2.12615">
        <ele>102</ele>
        <time>2016-10-30T10:22:57.000Z</time>
      </trkpt>
      <trkpt lat="47.80858" lon="2.12622">
        <ele>102</ele>
        <time>2016-10-30T10:22:58.000Z</time>
      </trkpt>
      <trkpt lat="47.80855" lon="2.12628">
        <ele>102</ele>
        <time>2016-10-30T10:22:59.000Z</time>
      </trkpt>
      <trkpt lat="47.80852" lon="2.12635">
        <ele>102</ele>
        <time>2016-10-30T10:23:00.000Z</time>
      </trkpt>
      <trkpt lat="47.80849" lon="2.12641">
        <ele>103</ele>
        <time>2016-10-30T10:23:01.000Z</time>
      </trkpt>
      <trkpt lat="47.80845" lon="2.12647">
        <ele>103</ele>
        <time>2016-10-30T10:23:02.000Z</time>
      </trkpt>
      <trkpt lat="47.80843" lon="2.12653">
        <ele>103</ele>
        <time>2016-10-30T10:23:03.000Z</time>
      </trkpt>
      <trkpt lat="47.8084" lon="2.1266">
        <ele>103</ele>
        <time>2016-10-30T10:23:04.000Z</time>
      </trkpt>
      <trkpt lat="47.80837" lon="2.12665">
        <ele>103</ele>
        <time>2016-10-30T10:23:05.000Z</time>
      </trkpt>
      <trkpt lat="47.80834" lon="2.12671">
        <ele>103</ele>
        <time>2016-10-30T10:23:06.000Z</time>
      </trkpt>
      <trkpt lat="47.80831" lon="2.12677">
        <ele>103</ele>
        <time>2016-10-30T10:23:07.000Z</time>
      </trkpt>
      <trkpt lat="47.80828" lon="2.12683">
        <ele>103</ele>
        <time>2016-10-30T10:23:08.000Z</time>
      </trkpt>
      <trkpt lat="47.80825" lon="2.12689">
        <ele>103</ele>
        <time>2016-10-30T10:23:09.000Z</time>
      </trkpt>
      <trkpt lat="47.80822" lon="2.12694">
        <ele>103</ele>
        <time>2016-10-30T10:23:10.000Z</time>
      </trkpt>
      <trkpt lat="47.8082" lon="2.127">
        <ele>104</ele>
        <time>2016-10-30T10:23:11.000Z</time>
      </trkpt>
      <trkpt lat="47.80817" lon="2.12706">
        <ele>104</ele>
        <time>2016-10-30T10:23:12.000Z</time>
      </trkpt>
      <trkpt lat="47.80814" lon="2.12712">
        <ele>104</ele>
        <time>2016-10-30T10:23:13.000Z</time>
      </trkpt>
      <trkpt lat="47.80811" lon="2.12717">
        <ele>104</ele>
        <time>2016-10-30T10:23:14.000Z</time>
      </trkpt>
      <trkpt lat="47.80808" lon="2.12723">
        <ele>104</ele>
        <time>2016-10-30T10:23:15.000Z</time>
      </trkpt>
      <trkpt lat="47.80805" lon="2.12729">
        <ele>104</ele>
        <time>2016-10-30T10:23:16.000Z</time>
      </trkpt>
      <trkpt lat="47.80802" lon="2.12735">
        <ele>104</ele>
        <time>2016-10-30T10:23:17.000Z</time>
      </trkpt>
      <trkpt lat="47.80799" lon="2.1274">
        <ele>104</ele>
        <time>2016-10-30T10:23:18.000Z</time>
      </trkpt>
      <trkpt lat="47.80796" lon="2.12746">
        <ele>104</ele>
        <time>2016-10-30T10:23:19.000Z</time>
      </trkpt>
      <trkpt lat="47.80793" lon="2.12752">
        <ele>104</ele>
        <time>2016-10-30T10:23:20.000Z</time>
      </trkpt>
      <trkpt lat="47.8079" lon="2.12758">
        <ele>104</ele>
        <time>2016-10-30T10:23:21.000Z</time>
      </trkpt>
      <trkpt lat="47.80787" lon="2.12764">
        <ele>104</ele>
        <time>2016-10-30T10:23:22.000Z</time>
      </trkpt>
      <trkpt lat="47.80785" lon="2.12769">
        <ele>105</ele>
        <time>2016-10-30T10:23:23.000Z</time>
      </trkpt>
      <trkpt lat="47.80782" lon="2.12774">
        <ele>105</ele>
        <time>2016-10-30T10:23:24.000Z</time>
      </trkpt>
      <trkpt lat="47.80779" lon="2.1278">
        <ele>105</ele>
        <time>2016-10-30T10:23:25.000Z</time>
      </trkpt>
      <trkpt lat="47.80776" lon="2.12786">
        <ele>104</ele>
        <time>2016-10-30T10:23:26.000Z</time>
      </trkpt>
      <trkpt lat="47.80774" lon="2.12792">
        <ele>104</ele>
        <time>2016-10-30T10:23:27.000Z</time>
      </trkpt>
      <trkpt lat="47.80771" lon="2.12798">
        <ele>104</ele>
        <time>2016-10-30T10:23:28.000Z</time>
      </trkpt>
      <trkpt lat="47.80768" lon="2.12804">
        <ele>104</ele>
        <time>2016-10-30T10:23:29.000Z</time>
      </trkpt>
      <trkpt lat="47.80765" lon="2.12809">
        <ele>104</ele>
        <time>2016-10-30T10:23:30.000Z</time>
      </trkpt>
      <trkpt lat="47.80763" lon="2.12815">
        <ele>104</ele>
        <time>2016-10-30T10:23:31.000Z</time>
      </trkpt>
      <trkpt lat="47.8076" lon="2.12821">
        <ele>104</ele>
        <time>2016-10-30T10:23:32.000Z</time>
      </trkpt>
      <trkpt lat="47.80757" lon="2.12827">
        <ele>104</ele>
        <time>2016-10-30T10:23:33.000Z</time>
      </trkpt>
      <trkpt lat="47.80755" lon="2.12833">
        <ele>104</ele>
        <time>2016-10-30T10:23:34.000Z</time>
      </trkpt>
      <trkpt lat="47.80752" lon="2.12839">
        <ele>104</ele>
        <time>2016-10-30T10:23:35.000Z</time>
      </trkpt>
      <trkpt lat="47.80749" lon="2.12844">
        <ele>104</ele>
        <time>2016-10-30T10:23:36.000Z</time>
      </trkpt>
      <trkpt lat="47.80746" lon="2.1285">
        <ele>105</ele>
        <time>2016-10-30T10:23:37.000Z</time>
      </trkpt>
      <trkpt lat="47.80743" lon="2.12856">
        <ele>105</ele>
        <time>2016-10-30T10:23:38.000Z</time>
      </trkpt>
      <trkpt lat="47.80741" lon="2.12862">
        <ele>105</ele>
        <time>2016-10-30T10:23:39.000Z</time>
      </trkpt>
      <trkpt lat="47.80738" lon="2.12868">
        <ele>105</ele>
        <time>2016-10-30T10:23:40.000Z</time>
      </trkpt>
      <trkpt lat="47.80735" lon="2.12874">
        <ele>105</ele>
        <time>2016-10-30T10:23:41.000Z</time>
      </trkpt>
      <trkpt lat="47.80733" lon="2.1288">
        <ele>105</ele>
        <time>2016-10-30T10:23:42.000Z</time>
      </trkpt>
      <trkpt lat="47.8073" lon="2.12886">
        <ele>105</ele>
        <time>2016-10-30T10:23:43.000Z</time>
      </trkpt>
      <trkpt lat="47.80727" lon="2.12892">
        <ele>105</ele>
        <time>2016-10-30T10:23:44.000Z</time>
      </trkpt>
      <trkpt lat="47.80724" lon="2.12898">
        <ele>105</ele>
        <time>2016-10-30T10:23:45.000Z</time>
      </trkpt>
      <trkpt lat="47.80721" lon="2.12904">
        <ele>105</ele>
        <time>2016-10-30T10:23:46.000Z</time>
      </trkpt>
      <trkpt lat="47.80719" lon="2.1291">
        <ele>105</ele>
        <time>2016-10-30T10:23:47.000Z</time>
      </trkpt>
      <trkpt lat="47.80716" lon="2.12916">
        <ele>105</ele>
        <time>2016-10-30T10:23:48.000Z</time>
      </trkpt>
      <trkpt lat="47.80713" lon="2.12922">
        <ele>105</ele>
        <time>2016-10-30T10:23:49.000Z</time>
      </trkpt>
      <trkpt lat="47.8071" lon="2.12928">
        <ele>105</ele>
        <time>2016-10-30T10:23:50.000Z</time>
      </trkpt>
      <trkpt lat="47.80708" lon="2.12934">
        <ele>105</ele>
        <time>2016-10-30T10:23:51.000Z</time>
      </trkpt>
      <trkpt lat="47.80705" lon="2.1294">
        <ele>105</ele>
        <time>2016-10-30T10:23:52.000Z</time>
      </trkpt>
      <trkpt lat="47.80702" lon="2.12946">
        <ele>105</ele>
        <time>2016-10-30T10:23:53.000Z</time>
      </trkpt>
      <trkpt lat="47.80699" lon="2.12953">
        <ele>104</ele>
        <time>2016-10-30T10:23:54.000Z</time>
      </trkpt>
      <trkpt lat="47.80697" lon="2.12959">
        <ele>104</ele>
        <time>2016-10-30T10:23:55.000Z</time>
      </trkpt>
      <trkpt lat="47.80694" lon="2.12965">
        <ele>104</ele>
        <time>2016-10-30T10:23:56.000Z</time>
      </trkpt>
      <trkpt lat="47.80691" lon="2.12971">
        <ele>104</ele>
        <time>2016-10-30T10:23:57.000Z</time>
      </trkpt>
      <trkpt lat="47.80689" lon="2.12977">
        <ele>104</ele>
        <time>2016-10-30T10:23:58.000Z</time>
      </trkpt>
      <trkpt lat="47.80686" lon="2.12983">
        <ele>104</ele>
        <time>2016-10-30T10:23:59.000Z</time>
      </trkpt>
      <trkpt lat="47.80684" lon="2.1299">
        <ele>104</ele>
        <time>2016-10-30T10:24:00.000Z</time>
      </trkpt>
      <trkpt lat="47.80682" lon="2.12996">
        <ele>104</ele>
        <time>2016-10-30T10:24:01.000Z</time>
      </trkpt>
      <trkpt lat="47.8068" lon="2.13002">
        <ele>104</ele>
        <time>2016-10-30T10:24:02.000Z</time>
      </trkpt>
      <trkpt lat="47.80678" lon="2.13009">
        <ele>104</ele>
        <time>2016-10-30T10:24:03.000Z</time>
      </trkpt>
      <trkpt lat="47.80676" lon="2.13015">
        <ele>103</ele>
        <time>2016-10-30T10:24:04.000Z</time>
      </trkpt>
      <trkpt lat="47.80674" lon="2.13023">
        <ele>103</ele>
        <time>2016-10-30T10:24:05.000Z</time>
      </trkpt>
      <trkpt lat="47.80672" lon="2.1303">
        <ele>103</ele>
        <time>2016-10-30T10:24:06.000Z</time>
      </trkpt>
      <trkpt lat="47.8067" lon="2.13037">
        <ele>103</ele>
        <time>2016-10-30T10:24:07.000Z</time>
      </trkpt>
      <trkpt lat="47.80669" lon="2.13044">
        <ele>103</ele>
        <time>2016-10-30T10:24:08.000Z</time>
      </trkpt>
      <trkpt lat="47.80668" lon="2.13051">
        <ele>103</ele>
        <time>2016-10-30T10:24:09.000Z</time>
      </trkpt>
      <trkpt lat="47.80666" lon="2.13058">
        <ele>103</ele>
        <time>2016-10-30T10:24:10.000Z</time>
      </trkpt>
      <trkpt lat="47.80665" lon="2.13065">
        <ele>103</ele>
        <time>2016-10-30T10:24:11.000Z</time>
      </trkpt>
      <trkpt lat="47.80664" lon="2.13071">
        <ele>103</ele>
        <time>2016-10-30T10:24:12.000Z</time>
      </trkpt>
      <trkpt lat="47.80663" lon="2.13077">
        <ele>102</ele>
        <time>2016-10-30T10:24:13.000Z</time>
      </trkpt>
      <trkpt lat="47.80662" lon="2.13084">
        <ele>103</ele>
        <time>2016-10-30T10:24:14.000Z</time>
      </trkpt>
      <trkpt lat="47.80661" lon="2.13089">
        <ele>102</ele>
        <time>2016-10-30T10:24:15.000Z</time>
      </trkpt>
      <trkpt lat="47.80661" lon="2.13095">
        <ele>102</ele>
        <time>2016-10-30T10:24:16.000Z</time>
      </trkpt>
      <trkpt lat="47.8066" lon="2.131">
        <ele>102</ele>
        <time>2016-10-30T10:24:17.000Z</time>
      </trkpt>
      <trkpt lat="47.80659" lon="2.13106">
        <ele>102</ele>
        <time>2016-10-30T10:24:18.000Z</time>
      </trkpt>
      <trkpt lat="47.80658" lon="2.13112">
        <ele>102</ele>
        <time>2016-10-30T10:24:19.000Z</time>
      </trkpt>
      <trkpt lat="47.80658" lon="2.13117">
        <ele>102</ele>
        <time>2016-10-30T10:24:20.000Z</time>
      </trkpt>
      <trkpt lat="47.80657" lon="2.13123">
        <ele>102</ele>
        <time>2016-10-30T10:24:21.000Z</time>
      </trkpt>
      <trkpt lat="47.80656" lon="2.13129">
        <ele>102</ele>
        <time>2016-10-30T10:24:22.000Z</time>
      </trkpt>
      <trkpt lat="47.80655" lon="2.13135">
        <ele>102</ele>
        <time>2016-10-30T10:24:23.000Z</time>
      </trkpt>
      <trkpt lat="47.80654" lon="2.1314">
        <ele>102</ele>
        <time>2016-10-30T10:24:24.000Z</time>
      </trkpt>
      <trkpt lat="47.80652" lon="2.13145">
        <ele>103</ele>
        <time>2016-10-30T10:24:25.000Z</time>
      </trkpt>
      <trkpt lat="47.8065" lon="2.13149">
        <ele>102</ele>
        <time>2016-10-30T10:24:26.000Z</time>
      </trkpt>
      <trkpt lat="47.80647" lon="2.13153">
        <ele>102</ele>
        <time>2016-10-30T10:24:27.000Z</time>
      </trkpt>
      <trkpt lat="47.80645" lon="2.13156">
        <ele>102</ele>
        <time>2016-10-30T10:24:28.000Z</time>
      </trkpt>
      <trkpt lat="47.80642" lon="2.13159">
        <ele>102</ele>
        <time>2016-10-30T10:24:29.000Z</time>
      </trkpt>
      <trkpt lat="47.80638" lon="2.13161">
        <ele>102</ele>
        <time>2016-10-30T10:24:30.000Z</time>
      </trkpt>
      <trkpt lat="47.80634" lon="2.13164">
        <ele>102</ele>
        <time>2016-10-30T10:24:31.000Z</time>
      </trkpt>
      <trkpt lat="47.80631" lon="2.13166">
        <ele>102</ele>
        <time>2016-10-30T10:24:32.000Z</time>
      </trkpt>
      <trkpt lat="47.80627" lon="2.13168">
        <ele>102</ele>
        <time>2016-10-30T10:24:33.000Z</time>
      </trkpt>
      <trkpt lat="47.80624" lon="2.1317">
        <ele>102</ele>
        <time>2016-10-30T10:24:34.000Z</time>
      </trkpt>
      <trkpt lat="47.8062" lon="2.13171">
        <ele>103</ele>
        <time>2016-10-30T10:24:35.000Z</time>
      </trkpt>
      <trkpt lat="47.80617" lon="2.13173">
        <ele>103</ele>
        <time>2016-10-30T10:24:36.000Z</time>
      </trkpt>
      <trkpt lat="47.80613" lon="2.13175">
        <ele>103</ele>
        <time>2016-10-30T10:24:37.000Z</time>
      </trkpt>
      <trkpt lat="47.8061" lon="2.13177">
        <ele>103</ele>
        <time>2016-10-30T10:24:38.000Z</time>
      </trkpt>
      <trkpt lat="47.80608" lon="2.1318">
        <ele>104</ele>
        <time>2016-10-30T10:24:39.000Z</time>
      </trkpt>
      <trkpt lat="47.80606" lon="2.13184">
        <ele>104</ele>
        <time>2016-10-30T10:24:40.000Z</time>
      </trkpt>
      <trkpt lat="47.80605" lon="2.13189">
        <ele>104</ele>
        <time>2016-10-30T10:24:41.000Z</time>
      </trkpt>
      <trkpt lat="47.80604" lon="2.13194">
        <ele>104</ele>
        <time>2016-10-30T10:24:42.000Z</time>
      </trkpt>
      <trkpt lat="47.80603" lon="2.132">
        <ele>104</ele>
        <time>2016-10-30T10:24:43.000Z</time>
      </trkpt>
      <trkpt lat="47.80602" lon="2.13206">
        <ele>104</ele>
        <time>2016-10-30T10:24:44.000Z</time>
      </trkpt>
      <trkpt lat="47.806" lon="2.13211">
        <ele>104</ele>
        <time>2016-10-30T10:24:45.000Z</time>
      </trkpt>
      <trkpt lat="47.80599" lon="2.13217">
        <ele>103</ele>
        <time>2016-10-30T10:24:46.000Z</time>
      </trkpt>
      <trkpt lat="47.80598" lon="2.13222">
        <ele>103</ele>
        <time>2016-10-30T10:24:47.000Z</time>
      </trkpt>
      <trkpt lat="47.80597" lon="2.13228">
        <ele>103</ele>
        <time>2016-10-30T10:24:48.000Z</time>
      </trkpt>
      <trkpt lat="47.80596" lon="2.13233">
        <ele>103</ele>
        <time>2016-10-30T10:24:49.000Z</time>
      </trkpt>
      <trkpt lat="47.80596" lon="2.13239">
        <ele>102</ele>
        <time>2016-10-30T10:24:50.000Z</time>
      </trkpt>
      <trkpt lat="47.80595" lon="2.13244">
        <ele>101</ele>
        <time>2016-10-30T10:24:51.000Z</time>
      </trkpt>
      <trkpt lat="47.80595" lon="2.1325">
        <ele>101</ele>
        <time>2016-10-30T10:24:52.000Z</time>
      </trkpt>
      <trkpt lat="47.80594" lon="2.13256">
        <ele>101</ele>
        <time>2016-10-30T10:24:53.000Z</time>
      </trkpt>
      <trkpt lat="47.80594" lon="2.13262">
        <ele>101</ele>
        <time>2016-10-30T10:24:54.000Z</time>
      </trkpt>
      <trkpt lat="47.80593" lon="2.13268">
        <ele>100</ele>
        <time>2016-10-30T10:24:55.000Z</time>
      </trkpt>
      <trkpt lat="47.80592" lon="2.13274">
        <ele>99</ele>
        <time>2016-10-30T10:24:56.000Z</time>
      </trkpt>
      <trkpt lat="47.80591" lon="2.1328">
        <ele>99</ele>
        <time>2016-10-30T10:24:57.000Z</time>
      </trkpt>
      <trkpt lat="47.80591" lon="2.13285">
        <ele>99</ele>
        <time>2016-10-30T10:24:58.000Z</time>
      </trkpt>
      <trkpt lat="47.8059" lon="2.13291">
        <ele>98</ele>
        <time>2016-10-30T10:24:59.000Z</time>
      </trkpt>
      <trkpt lat="47.80589" lon="2.13297">
        <ele>99</ele>
        <time>2016-10-30T10:25:00.000Z</time>
      </trkpt>
      <trkpt lat="47.80589" lon="2.13303">
        <ele>99</ele>
        <time>2016-10-30T10:25:01.000Z</time>
      </trkpt>
      <trkpt lat="47.80588" lon="2.13309">
        <ele>99</ele>
        <time>2016-10-30T10:25:02.000Z</time>
      </trkpt>
      <trkpt lat="47.80588" lon="2.13315">
        <ele>99</ele>
        <time>2016-10-30T10:25:03.000Z</time>
      </trkpt>
      <trkpt lat="47.80587" lon="2.13321">
        <ele>99</ele>
        <time>2016-10-30T10:25:04.000Z</time>
      </trkpt>
      <trkpt lat="47.80586" lon="2.13327">
        <ele>98</ele>
        <time>2016-10-30T10:25:05.000Z</time>
      </trkpt>
      <trkpt lat="47.80584" lon="2.13333">
        <ele>99</ele>
        <time>2016-10-30T10:25:06.000Z</time>
      </trkpt>
      <trkpt lat="47.80584" lon="2.13339">
        <ele>99</ele>
        <time>2016-10-30T10:25:07.000Z</time>
      </trkpt>
      <trkpt lat="47.80583" lon="2.13345">
        <ele>100</ele>
        <time>2016-10-30T10:25:08.000Z</time>
      </trkpt>
      <trkpt lat="47.80582" lon="2.13351">
        <ele>100</ele>
        <time>2016-10-30T10:25:09.000Z</time>
      </trkpt>
      <trkpt lat="47.80581" lon="2.13357">
        <ele>100</ele>
        <time>2016-10-30T10:25:10.000Z</time>
      </trkpt>
      <trkpt lat="47.8058" lon="2.13363">
        <ele>100</ele>
        <time>2016-10-30T10:25:11.000Z</time>
      </trkpt>
      <trkpt lat="47.80579" lon="2.13369">
        <ele>101</ele>
        <time>2016-10-30T10:25:12.000Z</time>
      </trkpt>
      <trkpt lat="47.80578" lon="2.13375">
        <ele>101</ele>
        <time>2016-10-30T10:25:13.000Z</time>
      </trkpt>
      <trkpt lat="47.80578" lon="2.13381">
        <ele>101</ele>
        <time>2016-10-30T10:25:14.000Z</time>
      </trkpt>
      <trkpt lat="47.80577" lon="2.13387">
        <ele>101</ele>
        <time>2016-10-30T10:25:15.000Z</time>
      </trkpt>
      <trkpt lat="47.80576" lon="2.13392">
        <ele>102</ele>
        <time>2016-10-30T10:25:16.000Z</time>
      </trkpt>
      <trkpt lat="47.80575" lon="2.13398">
        <ele>102</ele>
        <time>2016-10-30T10:25:17.000Z</time>
      </trkpt>
      <trkpt lat="47.80575" lon="2.13404">
        <ele>103</ele>
        <time>2016-10-30T10:25:18.000Z</time>
      </trkpt>
      <trkpt lat="47.80574" lon="2.13409">
        <ele>103</ele>
        <time>2016-10-30T10:25:19.000Z</time>
      </trkpt>
      <trkpt lat="47.80573" lon="2.13415">
        <ele>103</ele>
        <time>2016-10-30T10:25:20.000Z</time>
      </trkpt>
      <trkpt lat="47.80573" lon="2.13421">
        <ele>103</ele>
        <time>2016-10-30T10:25:21.000Z</time>
      </trkpt>
      <trkpt lat="47.80572" lon="2.13426">
        <ele>103</ele>
        <time>2016-10-30T10:25:22.000Z</time>
      </trkpt>
      <trkpt lat="47.80571" lon="2.13432">
        <ele>103</ele>
        <time>2016-10-30T10:25:23.000Z</time>
      </trkpt>
      <trkpt lat="47.8057" lon="2.13438">
        <ele>103</ele>
        <time>2016-10-30T10:25:24.000Z</time>
      </trkpt>
      <trkpt lat="47.80569" lon="2.13443">
        <ele>103</ele>
        <time>2016-10-30T10:25:25.000Z</time>
      </trkpt>
      <trkpt lat="47.80568" lon="2.13449">
        <ele>103</ele>
        <time>2016-10-30T10:25:26.000Z</time>
      </trkpt>
      <trkpt lat="47.80567" lon="2.13454">
        <ele>103</ele>
        <time>2016-10-30T10:25:27.000Z</time>
      </trkpt>
      <trkpt lat="47.80566" lon="2.1346">
        <ele>103</ele>
        <time>2016-10-30T10:25:28.000Z</time>
      </trkpt>
      <trkpt lat="47.80565" lon="2.13466">
        <ele>103</ele>
        <time>2016-10-30T10:25:29.000Z</time>
      </trkpt>
      <trkpt lat="47.80564" lon="2.13472">
        <ele>103</ele>
        <time>2016-10-30T10:25:30.000Z</time>
      </trkpt>
      <trkpt lat="47.80563" lon="2.13477">
        <ele>103</ele>
        <time>2016-10-30T10:25:31.000Z</time>
      </trkpt>
      <trkpt lat="47.80562" lon="2.13483">
        <ele>103</ele>
        <time>2016-10-30T10:25:32.000Z</time>
      </trkpt>
      <trkpt lat="47.80561" lon="2.13489">
        <ele>103</ele>
        <time>2016-10-30T10:25:33.000Z</time>
      </trkpt>
      <trkpt lat="47.80561" lon="2.13495">
        <ele>103</ele>
        <time>2016-10-30T10:25:34.000Z</time>
      </trkpt>
      <trkpt lat="47.8056" lon="2.135">
        <ele>103</ele>
        <time>2016-10-30T10:25:35.000Z</time>
      </trkpt>
      <trkpt lat="47.80559" lon="2.13506">
        <ele>103</ele>
        <time>2016-10-30T10:25:36.000Z</time>
      </trkpt>
      <trkpt lat="47.80558" lon="2.13512">
        <ele>103</ele>
        <time>2016-10-30T10:25:37.000Z</time>
      </trkpt>
      <trkpt lat="47.80557" lon="2.13518">
        <ele>103</ele>
        <time>2016-10-30T10:25:38.000Z</time>
      </trkpt>
      <trkpt lat="47.80556" lon="2.13523">
        <ele>103</ele>
        <time>2016-10-30T10:25:39.000Z</time>
      </trkpt>
      <trkpt lat="47.80555" lon="2.13529">
        <ele>103</ele>
        <time>2016-10-30T10:25:40.000Z</time>
      </trkpt>
      <trkpt lat="47.80554" lon="2.13535">
        <ele>103</ele>
        <time>2016-10-30T10:25:41.000Z</time>
      </trkpt>
      <trkpt lat="47.80554" lon="2.1354">
        <ele>104</ele>
        <time>2016-10-30T10:25:42.000Z</time>
      </trkpt>
      <trkpt lat="47.80553" lon="2.13545">
        <ele>104</ele>
        <time>2016-10-30T10:25:43.000Z</time>
      </trkpt>
      <trkpt lat="47.80551" lon="2.1355">
        <ele>104</ele>
        <time>2016-10-30T10:25:44.000Z</time>
      </trkpt>
      <trkpt lat="47.8055" lon="2.13554">
        <ele>104</ele>
        <time>2016-10-30T10:25:45.000Z</time>
      </trkpt>
      <trkpt lat="47.8055" lon="2.13558">
        <ele>104</ele>
        <time>2016-10-30T10:25:46.000Z</time>
      </trkpt>
      <trkpt lat="47.8055" lon="2.13561">
        <ele>104</ele>
        <time>2016-10-30T10:25:47.000Z</time>
      </trkpt>
      <trkpt lat="47.8055" lon="2.13564">
        <ele>104</ele>
        <time>2016-10-30T10:25:48.000Z</time>
      </trkpt>
      <trkpt lat="47.80549" lon="2.13568">
        <ele>104</ele>
        <time>2016-10-30T10:25:49.000Z</time>
      </trkpt>
      <trkpt lat="47.80549" lon="2.13571">
        <ele>103</ele>
        <time>2016-10-30T10:25:50.000Z</time>
      </trkpt>
      <trkpt lat="47.80548" lon="2.13576">
        <ele>103</ele>
        <time>2016-10-30T10:25:51.000Z</time>
      </trkpt>
      <trkpt lat="47.80548" lon="2.1358">
        <ele>103</ele>
        <time>2016-10-30T10:25:52.000Z</time>
      </trkpt>
      <trkpt lat="47.80547" lon="2.13585">
        <ele>103</ele>
        <time>2016-10-30T10:25:53.000Z</time>
      </trkpt>
      <trkpt lat="47.80547" lon="2.1359">
        <ele>103</ele>
        <time>2016-10-30T10:25:54.000Z</time>
      </trkpt>
      <trkpt lat="47.80547" lon="2.13596">
        <ele>103</ele>
        <time>2016-10-30T10:25:55.000Z</time>
      </trkpt>
      <trkpt lat="47.80546" lon="2.13602">
        <ele>102</ele>
        <time>2016-10-30T10:25:56.000Z</time>
      </trkpt>
      <trkpt lat="47.80545" lon="2.13607">
        <ele>102</ele>
        <time>2016-10-30T10:25:57.000Z</time>
      </trkpt>
      <trkpt lat="47.80544" lon="2.13613">
        <ele>103</ele>
        <time>2016-10-30T10:25:58.000Z</time>
      </trkpt>
      <trkpt lat="47.80544" lon="2.13619">
        <ele>103</ele>
        <time>2016-10-30T10:25:59.000Z</time>
      </trkpt>
      <trkpt lat="47.80543" lon="2.13624">
        <ele>102</ele>
        <time>2016-10-30T10:26:00.000Z</time>
      </trkpt>
      <trkpt lat="47.80542" lon="2.13629">
        <ele>103</ele>
        <time>2016-10-30T10:26:01.000Z</time>
      </trkpt>
      <trkpt lat="47.80541" lon="2.13635">
        <ele>102</ele>
        <time>2016-10-30T10:26:02.000Z</time>
      </trkpt>
      <trkpt lat="47.8054" lon="2.1364">
        <ele>102</ele>
        <time>2016-10-30T10:26:03.000Z</time>
      </trkpt>
      <trkpt lat="47.8054" lon="2.13645">
        <ele>103</ele>
        <time>2016-10-30T10:26:04.000Z</time>
      </trkpt>
      <trkpt lat="47.80539" lon="2.1365">
        <ele>103</ele>
        <time>2016-10-30T10:26:05.000Z</time>
      </trkpt>
      <trkpt lat="47.80538" lon="2.13655">
        <ele>103</ele>
        <time>2016-10-30T10:26:06.000Z</time>
      </trkpt>
      <trkpt lat="47.80537" lon="2.13661">
        <ele>102</ele>
        <time>2016-10-30T10:26:07.000Z</time>
      </trkpt>
      <trkpt lat="47.80536" lon="2.13666">
        <ele>102</ele>
        <time>2016-10-30T10:26:08.000Z</time>
      </trkpt>
      <trkpt lat="47.80536" lon="2.13671">
        <ele>102</ele>
        <time>2016-10-30T10:26:09.000Z</time>
      </trkpt>
      <trkpt lat="47.80535" lon="2.13676">
        <ele>102</ele>
        <time>2016-10-30T10:26:10.000Z</time>
      </trkpt>
      <trkpt lat="47.80534" lon="2.13682">
        <ele>102</ele>
        <time>2016-10-30T10:26:11.000Z</time>
      </trkpt>
      <trkpt lat="47.80533" lon="2.13687">
        <ele>102</ele>
        <time>2016-10-30T10:26:12.000Z</time>
      </trkpt>
      <trkpt lat="47.80533" lon="2.13692">
        <ele>102</ele>
        <time>2016-10-30T10:26:13.000Z</time>
      </trkpt>
      <trkpt lat="47.80532" lon="2.13697">
        <ele>102</ele>
        <time>2016-10-30T10:26:14.000Z</time>
      </trkpt>
      <trkpt lat="47.80532" lon="2.13702">
        <ele>102</ele>
        <time>2016-10-30T10:26:15.000Z</time>
      </trkpt>
      <trkpt lat="47.80531" lon="2.13707">
        <ele>102</ele>
        <time>2016-10-30T10:26:16.000Z</time>
      </trkpt>
      <trkpt lat="47.80531" lon="2.13712">
        <ele>102</ele>
        <time>2016-10-30T10:26:17.000Z</time>
      </trkpt>
      <trkpt lat="47.8053" lon="2.13717">
        <ele>102</ele>
        <time>2016-10-30T10:26:18.000Z</time>
      </trkpt>
      <trkpt lat="47.8053" lon="2.13722">
        <ele>102</ele>
        <time>2016-10-30T10:26:19.000Z</time>
      </trkpt>
      <trkpt lat="47.80529" lon="2.13727">
        <ele>102</ele>
        <time>2016-10-30T10:26:20.000Z</time>
      </trkpt>
      <trkpt lat="47.80529" lon="2.13732">
        <ele>102</ele>
        <time>2016-10-30T10:26:21.000Z</time>
      </trkpt>
      <trkpt lat="47.80528" lon="2.13737">
        <ele>102</ele>
        <time>2016-10-30T10:26:22.000Z</time>
      </trkpt>
      <trkpt lat="47.80528" lon="2.13742">
        <ele>102</ele>
        <time>2016-10-30T10:26:23.000Z</time>
      </trkpt>
      <trkpt lat="47.80527" lon="2.13747">
        <ele>102</ele>
        <time>2016-10-30T10:26:24.000Z</time>
      </trkpt>
      <trkpt lat="47.80527" lon="2.13752">
        <ele>102</ele>
        <time>2016-10-30T10:26:25.000Z</time>
      </trkpt>
      <trkpt lat="47.80526" lon="2.13757">
        <ele>102</ele>
        <time>2016-10-30T10:26:26.000Z</time>
      </trkpt>
      <trkpt lat="47.80526" lon="2.13762">
        <ele>102</ele>
        <time>2016-10-30T10:26:27.000Z</time>
      </trkpt>
      <trkpt lat="47.80525" lon="2.13767">
        <ele>102</ele>
        <time>2016-10-30T10:26:28.000Z</time>
      </trkpt>
      <trkpt lat="47.80525" lon="2.13772">
        <ele>102</ele>
        <time>2016-10-30T10:26:29.000Z</time>
      </trkpt>
      <trkpt lat="47.80525" lon="2.13778">
        <ele>102</ele>
        <time>2016-10-30T10:26:30.000Z</time>
      </trkpt>
      <trkpt lat="47.80525" lon="2.13783">
        <ele>102</ele>
        <time>2016-10-30T10:26:31.000Z</time>
      </trkpt>
      <trkpt lat="47.80524" lon="2.13788">
        <ele>102</ele>
        <time>2016-10-30T10:26:32.000Z</time>
      </trkpt>
      <trkpt lat="47.80524" lon="2.13792">
        <ele>102</ele>
        <time>2016-10-30T10:26:33.000Z</time>
      </trkpt>
      <trkpt lat="47.80524" lon="2.13797">
        <ele>102</ele>
        <time>2016-10-30T10:26:34.000Z</time>
      </trkpt>
      <trkpt lat="47.80523" lon="2.13802">
        <ele>102</ele>
        <time>2016-10-30T10:26:35.000Z</time>
      </trkpt>
      <trkpt lat="47.80523" lon="2.13808">
        <ele>102</ele>
        <time>2016-10-30T10:26:36.000Z</time>
      </trkpt>
      <trkpt lat="47.80523" lon="2.13813">
        <ele>103</ele>
        <time>2016-10-30T10:26:37.000Z</time>
      </trkpt>
      <trkpt lat="47.80523" lon="2.13818">
        <ele>103</ele>
        <time>2016-10-30T10:26:38.000Z</time>
      </trkpt>
      <trkpt lat="47.80523" lon="2.13823">
        <ele>103</ele>
        <time>2016-10-30T10:26:39.000Z</time>
      </trkpt>
      <trkpt lat="47.80522" lon="2.13828">
        <ele>103</ele>
        <time>2016-10-30T10:26:40.000Z</time>
      </trkpt>
      <trkpt lat="47.80522" lon="2.13832">
        <ele>103</ele>
        <time>2016-10-30T10:26:41.000Z</time>
      </trkpt>
      <trkpt lat="47.80522" lon="2.13837">
        <ele>103</ele>
        <time>2016-10-30T10:26:42.000Z</time>
      </trkpt>
      <trkpt lat="47.80522" lon="2.13842">
        <ele>103</ele>
        <time>2016-10-30T10:26:43.000Z</time>
      </trkpt>
      <trkpt lat="47.80522" lon="2.13846">
        <ele>103</ele>
        <time>2016-10-30T10:26:44.000Z</time>
      </trkpt>
      <trkpt lat="47.80522" lon="2.13851">
        <ele>103</ele>
        <time>2016-10-30T10:26:45.000Z</time>
      </trkpt>
      <trkpt lat="47.80522" lon="2.13855">
        <ele>103</ele>
        <time>2016-10-30T10:26:46.000Z</time>
      </trkpt>
      <trkpt lat="47.80521" lon="2.13861">
        <ele>103</ele>
        <time>2016-10-30T10:26:47.000Z</time>
      </trkpt>
      <trkpt lat="47.80521" lon="2.13866">
        <ele>103</ele>
        <time>2016-10-30T10:26:48.000Z</time>
      </trkpt>
      <trkpt lat="47.8052" lon="2.13871">
        <ele>103</ele>
        <time>2016-10-30T10:26:49.000Z</time>
      </trkpt>
      <trkpt lat="47.8052" lon="2.13876">
        <ele>102</ele>
        <time>2016-10-30T10:26:50.000Z</time>
      </trkpt>
      <trkpt lat="47.8052" lon="2.13881">
        <ele>102</ele>
        <time>2016-10-30T10:26:51.000Z</time>
      </trkpt>
      <trkpt lat="47.8052" lon="2.13886">
        <ele>102</ele>
        <time>2016-10-30T10:26:52.000Z</time>
      </trkpt>
      <trkpt lat="47.8052" lon="2.13891">
        <ele>102</ele>
        <time>2016-10-30T10:26:53.000Z</time>
      </trkpt>
      <trkpt lat="47.8052" lon="2.13897">
        <ele>102</ele>
        <time>2016-10-30T10:26:54.000Z</time>
      </trkpt>
      <trkpt lat="47.80521" lon="2.13902">
        <ele>102</ele>
        <time>2016-10-30T10:26:55.000Z</time>
      </trkpt>
      <trkpt lat="47.80521" lon="2.13907">
        <ele>103</ele>
        <time>2016-10-30T10:26:56.000Z</time>
      </trkpt>
      <trkpt lat="47.80521" lon="2.13912">
        <ele>103</ele>
        <time>2016-10-30T10:26:57.000Z</time>
      </trkpt>
      <trkpt lat="47.80521" lon="2.13917">
        <ele>103</ele>
        <time>2016-10-30T10:26:58.000Z</time>
      </trkpt>
      <trkpt lat="47.80521" lon="2.13922">
        <ele>102</ele>
        <time>2016-10-30T10:26:59.000Z</time>
      </trkpt>
      <trkpt lat="47.80521" lon="2.13927">
        <ele>102</ele>
        <time>2016-10-30T10:27:00.000Z</time>
      </trkpt>
      <trkpt lat="47.80521" lon="2.13932">
        <ele>102</ele>
        <time>2016-10-30T10:27:01.000Z</time>
      </trkpt>
      <trkpt lat="47.80522" lon="2.13937">
        <ele>103</ele>
        <time>2016-10-30T10:27:02.000Z</time>
      </trkpt>
      <trkpt lat="47.80522" lon="2.13942">
        <ele>103</ele>
        <time>2016-10-30T10:27:03.000Z</time>
      </trkpt>
      <trkpt lat="47.80522" lon="2.13946">
        <ele>103</ele>
        <time>2016-10-30T10:27:04.000Z</time>
      </trkpt>
      <trkpt lat="47.80522" lon="2.1395">
        <ele>103</ele>
        <time>2016-10-30T10:27:05.000Z</time>
      </trkpt>
      <trkpt lat="47.80523" lon="2.13954">
        <ele>102</ele>
        <time>2016-10-30T10:27:06.000Z</time>
      </trkpt>
      <trkpt lat="47.80523" lon="2.13959">
        <ele>102</ele>
        <time>2016-10-30T10:27:07.000Z</time>
      </trkpt>
      <trkpt lat="47.80524" lon="2.13964">
        <ele>102</ele>
        <time>2016-10-30T10:27:08.000Z</time>
      </trkpt>
      <trkpt lat="47.80524" lon="2.13968">
        <ele>102</ele>
        <time>2016-10-30T10:27:09.000Z</time>
      </trkpt>
      <trkpt lat="47.80524" lon="2.13973">
        <ele>102</ele>
        <time>2016-10-30T10:27:10.000Z</time>
      </trkpt>
      <trkpt lat="47.80524" lon="2.13978">
        <ele>102</ele>
        <time>2016-10-30T10:27:11.000Z</time>
      </trkpt>
      <trkpt lat="47.80525" lon="2.13982">
        <ele>103</ele>
        <time>2016-10-30T10:27:12.000Z</time>
      </trkpt>
      <trkpt lat="47.80525" lon="2.13987">
        <ele>103</ele>
        <time>2016-10-30T10:27:13.000Z</time>
      </trkpt>
      <trkpt lat="47.80525" lon="2.13991">
        <ele>103</ele>
        <time>2016-10-30T10:27:14.000Z</time>
      </trkpt>
      <trkpt lat="47.80526" lon="2.13996">
        <ele>103</ele>
        <time>2016-10-30T10:27:15.000Z</time>
      </trkpt>
      <trkpt lat="47.80526" lon="2.14001">
        <ele>103</ele>
        <time>2016-10-30T10:27:16.000Z</time>
      </trkpt>
      <trkpt lat="47.80526" lon="2.14005">
        <ele>102</ele>
        <time>2016-10-30T10:27:17.000Z</time>
      </trkpt>
      <trkpt lat="47.80527" lon="2.1401">
        <ele>103</ele>
        <time>2016-10-30T10:27:18.000Z</time>
      </trkpt>
      <trkpt lat="47.80527" lon="2.14015">
        <ele>103</ele>
        <time>2016-10-30T10:27:19.000Z</time>
      </trkpt>
      <trkpt lat="47.80527" lon="2.14019">
        <ele>103</ele>
        <time>2016-10-30T10:27:20.000Z</time>
      </trkpt>
      <trkpt lat="47.80528" lon="2.14024">
        <ele>103</ele>
        <time>2016-10-30T10:27:21.000Z</time>
      </trkpt>
      <trkpt lat="47.80528" lon="2.14028">
        <ele>103</ele>
        <time>2016-10-30T10:27:22.000Z</time>
      </trkpt>
      <trkpt lat="47.80528" lon="2.14033">
        <ele>102</ele>
        <time>2016-10-30T10:27:23.000Z</time>
      </trkpt>
      <trkpt lat="47.80528" lon="2.14038">
        <ele>103</ele>
        <time>2016-10-30T10:27:24.000Z</time>
      </trkpt>
      <trkpt lat="47.80529" lon="2.14043">
        <ele>103</ele>
        <time>2016-10-30T10:27:25.000Z</time>
      </trkpt>
      <trkpt lat="47.80529" lon="2.14047">
        <ele>103</ele>
        <time>2016-10-30T10:27:26.000Z</time>
      </trkpt>
      <trkpt lat="47.80529" lon="2.14052">
        <ele>102</ele>
        <time>2016-10-30T10:27:27.000Z</time>
      </trkpt>
      <trkpt lat="47.8053" lon="2.14057">
        <ele>102</ele>
        <time>2016-10-30T10:27:28.000Z</time>
      </trkpt>
      <trkpt lat="47.8053" lon="2.14061">
        <ele>102</ele>
        <time>2016-10-30T10:27:29.000Z</time>
      </trkpt>
      <trkpt lat="47.8053" lon="2.14066">
        <ele>102</ele>
        <time>2016-10-30T10:27:30.000Z</time>
      </trkpt>
      <trkpt lat="47.80531" lon="2.14071">
        <ele>103</ele>
        <time>2016-10-30T10:27:31.000Z</time>
      </trkpt>
      <trkpt lat="47.80531" lon="2.14075">
        <ele>102</ele>
        <time>2016-10-30T10:27:32.000Z</time>
      </trkpt>
      <trkpt lat="47.80532" lon="2.1408">
        <ele>102</ele>
        <time>2016-10-30T10:27:33.000Z</time>
      </trkpt>
      <trkpt lat="47.80532" lon="2.14085">
        <ele>103</ele>
        <time>2016-10-30T10:27:34.000Z</time>
      </trkpt>
      <trkpt lat="47.80532" lon="2.14089">
        <ele>103</ele>
        <time>2016-10-30T10:27:35.000Z</time>
      </trkpt>
      <trkpt lat="47.80533" lon="2.14094">
        <ele>103</ele>
        <time>2016-10-30T10:27:36.000Z</time>
      </trkpt>
      <trkpt lat="47.80533" lon="2.14099">
        <ele>103</ele>
        <time>2016-10-30T10:27:37.000Z</time>
      </trkpt>
      <trkpt lat="47.80533" lon="2.14104">
        <ele>103</ele>
        <time>2016-10-30T10:27:38.000Z</time>
      </trkpt>
      <trkpt lat="47.80534" lon="2.14109">
        <ele>103</ele>
        <time>2016-10-30T10:27:39.000Z</time>
      </trkpt>
      <trkpt lat="47.80534" lon="2.14114">
        <ele>103</ele>
        <time>2016-10-30T10:27:40.000Z</time>
      </trkpt>
      <trkpt lat="47.80535" lon="2.14119">
        <ele>103</ele>
        <time>2016-10-30T10:27:41.000Z</time>
      </trkpt>
      <trkpt lat="47.80535" lon="2.14124">
        <ele>103</ele>
        <time>2016-10-30T10:27:42.000Z</time>
      </trkpt>
      <trkpt lat="47.80535" lon="2.14129">
        <ele>103</ele>
        <time>2016-10-30T10:27:43.000Z</time>
      </trkpt>
      <trkpt lat="47.80536" lon="2.14134">
        <ele>103</ele>
        <time>2016-10-30T10:27:44.000Z</time>
      </trkpt>
      <trkpt lat="47.80536" lon="2.14139">
        <ele>103</ele>
        <time>2016-10-30T10:27:45.000Z</time>
      </trkpt>
      <trkpt lat="47.80536" lon="2.14144">
        <ele>103</ele>
        <time>2016-10-30T10:27:46.000Z</time>
      </trkpt>
      <trkpt lat="47.80537" lon="2.14149">
        <ele>103</ele>
        <time>2016-10-30T10:27:47.000Z</time>
      </trkpt>
      <trkpt lat="47.80537" lon="2.14154">
        <ele>103</ele>
        <time>2016-10-30T10:27:48.000Z</time>
      </trkpt>
      <trkpt lat="47.80538" lon="2.14159">
        <ele>103</ele>
        <time>2016-10-30T10:27:49.000Z</time>
      </trkpt>
      <trkpt lat="47.80538" lon="2.14164">
        <ele>103</ele>
        <time>2016-10-30T10:27:50.000Z</time>
      </trkpt>
      <trkpt lat="47.80539" lon="2.1417">
        <ele>103</ele>
        <time>2016-10-30T10:27:51.000Z</time>
      </trkpt>
      <trkpt lat="47.80539" lon="2.14175">
        <ele>103</ele>
        <time>2016-10-30T10:27:52.000Z</time>
      </trkpt>
      <trkpt lat="47.8054" lon="2.14181">
        <ele>103</ele>
        <time>2016-10-30T10:27:53.000Z</time>
      </trkpt>
      <trkpt lat="47.8054" lon="2.14187">
        <ele>103</ele>
        <time>2016-10-30T10:27:54.000Z</time>
      </trkpt>
      <trkpt lat="47.80541" lon="2.14192">
        <ele>103</ele>
        <time>2016-10-30T10:27:55.000Z</time>
      </trkpt>
      <trkpt lat="47.80541" lon="2.14198">
        <ele>103</ele>
        <time>2016-10-30T10:27:56.000Z</time>
      </trkpt>
      <trkpt lat="47.80541" lon="2.14204">
        <ele>103</ele>
        <time>2016-10-30T10:27:57.000Z</time>
      </trkpt>
      <trkpt lat="47.80542" lon="2.14209">
        <ele>103</ele>
        <time>2016-10-30T10:27:58.000Z</time>
      </trkpt>
      <trkpt lat="47.80542" lon="2.14215">
        <ele>103</ele>
        <time>2016-10-30T10:27:59.000Z</time>
      </trkpt>
      <trkpt lat="47.80543" lon="2.14221">
        <ele>103</ele>
        <time>2016-10-30T10:28:00.000Z</time>
      </trkpt>
      <trkpt lat="47.80543" lon="2.14227">
        <ele>103</ele>
        <time>2016-10-30T10:28:01.000Z</time>
      </trkpt>
      <trkpt lat="47.80544" lon="2.14233">
        <ele>103</ele>
        <time>2016-10-30T10:28:02.000Z</time>
      </trkpt>
      <trkpt lat="47.80544" lon="2.14239">
        <ele>103</ele>
        <time>2016-10-30T10:28:03.000Z</time>
      </trkpt>
      <trkpt lat="47.80545" lon="2.14245">
        <ele>103</ele>
        <time>2016-10-30T10:28:04.000Z</time>
      </trkpt>
      <trkpt lat="47.80545" lon="2.14251">
        <ele>103</ele>
        <time>2016-10-30T10:28:05.000Z</time>
      </trkpt>
      <trkpt lat="47.80546" lon="2.14257">
        <ele>103</ele>
        <time>2016-10-30T10:28:06.000Z</time>
      </trkpt>
      <trkpt lat="47.80546" lon="2.14262">
        <ele>102</ele>
        <time>2016-10-30T10:28:07.000Z</time>
      </trkpt>
      <trkpt lat="47.80547" lon="2.14267">
        <ele>102</ele>
        <time>2016-10-30T10:28:08.000Z</time>
      </trkpt>
      <trkpt lat="47.80547" lon="2.14271">
        <ele>102</ele>
        <time>2016-10-30T10:28:09.000Z</time>
      </trkpt>
      <trkpt lat="47.80547" lon="2.14275">
        <ele>102</ele>
        <time>2016-10-30T10:28:10.000Z</time>
      </trkpt>
      <trkpt lat="47.80548" lon="2.14279">
        <ele>102</ele>
        <time>2016-10-30T10:28:11.000Z</time>
      </trkpt>
      <trkpt lat="47.80548" lon="2.14282">
        <ele>102</ele>
        <time>2016-10-30T10:28:12.000Z</time>
      </trkpt>
      <trkpt lat="47.80548" lon="2.14286">
        <ele>103</ele>
        <time>2016-10-30T10:28:13.000Z</time>
      </trkpt>
      <trkpt lat="47.80548" lon="2.1429">
        <ele>103</ele>
        <time>2016-10-30T10:28:14.000Z</time>
      </trkpt>
      <trkpt lat="47.80549" lon="2.14294">
        <ele>103</ele>
        <time>2016-10-30T10:28:15.000Z</time>
      </trkpt>
      <trkpt lat="47.80548" lon="2.14298">
        <ele>103</ele>
        <time>2016-10-30T10:28:16.000Z</time>
      </trkpt>
      <trkpt lat="47.80548" lon="2.14301">
        <ele>103</ele>
        <time>2016-10-30T10:28:17.000Z</time>
      </trkpt>
      <trkpt lat="47.80547" lon="2.14303">
        <ele>103</ele>
        <time>2016-10-30T10:28:18.000Z</time>
      </trkpt>
      <trkpt lat="47.80545" lon="2.14304">
        <ele>102</ele>
        <time>2016-10-30T10:28:19.000Z</time>
      </trkpt>
      <trkpt lat="47.80543" lon="2.14304">
        <ele>101</ele>
        <time>2016-10-30T10:28:20.000Z</time>
      </trkpt>
      <trkpt lat="47.80541" lon="2.14303">
        <ele>101</ele>
        <time>2016-10-30T10:28:21.000Z</time>
      </trkpt>
      <trkpt lat="47.80539" lon="2.14301">
        <ele>102</ele>
        <time>2016-10-30T10:28:22.000Z</time>
      </trkpt>
      <trkpt lat="47.80536" lon="2.14298">
        <ele>102</ele>
        <time>2016-10-30T10:28:23.000Z</time>
      </trkpt>
      <trkpt lat="47.80533" lon="2.14294">
        <ele>102</ele>
        <time>2016-10-30T10:28:24.000Z</time>
      </trkpt>
      <trkpt lat="47.8053" lon="2.14291">
        <ele>102</ele>
        <time>2016-10-30T10:28:25.000Z</time>
      </trkpt>
      <trkpt lat="47.80527" lon="2.14287">
        <ele>102</ele>
        <time>2016-10-30T10:28:26.000Z</time>
      </trkpt>
      <trkpt lat="47.80524" lon="2.14284">
        <ele>102</ele>
        <time>2016-10-30T10:28:27.000Z</time>
      </trkpt>
      <trkpt lat="47.80521" lon="2.14281">
        <ele>102</ele>
        <time>2016-10-30T10:28:28.000Z</time>
      </trkpt>
      <trkpt lat="47.80518" lon="2.14278">
        <ele>102</ele>
        <time>2016-10-30T10:28:29.000Z</time>
      </trkpt>
      <trkpt lat="47.80515" lon="2.14274">
        <ele>102</ele>
        <time>2016-10-30T10:28:30.000Z</time>
      </trkpt>
      <trkpt lat="47.80511" lon="2.14271">
        <ele>102</ele>
        <time>2016-10-30T10:28:31.000Z</time>
      </trkpt>
      <trkpt lat="47.80507" lon="2.14267">
        <ele>102</ele>
        <time>2016-10-30T10:28:32.000Z</time>
      </trkpt>
      <trkpt lat="47.80504" lon="2.14264">
        <ele>102</ele>
        <time>2016-10-30T10:28:33.000Z</time>
      </trkpt>
      <trkpt lat="47.805" lon="2.1426">
        <ele>102</ele>
        <time>2016-10-30T10:28:34.000Z</time>
      </trkpt>
      <trkpt lat="47.80496" lon="2.14255">
        <ele>102</ele>
        <time>2016-10-30T10:28:35.000Z</time>
      </trkpt>
      <trkpt lat="47.80492" lon="2.14252">
        <ele>102</ele>
        <time>2016-10-30T10:28:36.000Z</time>
      </trkpt>
      <trkpt lat="47.80488" lon="2.14248">
        <ele>102</ele>
        <time>2016-10-30T10:28:37.000Z</time>
      </trkpt>
      <trkpt lat="47.80485" lon="2.14244">
        <ele>102</ele>
        <time>2016-10-30T10:28:38.000Z</time>
      </trkpt>
      <trkpt lat="47.80481" lon="2.14241">
        <ele>102</ele>
        <time>2016-10-30T10:28:39.000Z</time>
      </trkpt>
      <trkpt lat="47.80478" lon="2.14237">
        <ele>103</ele>
        <time>2016-10-30T10:28:40.000Z</time>
      </trkpt>
      <trkpt lat="47.80475" lon="2.14234">
        <ele>103</ele>
        <time>2016-10-30T10:28:41.000Z</time>
      </trkpt>
      <trkpt lat="47.80471" lon="2.1423">
        <ele>103</ele>
        <time>2016-10-30T10:28:42.000Z</time>
      </trkpt>
      <trkpt lat="47.80468" lon="2.14227">
        <ele>103</ele>
        <time>2016-10-30T10:28:43.000Z</time>
      </trkpt>
      <trkpt lat="47.80464" lon="2.14223">
        <ele>103</ele>
        <time>2016-10-30T10:28:44.000Z</time>
      </trkpt>
      <trkpt lat="47.8046" lon="2.14219">
        <ele>103</ele>
        <time>2016-10-30T10:28:45.000Z</time>
      </trkpt>
      <trkpt lat="47.80457" lon="2.14215">
        <ele>103</ele>
        <time>2016-10-30T10:28:46.000Z</time>
      </trkpt>
      <trkpt lat="47.80453" lon="2.14212">
        <ele>103</ele>
        <time>2016-10-30T10:28:47.000Z</time>
      </trkpt>
      <trkpt lat="47.80449" lon="2.14208">
        <ele>103</ele>
        <time>2016-10-30T10:28:48.000Z</time>
      </trkpt>
      <trkpt lat="47.80445" lon="2.14204">
        <ele>104</ele>
        <time>2016-10-30T10:28:49.000Z</time>
      </trkpt>
      <trkpt lat="47.80441" lon="2.14201">
        <ele>104</ele>
        <time>2016-10-30T10:28:50.000Z</time>
      </trkpt>
      <trkpt lat="47.80438" lon="2.14197">
        <ele>104</ele>
        <time>2016-10-30T10:28:51.000Z</time>
      </trkpt>
      <trkpt lat="47.80434" lon="2.14194">
        <ele>105</ele>
        <time>2016-10-30T10:28:52.000Z</time>
      </trkpt>
      <trkpt lat="47.8043" lon="2.14191">
        <ele>105</ele>
        <time>2016-10-30T10:28:53.000Z</time>
      </trkpt>
      <trkpt lat="47.80427" lon="2.14187">
        <ele>105</ele>
        <time>2016-10-30T10:28:54.000Z</time>
      </trkpt>
      <trkpt lat="47.80424" lon="2.14184">
        <ele>105</ele>
        <time>2016-10-30T10:28:55.000Z</time>
      </trkpt>
      <trkpt lat="47.80421" lon="2.1418">
        <ele>105</ele>
        <time>2016-10-30T10:28:56.000Z</time>
      </trkpt>
      <trkpt lat="47.80417" lon="2.14177">
        <ele>105</ele>
        <time>2016-10-30T10:28:57.000Z</time>
      </trkpt>
      <trkpt lat="47.80414" lon="2.14173">
        <ele>105</ele>
        <time>2016-10-30T10:28:58.000Z</time>
      </trkpt>
      <trkpt lat="47.80411" lon="2.1417">
        <ele>106</ele>
        <time>2016-10-30T10:28:59.000Z</time>
      </trkpt>
      <trkpt lat="47.80407" lon="2.14167">
        <ele>106</ele>
        <time>2016-10-30T10:29:00.000Z</time>
      </trkpt>
      <trkpt lat="47.80404" lon="2.14163">
        <ele>106</ele>
        <time>2016-10-30T10:29:01.000Z</time>
      </trkpt>
      <trkpt lat="47.80401" lon="2.1416">
        <ele>106</ele>
        <time>2016-10-30T10:29:02.000Z</time>
      </trkpt>
      <trkpt lat="47.80398" lon="2.14157">
        <ele>106</ele>
        <time>2016-10-30T10:29:03.000Z</time>
      </trkpt>
      <trkpt lat="47.80395" lon="2.14155">
        <ele>106</ele>
        <time>2016-10-30T10:29:04.000Z</time>
      </trkpt>
      <trkpt lat="47.80392" lon="2.14152">
        <ele>106</ele>
        <time>2016-10-30T10:29:05.000Z</time>
      </trkpt>
      <trkpt lat="47.80389" lon="2.1415">
        <ele>105</ele>
        <time>2016-10-30T10:29:06.000Z</time>
      </trkpt>
      <trkpt lat="47.80386" lon="2.14147">
        <ele>106</ele>
        <time>2016-10-30T10:29:07.000Z</time>
      </trkpt>
      <trkpt lat="47.80382" lon="2.14144">
        <ele>106</ele>
        <time>2016-10-30T10:29:08.000Z</time>
      </trkpt>
      <trkpt lat="47.80379" lon="2.14141">
        <ele>106</ele>
        <time>2016-10-30T10:29:09.000Z</time>
      </trkpt>
      <trkpt lat="47.80375" lon="2.14138">
        <ele>106</ele>
        <time>2016-10-30T10:29:10.000Z</time>
      </trkpt>
      <trkpt lat="47.80372" lon="2.14136">
        <ele>107</ele>
        <time>2016-10-30T10:29:11.000Z</time>
      </trkpt>
      <trkpt lat="47.80368" lon="2.14133">
        <ele>106</ele>
        <time>2016-10-30T10:29:12.000Z</time>
      </trkpt>
      <trkpt lat="47.80363" lon="2.1413">
        <ele>106</ele>
        <time>2016-10-30T10:29:13.000Z</time>
      </trkpt>
      <trkpt lat="47.80359" lon="2.14128">
        <ele>106</ele>
        <time>2016-10-30T10:29:14.000Z</time>
      </trkpt>
      <trkpt lat="47.80356" lon="2.14126">
        <ele>106</ele>
        <time>2016-10-30T10:29:15.000Z</time>
      </trkpt>
      <trkpt lat="47.80352" lon="2.14123">
        <ele>106</ele>
        <time>2016-10-30T10:29:16.000Z</time>
      </trkpt>
      <trkpt lat="47.80349" lon="2.14121">
        <ele>106</ele>
        <time>2016-10-30T10:29:17.000Z</time>
      </trkpt>
      <trkpt lat="47.80345" lon="2.14118">
        <ele>106</ele>
        <time>2016-10-30T10:29:18.000Z</time>
      </trkpt>
      <trkpt lat="47.80342" lon="2.14115">
        <ele>106</ele>
        <time>2016-10-30T10:29:19.000Z</time>
      </trkpt>
      <trkpt lat="47.80339" lon="2.14113">
        <ele>107</ele>
        <time>2016-10-30T10:29:20.000Z</time>
      </trkpt>
      <trkpt lat="47.80336" lon="2.14111">
        <ele>107</ele>
        <time>2016-10-30T10:29:21.000Z</time>
      </trkpt>
      <trkpt lat="47.80333" lon="2.14109">
        <ele>107</ele>
        <time>2016-10-30T10:29:22.000Z</time>
      </trkpt>
      <trkpt lat="47.80329" lon="2.14106">
        <ele>107</ele>
        <time>2016-10-30T10:29:23.000Z</time>
      </trkpt>
      <trkpt lat="47.80326" lon="2.14104">
        <ele>107</ele>
        <time>2016-10-30T10:29:24.000Z</time>
      </trkpt>
      <trkpt lat="47.80323" lon="2.14101">
        <ele>107</ele>
        <time>2016-10-30T10:29:25.000Z</time>
      </trkpt>
      <trkpt lat="47.80319" lon="2.14098">
        <ele>107</ele>
        <time>2016-10-30T10:29:26.000Z</time>
      </trkpt>
      <trkpt lat="47.80316" lon="2.14096">
        <ele>107</ele>
        <time>2016-10-30T10:29:27.000Z</time>
      </trkpt>
      <trkpt lat="47.80312" lon="2.14094">
        <ele>107</ele>
        <time>2016-10-30T10:29:28.000Z</time>
      </trkpt>
      <trkpt lat="47.80308" lon="2.14092">
        <ele>107</ele>
        <time>2016-10-30T10:29:29.000Z</time>
      </trkpt>
      <trkpt lat="47.80305" lon="2.14089">
        <ele>107</ele>
        <time>2016-10-30T10:29:30.000Z</time>
      </trkpt>
      <trkpt lat="47.80302" lon="2.14087">
        <ele>107</ele>
        <time>2016-10-30T10:29:31.000Z</time>
      </trkpt>
      <trkpt lat="47.80299" lon="2.14085">
        <ele>107</ele>
        <time>2016-10-30T10:29:32.000Z</time>
      </trkpt>
      <trkpt lat="47.80295" lon="2.14083">
        <ele>107</ele>
        <time>2016-10-30T10:29:33.000Z</time>
      </trkpt>
      <trkpt lat="47.80292" lon="2.14081">
        <ele>106</ele>
        <time>2016-10-30T10:29:34.000Z</time>
      </trkpt>
      <trkpt lat="47.80289" lon="2.14079">
        <ele>106</ele>
        <time>2016-10-30T10:29:35.000Z</time>
      </trkpt>
      <trkpt lat="47.80286" lon="2.14077">
        <ele>106</ele>
        <time>2016-10-30T10:29:36.000Z</time>
      </trkpt>
      <trkpt lat="47.80282" lon="2.14075">
        <ele>107</ele>
        <time>2016-10-30T10:29:37.000Z</time>
      </trkpt>
      <trkpt lat="47.80278" lon="2.14073">
        <ele>107</ele>
        <time>2016-10-30T10:29:38.000Z</time>
      </trkpt>
      <trkpt lat="47.80274" lon="2.14072">
        <ele>107</ele>
        <time>2016-10-30T10:29:39.000Z</time>
      </trkpt>
      <trkpt lat="47.80271" lon="2.14072">
        <ele>107</ele>
        <time>2016-10-30T10:29:40.000Z</time>
      </trkpt>
      <trkpt lat="47.80267" lon="2.14072">
        <ele>107</ele>
        <time>2016-10-30T10:29:41.000Z</time>
      </trkpt>
      <trkpt lat="47.80264" lon="2.14074">
        <ele>107</ele>
        <time>2016-10-30T10:29:42.000Z</time>
      </trkpt>
      <trkpt lat="47.80262" lon="2.14077">
        <ele>107</ele>
        <time>2016-10-30T10:29:43.000Z</time>
      </trkpt>
      <trkpt lat="47.80259" lon="2.1408">
        <ele>108</ele>
        <time>2016-10-30T10:29:44.000Z</time>
      </trkpt>
      <trkpt lat="47.80257" lon="2.14084">
        <ele>107</ele>
        <time>2016-10-30T10:29:45.000Z</time>
      </trkpt>
      <trkpt lat="47.80256" lon="2.14089">
        <ele>106</ele>
        <time>2016-10-30T10:29:46.000Z</time>
      </trkpt>
      <trkpt lat="47.80256" lon="2.14094">
        <ele>107</ele>
        <time>2016-10-30T10:29:47.000Z</time>
      </trkpt>
      <trkpt lat="47.80256" lon="2.14099">
        <ele>107</ele>
        <time>2016-10-30T10:29:48.000Z</time>
      </trkpt>
      <trkpt lat="47.80255" lon="2.14105">
        <ele>107</ele>
        <time>2016-10-30T10:29:49.000Z</time>
      </trkpt>
      <trkpt lat="47.80253" lon="2.1411">
        <ele>107</ele>
        <time>2016-10-30T10:29:50.000Z</time>
      </trkpt>
      <trkpt lat="47.80251" lon="2.14115">
        <ele>107</ele>
        <time>2016-10-30T10:29:51.000Z</time>
      </trkpt>
      <trkpt lat="47.8025" lon="2.1412">
        <ele>108</ele>
        <time>2016-10-30T10:29:52.000Z</time>
      </trkpt>
      <trkpt lat="47.80248" lon="2.14124">
        <ele>108</ele>
        <time>2016-10-30T10:29:53.000Z</time>
      </trkpt>
      <trkpt lat="47.80247" lon="2.14129">
        <ele>108</ele>
        <time>2016-10-30T10:29:54.000Z</time>
      </trkpt>
      <trkpt lat="47.80245" lon="2.14133">
        <ele>108</ele>
        <time>2016-10-30T10:29:55.000Z</time>
      </trkpt>
      <trkpt lat="47.80244" lon="2.14138">
        <ele>108</ele>
        <time>2016-10-30T10:29:56.000Z</time>
      </trkpt>
      <trkpt lat="47.80243" lon="2.14143">
        <ele>108</ele>
        <time>2016-10-30T10:29:57.000Z</time>
      </trkpt>
      <trkpt lat="47.80241" lon="2.14149">
        <ele>108</ele>
        <time>2016-10-30T10:29:58.000Z</time>
      </trkpt>
      <trkpt lat="47.8024" lon="2.14154">
        <ele>108</ele>
        <time>2016-10-30T10:29:59.000Z</time>
      </trkpt>
      <trkpt lat="47.80239" lon="2.1416">
        <ele>107</ele>
        <time>2016-10-30T10:30:00.000Z</time>
      </trkpt>
      <trkpt lat="47.80239" lon="2.14165">
        <ele>107</ele>
        <time>2016-10-30T10:30:01.000Z</time>
      </trkpt>
      <trkpt lat="47.80239" lon="2.1417">
        <ele>107</ele>
        <time>2016-10-30T10:30:02.000Z</time>
      </trkpt>
      <trkpt lat="47.80239" lon="2.14175">
        <ele>107</ele>
        <time>2016-10-30T10:30:03.000Z</time>
      </trkpt>
      <trkpt lat="47.8024" lon="2.1418">
        <ele>107</ele>
        <time>2016-10-30T10:30:04.000Z</time>
      </trkpt>
      <trkpt lat="47.8024" lon="2.14184">
        <ele>107</ele>
        <time>2016-10-30T10:30:05.000Z</time>
      </trkpt>
      <trkpt lat="47.80241" lon="2.14189">
        <ele>107</ele>
        <time>2016-10-30T10:30:06.000Z</time>
      </trkpt>
      <trkpt lat="47.80241" lon="2.14195">
        <ele>107</ele>
        <time>2016-10-30T10:30:07.000Z</time>
      </trkpt>
      <trkpt lat="47.80241" lon="2.142">
        <ele>107</ele>
        <time>2016-10-30T10:30:08.000Z</time>
      </trkpt>
      <trkpt lat="47.80242" lon="2.14206">
        <ele>107</ele>
        <time>2016-10-30T10:30:09.000Z</time>
      </trkpt>
      <trkpt lat="47.80242" lon="2.14212">
        <ele>107</ele>
        <time>2016-10-30T10:30:10.000Z</time>
      </trkpt>
      <trkpt lat="47.80242" lon="2.14217">
        <ele>106</ele>
        <time>2016-10-30T10:30:11.000Z</time>
      </trkpt>
      <trkpt lat="47.80241" lon="2.14222">
        <ele>107</ele>
        <time>2016-10-30T10:30:12.000Z</time>
      </trkpt>
      <trkpt lat="47.80239" lon="2.14227">
        <ele>107</ele>
        <time>2016-10-30T10:30:13.000Z</time>
      </trkpt>
      <trkpt lat="47.80237" lon="2.14231">
        <ele>107</ele>
        <time>2016-10-30T10:30:14.000Z</time>
      </trkpt>
      <trkpt lat="47.80235" lon="2.14235">
        <ele>106</ele>
        <time>2016-10-30T10:30:15.000Z</time>
      </trkpt>
      <trkpt lat="47.80233" lon="2.14238">
        <ele>106</ele>
        <time>2016-10-30T10:30:16.000Z</time>
      </trkpt>
      <trkpt lat="47.8023" lon="2.14241">
        <ele>107</ele>
        <time>2016-10-30T10:30:17.000Z</time>
      </trkpt>
      <trkpt lat="47.80227" lon="2.14243">
        <ele>107</ele>
        <time>2016-10-30T10:30:18.000Z</time>
      </trkpt>
      <trkpt lat="47.80223" lon="2.14244">
        <ele>107</ele>
        <time>2016-10-30T10:30:19.000Z</time>
      </trkpt>
      <trkpt lat="47.8022" lon="2.14244">
        <ele>106</ele>
        <time>2016-10-30T10:30:20.000Z</time>
      </trkpt>
      <trkpt lat="47.80216" lon="2.14244">
        <ele>106</ele>
        <time>2016-10-30T10:30:21.000Z</time>
      </trkpt>
      <trkpt lat="47.80213" lon="2.14244">
        <ele>107</ele>
        <time>2016-10-30T10:30:22.000Z</time>
      </trkpt>
      <trkpt lat="47.80209" lon="2.14244">
        <ele>107</ele>
        <time>2016-10-30T10:30:23.000Z</time>
      </trkpt>
      <trkpt lat="47.80206" lon="2.14244">
        <ele>107</ele>
        <time>2016-10-30T10:30:24.000Z</time>
      </trkpt>
      <trkpt lat="47.80203" lon="2.14244">
        <ele>107</ele>
        <time>2016-10-30T10:30:25.000Z</time>
      </trkpt>
      <trkpt lat="47.802" lon="2.14244">
        <ele>107</ele>
        <time>2016-10-30T10:30:26.000Z</time>
      </trkpt>
      <trkpt lat="47.80197" lon="2.14244">
        <ele>107</ele>
        <time>2016-10-30T10:30:27.000Z</time>
      </trkpt>
      <trkpt lat="47.80195" lon="2.14244">
        <ele>107</ele>
        <time>2016-10-30T10:30:28.000Z</time>
      </trkpt>
      <trkpt lat="47.80192" lon="2.14243">
        <ele>107</ele>
        <time>2016-10-30T10:30:29.000Z</time>
      </trkpt>
      <trkpt lat="47.80191" lon="2.14243">
        <ele>107</ele>
        <time>2016-10-30T10:30:30.000Z</time>
      </trkpt>
      <trkpt lat="47.8019" lon="2.14243">
        <ele>107</ele>
        <time>2016-10-30T10:30:31.000Z</time>
      </trkpt>
      <trkpt lat="47.80188" lon="2.14243">
        <ele>107</ele>
        <time>2016-10-30T10:30:32.000Z</time>
      </trkpt>
      <trkpt lat="47.80187" lon="2.14242">
        <ele>107</ele>
        <time>2016-10-30T10:30:33.000Z</time>
      </trkpt>
      <trkpt lat="47.80186" lon="2.14241">
        <ele>107</ele>
        <time>2016-10-30T10:30:34.000Z</time>
      </trkpt>
      <trkpt lat="47.80184" lon="2.14239">
        <ele>107</ele>
        <time>2016-10-30T10:30:35.000Z</time>
      </trkpt>
      <trkpt lat="47.80183" lon="2.14237">
        <ele>107</ele>
        <time>2016-10-30T10:30:36.000Z</time>
      </trkpt>
      <trkpt lat="47.80181" lon="2.14234">
        <ele>107</ele>
        <time>2016-10-30T10:30:37.000Z</time>
      </trkpt>
      <trkpt lat="47.80178" lon="2.14232">
        <ele>106</ele>
        <time>2016-10-30T10:30:38.000Z</time>
      </trkpt>
      <trkpt lat="47.80175" lon="2.14231">
        <ele>106</ele>
        <time>2016-10-30T10:30:39.000Z</time>
      </trkpt>
      <trkpt lat="47.80172" lon="2.14232">
        <ele>105</ele>
        <time>2016-10-30T10:30:40.000Z</time>
      </trkpt>
      <trkpt lat="47.80168" lon="2.14232">
        <ele>105</ele>
        <time>2016-10-30T10:30:41.000Z</time>
      </trkpt>
      <trkpt lat="47.80165" lon="2.14233">
        <ele>105</ele>
        <time>2016-10-30T10:30:42.000Z</time>
      </trkpt>
      <trkpt lat="47.8016" lon="2.14233">
        <ele>105</ele>
        <time>2016-10-30T10:30:43.000Z</time>
      </trkpt>
      <trkpt lat="47.80156" lon="2.14233">
        <ele>106</ele>
        <time>2016-10-30T10:30:44.000Z</time>
      </trkpt>
      <trkpt lat="47.80152" lon="2.14233">
        <ele>106</ele>
        <time>2016-10-30T10:30:45.000Z</time>
      </trkpt>
      <trkpt lat="47.80147" lon="2.14234">
        <ele>106</ele>
        <time>2016-10-30T10:30:46.000Z</time>
      </trkpt>
      <trkpt lat="47.80142" lon="2.14235">
        <ele>106</ele>
        <time>2016-10-30T10:30:47.000Z</time>
      </trkpt>
      <trkpt lat="47.80138" lon="2.14235">
        <ele>106</ele>
        <time>2016-10-30T10:30:48.000Z</time>
      </trkpt>
      <trkpt lat="47.80133" lon="2.14236">
        <ele>106</ele>
        <time>2016-10-30T10:30:49.000Z</time>
      </trkpt>
      <trkpt lat="47.80128" lon="2.14236">
        <ele>106</ele>
        <time>2016-10-30T10:30:50.000Z</time>
      </trkpt>
      <trkpt lat="47.80123" lon="2.14237">
        <ele>106</ele>
        <time>2016-10-30T10:30:51.000Z</time>
      </trkpt>
      <trkpt lat="47.80118" lon="2.14238">
        <ele>106</ele>
        <time>2016-10-30T10:30:52.000Z</time>
      </trkpt>
      <trkpt lat="47.80114" lon="2.14239">
        <ele>106</ele>
        <time>2016-10-30T10:30:53.000Z</time>
      </trkpt>
      <trkpt lat="47.80109" lon="2.1424">
        <ele>106</ele>
        <time>2016-10-30T10:30:54.000Z</time>
      </trkpt>
      <trkpt lat="47.80105" lon="2.14241">
        <ele>107</ele>
        <time>2016-10-30T10:30:55.000Z</time>
      </trkpt>
      <trkpt lat="47.80101" lon="2.14242">
        <ele>107</ele>
        <time>2016-10-30T10:30:56.000Z</time>
      </trkpt>
      <trkpt lat="47.80098" lon="2.14243">
        <ele>107</ele>
        <time>2016-10-30T10:30:57.000Z</time>
      </trkpt>
      <trkpt lat="47.80094" lon="2.14244">
        <ele>107</ele>
        <time>2016-10-30T10:30:58.000Z</time>
      </trkpt>
      <trkpt lat="47.80091" lon="2.14245">
        <ele>107</ele>
        <time>2016-10-30T10:30:59.000Z</time>
      </trkpt>
      <trkpt lat="47.80088" lon="2.14246">
        <ele>108</ele>
        <time>2016-10-30T10:31:00.000Z</time>
      </trkpt>
      <trkpt lat="47.80085" lon="2.14247">
        <ele>108</ele>
        <time>2016-10-30T10:31:01.000Z</time>
      </trkpt>
      <trkpt lat="47.80082" lon="2.14247">
        <ele>108</ele>
        <time>2016-10-30T10:31:02.000Z</time>
      </trkpt>
      <trkpt lat="47.80079" lon="2.14247">
        <ele>108</ele>
        <time>2016-10-30T10:31:03.000Z</time>
      </trkpt>
      <trkpt lat="47.80076" lon="2.14247">
        <ele>108</ele>
        <time>2016-10-30T10:31:04.000Z</time>
      </trkpt>
      <trkpt lat="47.80074" lon="2.14247">
        <ele>108</ele>
        <time>2016-10-30T10:31:05.000Z</time>
      </trkpt>
      <trkpt lat="47.80071" lon="2.14246">
        <ele>108</ele>
        <time>2016-10-30T10:31:06.000Z</time>
      </trkpt>
      <trkpt lat="47.80069" lon="2.14244">
        <ele>108</ele>
        <time>2016-10-30T10:31:07.000Z</time>
      </trkpt>
      <trkpt lat="47.80067" lon="2.14242">
        <ele>107</ele>
        <time>2016-10-30T10:31:08.000Z</time>
      </trkpt>
      <trkpt lat="47.80066" lon="2.14238">
        <ele>107</ele>
        <time>2016-10-30T10:31:09.000Z</time>
      </trkpt>
      <trkpt lat="47.80065" lon="2.14235">
        <ele>107</ele>
        <time>2016-10-30T10:31:10.000Z</time>
      </trkpt>
      <trkpt lat="47.80064" lon="2.14231">
        <ele>107</ele>
        <time>2016-10-30T10:31:11.000Z</time>
      </trkpt>
      <trkpt lat="47.80064" lon="2.14228">
        <ele>107</ele>
        <time>2016-10-30T10:31:12.000Z</time>
      </trkpt>
      <trkpt lat="47.80063" lon="2.14225">
        <ele>107</ele>
        <time>2016-10-30T10:31:13.000Z</time>
      </trkpt>
      <trkpt lat="47.80063" lon="2.14224">
        <ele>108</ele>
        <time>2016-10-30T10:31:14.000Z</time>
      </trkpt>
      <trkpt lat="47.80063" lon="2.14223">
        <ele>108</ele>
        <time>2016-10-30T10:31:15.000Z</time>
      </trkpt>
      <trkpt lat="47.80063" lon="2.14223">
        <ele>108</ele>
        <time>2016-10-30T10:31:16.000Z</time>
      </trkpt>
      <trkpt lat="47.80063" lon="2.14223">
        <ele>108</ele>
        <time>2016-10-30T10:31:17.000Z</time>
      </trkpt>
      <trkpt lat="47.80063" lon="2.14223">
        <ele>109</ele>
        <time>2016-10-30T10:31:18.000Z</time>
      </trkpt>
      <trkpt lat="47.80063" lon="2.14223">
        <ele>109</ele>
        <time>2016-10-30T10:31:19.000Z</time>
      </trkpt>
      <trkpt lat="47.80063" lon="2.14222">
        <ele>109</ele>
        <time>2016-10-30T10:31:20.000Z</time>
      </trkpt>
      <trkpt lat="47.80063" lon="2.14222">
        <ele>109</ele>
        <time>2016-10-30T10:31:21.000Z</time>
      </trkpt>
      <trkpt lat="47.80063" lon="2.14222">
        <ele>109</ele>
        <time>2016-10-30T10:31:22.000Z</time>
      </trkpt>
    </trkseg>
  </trk>
</gpx>